<?xml version="1.0" encoding="UTF-8" standalone="yes"?>
<gpx
 xmlns="http://www.topografix.com/GPX/1/1"
 creator="OziExplorer Version 3956f - http://www.oziexplorer.com"
 version="1.1"
 xmlns:xsi="http://www.w3.org/2001/XMLSchema-instance"
 xsi:schemaLocation="http://www.topografix.com/GPX/1/1 http://www.topografix.com/GPX/1/1/gpx.xsd">
<metadata>
 <time>2026-04-26T08:17:20Z</time>
 <bounds minlat="59.079171" minlon="29.982475" maxlat="59.102996" maxlon="30.057622"/>
</metadata>
<trk>
 <name>20260425_Lisa86_1</name>
 <desc>20260425_Lisa86_1</desc>
<trkseg>
<trkpt lat="59.0996330" lon="30.0284300">
<ele>87.447121</ele>
<time>2026-04-25T06:56:55.997Z</time>
</trkpt>
<trkpt lat="59.0996170" lon="30.0286970">
<ele>82.326485</ele>
<time>2026-04-25T06:57:11.998Z</time>
</trkpt>
<trkpt lat="59.0996020" lon="30.0286240">
<ele>86.807037</ele>
<time>2026-04-25T06:57:37.996Z</time>
</trkpt>
<trkpt lat="59.0995740" lon="30.0286360">
<ele>87.264236</ele>
<time>2026-04-25T06:58:19.001Z</time>
</trkpt>
<trkpt lat="59.0991790" lon="30.0290640">
<ele>88.056717</ele>
<time>2026-04-25T06:59:03.998Z</time>
</trkpt>
<trkpt lat="59.0990550" lon="30.0292670">
<ele>88.483437</ele>
<time>2026-04-25T06:59:29.996Z</time>
</trkpt>
<trkpt lat="59.0989330" lon="30.0293660">
<ele>88.148163</ele>
<time>2026-04-25T07:00:31.003Z</time>
</trkpt>
<trkpt lat="59.0989050" lon="30.0293290">
<ele>87.904320</ele>
<time>2026-04-25T07:01:40.002Z</time>
</trkpt>
<trkpt lat="59.0989880" lon="30.0292860">
<ele>87.721436</ele>
<time>2026-04-25T07:05:20.003Z</time>
</trkpt>
<trkpt lat="59.0991160" lon="30.0290850">
<ele>87.416634</ele>
<time>2026-04-25T07:05:48.998Z</time>
</trkpt>
<trkpt lat="59.0990670" lon="30.0292200">
<ele>87.782402</ele>
<time>2026-04-25T07:05:55.003Z</time>
</trkpt>
<trkpt lat="59.0989480" lon="30.0293270">
<ele>87.111839</ele>
<time>2026-04-25T07:06:10.996Z</time>
</trkpt>
<trkpt lat="59.0989370" lon="30.0294270">
<ele>86.136482</ele>
<time>2026-04-25T07:07:17.999Z</time>
</trkpt>
<trkpt lat="59.0989190" lon="30.0294090">
<ele>86.654633</ele>
<time>2026-04-25T07:08:45.004Z</time>
</trkpt>
<trkpt lat="59.0989910" lon="30.0295670">
<ele>86.624161</ele>
<time>2026-04-25T07:09:12.997Z</time>
</trkpt>
<trkpt lat="59.0990310" lon="30.0297970">
<ele>85.709763</ele>
<time>2026-04-25T07:11:23.997Z</time>
</trkpt>
<trkpt lat="59.0990160" lon="30.0297640">
<ele>85.100166</ele>
<time>2026-04-25T07:12:56.998Z</time>
</trkpt>
<trkpt lat="59.0990980" lon="30.0296080">
<ele>85.191597</ele>
<time>2026-04-25T07:13:19.004Z</time>
</trkpt>
<trkpt lat="59.0991020" lon="30.0296750">
<ele>84.734398</ele>
<time>2026-04-25T07:13:29.001Z</time>
</trkpt>
<trkpt lat="59.0990210" lon="30.0298580">
<ele>84.490562</ele>
<time>2026-04-25T07:13:42.997Z</time>
</trkpt>
<trkpt lat="59.0990400" lon="30.0299800">
<ele>82.875114</ele>
<time>2026-04-25T07:13:53.003Z</time>
</trkpt>
<trkpt lat="59.0991150" lon="30.0301230">
<ele>83.118965</ele>
<time>2026-04-25T07:14:20.003Z</time>
</trkpt>
<trkpt lat="59.0991410" lon="30.0300920">
<ele>81.351120</ele>
<time>2026-04-25T07:14:25.999Z</time>
</trkpt>
<trkpt lat="59.0992460" lon="30.0301790">
<ele>82.509361</ele>
<time>2026-04-25T07:15:05.000Z</time>
</trkpt>
<trkpt lat="59.0992600" lon="30.0302810">
<ele>82.966560</ele>
<time>2026-04-25T07:15:15.998Z</time>
</trkpt>
<trkpt lat="59.0993280" lon="30.0303750">
<ele>82.021683</ele>
<time>2026-04-25T07:15:59.000Z</time>
</trkpt>
<trkpt lat="59.0993220" lon="30.0304430">
<ele>79.766167</ele>
<time>2026-04-25T07:16:13.999Z</time>
</trkpt>
<trkpt lat="59.0993540" lon="30.0304320">
<ele>81.290161</ele>
<time>2026-04-25T07:18:05.999Z</time>
</trkpt>
<trkpt lat="59.0993270" lon="30.0304150">
<ele>80.497681</ele>
<time>2026-04-25T07:18:58.997Z</time>
</trkpt>
<trkpt lat="59.0994390" lon="30.0306110">
<ele>79.766167</ele>
<time>2026-04-25T07:22:02.001Z</time>
</trkpt>
<trkpt lat="59.0995360" lon="30.0309150">
<ele>77.967842</ele>
<time>2026-04-25T07:26:33.003Z</time>
</trkpt>
<trkpt lat="59.0992560" lon="30.0310310">
<ele>76.809601</ele>
<time>2026-04-25T07:31:08.999Z</time>
</trkpt>
<trkpt lat="59.0990700" lon="30.0315270">
<ele>76.961998</ele>
<time>2026-04-25T07:33:36.000Z</time>
</trkpt>
<trkpt lat="59.0990740" lon="30.0314830">
<ele>76.169518</ele>
<time>2026-04-25T07:34:04.002Z</time>
</trkpt>
<trkpt lat="59.0990880" lon="30.0314430">
<ele>76.260956</ele>
<time>2026-04-25T07:35:30.998Z</time>
</trkpt>
<trkpt lat="59.0990740" lon="30.0314920">
<ele>76.657204</ele>
<time>2026-04-25T07:36:07.001Z</time>
</trkpt>
<trkpt lat="59.0991060" lon="30.0315440">
<ele>76.199997</ele>
<time>2026-04-25T07:37:21.003Z</time>
</trkpt>
<trkpt lat="59.0990310" lon="30.0314290">
<ele>76.565758</ele>
<time>2026-04-25T07:39:14.999Z</time>
</trkpt>
<trkpt lat="59.0989950" lon="30.0315690">
<ele>76.230484</ele>
<time>2026-04-25T07:39:50.000Z</time>
</trkpt>
<trkpt lat="59.0988780" lon="30.0317480">
<ele>75.864716</ele>
<time>2026-04-25T07:40:19.998Z</time>
</trkpt>
<trkpt lat="59.0989380" lon="30.0316340">
<ele>75.681839</ele>
<time>2026-04-25T07:40:56.001Z</time>
</trkpt>
<trkpt lat="59.0989970" lon="30.0313850">
<ele>75.834244</ele>
<time>2026-04-25T07:41:15.000Z</time>
</trkpt>
<trkpt lat="59.0990210" lon="30.0311340">
<ele>75.316078</ele>
<time>2026-04-25T07:42:07.004Z</time>
</trkpt>
<trkpt lat="59.0989400" lon="30.0309430">
<ele>75.986641</ele>
<time>2026-04-25T07:42:56.002Z</time>
</trkpt>
<trkpt lat="59.0989440" lon="30.0307450">
<ele>75.864716</ele>
<time>2026-04-25T07:43:28.004Z</time>
</trkpt>
<trkpt lat="59.0988410" lon="30.0306310">
<ele>74.858879</ele>
<time>2026-04-25T07:44:42.999Z</time>
</trkpt>
<trkpt lat="59.0988580" lon="30.0306850">
<ele>74.310242</ele>
<time>2026-04-25T07:45:14.000Z</time>
</trkpt>
<trkpt lat="59.0988410" lon="30.0305500">
<ele>75.346558</ele>
<time>2026-04-25T07:46:02.004Z</time>
</trkpt>
<trkpt lat="59.0988460" lon="30.0305860">
<ele>75.377045</ele>
<time>2026-04-25T07:46:13.996Z</time>
</trkpt>
<trkpt lat="59.0988770" lon="30.0305400">
<ele>75.224640</ele>
<time>2026-04-25T07:46:36.002Z</time>
</trkpt>
<trkpt lat="59.0988450" lon="30.0304460">
<ele>75.072243</ele>
<time>2026-04-25T07:46:47.001Z</time>
</trkpt>
<trkpt lat="59.0988020" lon="30.0299310">
<ele>76.565758</ele>
<time>2026-04-25T07:47:51.999Z</time>
</trkpt>
<trkpt lat="59.0987640" lon="30.0297800">
<ele>77.297279</ele>
<time>2026-04-25T07:48:05.003Z</time>
</trkpt>
<trkpt lat="59.0987890" lon="30.0296560">
<ele>76.840080</ele>
<time>2026-04-25T07:48:20.002Z</time>
</trkpt>
<trkpt lat="59.0991500" lon="30.0290800">
<ele>76.626717</ele>
<time>2026-04-25T07:49:12.999Z</time>
</trkpt>
<trkpt lat="59.0993360" lon="30.0289060">
<ele>77.663040</ele>
<time>2026-04-25T07:49:46.004Z</time>
</trkpt>
<trkpt lat="59.0993080" lon="30.0288630">
<ele>76.718163</ele>
<time>2026-04-25T07:51:33.002Z</time>
</trkpt>
<trkpt lat="59.0994570" lon="30.0290620">
<ele>76.565758</ele>
<time>2026-04-25T07:54:26.001Z</time>
</trkpt>
<trkpt lat="59.0994470" lon="30.0291720">
<ele>75.041756</ele>
<time>2026-04-25T07:54:41.000Z</time>
</trkpt>
<trkpt lat="59.0995250" lon="30.0293690">
<ele>73.883514</ele>
<time>2026-04-25T07:55:08.000Z</time>
</trkpt>
<trkpt lat="59.0995530" lon="30.0296590">
<ele>75.224640</ele>
<time>2026-04-25T07:55:37.004Z</time>
</trkpt>
<trkpt lat="59.0994740" lon="30.0297420">
<ele>75.316078</ele>
<time>2026-04-25T07:55:59.002Z</time>
</trkpt>
<trkpt lat="59.0995850" lon="30.0298750">
<ele>75.407516</ele>
<time>2026-04-25T07:57:29.998Z</time>
</trkpt>
<trkpt lat="59.0995650" lon="30.0298820">
<ele>74.371201</ele>
<time>2026-04-25T07:58:11.004Z</time>
</trkpt>
<trkpt lat="59.0996010" lon="30.0300070">
<ele>74.340721</ele>
<time>2026-04-25T07:58:49.002Z</time>
</trkpt>
<trkpt lat="59.0996340" lon="30.0300360">
<ele>72.938644</ele>
<time>2026-04-25T07:58:54.998Z</time>
</trkpt>
<trkpt lat="59.0996220" lon="30.0300950">
<ele>74.797920</ele>
<time>2026-04-25T07:59:11.000Z</time>
</trkpt>
<trkpt lat="59.0996540" lon="30.0302110">
<ele>73.792084</ele>
<time>2026-04-25T07:59:20.996Z</time>
</trkpt>
<trkpt lat="59.0996270" lon="30.0303470">
<ele>74.127357</ele>
<time>2026-04-25T07:59:32.004Z</time>
</trkpt>
<trkpt lat="59.0996620" lon="30.0306920">
<ele>73.883514</ele>
<time>2026-04-25T08:00:49.003Z</time>
</trkpt>
<trkpt lat="59.0996960" lon="30.0307370">
<ele>73.670158</ele>
<time>2026-04-25T08:01:04.996Z</time>
</trkpt>
<trkpt lat="59.0997130" lon="30.0307130">
<ele>73.395844</ele>
<time>2026-04-25T08:02:28.000Z</time>
</trkpt>
<trkpt lat="59.0997190" lon="30.0310630">
<ele>74.127357</ele>
<time>2026-04-25T08:04:02.997Z</time>
</trkpt>
<trkpt lat="59.0997780" lon="30.0312810">
<ele>74.157845</ele>
<time>2026-04-25T08:04:33.004Z</time>
</trkpt>
<trkpt lat="59.0997580" lon="30.0315180">
<ele>74.493118</ele>
<time>2026-04-25T08:05:00.004Z</time>
</trkpt>
<trkpt lat="59.0998090" lon="30.0314690">
<ele>73.639679</ele>
<time>2026-04-25T08:06:25.004Z</time>
</trkpt>
<trkpt lat="59.0997890" lon="30.0317330">
<ele>73.761597</ele>
<time>2026-04-25T08:07:45.002Z</time>
</trkpt>
<trkpt lat="59.0998540" lon="30.0319930">
<ele>74.767441</ele>
<time>2026-04-25T08:08:16.002Z</time>
</trkpt>
<trkpt lat="59.0998920" lon="30.0320150">
<ele>74.432159</ele>
<time>2026-04-25T08:08:32.004Z</time>
</trkpt>
<trkpt lat="59.0998660" lon="30.0321690">
<ele>74.462639</ele>
<time>2026-04-25T08:08:54.001Z</time>
</trkpt>
<trkpt lat="59.0999380" lon="30.0323940">
<ele>74.980797</ele>
<time>2026-04-25T08:09:40.000Z</time>
</trkpt>
<trkpt lat="59.0999950" lon="30.0323440">
<ele>73.944481</ele>
<time>2026-04-25T08:13:10.004Z</time>
</trkpt>
<trkpt lat="59.1000450" lon="30.0321110">
<ele>74.584557</ele>
<time>2026-04-25T08:13:35.000Z</time>
</trkpt>
<trkpt lat="59.1000900" lon="30.0320680">
<ele>73.974960</ele>
<time>2026-04-25T08:13:41.998Z</time>
</trkpt>
<trkpt lat="59.1000460" lon="30.0319170">
<ele>73.822556</ele>
<time>2026-04-25T08:13:53.999Z</time>
</trkpt>
<trkpt lat="59.1000600" lon="30.0314380">
<ele>73.914001</ele>
<time>2026-04-25T08:14:42.003Z</time>
</trkpt>
<trkpt lat="59.1000140" lon="30.0311280">
<ele>73.456802</ele>
<time>2026-04-25T08:15:18.999Z</time>
</trkpt>
<trkpt lat="59.1000660" lon="30.0310640">
<ele>74.066399</ele>
<time>2026-04-25T08:15:31.000Z</time>
</trkpt>
<trkpt lat="59.1000050" lon="30.0304820">
<ele>73.792084</ele>
<time>2026-04-25T08:16:07.003Z</time>
</trkpt>
<trkpt lat="59.0999550" lon="30.0303730">
<ele>73.700638</ele>
<time>2026-04-25T08:16:19.004Z</time>
</trkpt>
<trkpt lat="59.0998100" lon="30.0293620">
<ele>75.438004</ele>
<time>2026-04-25T08:17:17.998Z</time>
</trkpt>
<trkpt lat="59.0997390" lon="30.0290010">
<ele>75.925682</ele>
<time>2026-04-25T08:17:36.997Z</time>
</trkpt>
<trkpt lat="59.0996200" lon="30.0286630">
<ele>74.736961</ele>
<time>2026-04-25T08:18:37.002Z</time>
</trkpt>
<trkpt lat="59.0995220" lon="30.0287600">
<ele>74.615044</ele>
<time>2026-04-25T08:19:38.001Z</time>
</trkpt>
<trkpt lat="59.0995050" lon="30.0287220">
<ele>74.188316</ele>
<time>2026-04-25T08:24:40.997Z</time>
</trkpt>
<trkpt lat="59.0995110" lon="30.0287690">
<ele>70.805038</ele>
<time>2026-04-25T08:34:29.001Z</time>
</trkpt>
<trkpt lat="59.0995130" lon="30.0287110">
<ele>71.902321</ele>
<time>2026-04-25T08:39:53.001Z</time>
</trkpt>
<trkpt lat="59.0995360" lon="30.0287440">
<ele>71.871841</ele>
<time>2026-04-25T08:45:06.002Z</time>
</trkpt>
<trkpt lat="59.0995110" lon="30.0287440">
<ele>71.749916</ele>
<time>2026-04-25T08:49:48.996Z</time>
</trkpt>
<trkpt lat="59.0995270" lon="30.0287490">
<ele>72.237602</ele>
<time>2026-04-25T08:52:17.000Z</time>
</trkpt>
<trkpt lat="59.0995140" lon="30.0286960">
<ele>74.096878</ele>
<time>2026-04-25T09:03:34.998Z</time>
</trkpt>
<trkpt lat="59.0995090" lon="30.0287540">
<ele>74.096878</ele>
<time>2026-04-25T09:03:56.002Z</time>
</trkpt>
<trkpt lat="59.0995090" lon="30.0286550">
<ele>74.736961</ele>
<time>2026-04-25T09:04:20.004Z</time>
</trkpt>
<trkpt lat="59.0995220" lon="30.0286820">
<ele>74.889359</ele>
<time>2026-04-25T09:04:43.003Z</time>
</trkpt>
<trkpt lat="59.0994700" lon="30.0287650">
<ele>75.011284</ele>
<time>2026-04-25T09:05:01.000Z</time>
</trkpt>
<trkpt lat="59.0992760" lon="30.0289700">
<ele>75.377045</ele>
<time>2026-04-25T09:06:19.002Z</time>
</trkpt>
<trkpt lat="59.0992860" lon="30.0290450">
<ele>74.157845</ele>
<time>2026-04-25T09:06:55.999Z</time>
</trkpt>
<trkpt lat="59.0992280" lon="30.0289570">
<ele>73.121521</ele>
<time>2026-04-25T09:09:13.997Z</time>
</trkpt>
<trkpt lat="59.0992940" lon="30.0289870">
<ele>75.559921</ele>
<time>2026-04-25T09:10:11.004Z</time>
</trkpt>
<trkpt lat="59.0992890" lon="30.0291210">
<ele>74.615044</ele>
<time>2026-04-25T09:12:37.996Z</time>
</trkpt>
<trkpt lat="59.0993840" lon="30.0293040">
<ele>74.645515</ele>
<time>2026-04-25T09:13:12.003Z</time>
</trkpt>
<trkpt lat="59.0993610" lon="30.0295610">
<ele>74.706482</ele>
<time>2026-04-25T09:13:58.002Z</time>
</trkpt>
<trkpt lat="59.0994080" lon="30.0297760">
<ele>74.340721</ele>
<time>2026-04-25T09:14:56.003Z</time>
</trkpt>
<trkpt lat="59.0993690" lon="30.0298150">
<ele>74.157845</ele>
<time>2026-04-25T09:15:16.004Z</time>
</trkpt>
<trkpt lat="59.0993630" lon="30.0300150">
<ele>62.605919</ele>
<time>2026-04-25T09:15:39.997Z</time>
</trkpt>
<trkpt lat="59.0993810" lon="30.0299660">
<ele>72.816719</ele>
<time>2026-04-25T09:15:57.001Z</time>
</trkpt>
<trkpt lat="59.0994860" lon="30.0302560">
<ele>67.330315</ele>
<time>2026-04-25T09:16:22.999Z</time>
</trkpt>
<trkpt lat="59.0994740" lon="30.0302940">
<ele>73.670158</ele>
<time>2026-04-25T09:16:29.997Z</time>
</trkpt>
<trkpt lat="59.0995270" lon="30.0305030">
<ele>72.664322</ele>
<time>2026-04-25T09:17:19.003Z</time>
</trkpt>
<trkpt lat="59.0995210" lon="30.0306030">
<ele>72.786240</ele>
<time>2026-04-25T09:17:45.001Z</time>
</trkpt>
<trkpt lat="59.0995490" lon="30.0306040">
<ele>73.853043</ele>
<time>2026-04-25T09:17:57.002Z</time>
</trkpt>
<trkpt lat="59.0995690" lon="30.0309470">
<ele>72.755760</ele>
<time>2026-04-25T09:18:55.002Z</time>
</trkpt>
<trkpt lat="59.0993740" lon="30.0309930">
<ele>73.030083</ele>
<time>2026-04-25T09:19:41.002Z</time>
</trkpt>
<trkpt lat="59.0993790" lon="30.0310730">
<ele>73.395844</ele>
<time>2026-04-25T09:19:54.998Z</time>
</trkpt>
<trkpt lat="59.0994720" lon="30.0312060">
<ele>72.268082</ele>
<time>2026-04-25T09:20:13.004Z</time>
</trkpt>
<trkpt lat="59.0996180" lon="30.0311750">
<ele>72.389999</ele>
<time>2026-04-25T09:20:32.004Z</time>
</trkpt>
<trkpt lat="59.0997330" lon="30.0317330">
<ele>72.725281</ele>
<time>2026-04-25T09:22:27.002Z</time>
</trkpt>
<trkpt lat="59.0997350" lon="30.0320710">
<ele>73.212959</ele>
<time>2026-04-25T09:23:22.998Z</time>
</trkpt>
<trkpt lat="59.0997920" lon="30.0321990">
<ele>72.816719</ele>
<time>2026-04-25T09:23:55.000Z</time>
</trkpt>
<trkpt lat="59.0998660" lon="30.0325840">
<ele>73.578720</ele>
<time>2026-04-25T09:24:39.997Z</time>
</trkpt>
<trkpt lat="59.0999020" lon="30.0328500">
<ele>68.762878</ele>
<time>2026-04-25T09:25:10.004Z</time>
</trkpt>
<trkpt lat="59.0998990" lon="30.0330220">
<ele>73.304398</ele>
<time>2026-04-25T09:26:58.998Z</time>
</trkpt>
<trkpt lat="59.0997690" lon="30.0329440">
<ele>73.456802</ele>
<time>2026-04-25T09:27:35.001Z</time>
</trkpt>
<trkpt lat="59.0996510" lon="30.0329690">
<ele>73.700638</ele>
<time>2026-04-25T09:28:19.004Z</time>
</trkpt>
<trkpt lat="59.0996460" lon="30.0328160">
<ele>70.256401</ele>
<time>2026-04-25T09:29:28.997Z</time>
</trkpt>
<trkpt lat="59.0995800" lon="30.0326270">
<ele>72.450958</ele>
<time>2026-04-25T09:29:50.001Z</time>
</trkpt>
<trkpt lat="59.0995630" lon="30.0323630">
<ele>71.841362</ele>
<time>2026-04-25T09:30:29.002Z</time>
</trkpt>
<trkpt lat="59.0995250" lon="30.0323110">
<ele>75.041756</ele>
<time>2026-04-25T09:30:40.000Z</time>
</trkpt>
<trkpt lat="59.0994800" lon="30.0318370">
<ele>73.487282</ele>
<time>2026-04-25T09:31:39.003Z</time>
</trkpt>
<trkpt lat="59.0994340" lon="30.0317520">
<ele>73.700638</ele>
<time>2026-04-25T09:31:55.004Z</time>
</trkpt>
<trkpt lat="59.0994440" lon="30.0316790">
<ele>71.079361</ele>
<time>2026-04-25T09:32:02.996Z</time>
</trkpt>
<trkpt lat="59.0993890" lon="30.0313350">
<ele>73.243439</ele>
<time>2026-04-25T09:32:53.998Z</time>
</trkpt>
<trkpt lat="59.0993390" lon="30.0312530">
<ele>73.334885</ele>
<time>2026-04-25T09:33:07.001Z</time>
</trkpt>
<trkpt lat="59.0993080" lon="30.0310240">
<ele>74.096878</ele>
<time>2026-04-25T09:33:36.999Z</time>
</trkpt>
<trkpt lat="59.0993230" lon="30.0309540">
<ele>73.365356</ele>
<time>2026-04-25T09:33:50.996Z</time>
</trkpt>
<trkpt lat="59.0991850" lon="30.0304320">
<ele>73.914001</ele>
<time>2026-04-25T09:35:38.996Z</time>
</trkpt>
<trkpt lat="59.0990920" lon="30.0305090">
<ele>74.340721</ele>
<time>2026-04-25T09:36:10.999Z</time>
</trkpt>
<trkpt lat="59.0990740" lon="30.0304320">
<ele>73.974960</ele>
<time>2026-04-25T09:36:28.002Z</time>
</trkpt>
<trkpt lat="59.0991410" lon="30.0303670">
<ele>74.340721</ele>
<time>2026-04-25T09:36:40.003Z</time>
</trkpt>
<trkpt lat="59.0991070" lon="30.0302560">
<ele>74.340721</ele>
<time>2026-04-25T09:37:37.001Z</time>
</trkpt>
<trkpt lat="59.0991210" lon="30.0300630">
<ele>74.401680</ele>
<time>2026-04-25T09:38:01.997Z</time>
</trkpt>
<trkpt lat="59.0990180" lon="30.0295520">
<ele>75.895203</ele>
<time>2026-04-25T09:39:22.997Z</time>
</trkpt>
<trkpt lat="59.0989280" lon="30.0294160">
<ele>75.834244</ele>
<time>2026-04-25T09:40:16.003Z</time>
</trkpt>
<trkpt lat="59.0988330" lon="30.0295250">
<ele>76.443840</ele>
<time>2026-04-25T09:40:30.000Z</time>
</trkpt>
<trkpt lat="59.0987570" lon="30.0297840">
<ele>75.956161</ele>
<time>2026-04-25T09:42:16.004Z</time>
</trkpt>
<trkpt lat="59.0987840" lon="30.0297070">
<ele>76.047600</ele>
<time>2026-04-25T09:43:12.000Z</time>
</trkpt>
<trkpt lat="59.0988310" lon="30.0301000">
<ele>76.718163</ele>
<time>2026-04-25T09:44:15.996Z</time>
</trkpt>
<trkpt lat="59.0988900" lon="30.0302490">
<ele>75.255119</ele>
<time>2026-04-25T09:44:34.002Z</time>
</trkpt>
<trkpt lat="59.0988670" lon="30.0303470">
<ele>74.980797</ele>
<time>2026-04-25T09:44:45.001Z</time>
</trkpt>
<trkpt lat="59.0989060" lon="30.0305510">
<ele>74.462639</ele>
<time>2026-04-25T09:45:13.003Z</time>
</trkpt>
<trkpt lat="59.0989030" lon="30.0306590">
<ele>74.432159</ele>
<time>2026-04-25T09:45:32.996Z</time>
</trkpt>
<trkpt lat="59.0989570" lon="30.0307520">
<ele>73.731117</ele>
<time>2026-04-25T09:46:06.001Z</time>
</trkpt>
<trkpt lat="59.0989550" lon="30.0309330">
<ele>74.493118</ele>
<time>2026-04-25T09:46:46.004Z</time>
</trkpt>
<trkpt lat="59.0990150" lon="30.0312280">
<ele>74.005440</ele>
<time>2026-04-25T09:48:14.003Z</time>
</trkpt>
<trkpt lat="59.0990090" lon="30.0313260">
<ele>73.822556</ele>
<time>2026-04-25T09:48:27.999Z</time>
</trkpt>
<trkpt lat="59.0990660" lon="30.0314070">
<ele>73.030083</ele>
<time>2026-04-25T09:48:41.003Z</time>
</trkpt>
<trkpt lat="59.0991200" lon="30.0318130">
<ele>74.035919</ele>
<time>2026-04-25T09:49:46.001Z</time>
</trkpt>
<trkpt lat="59.0991950" lon="30.0319330">
<ele>71.780403</ele>
<time>2026-04-25T09:50:05.001Z</time>
</trkpt>
<trkpt lat="59.0991760" lon="30.0321710">
<ele>75.163681</ele>
<time>2026-04-25T09:50:41.004Z</time>
</trkpt>
<trkpt lat="59.0992270" lon="30.0327720">
<ele>74.493118</ele>
<time>2026-04-25T09:51:50.996Z</time>
</trkpt>
<trkpt lat="59.0992840" lon="30.0328320">
<ele>75.498962</ele>
<time>2026-04-25T09:52:06.997Z</time>
</trkpt>
<trkpt lat="59.0992920" lon="30.0332310">
<ele>74.797920</ele>
<time>2026-04-25T09:53:10.000Z</time>
</trkpt>
<trkpt lat="59.0992650" lon="30.0331330">
<ele>75.072243</ele>
<time>2026-04-25T09:53:30.002Z</time>
</trkpt>
<trkpt lat="59.0990920" lon="30.0332870">
<ele>74.858879</ele>
<time>2026-04-25T09:54:00.000Z</time>
</trkpt>
<trkpt lat="59.0990660" lon="30.0332700">
<ele>74.706482</ele>
<time>2026-04-25T09:54:16.001Z</time>
</trkpt>
<trkpt lat="59.0990680" lon="30.0333120">
<ele>74.432159</ele>
<time>2026-04-25T09:54:32.996Z</time>
</trkpt>
<trkpt lat="59.0988560" lon="30.0320520">
<ele>74.615044</ele>
<time>2026-04-25T09:57:50.999Z</time>
</trkpt>
<trkpt lat="59.0987590" lon="30.0318750">
<ele>74.706482</ele>
<time>2026-04-25T09:58:48.999Z</time>
</trkpt>
<trkpt lat="59.0987420" lon="30.0312210">
<ele>74.523598</ele>
<time>2026-04-25T10:00:49.000Z</time>
</trkpt>
<trkpt lat="59.0987160" lon="30.0309990">
<ele>74.340721</ele>
<time>2026-04-25T10:01:21.996Z</time>
</trkpt>
<trkpt lat="59.0985970" lon="30.0305690">
<ele>75.011284</ele>
<time>2026-04-25T10:02:37.000Z</time>
</trkpt>
<trkpt lat="59.0985640" lon="30.0300990">
<ele>76.291443</ele>
<time>2026-04-25T10:03:13.997Z</time>
</trkpt>
<trkpt lat="59.0985380" lon="30.0300080">
<ele>75.133202</ele>
<time>2026-04-25T10:03:44.997Z</time>
</trkpt>
<trkpt lat="59.0983400" lon="30.0302800">
<ele>75.285599</ele>
<time>2026-04-25T10:04:48.000Z</time>
</trkpt>
<trkpt lat="59.0983700" lon="30.0302410">
<ele>68.732399</ele>
<time>2026-04-25T10:05:23.001Z</time>
</trkpt>
<trkpt lat="59.0983360" lon="30.0302490">
<ele>74.736961</ele>
<time>2026-04-25T10:06:19.999Z</time>
</trkpt>
<trkpt lat="59.0984630" lon="30.0306850">
<ele>74.310242</ele>
<time>2026-04-25T10:07:38.001Z</time>
</trkpt>
<trkpt lat="59.0984390" lon="30.0308820">
<ele>74.950317</ele>
<time>2026-04-25T10:08:15.999Z</time>
</trkpt>
<trkpt lat="59.0985380" lon="30.0312040">
<ele>75.438004</ele>
<time>2026-04-25T10:08:47.000Z</time>
</trkpt>
<trkpt lat="59.0985280" lon="30.0312860">
<ele>73.487282</ele>
<time>2026-04-25T10:09:05.999Z</time>
</trkpt>
<trkpt lat="59.0985830" lon="30.0313430">
<ele>70.896484</ele>
<time>2026-04-25T10:09:16.004Z</time>
</trkpt>
<trkpt lat="59.0985560" lon="30.0317740">
<ele>74.432159</ele>
<time>2026-04-25T10:10:06.004Z</time>
</trkpt>
<trkpt lat="59.0986210" lon="30.0318090">
<ele>74.371201</ele>
<time>2026-04-25T10:10:22.999Z</time>
</trkpt>
<trkpt lat="59.0986670" lon="30.0321640">
<ele>74.066399</ele>
<time>2026-04-25T10:11:14.001Z</time>
</trkpt>
<trkpt lat="59.0986540" lon="30.0322760">
<ele>74.310242</ele>
<time>2026-04-25T10:11:33.000Z</time>
</trkpt>
<trkpt lat="59.0986790" lon="30.0323840">
<ele>74.218803</ele>
<time>2026-04-25T10:11:54.004Z</time>
</trkpt>
<trkpt lat="59.0987400" lon="30.0324810">
<ele>75.102715</ele>
<time>2026-04-25T10:12:40.003Z</time>
</trkpt>
<trkpt lat="59.0987510" lon="30.0326350">
<ele>74.249283</ele>
<time>2026-04-25T10:12:52.998Z</time>
</trkpt>
<trkpt lat="59.0988190" lon="30.0328480">
<ele>74.676003</ele>
<time>2026-04-25T10:13:15.997Z</time>
</trkpt>
<trkpt lat="59.0987800" lon="30.0330510">
<ele>74.980797</ele>
<time>2026-04-25T10:13:50.998Z</time>
</trkpt>
<trkpt lat="59.0988660" lon="30.0334670">
<ele>74.279762</ele>
<time>2026-04-25T10:14:24.996Z</time>
</trkpt>
<trkpt lat="59.0988210" lon="30.0334250">
<ele>74.645515</ele>
<time>2026-04-25T10:14:40.004Z</time>
</trkpt>
<trkpt lat="59.0987160" lon="30.0335050">
<ele>74.615044</ele>
<time>2026-04-25T10:15:11.998Z</time>
</trkpt>
<trkpt lat="59.0985940" lon="30.0334810">
<ele>74.371201</ele>
<time>2026-04-25T10:16:24.004Z</time>
</trkpt>
<trkpt lat="59.0985700" lon="30.0332210">
<ele>74.767441</ele>
<time>2026-04-25T10:16:55.004Z</time>
</trkpt>
<trkpt lat="59.0985070" lon="30.0330470">
<ele>75.377045</ele>
<time>2026-04-25T10:17:17.002Z</time>
</trkpt>
<trkpt lat="59.0984650" lon="30.0323450">
<ele>75.255119</ele>
<time>2026-04-25T10:18:43.004Z</time>
</trkpt>
<trkpt lat="59.0984010" lon="30.0322110">
<ele>75.559921</ele>
<time>2026-04-25T10:18:58.997Z</time>
</trkpt>
<trkpt lat="59.0984030" lon="30.0320930">
<ele>75.316078</ele>
<time>2026-04-25T10:19:17.003Z</time>
</trkpt>
<trkpt lat="59.0983110" lon="30.0318480">
<ele>76.596237</ele>
<time>2026-04-25T10:20:03.002Z</time>
</trkpt>
<trkpt lat="59.0981610" lon="30.0307020">
<ele>76.870560</ele>
<time>2026-04-25T10:22:15.997Z</time>
</trkpt>
<trkpt lat="59.0980620" lon="30.0303350">
<ele>73.091042</ele>
<time>2026-04-25T10:22:57.003Z</time>
</trkpt>
<trkpt lat="59.0979410" lon="30.0303780">
<ele>76.382881</ele>
<time>2026-04-25T10:24:02.002Z</time>
</trkpt>
<trkpt lat="59.0979170" lon="30.0304620">
<ele>76.321915</ele>
<time>2026-04-25T10:25:55.998Z</time>
</trkpt>
<trkpt lat="59.0979140" lon="30.0303940">
<ele>76.017120</ele>
<time>2026-04-25T10:28:57.999Z</time>
</trkpt>
<trkpt lat="59.0979080" lon="30.0304310">
<ele>76.139038</ele>
<time>2026-04-25T10:30:05.996Z</time>
</trkpt>
<trkpt lat="59.0978960" lon="30.0303900">
<ele>76.504799</ele>
<time>2026-04-25T10:30:31.000Z</time>
</trkpt>
<trkpt lat="59.0978270" lon="30.0304250">
<ele>77.632561</ele>
<time>2026-04-25T10:32:01.997Z</time>
</trkpt>
<trkpt lat="59.0978420" lon="30.0306410">
<ele>76.321915</ele>
<time>2026-04-25T10:32:21.998Z</time>
</trkpt>
<trkpt lat="59.0979500" lon="30.0308510">
<ele>76.870560</ele>
<time>2026-04-25T10:32:51.003Z</time>
</trkpt>
<trkpt lat="59.0979590" lon="30.0311690">
<ele>77.449684</ele>
<time>2026-04-25T10:33:18.996Z</time>
</trkpt>
<trkpt lat="59.0981690" lon="30.0322320">
<ele>76.078079</ele>
<time>2026-04-25T10:35:28.000Z</time>
</trkpt>
<trkpt lat="59.0981440" lon="30.0324300">
<ele>75.407516</ele>
<time>2026-04-25T10:35:42.999Z</time>
</trkpt>
<trkpt lat="59.0982750" lon="30.0327320">
<ele>76.139038</ele>
<time>2026-04-25T10:36:19.002Z</time>
</trkpt>
<trkpt lat="59.0982950" lon="30.0330730">
<ele>75.803757</ele>
<time>2026-04-25T10:36:54.003Z</time>
</trkpt>
<trkpt lat="59.0983810" lon="30.0333720">
<ele>78.272636</ele>
<time>2026-04-25T10:37:21.996Z</time>
</trkpt>
<trkpt lat="59.0983980" lon="30.0335550">
<ele>75.956161</ele>
<time>2026-04-25T10:37:36.002Z</time>
</trkpt>
<trkpt lat="59.0983520" lon="30.0336720">
<ele>76.748642</ele>
<time>2026-04-25T10:37:49.999Z</time>
</trkpt>
<trkpt lat="59.0982120" lon="30.0335940">
<ele>76.169518</ele>
<time>2026-04-25T10:38:07.002Z</time>
</trkpt>
<trkpt lat="59.0981540" lon="30.0336860">
<ele>76.901039</ele>
<time>2026-04-25T10:38:24.999Z</time>
</trkpt>
<trkpt lat="59.0981740" lon="30.0335480">
<ele>77.205841</ele>
<time>2026-04-25T10:39:21.997Z</time>
</trkpt>
<trkpt lat="59.0981400" lon="30.0334570">
<ele>78.272636</ele>
<time>2026-04-25T10:39:29.998Z</time>
</trkpt>
<trkpt lat="59.0980130" lon="30.0325760">
<ele>76.352402</ele>
<time>2026-04-25T10:40:53.996Z</time>
</trkpt>
<trkpt lat="59.0979610" lon="30.0322940">
<ele>76.657204</ele>
<time>2026-04-25T10:41:20.996Z</time>
</trkpt>
<trkpt lat="59.0979130" lon="30.0322440">
<ele>75.925682</ele>
<time>2026-04-25T10:41:38.000Z</time>
</trkpt>
<trkpt lat="59.0979080" lon="30.0319310">
<ele>76.687683</ele>
<time>2026-04-25T10:42:06.002Z</time>
</trkpt>
<trkpt lat="59.0978020" lon="30.0310980">
<ele>77.388718</ele>
<time>2026-04-25T10:43:28.998Z</time>
</trkpt>
<trkpt lat="59.0976640" lon="30.0304880">
<ele>77.144882</ele>
<time>2026-04-25T10:44:22.998Z</time>
</trkpt>
<trkpt lat="59.0975670" lon="30.0305170">
<ele>76.687683</ele>
<time>2026-04-25T10:44:40.001Z</time>
</trkpt>
<trkpt lat="59.0974620" lon="30.0306530">
<ele>76.779121</ele>
<time>2026-04-25T10:44:52.996Z</time>
</trkpt>
<trkpt lat="59.0974710" lon="30.0308890">
<ele>77.723999</ele>
<time>2026-04-25T10:45:47.998Z</time>
</trkpt>
<trkpt lat="59.0975310" lon="30.0310420">
<ele>76.443840</ele>
<time>2026-04-25T10:46:05.002Z</time>
</trkpt>
<trkpt lat="59.0975170" lon="30.0312760">
<ele>77.419197</ele>
<time>2026-04-25T10:46:21.996Z</time>
</trkpt>
<trkpt lat="59.0975560" lon="30.0314070">
<ele>77.358238</ele>
<time>2026-04-25T10:46:35.000Z</time>
</trkpt>
<trkpt lat="59.0975560" lon="30.0315580">
<ele>77.175362</ele>
<time>2026-04-25T10:46:48.003Z</time>
</trkpt>
<trkpt lat="59.0976130" lon="30.0316220">
<ele>76.992485</ele>
<time>2026-04-25T10:47:02.000Z</time>
</trkpt>
<trkpt lat="59.0976530" lon="30.0318430">
<ele>75.224640</ele>
<time>2026-04-25T10:47:34.002Z</time>
</trkpt>
<trkpt lat="59.0978000" lon="30.0327120">
<ele>77.419197</ele>
<time>2026-04-25T10:48:48.997Z</time>
</trkpt>
<trkpt lat="59.0978040" lon="30.0329950">
<ele>75.651360</ele>
<time>2026-04-25T10:49:12.999Z</time>
</trkpt>
<trkpt lat="59.0978550" lon="30.0332050">
<ele>77.297279</ele>
<time>2026-04-25T10:49:39.999Z</time>
</trkpt>
<trkpt lat="59.0976980" lon="30.0332840">
<ele>77.541115</ele>
<time>2026-04-25T10:50:19.000Z</time>
</trkpt>
<trkpt lat="59.0973750" lon="30.0338980">
<ele>77.022957</ele>
<time>2026-04-25T10:51:10.996Z</time>
</trkpt>
<trkpt lat="59.0971730" lon="30.0341690">
<ele>77.144882</ele>
<time>2026-04-25T10:51:53.997Z</time>
</trkpt>
<trkpt lat="59.0973880" lon="30.0340480">
<ele>77.358238</ele>
<time>2026-04-25T10:52:31.996Z</time>
</trkpt>
<trkpt lat="59.0978530" lon="30.0331410">
<ele>78.303116</ele>
<time>2026-04-25T10:53:38.999Z</time>
</trkpt>
<trkpt lat="59.0978910" lon="30.0335340">
<ele>77.967842</ele>
<time>2026-04-25T10:54:19.002Z</time>
</trkpt>
<trkpt lat="59.0979540" lon="30.0336480">
<ele>78.760315</ele>
<time>2026-04-25T10:54:31.003Z</time>
</trkpt>
<trkpt lat="59.0979270" lon="30.0338070">
<ele>72.633842</ele>
<time>2026-04-25T10:54:41.000Z</time>
</trkpt>
<trkpt lat="59.0979550" lon="30.0338650">
<ele>79.278481</ele>
<time>2026-04-25T10:54:46.002Z</time>
</trkpt>
<trkpt lat="59.0978750" lon="30.0338270">
<ele>77.571602</ele>
<time>2026-04-25T10:54:58.997Z</time>
</trkpt>
<trkpt lat="59.0978570" lon="30.0339330">
<ele>77.693520</ele>
<time>2026-04-25T10:55:32.002Z</time>
</trkpt>
<trkpt lat="59.0977320" lon="30.0339120">
<ele>78.333603</ele>
<time>2026-04-25T10:55:56.004Z</time>
</trkpt>
<trkpt lat="59.0976960" lon="30.0335810">
<ele>78.211685</ele>
<time>2026-04-25T10:56:45.001Z</time>
</trkpt>
<trkpt lat="59.0976470" lon="30.0334440">
<ele>79.583282</ele>
<time>2026-04-25T10:56:54.997Z</time>
</trkpt>
<trkpt lat="59.0976540" lon="30.0332750">
<ele>79.644234</ele>
<time>2026-04-25T10:57:06.998Z</time>
</trkpt>
<trkpt lat="59.0976210" lon="30.0332610">
<ele>76.474319</ele>
<time>2026-04-25T10:57:13.003Z</time>
</trkpt>
<trkpt lat="59.0975970" lon="30.0330030">
<ele>78.943199</ele>
<time>2026-04-25T10:57:29.998Z</time>
</trkpt>
<trkpt lat="59.0975000" lon="30.0327470">
<ele>78.333603</ele>
<time>2026-04-25T10:58:03.003Z</time>
</trkpt>
<trkpt lat="59.0974070" lon="30.0320940">
<ele>78.699364</ele>
<time>2026-04-25T10:58:56.001Z</time>
</trkpt>
<trkpt lat="59.0973660" lon="30.0320530">
<ele>79.705200</ele>
<time>2026-04-25T10:59:11.000Z</time>
</trkpt>
<trkpt lat="59.0972640" lon="30.0317090">
<ele>79.004166</ele>
<time>2026-04-25T10:59:54.001Z</time>
</trkpt>
<trkpt lat="59.0972610" lon="30.0315850">
<ele>79.278481</ele>
<time>2026-04-25T11:00:10.996Z</time>
</trkpt>
<trkpt lat="59.0970920" lon="30.0309340">
<ele>78.851761</ele>
<time>2026-04-25T11:01:20.004Z</time>
</trkpt>
<trkpt lat="59.0969700" lon="30.0311200">
<ele>78.699364</ele>
<time>2026-04-25T11:01:35.996Z</time>
</trkpt>
<trkpt lat="59.0969560" lon="30.0312340">
<ele>79.339439</ele>
<time>2026-04-25T11:01:48.999Z</time>
</trkpt>
<trkpt lat="59.0969460" lon="30.0312020">
<ele>79.065117</ele>
<time>2026-04-25T11:02:29.996Z</time>
</trkpt>
<trkpt lat="59.0970160" lon="30.0314300">
<ele>79.888084</ele>
<time>2026-04-25T11:02:53.998Z</time>
</trkpt>
<trkpt lat="59.0970290" lon="30.0316380">
<ele>79.308960</ele>
<time>2026-04-25T11:03:30.001Z</time>
</trkpt>
<trkpt lat="59.0971200" lon="30.0319070">
<ele>79.217522</ele>
<time>2026-04-25T11:04:13.002Z</time>
</trkpt>
<trkpt lat="59.0970860" lon="30.0319470">
<ele>78.699364</ele>
<time>2026-04-25T11:04:45.998Z</time>
</trkpt>
<trkpt lat="59.0971050" lon="30.0321540">
<ele>79.095596</ele>
<time>2026-04-25T11:05:00.004Z</time>
</trkpt>
<trkpt lat="59.0971550" lon="30.0323070">
<ele>79.857597</ele>
<time>2026-04-25T11:05:11.996Z</time>
</trkpt>
<trkpt lat="59.0971500" lon="30.0324550">
<ele>79.156563</ele>
<time>2026-04-25T11:05:24.999Z</time>
</trkpt>
<trkpt lat="59.0971930" lon="30.0325980">
<ele>79.278481</ele>
<time>2026-04-25T11:05:38.003Z</time>
</trkpt>
<trkpt lat="59.0972130" lon="30.0328750">
<ele>79.522316</ele>
<time>2026-04-25T11:06:01.996Z</time>
</trkpt>
<trkpt lat="59.0972870" lon="30.0332450">
<ele>78.760315</ele>
<time>2026-04-25T11:06:28.002Z</time>
</trkpt>
<trkpt lat="59.0973730" lon="30.0338510">
<ele>78.821281</ele>
<time>2026-04-25T11:07:26.003Z</time>
</trkpt>
<trkpt lat="59.0973700" lon="30.0340580">
<ele>78.760315</ele>
<time>2026-04-25T11:07:42.997Z</time>
</trkpt>
<trkpt lat="59.0972450" lon="30.0341090">
<ele>79.034637</ele>
<time>2026-04-25T11:08:00.001Z</time>
</trkpt>
<trkpt lat="59.0971680" lon="30.0340670">
<ele>78.394562</ele>
<time>2026-04-25T11:08:13.004Z</time>
</trkpt>
<trkpt lat="59.0971520" lon="30.0341120">
<ele>78.272636</ele>
<time>2026-04-25T11:08:27.001Z</time>
</trkpt>
<trkpt lat="59.0970610" lon="30.0336390">
<ele>79.674721</ele>
<time>2026-04-25T11:09:52.001Z</time>
</trkpt>
<trkpt lat="59.0970650" lon="30.0335170">
<ele>78.851761</ele>
<time>2026-04-25T11:10:01.998Z</time>
</trkpt>
<trkpt lat="59.0970160" lon="30.0333660">
<ele>78.607918</ele>
<time>2026-04-25T11:10:21.999Z</time>
</trkpt>
<trkpt lat="59.0970400" lon="30.0333430">
<ele>79.308960</ele>
<time>2026-04-25T11:10:31.002Z</time>
</trkpt>
<trkpt lat="59.0969960" lon="30.0332590">
<ele>80.010002</ele>
<time>2026-04-25T11:10:44.999Z</time>
</trkpt>
<trkpt lat="59.0969470" lon="30.0327650">
<ele>79.430885</ele>
<time>2026-04-25T11:11:37.997Z</time>
</trkpt>
<trkpt lat="59.0969000" lon="30.0326630">
<ele>80.345284</ele>
<time>2026-04-25T11:11:56.003Z</time>
</trkpt>
<trkpt lat="59.0968940" lon="30.0324770">
<ele>78.729836</ele>
<time>2026-04-25T11:12:12.004Z</time>
</trkpt>
<trkpt lat="59.0968300" lon="30.0322940">
<ele>79.705200</ele>
<time>2026-04-25T11:13:05.002Z</time>
</trkpt>
<trkpt lat="59.0967920" lon="30.0320600">
<ele>80.680565</ele>
<time>2026-04-25T11:13:18.998Z</time>
</trkpt>
<trkpt lat="59.0968020" lon="30.0319200">
<ele>80.070961</ele>
<time>2026-04-25T11:13:30.999Z</time>
</trkpt>
<trkpt lat="59.0967420" lon="30.0318030">
<ele>80.893921</ele>
<time>2026-04-25T11:13:45.998Z</time>
</trkpt>
<trkpt lat="59.0966290" lon="30.0318860">
<ele>80.101433</ele>
<time>2026-04-25T11:14:00.004Z</time>
</trkpt>
<trkpt lat="59.0965320" lon="30.0320510">
<ele>80.192879</ele>
<time>2026-04-25T11:14:33.000Z</time>
</trkpt>
<trkpt lat="59.0965870" lon="30.0319980">
<ele>79.461365</ele>
<time>2026-04-25T11:15:09.996Z</time>
</trkpt>
<trkpt lat="59.0965320" lon="30.0319990">
<ele>79.308960</ele>
<time>2026-04-25T11:16:41.002Z</time>
</trkpt>
<trkpt lat="59.0965570" lon="30.0319620">
<ele>79.187035</ele>
<time>2026-04-25T11:17:21.998Z</time>
</trkpt>
<trkpt lat="59.0965720" lon="30.0320280">
<ele>78.943199</ele>
<time>2026-04-25T11:18:14.996Z</time>
</trkpt>
<trkpt lat="59.0966140" lon="30.0319840">
<ele>78.546967</ele>
<time>2026-04-25T11:19:35.996Z</time>
</trkpt>
<trkpt lat="59.0965620" lon="30.0319130">
<ele>78.272636</ele>
<time>2026-04-25T11:20:49.004Z</time>
</trkpt>
<trkpt lat="59.0965080" lon="30.0319760">
<ele>78.181198</ele>
<time>2026-04-25T11:21:53.001Z</time>
</trkpt>
<trkpt lat="59.0964900" lon="30.0319340">
<ele>78.394562</ele>
<time>2026-04-25T11:22:32.002Z</time>
</trkpt>
<trkpt lat="59.0965860" lon="30.0320460">
<ele>79.888084</ele>
<time>2026-04-25T11:23:37.000Z</time>
</trkpt>
<trkpt lat="59.0965570" lon="30.0321540">
<ele>80.345284</ele>
<time>2026-04-25T11:24:05.996Z</time>
</trkpt>
<trkpt lat="59.0965580" lon="30.0323900">
<ele>79.918564</ele>
<time>2026-04-25T11:24:41.999Z</time>
</trkpt>
<trkpt lat="59.0965840" lon="30.0323870">
<ele>79.766167</ele>
<time>2026-04-25T11:25:10.001Z</time>
</trkpt>
<trkpt lat="59.0966340" lon="30.0325190">
<ele>78.486000</ele>
<time>2026-04-25T11:25:22.996Z</time>
</trkpt>
<trkpt lat="59.0966600" lon="30.0329500">
<ele>79.065117</ele>
<time>2026-04-25T11:25:53.003Z</time>
</trkpt>
<trkpt lat="59.0967600" lon="30.0333940">
<ele>73.060562</ele>
<time>2026-04-25T11:26:33.999Z</time>
</trkpt>
<trkpt lat="59.0967610" lon="30.0335490">
<ele>79.065117</ele>
<time>2026-04-25T11:26:47.996Z</time>
</trkpt>
<trkpt lat="59.0968360" lon="30.0336990">
<ele>79.187035</ele>
<time>2026-04-25T11:27:03.004Z</time>
</trkpt>
<trkpt lat="59.0968150" lon="30.0338690">
<ele>73.060562</ele>
<time>2026-04-25T11:27:26.004Z</time>
</trkpt>
<trkpt lat="59.0968800" lon="30.0341130">
<ele>79.735680</ele>
<time>2026-04-25T11:27:56.002Z</time>
</trkpt>
<trkpt lat="59.0968820" lon="30.0342760">
<ele>80.497681</ele>
<time>2026-04-25T11:28:13.999Z</time>
</trkpt>
<trkpt lat="59.0968740" lon="30.0343580">
<ele>79.796638</ele>
<time>2026-04-25T11:28:31.996Z</time>
</trkpt>
<trkpt lat="59.0967650" lon="30.0344310">
<ele>78.912720</ele>
<time>2026-04-25T11:29:03.998Z</time>
</trkpt>
<trkpt lat="59.0966670" lon="30.0343760">
<ele>79.004166</ele>
<time>2026-04-25T11:29:48.002Z</time>
</trkpt>
<trkpt lat="59.0966340" lon="30.0344290">
<ele>79.400398</ele>
<time>2026-04-25T11:29:55.000Z</time>
</trkpt>
<trkpt lat="59.0966860" lon="30.0344410">
<ele>78.211685</ele>
<time>2026-04-25T11:30:23.996Z</time>
</trkpt>
<trkpt lat="59.0965420" lon="30.0338750">
<ele>78.425034</ele>
<time>2026-04-25T11:31:05.002Z</time>
</trkpt>
<trkpt lat="59.0965230" lon="30.0336700">
<ele>79.949036</ele>
<time>2026-04-25T11:31:37.998Z</time>
</trkpt>
<trkpt lat="59.0963710" lon="30.0331810">
<ele>79.278481</ele>
<time>2026-04-25T11:32:23.004Z</time>
</trkpt>
<trkpt lat="59.0963090" lon="30.0328900">
<ele>80.741516</ele>
<time>2026-04-25T11:32:46.003Z</time>
</trkpt>
<trkpt lat="59.0962300" lon="30.0322820">
<ele>80.314796</ele>
<time>2026-04-25T11:33:47.002Z</time>
</trkpt>
<trkpt lat="59.0961590" lon="30.0322210">
<ele>80.253838</ele>
<time>2026-04-25T11:34:00.998Z</time>
</trkpt>
<trkpt lat="59.0959630" lon="30.0323930">
<ele>80.772003</ele>
<time>2026-04-25T11:34:26.003Z</time>
</trkpt>
<trkpt lat="59.0960410" lon="30.0328640">
<ele>80.131920</ele>
<time>2026-04-25T11:35:20.996Z</time>
</trkpt>
<trkpt lat="59.0960400" lon="30.0329950">
<ele>78.272636</ele>
<time>2026-04-25T11:35:27.001Z</time>
</trkpt>
<trkpt lat="59.0961750" lon="30.0335550">
<ele>79.705200</ele>
<time>2026-04-25T11:36:18.003Z</time>
</trkpt>
<trkpt lat="59.0962050" lon="30.0341020">
<ele>79.339439</ele>
<time>2026-04-25T11:37:01.004Z</time>
</trkpt>
<trkpt lat="59.0962450" lon="30.0340950">
<ele>78.668884</ele>
<time>2026-04-25T11:38:05.001Z</time>
</trkpt>
<trkpt lat="59.0962020" lon="30.0342060">
<ele>79.339439</ele>
<time>2026-04-25T11:38:36.001Z</time>
</trkpt>
<trkpt lat="59.0962470" lon="30.0343010">
<ele>78.912720</ele>
<time>2026-04-25T11:38:45.997Z</time>
</trkpt>
<trkpt lat="59.0963080" lon="30.0346460">
<ele>79.796638</ele>
<time>2026-04-25T11:39:08.004Z</time>
</trkpt>
<trkpt lat="59.0960290" lon="30.0347150">
<ele>79.552803</ele>
<time>2026-04-25T11:40:09.002Z</time>
</trkpt>
<trkpt lat="59.0959800" lon="30.0346050">
<ele>79.552803</ele>
<time>2026-04-25T11:40:52.997Z</time>
</trkpt>
<trkpt lat="59.0959070" lon="30.0341430">
<ele>79.583282</ele>
<time>2026-04-25T11:41:46.003Z</time>
</trkpt>
<trkpt lat="59.0957910" lon="30.0336880">
<ele>80.253838</ele>
<time>2026-04-25T11:42:33.998Z</time>
</trkpt>
<trkpt lat="59.0958260" lon="30.0335970">
<ele>80.497681</ele>
<time>2026-04-25T11:42:45.999Z</time>
</trkpt>
<trkpt lat="59.0959050" lon="30.0337260">
<ele>79.308960</ele>
<time>2026-04-25T11:42:55.002Z</time>
</trkpt>
<trkpt lat="59.0958480" lon="30.0336730">
<ele>79.339439</ele>
<time>2026-04-25T11:43:07.997Z</time>
</trkpt>
<trkpt lat="59.0956390" lon="30.0331130">
<ele>80.832962</ele>
<time>2026-04-25T11:43:35.999Z</time>
</trkpt>
<trkpt lat="59.0956120" lon="30.0329600">
<ele>81.381599</ele>
<time>2026-04-25T11:43:52.000Z</time>
</trkpt>
<trkpt lat="59.0956560" lon="30.0326920">
<ele>81.808319</ele>
<time>2026-04-25T11:44:36.004Z</time>
</trkpt>
<trkpt lat="59.0956130" lon="30.0325550">
<ele>80.802483</ele>
<time>2026-04-25T11:44:51.996Z</time>
</trkpt>
<trkpt lat="59.0955640" lon="30.0325110">
<ele>79.583282</ele>
<time>2026-04-25T11:45:17.001Z</time>
</trkpt>
<trkpt lat="59.0955500" lon="30.0325810">
<ele>79.126083</ele>
<time>2026-04-25T11:46:27.002Z</time>
</trkpt>
<trkpt lat="59.0954440" lon="30.0326170">
<ele>80.741516</ele>
<time>2026-04-25T11:48:16.004Z</time>
</trkpt>
<trkpt lat="59.0952440" lon="30.0326420">
<ele>81.076797</ele>
<time>2026-04-25T11:48:31.997Z</time>
</trkpt>
<trkpt lat="59.0952550" lon="30.0326820">
<ele>81.351120</ele>
<time>2026-04-25T11:48:49.000Z</time>
</trkpt>
<trkpt lat="59.0952980" lon="30.0325950">
<ele>79.095596</ele>
<time>2026-04-25T11:49:14.998Z</time>
</trkpt>
<trkpt lat="59.0953440" lon="30.0326950">
<ele>77.815437</ele>
<time>2026-04-25T11:49:32.002Z</time>
</trkpt>
<trkpt lat="59.0953230" lon="30.0328580">
<ele>80.863434</ele>
<time>2026-04-25T11:49:44.996Z</time>
</trkpt>
<trkpt lat="59.0953730" lon="30.0331440">
<ele>82.448402</ele>
<time>2026-04-25T11:50:08.998Z</time>
</trkpt>
<trkpt lat="59.0953530" lon="30.0333180">
<ele>82.204567</ele>
<time>2026-04-25T11:50:20.999Z</time>
</trkpt>
<trkpt lat="59.0953800" lon="30.0335040">
<ele>82.174080</ele>
<time>2026-04-25T11:50:34.996Z</time>
</trkpt>
<trkpt lat="59.0954520" lon="30.0336410">
<ele>81.808319</ele>
<time>2026-04-25T11:50:45.001Z</time>
</trkpt>
<trkpt lat="59.0954230" lon="30.0337700">
<ele>81.777840</ele>
<time>2026-04-25T11:50:58.998Z</time>
</trkpt>
<trkpt lat="59.0954470" lon="30.0339680">
<ele>80.832962</ele>
<time>2026-04-25T11:51:13.997Z</time>
</trkpt>
<trkpt lat="59.0954790" lon="30.0339740">
<ele>85.923119</ele>
<time>2026-04-25T11:51:18.999Z</time>
</trkpt>
<trkpt lat="59.0955610" lon="30.0342870">
<ele>81.442566</ele>
<time>2026-04-25T11:51:55.996Z</time>
</trkpt>
<trkpt lat="59.0954330" lon="30.0343710">
<ele>81.747360</ele>
<time>2026-04-25T11:52:22.002Z</time>
</trkpt>
<trkpt lat="59.0954280" lon="30.0344250">
<ele>80.528160</ele>
<time>2026-04-25T11:52:44.000Z</time>
</trkpt>
<trkpt lat="59.0954050" lon="30.0343840">
<ele>80.741516</ele>
<time>2026-04-25T11:53:51.996Z</time>
</trkpt>
<trkpt lat="59.0953990" lon="30.0344340">
<ele>82.692238</ele>
<time>2026-04-25T11:55:08.996Z</time>
</trkpt>
<trkpt lat="59.0954340" lon="30.0343980">
<ele>81.320633</ele>
<time>2026-04-25T11:55:35.996Z</time>
</trkpt>
<trkpt lat="59.0953970" lon="30.0343640">
<ele>81.716881</ele>
<time>2026-04-25T11:56:11.999Z</time>
</trkpt>
<trkpt lat="59.0954580" lon="30.0343560">
<ele>82.082634</ele>
<time>2026-04-25T11:57:14.000Z</time>
</trkpt>
<trkpt lat="59.0954120" lon="30.0343030">
<ele>81.899765</ele>
<time>2026-04-25T11:57:27.003Z</time>
</trkpt>
<trkpt lat="59.0953290" lon="30.0343240">
<ele>82.417915</ele>
<time>2026-04-25T11:57:59.999Z</time>
</trkpt>
<trkpt lat="59.0954050" lon="30.0343770">
<ele>82.722717</ele>
<time>2026-04-25T11:58:55.001Z</time>
</trkpt>
<trkpt lat="59.0954000" lon="30.0344820">
<ele>82.509361</ele>
<time>2026-04-25T11:59:34.002Z</time>
</trkpt>
<trkpt lat="59.0953560" lon="30.0343640">
<ele>83.240883</ele>
<time>2026-04-25T12:00:43.001Z</time>
</trkpt>
<trkpt lat="59.0955090" lon="30.0343770">
<ele>83.393280</ele>
<time>2026-04-25T12:02:40.004Z</time>
</trkpt>
<trkpt lat="59.0954490" lon="30.0344280">
<ele>83.240883</ele>
<time>2026-04-25T12:04:13.999Z</time>
</trkpt>
<trkpt lat="59.0954730" lon="30.0344110">
<ele>83.118965</ele>
<time>2026-04-25T12:04:44.999Z</time>
</trkpt>
<trkpt lat="59.0954850" lon="30.0344660">
<ele>83.332321</ele>
<time>2026-04-25T12:05:32.001Z</time>
</trkpt>
<trkpt lat="59.0954470" lon="30.0343710">
<ele>83.332321</ele>
<time>2026-04-25T12:05:59.001Z</time>
</trkpt>
<trkpt lat="59.0954090" lon="30.0343850">
<ele>84.094315</ele>
<time>2026-04-25T12:06:18.000Z</time>
</trkpt>
<trkpt lat="59.0954780" lon="30.0344000">
<ele>84.216240</ele>
<time>2026-04-25T12:06:35.997Z</time>
</trkpt>
<trkpt lat="59.0955620" lon="30.0342430">
<ele>84.277199</ele>
<time>2026-04-25T12:07:12.000Z</time>
</trkpt>
<trkpt lat="59.0955650" lon="30.0346570">
<ele>84.795364</ele>
<time>2026-04-25T12:08:03.002Z</time>
</trkpt>
<trkpt lat="59.0956680" lon="30.0349530">
<ele>85.648804</ele>
<time>2026-04-25T12:08:30.002Z</time>
</trkpt>
<trkpt lat="59.0955100" lon="30.0350600">
<ele>85.404961</ele>
<time>2026-04-25T12:08:58.998Z</time>
</trkpt>
<trkpt lat="59.0954460" lon="30.0350790">
<ele>85.587837</ele>
<time>2026-04-25T12:09:12.001Z</time>
</trkpt>
<trkpt lat="59.0954010" lon="30.0348390">
<ele>84.764885</ele>
<time>2026-04-25T12:10:03.996Z</time>
</trkpt>
<trkpt lat="59.0953510" lon="30.0347700">
<ele>85.161118</ele>
<time>2026-04-25T12:11:56.999Z</time>
</trkpt>
<trkpt lat="59.0953470" lon="30.0346080">
<ele>85.222084</ele>
<time>2026-04-25T12:12:10.002Z</time>
</trkpt>
<trkpt lat="59.0952850" lon="30.0343920">
<ele>84.764885</ele>
<time>2026-04-25T12:12:42.998Z</time>
</trkpt>
<trkpt lat="59.0952920" lon="30.0342350">
<ele>82.509361</ele>
<time>2026-04-25T12:12:54.999Z</time>
</trkpt>
<trkpt lat="59.0952270" lon="30.0339600">
<ele>84.764885</ele>
<time>2026-04-25T12:13:50.002Z</time>
</trkpt>
<trkpt lat="59.0952410" lon="30.0337940">
<ele>84.521034</ele>
<time>2026-04-25T12:14:01.000Z</time>
</trkpt>
<trkpt lat="59.0951480" lon="30.0335350">
<ele>85.404961</ele>
<time>2026-04-25T12:14:47.000Z</time>
</trkpt>
<trkpt lat="59.0951160" lon="30.0332900">
<ele>85.130638</ele>
<time>2026-04-25T12:15:16.004Z</time>
</trkpt>
<trkpt lat="59.0950090" lon="30.0329300">
<ele>85.862167</ele>
<time>2026-04-25T12:15:43.998Z</time>
</trkpt>
<trkpt lat="59.0950210" lon="30.0325810">
<ele>85.344002</ele>
<time>2026-04-25T12:16:16.000Z</time>
</trkpt>
<trkpt lat="59.0948810" lon="30.0325900">
<ele>84.856316</ele>
<time>2026-04-25T12:16:37.998Z</time>
</trkpt>
<trkpt lat="59.0947390" lon="30.0324980">
<ele>85.526878</ele>
<time>2026-04-25T12:17:11.996Z</time>
</trkpt>
<trkpt lat="59.0947430" lon="30.0327480">
<ele>85.496399</ele>
<time>2026-04-25T12:17:53.002Z</time>
</trkpt>
<trkpt lat="59.0947990" lon="30.0328660">
<ele>84.856316</ele>
<time>2026-04-25T12:18:04.000Z</time>
</trkpt>
<trkpt lat="59.0948220" lon="30.0332640">
<ele>85.069679</ele>
<time>2026-04-25T12:18:44.997Z</time>
</trkpt>
<trkpt lat="59.0949330" lon="30.0338620">
<ele>84.734398</ele>
<time>2026-04-25T12:19:37.001Z</time>
</trkpt>
<trkpt lat="59.0949130" lon="30.0343780">
<ele>84.307678</ele>
<time>2026-04-25T12:20:38.000Z</time>
</trkpt>
<trkpt lat="59.0949950" lon="30.0345870">
<ele>84.094315</ele>
<time>2026-04-25T12:21:23.999Z</time>
</trkpt>
<trkpt lat="59.0949520" lon="30.0347860">
<ele>83.027519</ele>
<time>2026-04-25T12:21:45.003Z</time>
</trkpt>
<trkpt lat="59.0949660" lon="30.0348830">
<ele>84.002884</ele>
<time>2026-04-25T12:22:31.002Z</time>
</trkpt>
<trkpt lat="59.0948540" lon="30.0350570">
<ele>83.759033</ele>
<time>2026-04-25T12:25:05.002Z</time>
</trkpt>
<trkpt lat="59.0948840" lon="30.0350020">
<ele>79.065117</ele>
<time>2026-04-25T12:25:33.997Z</time>
</trkpt>
<trkpt lat="59.0948620" lon="30.0349910">
<ele>82.570320</ele>
<time>2026-04-25T12:29:08.002Z</time>
</trkpt>
<trkpt lat="59.0948530" lon="30.0350390">
<ele>81.655922</ele>
<time>2026-04-25T12:29:36.004Z</time>
</trkpt>
<trkpt lat="59.0948860" lon="30.0350660">
<ele>81.960716</ele>
<time>2026-04-25T12:29:52.999Z</time>
</trkpt>
<trkpt lat="59.0949080" lon="30.0350240">
<ele>81.869286</ele>
<time>2026-04-25T12:30:33.002Z</time>
</trkpt>
<trkpt lat="59.0948710" lon="30.0350130">
<ele>81.533997</ele>
<time>2026-04-25T12:31:35.996Z</time>
</trkpt>
<trkpt lat="59.0948960" lon="30.0349520">
<ele>81.747360</ele>
<time>2026-04-25T12:32:22.998Z</time>
</trkpt>
<trkpt lat="59.0947970" lon="30.0349760">
<ele>81.991203</ele>
<time>2026-04-25T12:32:49.004Z</time>
</trkpt>
<trkpt lat="59.0947480" lon="30.0350550">
<ele>81.320633</ele>
<time>2026-04-25T12:34:03.999Z</time>
</trkpt>
<trkpt lat="59.0948070" lon="30.0349400">
<ele>81.960716</ele>
<time>2026-04-25T12:35:19.003Z</time>
</trkpt>
<trkpt lat="59.0948780" lon="30.0349630">
<ele>82.052162</ele>
<time>2026-04-25T12:35:49.001Z</time>
</trkpt>
<trkpt lat="59.0950010" lon="30.0348950">
<ele>81.747360</ele>
<time>2026-04-25T12:36:18.999Z</time>
</trkpt>
<trkpt lat="59.0950240" lon="30.0349230">
<ele>81.808319</ele>
<time>2026-04-25T12:36:52.004Z</time>
</trkpt>
<trkpt lat="59.0950570" lon="30.0352290">
<ele>82.052162</ele>
<time>2026-04-25T12:37:39.999Z</time>
</trkpt>
<trkpt lat="59.0948460" lon="30.0353590">
<ele>82.478882</ele>
<time>2026-04-25T12:38:40.998Z</time>
</trkpt>
<trkpt lat="59.0947670" lon="30.0351710">
<ele>81.533997</ele>
<time>2026-04-25T12:39:53.997Z</time>
</trkpt>
<trkpt lat="59.0947700" lon="30.0350630">
<ele>81.533997</ele>
<time>2026-04-25T12:40:08.996Z</time>
</trkpt>
<trkpt lat="59.0946870" lon="30.0351410">
<ele>80.954880</ele>
<time>2026-04-25T12:40:24.004Z</time>
</trkpt>
<trkpt lat="59.0947580" lon="30.0349970">
<ele>81.107285</ele>
<time>2026-04-25T12:40:55.004Z</time>
</trkpt>
<trkpt lat="59.0946210" lon="30.0343920">
<ele>80.893921</ele>
<time>2026-04-25T12:41:57.998Z</time>
</trkpt>
<trkpt lat="59.0945390" lon="30.0335670">
<ele>80.162399</ele>
<time>2026-04-25T12:43:33.004Z</time>
</trkpt>
<trkpt lat="59.0944720" lon="30.0333420">
<ele>80.985367</ele>
<time>2026-04-25T12:43:59.002Z</time>
</trkpt>
<trkpt lat="59.0944250" lon="30.0329480">
<ele>83.667603</ele>
<time>2026-04-25T12:44:38.996Z</time>
</trkpt>
<trkpt lat="59.0942870" lon="30.0322920">
<ele>81.716881</ele>
<time>2026-04-25T12:45:28.002Z</time>
</trkpt>
<trkpt lat="59.0940960" lon="30.0324450">
<ele>81.747360</ele>
<time>2026-04-25T12:46:04.999Z</time>
</trkpt>
<trkpt lat="59.0940770" lon="30.0325200">
<ele>80.772003</ele>
<time>2026-04-25T12:47:05.997Z</time>
</trkpt>
<trkpt lat="59.0941080" lon="30.0324690">
<ele>80.101433</ele>
<time>2026-04-25T12:48:11.998Z</time>
</trkpt>
<trkpt lat="59.0940800" lon="30.0325060">
<ele>81.320633</ele>
<time>2026-04-25T12:48:57.997Z</time>
</trkpt>
<trkpt lat="59.0940650" lon="30.0324520">
<ele>80.741516</ele>
<time>2026-04-25T12:49:53.000Z</time>
</trkpt>
<trkpt lat="59.0940880" lon="30.0324420">
<ele>80.101433</ele>
<time>2026-04-25T12:50:49.004Z</time>
</trkpt>
<trkpt lat="59.0941120" lon="30.0325750">
<ele>80.223366</ele>
<time>2026-04-25T12:51:18.000Z</time>
</trkpt>
<trkpt lat="59.0941460" lon="30.0330310">
<ele>79.217522</ele>
<time>2026-04-25T12:51:53.001Z</time>
</trkpt>
<trkpt lat="59.0942930" lon="30.0335200">
<ele>79.278481</ele>
<time>2026-04-25T12:52:48.003Z</time>
</trkpt>
<trkpt lat="59.0942740" lon="30.0336040">
<ele>79.248001</ele>
<time>2026-04-25T12:52:59.002Z</time>
</trkpt>
<trkpt lat="59.0943880" lon="30.0342760">
<ele>78.882233</ele>
<time>2026-04-25T12:54:01.996Z</time>
</trkpt>
<trkpt lat="59.0944300" lon="30.0343760">
<ele>78.973679</ele>
<time>2026-04-25T12:54:13.997Z</time>
</trkpt>
<trkpt lat="59.0944620" lon="30.0342830">
<ele>78.882233</ele>
<time>2026-04-25T12:54:21.997Z</time>
</trkpt>
<trkpt lat="59.0944750" lon="30.0344520">
<ele>79.095596</ele>
<time>2026-04-25T12:54:32.996Z</time>
</trkpt>
<trkpt lat="59.0944470" lon="30.0344840">
<ele>79.491837</ele>
<time>2026-04-25T12:54:45.999Z</time>
</trkpt>
<trkpt lat="59.0945300" lon="30.0343340">
<ele>78.425034</ele>
<time>2026-04-25T12:55:10.001Z</time>
</trkpt>
<trkpt lat="59.0944830" lon="30.0344110">
<ele>78.546967</ele>
<time>2026-04-25T12:55:22.996Z</time>
</trkpt>
<trkpt lat="59.0944800" lon="30.0345830">
<ele>78.089767</ele>
<time>2026-04-25T12:55:38.997Z</time>
</trkpt>
<trkpt lat="59.0945600" lon="30.0349750">
<ele>76.382881</ele>
<time>2026-04-25T12:56:24.003Z</time>
</trkpt>
<trkpt lat="59.0945230" lon="30.0351920">
<ele>77.419197</ele>
<time>2026-04-25T12:56:52.999Z</time>
</trkpt>
<trkpt lat="59.0945750" lon="30.0354900">
<ele>78.181198</ele>
<time>2026-04-25T12:57:34.004Z</time>
</trkpt>
<trkpt lat="59.0943770" lon="30.0354550">
<ele>77.967842</ele>
<time>2026-04-25T12:58:16.997Z</time>
</trkpt>
<trkpt lat="59.0943200" lon="30.0354770">
<ele>77.723999</ele>
<time>2026-04-25T12:58:31.002Z</time>
</trkpt>
<trkpt lat="59.0943310" lon="30.0355790">
<ele>77.967842</ele>
<time>2026-04-25T12:58:47.004Z</time>
</trkpt>
<trkpt lat="59.0942270" lon="30.0349060">
<ele>77.693520</ele>
<time>2026-04-25T13:01:28.001Z</time>
</trkpt>
<trkpt lat="59.0941900" lon="30.0348830">
<ele>77.693520</ele>
<time>2026-04-25T13:02:02.000Z</time>
</trkpt>
<trkpt lat="59.0941540" lon="30.0347670">
<ele>78.211685</ele>
<time>2026-04-25T13:02:50.004Z</time>
</trkpt>
<trkpt lat="59.0941430" lon="30.0345250">
<ele>78.364082</ele>
<time>2026-04-25T13:03:23.000Z</time>
</trkpt>
<trkpt lat="59.0939690" lon="30.0338870">
<ele>78.729836</ele>
<time>2026-04-25T13:04:25.000Z</time>
</trkpt>
<trkpt lat="59.0939270" lon="30.0333690">
<ele>78.120239</ele>
<time>2026-04-25T13:05:19.000Z</time>
</trkpt>
<trkpt lat="59.0938020" lon="30.0329230">
<ele>79.339439</ele>
<time>2026-04-25T13:06:03.004Z</time>
</trkpt>
<trkpt lat="59.0938080" lon="30.0327720">
<ele>79.278481</ele>
<time>2026-04-25T13:06:21.001Z</time>
</trkpt>
<trkpt lat="59.0937740" lon="30.0326460">
<ele>78.790802</ele>
<time>2026-04-25T13:06:30.997Z</time>
</trkpt>
<trkpt lat="59.0936260" lon="30.0326400">
<ele>78.150719</ele>
<time>2026-04-25T13:09:35.997Z</time>
</trkpt>
<trkpt lat="59.0936140" lon="30.0326880">
<ele>77.663040</ele>
<time>2026-04-25T13:11:38.996Z</time>
</trkpt>
<trkpt lat="59.0936500" lon="30.0327100">
<ele>77.967842</ele>
<time>2026-04-25T13:13:29.001Z</time>
</trkpt>
<trkpt lat="59.0936420" lon="30.0326090">
<ele>77.205841</ele>
<time>2026-04-25T13:16:20.997Z</time>
</trkpt>
<trkpt lat="59.0936290" lon="30.0326860">
<ele>76.779121</ele>
<time>2026-04-25T13:18:22.000Z</time>
</trkpt>
<trkpt lat="59.0936000" lon="30.0326760">
<ele>76.565758</ele>
<time>2026-04-25T13:19:25.003Z</time>
</trkpt>
<trkpt lat="59.0936470" lon="30.0327250">
<ele>77.022957</ele>
<time>2026-04-25T13:19:57.999Z</time>
</trkpt>
<trkpt lat="59.0935530" lon="30.0326440">
<ele>77.663040</ele>
<time>2026-04-25T13:21:16.001Z</time>
</trkpt>
<trkpt lat="59.0935120" lon="30.0326790">
<ele>78.333603</ele>
<time>2026-04-25T13:22:04.999Z</time>
</trkpt>
<trkpt lat="59.0935370" lon="30.0330320">
<ele>78.150719</ele>
<time>2026-04-25T13:22:38.997Z</time>
</trkpt>
<trkpt lat="59.0935880" lon="30.0331650">
<ele>77.602081</ele>
<time>2026-04-25T13:22:50.998Z</time>
</trkpt>
<trkpt lat="59.0936670" lon="30.0335900">
<ele>77.602081</ele>
<time>2026-04-25T13:23:29.999Z</time>
</trkpt>
<trkpt lat="59.0937750" lon="30.0338660">
<ele>76.108559</ele>
<time>2026-04-25T13:24:10.996Z</time>
</trkpt>
<trkpt lat="59.0937710" lon="30.0340580">
<ele>78.790802</ele>
<time>2026-04-25T13:24:27.999Z</time>
</trkpt>
<trkpt lat="59.0938050" lon="30.0342760">
<ele>77.327759</ele>
<time>2026-04-25T13:24:45.003Z</time>
</trkpt>
<trkpt lat="59.0938570" lon="30.0343780">
<ele>75.712318</ele>
<time>2026-04-25T13:25:04.002Z</time>
</trkpt>
<trkpt lat="59.0939310" lon="30.0347310">
<ele>73.700638</ele>
<time>2026-04-25T13:25:47.004Z</time>
</trkpt>
<trkpt lat="59.0940160" lon="30.0354210">
<ele>75.316078</ele>
<time>2026-04-25T13:27:51.998Z</time>
</trkpt>
<trkpt lat="59.0940630" lon="30.0354860">
<ele>72.481438</ele>
<time>2026-04-25T13:28:56.004Z</time>
</trkpt>
<trkpt lat="59.0940040" lon="30.0354800">
<ele>76.139038</ele>
<time>2026-04-25T13:32:59.997Z</time>
</trkpt>
<trkpt lat="59.0940500" lon="30.0354980">
<ele>75.681839</ele>
<time>2026-04-25T13:33:13.000Z</time>
</trkpt>
<trkpt lat="59.0940790" lon="30.0356140">
<ele>76.382881</ele>
<time>2026-04-25T13:33:53.997Z</time>
</trkpt>
<trkpt lat="59.0940840" lon="30.0357250">
<ele>76.961998</ele>
<time>2026-04-25T13:34:13.999Z</time>
</trkpt>
<trkpt lat="59.0938330" lon="30.0358090">
<ele>76.657204</ele>
<time>2026-04-25T13:36:43.998Z</time>
</trkpt>
<trkpt lat="59.0938200" lon="30.0355980">
<ele>76.108559</ele>
<time>2026-04-25T13:37:40.002Z</time>
</trkpt>
<trkpt lat="59.0937900" lon="30.0355420">
<ele>76.657204</ele>
<time>2026-04-25T13:38:00.997Z</time>
</trkpt>
<trkpt lat="59.0936750" lon="30.0349680">
<ele>76.596237</ele>
<time>2026-04-25T13:40:10.001Z</time>
</trkpt>
<trkpt lat="59.0935400" lon="30.0345770">
<ele>76.748642</ele>
<time>2026-04-25T13:41:12.002Z</time>
</trkpt>
<trkpt lat="59.0935190" lon="30.0342680">
<ele>76.291443</ele>
<time>2026-04-25T13:41:48.998Z</time>
</trkpt>
<trkpt lat="59.0934350" lon="30.0340380">
<ele>76.352402</ele>
<time>2026-04-25T13:42:26.004Z</time>
</trkpt>
<trkpt lat="59.0934370" lon="30.0338610">
<ele>76.169518</ele>
<time>2026-04-25T13:42:45.996Z</time>
</trkpt>
<trkpt lat="59.0932490" lon="30.0331630">
<ele>75.620880</ele>
<time>2026-04-25T13:43:55.998Z</time>
</trkpt>
<trkpt lat="59.0931720" lon="30.0326950">
<ele>77.602081</ele>
<time>2026-04-25T13:44:33.003Z</time>
</trkpt>
<trkpt lat="59.0930650" lon="30.0327060">
<ele>77.236320</ele>
<time>2026-04-25T13:44:51.000Z</time>
</trkpt>
<trkpt lat="59.0929610" lon="30.0328650">
<ele>76.565758</ele>
<time>2026-04-25T13:45:12.004Z</time>
</trkpt>
<trkpt lat="59.0930100" lon="30.0330240">
<ele>76.992485</ele>
<time>2026-04-25T13:46:53.999Z</time>
</trkpt>
<trkpt lat="59.0930240" lon="30.0332340">
<ele>75.651360</ele>
<time>2026-04-25T13:47:15.003Z</time>
</trkpt>
<trkpt lat="59.0931750" lon="30.0337520">
<ele>80.802483</ele>
<time>2026-04-25T13:47:56.000Z</time>
</trkpt>
<trkpt lat="59.0931570" lon="30.0339480">
<ele>75.255119</ele>
<time>2026-04-25T13:48:09.996Z</time>
</trkpt>
<trkpt lat="59.0933420" lon="30.0347340">
<ele>77.419197</ele>
<time>2026-04-25T13:49:17.000Z</time>
</trkpt>
<trkpt lat="59.0933550" lon="30.0348180">
<ele>76.840080</ele>
<time>2026-04-25T13:49:37.001Z</time>
</trkpt>
<trkpt lat="59.0932380" lon="30.0348760">
<ele>76.230484</ele>
<time>2026-04-25T13:50:13.998Z</time>
</trkpt>
<trkpt lat="59.0933570" lon="30.0347950">
<ele>75.895203</ele>
<time>2026-04-25T13:51:07.004Z</time>
</trkpt>
<trkpt lat="59.0933780" lon="30.0351030">
<ele>74.371201</ele>
<time>2026-04-25T13:52:35.003Z</time>
</trkpt>
<trkpt lat="59.0935510" lon="30.0359430">
<ele>74.462639</ele>
<time>2026-04-25T13:55:14.998Z</time>
</trkpt>
<trkpt lat="59.0935220" lon="30.0359920">
<ele>74.005440</ele>
<time>2026-04-25T13:56:00.997Z</time>
</trkpt>
<trkpt lat="59.0933060" lon="30.0360770">
<ele>73.914001</ele>
<time>2026-04-25T13:56:49.001Z</time>
</trkpt>
<trkpt lat="59.0932210" lon="30.0357230">
<ele>72.176643</ele>
<time>2026-04-25T14:00:07.998Z</time>
</trkpt>
<trkpt lat="59.0930850" lon="30.0348540">
<ele>74.828400</ele>
<time>2026-04-25T14:02:13.001Z</time>
</trkpt>
<trkpt lat="59.0930440" lon="30.0348300">
<ele>73.487282</ele>
<time>2026-04-25T14:02:30.998Z</time>
</trkpt>
<trkpt lat="59.0929840" lon="30.0349110">
<ele>73.395844</ele>
<time>2026-04-25T14:02:45.004Z</time>
</trkpt>
<trkpt lat="59.0930590" lon="30.0348490">
<ele>73.639679</ele>
<time>2026-04-25T14:03:03.001Z</time>
</trkpt>
<trkpt lat="59.0930690" lon="30.0347470">
<ele>73.670158</ele>
<time>2026-04-25T14:03:20.998Z</time>
</trkpt>
<trkpt lat="59.0930110" lon="30.0343920">
<ele>73.304398</ele>
<time>2026-04-25T14:04:14.998Z</time>
</trkpt>
<trkpt lat="59.0929840" lon="30.0343870">
<ele>73.273918</ele>
<time>2026-04-25T14:04:29.997Z</time>
</trkpt>
<trkpt lat="59.0929730" lon="30.0341930">
<ele>73.395844</ele>
<time>2026-04-25T14:04:48.996Z</time>
</trkpt>
<trkpt lat="59.0928270" lon="30.0336270">
<ele>73.853043</ele>
<time>2026-04-25T14:05:45.001Z</time>
</trkpt>
<trkpt lat="59.0927480" lon="30.0331200">
<ele>74.188316</ele>
<time>2026-04-25T14:06:44.004Z</time>
</trkpt>
<trkpt lat="59.0926980" lon="30.0329660">
<ele>74.615044</ele>
<time>2026-04-25T14:07:00.998Z</time>
</trkpt>
<trkpt lat="59.0925570" lon="30.0329660">
<ele>74.523598</ele>
<time>2026-04-25T14:07:21.000Z</time>
</trkpt>
<trkpt lat="59.0924830" lon="30.0330650">
<ele>74.615044</ele>
<time>2026-04-25T14:08:15.000Z</time>
</trkpt>
<trkpt lat="59.0925600" lon="30.0333400">
<ele>73.700638</ele>
<time>2026-04-25T14:09:07.004Z</time>
</trkpt>
<trkpt lat="59.0925430" lon="30.0334600">
<ele>73.974960</ele>
<time>2026-04-25T14:09:23.999Z</time>
</trkpt>
<trkpt lat="59.0926230" lon="30.0337120">
<ele>75.377045</ele>
<time>2026-04-25T14:09:49.997Z</time>
</trkpt>
<trkpt lat="59.0926080" lon="30.0338740">
<ele>73.273918</ele>
<time>2026-04-25T14:10:31.996Z</time>
</trkpt>
<trkpt lat="59.0926810" lon="30.0340200">
<ele>72.938644</ele>
<time>2026-04-25T14:10:51.997Z</time>
</trkpt>
<trkpt lat="59.0927010" lon="30.0342120">
<ele>73.578720</ele>
<time>2026-04-25T14:11:06.996Z</time>
</trkpt>
<trkpt lat="59.0927450" lon="30.0342850">
<ele>73.243439</ele>
<time>2026-04-25T14:11:18.997Z</time>
</trkpt>
<trkpt lat="59.0928000" lon="30.0347920">
<ele>73.853043</ele>
<time>2026-04-25T14:12:11.002Z</time>
</trkpt>
<trkpt lat="59.0928500" lon="30.0349140">
<ele>73.700638</ele>
<time>2026-04-25T14:12:26.001Z</time>
</trkpt>
<trkpt lat="59.0928440" lon="30.0350320">
<ele>71.445122</ele>
<time>2026-04-25T14:12:35.997Z</time>
</trkpt>
<trkpt lat="59.0928810" lon="30.0350960">
<ele>69.738243</ele>
<time>2026-04-25T14:12:46.002Z</time>
</trkpt>
<trkpt lat="59.0928730" lon="30.0351660">
<ele>73.517761</ele>
<time>2026-04-25T14:12:54.003Z</time>
</trkpt>
<trkpt lat="59.0929650" lon="30.0355300">
<ele>73.426315</ele>
<time>2026-04-25T14:14:42.996Z</time>
</trkpt>
<trkpt lat="59.0930540" lon="30.0362110">
<ele>75.224640</ele>
<time>2026-04-25T14:17:05.004Z</time>
</trkpt>
<trkpt lat="59.0928290" lon="30.0362590">
<ele>73.914001</ele>
<time>2026-04-25T14:20:42.999Z</time>
</trkpt>
<trkpt lat="59.0928140" lon="30.0359060">
<ele>73.578720</ele>
<time>2026-04-25T14:22:47.001Z</time>
</trkpt>
<trkpt lat="59.0926830" lon="30.0351800">
<ele>73.182480</ele>
<time>2026-04-25T14:25:22.996Z</time>
</trkpt>
<trkpt lat="59.0926590" lon="30.0352630">
<ele>72.481438</ele>
<time>2026-04-25T14:25:46.004Z</time>
</trkpt>
<trkpt lat="59.0925290" lon="30.0354060">
<ele>71.871841</ele>
<time>2026-04-25T14:29:32.001Z</time>
</trkpt>
<trkpt lat="59.0926530" lon="30.0351350">
<ele>72.633842</ele>
<time>2026-04-25T14:30:31.997Z</time>
</trkpt>
<trkpt lat="59.0926300" lon="30.0351680">
<ele>73.334885</ele>
<time>2026-04-25T14:30:58.997Z</time>
</trkpt>
<trkpt lat="59.0925640" lon="30.0348850">
<ele>73.792084</ele>
<time>2026-04-25T14:31:36.002Z</time>
</trkpt>
<trkpt lat="59.0924800" lon="30.0343560">
<ele>72.877686</ele>
<time>2026-04-25T14:33:01.002Z</time>
</trkpt>
<trkpt lat="59.0924790" lon="30.0342140">
<ele>73.212959</ele>
<time>2026-04-25T14:33:23.000Z</time>
</trkpt>
<trkpt lat="59.0924210" lon="30.0341350">
<ele>73.456802</ele>
<time>2026-04-25T14:33:36.003Z</time>
</trkpt>
<trkpt lat="59.0922280" lon="30.0331860">
<ele>75.072243</ele>
<time>2026-04-25T14:35:05.004Z</time>
</trkpt>
<trkpt lat="59.0921970" lon="30.0331680">
<ele>73.273918</ele>
<time>2026-04-25T14:35:16.996Z</time>
</trkpt>
<trkpt lat="59.0920270" lon="30.0335170">
<ele>73.091042</ele>
<time>2026-04-25T14:36:45.003Z</time>
</trkpt>
<trkpt lat="59.0920620" lon="30.0335120">
<ele>73.731117</ele>
<time>2026-04-25T14:40:37.998Z</time>
</trkpt>
<trkpt lat="59.0920960" lon="30.0336250">
<ele>73.883514</ele>
<time>2026-04-25T14:41:16.999Z</time>
</trkpt>
<trkpt lat="59.0921900" lon="30.0342910">
<ele>71.932800</ele>
<time>2026-04-25T14:42:04.000Z</time>
</trkpt>
<trkpt lat="59.0923120" lon="30.0347950">
<ele>72.999603</ele>
<time>2026-04-25T14:42:55.002Z</time>
</trkpt>
<trkpt lat="59.0923860" lon="30.0354710">
<ele>72.542397</ele>
<time>2026-04-25T14:44:16.996Z</time>
</trkpt>
<trkpt lat="59.0924170" lon="30.0354290">
<ele>72.085197</ele>
<time>2026-04-25T14:46:12.996Z</time>
</trkpt>
<trkpt lat="59.0923630" lon="30.0354610">
<ele>73.152000</ele>
<time>2026-04-25T14:48:42.002Z</time>
</trkpt>
<trkpt lat="59.0923800" lon="30.0354260">
<ele>73.152000</ele>
<time>2026-04-25T14:50:35.998Z</time>
</trkpt>
<trkpt lat="59.0924350" lon="30.0356060">
<ele>71.810883</ele>
<time>2026-04-25T14:54:44.001Z</time>
</trkpt>
<trkpt lat="59.0925540" lon="30.0364240">
<ele>72.481438</ele>
<time>2026-04-25T14:57:18.000Z</time>
</trkpt>
<trkpt lat="59.0923110" lon="30.0365010">
<ele>72.176643</ele>
<time>2026-04-25T14:59:23.997Z</time>
</trkpt>
<trkpt lat="59.0922370" lon="30.0362130">
<ele>71.871841</ele>
<time>2026-04-25T14:59:54.997Z</time>
</trkpt>
<trkpt lat="59.0921940" lon="30.0357290">
<ele>71.658485</ele>
<time>2026-04-25T15:00:59.996Z</time>
</trkpt>
<trkpt lat="59.0921130" lon="30.0354310">
<ele>70.835518</ele>
<time>2026-04-25T15:02:00.001Z</time>
</trkpt>
<trkpt lat="59.0920940" lon="30.0351290">
<ele>71.384155</ele>
<time>2026-04-25T15:02:47.003Z</time>
</trkpt>
<trkpt lat="59.0919830" lon="30.0346400">
<ele>72.085197</ele>
<time>2026-04-25T15:03:57.997Z</time>
</trkpt>
<trkpt lat="59.0919990" lon="30.0345870">
<ele>72.054718</ele>
<time>2026-04-25T15:04:16.997Z</time>
</trkpt>
<trkpt lat="59.0918850" lon="30.0342760">
<ele>71.627998</ele>
<time>2026-04-25T15:04:44.999Z</time>
</trkpt>
<trkpt lat="59.0918690" lon="30.0340800">
<ele>72.359520</ele>
<time>2026-04-25T15:04:59.998Z</time>
</trkpt>
<trkpt lat="59.0918180" lon="30.0339880">
<ele>72.085197</ele>
<time>2026-04-25T15:05:13.001Z</time>
</trkpt>
<trkpt lat="59.0911950" lon="30.0353790">
<ele>71.902321</ele>
<time>2026-04-25T15:07:29.004Z</time>
</trkpt>
<trkpt lat="59.0916870" lon="30.0342660">
<ele>71.932800</ele>
<time>2026-04-25T15:11:43.996Z</time>
</trkpt>
<trkpt lat="59.0916700" lon="30.0343150">
<ele>72.329041</ele>
<time>2026-04-25T15:12:23.999Z</time>
</trkpt>
<trkpt lat="59.0916900" lon="30.0343220">
<ele>72.268082</ele>
<time>2026-04-25T15:13:07.000Z</time>
</trkpt>
<trkpt lat="59.0914670" lon="30.0347880">
<ele>71.780403</ele>
<time>2026-04-25T15:14:10.003Z</time>
</trkpt>
<trkpt lat="59.0914560" lon="30.0347470">
<ele>71.719444</ele>
<time>2026-04-25T15:14:45.997Z</time>
</trkpt>
<trkpt lat="59.0914210" lon="30.0349180">
<ele>72.085197</ele>
<time>2026-04-25T15:15:27.996Z</time>
</trkpt>
<trkpt lat="59.0913040" lon="30.0352090">
<ele>72.359520</ele>
<time>2026-04-25T15:17:00.004Z</time>
</trkpt>
<trkpt lat="59.0914170" lon="30.0348610">
<ele>71.810883</ele>
<time>2026-04-25T15:17:22.001Z</time>
</trkpt>
<trkpt lat="59.0916670" lon="30.0342950">
<ele>72.999603</ele>
<time>2026-04-25T15:18:33.998Z</time>
</trkpt>
<trkpt lat="59.0917770" lon="30.0345310">
<ele>69.890640</ele>
<time>2026-04-25T15:19:41.002Z</time>
</trkpt>
<trkpt lat="59.0919020" lon="30.0355150">
<ele>71.170799</ele>
<time>2026-04-25T15:21:45.003Z</time>
</trkpt>
<trkpt lat="59.0919270" lon="30.0358970">
<ele>70.713600</ele>
<time>2026-04-25T15:22:51.997Z</time>
</trkpt>
<trkpt lat="59.0920130" lon="30.0362780">
<ele>57.972958</ele>
<time>2026-04-25T15:23:49.998Z</time>
</trkpt>
<trkpt lat="59.0920530" lon="30.0366480">
<ele>70.164963</ele>
<time>2026-04-25T15:24:46.996Z</time>
</trkpt>
<trkpt lat="59.0917940" lon="30.0367490">
<ele>70.530716</ele>
<time>2026-04-25T15:26:23.997Z</time>
</trkpt>
<trkpt lat="59.0917850" lon="30.0364190">
<ele>70.652641</ele>
<time>2026-04-25T15:27:17.004Z</time>
</trkpt>
<trkpt lat="59.0917180" lon="30.0359810">
<ele>70.469757</ele>
<time>2026-04-25T15:28:33.001Z</time>
</trkpt>
<trkpt lat="59.0917360" lon="30.0358960">
<ele>70.408798</ele>
<time>2026-04-25T15:28:46.004Z</time>
</trkpt>
<trkpt lat="59.0917170" lon="30.0357740">
<ele>70.713600</ele>
<time>2026-04-25T15:29:28.003Z</time>
</trkpt>
<trkpt lat="59.0916170" lon="30.0355670">
<ele>70.408798</ele>
<time>2026-04-25T15:30:10.996Z</time>
</trkpt>
<trkpt lat="59.0916140" lon="30.0354280">
<ele>70.652641</ele>
<time>2026-04-25T15:30:36.000Z</time>
</trkpt>
<trkpt lat="59.0914280" lon="30.0348480">
<ele>70.439285</ele>
<time>2026-04-25T15:32:02.996Z</time>
</trkpt>
<trkpt lat="59.0913500" lon="30.0350840">
<ele>70.591682</ele>
<time>2026-04-25T15:32:34.999Z</time>
</trkpt>
<trkpt lat="59.0913550" lon="30.0352560">
<ele>58.369202</ele>
<time>2026-04-25T15:35:23.004Z</time>
</trkpt>
<trkpt lat="59.0915420" lon="30.0361160">
<ele>70.774559</ele>
<time>2026-04-25T15:37:19.998Z</time>
</trkpt>
<trkpt lat="59.0915490" lon="30.0363530">
<ele>70.591682</ele>
<time>2026-04-25T15:37:50.998Z</time>
</trkpt>
<trkpt lat="59.0916260" lon="30.0365420">
<ele>69.250557</ele>
<time>2026-04-25T15:38:36.997Z</time>
</trkpt>
<trkpt lat="59.0916570" lon="30.0368470">
<ele>70.164963</ele>
<time>2026-04-25T15:39:11.998Z</time>
</trkpt>
<trkpt lat="59.0915780" lon="30.0368370">
<ele>70.195442</ele>
<time>2026-04-25T15:39:26.004Z</time>
</trkpt>
<trkpt lat="59.0914120" lon="30.0369320">
<ele>70.652641</ele>
<time>2026-04-25T15:40:35.996Z</time>
</trkpt>
<trkpt lat="59.0913770" lon="30.0365050">
<ele>70.622162</ele>
<time>2026-04-25T15:41:41.004Z</time>
</trkpt>
<trkpt lat="59.0913370" lon="30.0364760">
<ele>70.744080</ele>
<time>2026-04-25T15:41:53.998Z</time>
</trkpt>
<trkpt lat="59.0913140" lon="30.0363620">
<ele>70.774559</ele>
<time>2026-04-25T15:42:23.003Z</time>
</trkpt>
<trkpt lat="59.0911190" lon="30.0353890">
<ele>69.402962</ele>
<time>2026-04-25T15:44:34.996Z</time>
</trkpt>
<trkpt lat="59.0910920" lon="30.0353150">
<ele>71.963280</ele>
<time>2026-04-25T15:44:46.003Z</time>
</trkpt>
<trkpt lat="59.0909980" lon="30.0353830">
<ele>71.323196</ele>
<time>2026-04-25T15:45:05.996Z</time>
</trkpt>
<trkpt lat="59.0909360" lon="30.0354950">
<ele>72.359520</ele>
<time>2026-04-25T15:45:24.002Z</time>
</trkpt>
<trkpt lat="59.0910140" lon="30.0359500">
<ele>71.170799</ele>
<time>2026-04-25T15:46:34.003Z</time>
</trkpt>
<trkpt lat="59.0910290" lon="30.0362130">
<ele>71.201279</ele>
<time>2026-04-25T15:47:52.999Z</time>
</trkpt>
<trkpt lat="59.0911380" lon="30.0365860">
<ele>70.622162</ele>
<time>2026-04-25T15:49:01.004Z</time>
</trkpt>
<trkpt lat="59.0912090" lon="30.0370060">
<ele>71.140320</ele>
<time>2026-04-25T15:49:53.000Z</time>
</trkpt>
<trkpt lat="59.0912440" lon="30.0370460">
<ele>71.109840</ele>
<time>2026-04-25T15:50:03.998Z</time>
</trkpt>
<trkpt lat="59.0911110" lon="30.0370590">
<ele>70.469757</ele>
<time>2026-04-25T15:50:38.999Z</time>
</trkpt>
<trkpt lat="59.0910240" lon="30.0371260">
<ele>71.109840</ele>
<time>2026-04-25T15:51:39.004Z</time>
</trkpt>
<trkpt lat="59.0909790" lon="30.0369240">
<ele>71.506081</ele>
<time>2026-04-25T15:52:25.003Z</time>
</trkpt>
<trkpt lat="59.0909830" lon="30.0368070">
<ele>71.262238</ele>
<time>2026-04-25T15:52:43.000Z</time>
</trkpt>
<trkpt lat="59.0907430" lon="30.0357810">
<ele>72.085197</ele>
<time>2026-04-25T15:55:23.998Z</time>
</trkpt>
<trkpt lat="59.0906760" lon="30.0358330">
<ele>71.597519</ele>
<time>2026-04-25T15:55:37.001Z</time>
</trkpt>
<trkpt lat="59.0906100" lon="30.0360760">
<ele>71.597519</ele>
<time>2026-04-25T15:56:36.997Z</time>
</trkpt>
<trkpt lat="59.0907030" lon="30.0364770">
<ele>71.749916</ele>
<time>2026-04-25T15:57:50.999Z</time>
</trkpt>
<trkpt lat="59.0906920" lon="30.0366410">
<ele>71.719444</ele>
<time>2026-04-25T15:58:20.004Z</time>
</trkpt>
<trkpt lat="59.0907970" lon="30.0372120">
<ele>72.450958</ele>
<time>2026-04-25T15:59:52.002Z</time>
</trkpt>
<trkpt lat="59.0906950" lon="30.0373010">
<ele>72.755760</ele>
<time>2026-04-25T16:00:35.997Z</time>
</trkpt>
<trkpt lat="59.0906500" lon="30.0372640">
<ele>72.511917</ele>
<time>2026-04-25T16:00:55.999Z</time>
</trkpt>
<trkpt lat="59.0905590" lon="30.0373510">
<ele>73.517761</ele>
<time>2026-04-25T16:01:35.000Z</time>
</trkpt>
<trkpt lat="59.0905010" lon="30.0372270">
<ele>72.054718</ele>
<time>2026-04-25T16:02:30.002Z</time>
</trkpt>
<trkpt lat="59.0905170" lon="30.0369150">
<ele>72.085197</ele>
<time>2026-04-25T16:03:20.002Z</time>
</trkpt>
<trkpt lat="59.0904900" lon="30.0366390">
<ele>71.810883</ele>
<time>2026-04-25T16:04:15.997Z</time>
</trkpt>
<trkpt lat="59.0903800" lon="30.0363310">
<ele>71.719444</ele>
<time>2026-04-25T16:05:19.000Z</time>
</trkpt>
<trkpt lat="59.0902950" lon="30.0364240">
<ele>72.572884</ele>
<time>2026-04-25T16:05:36.004Z</time>
</trkpt>
<trkpt lat="59.0902530" lon="30.0365670">
<ele>72.938644</ele>
<time>2026-04-25T16:05:48.998Z</time>
</trkpt>
<trkpt lat="59.0904170" lon="30.0371960">
<ele>73.853043</ele>
<time>2026-04-25T16:08:24.000Z</time>
</trkpt>
<trkpt lat="59.0904090" lon="30.0372690">
<ele>74.096878</ele>
<time>2026-04-25T16:08:33.996Z</time>
</trkpt>
<trkpt lat="59.0904570" lon="30.0374150">
<ele>72.298561</ele>
<time>2026-04-25T16:08:45.997Z</time>
</trkpt>
<trkpt lat="59.0904390" lon="30.0374750">
<ele>73.670158</ele>
<time>2026-04-25T16:09:04.997Z</time>
</trkpt>
<trkpt lat="59.0904890" lon="30.0377570">
<ele>74.035919</ele>
<time>2026-04-25T16:09:53.001Z</time>
</trkpt>
<trkpt lat="59.0904420" lon="30.0378340">
<ele>73.670158</ele>
<time>2026-04-25T16:10:03.999Z</time>
</trkpt>
<trkpt lat="59.0902800" lon="30.0377980">
<ele>75.895203</ele>
<time>2026-04-25T16:10:41.998Z</time>
</trkpt>
<trkpt lat="59.0902960" lon="30.0377820">
<ele>74.401680</ele>
<time>2026-04-25T16:11:10.000Z</time>
</trkpt>
<trkpt lat="59.0902330" lon="30.0372330">
<ele>74.127357</ele>
<time>2026-04-25T16:12:08.001Z</time>
</trkpt>
<trkpt lat="59.0901890" lon="30.0370530">
<ele>72.085197</ele>
<time>2026-04-25T16:12:21.004Z</time>
</trkpt>
<trkpt lat="59.0901880" lon="30.0369190">
<ele>72.054718</ele>
<time>2026-04-25T16:12:36.996Z</time>
</trkpt>
<trkpt lat="59.0901940" lon="30.0372850">
<ele>74.157845</ele>
<time>2026-04-25T16:13:04.999Z</time>
</trkpt>
<trkpt lat="59.0901810" lon="30.0368740">
<ele>74.096878</ele>
<time>2026-04-25T16:13:29.001Z</time>
</trkpt>
<trkpt lat="59.0902190" lon="30.0366260">
<ele>73.517761</ele>
<time>2026-04-25T16:14:55.997Z</time>
</trkpt>
<trkpt lat="59.0904600" lon="30.0361150">
<ele>73.974960</ele>
<time>2026-04-25T16:15:41.003Z</time>
</trkpt>
<trkpt lat="59.0907510" lon="30.0356530">
<ele>73.273918</ele>
<time>2026-04-25T16:16:39.996Z</time>
</trkpt>
<trkpt lat="59.0909710" lon="30.0353660">
<ele>73.243439</ele>
<time>2026-04-25T16:17:14.997Z</time>
</trkpt>
<trkpt lat="59.0911700" lon="30.0352430">
<ele>73.273918</ele>
<time>2026-04-25T16:17:36.001Z</time>
</trkpt>
<trkpt lat="59.0913020" lon="30.0350450">
<ele>73.578720</ele>
<time>2026-04-25T16:17:55.000Z</time>
</trkpt>
<trkpt lat="59.0918660" lon="30.0338910">
<ele>74.127357</ele>
<time>2026-04-25T16:19:20.001Z</time>
</trkpt>
<trkpt lat="59.0920530" lon="30.0333660">
<ele>73.822556</ele>
<time>2026-04-25T16:19:52.997Z</time>
</trkpt>
<trkpt lat="59.0922910" lon="30.0329900">
<ele>74.249283</ele>
<time>2026-04-25T16:20:29.000Z</time>
</trkpt>
<trkpt lat="59.0925600" lon="30.0328560">
<ele>74.340721</ele>
<time>2026-04-25T16:21:00.000Z</time>
</trkpt>
<trkpt lat="59.0926510" lon="30.0328850">
<ele>74.462639</ele>
<time>2026-04-25T16:21:09.003Z</time>
</trkpt>
<trkpt lat="59.0927990" lon="30.0327970">
<ele>74.127357</ele>
<time>2026-04-25T16:21:25.004Z</time>
</trkpt>
<trkpt lat="59.0929240" lon="30.0327860">
<ele>73.914001</ele>
<time>2026-04-25T16:21:36.996Z</time>
</trkpt>
<trkpt lat="59.0930850" lon="30.0326470">
<ele>73.914001</ele>
<time>2026-04-25T16:21:54.000Z</time>
</trkpt>
<trkpt lat="59.0933700" lon="30.0325370">
<ele>74.676003</ele>
<time>2026-04-25T16:22:22.996Z</time>
</trkpt>
<trkpt lat="59.0936950" lon="30.0325670">
<ele>74.066399</ele>
<time>2026-04-25T16:22:57.003Z</time>
</trkpt>
<trkpt lat="59.0940120" lon="30.0325140">
<ele>75.316078</ele>
<time>2026-04-25T16:23:25.999Z</time>
</trkpt>
<trkpt lat="59.0944010" lon="30.0322450">
<ele>74.523598</ele>
<time>2026-04-25T16:24:07.004Z</time>
</trkpt>
<trkpt lat="59.0946350" lon="30.0323330">
<ele>74.066399</ele>
<time>2026-04-25T16:24:29.002Z</time>
</trkpt>
<trkpt lat="59.0947580" lon="30.0324560">
<ele>74.157845</ele>
<time>2026-04-25T16:24:44.001Z</time>
</trkpt>
<trkpt lat="59.0949740" lon="30.0325020">
<ele>74.279762</ele>
<time>2026-04-25T16:25:05.998Z</time>
</trkpt>
<trkpt lat="59.0952490" lon="30.0323530">
<ele>74.523598</ele>
<time>2026-04-25T16:25:36.998Z</time>
</trkpt>
<trkpt lat="59.0960320" lon="30.0323510">
<ele>74.950317</ele>
<time>2026-04-25T16:26:57.998Z</time>
</trkpt>
<trkpt lat="59.0963130" lon="30.0320850">
<ele>74.858879</ele>
<time>2026-04-25T16:27:30.001Z</time>
</trkpt>
<trkpt lat="59.0964800" lon="30.0320270">
<ele>75.041756</ele>
<time>2026-04-25T16:27:46.996Z</time>
</trkpt>
<trkpt lat="59.0966680" lon="30.0317950">
<ele>75.102715</ele>
<time>2026-04-25T16:28:14.998Z</time>
</trkpt>
<trkpt lat="59.0967730" lon="30.0316360">
<ele>75.072243</ele>
<time>2026-04-25T16:28:29.004Z</time>
</trkpt>
<trkpt lat="59.0968820" lon="30.0313030">
<ele>75.468483</ele>
<time>2026-04-25T16:28:51.001Z</time>
</trkpt>
<trkpt lat="59.0971440" lon="30.0308570">
<ele>75.468483</ele>
<time>2026-04-25T16:29:26.002Z</time>
</trkpt>
<trkpt lat="59.0976680" lon="30.0303640">
<ele>75.529442</ele>
<time>2026-04-25T16:30:24.002Z</time>
</trkpt>
<trkpt lat="59.0978740" lon="30.0302730">
<ele>75.438004</ele>
<time>2026-04-25T16:30:47.002Z</time>
</trkpt>
<trkpt lat="59.0982060" lon="30.0302320">
<ele>74.950317</ele>
<time>2026-04-25T16:31:19.998Z</time>
</trkpt>
<trkpt lat="59.0983750" lon="30.0300960">
<ele>75.377045</ele>
<time>2026-04-25T16:31:37.001Z</time>
</trkpt>
<trkpt lat="59.0986430" lon="30.0297630">
<ele>75.285599</ele>
<time>2026-04-25T16:32:08.002Z</time>
</trkpt>
<trkpt lat="59.0990950" lon="30.0290670">
<ele>75.438004</ele>
<time>2026-04-25T16:33:06.002Z</time>
</trkpt>
<trkpt lat="59.0993450" lon="30.0287730">
<ele>75.377045</ele>
<time>2026-04-25T16:33:37.002Z</time>
</trkpt>
<trkpt lat="59.0994920" lon="30.0286860">
<ele>75.102715</ele>
<time>2026-04-25T16:33:52.001Z</time>
</trkpt>
<trkpt lat="59.0996140" lon="30.0285480">
<ele>74.736961</ele>
<time>2026-04-25T16:34:08.003Z</time>
</trkpt>
<trkpt lat="59.0996200" lon="30.0284680">
<ele>74.950317</ele>
<time>2026-04-25T16:34:15.001Z</time>
</trkpt>
</trkseg>
</trk>
<trk>
 <name>20260425_Lisa86_2</name>
 <desc>20260425_Lisa86_2</desc>
<trkseg>
<trkpt lat="59.0994290" lon="30.0281430">
<ele>35.722561</ele>
<time>2026-04-25T08:57:01.999Z</time>
</trkpt>
<trkpt lat="59.0994920" lon="30.0284220">
<ele>33.771839</ele>
<time>2026-04-25T08:57:15.002Z</time>
</trkpt>
<trkpt lat="59.0994840" lon="30.0285270">
<ele>34.259521</ele>
<time>2026-04-25T08:57:19.002Z</time>
</trkpt>
<trkpt lat="59.0994170" lon="30.0286870">
<ele>36.667442</ele>
<time>2026-04-25T08:57:31.997Z</time>
</trkpt>
<trkpt lat="59.0993830" lon="30.0286840">
<ele>43.891201</ele>
<time>2026-04-25T08:58:02.004Z</time>
</trkpt>
<trkpt lat="59.0994900" lon="30.0287450">
<ele>61.661041</ele>
<time>2026-04-25T08:59:23.997Z</time>
</trkpt>
<trkpt lat="59.0994840" lon="30.0288000">
<ele>62.148720</ele>
<time>2026-04-25T08:59:39.998Z</time>
</trkpt>
<trkpt lat="59.0995660" lon="30.0287920">
<ele>67.421761</ele>
<time>2026-04-25T09:00:40.997Z</time>
</trkpt>
<trkpt lat="59.0995280" lon="30.0288080">
<ele>70.805038</ele>
<time>2026-04-25T09:01:08.999Z</time>
</trkpt>
<trkpt lat="59.0994940" lon="30.0286520">
<ele>78.973679</ele>
<time>2026-04-25T09:01:53.996Z</time>
</trkpt>
<trkpt lat="59.0996330" lon="30.0287780">
<ele>81.838799</ele>
<time>2026-04-25T09:03:06.002Z</time>
</trkpt>
<trkpt lat="59.0995500" lon="30.0288070">
<ele>79.461365</ele>
<time>2026-04-25T09:03:37.002Z</time>
</trkpt>
<trkpt lat="59.0994730" lon="30.0287270">
<ele>80.406235</ele>
<time>2026-04-25T09:04:19.001Z</time>
</trkpt>
<trkpt lat="59.0994990" lon="30.0287260">
<ele>79.461365</ele>
<time>2026-04-25T09:04:32.998Z</time>
</trkpt>
<trkpt lat="59.0993160" lon="30.0289090">
<ele>74.157845</ele>
<time>2026-04-25T09:06:07.001Z</time>
</trkpt>
<trkpt lat="59.0993280" lon="30.0289730">
<ele>72.725281</ele>
<time>2026-04-25T09:06:39.004Z</time>
</trkpt>
<trkpt lat="59.0992680" lon="30.0288700">
<ele>74.645515</ele>
<time>2026-04-25T09:06:57.001Z</time>
</trkpt>
<trkpt lat="59.0992460" lon="30.0289090">
<ele>74.645515</ele>
<time>2026-04-25T09:07:16.000Z</time>
</trkpt>
<trkpt lat="59.0992860" lon="30.0289460">
<ele>77.998322</ele>
<time>2026-04-25T09:07:52.997Z</time>
</trkpt>
<trkpt lat="59.0992680" lon="30.0290070">
<ele>77.998322</ele>
<time>2026-04-25T09:08:04.004Z</time>
</trkpt>
<trkpt lat="59.0992420" lon="30.0289820">
<ele>81.381599</ele>
<time>2026-04-25T09:08:19.997Z</time>
</trkpt>
<trkpt lat="59.0992660" lon="30.0290410">
<ele>77.053444</ele>
<time>2026-04-25T09:09:37.999Z</time>
</trkpt>
<trkpt lat="59.0992340" lon="30.0290370">
<ele>78.973679</ele>
<time>2026-04-25T09:10:03.003Z</time>
</trkpt>
<trkpt lat="59.0992630" lon="30.0290500">
<ele>78.973679</ele>
<time>2026-04-25T09:10:19.004Z</time>
</trkpt>
<trkpt lat="59.0992210" lon="30.0290350">
<ele>82.814163</ele>
<time>2026-04-25T09:10:38.004Z</time>
</trkpt>
<trkpt lat="59.0993000" lon="30.0291490">
<ele>82.814163</ele>
<time>2026-04-25T09:12:33.002Z</time>
</trkpt>
<trkpt lat="59.0992930" lon="30.0294940">
<ele>74.645515</ele>
<time>2026-04-25T09:13:38.001Z</time>
</trkpt>
<trkpt lat="59.0992770" lon="30.0296010">
<ele>74.157845</ele>
<time>2026-04-25T09:13:55.004Z</time>
</trkpt>
<trkpt lat="59.0992100" lon="30.0297140">
<ele>74.645515</ele>
<time>2026-04-25T09:14:40.001Z</time>
</trkpt>
<trkpt lat="59.0993270" lon="30.0298640">
<ele>72.237602</ele>
<time>2026-04-25T09:15:19.996Z</time>
</trkpt>
<trkpt lat="59.0993710" lon="30.0303070">
<ele>62.605919</ele>
<time>2026-04-25T09:16:33.004Z</time>
</trkpt>
<trkpt lat="59.0994400" lon="30.0303760">
<ele>63.581284</ele>
<time>2026-04-25T09:16:48.003Z</time>
</trkpt>
<trkpt lat="59.0994710" lon="30.0306110">
<ele>74.645515</ele>
<time>2026-04-25T09:17:34.996Z</time>
</trkpt>
<trkpt lat="59.0994570" lon="30.0306810">
<ele>76.565758</ele>
<time>2026-04-25T09:17:54.997Z</time>
</trkpt>
<trkpt lat="59.0995190" lon="30.0309250">
<ele>77.053444</ele>
<time>2026-04-25T09:18:41.999Z</time>
</trkpt>
<trkpt lat="59.0995210" lon="30.0310340">
<ele>76.565758</ele>
<time>2026-04-25T09:19:02.001Z</time>
</trkpt>
<trkpt lat="59.0994770" lon="30.0311060">
<ele>78.486000</ele>
<time>2026-04-25T09:19:15.997Z</time>
</trkpt>
<trkpt lat="59.0994880" lon="30.0312270">
<ele>78.973679</ele>
<time>2026-04-25T09:19:50.998Z</time>
</trkpt>
<trkpt lat="59.0994950" lon="30.0311820">
<ele>77.998322</ele>
<time>2026-04-25T09:20:11.000Z</time>
</trkpt>
<trkpt lat="59.0995640" lon="30.0313820">
<ele>82.814163</ele>
<time>2026-04-25T09:21:09.000Z</time>
</trkpt>
<trkpt lat="59.0996020" lon="30.0316600">
<ele>77.998322</ele>
<time>2026-04-25T09:21:53.004Z</time>
</trkpt>
<trkpt lat="59.0996730" lon="30.0318460">
<ele>75.133202</ele>
<time>2026-04-25T09:22:26.000Z</time>
</trkpt>
<trkpt lat="59.0996750" lon="30.0321700">
<ele>73.670158</ele>
<time>2026-04-25T09:23:20.000Z</time>
</trkpt>
<trkpt lat="59.0997400" lon="30.0323540">
<ele>76.565758</ele>
<time>2026-04-25T09:23:56.996Z</time>
</trkpt>
<trkpt lat="59.0997320" lon="30.0324810">
<ele>76.078079</ele>
<time>2026-04-25T09:24:11.002Z</time>
</trkpt>
<trkpt lat="59.0997870" lon="30.0327980">
<ele>69.829681</ele>
<time>2026-04-25T09:24:58.997Z</time>
</trkpt>
<trkpt lat="59.0997790" lon="30.0330420">
<ele>65.989197</ele>
<time>2026-04-25T09:25:25.003Z</time>
</trkpt>
<trkpt lat="59.0998130" lon="30.0331110">
<ele>70.805038</ele>
<time>2026-04-25T09:26:06.000Z</time>
</trkpt>
<trkpt lat="59.0997960" lon="30.0330140">
<ele>73.670158</ele>
<time>2026-04-25T09:27:10.999Z</time>
</trkpt>
<trkpt lat="59.0997060" lon="30.0329700">
<ele>74.157845</ele>
<time>2026-04-25T09:27:36.003Z</time>
</trkpt>
<trkpt lat="59.0996710" lon="30.0328950">
<ele>77.510643</ele>
<time>2026-04-25T09:28:31.999Z</time>
</trkpt>
<trkpt lat="59.0996490" lon="30.0329570">
<ele>81.838799</ele>
<time>2026-04-25T09:29:11.000Z</time>
</trkpt>
<trkpt lat="59.0996510" lon="30.0325500">
<ele>76.565758</ele>
<time>2026-04-25T09:29:54.001Z</time>
</trkpt>
<trkpt lat="59.0995080" lon="30.0320370">
<ele>77.510643</ele>
<time>2026-04-25T09:31:15.001Z</time>
</trkpt>
<trkpt lat="59.0995190" lon="30.0316870">
<ele>77.053444</ele>
<time>2026-04-25T09:31:47.997Z</time>
</trkpt>
<trkpt lat="59.0994790" lon="30.0316080">
<ele>77.998322</ele>
<time>2026-04-25T09:32:01.000Z</time>
</trkpt>
<trkpt lat="59.0994810" lon="30.0315010">
<ele>77.510643</ele>
<time>2026-04-25T09:32:13.001Z</time>
</trkpt>
<trkpt lat="59.0994140" lon="30.0311580">
<ele>77.998322</ele>
<time>2026-04-25T09:33:03.001Z</time>
</trkpt>
<trkpt lat="59.0992930" lon="30.0308900">
<ele>77.053444</ele>
<time>2026-04-25T09:33:50.003Z</time>
</trkpt>
<trkpt lat="59.0992980" lon="30.0305720">
<ele>78.973679</ele>
<time>2026-04-25T09:34:39.000Z</time>
</trkpt>
<trkpt lat="59.0992280" lon="30.0303210">
<ele>77.998322</ele>
<time>2026-04-25T09:35:41.001Z</time>
</trkpt>
<trkpt lat="59.0991730" lon="30.0303180">
<ele>79.461365</ele>
<time>2026-04-25T09:36:33.998Z</time>
</trkpt>
<trkpt lat="59.0991300" lon="30.0302270">
<ele>70.317360</ele>
<time>2026-04-25T09:37:33.001Z</time>
</trkpt>
<trkpt lat="59.0991640" lon="30.0300970">
<ele>71.749916</ele>
<time>2026-04-25T09:37:46.998Z</time>
</trkpt>
<trkpt lat="59.0991270" lon="30.0299160">
<ele>78.973679</ele>
<time>2026-04-25T09:38:21.998Z</time>
</trkpt>
<trkpt lat="59.0991110" lon="30.0294480">
<ele>79.918564</ele>
<time>2026-04-25T09:39:22.003Z</time>
</trkpt>
<trkpt lat="59.0990180" lon="30.0294560">
<ele>75.590401</ele>
<time>2026-04-25T09:39:48.001Z</time>
</trkpt>
<trkpt lat="59.0989540" lon="30.0293750">
<ele>73.670158</ele>
<time>2026-04-25T09:40:04.002Z</time>
</trkpt>
<trkpt lat="59.0988940" lon="30.0293810">
<ele>73.670158</ele>
<time>2026-04-25T09:40:16.003Z</time>
</trkpt>
<trkpt lat="59.0987250" lon="30.0297820">
<ele>75.590401</ele>
<time>2026-04-25T09:41:09.001Z</time>
</trkpt>
<trkpt lat="59.0986850" lon="30.0297300">
<ele>81.838799</ele>
<time>2026-04-25T09:42:51.998Z</time>
</trkpt>
<trkpt lat="59.0987280" lon="30.0297520">
<ele>81.838799</ele>
<time>2026-04-25T09:43:08.000Z</time>
</trkpt>
<trkpt lat="59.0986730" lon="30.0298580">
<ele>81.381599</ele>
<time>2026-04-25T09:43:32.002Z</time>
</trkpt>
<trkpt lat="59.0988020" lon="30.0305020">
<ele>67.421761</ele>
<time>2026-04-25T09:44:47.999Z</time>
</trkpt>
<trkpt lat="59.0987850" lon="30.0308120">
<ele>67.909439</ele>
<time>2026-04-25T09:45:28.002Z</time>
</trkpt>
<trkpt lat="59.0989320" lon="30.0310430">
<ele>70.805038</ele>
<time>2026-04-25T09:46:35.999Z</time>
</trkpt>
<trkpt lat="59.0988980" lon="30.0313360">
<ele>70.805038</ele>
<time>2026-04-25T09:47:39.002Z</time>
</trkpt>
<trkpt lat="59.0988580" lon="30.0312700">
<ele>71.749916</ele>
<time>2026-04-25T09:47:56.999Z</time>
</trkpt>
<trkpt lat="59.0988930" lon="30.0312710">
<ele>70.805038</ele>
<time>2026-04-25T09:48:14.996Z</time>
</trkpt>
<trkpt lat="59.0990760" lon="30.0319040">
<ele>71.262238</ele>
<time>2026-04-25T09:49:40.999Z</time>
</trkpt>
<trkpt lat="59.0991060" lon="30.0321470">
<ele>70.805038</ele>
<time>2026-04-25T09:50:11.999Z</time>
</trkpt>
<trkpt lat="59.0990790" lon="30.0328310">
<ele>69.829681</ele>
<time>2026-04-25T09:51:50.996Z</time>
</trkpt>
<trkpt lat="59.0992090" lon="30.0332970">
<ele>69.829681</ele>
<time>2026-04-25T09:52:53.999Z</time>
</trkpt>
<trkpt lat="59.0991100" lon="30.0332960">
<ele>67.909439</ele>
<time>2026-04-25T09:53:41.001Z</time>
</trkpt>
<trkpt lat="59.0991010" lon="30.0332510">
<ele>68.884804</ele>
<time>2026-04-25T09:54:08.001Z</time>
</trkpt>
<trkpt lat="59.0991670" lon="30.0334240">
<ele>66.476883</ele>
<time>2026-04-25T09:54:28.002Z</time>
</trkpt>
<trkpt lat="59.0990860" lon="30.0332860">
<ele>71.749916</ele>
<time>2026-04-25T09:55:17.000Z</time>
</trkpt>
<trkpt lat="59.0990590" lon="30.0331110">
<ele>71.749916</ele>
<time>2026-04-25T09:55:31.999Z</time>
</trkpt>
<trkpt lat="59.0990730" lon="30.0329580">
<ele>71.262238</ele>
<time>2026-04-25T09:55:46.998Z</time>
</trkpt>
<trkpt lat="59.0991390" lon="30.0328380">
<ele>69.342003</ele>
<time>2026-04-25T09:56:01.003Z</time>
</trkpt>
<trkpt lat="59.0990420" lon="30.0325480">
<ele>66.476883</ele>
<time>2026-04-25T09:56:28.997Z</time>
</trkpt>
<trkpt lat="59.0989770" lon="30.0320940">
<ele>66.476883</ele>
<time>2026-04-25T09:57:15.998Z</time>
</trkpt>
<trkpt lat="59.0988810" lon="30.0319180">
<ele>68.884804</ele>
<time>2026-04-25T09:57:46.999Z</time>
</trkpt>
<trkpt lat="59.0988810" lon="30.0318160">
<ele>68.397118</ele>
<time>2026-04-25T09:58:00.002Z</time>
</trkpt>
<trkpt lat="59.0988660" lon="30.0318670">
<ele>69.342003</ele>
<time>2026-04-25T09:58:20.997Z</time>
</trkpt>
<trkpt lat="59.0987920" lon="30.0317520">
<ele>69.342003</ele>
<time>2026-04-25T09:58:54.002Z</time>
</trkpt>
<trkpt lat="59.0987690" lon="30.0316210">
<ele>71.262238</ele>
<time>2026-04-25T09:59:13.001Z</time>
</trkpt>
<trkpt lat="59.0987990" lon="30.0315220">
<ele>69.829681</ele>
<time>2026-04-25T09:59:28.000Z</time>
</trkpt>
<trkpt lat="59.0987950" lon="30.0311240">
<ele>75.133202</ele>
<time>2026-04-25T10:00:50.996Z</time>
</trkpt>
<trkpt lat="59.0986820" lon="30.0306790">
<ele>76.078079</ele>
<time>2026-04-25T10:02:06.000Z</time>
</trkpt>
<trkpt lat="59.0986820" lon="30.0305250">
<ele>73.212959</ele>
<time>2026-04-25T10:02:38.003Z</time>
</trkpt>
<trkpt lat="59.0986400" lon="30.0304030">
<ele>72.237602</ele>
<time>2026-04-25T10:02:50.997Z</time>
</trkpt>
<trkpt lat="59.0986550" lon="30.0302540">
<ele>69.342003</ele>
<time>2026-04-25T10:03:05.003Z</time>
</trkpt>
<trkpt lat="59.0986140" lon="30.0299120">
<ele>67.909439</ele>
<time>2026-04-25T10:03:25.998Z</time>
</trkpt>
<trkpt lat="59.0985610" lon="30.0299250">
<ele>69.342003</ele>
<time>2026-04-25T10:03:37.999Z</time>
</trkpt>
<trkpt lat="59.0985400" lon="30.0300190">
<ele>69.829681</ele>
<time>2026-04-25T10:03:50.000Z</time>
</trkpt>
<trkpt lat="59.0982800" lon="30.0303080">
<ele>68.884804</ele>
<time>2026-04-25T10:04:33.001Z</time>
</trkpt>
<trkpt lat="59.0983150" lon="30.0303430">
<ele>78.973679</ele>
<time>2026-04-25T10:05:13.998Z</time>
</trkpt>
<trkpt lat="59.0983010" lon="30.0303940">
<ele>83.759033</ele>
<time>2026-04-25T10:05:43.996Z</time>
</trkpt>
<trkpt lat="59.0983030" lon="30.0303170">
<ele>87.142319</ele>
<time>2026-04-25T10:06:11.998Z</time>
</trkpt>
<trkpt lat="59.0983410" lon="30.0305280">
<ele>79.461365</ele>
<time>2026-04-25T10:07:05.998Z</time>
</trkpt>
<trkpt lat="59.0983470" lon="30.0308630">
<ele>72.237602</ele>
<time>2026-04-25T10:07:32.998Z</time>
</trkpt>
<trkpt lat="59.0984250" lon="30.0308630">
<ele>74.645515</ele>
<time>2026-04-25T10:08:11.999Z</time>
</trkpt>
<trkpt lat="59.0984490" lon="30.0317610">
<ele>74.645515</ele>
<time>2026-04-25T10:09:50.003Z</time>
</trkpt>
<trkpt lat="59.0984830" lon="30.0319390">
<ele>74.645515</ele>
<time>2026-04-25T10:10:09.002Z</time>
</trkpt>
<trkpt lat="59.0986080" lon="30.0321050">
<ele>76.078079</ele>
<time>2026-04-25T10:11:03.002Z</time>
</trkpt>
<trkpt lat="59.0986080" lon="30.0324880">
<ele>77.510643</ele>
<time>2026-04-25T10:11:56.000Z</time>
</trkpt>
<trkpt lat="59.0986870" lon="30.0325920">
<ele>80.406235</ele>
<time>2026-04-25T10:12:36.996Z</time>
</trkpt>
<trkpt lat="59.0987140" lon="30.0327170">
<ele>80.893921</ele>
<time>2026-04-25T10:12:52.004Z</time>
</trkpt>
<trkpt lat="59.0987560" lon="30.0335370">
<ele>75.133202</ele>
<time>2026-04-25T10:14:32.997Z</time>
</trkpt>
<trkpt lat="59.0987120" lon="30.0336490">
<ele>80.893921</ele>
<time>2026-04-25T10:15:15.998Z</time>
</trkpt>
<trkpt lat="59.0986640" lon="30.0336070">
<ele>85.222084</ele>
<time>2026-04-25T10:15:44.001Z</time>
</trkpt>
<trkpt lat="59.0985540" lon="30.0328440">
<ele>88.087196</ele>
<time>2026-04-25T10:17:25.002Z</time>
</trkpt>
<trkpt lat="59.0985640" lon="30.0321640">
<ele>81.381599</ele>
<time>2026-04-25T10:18:51.998Z</time>
</trkpt>
<trkpt lat="59.0985010" lon="30.0320510">
<ele>78.486000</ele>
<time>2026-04-25T10:19:06.997Z</time>
</trkpt>
<trkpt lat="59.0984920" lon="30.0319150">
<ele>78.486000</ele>
<time>2026-04-25T10:19:28.001Z</time>
</trkpt>
<trkpt lat="59.0983180" lon="30.0314080">
<ele>76.565758</ele>
<time>2026-04-25T10:20:31.998Z</time>
</trkpt>
<trkpt lat="59.0982930" lon="30.0307040">
<ele>79.461365</ele>
<time>2026-04-25T10:21:59.996Z</time>
</trkpt>
<trkpt lat="59.0982000" lon="30.0303160">
<ele>79.461365</ele>
<time>2026-04-25T10:22:45.002Z</time>
</trkpt>
<trkpt lat="59.0979570" lon="30.0304000">
<ele>72.725281</ele>
<time>2026-04-25T10:23:32.004Z</time>
</trkpt>
<trkpt lat="59.0979120" lon="30.0302760">
<ele>73.670158</ele>
<time>2026-04-25T10:23:48.998Z</time>
</trkpt>
<trkpt lat="59.0979550" lon="30.0304640">
<ele>79.918564</ele>
<time>2026-04-25T10:24:36.000Z</time>
</trkpt>
<trkpt lat="59.0979220" lon="30.0304850">
<ele>79.461365</ele>
<time>2026-04-25T10:24:52.001Z</time>
</trkpt>
<trkpt lat="59.0978900" lon="30.0304150">
<ele>79.461365</ele>
<time>2026-04-25T10:25:08.003Z</time>
</trkpt>
<trkpt lat="59.0979570" lon="30.0303570">
<ele>80.406235</ele>
<time>2026-04-25T10:25:21.999Z</time>
</trkpt>
<trkpt lat="59.0979780" lon="30.0303840">
<ele>80.406235</ele>
<time>2026-04-25T10:25:36.998Z</time>
</trkpt>
<trkpt lat="59.0978960" lon="30.0304410">
<ele>78.973679</ele>
<time>2026-04-25T10:26:07.999Z</time>
</trkpt>
<trkpt lat="59.0979220" lon="30.0305180">
<ele>82.814163</ele>
<time>2026-04-25T10:26:53.998Z</time>
</trkpt>
<trkpt lat="59.0979620" lon="30.0303890">
<ele>84.246719</ele>
<time>2026-04-25T10:27:30.001Z</time>
</trkpt>
<trkpt lat="59.0979290" lon="30.0304540">
<ele>85.222084</ele>
<time>2026-04-25T10:27:51.998Z</time>
</trkpt>
<trkpt lat="59.0979880" lon="30.0304860">
<ele>85.679283</ele>
<time>2026-04-25T10:28:17.003Z</time>
</trkpt>
<trkpt lat="59.0979350" lon="30.0304820">
<ele>80.406235</ele>
<time>2026-04-25T10:29:10.000Z</time>
</trkpt>
<trkpt lat="59.0980240" lon="30.0304470">
<ele>81.838799</ele>
<time>2026-04-25T10:30:00.000Z</time>
</trkpt>
<trkpt lat="59.0980370" lon="30.0302940">
<ele>86.654633</ele>
<time>2026-04-25T10:30:18.999Z</time>
</trkpt>
<trkpt lat="59.0978390" lon="30.0303500">
<ele>80.406235</ele>
<time>2026-04-25T10:30:50.000Z</time>
</trkpt>
<trkpt lat="59.0978130" lon="30.0305020">
<ele>88.087196</ele>
<time>2026-04-25T10:31:39.999Z</time>
</trkpt>
<trkpt lat="59.0979720" lon="30.0310870">
<ele>86.654633</ele>
<time>2026-04-25T10:32:59.997Z</time>
</trkpt>
<trkpt lat="59.0979560" lon="30.0313970">
<ele>85.679283</ele>
<time>2026-04-25T10:33:34.004Z</time>
</trkpt>
<trkpt lat="59.0980110" lon="30.0314100">
<ele>87.142319</ele>
<time>2026-04-25T10:34:01.004Z</time>
</trkpt>
<trkpt lat="59.0980480" lon="30.0319290">
<ele>83.759033</ele>
<time>2026-04-25T10:34:53.000Z</time>
</trkpt>
<trkpt lat="59.0981130" lon="30.0321350">
<ele>85.679283</ele>
<time>2026-04-25T10:35:10.003Z</time>
</trkpt>
<trkpt lat="59.0981180" lon="30.0326880">
<ele>85.222084</ele>
<time>2026-04-25T10:36:00.003Z</time>
</trkpt>
<trkpt lat="59.0981710" lon="30.0328030">
<ele>85.222084</ele>
<time>2026-04-25T10:36:14.000Z</time>
</trkpt>
<trkpt lat="59.0981860" lon="30.0329530">
<ele>86.166962</ele>
<time>2026-04-25T10:36:31.003Z</time>
</trkpt>
<trkpt lat="59.0983430" lon="30.0334710">
<ele>84.246719</ele>
<time>2026-04-25T10:37:22.999Z</time>
</trkpt>
<trkpt lat="59.0983720" lon="30.0336970">
<ele>85.222084</ele>
<time>2026-04-25T10:37:40.002Z</time>
</trkpt>
<trkpt lat="59.0982970" lon="30.0336470">
<ele>88.087196</ele>
<time>2026-04-25T10:38:04.004Z</time>
</trkpt>
<trkpt lat="59.0982800" lon="30.0337200">
<ele>91.927681</ele>
<time>2026-04-25T10:38:23.004Z</time>
</trkpt>
<trkpt lat="59.0982270" lon="30.0335300">
<ele>94.335602</ele>
<time>2026-04-25T10:39:18.999Z</time>
</trkpt>
<trkpt lat="59.0981450" lon="30.0326950">
<ele>83.759033</ele>
<time>2026-04-25T10:40:37.001Z</time>
</trkpt>
<trkpt lat="59.0980870" lon="30.0325550">
<ele>81.381599</ele>
<time>2026-04-25T10:40:53.003Z</time>
</trkpt>
<trkpt lat="59.0981110" lon="30.0322220">
<ele>78.973679</ele>
<time>2026-04-25T10:41:20.996Z</time>
</trkpt>
<trkpt lat="59.0979850" lon="30.0318790">
<ele>77.053444</ele>
<time>2026-04-25T10:42:03.997Z</time>
</trkpt>
<trkpt lat="59.0979470" lon="30.0310710">
<ele>80.406235</ele>
<time>2026-04-25T10:43:20.997Z</time>
</trkpt>
<trkpt lat="59.0977580" lon="30.0303240">
<ele>70.805038</ele>
<time>2026-04-25T10:44:18.997Z</time>
</trkpt>
<trkpt lat="59.0976510" lon="30.0304060">
<ele>68.884804</ele>
<time>2026-04-25T10:44:34.999Z</time>
</trkpt>
<trkpt lat="59.0974360" lon="30.0307140">
<ele>68.397118</ele>
<time>2026-04-25T10:45:05.999Z</time>
</trkpt>
<trkpt lat="59.0974040" lon="30.0308420">
<ele>69.829681</ele>
<time>2026-04-25T10:45:19.996Z</time>
</trkpt>
<trkpt lat="59.0974260" lon="30.0309060">
<ele>77.053444</ele>
<time>2026-04-25T10:45:39.004Z</time>
</trkpt>
<trkpt lat="59.0974070" lon="30.0310580">
<ele>74.645515</ele>
<time>2026-04-25T10:45:51.998Z</time>
</trkpt>
<trkpt lat="59.0974990" lon="30.0314150">
<ele>72.725281</ele>
<time>2026-04-25T10:46:26.999Z</time>
</trkpt>
<trkpt lat="59.0975160" lon="30.0317390">
<ele>76.078079</ele>
<time>2026-04-25T10:46:55.001Z</time>
</trkpt>
<trkpt lat="59.0976420" lon="30.0319680">
<ele>74.645515</ele>
<time>2026-04-25T10:47:23.997Z</time>
</trkpt>
<trkpt lat="59.0976580" lon="30.0322260">
<ele>75.590401</ele>
<time>2026-04-25T10:47:54.997Z</time>
</trkpt>
<trkpt lat="59.0977060" lon="30.0323650">
<ele>76.078079</ele>
<time>2026-04-25T10:48:08.001Z</time>
</trkpt>
<trkpt lat="59.0977210" lon="30.0327840">
<ele>86.654633</ele>
<time>2026-04-25T10:48:48.004Z</time>
</trkpt>
<trkpt lat="59.0977690" lon="30.0330920">
<ele>84.734398</ele>
<time>2026-04-25T10:49:17.000Z</time>
</trkpt>
<trkpt lat="59.0978250" lon="30.0332460">
<ele>83.759033</ele>
<time>2026-04-25T10:49:30.996Z</time>
</trkpt>
<trkpt lat="59.0977560" lon="30.0332810">
<ele>82.326485</ele>
<time>2026-04-25T10:49:44.000Z</time>
</trkpt>
<trkpt lat="59.0976640" lon="30.0335190">
<ele>85.222084</ele>
<time>2026-04-25T10:50:35.002Z</time>
</trkpt>
<trkpt lat="59.0974330" lon="30.0339410">
<ele>77.510643</ele>
<time>2026-04-25T10:51:19.999Z</time>
</trkpt>
<trkpt lat="59.0972680" lon="30.0341320">
<ele>75.133202</ele>
<time>2026-04-25T10:51:53.004Z</time>
</trkpt>
<trkpt lat="59.0973050" lon="30.0340010">
<ele>75.133202</ele>
<time>2026-04-25T10:52:07.000Z</time>
</trkpt>
<trkpt lat="59.0973810" lon="30.0339920">
<ele>75.133202</ele>
<time>2026-04-25T10:52:21.999Z</time>
</trkpt>
<trkpt lat="59.0975510" lon="30.0337710">
<ele>74.157845</ele>
<time>2026-04-25T10:52:51.004Z</time>
</trkpt>
<trkpt lat="59.0977350" lon="30.0333750">
<ele>75.590401</ele>
<time>2026-04-25T10:53:34.999Z</time>
</trkpt>
<trkpt lat="59.0978570" lon="30.0336290">
<ele>78.973679</ele>
<time>2026-04-25T10:54:19.996Z</time>
</trkpt>
<trkpt lat="59.0979430" lon="30.0339570">
<ele>84.246719</ele>
<time>2026-04-25T10:55:02.004Z</time>
</trkpt>
<trkpt lat="59.0979320" lon="30.0340710">
<ele>84.246719</ele>
<time>2026-04-25T10:55:17.996Z</time>
</trkpt>
<trkpt lat="59.0979050" lon="30.0340250">
<ele>86.166962</ele>
<time>2026-04-25T10:55:35.000Z</time>
</trkpt>
<trkpt lat="59.0978360" lon="30.0335000">
<ele>85.222084</ele>
<time>2026-04-25T10:56:49.001Z</time>
</trkpt>
<trkpt lat="59.0975470" lon="30.0323370">
<ele>70.805038</ele>
<time>2026-04-25T10:58:31.999Z</time>
</trkpt>
<trkpt lat="59.0975270" lon="30.0319400">
<ele>67.909439</ele>
<time>2026-04-25T10:59:01.997Z</time>
</trkpt>
<trkpt lat="59.0974420" lon="30.0317010">
<ele>65.501518</ele>
<time>2026-04-25T10:59:28.003Z</time>
</trkpt>
<trkpt lat="59.0973360" lon="30.0315400">
<ele>67.421761</ele>
<time>2026-04-25T11:00:10.996Z</time>
</trkpt>
<trkpt lat="59.0972210" lon="30.0309170">
<ele>66.964561</ele>
<time>2026-04-25T11:01:05.998Z</time>
</trkpt>
<trkpt lat="59.0970470" lon="30.0310600">
<ele>70.805038</ele>
<time>2026-04-25T11:01:35.996Z</time>
</trkpt>
<trkpt lat="59.0969200" lon="30.0313720">
<ele>72.725281</ele>
<time>2026-04-25T11:02:01.000Z</time>
</trkpt>
<trkpt lat="59.0970400" lon="30.0317560">
<ele>79.461365</ele>
<time>2026-04-25T11:03:12.004Z</time>
</trkpt>
<trkpt lat="59.0969930" lon="30.0317800">
<ele>80.406235</ele>
<time>2026-04-25T11:03:23.996Z</time>
</trkpt>
<trkpt lat="59.0970410" lon="30.0320700">
<ele>75.133202</ele>
<time>2026-04-25T11:03:57.001Z</time>
</trkpt>
<trkpt lat="59.0971220" lon="30.0321320">
<ele>83.301834</ele>
<time>2026-04-25T11:04:52.003Z</time>
</trkpt>
<trkpt lat="59.0970810" lon="30.0322890">
<ele>83.301834</ele>
<time>2026-04-25T11:05:06.000Z</time>
</trkpt>
<trkpt lat="59.0971400" lon="30.0327190">
<ele>81.381599</ele>
<time>2026-04-25T11:05:37.000Z</time>
</trkpt>
<trkpt lat="59.0971950" lon="30.0328520">
<ele>80.406235</ele>
<time>2026-04-25T11:05:50.997Z</time>
</trkpt>
<trkpt lat="59.0972440" lon="30.0331620">
<ele>79.918564</ele>
<time>2026-04-25T11:06:18.999Z</time>
</trkpt>
<trkpt lat="59.0973130" lon="30.0337120">
<ele>77.998322</ele>
<time>2026-04-25T11:07:03.996Z</time>
</trkpt>
<trkpt lat="59.0973180" lon="30.0340660">
<ele>75.590401</ele>
<time>2026-04-25T11:07:33.001Z</time>
</trkpt>
<trkpt lat="59.0972860" lon="30.0340510">
<ele>74.645515</ele>
<time>2026-04-25T11:07:53.003Z</time>
</trkpt>
<trkpt lat="59.0972820" lon="30.0338940">
<ele>84.246719</ele>
<time>2026-04-25T11:09:00.999Z</time>
</trkpt>
<trkpt lat="59.0971720" lon="30.0335850">
<ele>69.342003</ele>
<time>2026-04-25T11:09:50.999Z</time>
</trkpt>
<trkpt lat="59.0970890" lon="30.0331800">
<ele>73.670158</ele>
<time>2026-04-25T11:10:46.001Z</time>
</trkpt>
<trkpt lat="59.0969930" lon="30.0323360">
<ele>68.397118</ele>
<time>2026-04-25T11:12:11.002Z</time>
</trkpt>
<trkpt lat="59.0968810" lon="30.0322560">
<ele>69.829681</ele>
<time>2026-04-25T11:12:58.003Z</time>
</trkpt>
<trkpt lat="59.0968930" lon="30.0320760">
<ele>68.884804</ele>
<time>2026-04-25T11:13:10.998Z</time>
</trkpt>
<trkpt lat="59.0968160" lon="30.0316320">
<ele>69.829681</ele>
<time>2026-04-25T11:13:52.003Z</time>
</trkpt>
<trkpt lat="59.0967420" lon="30.0317940">
<ele>68.397118</ele>
<time>2026-04-25T11:14:04.998Z</time>
</trkpt>
<trkpt lat="59.0966280" lon="30.0319570">
<ele>71.749916</ele>
<time>2026-04-25T11:14:19.003Z</time>
</trkpt>
<trkpt lat="59.0965670" lon="30.0319690">
<ele>77.510643</ele>
<time>2026-04-25T11:15:01.996Z</time>
</trkpt>
<trkpt lat="59.0965560" lon="30.0321020">
<ele>82.814163</ele>
<time>2026-04-25T11:15:33.998Z</time>
</trkpt>
<trkpt lat="59.0965970" lon="30.0319970">
<ele>81.381599</ele>
<time>2026-04-25T11:15:52.998Z</time>
</trkpt>
<trkpt lat="59.0965090" lon="30.0320870">
<ele>80.893921</ele>
<time>2026-04-25T11:16:22.002Z</time>
</trkpt>
<trkpt lat="59.0965120" lon="30.0319990">
<ele>79.918564</ele>
<time>2026-04-25T11:17:17.998Z</time>
</trkpt>
<trkpt lat="59.0965150" lon="30.0320790">
<ele>85.679283</ele>
<time>2026-04-25T11:18:06.002Z</time>
</trkpt>
<trkpt lat="59.0965730" lon="30.0320430">
<ele>85.222084</ele>
<time>2026-04-25T11:19:16.003Z</time>
</trkpt>
<trkpt lat="59.0965680" lon="30.0319670">
<ele>83.759033</ele>
<time>2026-04-25T11:19:42.001Z</time>
</trkpt>
<trkpt lat="59.0965830" lon="30.0320620">
<ele>84.734398</ele>
<time>2026-04-25T11:20:07.999Z</time>
</trkpt>
<trkpt lat="59.0965600" lon="30.0319890">
<ele>81.838799</ele>
<time>2026-04-25T11:20:30.998Z</time>
</trkpt>
<trkpt lat="59.0965600" lon="30.0320780">
<ele>84.734398</ele>
<time>2026-04-25T11:21:11.002Z</time>
</trkpt>
<trkpt lat="59.0966190" lon="30.0321090">
<ele>82.326485</ele>
<time>2026-04-25T11:22:01.001Z</time>
</trkpt>
<trkpt lat="59.0964670" lon="30.0322430">
<ele>78.973679</ele>
<time>2026-04-25T11:22:55.001Z</time>
</trkpt>
<trkpt lat="59.0965490" lon="30.0326260">
<ele>75.133202</ele>
<time>2026-04-25T11:24:41.999Z</time>
</trkpt>
<trkpt lat="59.0965980" lon="30.0326010">
<ele>81.381599</ele>
<time>2026-04-25T11:25:17.000Z</time>
</trkpt>
<trkpt lat="59.0966370" lon="30.0331130">
<ele>78.486000</ele>
<time>2026-04-25T11:26:01.997Z</time>
</trkpt>
<trkpt lat="59.0967190" lon="30.0334280">
<ele>75.133202</ele>
<time>2026-04-25T11:26:36.004Z</time>
</trkpt>
<trkpt lat="59.0967960" lon="30.0344090">
<ele>79.918564</ele>
<time>2026-04-25T11:28:24.004Z</time>
</trkpt>
<trkpt lat="59.0967170" lon="30.0344290">
<ele>79.918564</ele>
<time>2026-04-25T11:28:48.999Z</time>
</trkpt>
<trkpt lat="59.0968200" lon="30.0345330">
<ele>79.461365</ele>
<time>2026-04-25T11:29:25.996Z</time>
</trkpt>
<trkpt lat="59.0967780" lon="30.0343900">
<ele>77.053444</ele>
<time>2026-04-25T11:29:41.004Z</time>
</trkpt>
<trkpt lat="59.0966900" lon="30.0342940">
<ele>77.510643</ele>
<time>2026-04-25T11:30:23.996Z</time>
</trkpt>
<trkpt lat="59.0966910" lon="30.0339630">
<ele>74.645515</ele>
<time>2026-04-25T11:30:55.999Z</time>
</trkpt>
<trkpt lat="59.0966200" lon="30.0335820">
<ele>76.078079</ele>
<time>2026-04-25T11:31:28.001Z</time>
</trkpt>
<trkpt lat="59.0965470" lon="30.0333360">
<ele>75.133202</ele>
<time>2026-04-25T11:32:04.004Z</time>
</trkpt>
<trkpt lat="59.0964630" lon="30.0331980">
<ele>73.212959</ele>
<time>2026-04-25T11:32:19.003Z</time>
</trkpt>
<trkpt lat="59.0964530" lon="30.0328680">
<ele>71.262238</ele>
<time>2026-04-25T11:32:47.999Z</time>
</trkpt>
<trkpt lat="59.0963170" lon="30.0321800">
<ele>70.317360</ele>
<time>2026-04-25T11:33:36.996Z</time>
</trkpt>
<trkpt lat="59.0961970" lon="30.0323170">
<ele>74.157845</ele>
<time>2026-04-25T11:34:08.999Z</time>
</trkpt>
<trkpt lat="59.0958920" lon="30.0324910">
<ele>74.157845</ele>
<time>2026-04-25T11:34:50.998Z</time>
</trkpt>
<trkpt lat="59.0959390" lon="30.0329200">
<ele>70.805038</ele>
<time>2026-04-25T11:35:20.003Z</time>
</trkpt>
<trkpt lat="59.0961100" lon="30.0335720">
<ele>72.237602</ele>
<time>2026-04-25T11:36:05.000Z</time>
</trkpt>
<trkpt lat="59.0961310" lon="30.0338760">
<ele>77.510643</ele>
<time>2026-04-25T11:36:32.000Z</time>
</trkpt>
<trkpt lat="59.0960970" lon="30.0341990">
<ele>78.973679</ele>
<time>2026-04-25T11:37:07.000Z</time>
</trkpt>
<trkpt lat="59.0961670" lon="30.0342440">
<ele>84.734398</ele>
<time>2026-04-25T11:38:05.001Z</time>
</trkpt>
<trkpt lat="59.0961800" lon="30.0341780">
<ele>89.550240</ele>
<time>2026-04-25T11:38:26.998Z</time>
</trkpt>
<trkpt lat="59.0961970" lon="30.0345990">
<ele>82.326485</ele>
<time>2026-04-25T11:39:04.003Z</time>
</trkpt>
<trkpt lat="59.0961650" lon="30.0347080">
<ele>77.998322</ele>
<time>2026-04-25T11:39:23.996Z</time>
</trkpt>
<trkpt lat="59.0961120" lon="30.0347140">
<ele>77.998322</ele>
<time>2026-04-25T11:39:46.002Z</time>
</trkpt>
<trkpt lat="59.0960950" lon="30.0348050">
<ele>77.998322</ele>
<time>2026-04-25T11:40:08.000Z</time>
</trkpt>
<trkpt lat="59.0961350" lon="30.0345600">
<ele>75.590401</ele>
<time>2026-04-25T11:41:02.000Z</time>
</trkpt>
<trkpt lat="59.0959760" lon="30.0339730">
<ele>74.645515</ele>
<time>2026-04-25T11:41:50.004Z</time>
</trkpt>
<trkpt lat="59.0959250" lon="30.0336490">
<ele>76.078079</ele>
<time>2026-04-25T11:42:21.004Z</time>
</trkpt>
<trkpt lat="59.0958610" lon="30.0335720">
<ele>75.133202</ele>
<time>2026-04-25T11:42:32.996Z</time>
</trkpt>
<trkpt lat="59.0958550" lon="30.0334090">
<ele>74.157845</ele>
<time>2026-04-25T11:42:48.997Z</time>
</trkpt>
<trkpt lat="59.0957100" lon="30.0330160">
<ele>69.829681</ele>
<time>2026-04-25T11:43:38.997Z</time>
</trkpt>
<trkpt lat="59.0957020" lon="30.0327760">
<ele>69.829681</ele>
<time>2026-04-25T11:43:56.001Z</time>
</trkpt>
<trkpt lat="59.0956680" lon="30.0327420">
<ele>71.262238</ele>
<time>2026-04-25T11:44:15.000Z</time>
</trkpt>
<trkpt lat="59.0957100" lon="30.0324040">
<ele>72.237602</ele>
<time>2026-04-25T11:44:43.996Z</time>
</trkpt>
<trkpt lat="59.0956550" lon="30.0323840">
<ele>69.829681</ele>
<time>2026-04-25T11:44:56.999Z</time>
</trkpt>
<trkpt lat="59.0954430" lon="30.0325300">
<ele>68.397118</ele>
<time>2026-04-25T11:45:26.997Z</time>
</trkpt>
<trkpt lat="59.0952740" lon="30.0325010">
<ele>67.909439</ele>
<time>2026-04-25T11:45:57.997Z</time>
</trkpt>
<trkpt lat="59.0952460" lon="30.0325680">
<ele>66.964561</ele>
<time>2026-04-25T11:46:11.001Z</time>
</trkpt>
<trkpt lat="59.0951920" lon="30.0325550">
<ele>67.909439</ele>
<time>2026-04-25T11:46:24.997Z</time>
</trkpt>
<trkpt lat="59.0951890" lon="30.0326070">
<ele>72.237602</ele>
<time>2026-04-25T11:46:39.003Z</time>
</trkpt>
<trkpt lat="59.0952040" lon="30.0325630">
<ele>76.078079</ele>
<time>2026-04-25T11:46:55.004Z</time>
</trkpt>
<trkpt lat="59.0951500" lon="30.0323430">
<ele>74.645515</ele>
<time>2026-04-25T11:47:40.001Z</time>
</trkpt>
<trkpt lat="59.0952470" lon="30.0325760">
<ele>72.237602</ele>
<time>2026-04-25T11:48:39.997Z</time>
</trkpt>
<trkpt lat="59.0952590" lon="30.0324990">
<ele>76.078079</ele>
<time>2026-04-25T11:49:01.001Z</time>
</trkpt>
<trkpt lat="59.0952270" lon="30.0327750">
<ele>77.998322</ele>
<time>2026-04-25T11:49:41.998Z</time>
</trkpt>
<trkpt lat="59.0952360" lon="30.0331960">
<ele>75.133202</ele>
<time>2026-04-25T11:50:15.003Z</time>
</trkpt>
<trkpt lat="59.0953150" lon="30.0336590">
<ele>73.670158</ele>
<time>2026-04-25T11:50:49.001Z</time>
</trkpt>
<trkpt lat="59.0953110" lon="30.0338110">
<ele>72.237602</ele>
<time>2026-04-25T11:51:01.996Z</time>
</trkpt>
<trkpt lat="59.0953770" lon="30.0343660">
<ele>75.133202</ele>
<time>2026-04-25T11:52:00.998Z</time>
</trkpt>
<trkpt lat="59.0954240" lon="30.0343200">
<ele>80.406235</ele>
<time>2026-04-25T11:52:42.004Z</time>
</trkpt>
<trkpt lat="59.0953640" lon="30.0344480">
<ele>80.893921</ele>
<time>2026-04-25T11:52:56.001Z</time>
</trkpt>
<trkpt lat="59.0953120" lon="30.0344170">
<ele>80.893921</ele>
<time>2026-04-25T11:53:13.004Z</time>
</trkpt>
<trkpt lat="59.0953990" lon="30.0343200">
<ele>78.973679</ele>
<time>2026-04-25T11:53:46.000Z</time>
</trkpt>
<trkpt lat="59.0953830" lon="30.0344190">
<ele>78.486000</ele>
<time>2026-04-25T11:54:02.002Z</time>
</trkpt>
<trkpt lat="59.0954090" lon="30.0344940">
<ele>85.679283</ele>
<time>2026-04-25T11:54:23.999Z</time>
</trkpt>
<trkpt lat="59.0954650" lon="30.0344090">
<ele>82.814163</ele>
<time>2026-04-25T11:55:57.000Z</time>
</trkpt>
<trkpt lat="59.0953570" lon="30.0345280">
<ele>82.326485</ele>
<time>2026-04-25T11:56:56.996Z</time>
</trkpt>
<trkpt lat="59.0953740" lon="30.0344580">
<ele>78.486000</ele>
<time>2026-04-25T11:57:15.002Z</time>
</trkpt>
<trkpt lat="59.0953230" lon="30.0344780">
<ele>79.461365</ele>
<time>2026-04-25T11:57:49.000Z</time>
</trkpt>
<trkpt lat="59.0952830" lon="30.0343770">
<ele>80.893921</ele>
<time>2026-04-25T11:58:05.002Z</time>
</trkpt>
<trkpt lat="59.0953270" lon="30.0343880">
<ele>81.381599</ele>
<time>2026-04-25T11:58:21.996Z</time>
</trkpt>
<trkpt lat="59.0953730" lon="30.0346890">
<ele>77.998322</ele>
<time>2026-04-25T11:59:07.996Z</time>
</trkpt>
<trkpt lat="59.0954560" lon="30.0344460">
<ele>73.212959</ele>
<time>2026-04-25T11:59:38.003Z</time>
</trkpt>
<trkpt lat="59.0954490" lon="30.0342880">
<ele>76.078079</ele>
<time>2026-04-25T12:00:32.996Z</time>
</trkpt>
<trkpt lat="59.0954700" lon="30.0343220">
<ele>80.406235</ele>
<time>2026-04-25T12:00:59.003Z</time>
</trkpt>
<trkpt lat="59.0954960" lon="30.0342510">
<ele>82.814163</ele>
<time>2026-04-25T12:01:18.002Z</time>
</trkpt>
<trkpt lat="59.0954520" lon="30.0344100">
<ele>80.893921</ele>
<time>2026-04-25T12:01:49.996Z</time>
</trkpt>
<trkpt lat="59.0954260" lon="30.0344000">
<ele>78.973679</ele>
<time>2026-04-25T12:02:05.004Z</time>
</trkpt>
<trkpt lat="59.0954120" lon="30.0345510">
<ele>82.326485</ele>
<time>2026-04-25T12:02:20.996Z</time>
</trkpt>
<trkpt lat="59.0953640" lon="30.0345780">
<ele>80.406235</ele>
<time>2026-04-25T12:02:36.004Z</time>
</trkpt>
<trkpt lat="59.0953340" lon="30.0345750">
<ele>79.918564</ele>
<time>2026-04-25T12:02:48.998Z</time>
</trkpt>
<trkpt lat="59.0953350" lon="30.0344620">
<ele>78.486000</ele>
<time>2026-04-25T12:03:07.998Z</time>
</trkpt>
<trkpt lat="59.0952840" lon="30.0343510">
<ele>77.053444</ele>
<time>2026-04-25T12:03:22.997Z</time>
</trkpt>
<trkpt lat="59.0952750" lon="30.0346070">
<ele>75.590401</ele>
<time>2026-04-25T12:04:04.002Z</time>
</trkpt>
<trkpt lat="59.0953160" lon="30.0346830">
<ele>72.237602</ele>
<time>2026-04-25T12:04:20.997Z</time>
</trkpt>
<trkpt lat="59.0955230" lon="30.0343970">
<ele>65.501518</ele>
<time>2026-04-25T12:05:09.001Z</time>
</trkpt>
<trkpt lat="59.0956170" lon="30.0345020">
<ele>70.805038</ele>
<time>2026-04-25T12:05:30.998Z</time>
</trkpt>
<trkpt lat="59.0956800" lon="30.0343740">
<ele>69.829681</ele>
<time>2026-04-25T12:06:00.996Z</time>
</trkpt>
<trkpt lat="59.0956910" lon="30.0342290">
<ele>68.884804</ele>
<time>2026-04-25T12:06:15.002Z</time>
</trkpt>
<trkpt lat="59.0956650" lon="30.0341860">
<ele>68.884804</ele>
<time>2026-04-25T12:06:27.003Z</time>
</trkpt>
<trkpt lat="59.0956200" lon="30.0342670">
<ele>68.397118</ele>
<time>2026-04-25T12:06:43.004Z</time>
</trkpt>
<trkpt lat="59.0954280" lon="30.0343620">
<ele>68.884804</ele>
<time>2026-04-25T12:07:20.001Z</time>
</trkpt>
<trkpt lat="59.0954200" lon="30.0345940">
<ele>70.805038</ele>
<time>2026-04-25T12:07:52.003Z</time>
</trkpt>
<trkpt lat="59.0955040" lon="30.0349760">
<ele>69.829681</ele>
<time>2026-04-25T12:08:31.004Z</time>
</trkpt>
<trkpt lat="59.0954810" lon="30.0350240">
<ele>74.645515</ele>
<time>2026-04-25T12:08:50.997Z</time>
</trkpt>
<trkpt lat="59.0954000" lon="30.0349720">
<ele>77.510643</ele>
<time>2026-04-25T12:09:16.001Z</time>
</trkpt>
<trkpt lat="59.0954250" lon="30.0346400">
<ele>76.078079</ele>
<time>2026-04-25T12:10:11.004Z</time>
</trkpt>
<trkpt lat="59.0954140" lon="30.0348230">
<ele>74.157845</ele>
<time>2026-04-25T12:10:50.998Z</time>
</trkpt>
<trkpt lat="59.0953610" lon="30.0347270">
<ele>75.590401</ele>
<time>2026-04-25T12:11:40.998Z</time>
</trkpt>
<trkpt lat="59.0953860" lon="30.0345880">
<ele>75.590401</ele>
<time>2026-04-25T12:12:02.002Z</time>
</trkpt>
<trkpt lat="59.0953420" lon="30.0345280">
<ele>76.078079</ele>
<time>2026-04-25T12:12:18.996Z</time>
</trkpt>
<trkpt lat="59.0953580" lon="30.0343800">
<ele>76.078079</ele>
<time>2026-04-25T12:12:40.000Z</time>
</trkpt>
<trkpt lat="59.0952770" lon="30.0339830">
<ele>68.397118</ele>
<time>2026-04-25T12:13:35.003Z</time>
</trkpt>
<trkpt lat="59.0952920" lon="30.0336200">
<ele>66.476883</ele>
<time>2026-04-25T12:14:05.001Z</time>
</trkpt>
<trkpt lat="59.0952490" lon="30.0334900">
<ele>66.476883</ele>
<time>2026-04-25T12:14:20.000Z</time>
</trkpt>
<trkpt lat="59.0951350" lon="30.0333300">
<ele>72.237602</ele>
<time>2026-04-25T12:15:00.003Z</time>
</trkpt>
<trkpt lat="59.0950610" lon="30.0328730">
<ele>69.342003</ele>
<time>2026-04-25T12:15:43.004Z</time>
</trkpt>
<trkpt lat="59.0950960" lon="30.0327260">
<ele>71.749916</ele>
<time>2026-04-25T12:15:55.999Z</time>
</trkpt>
<trkpt lat="59.0950800" lon="30.0325900">
<ele>70.805038</ele>
<time>2026-04-25T12:16:10.998Z</time>
</trkpt>
<trkpt lat="59.0950280" lon="30.0325440">
<ele>66.476883</ele>
<time>2026-04-25T12:16:26.999Z</time>
</trkpt>
<trkpt lat="59.0947900" lon="30.0326210">
<ele>64.556641</ele>
<time>2026-04-25T12:16:52.003Z</time>
</trkpt>
<trkpt lat="59.0946640" lon="30.0324780">
<ele>63.581284</ele>
<time>2026-04-25T12:17:11.003Z</time>
</trkpt>
<trkpt lat="59.0946180" lon="30.0325330">
<ele>69.342003</ele>
<time>2026-04-25T12:17:34.002Z</time>
</trkpt>
<trkpt lat="59.0946150" lon="30.0326490">
<ele>69.342003</ele>
<time>2026-04-25T12:17:47.999Z</time>
</trkpt>
<trkpt lat="59.0947200" lon="30.0330960">
<ele>68.397118</ele>
<time>2026-04-25T12:18:36.996Z</time>
</trkpt>
<trkpt lat="59.0947200" lon="30.0334920">
<ele>61.173359</ele>
<time>2026-04-25T12:19:06.001Z</time>
</trkpt>
<trkpt lat="59.0947350" lon="30.0336540">
<ele>60.685680</ele>
<time>2026-04-25T12:19:19.004Z</time>
</trkpt>
<trkpt lat="59.0948050" lon="30.0338540">
<ele>63.093601</ele>
<time>2026-04-25T12:19:34.003Z</time>
</trkpt>
<trkpt lat="59.0948340" lon="30.0340940">
<ele>67.421761</ele>
<time>2026-04-25T12:19:52.000Z</time>
</trkpt>
<trkpt lat="59.0948110" lon="30.0342320">
<ele>69.342003</ele>
<time>2026-04-25T12:20:06.999Z</time>
</trkpt>
<trkpt lat="59.0949270" lon="30.0347860">
<ele>75.590401</ele>
<time>2026-04-25T12:21:41.003Z</time>
</trkpt>
<trkpt lat="59.0949330" lon="30.0349470">
<ele>77.053444</ele>
<time>2026-04-25T12:22:16.003Z</time>
</trkpt>
<trkpt lat="59.0948760" lon="30.0349540">
<ele>80.893921</ele>
<time>2026-04-25T12:22:39.996Z</time>
</trkpt>
<trkpt lat="59.0948920" lon="30.0348980">
<ele>79.918564</ele>
<time>2026-04-25T12:23:01.000Z</time>
</trkpt>
<trkpt lat="59.0948890" lon="30.0350330">
<ele>83.301834</ele>
<time>2026-04-25T12:23:40.001Z</time>
</trkpt>
<trkpt lat="59.0948570" lon="30.0350290">
<ele>80.406235</ele>
<time>2026-04-25T12:24:34.001Z</time>
</trkpt>
<trkpt lat="59.0948800" lon="30.0349620">
<ele>79.461365</ele>
<time>2026-04-25T12:25:17.996Z</time>
</trkpt>
<trkpt lat="59.0948050" lon="30.0349690">
<ele>73.212959</ele>
<time>2026-04-25T12:25:51.001Z</time>
</trkpt>
<trkpt lat="59.0948170" lon="30.0348290">
<ele>74.157845</ele>
<time>2026-04-25T12:26:46.997Z</time>
</trkpt>
<trkpt lat="59.0947970" lon="30.0349200">
<ele>76.078079</ele>
<time>2026-04-25T12:27:06.998Z</time>
</trkpt>
<trkpt lat="59.0948480" lon="30.0349890">
<ele>77.510643</ele>
<time>2026-04-25T12:27:28.002Z</time>
</trkpt>
<trkpt lat="59.0948560" lon="30.0349530">
<ele>77.053444</ele>
<time>2026-04-25T12:27:44.997Z</time>
</trkpt>
<trkpt lat="59.0947980" lon="30.0349110">
<ele>76.078079</ele>
<time>2026-04-25T12:28:11.004Z</time>
</trkpt>
<trkpt lat="59.0947910" lon="30.0349680">
<ele>76.565758</ele>
<time>2026-04-25T12:28:33.001Z</time>
</trkpt>
<trkpt lat="59.0947370" lon="30.0349400">
<ele>74.157845</ele>
<time>2026-04-25T12:28:54.998Z</time>
</trkpt>
<trkpt lat="59.0948270" lon="30.0350100">
<ele>71.749916</ele>
<time>2026-04-25T12:29:36.997Z</time>
</trkpt>
<trkpt lat="59.0949380" lon="30.0348760">
<ele>72.725281</ele>
<time>2026-04-25T12:30:26.004Z</time>
</trkpt>
<trkpt lat="59.0948600" lon="30.0348640">
<ele>74.157845</ele>
<time>2026-04-25T12:30:45.003Z</time>
</trkpt>
<trkpt lat="59.0948120" lon="30.0350710">
<ele>70.317360</ele>
<time>2026-04-25T12:31:16.997Z</time>
</trkpt>
<trkpt lat="59.0947560" lon="30.0351210">
<ele>66.964561</ele>
<time>2026-04-25T12:32:06.003Z</time>
</trkpt>
<trkpt lat="59.0947740" lon="30.0349970">
<ele>64.068962</ele>
<time>2026-04-25T12:32:18.997Z</time>
</trkpt>
<trkpt lat="59.0948600" lon="30.0349720">
<ele>67.909439</ele>
<time>2026-04-25T12:33:04.997Z</time>
</trkpt>
<trkpt lat="59.0947220" lon="30.0349930">
<ele>64.556641</ele>
<time>2026-04-25T12:33:19.996Z</time>
</trkpt>
<trkpt lat="59.0947160" lon="30.0350700">
<ele>65.501518</ele>
<time>2026-04-25T12:33:35.004Z</time>
</trkpt>
<trkpt lat="59.0946970" lon="30.0350160">
<ele>65.989197</ele>
<time>2026-04-25T12:33:50.996Z</time>
</trkpt>
<trkpt lat="59.0946230" lon="30.0350560">
<ele>64.556641</ele>
<time>2026-04-25T12:34:05.002Z</time>
</trkpt>
<trkpt lat="59.0945550" lon="30.0349290">
<ele>66.476883</ele>
<time>2026-04-25T12:34:51.001Z</time>
</trkpt>
<trkpt lat="59.0947820" lon="30.0348850">
<ele>66.964561</ele>
<time>2026-04-25T12:35:58.998Z</time>
</trkpt>
<trkpt lat="59.0949120" lon="30.0349540">
<ele>70.805038</ele>
<time>2026-04-25T12:36:52.004Z</time>
</trkpt>
<trkpt lat="59.0950300" lon="30.0352550">
<ele>77.510643</ele>
<time>2026-04-25T12:37:44.000Z</time>
</trkpt>
<trkpt lat="59.0950000" lon="30.0352180">
<ele>76.078079</ele>
<time>2026-04-25T12:38:02.999Z</time>
</trkpt>
<trkpt lat="59.0948830" lon="30.0353270">
<ele>82.326485</ele>
<time>2026-04-25T12:39:19.999Z</time>
</trkpt>
<trkpt lat="59.0949170" lon="30.0352130">
<ele>81.838799</ele>
<time>2026-04-25T12:39:38.998Z</time>
</trkpt>
<trkpt lat="59.0949070" lon="30.0350270">
<ele>78.973679</ele>
<time>2026-04-25T12:39:53.997Z</time>
</trkpt>
<trkpt lat="59.0948690" lon="30.0348710">
<ele>76.565758</ele>
<time>2026-04-25T12:40:08.996Z</time>
</trkpt>
<trkpt lat="59.0948130" lon="30.0349220">
<ele>77.510643</ele>
<time>2026-04-25T12:40:24.997Z</time>
</trkpt>
<trkpt lat="59.0947660" lon="30.0348780">
<ele>81.838799</ele>
<time>2026-04-25T12:41:03.998Z</time>
</trkpt>
<trkpt lat="59.0947400" lon="30.0347190">
<ele>78.486000</ele>
<time>2026-04-25T12:41:15.999Z</time>
</trkpt>
<trkpt lat="59.0946880" lon="30.0346290">
<ele>77.998322</ele>
<time>2026-04-25T12:41:29.996Z</time>
</trkpt>
<trkpt lat="59.0946640" lon="30.0341050">
<ele>79.461365</ele>
<time>2026-04-25T12:42:12.004Z</time>
</trkpt>
<trkpt lat="59.0946990" lon="30.0338730">
<ele>76.078079</ele>
<time>2026-04-25T12:42:41.000Z</time>
</trkpt>
<trkpt lat="59.0946200" lon="30.0336470">
<ele>74.645515</ele>
<time>2026-04-25T12:43:12.000Z</time>
</trkpt>
<trkpt lat="59.0945950" lon="30.0333530">
<ele>71.749916</ele>
<time>2026-04-25T12:43:43.000Z</time>
</trkpt>
<trkpt lat="59.0945210" lon="30.0331440">
<ele>69.342003</ele>
<time>2026-04-25T12:44:11.996Z</time>
</trkpt>
<trkpt lat="59.0944870" lon="30.0327150">
<ele>70.805038</ele>
<time>2026-04-25T12:44:54.004Z</time>
</trkpt>
<trkpt lat="59.0944340" lon="30.0325330">
<ele>68.884804</ele>
<time>2026-04-25T12:45:09.003Z</time>
</trkpt>
<trkpt lat="59.0944420" lon="30.0323370">
<ele>69.342003</ele>
<time>2026-04-25T12:45:21.997Z</time>
</trkpt>
<trkpt lat="59.0943020" lon="30.0323430">
<ele>69.342003</ele>
<time>2026-04-25T12:45:37.999Z</time>
</trkpt>
<trkpt lat="59.0939910" lon="30.0325290">
<ele>67.909439</ele>
<time>2026-04-25T12:46:52.000Z</time>
</trkpt>
<trkpt lat="59.0940280" lon="30.0324690">
<ele>66.476883</ele>
<time>2026-04-25T12:47:09.997Z</time>
</trkpt>
<trkpt lat="59.0940970" lon="30.0324300">
<ele>77.998322</ele>
<time>2026-04-25T12:48:00.999Z</time>
</trkpt>
<trkpt lat="59.0940250" lon="30.0325250">
<ele>82.326485</ele>
<time>2026-04-25T12:48:29.002Z</time>
</trkpt>
<trkpt lat="59.0940520" lon="30.0326100">
<ele>85.679283</ele>
<time>2026-04-25T12:48:52.001Z</time>
</trkpt>
<trkpt lat="59.0940320" lon="30.0325570">
<ele>88.574883</ele>
<time>2026-04-25T12:49:19.001Z</time>
</trkpt>
<trkpt lat="59.0940810" lon="30.0325300">
<ele>82.326485</ele>
<time>2026-04-25T12:49:53.000Z</time>
</trkpt>
<trkpt lat="59.0940780" lon="30.0324430">
<ele>84.734398</ele>
<time>2026-04-25T12:50:10.997Z</time>
</trkpt>
<trkpt lat="59.0940950" lon="30.0324650">
<ele>85.222084</ele>
<time>2026-04-25T12:50:32.001Z</time>
</trkpt>
<trkpt lat="59.0940570" lon="30.0324140">
<ele>84.734398</ele>
<time>2026-04-25T12:50:52.996Z</time>
</trkpt>
<trkpt lat="59.0941200" lon="30.0331350">
<ele>73.670158</ele>
<time>2026-04-25T12:51:58.003Z</time>
</trkpt>
<trkpt lat="59.0942620" lon="30.0335640">
<ele>69.829681</ele>
<time>2026-04-25T12:52:47.001Z</time>
</trkpt>
<trkpt lat="59.0942430" lon="30.0338330">
<ele>68.397118</ele>
<time>2026-04-25T12:53:15.996Z</time>
</trkpt>
<trkpt lat="59.0943340" lon="30.0343990">
<ele>65.989197</ele>
<time>2026-04-25T12:54:13.003Z</time>
</trkpt>
<trkpt lat="59.0944530" lon="30.0347260">
<ele>70.317360</ele>
<time>2026-04-25T12:55:15.004Z</time>
</trkpt>
<trkpt lat="59.0944410" lon="30.0348130">
<ele>70.805038</ele>
<time>2026-04-25T12:55:30.996Z</time>
</trkpt>
<trkpt lat="59.0945300" lon="30.0347300">
<ele>66.964561</ele>
<time>2026-04-25T12:55:57.996Z</time>
</trkpt>
<trkpt lat="59.0945610" lon="30.0348780">
<ele>67.421761</ele>
<time>2026-04-25T12:56:09.997Z</time>
</trkpt>
<trkpt lat="59.0945600" lon="30.0350200">
<ele>70.805038</ele>
<time>2026-04-25T12:56:27.001Z</time>
</trkpt>
<trkpt lat="59.0944540" lon="30.0353360">
<ele>70.805038</ele>
<time>2026-04-25T12:56:59.004Z</time>
</trkpt>
<trkpt lat="59.0944570" lon="30.0355100">
<ele>68.884804</ele>
<time>2026-04-25T12:57:32.000Z</time>
</trkpt>
<trkpt lat="59.0943710" lon="30.0352810">
<ele>62.605919</ele>
<time>2026-04-25T12:58:28.004Z</time>
</trkpt>
<trkpt lat="59.0943590" lon="30.0353530">
<ele>65.044319</ele>
<time>2026-04-25T12:59:14.997Z</time>
</trkpt>
<trkpt lat="59.0943660" lon="30.0350470">
<ele>64.556641</ele>
<time>2026-04-25T13:00:05.999Z</time>
</trkpt>
<trkpt lat="59.0943230" lon="30.0349860">
<ele>73.212959</ele>
<time>2026-04-25T13:00:41.000Z</time>
</trkpt>
<trkpt lat="59.0942760" lon="30.0347280">
<ele>67.909439</ele>
<time>2026-04-25T13:01:36.002Z</time>
</trkpt>
<trkpt lat="59.0942380" lon="30.0347600">
<ele>70.317360</ele>
<time>2026-04-25T13:01:55.001Z</time>
</trkpt>
<trkpt lat="59.0942030" lon="30.0344060">
<ele>69.342003</ele>
<time>2026-04-25T13:03:28.996Z</time>
</trkpt>
<trkpt lat="59.0940910" lon="30.0340560">
<ele>72.725281</ele>
<time>2026-04-25T13:04:08.999Z</time>
</trkpt>
<trkpt lat="59.0940600" lon="30.0334960">
<ele>72.725281</ele>
<time>2026-04-25T13:04:53.003Z</time>
</trkpt>
<trkpt lat="59.0940160" lon="30.0332890">
<ele>70.805038</ele>
<time>2026-04-25T13:05:19.000Z</time>
</trkpt>
<trkpt lat="59.0940000" lon="30.0328330">
<ele>66.964561</ele>
<time>2026-04-25T13:05:59.004Z</time>
</trkpt>
<trkpt lat="59.0939070" lon="30.0326030">
<ele>63.581284</ele>
<time>2026-04-25T13:06:23.999Z</time>
</trkpt>
<trkpt lat="59.0938220" lon="30.0325620">
<ele>64.556641</ele>
<time>2026-04-25T13:06:37.002Z</time>
</trkpt>
<trkpt lat="59.0936560" lon="30.0326460">
<ele>59.253117</ele>
<time>2026-04-25T13:07:04.002Z</time>
</trkpt>
<trkpt lat="59.0935940" lon="30.0327380">
<ele>63.093601</ele>
<time>2026-04-25T13:07:35.996Z</time>
</trkpt>
<trkpt lat="59.0935980" lon="30.0325290">
<ele>71.749916</ele>
<time>2026-04-25T13:10:52.997Z</time>
</trkpt>
<trkpt lat="59.0935280" lon="30.0326280">
<ele>84.246719</ele>
<time>2026-04-25T13:11:50.004Z</time>
</trkpt>
<trkpt lat="59.0935650" lon="30.0327240">
<ele>93.878403</ele>
<time>2026-04-25T13:12:27.000Z</time>
</trkpt>
<trkpt lat="59.0936190" lon="30.0327130">
<ele>91.927681</ele>
<time>2026-04-25T13:13:17.000Z</time>
</trkpt>
<trkpt lat="59.0935570" lon="30.0325950">
<ele>86.654633</ele>
<time>2026-04-25T13:17:30.998Z</time>
</trkpt>
<trkpt lat="59.0935390" lon="30.0326420">
<ele>88.087196</ele>
<time>2026-04-25T13:18:35.004Z</time>
</trkpt>
<trkpt lat="59.0935710" lon="30.0327290">
<ele>85.679283</ele>
<time>2026-04-25T13:19:06.997Z</time>
</trkpt>
<trkpt lat="59.0935250" lon="30.0326280">
<ele>84.246719</ele>
<time>2026-04-25T13:19:37.004Z</time>
</trkpt>
<trkpt lat="59.0935880" lon="30.0327880">
<ele>77.510643</ele>
<time>2026-04-25T13:20:27.004Z</time>
</trkpt>
<trkpt lat="59.0935520" lon="30.0327100">
<ele>79.461365</ele>
<time>2026-04-25T13:20:42.996Z</time>
</trkpt>
<trkpt lat="59.0934140" lon="30.0326510">
<ele>77.510643</ele>
<time>2026-04-25T13:21:29.998Z</time>
</trkpt>
<trkpt lat="59.0934120" lon="30.0330520">
<ele>71.262238</ele>
<time>2026-04-25T13:22:35.999Z</time>
</trkpt>
<trkpt lat="59.0934680" lon="30.0332800">
<ele>72.237602</ele>
<time>2026-04-25T13:22:52.000Z</time>
</trkpt>
<trkpt lat="59.0935580" lon="30.0333670">
<ele>71.749916</ele>
<time>2026-04-25T13:23:09.004Z</time>
</trkpt>
<trkpt lat="59.0935650" lon="30.0337370">
<ele>68.397118</ele>
<time>2026-04-25T13:23:38.000Z</time>
</trkpt>
<trkpt lat="59.0936660" lon="30.0339960">
<ele>69.342003</ele>
<time>2026-04-25T13:24:07.998Z</time>
</trkpt>
<trkpt lat="59.0936450" lon="30.0342530">
<ele>69.342003</ele>
<time>2026-04-25T13:24:37.996Z</time>
</trkpt>
<trkpt lat="59.0936790" lon="30.0344390">
<ele>69.342003</ele>
<time>2026-04-25T13:24:52.001Z</time>
</trkpt>
<trkpt lat="59.0937540" lon="30.0345600">
<ele>68.397118</ele>
<time>2026-04-25T13:25:08.996Z</time>
</trkpt>
<trkpt lat="59.0937570" lon="30.0346620">
<ele>68.397118</ele>
<time>2026-04-25T13:25:27.002Z</time>
</trkpt>
<trkpt lat="59.0938230" lon="30.0347740">
<ele>65.044319</ele>
<time>2026-04-25T13:25:43.003Z</time>
</trkpt>
<trkpt lat="59.0938050" lon="30.0352340">
<ele>68.397118</ele>
<time>2026-04-25T13:26:24.000Z</time>
</trkpt>
<trkpt lat="59.0938580" lon="30.0352850">
<ele>64.556641</ele>
<time>2026-04-25T13:26:38.999Z</time>
</trkpt>
<trkpt lat="59.0938900" lon="30.0355330">
<ele>68.397118</ele>
<time>2026-04-25T13:27:28.999Z</time>
</trkpt>
<trkpt lat="59.0939640" lon="30.0356920">
<ele>70.805038</ele>
<time>2026-04-25T13:28:44.996Z</time>
</trkpt>
<trkpt lat="59.0939640" lon="30.0356310">
<ele>71.262238</ele>
<time>2026-04-25T13:29:23.004Z</time>
</trkpt>
<trkpt lat="59.0939160" lon="30.0355990">
<ele>71.749916</ele>
<time>2026-04-25T13:29:50.997Z</time>
</trkpt>
<trkpt lat="59.0939420" lon="30.0356950">
<ele>72.237602</ele>
<time>2026-04-25T13:31:00.998Z</time>
</trkpt>
<trkpt lat="59.0939040" lon="30.0356510">
<ele>71.262238</ele>
<time>2026-04-25T13:31:34.003Z</time>
</trkpt>
<trkpt lat="59.0940100" lon="30.0356770">
<ele>72.237602</ele>
<time>2026-04-25T13:32:23.001Z</time>
</trkpt>
<trkpt lat="59.0939300" lon="30.0356510">
<ele>76.565758</ele>
<time>2026-04-25T13:32:56.999Z</time>
</trkpt>
<trkpt lat="59.0939400" lon="30.0356100">
<ele>79.918564</ele>
<time>2026-04-25T13:33:18.003Z</time>
</trkpt>
<trkpt lat="59.0939710" lon="30.0357720">
<ele>77.053444</ele>
<time>2026-04-25T13:33:50.999Z</time>
</trkpt>
<trkpt lat="59.0939750" lon="30.0357320">
<ele>75.590401</ele>
<time>2026-04-25T13:34:09.998Z</time>
</trkpt>
<trkpt lat="59.0939500" lon="30.0357990">
<ele>71.749916</ele>
<time>2026-04-25T13:35:10.003Z</time>
</trkpt>
<trkpt lat="59.0938600" lon="30.0356470">
<ele>81.381599</ele>
<time>2026-04-25T13:37:10.998Z</time>
</trkpt>
<trkpt lat="59.0938800" lon="30.0354270">
<ele>73.670158</ele>
<time>2026-04-25T13:38:04.998Z</time>
</trkpt>
<trkpt lat="59.0938480" lon="30.0352780">
<ele>72.237602</ele>
<time>2026-04-25T13:38:31.998Z</time>
</trkpt>
<trkpt lat="59.0938070" lon="30.0352450">
<ele>71.262238</ele>
<time>2026-04-25T13:38:46.997Z</time>
</trkpt>
<trkpt lat="59.0938060" lon="30.0350360">
<ele>73.670158</ele>
<time>2026-04-25T13:39:55.002Z</time>
</trkpt>
<trkpt lat="59.0937440" lon="30.0348790">
<ele>70.317360</ele>
<time>2026-04-25T13:40:21.000Z</time>
</trkpt>
<trkpt lat="59.0937500" lon="30.0347570">
<ele>68.397118</ele>
<time>2026-04-25T13:40:34.997Z</time>
</trkpt>
<trkpt lat="59.0936310" lon="30.0344480">
<ele>70.805038</ele>
<time>2026-04-25T13:41:17.998Z</time>
</trkpt>
<trkpt lat="59.0935290" lon="30.0340640">
<ele>73.212959</ele>
<time>2026-04-25T13:42:21.001Z</time>
</trkpt>
<trkpt lat="59.0935210" lon="30.0339100">
<ele>72.725281</ele>
<time>2026-04-25T13:42:36.000Z</time>
</trkpt>
<trkpt lat="59.0934280" lon="30.0337130">
<ele>71.749916</ele>
<time>2026-04-25T13:43:04.996Z</time>
</trkpt>
<trkpt lat="59.0934400" lon="30.0335300">
<ele>76.078079</ele>
<time>2026-04-25T13:43:19.001Z</time>
</trkpt>
<trkpt lat="59.0932080" lon="30.0327670">
<ele>75.133202</ele>
<time>2026-04-25T13:44:33.996Z</time>
</trkpt>
<trkpt lat="59.0928780" lon="30.0329800">
<ele>75.133202</ele>
<time>2026-04-25T13:45:18.000Z</time>
</trkpt>
<trkpt lat="59.0928970" lon="30.0328770">
<ele>69.829681</ele>
<time>2026-04-25T13:45:57.001Z</time>
</trkpt>
<trkpt lat="59.0928430" lon="30.0329180">
<ele>75.133202</ele>
<time>2026-04-25T13:46:22.999Z</time>
</trkpt>
<trkpt lat="59.0928800" lon="30.0329830">
<ele>75.590401</ele>
<time>2026-04-25T13:46:44.003Z</time>
</trkpt>
<trkpt lat="59.0929120" lon="30.0333630">
<ele>74.157845</ele>
<time>2026-04-25T13:47:12.998Z</time>
</trkpt>
<trkpt lat="59.0930720" lon="30.0338740">
<ele>69.829681</ele>
<time>2026-04-25T13:48:00.000Z</time>
</trkpt>
<trkpt lat="59.0930580" lon="30.0340080">
<ele>68.884804</ele>
<time>2026-04-25T13:48:13.997Z</time>
</trkpt>
<trkpt lat="59.0931610" lon="30.0343390">
<ele>65.044319</ele>
<time>2026-04-25T13:48:44.997Z</time>
</trkpt>
<trkpt lat="59.0932370" lon="30.0349850">
<ele>65.989197</ele>
<time>2026-04-25T13:49:57.003Z</time>
</trkpt>
<trkpt lat="59.0932240" lon="30.0349190">
<ele>64.556641</ele>
<time>2026-04-25T13:50:13.998Z</time>
</trkpt>
<trkpt lat="59.0931990" lon="30.0349470">
<ele>63.093601</ele>
<time>2026-04-25T13:50:31.001Z</time>
</trkpt>
<trkpt lat="59.0932430" lon="30.0348970">
<ele>62.605919</ele>
<time>2026-04-25T13:50:44.998Z</time>
</trkpt>
<trkpt lat="59.0932830" lon="30.0354120">
<ele>62.605919</ele>
<time>2026-04-25T13:53:21.002Z</time>
</trkpt>
<trkpt lat="59.0934180" lon="30.0358890">
<ele>59.740799</ele>
<time>2026-04-25T13:54:54.996Z</time>
</trkpt>
<trkpt lat="59.0934180" lon="30.0360590">
<ele>60.228481</ele>
<time>2026-04-25T13:56:41.001Z</time>
</trkpt>
<trkpt lat="59.0933840" lon="30.0360180">
<ele>68.884804</ele>
<time>2026-04-25T13:57:28.996Z</time>
</trkpt>
<trkpt lat="59.0934080" lon="30.0358490">
<ele>65.501518</ele>
<time>2026-04-25T13:58:30.003Z</time>
</trkpt>
<trkpt lat="59.0933710" lon="30.0356800">
<ele>66.964561</ele>
<time>2026-04-25T13:59:08.002Z</time>
</trkpt>
<trkpt lat="59.0933500" lon="30.0357320">
<ele>69.829681</ele>
<time>2026-04-25T13:59:33.999Z</time>
</trkpt>
<trkpt lat="59.0933600" lon="30.0356590">
<ele>68.884804</ele>
<time>2026-04-25T13:59:55.003Z</time>
</trkpt>
<trkpt lat="59.0933290" lon="30.0355670">
<ele>67.909439</ele>
<time>2026-04-25T14:00:07.998Z</time>
</trkpt>
<trkpt lat="59.0931850" lon="30.0352900">
<ele>69.342003</ele>
<time>2026-04-25T14:00:57.004Z</time>
</trkpt>
<trkpt lat="59.0931240" lon="30.0350850">
<ele>67.421761</ele>
<time>2026-04-25T14:01:24.004Z</time>
</trkpt>
<trkpt lat="59.0931020" lon="30.0344940">
<ele>70.805038</ele>
<time>2026-04-25T14:03:32.999Z</time>
</trkpt>
<trkpt lat="59.0930340" lon="30.0342860">
<ele>73.670158</ele>
<time>2026-04-25T14:04:10.998Z</time>
</trkpt>
<trkpt lat="59.0930160" lon="30.0343550">
<ele>74.157845</ele>
<time>2026-04-25T14:04:32.002Z</time>
</trkpt>
<trkpt lat="59.0930030" lon="30.0340180">
<ele>73.212959</ele>
<time>2026-04-25T14:05:00.997Z</time>
</trkpt>
<trkpt lat="59.0928980" lon="30.0337330">
<ele>71.749916</ele>
<time>2026-04-25T14:05:29.000Z</time>
</trkpt>
<trkpt lat="59.0928260" lon="30.0332520">
<ele>66.964561</ele>
<time>2026-04-25T14:06:14.999Z</time>
</trkpt>
<trkpt lat="59.0927470" lon="30.0330000">
<ele>70.317360</ele>
<time>2026-04-25T14:06:45.999Z</time>
</trkpt>
<trkpt lat="59.0923570" lon="30.0331060">
<ele>72.725281</ele>
<time>2026-04-25T14:07:42.004Z</time>
</trkpt>
<trkpt lat="59.0924080" lon="30.0331110">
<ele>77.510643</ele>
<time>2026-04-25T14:08:05.004Z</time>
</trkpt>
<trkpt lat="59.0924780" lon="30.0333490">
<ele>76.078079</ele>
<time>2026-04-25T14:08:35.002Z</time>
</trkpt>
<trkpt lat="59.0925040" lon="30.0334110">
<ele>74.157845</ele>
<time>2026-04-25T14:08:51.996Z</time>
</trkpt>
<trkpt lat="59.0925590" lon="30.0334140">
<ele>76.078079</ele>
<time>2026-04-25T14:09:19.999Z</time>
</trkpt>
<trkpt lat="59.0924980" lon="30.0335490">
<ele>77.053444</ele>
<time>2026-04-25T14:09:37.996Z</time>
</trkpt>
<trkpt lat="59.0924980" lon="30.0336980">
<ele>75.133202</ele>
<time>2026-04-25T14:09:53.997Z</time>
</trkpt>
<trkpt lat="59.0925410" lon="30.0340370">
<ele>72.237602</ele>
<time>2026-04-25T14:10:40.999Z</time>
</trkpt>
<trkpt lat="59.0926960" lon="30.0344210">
<ele>71.262238</ele>
<time>2026-04-25T14:11:25.002Z</time>
</trkpt>
<trkpt lat="59.0927260" lon="30.0351280">
<ele>66.476883</ele>
<time>2026-04-25T14:12:43.004Z</time>
</trkpt>
<trkpt lat="59.0928540" lon="30.0351490">
<ele>59.740799</ele>
<time>2026-04-25T14:13:12.000Z</time>
</trkpt>
<trkpt lat="59.0927930" lon="30.0352900">
<ele>58.308243</ele>
<time>2026-04-25T14:13:37.998Z</time>
</trkpt>
<trkpt lat="59.0927880" lon="30.0354570">
<ele>58.308243</ele>
<time>2026-04-25T14:14:23.997Z</time>
</trkpt>
<trkpt lat="59.0928740" lon="30.0355140">
<ele>59.253117</ele>
<time>2026-04-25T14:14:51.999Z</time>
</trkpt>
<trkpt lat="59.0929040" lon="30.0359760">
<ele>61.173359</ele>
<time>2026-04-25T14:15:54.000Z</time>
</trkpt>
<trkpt lat="59.0929920" lon="30.0361580">
<ele>61.173359</ele>
<time>2026-04-25T14:16:53.003Z</time>
</trkpt>
<trkpt lat="59.0929580" lon="30.0362380">
<ele>62.148720</ele>
<time>2026-04-25T14:17:05.004Z</time>
</trkpt>
<trkpt lat="59.0929190" lon="30.0362170">
<ele>72.725281</ele>
<time>2026-04-25T14:18:49.003Z</time>
</trkpt>
<trkpt lat="59.0929590" lon="30.0360780">
<ele>68.884804</ele>
<time>2026-04-25T14:22:02.004Z</time>
</trkpt>
<trkpt lat="59.0929530" lon="30.0356920">
<ele>65.989197</ele>
<time>2026-04-25T14:23:00.997Z</time>
</trkpt>
<trkpt lat="59.0928320" lon="30.0355090">
<ele>67.421761</ele>
<time>2026-04-25T14:24:09.996Z</time>
</trkpt>
<trkpt lat="59.0928300" lon="30.0353920">
<ele>65.989197</ele>
<time>2026-04-25T14:24:21.997Z</time>
</trkpt>
<trkpt lat="59.0926720" lon="30.0350660">
<ele>69.342003</ele>
<time>2026-04-25T14:25:50.998Z</time>
</trkpt>
<trkpt lat="59.0927180" lon="30.0350670">
<ele>77.510643</ele>
<time>2026-04-25T14:26:55.003Z</time>
</trkpt>
<trkpt lat="59.0926810" lon="30.0350920">
<ele>77.510643</ele>
<time>2026-04-25T14:27:11.998Z</time>
</trkpt>
<trkpt lat="59.0926380" lon="30.0350120">
<ele>78.973679</ele>
<time>2026-04-25T14:28:57.000Z</time>
</trkpt>
<trkpt lat="59.0926860" lon="30.0351100">
<ele>77.053444</ele>
<time>2026-04-25T14:29:21.002Z</time>
</trkpt>
<trkpt lat="59.0926550" lon="30.0351870">
<ele>79.918564</ele>
<time>2026-04-25T14:30:16.998Z</time>
</trkpt>
<trkpt lat="59.0926970" lon="30.0349620">
<ele>77.998322</ele>
<time>2026-04-25T14:31:16.000Z</time>
</trkpt>
<trkpt lat="59.0925650" lon="30.0345700">
<ele>86.166962</ele>
<time>2026-04-25T14:32:33.000Z</time>
</trkpt>
<trkpt lat="59.0925700" lon="30.0341800">
<ele>79.918564</ele>
<time>2026-04-25T14:33:21.004Z</time>
</trkpt>
<trkpt lat="59.0925560" lon="30.0340800">
<ele>79.461365</ele>
<time>2026-04-25T14:33:32.003Z</time>
</trkpt>
<trkpt lat="59.0924160" lon="30.0337520">
<ele>77.510643</ele>
<time>2026-04-25T14:34:08.999Z</time>
</trkpt>
<trkpt lat="59.0923570" lon="30.0336870">
<ele>77.510643</ele>
<time>2026-04-25T14:34:22.002Z</time>
</trkpt>
<trkpt lat="59.0923580" lon="30.0335100">
<ele>77.510643</ele>
<time>2026-04-25T14:34:35.999Z</time>
</trkpt>
<trkpt lat="59.0922830" lon="30.0331190">
<ele>77.053444</ele>
<time>2026-04-25T14:35:08.002Z</time>
</trkpt>
<trkpt lat="59.0921490" lon="30.0332240">
<ele>77.053444</ele>
<time>2026-04-25T14:35:25.999Z</time>
</trkpt>
<trkpt lat="59.0919850" lon="30.0335770">
<ele>74.157845</ele>
<time>2026-04-25T14:36:03.004Z</time>
</trkpt>
<trkpt lat="59.0920130" lon="30.0335480">
<ele>74.645515</ele>
<time>2026-04-25T14:36:23.999Z</time>
</trkpt>
<trkpt lat="59.0920480" lon="30.0336700">
<ele>80.406235</ele>
<time>2026-04-25T14:37:40.999Z</time>
</trkpt>
<trkpt lat="59.0919970" lon="30.0336300">
<ele>80.406235</ele>
<time>2026-04-25T14:37:58.002Z</time>
</trkpt>
<trkpt lat="59.0919320" lon="30.0337100">
<ele>80.893921</ele>
<time>2026-04-25T14:39:04.003Z</time>
</trkpt>
<trkpt lat="59.0919520" lon="30.0337570">
<ele>77.510643</ele>
<time>2026-04-25T14:39:31.997Z</time>
</trkpt>
<trkpt lat="59.0920770" lon="30.0336520">
<ele>81.838799</ele>
<time>2026-04-25T14:40:51.001Z</time>
</trkpt>
<trkpt lat="59.0920530" lon="30.0337570">
<ele>81.381599</ele>
<time>2026-04-25T14:41:08.998Z</time>
</trkpt>
<trkpt lat="59.0920640" lon="30.0340580">
<ele>73.670158</ele>
<time>2026-04-25T14:41:38.003Z</time>
</trkpt>
<trkpt lat="59.0920960" lon="30.0342020">
<ele>73.212959</ele>
<time>2026-04-25T14:41:51.999Z</time>
</trkpt>
<trkpt lat="59.0920790" lon="30.0343330">
<ele>73.670158</ele>
<time>2026-04-25T14:42:05.003Z</time>
</trkpt>
<trkpt lat="59.0921710" lon="30.0349320">
<ele>70.805038</ele>
<time>2026-04-25T14:42:59.996Z</time>
</trkpt>
<trkpt lat="59.0922260" lon="30.0350160">
<ele>69.829681</ele>
<time>2026-04-25T14:43:11.997Z</time>
</trkpt>
<trkpt lat="59.0922210" lon="30.0355700">
<ele>70.317360</ele>
<time>2026-04-25T14:44:21.998Z</time>
</trkpt>
<trkpt lat="59.0922570" lon="30.0356690">
<ele>68.884804</ele>
<time>2026-04-25T14:45:05.000Z</time>
</trkpt>
<trkpt lat="59.0921930" lon="30.0355510">
<ele>71.262238</ele>
<time>2026-04-25T14:45:36.000Z</time>
</trkpt>
<trkpt lat="59.0922500" lon="30.0355580">
<ele>69.829681</ele>
<time>2026-04-25T14:47:25.002Z</time>
</trkpt>
<trkpt lat="59.0922420" lon="30.0353300">
<ele>69.829681</ele>
<time>2026-04-25T14:48:16.998Z</time>
</trkpt>
<trkpt lat="59.0920850" lon="30.0352310">
<ele>68.884804</ele>
<time>2026-04-25T14:49:32.002Z</time>
</trkpt>
<trkpt lat="59.0920720" lon="30.0352870">
<ele>68.884804</ele>
<time>2026-04-25T14:49:47.001Z</time>
</trkpt>
<trkpt lat="59.0920760" lon="30.0352470">
<ele>68.397118</ele>
<time>2026-04-25T14:50:06.000Z</time>
</trkpt>
<trkpt lat="59.0921840" lon="30.0354230">
<ele>65.989197</ele>
<time>2026-04-25T14:50:31.998Z</time>
</trkpt>
<trkpt lat="59.0921940" lon="30.0355210">
<ele>65.989197</ele>
<time>2026-04-25T14:50:43.999Z</time>
</trkpt>
<trkpt lat="59.0923320" lon="30.0358180">
<ele>65.044319</ele>
<time>2026-04-25T14:51:33.998Z</time>
</trkpt>
<trkpt lat="59.0922970" lon="30.0357460">
<ele>64.556641</ele>
<time>2026-04-25T14:51:52.998Z</time>
</trkpt>
<trkpt lat="59.0922990" lon="30.0358580">
<ele>65.501518</ele>
<time>2026-04-25T14:52:19.998Z</time>
</trkpt>
<trkpt lat="59.0922940" lon="30.0357690">
<ele>64.068962</ele>
<time>2026-04-25T14:53:13.004Z</time>
</trkpt>
<trkpt lat="59.0924000" lon="30.0360080">
<ele>67.421761</ele>
<time>2026-04-25T14:55:55.998Z</time>
</trkpt>
<trkpt lat="59.0923650" lon="30.0361100">
<ele>66.476883</ele>
<time>2026-04-25T14:56:09.001Z</time>
</trkpt>
<trkpt lat="59.0924360" lon="30.0364480">
<ele>63.581284</ele>
<time>2026-04-25T14:57:28.999Z</time>
</trkpt>
<trkpt lat="59.0924230" lon="30.0364820">
<ele>68.884804</ele>
<time>2026-04-25T14:58:13.996Z</time>
</trkpt>
<trkpt lat="59.0923720" lon="30.0363230">
<ele>63.093601</ele>
<time>2026-04-25T14:59:12.998Z</time>
</trkpt>
<trkpt lat="59.0923740" lon="30.0361290">
<ele>64.556641</ele>
<time>2026-04-25T14:59:46.003Z</time>
</trkpt>
<trkpt lat="59.0923080" lon="30.0359890">
<ele>64.556641</ele>
<time>2026-04-25T15:00:10.999Z</time>
</trkpt>
<trkpt lat="59.0922170" lon="30.0352660">
<ele>68.884804</ele>
<time>2026-04-25T15:02:02.999Z</time>
</trkpt>
<trkpt lat="59.0921030" lon="30.0346980">
<ele>66.964561</ele>
<time>2026-04-25T15:03:44.001Z</time>
</trkpt>
<trkpt lat="59.0919660" lon="30.0343180">
<ele>66.476883</ele>
<time>2026-04-25T15:04:39.996Z</time>
</trkpt>
<trkpt lat="59.0919030" lon="30.0339780">
<ele>63.581284</ele>
<time>2026-04-25T15:05:06.003Z</time>
</trkpt>
<trkpt lat="59.0918330" lon="30.0339090">
<ele>62.148720</ele>
<time>2026-04-25T15:05:20.000Z</time>
</trkpt>
<trkpt lat="59.0916560" lon="30.0342360">
<ele>59.253117</ele>
<time>2026-04-25T15:05:52.002Z</time>
</trkpt>
<trkpt lat="59.0915680" lon="30.0346070">
<ele>69.829681</ele>
<time>2026-04-25T15:09:25.004Z</time>
</trkpt>
<trkpt lat="59.0916050" lon="30.0344530">
<ele>67.909439</ele>
<time>2026-04-25T15:09:58.000Z</time>
</trkpt>
<trkpt lat="59.0916060" lon="30.0345040">
<ele>70.317360</ele>
<time>2026-04-25T15:10:52.000Z</time>
</trkpt>
<trkpt lat="59.0916720" lon="30.0345640">
<ele>73.212959</ele>
<time>2026-04-25T15:11:20.996Z</time>
</trkpt>
<trkpt lat="59.0916480" lon="30.0344590">
<ele>72.725281</ele>
<time>2026-04-25T15:11:35.002Z</time>
</trkpt>
<trkpt lat="59.0916140" lon="30.0344880">
<ele>71.262238</ele>
<time>2026-04-25T15:11:55.003Z</time>
</trkpt>
<trkpt lat="59.0916450" lon="30.0344720">
<ele>72.725281</ele>
<time>2026-04-25T15:12:49.003Z</time>
</trkpt>
<trkpt lat="59.0916000" lon="30.0343980">
<ele>71.262238</ele>
<time>2026-04-25T15:13:11.001Z</time>
</trkpt>
<trkpt lat="59.0916150" lon="30.0345570">
<ele>73.212959</ele>
<time>2026-04-25T15:14:25.002Z</time>
</trkpt>
<trkpt lat="59.0916060" lon="30.0345020">
<ele>69.829681</ele>
<time>2026-04-25T15:15:27.003Z</time>
</trkpt>
<trkpt lat="59.0915640" lon="30.0345720">
<ele>72.725281</ele>
<time>2026-04-25T15:15:57.001Z</time>
</trkpt>
<trkpt lat="59.0915970" lon="30.0344940">
<ele>68.397118</ele>
<time>2026-04-25T15:16:37.998Z</time>
</trkpt>
<trkpt lat="59.0916260" lon="30.0345650">
<ele>69.342003</ele>
<time>2026-04-25T15:17:18.001Z</time>
</trkpt>
<trkpt lat="59.0915540" lon="30.0346180">
<ele>73.670158</ele>
<time>2026-04-25T15:18:25.998Z</time>
</trkpt>
<trkpt lat="59.0915600" lon="30.0344800">
<ele>69.829681</ele>
<time>2026-04-25T15:18:50.000Z</time>
</trkpt>
<trkpt lat="59.0916500" lon="30.0346510">
<ele>71.262238</ele>
<time>2026-04-25T15:19:21.000Z</time>
</trkpt>
<trkpt lat="59.0916610" lon="30.0349140">
<ele>72.725281</ele>
<time>2026-04-25T15:20:12.002Z</time>
</trkpt>
<trkpt lat="59.0917170" lon="30.0350270">
<ele>71.749916</ele>
<time>2026-04-25T15:20:27.001Z</time>
</trkpt>
<trkpt lat="59.0918100" lon="30.0354600">
<ele>72.237602</ele>
<time>2026-04-25T15:21:22.997Z</time>
</trkpt>
<trkpt lat="59.0917750" lon="30.0355570">
<ele>72.725281</ele>
<time>2026-04-25T15:21:34.998Z</time>
</trkpt>
<trkpt lat="59.0918120" lon="30.0356250">
<ele>71.749916</ele>
<time>2026-04-25T15:21:45.996Z</time>
</trkpt>
<trkpt lat="59.0918010" lon="30.0356930">
<ele>71.749916</ele>
<time>2026-04-25T15:21:57.997Z</time>
</trkpt>
<trkpt lat="59.0918500" lon="30.0358620">
<ele>71.262238</ele>
<time>2026-04-25T15:22:27.002Z</time>
</trkpt>
<trkpt lat="59.0918250" lon="30.0363100">
<ele>70.805038</ele>
<time>2026-04-25T15:23:47.000Z</time>
</trkpt>
<trkpt lat="59.0918750" lon="30.0364670">
<ele>69.829681</ele>
<time>2026-04-25T15:24:11.002Z</time>
</trkpt>
<trkpt lat="59.0918990" lon="30.0367110">
<ele>66.964561</ele>
<time>2026-04-25T15:25:14.998Z</time>
</trkpt>
<trkpt lat="59.0918570" lon="30.0366820">
<ele>65.989197</ele>
<time>2026-04-25T15:26:43.999Z</time>
</trkpt>
<trkpt lat="59.0918500" lon="30.0362100">
<ele>67.421761</ele>
<time>2026-04-25T15:27:45.999Z</time>
</trkpt>
<trkpt lat="59.0918820" lon="30.0357620">
<ele>67.421761</ele>
<time>2026-04-25T15:28:49.002Z</time>
</trkpt>
<trkpt lat="59.0917990" lon="30.0356460">
<ele>67.909439</ele>
<time>2026-04-25T15:29:17.998Z</time>
</trkpt>
<trkpt lat="59.0916580" lon="30.0352800">
<ele>66.964561</ele>
<time>2026-04-25T15:30:21.001Z</time>
</trkpt>
<trkpt lat="59.0916380" lon="30.0352960">
<ele>70.317360</ele>
<time>2026-04-25T15:30:57.997Z</time>
</trkpt>
<trkpt lat="59.0916350" lon="30.0350990">
<ele>68.397118</ele>
<time>2026-04-25T15:31:11.001Z</time>
</trkpt>
<trkpt lat="59.0915130" lon="30.0348790">
<ele>67.421761</ele>
<time>2026-04-25T15:31:35.996Z</time>
</trkpt>
<trkpt lat="59.0914700" lon="30.0346510">
<ele>68.397118</ele>
<time>2026-04-25T15:32:02.003Z</time>
</trkpt>
<trkpt lat="59.0913450" lon="30.0351420">
<ele>74.645515</ele>
<time>2026-04-25T15:33:09.999Z</time>
</trkpt>
<trkpt lat="59.0912400" lon="30.0352420">
<ele>74.157845</ele>
<time>2026-04-25T15:33:54.996Z</time>
</trkpt>
<trkpt lat="59.0912750" lon="30.0352240">
<ele>75.133202</ele>
<time>2026-04-25T15:34:36.002Z</time>
</trkpt>
<trkpt lat="59.0912570" lon="30.0354380">
<ele>72.725281</ele>
<time>2026-04-25T15:35:27.997Z</time>
</trkpt>
<trkpt lat="59.0912840" lon="30.0356320">
<ele>72.725281</ele>
<time>2026-04-25T15:35:54.004Z</time>
</trkpt>
<trkpt lat="59.0914480" lon="30.0361120">
<ele>69.342003</ele>
<time>2026-04-25T15:36:58.000Z</time>
</trkpt>
<trkpt lat="59.0915150" lon="30.0368600">
<ele>71.262238</ele>
<time>2026-04-25T15:38:59.004Z</time>
</trkpt>
<trkpt lat="59.0914730" lon="30.0369110">
<ele>70.805038</ele>
<time>2026-04-25T15:40:01.004Z</time>
</trkpt>
<trkpt lat="59.0915040" lon="30.0366450">
<ele>67.909439</ele>
<time>2026-04-25T15:41:06.003Z</time>
</trkpt>
<trkpt lat="59.0914410" lon="30.0361440">
<ele>69.342003</ele>
<time>2026-04-25T15:42:39.997Z</time>
</trkpt>
<trkpt lat="59.0913580" lon="30.0359770">
<ele>68.397118</ele>
<time>2026-04-25T15:43:10.998Z</time>
</trkpt>
<trkpt lat="59.0913450" lon="30.0358180">
<ele>67.909439</ele>
<time>2026-04-25T15:43:37.998Z</time>
</trkpt>
<trkpt lat="59.0911720" lon="30.0352760">
<ele>65.501518</ele>
<time>2026-04-25T15:44:34.002Z</time>
</trkpt>
<trkpt lat="59.0911270" lon="30.0352450">
<ele>66.476883</ele>
<time>2026-04-25T15:44:46.997Z</time>
</trkpt>
<trkpt lat="59.0910180" lon="30.0353050">
<ele>63.093601</ele>
<time>2026-04-25T15:45:01.996Z</time>
</trkpt>
<trkpt lat="59.0909180" lon="30.0354010">
<ele>60.685680</ele>
<time>2026-04-25T15:45:17.004Z</time>
</trkpt>
<trkpt lat="59.0908650" lon="30.0356210">
<ele>63.093601</ele>
<time>2026-04-25T15:45:44.004Z</time>
</trkpt>
<trkpt lat="59.0908950" lon="30.0357500">
<ele>65.501518</ele>
<time>2026-04-25T15:45:58.000Z</time>
</trkpt>
<trkpt lat="59.0908770" lon="30.0359680">
<ele>67.421761</ele>
<time>2026-04-25T15:46:23.998Z</time>
</trkpt>
<trkpt lat="59.0909270" lon="30.0360850">
<ele>69.829681</ele>
<time>2026-04-25T15:46:50.998Z</time>
</trkpt>
<trkpt lat="59.0909420" lon="30.0363980">
<ele>66.964561</ele>
<time>2026-04-25T15:48:09.000Z</time>
</trkpt>
<trkpt lat="59.0910320" lon="30.0366130">
<ele>67.421761</ele>
<time>2026-04-25T15:48:49.997Z</time>
</trkpt>
<trkpt lat="59.0910670" lon="30.0368790">
<ele>67.421761</ele>
<time>2026-04-25T15:49:20.004Z</time>
</trkpt>
<trkpt lat="59.0911350" lon="30.0371090">
<ele>66.476883</ele>
<time>2026-04-25T15:49:55.998Z</time>
</trkpt>
<trkpt lat="59.0910970" lon="30.0370760">
<ele>67.421761</ele>
<time>2026-04-25T15:50:22.004Z</time>
</trkpt>
<trkpt lat="59.0911330" lon="30.0370570">
<ele>68.884804</ele>
<time>2026-04-25T15:51:01.999Z</time>
</trkpt>
<trkpt lat="59.0911110" lon="30.0370290">
<ele>70.805038</ele>
<time>2026-04-25T15:51:27.996Z</time>
</trkpt>
<trkpt lat="59.0911270" lon="30.0370520">
<ele>70.805038</ele>
<time>2026-04-25T15:51:51.998Z</time>
</trkpt>
<trkpt lat="59.0910680" lon="30.0365760">
<ele>66.964561</ele>
<time>2026-04-25T15:52:53.999Z</time>
</trkpt>
<trkpt lat="59.0910050" lon="30.0363520">
<ele>67.421761</ele>
<time>2026-04-25T15:53:34.002Z</time>
</trkpt>
<trkpt lat="59.0908980" lon="30.0361770">
<ele>68.397118</ele>
<time>2026-04-25T15:54:02.998Z</time>
</trkpt>
<trkpt lat="59.0908470" lon="30.0358850">
<ele>68.884804</ele>
<time>2026-04-25T15:54:45.999Z</time>
</trkpt>
<trkpt lat="59.0908500" lon="30.0356330">
<ele>66.476883</ele>
<time>2026-04-25T15:55:11.997Z</time>
</trkpt>
<trkpt lat="59.0907980" lon="30.0356440">
<ele>63.093601</ele>
<time>2026-04-25T15:55:26.003Z</time>
</trkpt>
<trkpt lat="59.0906120" lon="30.0359610">
<ele>60.228481</ele>
<time>2026-04-25T15:56:06.999Z</time>
</trkpt>
<trkpt lat="59.0905800" lon="30.0361430">
<ele>67.909439</ele>
<time>2026-04-25T15:56:42.000Z</time>
</trkpt>
<trkpt lat="59.0905490" lon="30.0361390">
<ele>68.397118</ele>
<time>2026-04-25T15:56:52.999Z</time>
</trkpt>
<trkpt lat="59.0905370" lon="30.0362090">
<ele>69.342003</ele>
<time>2026-04-25T15:57:09.000Z</time>
</trkpt>
<trkpt lat="59.0906580" lon="30.0367980">
<ele>71.749916</ele>
<time>2026-04-25T15:58:39.996Z</time>
</trkpt>
<trkpt lat="59.0906730" lon="30.0370510">
<ele>76.565758</ele>
<time>2026-04-25T15:59:25.996Z</time>
</trkpt>
<trkpt lat="59.0906450" lon="30.0371020">
<ele>74.645515</ele>
<time>2026-04-25T15:59:41.004Z</time>
</trkpt>
<trkpt lat="59.0906720" lon="30.0373410">
<ele>71.749916</ele>
<time>2026-04-25T16:00:30.001Z</time>
</trkpt>
<trkpt lat="59.0906250" lon="30.0373290">
<ele>72.725281</ele>
<time>2026-04-25T16:01:17.003Z</time>
</trkpt>
<trkpt lat="59.0906180" lon="30.0372530">
<ele>73.212959</ele>
<time>2026-04-25T16:01:52.003Z</time>
</trkpt>
<trkpt lat="59.0906160" lon="30.0370110">
<ele>71.749916</ele>
<time>2026-04-25T16:02:43.999Z</time>
</trkpt>
<trkpt lat="59.0906640" lon="30.0368430">
<ele>74.157845</ele>
<time>2026-04-25T16:03:09.003Z</time>
</trkpt>
<trkpt lat="59.0906040" lon="30.0367380">
<ele>74.157845</ele>
<time>2026-04-25T16:03:44.997Z</time>
</trkpt>
<trkpt lat="59.0905060" lon="30.0361780">
<ele>71.749916</ele>
<time>2026-04-25T16:05:12.002Z</time>
</trkpt>
<trkpt lat="59.0904280" lon="30.0362110">
<ele>66.964561</ele>
<time>2026-04-25T16:05:25.999Z</time>
</trkpt>
<trkpt lat="59.0902420" lon="30.0366300">
<ele>67.421761</ele>
<time>2026-04-25T16:05:55.003Z</time>
</trkpt>
<trkpt lat="59.0902300" lon="30.0367440">
<ele>69.342003</ele>
<time>2026-04-25T16:06:23.999Z</time>
</trkpt>
<trkpt lat="59.0903600" lon="30.0372420">
<ele>76.565758</ele>
<time>2026-04-25T16:08:05.001Z</time>
</trkpt>
<trkpt lat="59.0904300" lon="30.0378480">
<ele>76.078079</ele>
<time>2026-04-25T16:09:32.999Z</time>
</trkpt>
<trkpt lat="59.0904120" lon="30.0377730">
<ele>75.133202</ele>
<time>2026-04-25T16:09:50.003Z</time>
</trkpt>
<trkpt lat="59.0903280" lon="30.0377180">
<ele>76.565758</ele>
<time>2026-04-25T16:11:10.000Z</time>
</trkpt>
<trkpt lat="59.0902790" lon="30.0369680">
<ele>72.237602</ele>
<time>2026-04-25T16:12:17.004Z</time>
</trkpt>
<trkpt lat="59.0902490" lon="30.0368350">
<ele>73.212959</ele>
<time>2026-04-25T16:12:28.996Z</time>
</trkpt>
<trkpt lat="59.0901840" lon="30.0368860">
<ele>70.805038</ele>
<time>2026-04-25T16:12:59.003Z</time>
</trkpt>
<trkpt lat="59.0902000" lon="30.0369180">
<ele>71.262238</ele>
<time>2026-04-25T16:13:18.002Z</time>
</trkpt>
<trkpt lat="59.0901970" lon="30.0368300">
<ele>74.157845</ele>
<time>2026-04-25T16:13:34.997Z</time>
</trkpt>
<trkpt lat="59.0902620" lon="30.0365060">
<ele>80.406235</ele>
<time>2026-04-25T16:14:51.996Z</time>
</trkpt>
<trkpt lat="59.0903950" lon="30.0362240">
<ele>77.998322</ele>
<time>2026-04-25T16:15:21.001Z</time>
</trkpt>
<trkpt lat="59.0905440" lon="30.0360580">
<ele>76.565758</ele>
<time>2026-04-25T16:15:57.997Z</time>
</trkpt>
<trkpt lat="59.0908520" lon="30.0355430">
<ele>67.421761</ele>
<time>2026-04-25T16:16:51.997Z</time>
</trkpt>
<trkpt lat="59.0912740" lon="30.0350920">
<ele>68.397118</ele>
<time>2026-04-25T16:17:49.998Z</time>
</trkpt>
<trkpt lat="59.0922870" lon="30.0330160">
<ele>63.093601</ele>
<time>2026-04-25T16:20:23.004Z</time>
</trkpt>
<trkpt lat="59.0924150" lon="30.0329320">
<ele>64.068962</ele>
<time>2026-04-25T16:20:38.996Z</time>
</trkpt>
<trkpt lat="59.0926690" lon="30.0329060">
<ele>63.581284</ele>
<time>2026-04-25T16:21:09.003Z</time>
</trkpt>
<trkpt lat="59.0932380" lon="30.0325860">
<ele>66.476883</ele>
<time>2026-04-25T16:22:10.001Z</time>
</trkpt>
<trkpt lat="59.0934100" lon="30.0325400">
<ele>64.556641</ele>
<time>2026-04-25T16:22:27.998Z</time>
</trkpt>
<trkpt lat="59.0937530" lon="30.0325760">
<ele>68.884804</ele>
<time>2026-04-25T16:23:00.001Z</time>
</trkpt>
<trkpt lat="59.0942350" lon="30.0322900">
<ele>73.212959</ele>
<time>2026-04-25T16:23:51.003Z</time>
</trkpt>
<trkpt lat="59.0943880" lon="30.0322410">
<ele>68.397118</ele>
<time>2026-04-25T16:24:07.004Z</time>
</trkpt>
<trkpt lat="59.0945750" lon="30.0322720">
<ele>66.964561</ele>
<time>2026-04-25T16:24:25.001Z</time>
</trkpt>
<trkpt lat="59.0948730" lon="30.0324770">
<ele>61.173359</ele>
<time>2026-04-25T16:24:57.004Z</time>
</trkpt>
<trkpt lat="59.0958450" lon="30.0323300">
<ele>67.909439</ele>
<time>2026-04-25T16:26:41.997Z</time>
</trkpt>
<trkpt lat="59.0960120" lon="30.0322890">
<ele>67.421761</ele>
<time>2026-04-25T16:26:59.001Z</time>
</trkpt>
<trkpt lat="59.0963070" lon="30.0320960">
<ele>68.884804</ele>
<time>2026-04-25T16:27:28.999Z</time>
</trkpt>
<trkpt lat="59.0966420" lon="30.0318190">
<ele>73.670158</ele>
<time>2026-04-25T16:28:13.996Z</time>
</trkpt>
<trkpt lat="59.0967900" lon="30.0316050">
<ele>74.157845</ele>
<time>2026-04-25T16:28:30.999Z</time>
</trkpt>
<trkpt lat="59.0969470" lon="30.0311700">
<ele>74.157845</ele>
<time>2026-04-25T16:28:57.999Z</time>
</trkpt>
<trkpt lat="59.0970610" lon="30.0309850">
<ele>70.805038</ele>
<time>2026-04-25T16:29:14.001Z</time>
</trkpt>
<trkpt lat="59.0976230" lon="30.0303660">
<ele>72.725281</ele>
<time>2026-04-25T16:30:18.999Z</time>
</trkpt>
<trkpt lat="59.0977700" lon="30.0302870">
<ele>69.829681</ele>
<time>2026-04-25T16:30:33.998Z</time>
</trkpt>
<trkpt lat="59.0981010" lon="30.0302900">
<ele>68.884804</ele>
<time>2026-04-25T16:31:07.003Z</time>
</trkpt>
<trkpt lat="59.0983800" lon="30.0301420">
<ele>68.884804</ele>
<time>2026-04-25T16:31:34.003Z</time>
</trkpt>
<trkpt lat="59.0985160" lon="30.0300070">
<ele>70.805038</ele>
<time>2026-04-25T16:31:49.002Z</time>
</trkpt>
<trkpt lat="59.0987620" lon="30.0296790">
<ele>71.749916</ele>
<time>2026-04-25T16:32:20.996Z</time>
</trkpt>
<trkpt lat="59.0991770" lon="30.0289770">
<ele>66.476883</ele>
<time>2026-04-25T16:33:13.000Z</time>
</trkpt>
<trkpt lat="59.0995800" lon="30.0285870">
<ele>67.909439</ele>
<time>2026-04-25T16:34:00.002Z</time>
</trkpt>
<trkpt lat="59.0996110" lon="30.0283840">
<ele>70.805038</ele>
<time>2026-04-25T16:34:13.999Z</time>
</trkpt>
<trkpt lat="59.0996000" lon="30.0282350">
<ele>73.212959</ele>
<time>2026-04-25T16:34:27.002Z</time>
</trkpt>
</trkseg>
</trk>
<trk>
 <name>20260425_Lisa87</name>
 <desc>20260425_Lisa87</desc>
<trkseg>
<trkpt lat="59.0996440" lon="30.0285730">
<ele>93.725998</ele>
<time>2026-04-25T06:57:07.004Z</time>
</trkpt>
<trkpt lat="59.0996010" lon="30.0286780">
<ele>81.594963</ele>
<time>2026-04-25T06:57:50.999Z</time>
</trkpt>
<trkpt lat="59.0994460" lon="30.0288010">
<ele>77.784958</ele>
<time>2026-04-25T06:58:35.996Z</time>
</trkpt>
<trkpt lat="59.0989160" lon="30.0294500">
<ele>73.273918</ele>
<time>2026-04-25T07:01:06.004Z</time>
</trkpt>
<trkpt lat="59.0989530" lon="30.0294550">
<ele>78.028801</ele>
<time>2026-04-25T07:01:32.002Z</time>
</trkpt>
<trkpt lat="59.0989310" lon="30.0295570">
<ele>81.503517</ele>
<time>2026-04-25T07:03:05.996Z</time>
</trkpt>
<trkpt lat="59.0989360" lon="30.0295080">
<ele>80.162399</ele>
<time>2026-04-25T07:04:17.000Z</time>
</trkpt>
<trkpt lat="59.0985730" lon="30.0300890">
<ele>67.269356</ele>
<time>2026-04-25T07:05:09.997Z</time>
</trkpt>
<trkpt lat="59.0983940" lon="30.0302970">
<ele>67.391281</ele>
<time>2026-04-25T07:05:31.001Z</time>
</trkpt>
<trkpt lat="59.0983120" lon="30.0302510">
<ele>78.912720</ele>
<time>2026-04-25T07:06:00.999Z</time>
</trkpt>
<trkpt lat="59.0983660" lon="30.0303180">
<ele>81.076797</ele>
<time>2026-04-25T07:06:45.996Z</time>
</trkpt>
<trkpt lat="59.0982040" lon="30.0303880">
<ele>72.938644</ele>
<time>2026-04-25T07:07:07.000Z</time>
</trkpt>
<trkpt lat="59.0978120" lon="30.0304140">
<ele>66.233040</ele>
<time>2026-04-25T07:07:44.999Z</time>
</trkpt>
<trkpt lat="59.0976240" lon="30.0304970">
<ele>65.836800</ele>
<time>2026-04-25T07:08:06.996Z</time>
</trkpt>
<trkpt lat="59.0974440" lon="30.0306950">
<ele>72.938644</ele>
<time>2026-04-25T07:08:36.001Z</time>
</trkpt>
<trkpt lat="59.0974890" lon="30.0306760">
<ele>84.094315</ele>
<time>2026-04-25T07:09:03.001Z</time>
</trkpt>
<trkpt lat="59.0975280" lon="30.0305860">
<ele>88.971115</ele>
<time>2026-04-25T07:09:20.998Z</time>
</trkpt>
<trkpt lat="59.0973820" lon="30.0306480">
<ele>82.356964</ele>
<time>2026-04-25T07:09:43.004Z</time>
</trkpt>
<trkpt lat="59.0970200" lon="30.0311080">
<ele>69.646797</ele>
<time>2026-04-25T07:10:21.003Z</time>
</trkpt>
<trkpt lat="59.0967950" lon="30.0316630">
<ele>68.762878</ele>
<time>2026-04-25T07:11:31.998Z</time>
</trkpt>
<trkpt lat="59.0966440" lon="30.0319260">
<ele>71.323196</ele>
<time>2026-04-25T07:11:49.001Z</time>
</trkpt>
<trkpt lat="59.0961150" lon="30.0322940">
<ele>57.851040</ele>
<time>2026-04-25T07:12:44.997Z</time>
</trkpt>
<trkpt lat="59.0957980" lon="30.0324370">
<ele>64.952881</ele>
<time>2026-04-25T07:13:21.000Z</time>
</trkpt>
<trkpt lat="59.0953500" lon="30.0324370">
<ele>67.330315</ele>
<time>2026-04-25T07:14:01.997Z</time>
</trkpt>
<trkpt lat="59.0948710" lon="30.0325210">
<ele>60.868561</ele>
<time>2026-04-25T07:14:46.000Z</time>
</trkpt>
<trkpt lat="59.0946570" lon="30.0323480">
<ele>66.659760</ele>
<time>2026-04-25T07:15:07.998Z</time>
</trkpt>
<trkpt lat="59.0944650" lon="30.0322960">
<ele>65.410080</ele>
<time>2026-04-25T07:15:25.001Z</time>
</trkpt>
<trkpt lat="59.0940680" lon="30.0324370">
<ele>58.948318</ele>
<time>2026-04-25T07:16:01.004Z</time>
</trkpt>
<trkpt lat="59.0939120" lon="30.0325540">
<ele>58.155842</ele>
<time>2026-04-25T07:16:16.003Z</time>
</trkpt>
<trkpt lat="59.0932590" lon="30.0326620">
<ele>61.935360</ele>
<time>2026-04-25T07:17:11.999Z</time>
</trkpt>
<trkpt lat="59.0930760" lon="30.0328340">
<ele>79.857597</ele>
<time>2026-04-25T07:17:55.000Z</time>
</trkpt>
<trkpt lat="59.0930820" lon="30.0329530">
<ele>86.502235</ele>
<time>2026-04-25T07:19:48.003Z</time>
</trkpt>
<trkpt lat="59.0930730" lon="30.0328990">
<ele>86.227921</ele>
<time>2026-04-25T07:20:19.997Z</time>
</trkpt>
<trkpt lat="59.0926820" lon="30.0329400">
<ele>62.270641</ele>
<time>2026-04-25T07:21:12.001Z</time>
</trkpt>
<trkpt lat="59.0922540" lon="30.0331540">
<ele>59.496960</ele>
<time>2026-04-25T07:21:47.002Z</time>
</trkpt>
<trkpt lat="59.0920060" lon="30.0335570">
<ele>52.090317</ele>
<time>2026-04-25T07:22:15.997Z</time>
</trkpt>
<trkpt lat="59.0918000" lon="30.0340420">
<ele>52.120800</ele>
<time>2026-04-25T07:22:46.998Z</time>
</trkpt>
<trkpt lat="59.0912090" lon="30.0351720">
<ele>64.129921</ele>
<time>2026-04-25T07:23:59.997Z</time>
</trkpt>
<trkpt lat="59.0908040" lon="30.0355570">
<ele>66.934082</ele>
<time>2026-04-25T07:24:41.003Z</time>
</trkpt>
<trkpt lat="59.0905490" lon="30.0360330">
<ele>70.439285</ele>
<time>2026-04-25T07:25:28.998Z</time>
</trkpt>
<trkpt lat="59.0902770" lon="30.0363630">
<ele>59.801758</ele>
<time>2026-04-25T07:26:15.999Z</time>
</trkpt>
<trkpt lat="59.0901930" lon="30.0366990">
<ele>68.823837</ele>
<time>2026-04-25T07:26:33.003Z</time>
</trkpt>
<trkpt lat="59.0901740" lon="30.0381860">
<ele>71.780403</ele>
<time>2026-04-25T07:27:38.002Z</time>
</trkpt>
<trkpt lat="59.0902150" lon="30.0387240">
<ele>73.792084</ele>
<time>2026-04-25T07:28:09.002Z</time>
</trkpt>
<trkpt lat="59.0903910" lon="30.0394250">
<ele>74.340721</ele>
<time>2026-04-25T07:28:48.003Z</time>
</trkpt>
<trkpt lat="59.0904710" lon="30.0396310">
<ele>71.963280</ele>
<time>2026-04-25T07:29:02.000Z</time>
</trkpt>
<trkpt lat="59.0907090" lon="30.0400200">
<ele>74.615044</ele>
<time>2026-04-25T07:29:31.998Z</time>
</trkpt>
<trkpt lat="59.0911760" lon="30.0413550">
<ele>81.808319</ele>
<time>2026-04-25T07:30:41.999Z</time>
</trkpt>
<trkpt lat="59.0911700" lon="30.0416310">
<ele>81.198715</ele>
<time>2026-04-25T07:31:15.004Z</time>
</trkpt>
<trkpt lat="59.0911300" lon="30.0417030">
<ele>79.308960</ele>
<time>2026-04-25T07:31:34.997Z</time>
</trkpt>
<trkpt lat="59.0910270" lon="30.0417590">
<ele>76.657204</ele>
<time>2026-04-25T07:31:48.000Z</time>
</trkpt>
<trkpt lat="59.0905110" lon="30.0419220">
<ele>61.965839</ele>
<time>2026-04-25T07:32:51.003Z</time>
</trkpt>
<trkpt lat="59.0898170" lon="30.0424120">
<ele>68.336159</ele>
<time>2026-04-25T07:34:03.000Z</time>
</trkpt>
<trkpt lat="59.0892430" lon="30.0425980">
<ele>70.896484</ele>
<time>2026-04-25T07:35:07.999Z</time>
</trkpt>
<trkpt lat="59.0890030" lon="30.0427470">
<ele>72.603355</ele>
<time>2026-04-25T07:35:37.003Z</time>
</trkpt>
<trkpt lat="59.0888820" lon="30.0429200">
<ele>73.395844</ele>
<time>2026-04-25T07:36:04.003Z</time>
</trkpt>
<trkpt lat="59.0887080" lon="30.0428950">
<ele>67.116959</ele>
<time>2026-04-25T07:36:34.001Z</time>
</trkpt>
<trkpt lat="59.0884230" lon="30.0430410">
<ele>61.996319</ele>
<time>2026-04-25T07:37:18.998Z</time>
</trkpt>
<trkpt lat="59.0883910" lon="30.0429950">
<ele>67.939919</ele>
<time>2026-04-25T07:37:41.998Z</time>
</trkpt>
<trkpt lat="59.0880090" lon="30.0431990">
<ele>70.744080</ele>
<time>2026-04-25T07:38:54.997Z</time>
</trkpt>
<trkpt lat="59.0880160" lon="30.0432490">
<ele>73.853043</ele>
<time>2026-04-25T07:40:42.004Z</time>
</trkpt>
<trkpt lat="59.0880000" lon="30.0432010">
<ele>74.767441</ele>
<time>2026-04-25T07:42:53.004Z</time>
</trkpt>
<trkpt lat="59.0879780" lon="30.0433130">
<ele>77.693520</ele>
<time>2026-04-25T07:44:06.996Z</time>
</trkpt>
<trkpt lat="59.0880250" lon="30.0430420">
<ele>75.194160</ele>
<time>2026-04-25T07:45:51.998Z</time>
</trkpt>
<trkpt lat="59.0880610" lon="30.0430360">
<ele>84.490562</ele>
<time>2026-04-25T07:46:20.001Z</time>
</trkpt>
<trkpt lat="59.0879710" lon="30.0429560">
<ele>84.429604</ele>
<time>2026-04-25T07:47:45.001Z</time>
</trkpt>
<trkpt lat="59.0879570" lon="30.0428850">
<ele>85.313515</ele>
<time>2026-04-25T07:48:25.004Z</time>
</trkpt>
<trkpt lat="59.0879960" lon="30.0428560">
<ele>80.101433</ele>
<time>2026-04-25T07:49:21.000Z</time>
</trkpt>
<trkpt lat="59.0879700" lon="30.0426770">
<ele>71.475601</ele>
<time>2026-04-25T07:49:57.996Z</time>
</trkpt>
<trkpt lat="59.0878860" lon="30.0425740">
<ele>68.884804</ele>
<time>2026-04-25T07:50:19.000Z</time>
</trkpt>
<trkpt lat="59.0878130" lon="30.0422820">
<ele>73.243439</ele>
<time>2026-04-25T07:50:52.999Z</time>
</trkpt>
<trkpt lat="59.0878060" lon="30.0421550">
<ele>74.432159</ele>
<time>2026-04-25T07:51:17.001Z</time>
</trkpt>
<trkpt lat="59.0877450" lon="30.0420370">
<ele>82.204567</ele>
<time>2026-04-25T07:52:48.999Z</time>
</trkpt>
<trkpt lat="59.0877480" lon="30.0417460">
<ele>72.146156</ele>
<time>2026-04-25T07:55:06.997Z</time>
</trkpt>
<trkpt lat="59.0877850" lon="30.0415980">
<ele>69.799202</ele>
<time>2026-04-25T07:55:26.999Z</time>
</trkpt>
<trkpt lat="59.0878200" lon="30.0411950">
<ele>65.623444</ele>
<time>2026-04-25T07:56:08.998Z</time>
</trkpt>
<trkpt lat="59.0877990" lon="30.0410310">
<ele>72.481438</ele>
<time>2026-04-25T07:56:29.000Z</time>
</trkpt>
<trkpt lat="59.0876940" lon="30.0409500">
<ele>74.858879</ele>
<time>2026-04-25T07:57:05.996Z</time>
</trkpt>
<trkpt lat="59.0876840" lon="30.0408880">
<ele>76.961998</ele>
<time>2026-04-25T07:57:33.998Z</time>
</trkpt>
<trkpt lat="59.0876960" lon="30.0408600">
<ele>79.949036</ele>
<time>2026-04-25T07:58:06.001Z</time>
</trkpt>
<trkpt lat="59.0876810" lon="30.0408800">
<ele>79.857597</ele>
<time>2026-04-25T08:00:15.998Z</time>
</trkpt>
<trkpt lat="59.0876650" lon="30.0407970">
<ele>76.139038</ele>
<time>2026-04-25T08:00:37.996Z</time>
</trkpt>
<trkpt lat="59.0875720" lon="30.0401480">
<ele>73.639679</ele>
<time>2026-04-25T08:01:59.998Z</time>
</trkpt>
<trkpt lat="59.0875680" lon="30.0399560">
<ele>74.736961</ele>
<time>2026-04-25T08:02:29.003Z</time>
</trkpt>
<trkpt lat="59.0875910" lon="30.0399310">
<ele>74.462639</ele>
<time>2026-04-25T08:02:59.001Z</time>
</trkpt>
<trkpt lat="59.0876320" lon="30.0399750">
<ele>74.035919</ele>
<time>2026-04-25T08:04:29.997Z</time>
</trkpt>
<trkpt lat="59.0876010" lon="30.0398290">
<ele>70.286880</ele>
<time>2026-04-25T08:06:13.003Z</time>
</trkpt>
<trkpt lat="59.0875130" lon="30.0397120">
<ele>66.446404</ele>
<time>2026-04-25T08:06:51.002Z</time>
</trkpt>
<trkpt lat="59.0874750" lon="30.0395510">
<ele>66.080643</ele>
<time>2026-04-25T08:07:22.002Z</time>
</trkpt>
<trkpt lat="59.0873970" lon="30.0390600">
<ele>80.101433</ele>
<time>2026-04-25T08:09:03.997Z</time>
</trkpt>
<trkpt lat="59.0873680" lon="30.0390420">
<ele>79.248001</ele>
<time>2026-04-25T08:10:58.002Z</time>
</trkpt>
<trkpt lat="59.0874030" lon="30.0390320">
<ele>81.808319</ele>
<time>2026-04-25T08:11:36.001Z</time>
</trkpt>
<trkpt lat="59.0873990" lon="30.0391220">
<ele>81.625435</ele>
<time>2026-04-25T08:12:50.003Z</time>
</trkpt>
<trkpt lat="59.0872760" lon="30.0382430">
<ele>69.768715</ele>
<time>2026-04-25T08:15:17.997Z</time>
</trkpt>
<trkpt lat="59.0872580" lon="30.0381270">
<ele>71.323196</ele>
<time>2026-04-25T08:15:40.997Z</time>
</trkpt>
<trkpt lat="59.0872980" lon="30.0380480">
<ele>67.269356</ele>
<time>2026-04-25T08:17:28.997Z</time>
</trkpt>
<trkpt lat="59.0872760" lon="30.0380110">
<ele>75.864716</ele>
<time>2026-04-25T08:18:34.998Z</time>
</trkpt>
<trkpt lat="59.0873110" lon="30.0377930">
<ele>73.365356</ele>
<time>2026-04-25T08:19:58.002Z</time>
</trkpt>
<trkpt lat="59.0872670" lon="30.0373550">
<ele>73.182480</ele>
<time>2026-04-25T08:20:52.002Z</time>
</trkpt>
<trkpt lat="59.0872750" lon="30.0371120">
<ele>71.810883</ele>
<time>2026-04-25T08:21:34.001Z</time>
</trkpt>
<trkpt lat="59.0872340" lon="30.0370370">
<ele>72.999603</ele>
<time>2026-04-25T08:25:45.002Z</time>
</trkpt>
<trkpt lat="59.0872830" lon="30.0370000">
<ele>77.906883</ele>
<time>2026-04-25T08:26:47.003Z</time>
</trkpt>
<trkpt lat="59.0872320" lon="30.0367940">
<ele>70.286880</ele>
<time>2026-04-25T08:27:34.004Z</time>
</trkpt>
<trkpt lat="59.0872180" lon="30.0364280">
<ele>73.426315</ele>
<time>2026-04-25T08:28:47.997Z</time>
</trkpt>
<trkpt lat="59.0871380" lon="30.0361960">
<ele>73.091042</ele>
<time>2026-04-25T08:29:37.003Z</time>
</trkpt>
<trkpt lat="59.0871550" lon="30.0361420">
<ele>74.554085</ele>
<time>2026-04-25T08:30:11.002Z</time>
</trkpt>
<trkpt lat="59.0871320" lon="30.0361720">
<ele>66.720718</ele>
<time>2026-04-25T08:31:49.999Z</time>
</trkpt>
<trkpt lat="59.0871390" lon="30.0361040">
<ele>69.768715</ele>
<time>2026-04-25T08:32:47.999Z</time>
</trkpt>
<trkpt lat="59.0870680" lon="30.0360040">
<ele>65.775841</ele>
<time>2026-04-25T08:33:28.002Z</time>
</trkpt>
<trkpt lat="59.0869690" lon="30.0355590">
<ele>73.334885</ele>
<time>2026-04-25T08:35:09.004Z</time>
</trkpt>
<trkpt lat="59.0870370" lon="30.0352810">
<ele>71.506081</ele>
<time>2026-04-25T08:37:15.001Z</time>
</trkpt>
<trkpt lat="59.0870090" lon="30.0353190">
<ele>72.999603</ele>
<time>2026-04-25T08:40:44.996Z</time>
</trkpt>
<trkpt lat="59.0869390" lon="30.0350390">
<ele>67.330315</ele>
<time>2026-04-25T08:41:50.004Z</time>
</trkpt>
<trkpt lat="59.0869400" lon="30.0349310">
<ele>72.054718</ele>
<time>2026-04-25T08:42:09.003Z</time>
</trkpt>
<trkpt lat="59.0870370" lon="30.0347960">
<ele>71.841362</ele>
<time>2026-04-25T08:42:56.998Z</time>
</trkpt>
<trkpt lat="59.0870240" lon="30.0348200">
<ele>73.395844</ele>
<time>2026-04-25T08:43:23.998Z</time>
</trkpt>
<trkpt lat="59.0870040" lon="30.0346370">
<ele>70.561203</ele>
<time>2026-04-25T08:44:13.004Z</time>
</trkpt>
<trkpt lat="59.0870160" lon="30.0345120">
<ele>73.426315</ele>
<time>2026-04-25T08:44:54.001Z</time>
</trkpt>
<trkpt lat="59.0870590" lon="30.0344110">
<ele>76.139038</ele>
<time>2026-04-25T08:46:07.000Z</time>
</trkpt>
<trkpt lat="59.0870350" lon="30.0343940">
<ele>69.921120</ele>
<time>2026-04-25T08:46:55.004Z</time>
</trkpt>
<trkpt lat="59.0870510" lon="30.0343200">
<ele>78.364082</ele>
<time>2026-04-25T08:47:55.000Z</time>
</trkpt>
<trkpt lat="59.0870530" lon="30.0343770">
<ele>75.681839</ele>
<time>2026-04-25T08:48:24.998Z</time>
</trkpt>
<trkpt lat="59.0869420" lon="30.0341530">
<ele>77.419197</ele>
<time>2026-04-25T08:50:58.998Z</time>
</trkpt>
<trkpt lat="59.0868350" lon="30.0340760">
<ele>71.140320</ele>
<time>2026-04-25T08:52:19.004Z</time>
</trkpt>
<trkpt lat="59.0868440" lon="30.0337210">
<ele>67.147438</ele>
<time>2026-04-25T08:52:53.996Z</time>
</trkpt>
<trkpt lat="59.0868170" lon="30.0335290">
<ele>69.768715</ele>
<time>2026-04-25T08:53:12.002Z</time>
</trkpt>
<trkpt lat="59.0868740" lon="30.0335200">
<ele>76.017120</ele>
<time>2026-04-25T08:54:52.001Z</time>
</trkpt>
<trkpt lat="59.0868800" lon="30.0335590">
<ele>82.539833</ele>
<time>2026-04-25T08:55:19.001Z</time>
</trkpt>
<trkpt lat="59.0868040" lon="30.0335970">
<ele>75.041756</ele>
<time>2026-04-25T08:56:34.999Z</time>
</trkpt>
<trkpt lat="59.0868430" lon="30.0336290">
<ele>77.022957</ele>
<time>2026-04-25T08:57:58.003Z</time>
</trkpt>
<trkpt lat="59.0868100" lon="30.0335990">
<ele>71.567039</ele>
<time>2026-04-25T08:59:23.004Z</time>
</trkpt>
<trkpt lat="59.0868000" lon="30.0336400">
<ele>68.397118</ele>
<time>2026-04-25T09:01:19.004Z</time>
</trkpt>
<trkpt lat="59.0868460" lon="30.0335830">
<ele>74.706482</ele>
<time>2026-04-25T09:03:56.002Z</time>
</trkpt>
<trkpt lat="59.0868460" lon="30.0334770">
<ele>77.754478</ele>
<time>2026-04-25T09:06:05.999Z</time>
</trkpt>
<trkpt lat="59.0871200" lon="30.0336820">
<ele>76.809601</ele>
<time>2026-04-25T09:08:43.999Z</time>
</trkpt>
<trkpt lat="59.0871570" lon="30.0336600">
<ele>75.773285</ele>
<time>2026-04-25T09:09:23.000Z</time>
</trkpt>
<trkpt lat="59.0870710" lon="30.0338700">
<ele>74.676003</ele>
<time>2026-04-25T09:10:58.999Z</time>
</trkpt>
<trkpt lat="59.0870090" lon="30.0338680">
<ele>77.175362</ele>
<time>2026-04-25T09:11:42.000Z</time>
</trkpt>
<trkpt lat="59.0869730" lon="30.0339290">
<ele>74.736961</ele>
<time>2026-04-25T09:12:05.000Z</time>
</trkpt>
<trkpt lat="59.0869870" lon="30.0339730">
<ele>78.150719</ele>
<time>2026-04-25T09:12:57.004Z</time>
</trkpt>
<trkpt lat="59.0870510" lon="30.0339710">
<ele>76.321915</ele>
<time>2026-04-25T09:13:44.999Z</time>
</trkpt>
<trkpt lat="59.0869870" lon="30.0339240">
<ele>74.706482</ele>
<time>2026-04-25T09:14:13.001Z</time>
</trkpt>
<trkpt lat="59.0869520" lon="30.0340690">
<ele>72.389999</ele>
<time>2026-04-25T09:15:24.998Z</time>
</trkpt>
<trkpt lat="59.0868940" lon="30.0340830">
<ele>73.365356</ele>
<time>2026-04-25T09:15:50.996Z</time>
</trkpt>
<trkpt lat="59.0868510" lon="30.0341640">
<ele>74.096878</ele>
<time>2026-04-25T09:16:06.004Z</time>
</trkpt>
<trkpt lat="59.0868590" lon="30.0344270">
<ele>71.902321</ele>
<time>2026-04-25T09:17:11.003Z</time>
</trkpt>
<trkpt lat="59.0869000" lon="30.0345870">
<ele>71.353683</ele>
<time>2026-04-25T09:17:39.998Z</time>
</trkpt>
<trkpt lat="59.0870320" lon="30.0345790">
<ele>71.536560</ele>
<time>2026-04-25T09:18:17.997Z</time>
</trkpt>
<trkpt lat="59.0871100" lon="30.0346370">
<ele>75.651360</ele>
<time>2026-04-25T09:19:02.001Z</time>
</trkpt>
<trkpt lat="59.0871770" lon="30.0347010">
<ele>76.809601</ele>
<time>2026-04-25T09:19:48.000Z</time>
</trkpt>
<trkpt lat="59.0872700" lon="30.0349480">
<ele>78.973679</ele>
<time>2026-04-25T09:20:51.996Z</time>
</trkpt>
<trkpt lat="59.0873020" lon="30.0349290">
<ele>77.175362</ele>
<time>2026-04-25T09:21:48.001Z</time>
</trkpt>
<trkpt lat="59.0872860" lon="30.0348960">
<ele>74.889359</ele>
<time>2026-04-25T09:22:19.001Z</time>
</trkpt>
<trkpt lat="59.0873220" lon="30.0349720">
<ele>87.050880</ele>
<time>2026-04-25T09:24:12.997Z</time>
</trkpt>
<trkpt lat="59.0872820" lon="30.0351920">
<ele>76.992485</ele>
<time>2026-04-25T09:25:47.001Z</time>
</trkpt>
<trkpt lat="59.0871560" lon="30.0352930">
<ele>76.078079</ele>
<time>2026-04-25T09:26:54.004Z</time>
</trkpt>
<trkpt lat="59.0871230" lon="30.0354210">
<ele>75.468483</ele>
<time>2026-04-25T09:28:17.000Z</time>
</trkpt>
<trkpt lat="59.0872140" lon="30.0355660">
<ele>71.048882</ele>
<time>2026-04-25T09:29:01.003Z</time>
</trkpt>
<trkpt lat="59.0872550" lon="30.0357820">
<ele>76.047600</ele>
<time>2026-04-25T09:29:46.000Z</time>
</trkpt>
<trkpt lat="59.0873130" lon="30.0357610">
<ele>74.919838</ele>
<time>2026-04-25T09:29:59.997Z</time>
</trkpt>
<trkpt lat="59.0873620" lon="30.0356310">
<ele>75.407516</ele>
<time>2026-04-25T09:30:13.000Z</time>
</trkpt>
<trkpt lat="59.0873470" lon="30.0356840">
<ele>86.563202</ele>
<time>2026-04-25T09:31:51.004Z</time>
</trkpt>
<trkpt lat="59.0873970" lon="30.0356970">
<ele>78.607918</ele>
<time>2026-04-25T09:33:43.998Z</time>
</trkpt>
<trkpt lat="59.0874710" lon="30.0362290">
<ele>77.144882</ele>
<time>2026-04-25T09:35:50.004Z</time>
</trkpt>
<trkpt lat="59.0875400" lon="30.0365570">
<ele>82.448402</ele>
<time>2026-04-25T09:37:02.001Z</time>
</trkpt>
<trkpt lat="59.0875820" lon="30.0365790">
<ele>81.991203</ele>
<time>2026-04-25T09:37:25.000Z</time>
</trkpt>
<trkpt lat="59.0875120" lon="30.0368540">
<ele>72.694801</ele>
<time>2026-04-25T09:38:12.002Z</time>
</trkpt>
<trkpt lat="59.0875470" lon="30.0370400">
<ele>74.615044</ele>
<time>2026-04-25T09:38:27.001Z</time>
</trkpt>
<trkpt lat="59.0875450" lon="30.0371670">
<ele>81.046318</ele>
<time>2026-04-25T09:39:14.003Z</time>
</trkpt>
<trkpt lat="59.0875770" lon="30.0371860">
<ele>82.722717</ele>
<time>2026-04-25T09:39:41.003Z</time>
</trkpt>
<trkpt lat="59.0875590" lon="30.0371710">
<ele>84.460083</ele>
<time>2026-04-25T09:40:44.999Z</time>
</trkpt>
<trkpt lat="59.0875810" lon="30.0371720">
<ele>84.551521</ele>
<time>2026-04-25T09:41:41.997Z</time>
</trkpt>
<trkpt lat="59.0875740" lon="30.0372920">
<ele>83.667603</ele>
<time>2026-04-25T09:42:12.004Z</time>
</trkpt>
<trkpt lat="59.0874890" lon="30.0376470">
<ele>77.541115</ele>
<time>2026-04-25T09:43:14.998Z</time>
</trkpt>
<trkpt lat="59.0876410" lon="30.0379190">
<ele>70.957443</ele>
<time>2026-04-25T09:43:51.001Z</time>
</trkpt>
<trkpt lat="59.0877710" lon="30.0384600">
<ele>76.108559</ele>
<time>2026-04-25T09:45:04.000Z</time>
</trkpt>
<trkpt lat="59.0878220" lon="30.0384710">
<ele>87.325203</ele>
<time>2026-04-25T09:46:07.003Z</time>
</trkpt>
<trkpt lat="59.0877800" lon="30.0385180">
<ele>80.772003</ele>
<time>2026-04-25T09:47:01.997Z</time>
</trkpt>
<trkpt lat="59.0877250" lon="30.0388240">
<ele>74.676003</ele>
<time>2026-04-25T09:47:39.002Z</time>
</trkpt>
<trkpt lat="59.0876940" lon="30.0393040">
<ele>72.786240</ele>
<time>2026-04-25T09:48:27.999Z</time>
</trkpt>
<trkpt lat="59.0878920" lon="30.0396120">
<ele>68.000885</ele>
<time>2026-04-25T09:49:04.996Z</time>
</trkpt>
<trkpt lat="59.0880160" lon="30.0399710">
<ele>79.126083</ele>
<time>2026-04-25T09:49:39.996Z</time>
</trkpt>
<trkpt lat="59.0880290" lon="30.0401410">
<ele>76.169518</ele>
<time>2026-04-25T09:49:54.002Z</time>
</trkpt>
<trkpt lat="59.0879900" lon="30.0404150">
<ele>73.426315</ele>
<time>2026-04-25T09:50:22.998Z</time>
</trkpt>
<trkpt lat="59.0880270" lon="30.0406380">
<ele>76.809601</ele>
<time>2026-04-25T09:50:59.001Z</time>
</trkpt>
<trkpt lat="59.0879980" lon="30.0406520">
<ele>79.065117</ele>
<time>2026-04-25T09:51:26.001Z</time>
</trkpt>
<trkpt lat="59.0880230" lon="30.0407910">
<ele>84.155281</ele>
<time>2026-04-25T09:52:22.999Z</time>
</trkpt>
<trkpt lat="59.0879490" lon="30.0407050">
<ele>81.259682</ele>
<time>2026-04-25T09:54:16.001Z</time>
</trkpt>
<trkpt lat="59.0879550" lon="30.0406730">
<ele>80.558640</ele>
<time>2026-04-25T09:54:41.999Z</time>
</trkpt>
<trkpt lat="59.0879810" lon="30.0406950">
<ele>85.008720</ele>
<time>2026-04-25T09:55:11.004Z</time>
</trkpt>
<trkpt lat="59.0880360" lon="30.0409680">
<ele>78.455521</ele>
<time>2026-04-25T09:55:56.001Z</time>
</trkpt>
<trkpt lat="59.0879630" lon="30.0410280">
<ele>78.699364</ele>
<time>2026-04-25T09:56:27.001Z</time>
</trkpt>
<trkpt lat="59.0879630" lon="30.0413080">
<ele>76.382881</ele>
<time>2026-04-25T09:57:06.002Z</time>
</trkpt>
<trkpt lat="59.0879920" lon="30.0414710">
<ele>74.767441</ele>
<time>2026-04-25T09:57:22.997Z</time>
</trkpt>
<trkpt lat="59.0881460" lon="30.0415350">
<ele>73.243439</ele>
<time>2026-04-25T09:57:50.999Z</time>
</trkpt>
<trkpt lat="59.0881670" lon="30.0416150">
<ele>72.572884</ele>
<time>2026-04-25T09:58:03.000Z</time>
</trkpt>
<trkpt lat="59.0881860" lon="30.0418650">
<ele>74.736961</ele>
<time>2026-04-25T09:58:32.998Z</time>
</trkpt>
<trkpt lat="59.0882560" lon="30.0421430">
<ele>74.462639</ele>
<time>2026-04-25T09:58:59.998Z</time>
</trkpt>
<trkpt lat="59.0882520" lon="30.0424500">
<ele>72.877686</ele>
<time>2026-04-25T09:59:32.001Z</time>
</trkpt>
<trkpt lat="59.0882710" lon="30.0424940">
<ele>73.883514</ele>
<time>2026-04-25T09:59:55.000Z</time>
</trkpt>
<trkpt lat="59.0883150" lon="30.0424450">
<ele>73.304398</ele>
<time>2026-04-25T10:00:55.999Z</time>
</trkpt>
<trkpt lat="59.0883080" lon="30.0428160">
<ele>76.321915</ele>
<time>2026-04-25T10:02:46.997Z</time>
</trkpt>
<trkpt lat="59.0882720" lon="30.0429430">
<ele>81.473038</ele>
<time>2026-04-25T10:03:47.002Z</time>
</trkpt>
<trkpt lat="59.0883670" lon="30.0428960">
<ele>79.339439</ele>
<time>2026-04-25T10:04:44.000Z</time>
</trkpt>
<trkpt lat="59.0883830" lon="30.0429280">
<ele>85.252563</ele>
<time>2026-04-25T10:05:13.998Z</time>
</trkpt>
<trkpt lat="59.0883580" lon="30.0429400">
<ele>89.367363</ele>
<time>2026-04-25T10:06:41.003Z</time>
</trkpt>
<trkpt lat="59.0883450" lon="30.0428750">
<ele>84.917282</ele>
<time>2026-04-25T10:08:18.997Z</time>
</trkpt>
<trkpt lat="59.0883920" lon="30.0428870">
<ele>89.519760</ele>
<time>2026-04-25T10:08:49.004Z</time>
</trkpt>
<trkpt lat="59.0883370" lon="30.0428410">
<ele>82.326485</ele>
<time>2026-04-25T10:09:59.999Z</time>
</trkpt>
<trkpt lat="59.0883470" lon="30.0429270">
<ele>82.356964</ele>
<time>2026-04-25T10:12:24.002Z</time>
</trkpt>
<trkpt lat="59.0883770" lon="30.0429230">
<ele>85.344002</ele>
<time>2026-04-25T10:13:53.003Z</time>
</trkpt>
<trkpt lat="59.0884700" lon="30.0428130">
<ele>81.381599</ele>
<time>2026-04-25T10:17:22.004Z</time>
</trkpt>
<trkpt lat="59.0884860" lon="30.0427320">
<ele>80.162399</ele>
<time>2026-04-25T10:17:41.997Z</time>
</trkpt>
<trkpt lat="59.0887590" lon="30.0426130">
<ele>90.037918</ele>
<time>2026-04-25T10:19:41.998Z</time>
</trkpt>
<trkpt lat="59.0887930" lon="30.0421600">
<ele>82.174080</ele>
<time>2026-04-25T10:20:31.004Z</time>
</trkpt>
<trkpt lat="59.0887700" lon="30.0421040">
<ele>82.295998</ele>
<time>2026-04-25T10:20:42.003Z</time>
</trkpt>
<trkpt lat="59.0888290" lon="30.0419230">
<ele>73.670158</ele>
<time>2026-04-25T10:21:28.996Z</time>
</trkpt>
<trkpt lat="59.0884720" lon="30.0412030">
<ele>76.352402</ele>
<time>2026-04-25T10:23:19.000Z</time>
</trkpt>
<trkpt lat="59.0884660" lon="30.0411360">
<ele>79.034637</ele>
<time>2026-04-25T10:23:58.001Z</time>
</trkpt>
<trkpt lat="59.0884980" lon="30.0410840">
<ele>86.106003</ele>
<time>2026-04-25T10:24:50.999Z</time>
</trkpt>
<trkpt lat="59.0884560" lon="30.0411090">
<ele>88.422485</ele>
<time>2026-04-25T10:25:44.999Z</time>
</trkpt>
<trkpt lat="59.0884820" lon="30.0409740">
<ele>87.020401</ele>
<time>2026-04-25T10:27:00.996Z</time>
</trkpt>
<trkpt lat="59.0884500" lon="30.0404050">
<ele>80.741516</ele>
<time>2026-04-25T10:27:49.000Z</time>
</trkpt>
<trkpt lat="59.0884060" lon="30.0400700">
<ele>78.364082</ele>
<time>2026-04-25T10:28:16.000Z</time>
</trkpt>
<trkpt lat="59.0883640" lon="30.0400300">
<ele>79.583282</ele>
<time>2026-04-25T10:28:25.003Z</time>
</trkpt>
<trkpt lat="59.0883480" lon="30.0398010">
<ele>78.333603</ele>
<time>2026-04-25T10:28:44.003Z</time>
</trkpt>
<trkpt lat="59.0883860" lon="30.0394370">
<ele>75.194160</ele>
<time>2026-04-25T10:29:19.997Z</time>
</trkpt>
<trkpt lat="59.0883670" lon="30.0393660">
<ele>79.217522</ele>
<time>2026-04-25T10:30:23.000Z</time>
</trkpt>
<trkpt lat="59.0883970" lon="30.0393290">
<ele>82.692238</ele>
<time>2026-04-25T10:32:47.003Z</time>
</trkpt>
<trkpt lat="59.0883880" lon="30.0393690">
<ele>79.827118</ele>
<time>2026-04-25T10:33:36.000Z</time>
</trkpt>
<trkpt lat="59.0884280" lon="30.0393760">
<ele>81.686401</ele>
<time>2026-04-25T10:36:20.998Z</time>
</trkpt>
<trkpt lat="59.0884240" lon="30.0393340">
<ele>81.960716</ele>
<time>2026-04-25T10:36:43.998Z</time>
</trkpt>
<trkpt lat="59.0883810" lon="30.0393530">
<ele>83.179916</ele>
<time>2026-04-25T10:37:13.002Z</time>
</trkpt>
<trkpt lat="59.0884290" lon="30.0393330">
<ele>76.413361</ele>
<time>2026-04-25T10:38:29.000Z</time>
</trkpt>
<trkpt lat="59.0884380" lon="30.0392670">
<ele>80.192879</ele>
<time>2026-04-25T10:39:24.002Z</time>
</trkpt>
<trkpt lat="59.0883710" lon="30.0392380">
<ele>77.723999</ele>
<time>2026-04-25T10:40:29.001Z</time>
</trkpt>
<trkpt lat="59.0882890" lon="30.0390580">
<ele>75.773285</ele>
<time>2026-04-25T10:40:50.998Z</time>
</trkpt>
<trkpt lat="59.0882290" lon="30.0381710">
<ele>77.114403</ele>
<time>2026-04-25T10:42:26.997Z</time>
</trkpt>
<trkpt lat="59.0882640" lon="30.0380030">
<ele>77.815437</ele>
<time>2026-04-25T10:42:57.004Z</time>
</trkpt>
<trkpt lat="59.0882650" lon="30.0375540">
<ele>76.596237</ele>
<time>2026-04-25T10:44:14.997Z</time>
</trkpt>
<trkpt lat="59.0882910" lon="30.0375060">
<ele>73.944481</ele>
<time>2026-04-25T10:45:05.999Z</time>
</trkpt>
<trkpt lat="59.0882700" lon="30.0375080">
<ele>82.692238</ele>
<time>2026-04-25T10:45:59.999Z</time>
</trkpt>
<trkpt lat="59.0882860" lon="30.0373360">
<ele>74.432159</ele>
<time>2026-04-25T10:47:33.000Z</time>
</trkpt>
<trkpt lat="59.0881800" lon="30.0370650">
<ele>76.504799</ele>
<time>2026-04-25T10:48:25.004Z</time>
</trkpt>
<trkpt lat="59.0881940" lon="30.0366770">
<ele>72.176643</ele>
<time>2026-04-25T10:49:22.002Z</time>
</trkpt>
<trkpt lat="59.0880960" lon="30.0365740">
<ele>71.170799</ele>
<time>2026-04-25T10:49:38.997Z</time>
</trkpt>
<trkpt lat="59.0879140" lon="30.0364770">
<ele>74.615044</ele>
<time>2026-04-25T10:50:23.001Z</time>
</trkpt>
<trkpt lat="59.0878930" lon="30.0363000">
<ele>74.615044</ele>
<time>2026-04-25T10:50:54.001Z</time>
</trkpt>
<trkpt lat="59.0878500" lon="30.0362420">
<ele>77.754478</ele>
<time>2026-04-25T10:51:10.002Z</time>
</trkpt>
<trkpt lat="59.0878190" lon="30.0362160">
<ele>80.558640</ele>
<time>2026-04-25T10:51:32.000Z</time>
</trkpt>
<trkpt lat="59.0877670" lon="30.0362910">
<ele>83.576164</ele>
<time>2026-04-25T10:52:35.003Z</time>
</trkpt>
<trkpt lat="59.0879500" lon="30.0358440">
<ele>81.808319</ele>
<time>2026-04-25T10:55:28.001Z</time>
</trkpt>
<trkpt lat="59.0878830" lon="30.0353600">
<ele>84.399117</ele>
<time>2026-04-25T10:57:28.996Z</time>
</trkpt>
<trkpt lat="59.0879160" lon="30.0352410">
<ele>83.210403</ele>
<time>2026-04-25T10:57:48.997Z</time>
</trkpt>
<trkpt lat="59.0879010" lon="30.0351860">
<ele>82.722717</ele>
<time>2026-04-25T10:58:03.996Z</time>
</trkpt>
<trkpt lat="59.0879670" lon="30.0350440">
<ele>91.135201</ele>
<time>2026-04-25T10:59:33.999Z</time>
</trkpt>
<trkpt lat="59.0879510" lon="30.0350850">
<ele>78.059280</ele>
<time>2026-04-25T11:00:05.000Z</time>
</trkpt>
<trkpt lat="59.0879300" lon="30.0350210">
<ele>80.253838</ele>
<time>2026-04-25T11:01:39.003Z</time>
</trkpt>
<trkpt lat="59.0879930" lon="30.0349760">
<ele>76.413361</ele>
<time>2026-04-25T11:02:40.001Z</time>
</trkpt>
<trkpt lat="59.0880260" lon="30.0348190">
<ele>80.467201</ele>
<time>2026-04-25T11:03:03.001Z</time>
</trkpt>
<trkpt lat="59.0878090" lon="30.0343870">
<ele>85.130638</ele>
<time>2026-04-25T11:04:44.003Z</time>
</trkpt>
<trkpt lat="59.0877790" lon="30.0342100">
<ele>86.502235</ele>
<time>2026-04-25T11:05:07.002Z</time>
</trkpt>
<trkpt lat="59.0878210" lon="30.0337500">
<ele>85.953598</ele>
<time>2026-04-25T11:06:09.003Z</time>
</trkpt>
<trkpt lat="59.0877550" lon="30.0336920">
<ele>81.655922</ele>
<time>2026-04-25T11:07:49.002Z</time>
</trkpt>
<trkpt lat="59.0877530" lon="30.0336500">
<ele>89.245438</ele>
<time>2026-04-25T11:08:20.003Z</time>
</trkpt>
<trkpt lat="59.0877830" lon="30.0336400">
<ele>81.869286</ele>
<time>2026-04-25T11:09:11.998Z</time>
</trkpt>
<trkpt lat="59.0878160" lon="30.0337070">
<ele>82.631279</ele>
<time>2026-04-25T11:09:41.003Z</time>
</trkpt>
<trkpt lat="59.0877480" lon="30.0337470">
<ele>86.715599</ele>
<time>2026-04-25T11:10:40.999Z</time>
</trkpt>
<trkpt lat="59.0877320" lon="30.0335700">
<ele>87.782402</ele>
<time>2026-04-25T11:12:04.997Z</time>
</trkpt>
<trkpt lat="59.0878130" lon="30.0333690">
<ele>75.834244</ele>
<time>2026-04-25T11:12:43.004Z</time>
</trkpt>
<trkpt lat="59.0878220" lon="30.0332450">
<ele>80.253838</ele>
<time>2026-04-25T11:13:06.997Z</time>
</trkpt>
<trkpt lat="59.0879520" lon="30.0331570">
<ele>81.198715</ele>
<time>2026-04-25T11:14:31.004Z</time>
</trkpt>
<trkpt lat="59.0880950" lon="30.0334240">
<ele>82.905602</ele>
<time>2026-04-25T11:15:32.996Z</time>
</trkpt>
<trkpt lat="59.0880270" lon="30.0337640">
<ele>83.118965</ele>
<time>2026-04-25T11:16:07.003Z</time>
</trkpt>
<trkpt lat="59.0880830" lon="30.0339680">
<ele>82.387436</ele>
<time>2026-04-25T11:17:01.003Z</time>
</trkpt>
<trkpt lat="59.0880780" lon="30.0344730">
<ele>78.486000</ele>
<time>2026-04-25T11:18:00.999Z</time>
</trkpt>
<trkpt lat="59.0880640" lon="30.0345750">
<ele>79.004166</ele>
<time>2026-04-25T11:18:18.996Z</time>
</trkpt>
<trkpt lat="59.0880380" lon="30.0345670">
<ele>78.455521</ele>
<time>2026-04-25T11:18:38.998Z</time>
</trkpt>
<trkpt lat="59.0880730" lon="30.0346110">
<ele>80.223366</ele>
<time>2026-04-25T11:21:00.003Z</time>
</trkpt>
<trkpt lat="59.0880640" lon="30.0348670">
<ele>77.693520</ele>
<time>2026-04-25T11:21:54.996Z</time>
</trkpt>
<trkpt lat="59.0882250" lon="30.0349030">
<ele>70.195442</ele>
<time>2026-04-25T11:22:29.997Z</time>
</trkpt>
<trkpt lat="59.0882830" lon="30.0351930">
<ele>74.432159</ele>
<time>2026-04-25T11:23:26.002Z</time>
</trkpt>
<trkpt lat="59.0881790" lon="30.0353480">
<ele>73.365356</ele>
<time>2026-04-25T11:23:57.002Z</time>
</trkpt>
<trkpt lat="59.0881870" lon="30.0355010">
<ele>71.384155</ele>
<time>2026-04-25T11:24:14.999Z</time>
</trkpt>
<trkpt lat="59.0882400" lon="30.0355080">
<ele>65.958717</ele>
<time>2026-04-25T11:24:27.000Z</time>
</trkpt>
<trkpt lat="59.0883420" lon="30.0357500">
<ele>68.427597</ele>
<time>2026-04-25T11:25:19.998Z</time>
</trkpt>
<trkpt lat="59.0882200" lon="30.0361040">
<ele>67.147438</ele>
<time>2026-04-25T11:26:16.002Z</time>
</trkpt>
<trkpt lat="59.0882530" lon="30.0361360">
<ele>74.676003</ele>
<time>2026-04-25T11:27:30.004Z</time>
</trkpt>
<trkpt lat="59.0882430" lon="30.0360770">
<ele>77.663040</ele>
<time>2026-04-25T11:28:28.998Z</time>
</trkpt>
<trkpt lat="59.0881710" lon="30.0361030">
<ele>73.670158</ele>
<time>2026-04-25T11:29:13.001Z</time>
</trkpt>
<trkpt lat="59.0881780" lon="30.0363580">
<ele>74.615044</ele>
<time>2026-04-25T11:29:48.002Z</time>
</trkpt>
<trkpt lat="59.0882150" lon="30.0363230">
<ele>74.950317</ele>
<time>2026-04-25T11:30:27.003Z</time>
</trkpt>
<trkpt lat="59.0882170" lon="30.0362540">
<ele>72.999603</ele>
<time>2026-04-25T11:30:47.998Z</time>
</trkpt>
<trkpt lat="59.0882840" lon="30.0362680">
<ele>68.214241</ele>
<time>2026-04-25T11:31:09.002Z</time>
</trkpt>
<trkpt lat="59.0883450" lon="30.0363730">
<ele>71.018402</ele>
<time>2026-04-25T11:31:25.997Z</time>
</trkpt>
<trkpt lat="59.0883430" lon="30.0365340">
<ele>70.744080</ele>
<time>2026-04-25T11:31:51.001Z</time>
</trkpt>
<trkpt lat="59.0884330" lon="30.0364940">
<ele>74.676003</ele>
<time>2026-04-25T11:32:19.997Z</time>
</trkpt>
<trkpt lat="59.0884680" lon="30.0365750">
<ele>71.627998</ele>
<time>2026-04-25T11:32:31.998Z</time>
</trkpt>
<trkpt lat="59.0884770" lon="30.0368690">
<ele>66.812157</ele>
<time>2026-04-25T11:33:14.999Z</time>
</trkpt>
<trkpt lat="59.0884060" lon="30.0371950">
<ele>68.640961</ele>
<time>2026-04-25T11:34:02.001Z</time>
</trkpt>
<trkpt lat="59.0884850" lon="30.0375860">
<ele>68.458084</ele>
<time>2026-04-25T11:34:53.003Z</time>
</trkpt>
<trkpt lat="59.0884810" lon="30.0377150">
<ele>68.061844</ele>
<time>2026-04-25T11:35:06.999Z</time>
</trkpt>
<trkpt lat="59.0884270" lon="30.0378480">
<ele>67.939919</ele>
<time>2026-04-25T11:35:32.004Z</time>
</trkpt>
<trkpt lat="59.0883980" lon="30.0378390">
<ele>68.061844</ele>
<time>2026-04-25T11:36:03.997Z</time>
</trkpt>
<trkpt lat="59.0885680" lon="30.0382380">
<ele>62.453518</ele>
<time>2026-04-25T11:37:01.004Z</time>
</trkpt>
<trkpt lat="59.0886030" lon="30.0385140">
<ele>63.825119</ele>
<time>2026-04-25T11:37:40.999Z</time>
</trkpt>
<trkpt lat="59.0886400" lon="30.0385390">
<ele>71.140320</ele>
<time>2026-04-25T11:39:12.997Z</time>
</trkpt>
<trkpt lat="59.0886090" lon="30.0385590">
<ele>71.506081</ele>
<time>2026-04-25T11:40:06.997Z</time>
</trkpt>
<trkpt lat="59.0886540" lon="30.0387960">
<ele>69.037201</ele>
<time>2026-04-25T11:40:56.997Z</time>
</trkpt>
<trkpt lat="59.0887010" lon="30.0388120">
<ele>69.433441</ele>
<time>2026-04-25T11:41:23.004Z</time>
</trkpt>
<trkpt lat="59.0886360" lon="30.0391520">
<ele>67.452240</ele>
<time>2026-04-25T11:42:05.996Z</time>
</trkpt>
<trkpt lat="59.0887150" lon="30.0392030">
<ele>65.836800</ele>
<time>2026-04-25T11:42:24.002Z</time>
</trkpt>
<trkpt lat="59.0887440" lon="30.0394560">
<ele>66.934082</ele>
<time>2026-04-25T11:42:43.001Z</time>
</trkpt>
<trkpt lat="59.0889270" lon="30.0401030">
<ele>68.000885</ele>
<time>2026-04-25T11:44:00.001Z</time>
</trkpt>
<trkpt lat="59.0889110" lon="30.0404520">
<ele>70.865997</ele>
<time>2026-04-25T11:45:10.996Z</time>
</trkpt>
<trkpt lat="59.0889280" lon="30.0404900">
<ele>73.761597</ele>
<time>2026-04-25T11:46:40.999Z</time>
</trkpt>
<trkpt lat="59.0889420" lon="30.0404400">
<ele>76.474319</ele>
<time>2026-04-25T11:47:03.998Z</time>
</trkpt>
<trkpt lat="59.0889470" lon="30.0405540">
<ele>73.243439</ele>
<time>2026-04-25T11:48:04.997Z</time>
</trkpt>
<trkpt lat="59.0890130" lon="30.0406090">
<ele>71.475601</ele>
<time>2026-04-25T11:48:27.996Z</time>
</trkpt>
<trkpt lat="59.0890380" lon="30.0406970">
<ele>70.500244</ele>
<time>2026-04-25T11:48:41.000Z</time>
</trkpt>
<trkpt lat="59.0890280" lon="30.0407950">
<ele>69.037201</ele>
<time>2026-04-25T11:48:54.003Z</time>
</trkpt>
<trkpt lat="59.0890480" lon="30.0407940">
<ele>68.488556</ele>
<time>2026-04-25T11:49:13.002Z</time>
</trkpt>
<trkpt lat="59.0890140" lon="30.0409920">
<ele>70.164963</ele>
<time>2026-04-25T11:49:52.003Z</time>
</trkpt>
<trkpt lat="59.0888660" lon="30.0412050">
<ele>67.299843</ele>
<time>2026-04-25T11:50:34.996Z</time>
</trkpt>
<trkpt lat="59.0888550" lon="30.0413870">
<ele>67.604637</ele>
<time>2026-04-25T11:51:02.998Z</time>
</trkpt>
<trkpt lat="59.0889870" lon="30.0414090">
<ele>65.775841</ele>
<time>2026-04-25T11:51:33.998Z</time>
</trkpt>
<trkpt lat="59.0891410" lon="30.0415660">
<ele>64.769997</ele>
<time>2026-04-25T11:52:11.997Z</time>
</trkpt>
<trkpt lat="59.0890350" lon="30.0420180">
<ele>64.282318</ele>
<time>2026-04-25T11:55:59.998Z</time>
</trkpt>
<trkpt lat="59.0891130" lon="30.0422330">
<ele>63.825119</ele>
<time>2026-04-25T11:56:25.996Z</time>
</trkpt>
<trkpt lat="59.0892310" lon="30.0421430">
<ele>64.160400</ele>
<time>2026-04-25T11:57:55.999Z</time>
</trkpt>
<trkpt lat="59.0894680" lon="30.0420870">
<ele>62.209682</ele>
<time>2026-04-25T11:58:56.997Z</time>
</trkpt>
<trkpt lat="59.0894730" lon="30.0416990">
<ele>66.080643</ele>
<time>2026-04-25T11:59:41.001Z</time>
</trkpt>
<trkpt lat="59.0893560" lon="30.0409070">
<ele>66.690239</ele>
<time>2026-04-25T12:00:37.999Z</time>
</trkpt>
<trkpt lat="59.0893610" lon="30.0406020">
<ele>66.964561</ele>
<time>2026-04-25T12:01:18.002Z</time>
</trkpt>
<trkpt lat="59.0892520" lon="30.0403680">
<ele>67.818001</ele>
<time>2026-04-25T12:02:05.004Z</time>
</trkpt>
<trkpt lat="59.0892110" lon="30.0404590">
<ele>69.707756</ele>
<time>2026-04-25T12:04:54.002Z</time>
</trkpt>
<trkpt lat="59.0892390" lon="30.0403000">
<ele>63.947041</ele>
<time>2026-04-25T12:08:20.999Z</time>
</trkpt>
<trkpt lat="59.0892000" lon="30.0402390">
<ele>66.019684</ele>
<time>2026-04-25T12:08:51.999Z</time>
</trkpt>
<trkpt lat="59.0892350" lon="30.0402970">
<ele>69.646797</ele>
<time>2026-04-25T12:10:53.996Z</time>
</trkpt>
<trkpt lat="59.0891960" lon="30.0399760">
<ele>64.587120</ele>
<time>2026-04-25T12:11:32.997Z</time>
</trkpt>
<trkpt lat="59.0889390" lon="30.0390530">
<ele>64.891914</ele>
<time>2026-04-25T12:12:54.999Z</time>
</trkpt>
<trkpt lat="59.0889630" lon="30.0387590">
<ele>67.970398</ele>
<time>2026-04-25T12:13:26.000Z</time>
</trkpt>
<trkpt lat="59.0888800" lon="30.0384810">
<ele>65.745361</ele>
<time>2026-04-25T12:13:53.000Z</time>
</trkpt>
<trkpt lat="59.0889660" lon="30.0380030">
<ele>64.648079</ele>
<time>2026-04-25T12:14:55.000Z</time>
</trkpt>
<trkpt lat="59.0889460" lon="30.0378890">
<ele>64.922401</ele>
<time>2026-04-25T12:15:08.997Z</time>
</trkpt>
<trkpt lat="59.0889130" lon="30.0378130">
<ele>68.762878</ele>
<time>2026-04-25T12:15:26.001Z</time>
</trkpt>
<trkpt lat="59.0888510" lon="30.0377950">
<ele>79.248001</ele>
<time>2026-04-25T12:16:48.003Z</time>
</trkpt>
<trkpt lat="59.0888050" lon="30.0376000">
<ele>69.707756</ele>
<time>2026-04-25T12:18:55.996Z</time>
</trkpt>
<trkpt lat="59.0889140" lon="30.0374490">
<ele>63.337440</ele>
<time>2026-04-25T12:19:26.996Z</time>
</trkpt>
<trkpt lat="59.0889210" lon="30.0373330">
<ele>66.446404</ele>
<time>2026-04-25T12:19:41.002Z</time>
</trkpt>
<trkpt lat="59.0889750" lon="30.0372460">
<ele>67.604637</ele>
<time>2026-04-25T12:19:58.999Z</time>
</trkpt>
<trkpt lat="59.0887500" lon="30.0363070">
<ele>74.767441</ele>
<time>2026-04-25T12:21:57.997Z</time>
</trkpt>
<trkpt lat="59.0886440" lon="30.0362640">
<ele>72.420479</ele>
<time>2026-04-25T12:22:59.998Z</time>
</trkpt>
<trkpt lat="59.0886610" lon="30.0363160">
<ele>74.615044</ele>
<time>2026-04-25T12:23:29.003Z</time>
</trkpt>
<trkpt lat="59.0886270" lon="30.0363520">
<ele>87.721436</ele>
<time>2026-04-25T12:24:00.003Z</time>
</trkpt>
<trkpt lat="59.0886770" lon="30.0363300">
<ele>78.973679</ele>
<time>2026-04-25T12:24:55.999Z</time>
</trkpt>
<trkpt lat="59.0886620" lon="30.0362830">
<ele>76.992485</ele>
<time>2026-04-25T12:25:17.996Z</time>
</trkpt>
<trkpt lat="59.0886590" lon="30.0363440">
<ele>77.571602</ele>
<time>2026-04-25T12:25:35.000Z</time>
</trkpt>
<trkpt lat="59.0885900" lon="30.0364310">
<ele>71.780403</ele>
<time>2026-04-25T12:25:59.002Z</time>
</trkpt>
<trkpt lat="59.0886440" lon="30.0364130">
<ele>69.616318</ele>
<time>2026-04-25T12:26:12.998Z</time>
</trkpt>
<trkpt lat="59.0887410" lon="30.0360230">
<ele>66.111115</ele>
<time>2026-04-25T12:26:50.997Z</time>
</trkpt>
<trkpt lat="59.0887030" lon="30.0359220">
<ele>67.147438</ele>
<time>2026-04-25T12:27:06.998Z</time>
</trkpt>
<trkpt lat="59.0886750" lon="30.0361570">
<ele>71.506081</ele>
<time>2026-04-25T12:28:30.003Z</time>
</trkpt>
<trkpt lat="59.0886890" lon="30.0360260">
<ele>79.888084</ele>
<time>2026-04-25T12:29:17.998Z</time>
</trkpt>
<trkpt lat="59.0885890" lon="30.0356750">
<ele>75.163681</ele>
<time>2026-04-25T12:30:19.999Z</time>
</trkpt>
<trkpt lat="59.0885430" lon="30.0352330">
<ele>65.349121</ele>
<time>2026-04-25T12:30:45.996Z</time>
</trkpt>
<trkpt lat="59.0885600" lon="30.0350780">
<ele>67.086479</ele>
<time>2026-04-25T12:31:05.998Z</time>
</trkpt>
<trkpt lat="59.0885150" lon="30.0351930">
<ele>82.722717</ele>
<time>2026-04-25T12:32:25.002Z</time>
</trkpt>
<trkpt lat="59.0885550" lon="30.0350840">
<ele>65.684402</ele>
<time>2026-04-25T12:34:47.001Z</time>
</trkpt>
<trkpt lat="59.0885450" lon="30.0350150">
<ele>68.427597</ele>
<time>2026-04-25T12:35:14.001Z</time>
</trkpt>
<trkpt lat="59.0885050" lon="30.0350380">
<ele>67.848480</ele>
<time>2026-04-25T12:35:45.001Z</time>
</trkpt>
<trkpt lat="59.0886350" lon="30.0344980">
<ele>69.890640</ele>
<time>2026-04-25T12:37:41.002Z</time>
</trkpt>
<trkpt lat="59.0886460" lon="30.0343790">
<ele>70.043037</ele>
<time>2026-04-25T12:38:00.001Z</time>
</trkpt>
<trkpt lat="59.0886070" lon="30.0342030">
<ele>68.458084</ele>
<time>2026-04-25T12:38:19.000Z</time>
</trkpt>
<trkpt lat="59.0886290" lon="30.0341300">
<ele>74.493118</ele>
<time>2026-04-25T12:38:40.998Z</time>
</trkpt>
<trkpt lat="59.0888000" lon="30.0341070">
<ele>74.584557</ele>
<time>2026-04-25T12:39:36.000Z</time>
</trkpt>
<trkpt lat="59.0888440" lon="30.0341270">
<ele>77.266800</ele>
<time>2026-04-25T12:39:49.997Z</time>
</trkpt>
<trkpt lat="59.0888620" lon="30.0342770">
<ele>78.455521</ele>
<time>2026-04-25T12:40:31.002Z</time>
</trkpt>
<trkpt lat="59.0888000" lon="30.0344360">
<ele>73.212959</ele>
<time>2026-04-25T12:40:50.002Z</time>
</trkpt>
<trkpt lat="59.0888120" lon="30.0345390">
<ele>73.792084</ele>
<time>2026-04-25T12:41:06.003Z</time>
</trkpt>
<trkpt lat="59.0888790" lon="30.0346060">
<ele>76.840080</ele>
<time>2026-04-25T12:41:36.001Z</time>
</trkpt>
<trkpt lat="59.0889340" lon="30.0350250">
<ele>72.511917</ele>
<time>2026-04-25T12:42:30.001Z</time>
</trkpt>
<trkpt lat="59.0888700" lon="30.0352550">
<ele>70.439285</ele>
<time>2026-04-25T12:43:01.001Z</time>
</trkpt>
<trkpt lat="59.0889220" lon="30.0353510">
<ele>67.909439</ele>
<time>2026-04-25T12:43:14.998Z</time>
</trkpt>
<trkpt lat="59.0889270" lon="30.0357010">
<ele>61.843918</ele>
<time>2026-04-25T12:44:00.004Z</time>
</trkpt>
<trkpt lat="59.0890540" lon="30.0355470">
<ele>58.734959</ele>
<time>2026-04-25T12:44:27.997Z</time>
</trkpt>
<trkpt lat="59.0890970" lon="30.0355860">
<ele>58.552082</ele>
<time>2026-04-25T12:45:09.996Z</time>
</trkpt>
<trkpt lat="59.0891660" lon="30.0355170">
<ele>77.175362</ele>
<time>2026-04-25T12:46:29.001Z</time>
</trkpt>
<trkpt lat="59.0892110" lon="30.0355660">
<ele>80.893921</ele>
<time>2026-04-25T12:46:56.001Z</time>
</trkpt>
<trkpt lat="59.0890840" lon="30.0357330">
<ele>72.725281</ele>
<time>2026-04-25T12:47:42.000Z</time>
</trkpt>
<trkpt lat="59.0890770" lon="30.0358120">
<ele>70.805038</ele>
<time>2026-04-25T12:48:00.999Z</time>
</trkpt>
<trkpt lat="59.0891400" lon="30.0360460">
<ele>78.333603</ele>
<time>2026-04-25T12:49:07.000Z</time>
</trkpt>
<trkpt lat="59.0891160" lon="30.0361800">
<ele>75.712318</ele>
<time>2026-04-25T12:49:47.997Z</time>
</trkpt>
<trkpt lat="59.0889880" lon="30.0363760">
<ele>74.005440</ele>
<time>2026-04-25T12:50:52.996Z</time>
</trkpt>
<trkpt lat="59.0890790" lon="30.0367450">
<ele>73.853043</ele>
<time>2026-04-25T12:51:27.003Z</time>
</trkpt>
<trkpt lat="59.0891330" lon="30.0368160">
<ele>75.316078</ele>
<time>2026-04-25T12:51:41.000Z</time>
</trkpt>
<trkpt lat="59.0893790" lon="30.0368780">
<ele>70.225922</ele>
<time>2026-04-25T12:52:29.997Z</time>
</trkpt>
<trkpt lat="59.0892320" lon="30.0373870">
<ele>70.073517</ele>
<time>2026-04-25T12:53:30.002Z</time>
</trkpt>
<trkpt lat="59.0892080" lon="30.0375680">
<ele>68.610481</ele>
<time>2026-04-25T12:53:46.997Z</time>
</trkpt>
<trkpt lat="59.0891730" lon="30.0376270">
<ele>69.890640</ele>
<time>2026-04-25T12:54:05.003Z</time>
</trkpt>
<trkpt lat="59.0892000" lon="30.0378470">
<ele>68.976242</ele>
<time>2026-04-25T12:54:32.003Z</time>
</trkpt>
<trkpt lat="59.0892510" lon="30.0378690">
<ele>67.452240</ele>
<time>2026-04-25T12:54:45.999Z</time>
</trkpt>
<trkpt lat="59.0892770" lon="30.0380440">
<ele>67.787521</ele>
<time>2026-04-25T12:55:15.004Z</time>
</trkpt>
<trkpt lat="59.0893090" lon="30.0380060">
<ele>67.757042</ele>
<time>2026-04-25T12:55:45.002Z</time>
</trkpt>
<trkpt lat="59.0892800" lon="30.0380840">
<ele>72.085197</ele>
<time>2026-04-25T12:57:03.997Z</time>
</trkpt>
<trkpt lat="59.0893080" lon="30.0380690">
<ele>70.164963</ele>
<time>2026-04-25T12:57:32.000Z</time>
</trkpt>
<trkpt lat="59.0892400" lon="30.0380300">
<ele>64.099442</ele>
<time>2026-04-25T12:58:28.998Z</time>
</trkpt>
<trkpt lat="59.0892650" lon="30.0381610">
<ele>61.661041</ele>
<time>2026-04-25T12:58:51.004Z</time>
</trkpt>
<trkpt lat="59.0893440" lon="30.0382850">
<ele>67.635117</ele>
<time>2026-04-25T12:59:06.996Z</time>
</trkpt>
<trkpt lat="59.0894510" lon="30.0390700">
<ele>70.408798</ele>
<time>2026-04-25T13:00:19.002Z</time>
</trkpt>
<trkpt lat="59.0895180" lon="30.0392960">
<ele>67.909439</ele>
<time>2026-04-25T13:00:54.996Z</time>
</trkpt>
<trkpt lat="59.0894920" lon="30.0394370">
<ele>66.720718</ele>
<time>2026-04-25T13:01:09.002Z</time>
</trkpt>
<trkpt lat="59.0894830" lon="30.0397870">
<ele>67.757042</ele>
<time>2026-04-25T13:02:37.000Z</time>
</trkpt>
<trkpt lat="59.0896160" lon="30.0403960">
<ele>68.061844</ele>
<time>2026-04-25T13:04:53.003Z</time>
</trkpt>
<trkpt lat="59.0895960" lon="30.0405120">
<ele>70.774559</ele>
<time>2026-04-25T13:05:43.996Z</time>
</trkpt>
<trkpt lat="59.0896470" lon="30.0406590">
<ele>73.548241</ele>
<time>2026-04-25T13:06:19.999Z</time>
</trkpt>
<trkpt lat="59.0896450" lon="30.0407870">
<ele>70.134483</ele>
<time>2026-04-25T13:06:38.998Z</time>
</trkpt>
<trkpt lat="59.0896150" lon="30.0408530">
<ele>69.128639</ele>
<time>2026-04-25T13:06:53.997Z</time>
</trkpt>
<trkpt lat="59.0896230" lon="30.0409630">
<ele>68.793358</ele>
<time>2026-04-25T13:07:08.996Z</time>
</trkpt>
<trkpt lat="59.0896440" lon="30.0409720">
<ele>81.137764</ele>
<time>2026-04-25T13:08:56.003Z</time>
</trkpt>
<trkpt lat="59.0896160" lon="30.0409800">
<ele>80.192879</ele>
<time>2026-04-25T13:09:54.003Z</time>
</trkpt>
<trkpt lat="59.0896890" lon="30.0409990">
<ele>74.584557</ele>
<time>2026-04-25T13:10:55.001Z</time>
</trkpt>
<trkpt lat="59.0898480" lon="30.0412460">
<ele>75.285599</ele>
<time>2026-04-25T13:11:58.004Z</time>
</trkpt>
<trkpt lat="59.0898560" lon="30.0415800">
<ele>70.164963</ele>
<time>2026-04-25T13:12:59.996Z</time>
</trkpt>
<trkpt lat="59.0899600" lon="30.0419350">
<ele>77.144882</ele>
<time>2026-04-25T13:14:42.000Z</time>
</trkpt>
<trkpt lat="59.0901000" lon="30.0419190">
<ele>79.339439</ele>
<time>2026-04-25T13:15:32.000Z</time>
</trkpt>
<trkpt lat="59.0901420" lon="30.0418120">
<ele>80.772003</ele>
<time>2026-04-25T13:15:49.997Z</time>
</trkpt>
<trkpt lat="59.0902310" lon="30.0418490">
<ele>79.156563</ele>
<time>2026-04-25T13:16:09.998Z</time>
</trkpt>
<trkpt lat="59.0902680" lon="30.0417890">
<ele>79.126083</ele>
<time>2026-04-25T13:16:27.002Z</time>
</trkpt>
<trkpt lat="59.0903090" lon="30.0416340">
<ele>79.308960</ele>
<time>2026-04-25T13:16:44.999Z</time>
</trkpt>
<trkpt lat="59.0902890" lon="30.0414890">
<ele>77.297279</ele>
<time>2026-04-25T13:17:26.998Z</time>
</trkpt>
<trkpt lat="59.0902630" lon="30.0415470">
<ele>89.397835</ele>
<time>2026-04-25T13:18:30.001Z</time>
</trkpt>
<trkpt lat="59.0903170" lon="30.0414480">
<ele>94.518478</ele>
<time>2026-04-25T13:20:03.002Z</time>
</trkpt>
<trkpt lat="59.0902490" lon="30.0414170">
<ele>83.088478</ele>
<time>2026-04-25T13:20:34.996Z</time>
</trkpt>
<trkpt lat="59.0902700" lon="30.0413130">
<ele>88.087196</ele>
<time>2026-04-25T13:22:03.996Z</time>
</trkpt>
<trkpt lat="59.0903120" lon="30.0413860">
<ele>92.720161</ele>
<time>2026-04-25T13:22:26.996Z</time>
</trkpt>
<trkpt lat="59.0902740" lon="30.0413990">
<ele>85.892639</ele>
<time>2026-04-25T13:22:56.001Z</time>
</trkpt>
<trkpt lat="59.0902620" lon="30.0413380">
<ele>86.166962</ele>
<time>2026-04-25T13:23:48.998Z</time>
</trkpt>
<trkpt lat="59.0903180" lon="30.0411700">
<ele>80.284317</ele>
<time>2026-04-25T13:24:37.996Z</time>
</trkpt>
<trkpt lat="59.0902300" lon="30.0409890">
<ele>83.332321</ele>
<time>2026-04-25T13:25:23.002Z</time>
</trkpt>
<trkpt lat="59.0902920" lon="30.0408790">
<ele>87.020401</ele>
<time>2026-04-25T13:25:46.001Z</time>
</trkpt>
<trkpt lat="59.0902990" lon="30.0407540">
<ele>86.624161</ele>
<time>2026-04-25T13:26:06.996Z</time>
</trkpt>
<trkpt lat="59.0902320" lon="30.0405420">
<ele>88.483437</ele>
<time>2026-04-25T13:27:14.000Z</time>
</trkpt>
<trkpt lat="59.0902540" lon="30.0402630">
<ele>83.088478</ele>
<time>2026-04-25T13:28:05.002Z</time>
</trkpt>
<trkpt lat="59.0901810" lon="30.0401290">
<ele>91.318085</ele>
<time>2026-04-25T13:29:33.000Z</time>
</trkpt>
<trkpt lat="59.0901650" lon="30.0401640">
<ele>84.002884</ele>
<time>2026-04-25T13:29:58.998Z</time>
</trkpt>
<trkpt lat="59.0901840" lon="30.0401180">
<ele>85.526878</ele>
<time>2026-04-25T13:30:21.997Z</time>
</trkpt>
<trkpt lat="59.0901310" lon="30.0401410">
<ele>80.528160</ele>
<time>2026-04-25T13:30:44.004Z</time>
</trkpt>
<trkpt lat="59.0901460" lon="30.0398340">
<ele>81.290161</ele>
<time>2026-04-25T13:31:31.999Z</time>
</trkpt>
<trkpt lat="59.0900000" lon="30.0394730">
<ele>83.911438</ele>
<time>2026-04-25T13:32:25.999Z</time>
</trkpt>
<trkpt lat="59.0899380" lon="30.0384710">
<ele>82.174080</ele>
<time>2026-04-25T13:37:51.001Z</time>
</trkpt>
<trkpt lat="59.0900190" lon="30.0384490">
<ele>87.508080</ele>
<time>2026-04-25T13:38:38.003Z</time>
</trkpt>
<trkpt lat="59.0899180" lon="30.0384070">
<ele>82.600800</ele>
<time>2026-04-25T13:39:08.001Z</time>
</trkpt>
<trkpt lat="59.0898140" lon="30.0380790">
<ele>88.666321</ele>
<time>2026-04-25T13:41:01.003Z</time>
</trkpt>
<trkpt lat="59.0898120" lon="30.0377350">
<ele>90.921837</ele>
<time>2026-04-25T13:42:02.002Z</time>
</trkpt>
<trkpt lat="59.0899110" lon="30.0376680">
<ele>85.679283</ele>
<time>2026-04-25T13:42:34.004Z</time>
</trkpt>
<trkpt lat="59.0899550" lon="30.0374230">
<ele>84.764885</ele>
<time>2026-04-25T13:43:39.996Z</time>
</trkpt>
<trkpt lat="59.0897020" lon="30.0374520">
<ele>80.650085</ele>
<time>2026-04-25T13:44:24.000Z</time>
</trkpt>
<trkpt lat="59.0896930" lon="30.0370730">
<ele>81.137764</ele>
<time>2026-04-25T13:44:52.996Z</time>
</trkpt>
<trkpt lat="59.0896740" lon="30.0370110">
<ele>77.998322</ele>
<time>2026-04-25T13:45:46.002Z</time>
</trkpt>
<trkpt lat="59.0896470" lon="30.0370350">
<ele>85.892639</ele>
<time>2026-04-25T13:46:48.003Z</time>
</trkpt>
<trkpt lat="59.0895790" lon="30.0368300">
<ele>88.117683</ele>
<time>2026-04-25T13:48:06.998Z</time>
</trkpt>
<trkpt lat="59.0896750" lon="30.0364140">
<ele>83.301834</ele>
<time>2026-04-25T13:49:15.004Z</time>
</trkpt>
<trkpt lat="59.0897370" lon="30.0363210">
<ele>85.008720</ele>
<time>2026-04-25T13:49:31.999Z</time>
</trkpt>
<trkpt lat="59.0897620" lon="30.0360820">
<ele>88.544403</ele>
<time>2026-04-25T13:50:11.000Z</time>
</trkpt>
<trkpt lat="59.0897070" lon="30.0359860">
<ele>86.532715</ele>
<time>2026-04-25T13:50:32.997Z</time>
</trkpt>
<trkpt lat="59.0895570" lon="30.0359430">
<ele>82.875114</ele>
<time>2026-04-25T13:51:22.003Z</time>
</trkpt>
<trkpt lat="59.0895700" lon="30.0357850">
<ele>88.879684</ele>
<time>2026-04-25T13:51:41.996Z</time>
</trkpt>
<trkpt lat="59.0895270" lon="30.0357270">
<ele>90.647514</ele>
<time>2026-04-25T13:53:07.999Z</time>
</trkpt>
<trkpt lat="59.0895510" lon="30.0357620">
<ele>86.166962</ele>
<time>2026-04-25T13:53:45.004Z</time>
</trkpt>
<trkpt lat="59.0895580" lon="30.0357250">
<ele>84.094315</ele>
<time>2026-04-25T13:54:09.999Z</time>
</trkpt>
<trkpt lat="59.0895470" lon="30.0355640">
<ele>86.045036</ele>
<time>2026-04-25T13:54:55.999Z</time>
</trkpt>
<trkpt lat="59.0894450" lon="30.0354970">
<ele>83.698082</ele>
<time>2026-04-25T13:55:37.998Z</time>
</trkpt>
<trkpt lat="59.0892730" lon="30.0351630">
<ele>84.063835</ele>
<time>2026-04-25T13:57:20.002Z</time>
</trkpt>
<trkpt lat="59.0893340" lon="30.0349900">
<ele>86.197433</ele>
<time>2026-04-25T13:58:37.001Z</time>
</trkpt>
<trkpt lat="59.0891980" lon="30.0351180">
<ele>77.297279</ele>
<time>2026-04-25T13:59:20.003Z</time>
</trkpt>
<trkpt lat="59.0890530" lon="30.0349270">
<ele>89.428322</ele>
<time>2026-04-25T14:00:18.003Z</time>
</trkpt>
<trkpt lat="59.0890340" lon="30.0345450">
<ele>92.872566</ele>
<time>2026-04-25T14:01:54.002Z</time>
</trkpt>
<trkpt lat="59.0890620" lon="30.0344640">
<ele>90.373199</ele>
<time>2026-04-25T14:02:18.997Z</time>
</trkpt>
<trkpt lat="59.0890440" lon="30.0344040">
<ele>87.995766</ele>
<time>2026-04-25T14:02:48.002Z</time>
</trkpt>
<trkpt lat="59.0889820" lon="30.0345020">
<ele>80.162399</ele>
<time>2026-04-25T14:03:43.004Z</time>
</trkpt>
<trkpt lat="59.0890400" lon="30.0344740">
<ele>83.637115</ele>
<time>2026-04-25T14:04:17.996Z</time>
</trkpt>
<trkpt lat="59.0891070" lon="30.0345640">
<ele>86.045036</ele>
<time>2026-04-25T14:04:43.000Z</time>
</trkpt>
<trkpt lat="59.0890720" lon="30.0345980">
<ele>82.661766</ele>
<time>2026-04-25T14:05:15.996Z</time>
</trkpt>
<trkpt lat="59.0891250" lon="30.0345220">
<ele>76.961998</ele>
<time>2026-04-25T14:07:17.000Z</time>
</trkpt>
<trkpt lat="59.0890540" lon="30.0345340">
<ele>72.085197</ele>
<time>2026-04-25T14:07:44.000Z</time>
</trkpt>
<trkpt lat="59.0891190" lon="30.0346220">
<ele>83.118965</ele>
<time>2026-04-25T14:08:40.004Z</time>
</trkpt>
<trkpt lat="59.0890910" lon="30.0346790">
<ele>78.394562</ele>
<time>2026-04-25T14:09:06.002Z</time>
</trkpt>
<trkpt lat="59.0890620" lon="30.0341670">
<ele>86.624161</ele>
<time>2026-04-25T14:11:48.002Z</time>
</trkpt>
<trkpt lat="59.0891190" lon="30.0341640">
<ele>86.898483</ele>
<time>2026-04-25T14:12:08.997Z</time>
</trkpt>
<trkpt lat="59.0892930" lon="30.0343150">
<ele>91.683838</ele>
<time>2026-04-25T14:12:46.002Z</time>
</trkpt>
<trkpt lat="59.0893420" lon="30.0342740">
<ele>92.141037</ele>
<time>2026-04-25T14:13:05.002Z</time>
</trkpt>
<trkpt lat="59.0893910" lon="30.0343480">
<ele>96.804482</ele>
<time>2026-04-25T14:13:40.002Z</time>
</trkpt>
<trkpt lat="59.0894370" lon="30.0342940">
<ele>101.437439</ele>
<time>2026-04-25T14:14:04.998Z</time>
</trkpt>
<trkpt lat="59.0893020" lon="30.0339980">
<ele>91.440002</ele>
<time>2026-04-25T14:14:41.001Z</time>
</trkpt>
<trkpt lat="59.0892830" lon="30.0337830">
<ele>93.329765</ele>
<time>2026-04-25T14:15:06.998Z</time>
</trkpt>
<trkpt lat="59.0891980" lon="30.0335660">
<ele>89.763603</ele>
<time>2026-04-25T14:15:55.996Z</time>
</trkpt>
<trkpt lat="59.0892530" lon="30.0336220">
<ele>84.551521</ele>
<time>2026-04-25T14:16:18.002Z</time>
</trkpt>
<trkpt lat="59.0893980" lon="30.0336380">
<ele>82.844635</ele>
<time>2026-04-25T14:16:35.999Z</time>
</trkpt>
<trkpt lat="59.0894750" lon="30.0337180">
<ele>81.290161</ele>
<time>2026-04-25T14:16:52.000Z</time>
</trkpt>
<trkpt lat="59.0895790" lon="30.0336920">
<ele>82.875114</ele>
<time>2026-04-25T14:17:09.004Z</time>
</trkpt>
<trkpt lat="59.0896930" lon="30.0335550">
<ele>85.161118</ele>
<time>2026-04-25T14:17:27.001Z</time>
</trkpt>
<trkpt lat="59.0897930" lon="30.0335070">
<ele>87.538567</ele>
<time>2026-04-25T14:17:46.000Z</time>
</trkpt>
<trkpt lat="59.0897590" lon="30.0335780">
<ele>87.569038</ele>
<time>2026-04-25T14:18:15.998Z</time>
</trkpt>
<trkpt lat="59.0897950" lon="30.0335740">
<ele>90.220802</ele>
<time>2026-04-25T14:18:36.000Z</time>
</trkpt>
<trkpt lat="59.0897460" lon="30.0338140">
<ele>91.440002</ele>
<time>2026-04-25T14:19:23.002Z</time>
</trkpt>
<trkpt lat="59.0898190" lon="30.0344820">
<ele>94.731834</ele>
<time>2026-04-25T14:21:35.004Z</time>
</trkpt>
<trkpt lat="59.0898550" lon="30.0344670">
<ele>97.353119</ele>
<time>2026-04-25T14:22:26.999Z</time>
</trkpt>
<trkpt lat="59.0898410" lon="30.0346160">
<ele>96.743515</ele>
<time>2026-04-25T14:22:45.998Z</time>
</trkpt>
<trkpt lat="59.0898870" lon="30.0347340">
<ele>89.946480</ele>
<time>2026-04-25T14:23:03.002Z</time>
</trkpt>
<trkpt lat="59.0898260" lon="30.0347500">
<ele>86.441284</ele>
<time>2026-04-25T14:23:26.002Z</time>
</trkpt>
<trkpt lat="59.0898930" lon="30.0348270">
<ele>99.882965</ele>
<time>2026-04-25T14:24:17.997Z</time>
</trkpt>
<trkpt lat="59.0899090" lon="30.0348060">
<ele>97.536003</ele>
<time>2026-04-25T14:24:48.004Z</time>
</trkpt>
<trkpt lat="59.0898800" lon="30.0348180">
<ele>92.781120</ele>
<time>2026-04-25T14:25:25.000Z</time>
</trkpt>
<trkpt lat="59.0899680" lon="30.0352280">
<ele>86.746078</ele>
<time>2026-04-25T14:26:11.000Z</time>
</trkpt>
<trkpt lat="59.0899530" lon="30.0354020">
<ele>87.812881</ele>
<time>2026-04-25T14:26:38.000Z</time>
</trkpt>
<trkpt lat="59.0898630" lon="30.0355410">
<ele>88.605362</ele>
<time>2026-04-25T14:27:37.002Z</time>
</trkpt>
<trkpt lat="59.0899490" lon="30.0356950">
<ele>84.216240</ele>
<time>2026-04-25T14:28:24.997Z</time>
</trkpt>
<trkpt lat="59.0899990" lon="30.0358800">
<ele>82.814163</ele>
<time>2026-04-25T14:28:57.000Z</time>
</trkpt>
<trkpt lat="59.0899720" lon="30.0363230">
<ele>85.313515</ele>
<time>2026-04-25T14:30:24.998Z</time>
</trkpt>
<trkpt lat="59.0900790" lon="30.0363380">
<ele>84.033363</ele>
<time>2026-04-25T14:31:10.998Z</time>
</trkpt>
<trkpt lat="59.0901440" lon="30.0365140">
<ele>76.443840</ele>
<time>2026-04-25T14:32:04.004Z</time>
</trkpt>
<trkpt lat="59.0902280" lon="30.0364550">
<ele>75.895203</ele>
<time>2026-04-25T14:32:41.001Z</time>
</trkpt>
<trkpt lat="59.0901420" lon="30.0365410">
<ele>82.204567</ele>
<time>2026-04-25T14:33:09.003Z</time>
</trkpt>
<trkpt lat="59.0901470" lon="30.0364960">
<ele>79.674721</ele>
<time>2026-04-25T14:33:32.996Z</time>
</trkpt>
<trkpt lat="59.0902750" lon="30.0364650">
<ele>93.512634</ele>
<time>2026-04-25T14:34:26.003Z</time>
</trkpt>
<trkpt lat="59.0903740" lon="30.0367360">
<ele>81.107285</ele>
<time>2026-04-25T14:35:28.997Z</time>
</trkpt>
<trkpt lat="59.0904170" lon="30.0372870">
<ele>78.851761</ele>
<time>2026-04-25T14:36:19.999Z</time>
</trkpt>
<trkpt lat="59.0905000" lon="30.0373870">
<ele>81.808319</ele>
<time>2026-04-25T14:37:01.998Z</time>
</trkpt>
<trkpt lat="59.0905930" lon="30.0370710">
<ele>79.735680</ele>
<time>2026-04-25T14:37:47.997Z</time>
</trkpt>
<trkpt lat="59.0906540" lon="30.0370680">
<ele>75.559921</ele>
<time>2026-04-25T14:38:09.001Z</time>
</trkpt>
<trkpt lat="59.0906870" lon="30.0369700">
<ele>78.668884</ele>
<time>2026-04-25T14:39:46.002Z</time>
</trkpt>
<trkpt lat="59.0906630" lon="30.0367840">
<ele>78.242165</ele>
<time>2026-04-25T14:40:14.998Z</time>
</trkpt>
<trkpt lat="59.0905670" lon="30.0365460">
<ele>77.967842</ele>
<time>2026-04-25T14:41:07.002Z</time>
</trkpt>
<trkpt lat="59.0905310" lon="30.0362340">
<ele>74.035919</ele>
<time>2026-04-25T14:41:58.998Z</time>
</trkpt>
<trkpt lat="59.0906010" lon="30.0359220">
<ele>78.425034</ele>
<time>2026-04-25T14:42:36.003Z</time>
</trkpt>
<trkpt lat="59.0905860" lon="30.0358650">
<ele>77.327759</ele>
<time>2026-04-25T14:42:52.004Z</time>
</trkpt>
<trkpt lat="59.0904410" lon="30.0359690">
<ele>78.486000</ele>
<time>2026-04-25T14:43:22.996Z</time>
</trkpt>
<trkpt lat="59.0904160" lon="30.0358270">
<ele>78.516479</ele>
<time>2026-04-25T14:43:45.002Z</time>
</trkpt>
<trkpt lat="59.0904010" lon="30.0354710">
<ele>81.076797</ele>
<time>2026-04-25T14:44:17.998Z</time>
</trkpt>
<trkpt lat="59.0904520" lon="30.0345370">
<ele>84.978233</ele>
<time>2026-04-25T14:48:27.003Z</time>
</trkpt>
<trkpt lat="59.0903780" lon="30.0344900">
<ele>88.148163</ele>
<time>2026-04-25T14:49:02.997Z</time>
</trkpt>
<trkpt lat="59.0904450" lon="30.0344610">
<ele>86.136482</ele>
<time>2026-04-25T14:49:48.996Z</time>
</trkpt>
<trkpt lat="59.0904520" lon="30.0342800">
<ele>83.606636</ele>
<time>2026-04-25T14:50:06.000Z</time>
</trkpt>
<trkpt lat="59.0904090" lon="30.0341400">
<ele>84.825836</ele>
<time>2026-04-25T14:50:26.002Z</time>
</trkpt>
<trkpt lat="59.0904100" lon="30.0339050">
<ele>88.026237</ele>
<time>2026-04-25T14:50:49.001Z</time>
</trkpt>
<trkpt lat="59.0903410" lon="30.0337820">
<ele>88.056717</ele>
<time>2026-04-25T14:51:09.996Z</time>
</trkpt>
<trkpt lat="59.0903370" lon="30.0334470">
<ele>84.094315</ele>
<time>2026-04-25T14:51:48.997Z</time>
</trkpt>
<trkpt lat="59.0902980" lon="30.0332880">
<ele>84.277199</ele>
<time>2026-04-25T14:52:11.004Z</time>
</trkpt>
<trkpt lat="59.0903020" lon="30.0331950">
<ele>85.526878</ele>
<time>2026-04-25T14:52:30.003Z</time>
</trkpt>
<trkpt lat="59.0902260" lon="30.0331990">
<ele>78.577438</ele>
<time>2026-04-25T14:53:20.003Z</time>
</trkpt>
<trkpt lat="59.0903270" lon="30.0331520">
<ele>89.489281</ele>
<time>2026-04-25T14:54:17.001Z</time>
</trkpt>
<trkpt lat="59.0903270" lon="30.0330630">
<ele>93.024963</ele>
<time>2026-04-25T14:54:45.003Z</time>
</trkpt>
<trkpt lat="59.0903800" lon="30.0330940">
<ele>85.557365</ele>
<time>2026-04-25T14:55:01.998Z</time>
</trkpt>
<trkpt lat="59.0904770" lon="30.0329850">
<ele>79.339439</ele>
<time>2026-04-25T14:55:23.002Z</time>
</trkpt>
<trkpt lat="59.0905400" lon="30.0330120">
<ele>78.577438</ele>
<time>2026-04-25T14:55:55.004Z</time>
</trkpt>
<trkpt lat="59.0906200" lon="30.0329410">
<ele>80.589119</ele>
<time>2026-04-25T14:56:13.001Z</time>
</trkpt>
<trkpt lat="59.0906920" lon="30.0329830">
<ele>77.815437</ele>
<time>2026-04-25T14:56:47.000Z</time>
</trkpt>
<trkpt lat="59.0907430" lon="30.0331050">
<ele>79.583282</ele>
<time>2026-04-25T14:57:01.999Z</time>
</trkpt>
<trkpt lat="59.0907470" lon="30.0334120">
<ele>87.599518</ele>
<time>2026-04-25T14:57:49.000Z</time>
</trkpt>
<trkpt lat="59.0907300" lon="30.0334080">
<ele>86.319366</ele>
<time>2026-04-25T14:58:12.000Z</time>
</trkpt>
<trkpt lat="59.0908060" lon="30.0334580">
<ele>87.355682</ele>
<time>2026-04-25T14:58:28.001Z</time>
</trkpt>
<trkpt lat="59.0908650" lon="30.0337800">
<ele>86.989922</ele>
<time>2026-04-25T14:58:59.002Z</time>
</trkpt>
<trkpt lat="59.0909510" lon="30.0339370">
<ele>90.251282</ele>
<time>2026-04-25T14:59:42.003Z</time>
</trkpt>
<trkpt lat="59.0910020" lon="30.0339250">
<ele>98.694237</ele>
<time>2026-04-25T15:00:13.997Z</time>
</trkpt>
<trkpt lat="59.0908700" lon="30.0339290">
<ele>79.278481</ele>
<time>2026-04-25T15:00:59.003Z</time>
</trkpt>
<trkpt lat="59.0908180" lon="30.0343750">
<ele>81.533997</ele>
<time>2026-04-25T15:02:20.003Z</time>
</trkpt>
<trkpt lat="59.0908390" lon="30.0345350">
<ele>81.442566</ele>
<time>2026-04-25T15:02:42.000Z</time>
</trkpt>
<trkpt lat="59.0909080" lon="30.0346380">
<ele>79.552803</ele>
<time>2026-04-25T15:02:55.003Z</time>
</trkpt>
<trkpt lat="59.0909820" lon="30.0346640">
<ele>77.876404</ele>
<time>2026-04-25T15:03:10.002Z</time>
</trkpt>
<trkpt lat="59.0909740" lon="30.0348950">
<ele>74.950317</ele>
<time>2026-04-25T15:03:37.996Z</time>
</trkpt>
<trkpt lat="59.0910200" lon="30.0349970">
<ele>75.773285</ele>
<time>2026-04-25T15:03:53.004Z</time>
</trkpt>
<trkpt lat="59.0910540" lon="30.0353370">
<ele>72.450958</ele>
<time>2026-04-25T15:05:18.004Z</time>
</trkpt>
<trkpt lat="59.0911520" lon="30.0357440">
<ele>71.018402</ele>
<time>2026-04-25T15:06:12.004Z</time>
</trkpt>
<trkpt lat="59.0911010" lon="30.0356090">
<ele>70.957443</ele>
<time>2026-04-25T15:06:39.997Z</time>
</trkpt>
<trkpt lat="59.0910940" lon="30.0354270">
<ele>70.683121</ele>
<time>2026-04-25T15:06:51.998Z</time>
</trkpt>
<trkpt lat="59.0911320" lon="30.0353400">
<ele>71.384155</ele>
<time>2026-04-25T15:07:02.997Z</time>
</trkpt>
<trkpt lat="59.0911760" lon="30.0353600">
<ele>71.963280</ele>
<time>2026-04-25T15:07:16.000Z</time>
</trkpt>
<trkpt lat="59.0911210" lon="30.0353520">
<ele>70.408798</ele>
<time>2026-04-25T15:09:47.002Z</time>
</trkpt>
<trkpt lat="59.0911310" lon="30.0355300">
<ele>75.773285</ele>
<time>2026-04-25T15:09:58.000Z</time>
</trkpt>
<trkpt lat="59.0911040" lon="30.0356060">
<ele>75.864716</ele>
<time>2026-04-25T15:10:10.001Z</time>
</trkpt>
<trkpt lat="59.0910920" lon="30.0355460">
<ele>72.877686</ele>
<time>2026-04-25T15:11:24.003Z</time>
</trkpt>
<trkpt lat="59.0910820" lon="30.0357860">
<ele>72.176643</ele>
<time>2026-04-25T15:12:26.004Z</time>
</trkpt>
<trkpt lat="59.0912370" lon="30.0359010">
<ele>71.780403</ele>
<time>2026-04-25T15:13:11.001Z</time>
</trkpt>
<trkpt lat="59.0912820" lon="30.0360070">
<ele>72.237602</ele>
<time>2026-04-25T15:13:28.004Z</time>
</trkpt>
<trkpt lat="59.0912440" lon="30.0361330">
<ele>73.273918</ele>
<time>2026-04-25T15:13:47.997Z</time>
</trkpt>
<trkpt lat="59.0912930" lon="30.0362600">
<ele>72.024239</ele>
<time>2026-04-25T15:14:20.000Z</time>
</trkpt>
<trkpt lat="59.0912630" lon="30.0359080">
<ele>63.215519</ele>
<time>2026-04-25T15:15:16.004Z</time>
</trkpt>
<trkpt lat="59.0913330" lon="30.0353090">
<ele>74.584557</ele>
<time>2026-04-25T15:15:49.000Z</time>
</trkpt>
<trkpt lat="59.0913240" lon="30.0352300">
<ele>74.493118</ele>
<time>2026-04-25T15:16:08.000Z</time>
</trkpt>
<trkpt lat="59.0912240" lon="30.0351440">
<ele>75.864716</ele>
<time>2026-04-25T15:17:20.999Z</time>
</trkpt>
<trkpt lat="59.0912170" lon="30.0350910">
<ele>75.498962</ele>
<time>2026-04-25T15:17:34.996Z</time>
</trkpt>
<trkpt lat="59.0913710" lon="30.0348690">
<ele>73.822556</ele>
<time>2026-04-25T15:17:53.002Z</time>
</trkpt>
<trkpt lat="59.0914060" lon="30.0347500">
<ele>72.603355</ele>
<time>2026-04-25T15:18:05.003Z</time>
</trkpt>
<trkpt lat="59.0912800" lon="30.0343020">
<ele>72.420479</ele>
<time>2026-04-25T15:19:15.004Z</time>
</trkpt>
<trkpt lat="59.0913000" lon="30.0341180">
<ele>85.953598</ele>
<time>2026-04-25T15:20:00.001Z</time>
</trkpt>
<trkpt lat="59.0912170" lon="30.0339990">
<ele>82.204567</ele>
<time>2026-04-25T15:20:36.997Z</time>
</trkpt>
<trkpt lat="59.0911610" lon="30.0341200">
<ele>82.509361</ele>
<time>2026-04-25T15:21:36.000Z</time>
</trkpt>
<trkpt lat="59.0911330" lon="30.0340490">
<ele>88.788239</ele>
<time>2026-04-25T15:22:34.000Z</time>
</trkpt>
<trkpt lat="59.0911390" lon="30.0334510">
<ele>81.473038</ele>
<time>2026-04-25T15:23:52.002Z</time>
</trkpt>
<trkpt lat="59.0911120" lon="30.0332920">
<ele>81.777840</ele>
<time>2026-04-25T15:24:07.001Z</time>
</trkpt>
<trkpt lat="59.0910580" lon="30.0332090">
<ele>79.430885</ele>
<time>2026-04-25T15:24:20.998Z</time>
</trkpt>
<trkpt lat="59.0910300" lon="30.0328980">
<ele>79.674721</ele>
<time>2026-04-25T15:24:59.999Z</time>
</trkpt>
<trkpt lat="59.0910520" lon="30.0328710">
<ele>77.967842</ele>
<time>2026-04-25T15:25:18.998Z</time>
</trkpt>
<trkpt lat="59.0909840" lon="30.0329480">
<ele>88.605362</ele>
<time>2026-04-25T15:26:37.000Z</time>
</trkpt>
<trkpt lat="59.0910600" lon="30.0324370">
<ele>77.723999</ele>
<time>2026-04-25T15:28:11.004Z</time>
</trkpt>
<trkpt lat="59.0910230" lon="30.0323840">
<ele>77.571602</ele>
<time>2026-04-25T15:28:25.000Z</time>
</trkpt>
<trkpt lat="59.0910840" lon="30.0322380">
<ele>78.668884</ele>
<time>2026-04-25T15:29:06.999Z</time>
</trkpt>
<trkpt lat="59.0911300" lon="30.0322120">
<ele>77.632561</ele>
<time>2026-04-25T15:29:23.001Z</time>
</trkpt>
<trkpt lat="59.0914210" lon="30.0323550">
<ele>79.796638</ele>
<time>2026-04-25T15:30:26.004Z</time>
</trkpt>
<trkpt lat="59.0913540" lon="30.0326620">
<ele>84.185760</ele>
<time>2026-04-25T15:31:21.999Z</time>
</trkpt>
<trkpt lat="59.0913680" lon="30.0327900">
<ele>85.709763</ele>
<time>2026-04-25T15:31:43.997Z</time>
</trkpt>
<trkpt lat="59.0914780" lon="30.0327570">
<ele>77.205841</ele>
<time>2026-04-25T15:32:17.002Z</time>
</trkpt>
<trkpt lat="59.0915830" lon="30.0331410">
<ele>75.072243</ele>
<time>2026-04-25T15:33:24.998Z</time>
</trkpt>
<trkpt lat="59.0916460" lon="30.0335980">
<ele>68.762878</ele>
<time>2026-04-25T15:34:33.004Z</time>
</trkpt>
<trkpt lat="59.0917300" lon="30.0336550">
<ele>78.790802</ele>
<time>2026-04-25T15:35:38.996Z</time>
</trkpt>
<trkpt lat="59.0917620" lon="30.0336000">
<ele>71.384155</ele>
<time>2026-04-25T15:36:08.001Z</time>
</trkpt>
<trkpt lat="59.0916820" lon="30.0336730">
<ele>72.725281</ele>
<time>2026-04-25T15:36:21.997Z</time>
</trkpt>
<trkpt lat="59.0916080" lon="30.0338440">
<ele>71.841362</ele>
<time>2026-04-25T15:36:39.001Z</time>
</trkpt>
<trkpt lat="59.0917660" lon="30.0340690">
<ele>68.549515</ele>
<time>2026-04-25T15:37:30.996Z</time>
</trkpt>
<trkpt lat="59.0919380" lon="30.0336680">
<ele>71.719444</ele>
<time>2026-04-25T15:38:27.001Z</time>
</trkpt>
<trkpt lat="59.0917660" lon="30.0332420">
<ele>73.578720</ele>
<time>2026-04-25T15:39:50.999Z</time>
</trkpt>
<trkpt lat="59.0918080" lon="30.0332320">
<ele>71.597519</ele>
<time>2026-04-25T15:40:05.998Z</time>
</trkpt>
<trkpt lat="59.0918240" lon="30.0330410">
<ele>74.066399</ele>
<time>2026-04-25T15:40:39.003Z</time>
</trkpt>
<trkpt lat="59.0917760" lon="30.0328930">
<ele>71.993759</ele>
<time>2026-04-25T15:41:05.001Z</time>
</trkpt>
<trkpt lat="59.0918130" lon="30.0325340">
<ele>75.377045</ele>
<time>2026-04-25T15:41:45.004Z</time>
</trkpt>
<trkpt lat="59.0917530" lon="30.0324950">
<ele>70.012558</ele>
<time>2026-04-25T15:42:58.997Z</time>
</trkpt>
<trkpt lat="59.0917810" lon="30.0325350">
<ele>79.004166</ele>
<time>2026-04-25T15:43:29.997Z</time>
</trkpt>
<trkpt lat="59.0917710" lon="30.0324520">
<ele>79.766167</ele>
<time>2026-04-25T15:43:53.999Z</time>
</trkpt>
<trkpt lat="59.0917950" lon="30.0324280">
<ele>83.728561</ele>
<time>2026-04-25T15:44:27.997Z</time>
</trkpt>
<trkpt lat="59.0917370" lon="30.0321410">
<ele>77.998322</ele>
<time>2026-04-25T15:44:58.998Z</time>
</trkpt>
<trkpt lat="59.0917610" lon="30.0319530">
<ele>78.607918</ele>
<time>2026-04-25T15:45:52.998Z</time>
</trkpt>
<trkpt lat="59.0917700" lon="30.0320010">
<ele>80.832962</ele>
<time>2026-04-25T15:46:45.002Z</time>
</trkpt>
<trkpt lat="59.0917400" lon="30.0319130">
<ele>79.034637</ele>
<time>2026-04-25T15:47:13.998Z</time>
</trkpt>
<trkpt lat="59.0917680" lon="30.0318370">
<ele>81.808319</ele>
<time>2026-04-25T15:47:40.998Z</time>
</trkpt>
<trkpt lat="59.0918560" lon="30.0319270">
<ele>83.301834</ele>
<time>2026-04-25T15:48:25.001Z</time>
</trkpt>
<trkpt lat="59.0918860" lon="30.0318220">
<ele>83.789520</ele>
<time>2026-04-25T15:49:55.004Z</time>
</trkpt>
<trkpt lat="59.0920780" lon="30.0317730">
<ele>78.272636</ele>
<time>2026-04-25T15:50:45.997Z</time>
</trkpt>
<trkpt lat="59.0921740" lon="30.0321910">
<ele>67.604637</ele>
<time>2026-04-25T15:51:46.996Z</time>
</trkpt>
<trkpt lat="59.0923040" lon="30.0322020">
<ele>64.129921</ele>
<time>2026-04-25T15:52:12.000Z</time>
</trkpt>
<trkpt lat="59.0923940" lon="30.0323070">
<ele>66.690239</ele>
<time>2026-04-25T15:52:36.002Z</time>
</trkpt>
<trkpt lat="59.0923600" lon="30.0324270">
<ele>65.867279</ele>
<time>2026-04-25T15:52:52.003Z</time>
</trkpt>
<trkpt lat="59.0922470" lon="30.0324380">
<ele>62.575439</ele>
<time>2026-04-25T15:53:11.003Z</time>
</trkpt>
<trkpt lat="59.0922220" lon="30.0326150">
<ele>69.342003</ele>
<time>2026-04-25T15:53:26.002Z</time>
</trkpt>
<trkpt lat="59.0922350" lon="30.0327740">
<ele>76.840080</ele>
<time>2026-04-25T15:53:43.999Z</time>
</trkpt>
<trkpt lat="59.0923240" lon="30.0330590">
<ele>68.336159</ele>
<time>2026-04-25T15:55:46.004Z</time>
</trkpt>
<trkpt lat="59.0925550" lon="30.0329450">
<ele>68.458084</ele>
<time>2026-04-25T15:56:20.003Z</time>
</trkpt>
<trkpt lat="59.0926160" lon="30.0328030">
<ele>71.323196</ele>
<time>2026-04-25T15:56:40.004Z</time>
</trkpt>
<trkpt lat="59.0926260" lon="30.0326300">
<ele>74.096878</ele>
<time>2026-04-25T15:56:58.001Z</time>
</trkpt>
<trkpt lat="59.0924950" lon="30.0324350">
<ele>75.468483</ele>
<time>2026-04-25T15:57:33.002Z</time>
</trkpt>
<trkpt lat="59.0924590" lon="30.0321620">
<ele>75.133202</ele>
<time>2026-04-25T15:57:52.001Z</time>
</trkpt>
<trkpt lat="59.0923500" lon="30.0317460">
<ele>75.559921</ele>
<time>2026-04-25T15:58:48.999Z</time>
</trkpt>
<trkpt lat="59.0923160" lon="30.0317180">
<ele>77.022957</ele>
<time>2026-04-25T15:59:07.999Z</time>
</trkpt>
<trkpt lat="59.0923100" lon="30.0317730">
<ele>75.986641</ele>
<time>2026-04-25T15:59:29.996Z</time>
</trkpt>
<trkpt lat="59.0923440" lon="30.0317070">
<ele>73.334885</ele>
<time>2026-04-25T15:59:52.002Z</time>
</trkpt>
<trkpt lat="59.0922880" lon="30.0321520">
<ele>71.018402</ele>
<time>2026-04-25T16:00:45.000Z</time>
</trkpt>
<trkpt lat="59.0924960" lon="30.0325730">
<ele>68.305679</ele>
<time>2026-04-25T16:01:37.998Z</time>
</trkpt>
<trkpt lat="59.0925740" lon="30.0328460">
<ele>67.360802</ele>
<time>2026-04-25T16:02:16.999Z</time>
</trkpt>
<trkpt lat="59.0926910" lon="30.0328930">
<ele>57.820560</ele>
<time>2026-04-25T16:02:41.001Z</time>
</trkpt>
<trkpt lat="59.0932540" lon="30.0325730">
<ele>59.557919</ele>
<time>2026-04-25T16:04:03.996Z</time>
</trkpt>
<trkpt lat="59.0936450" lon="30.0325460">
<ele>46.085758</ele>
<time>2026-04-25T16:04:57.003Z</time>
</trkpt>
<trkpt lat="59.0940800" lon="30.0322970">
<ele>66.659760</ele>
<time>2026-04-25T16:05:51.996Z</time>
</trkpt>
<trkpt lat="59.0940150" lon="30.0322030">
<ele>72.877686</ele>
<time>2026-04-25T16:06:45.996Z</time>
</trkpt>
<trkpt lat="59.0940760" lon="30.0323850">
<ele>69.159119</ele>
<time>2026-04-25T16:07:43.997Z</time>
</trkpt>
<trkpt lat="59.0940500" lon="30.0323770">
<ele>68.427597</ele>
<time>2026-04-25T16:08:11.999Z</time>
</trkpt>
<trkpt lat="59.0941600" lon="30.0322640">
<ele>61.356239</ele>
<time>2026-04-25T16:08:32.001Z</time>
</trkpt>
<trkpt lat="59.0943360" lon="30.0322270">
<ele>49.804317</ele>
<time>2026-04-25T16:08:53.998Z</time>
</trkpt>
<trkpt lat="59.0946580" lon="30.0323950">
<ele>44.165520</ele>
<time>2026-04-25T16:09:30.001Z</time>
</trkpt>
<trkpt lat="59.0949350" lon="30.0324360">
<ele>58.338718</ele>
<time>2026-04-25T16:09:54.996Z</time>
</trkpt>
<trkpt lat="59.0959300" lon="30.0322500">
<ele>46.299118</ele>
<time>2026-04-25T16:11:42.996Z</time>
</trkpt>
<trkpt lat="59.0962140" lon="30.0321220">
<ele>52.913280</ele>
<time>2026-04-25T16:12:05.003Z</time>
</trkpt>
<trkpt lat="59.0967340" lon="30.0317300">
<ele>59.832241</ele>
<time>2026-04-25T16:12:52.004Z</time>
</trkpt>
<trkpt lat="59.0971270" lon="30.0309870">
<ele>61.081917</ele>
<time>2026-04-25T16:13:41.002Z</time>
</trkpt>
<trkpt lat="59.0974970" lon="30.0304730">
<ele>55.534557</ele>
<time>2026-04-25T16:14:25.999Z</time>
</trkpt>
<trkpt lat="59.0977060" lon="30.0303050">
<ele>54.041042</ele>
<time>2026-04-25T16:14:50.001Z</time>
</trkpt>
<trkpt lat="59.0979400" lon="30.0303100">
<ele>53.065681</ele>
<time>2026-04-25T16:15:10.996Z</time>
</trkpt>
<trkpt lat="59.0982410" lon="30.0302130">
<ele>54.193439</ele>
<time>2026-04-25T16:15:37.996Z</time>
</trkpt>
<trkpt lat="59.0984850" lon="30.0300220">
<ele>56.083199</ele>
<time>2026-04-25T16:16:04.002Z</time>
</trkpt>
<trkpt lat="59.0986710" lon="30.0298140">
<ele>58.734959</ele>
<time>2026-04-25T16:16:27.002Z</time>
</trkpt>
<trkpt lat="59.0990340" lon="30.0292460">
<ele>58.033916</ele>
<time>2026-04-25T16:17:17.002Z</time>
</trkpt>
<trkpt lat="59.0994660" lon="30.0287330">
<ele>64.709038</ele>
<time>2026-04-25T16:18:05.999Z</time>
</trkpt>
</trkseg>
</trk>
<trk>
 <name>20260425_Lisa88</name>
 <desc>20260425_Lisa88</desc>
<trkseg>
<trkpt lat="59.0970700" lon="30.0134240">
<ele>15.148561</ele>
<time>2026-04-25T07:01:35.000Z</time>
</trkpt>
<trkpt lat="59.0970620" lon="30.0136230">
<ele>39.928799</ele>
<time>2026-04-25T07:02:42.996Z</time>
</trkpt>
<trkpt lat="59.0970430" lon="30.0135520">
<ele>46.421040</ele>
<time>2026-04-25T07:03:01.996Z</time>
</trkpt>
<trkpt lat="59.0970070" lon="30.0135990">
<ele>50.170082</ele>
<time>2026-04-25T07:03:41.999Z</time>
</trkpt>
<trkpt lat="59.0970130" lon="30.0136840">
<ele>50.596802</ele>
<time>2026-04-25T07:03:55.002Z</time>
</trkpt>
<trkpt lat="59.0969370" lon="30.0138510">
<ele>54.010559</ele>
<time>2026-04-25T07:04:19.004Z</time>
</trkpt>
<trkpt lat="59.0966980" lon="30.0137930">
<ele>60.076080</ele>
<time>2026-04-25T07:05:19.000Z</time>
</trkpt>
<trkpt lat="59.0965530" lon="30.0140210">
<ele>61.965839</ele>
<time>2026-04-25T07:06:34.004Z</time>
</trkpt>
<trkpt lat="59.0964780" lon="30.0138190">
<ele>63.124081</ele>
<time>2026-04-25T07:07:12.003Z</time>
</trkpt>
<trkpt lat="59.0964530" lon="30.0138690">
<ele>65.440559</ele>
<time>2026-04-25T07:07:35.996Z</time>
</trkpt>
<trkpt lat="59.0964590" lon="30.0142680">
<ele>66.385445</ele>
<time>2026-04-25T07:08:30.998Z</time>
</trkpt>
<trkpt lat="59.0964060" lon="30.0142110">
<ele>67.208397</ele>
<time>2026-04-25T07:09:19.002Z</time>
</trkpt>
<trkpt lat="59.0964520" lon="30.0144810">
<ele>66.720718</ele>
<time>2026-04-25T07:10:01.001Z</time>
</trkpt>
<trkpt lat="59.0964520" lon="30.0146270">
<ele>67.909439</ele>
<time>2026-04-25T07:10:22.999Z</time>
</trkpt>
<trkpt lat="59.0964050" lon="30.0146340">
<ele>66.842644</ele>
<time>2026-04-25T07:11:19.003Z</time>
</trkpt>
<trkpt lat="59.0964510" lon="30.0146530">
<ele>63.733681</ele>
<time>2026-04-25T07:11:51.999Z</time>
</trkpt>
<trkpt lat="59.0963990" lon="30.0146570">
<ele>62.788799</ele>
<time>2026-04-25T07:12:25.004Z</time>
</trkpt>
<trkpt lat="59.0964120" lon="30.0149870">
<ele>65.592957</ele>
<time>2026-04-25T07:13:33.001Z</time>
</trkpt>
<trkpt lat="59.0963400" lon="30.0151230">
<ele>64.495682</ele>
<time>2026-04-25T07:13:54.998Z</time>
</trkpt>
<trkpt lat="59.0963730" lon="30.0152500">
<ele>65.836800</ele>
<time>2026-04-25T07:14:19.000Z</time>
</trkpt>
<trkpt lat="59.0963100" lon="30.0154380">
<ele>68.366638</ele>
<time>2026-04-25T07:14:46.000Z</time>
</trkpt>
<trkpt lat="59.0963610" lon="30.0155170">
<ele>67.147438</ele>
<time>2026-04-25T07:15:05.000Z</time>
</trkpt>
<trkpt lat="59.0963540" lon="30.0156440">
<ele>68.915283</ele>
<time>2026-04-25T07:15:27.999Z</time>
</trkpt>
<trkpt lat="59.0964450" lon="30.0155900">
<ele>67.025520</ele>
<time>2026-04-25T07:15:50.999Z</time>
</trkpt>
<trkpt lat="59.0964920" lon="30.0157010">
<ele>64.891914</ele>
<time>2026-04-25T07:16:11.001Z</time>
</trkpt>
<trkpt lat="59.0964820" lon="30.0157890">
<ele>64.587120</ele>
<time>2026-04-25T07:16:20.004Z</time>
</trkpt>
<trkpt lat="59.0965670" lon="30.0159530">
<ele>64.648079</ele>
<time>2026-04-25T07:16:40.999Z</time>
</trkpt>
<trkpt lat="59.0966630" lon="30.0160280">
<ele>62.880241</ele>
<time>2026-04-25T07:17:02.003Z</time>
</trkpt>
<trkpt lat="59.0966350" lon="30.0161400">
<ele>65.928238</ele>
<time>2026-04-25T07:17:22.998Z</time>
</trkpt>
<trkpt lat="59.0967110" lon="30.0163960">
<ele>69.372482</ele>
<time>2026-04-25T07:18:32.999Z</time>
</trkpt>
<trkpt lat="59.0964890" lon="30.0168620">
<ele>71.658485</ele>
<time>2026-04-25T07:19:40.996Z</time>
</trkpt>
<trkpt lat="59.0965370" lon="30.0173430">
<ele>68.427597</ele>
<time>2026-04-25T07:20:35.998Z</time>
</trkpt>
<trkpt lat="59.0968070" lon="30.0173750">
<ele>62.849758</ele>
<time>2026-04-25T07:21:21.997Z</time>
</trkpt>
<trkpt lat="59.0968870" lon="30.0175390">
<ele>62.118240</ele>
<time>2026-04-25T07:21:44.997Z</time>
</trkpt>
<trkpt lat="59.0969500" lon="30.0174800">
<ele>66.050156</ele>
<time>2026-04-25T07:22:49.002Z</time>
</trkpt>
<trkpt lat="59.0970080" lon="30.0176850">
<ele>71.170799</ele>
<time>2026-04-25T07:23:43.002Z</time>
</trkpt>
<trkpt lat="59.0969030" lon="30.0180260">
<ele>75.224640</ele>
<time>2026-04-25T07:24:57.004Z</time>
</trkpt>
<trkpt lat="59.0969660" lon="30.0182860">
<ele>73.030083</ele>
<time>2026-04-25T07:25:30.000Z</time>
</trkpt>
<trkpt lat="59.0970810" lon="30.0185360">
<ele>70.926956</ele>
<time>2026-04-25T07:26:11.999Z</time>
</trkpt>
<trkpt lat="59.0970370" lon="30.0190910">
<ele>75.651360</ele>
<time>2026-04-25T07:28:02.997Z</time>
</trkpt>
<trkpt lat="59.0970990" lon="30.0192430">
<ele>65.958717</ele>
<time>2026-04-25T07:30:48.004Z</time>
</trkpt>
<trkpt lat="59.0969890" lon="30.0191610">
<ele>65.562485</ele>
<time>2026-04-25T07:32:58.001Z</time>
</trkpt>
<trkpt lat="59.0969730" lon="30.0193000">
<ele>65.958717</ele>
<time>2026-04-25T07:33:38.998Z</time>
</trkpt>
<trkpt lat="59.0970480" lon="30.0194590">
<ele>68.183762</ele>
<time>2026-04-25T07:34:28.004Z</time>
</trkpt>
<trkpt lat="59.0970320" lon="30.0195030">
<ele>69.799202</ele>
<time>2026-04-25T07:34:39.003Z</time>
</trkpt>
<trkpt lat="59.0970110" lon="30.0194190">
<ele>69.494400</ele>
<time>2026-04-25T07:35:07.999Z</time>
</trkpt>
<trkpt lat="59.0970180" lon="30.0195650">
<ele>68.610481</ele>
<time>2026-04-25T07:35:55.000Z</time>
</trkpt>
<trkpt lat="59.0968160" lon="30.0196340">
<ele>67.909439</ele>
<time>2026-04-25T07:38:15.996Z</time>
</trkpt>
<trkpt lat="59.0968170" lon="30.0195820">
<ele>67.909439</ele>
<time>2026-04-25T07:38:38.003Z</time>
</trkpt>
<trkpt lat="59.0967800" lon="30.0195800">
<ele>66.995041</ele>
<time>2026-04-25T07:39:04.000Z</time>
</trkpt>
<trkpt lat="59.0967640" lon="30.0195190">
<ele>70.896484</ele>
<time>2026-04-25T07:39:41.999Z</time>
</trkpt>
<trkpt lat="59.0968140" lon="30.0196760">
<ele>70.012558</ele>
<time>2026-04-25T07:40:44.000Z</time>
</trkpt>
<trkpt lat="59.0967890" lon="30.0196390">
<ele>70.896484</ele>
<time>2026-04-25T07:41:13.004Z</time>
</trkpt>
<trkpt lat="59.0968190" lon="30.0195910">
<ele>74.523598</ele>
<time>2026-04-25T07:42:07.998Z</time>
</trkpt>
<trkpt lat="59.0967470" lon="30.0194620">
<ele>75.773285</ele>
<time>2026-04-25T07:43:12.996Z</time>
</trkpt>
<trkpt lat="59.0968370" lon="30.0192050">
<ele>75.163681</ele>
<time>2026-04-25T07:44:51.000Z</time>
</trkpt>
<trkpt lat="59.0968090" lon="30.0190510">
<ele>75.407516</ele>
<time>2026-04-25T07:45:19.002Z</time>
</trkpt>
<trkpt lat="59.0968590" lon="30.0190150">
<ele>75.224640</ele>
<time>2026-04-25T07:45:45.000Z</time>
</trkpt>
<trkpt lat="59.0968720" lon="30.0189430">
<ele>75.377045</ele>
<time>2026-04-25T07:46:09.002Z</time>
</trkpt>
<trkpt lat="59.0967680" lon="30.0187060">
<ele>79.156563</ele>
<time>2026-04-25T07:48:24.002Z</time>
</trkpt>
<trkpt lat="59.0966500" lon="30.0185730">
<ele>75.620880</ele>
<time>2026-04-25T07:49:44.000Z</time>
</trkpt>
<trkpt lat="59.0966870" lon="30.0184320">
<ele>73.731117</ele>
<time>2026-04-25T07:50:09.997Z</time>
</trkpt>
<trkpt lat="59.0966550" lon="30.0182980">
<ele>72.085197</ele>
<time>2026-04-25T07:50:33.999Z</time>
</trkpt>
<trkpt lat="59.0966760" lon="30.0178080">
<ele>71.414642</ele>
<time>2026-04-25T07:51:41.003Z</time>
</trkpt>
<trkpt lat="59.0965480" lon="30.0174680">
<ele>70.225922</ele>
<time>2026-04-25T07:52:24.997Z</time>
</trkpt>
<trkpt lat="59.0965430" lon="30.0172830">
<ele>69.128639</ele>
<time>2026-04-25T07:52:46.001Z</time>
</trkpt>
<trkpt lat="59.0964990" lon="30.0170910">
<ele>70.835518</ele>
<time>2026-04-25T07:53:15.999Z</time>
</trkpt>
<trkpt lat="59.0964930" lon="30.0169140">
<ele>70.896484</ele>
<time>2026-04-25T07:53:38.999Z</time>
</trkpt>
<trkpt lat="59.0965210" lon="30.0167880">
<ele>70.378319</ele>
<time>2026-04-25T07:54:05.999Z</time>
</trkpt>
<trkpt lat="59.0964270" lon="30.0164560">
<ele>70.500244</ele>
<time>2026-04-25T07:54:53.001Z</time>
</trkpt>
<trkpt lat="59.0964120" lon="30.0161700">
<ele>71.018402</ele>
<time>2026-04-25T07:55:39.000Z</time>
</trkpt>
<trkpt lat="59.0964670" lon="30.0156910">
<ele>68.884804</ele>
<time>2026-04-25T07:56:43.999Z</time>
</trkpt>
<trkpt lat="59.0964120" lon="30.0156270">
<ele>69.707756</ele>
<time>2026-04-25T07:57:10.999Z</time>
</trkpt>
<trkpt lat="59.0962900" lon="30.0156480">
<ele>70.805038</ele>
<time>2026-04-25T07:57:51.002Z</time>
</trkpt>
<trkpt lat="59.0962380" lon="30.0157110">
<ele>69.921120</ele>
<time>2026-04-25T07:58:11.004Z</time>
</trkpt>
<trkpt lat="59.0961530" lon="30.0156770">
<ele>69.677284</ele>
<time>2026-04-25T07:58:35.999Z</time>
</trkpt>
<trkpt lat="59.0961730" lon="30.0154820">
<ele>71.780403</ele>
<time>2026-04-25T07:59:24.996Z</time>
</trkpt>
<trkpt lat="59.0961190" lon="30.0153980">
<ele>71.323196</ele>
<time>2026-04-25T07:59:51.003Z</time>
</trkpt>
<trkpt lat="59.0960500" lon="30.0148900">
<ele>69.372482</ele>
<time>2026-04-25T08:01:01.004Z</time>
</trkpt>
<trkpt lat="59.0959130" lon="30.0145150">
<ele>68.823837</ele>
<time>2026-04-25T08:01:51.004Z</time>
</trkpt>
<trkpt lat="59.0958330" lon="30.0144580">
<ele>68.610481</ele>
<time>2026-04-25T08:02:13.001Z</time>
</trkpt>
<trkpt lat="59.0957900" lon="30.0145340">
<ele>70.195442</ele>
<time>2026-04-25T08:02:38.999Z</time>
</trkpt>
<trkpt lat="59.0958290" lon="30.0146550">
<ele>73.304398</ele>
<time>2026-04-25T08:03:49.000Z</time>
</trkpt>
<trkpt lat="59.0958450" lon="30.0145440">
<ele>73.639679</ele>
<time>2026-04-25T08:04:25.997Z</time>
</trkpt>
<trkpt lat="59.0958040" lon="30.0145670">
<ele>71.567039</ele>
<time>2026-04-25T08:04:52.997Z</time>
</trkpt>
<trkpt lat="59.0958340" lon="30.0146740">
<ele>75.011284</ele>
<time>2026-04-25T08:06:06.998Z</time>
</trkpt>
<trkpt lat="59.0958050" lon="30.0148480">
<ele>74.584557</ele>
<time>2026-04-25T08:06:31.000Z</time>
</trkpt>
<trkpt lat="59.0958780" lon="30.0152810">
<ele>74.096878</ele>
<time>2026-04-25T08:07:22.002Z</time>
</trkpt>
<trkpt lat="59.0958720" lon="30.0155680">
<ele>72.176643</ele>
<time>2026-04-25T08:07:45.002Z</time>
</trkpt>
<trkpt lat="59.0958100" lon="30.0159980">
<ele>74.615044</ele>
<time>2026-04-25T08:08:32.004Z</time>
</trkpt>
<trkpt lat="59.0958770" lon="30.0160400">
<ele>75.102715</ele>
<time>2026-04-25T08:08:56.999Z</time>
</trkpt>
<trkpt lat="59.0960030" lon="30.0164190">
<ele>73.944481</ele>
<time>2026-04-25T08:09:41.996Z</time>
</trkpt>
<trkpt lat="59.0960370" lon="30.0169480">
<ele>73.761597</ele>
<time>2026-04-25T08:10:21.999Z</time>
</trkpt>
<trkpt lat="59.0959740" lon="30.0173750">
<ele>76.718163</ele>
<time>2026-04-25T08:11:15.999Z</time>
</trkpt>
<trkpt lat="59.0960290" lon="30.0174310">
<ele>81.015839</ele>
<time>2026-04-25T08:11:45.997Z</time>
</trkpt>
<trkpt lat="59.0960740" lon="30.0173560">
<ele>80.589119</ele>
<time>2026-04-25T08:12:39.004Z</time>
</trkpt>
<trkpt lat="59.0959690" lon="30.0174160">
<ele>81.655922</ele>
<time>2026-04-25T08:13:13.996Z</time>
</trkpt>
<trkpt lat="59.0960330" lon="30.0175010">
<ele>81.381599</ele>
<time>2026-04-25T08:13:40.996Z</time>
</trkpt>
<trkpt lat="59.0960040" lon="30.0177300">
<ele>80.314796</ele>
<time>2026-04-25T08:14:04.998Z</time>
</trkpt>
<trkpt lat="59.0960320" lon="30.0180230">
<ele>79.004166</ele>
<time>2026-04-25T08:14:35.998Z</time>
</trkpt>
<trkpt lat="59.0961050" lon="30.0181150">
<ele>79.827118</ele>
<time>2026-04-25T08:15:01.002Z</time>
</trkpt>
<trkpt lat="59.0962060" lon="30.0183680">
<ele>78.607918</ele>
<time>2026-04-25T08:15:48.004Z</time>
</trkpt>
<trkpt lat="59.0962140" lon="30.0196670">
<ele>74.736961</ele>
<time>2026-04-25T08:18:38.998Z</time>
</trkpt>
<trkpt lat="59.0963830" lon="30.0198330">
<ele>73.822556</ele>
<time>2026-04-25T08:19:20.004Z</time>
</trkpt>
<trkpt lat="59.0964600" lon="30.0197620">
<ele>76.870560</ele>
<time>2026-04-25T08:19:51.004Z</time>
</trkpt>
<trkpt lat="59.0964460" lon="30.0197330">
<ele>77.510643</ele>
<time>2026-04-25T08:20:20.000Z</time>
</trkpt>
<trkpt lat="59.0964410" lon="30.0197940">
<ele>76.748642</ele>
<time>2026-04-25T08:20:44.002Z</time>
</trkpt>
<trkpt lat="59.0963840" lon="30.0198110">
<ele>74.432159</ele>
<time>2026-04-25T08:21:12.997Z</time>
</trkpt>
<trkpt lat="59.0963720" lon="30.0199230">
<ele>72.481438</ele>
<time>2026-04-25T08:21:45.000Z</time>
</trkpt>
<trkpt lat="59.0964290" lon="30.0199660">
<ele>72.999603</ele>
<time>2026-04-25T08:22:20.001Z</time>
</trkpt>
<trkpt lat="59.0963910" lon="30.0198250">
<ele>69.311516</ele>
<time>2026-04-25T08:22:52.003Z</time>
</trkpt>
<trkpt lat="59.0962970" lon="30.0199780">
<ele>68.153282</ele>
<time>2026-04-25T08:23:22.001Z</time>
</trkpt>
<trkpt lat="59.0963210" lon="30.0201200">
<ele>66.995041</ele>
<time>2026-04-25T08:23:53.002Z</time>
</trkpt>
<trkpt lat="59.0962940" lon="30.0200140">
<ele>66.629280</ele>
<time>2026-04-25T08:24:21.997Z</time>
</trkpt>
<trkpt lat="59.0961810" lon="30.0199620">
<ele>67.116959</ele>
<time>2026-04-25T08:24:40.997Z</time>
</trkpt>
<trkpt lat="59.0961260" lon="30.0199910">
<ele>66.964561</ele>
<time>2026-04-25T08:25:00.998Z</time>
</trkpt>
<trkpt lat="59.0959570" lon="30.0190830">
<ele>61.020958</ele>
<time>2026-04-25T08:27:40.000Z</time>
</trkpt>
<trkpt lat="59.0960240" lon="30.0189820">
<ele>61.112400</ele>
<time>2026-04-25T08:28:01.004Z</time>
</trkpt>
<trkpt lat="59.0960320" lon="30.0187490">
<ele>61.904881</ele>
<time>2026-04-25T08:28:28.998Z</time>
</trkpt>
<trkpt lat="59.0959760" lon="30.0186790">
<ele>63.093601</ele>
<time>2026-04-25T08:28:57.000Z</time>
</trkpt>
<trkpt lat="59.0959520" lon="30.0187300">
<ele>63.520317</ele>
<time>2026-04-25T08:29:05.001Z</time>
</trkpt>
<trkpt lat="59.0958580" lon="30.0184550">
<ele>62.849758</ele>
<time>2026-04-25T08:29:41.004Z</time>
</trkpt>
<trkpt lat="59.0957570" lon="30.0182860">
<ele>61.965839</ele>
<time>2026-04-25T08:30:31.997Z</time>
</trkpt>
<trkpt lat="59.0957920" lon="30.0180630">
<ele>61.447681</ele>
<time>2026-04-25T08:30:54.996Z</time>
</trkpt>
<trkpt lat="59.0958230" lon="30.0180250">
<ele>61.142883</ele>
<time>2026-04-25T08:31:02.004Z</time>
</trkpt>
<trkpt lat="59.0958220" lon="30.0178090">
<ele>60.441841</ele>
<time>2026-04-25T08:31:21.996Z</time>
</trkpt>
<trkpt lat="59.0957260" lon="30.0176400">
<ele>62.301117</ele>
<time>2026-04-25T08:31:51.001Z</time>
</trkpt>
<trkpt lat="59.0957360" lon="30.0174570">
<ele>67.574158</ele>
<time>2026-04-25T08:32:50.004Z</time>
</trkpt>
<trkpt lat="59.0958050" lon="30.0175060">
<ele>70.012558</ele>
<time>2026-04-25T08:33:48.997Z</time>
</trkpt>
<trkpt lat="59.0957470" lon="30.0174970">
<ele>71.201279</ele>
<time>2026-04-25T08:34:44.000Z</time>
</trkpt>
<trkpt lat="59.0957200" lon="30.0175610">
<ele>71.384155</ele>
<time>2026-04-25T08:35:12.002Z</time>
</trkpt>
<trkpt lat="59.0956960" lon="30.0170980">
<ele>70.987915</ele>
<time>2026-04-25T08:36:30.004Z</time>
</trkpt>
<trkpt lat="59.0956080" lon="30.0167860">
<ele>68.976242</ele>
<time>2026-04-25T08:38:07.999Z</time>
</trkpt>
<trkpt lat="59.0956600" lon="30.0165780">
<ele>67.939919</ele>
<time>2026-04-25T08:38:30.998Z</time>
</trkpt>
<trkpt lat="59.0957010" lon="30.0161960">
<ele>65.074799</ele>
<time>2026-04-25T08:39:03.001Z</time>
</trkpt>
<trkpt lat="59.0956270" lon="30.0158800">
<ele>62.484001</ele>
<time>2026-04-25T08:39:46.996Z</time>
</trkpt>
<trkpt lat="59.0955910" lon="30.0155330">
<ele>63.520317</ele>
<time>2026-04-25T08:40:30.999Z</time>
</trkpt>
<trkpt lat="59.0954860" lon="30.0153600">
<ele>68.214241</ele>
<time>2026-04-25T08:41:27.997Z</time>
</trkpt>
<trkpt lat="59.0955650" lon="30.0155750">
<ele>67.757042</ele>
<time>2026-04-25T08:42:28.002Z</time>
</trkpt>
<trkpt lat="59.0952830" lon="30.0156400">
<ele>69.799202</ele>
<time>2026-04-25T08:44:29.999Z</time>
</trkpt>
<trkpt lat="59.0952530" lon="30.0157550">
<ele>69.951599</ele>
<time>2026-04-25T08:44:52.999Z</time>
</trkpt>
<trkpt lat="59.0951120" lon="30.0158820">
<ele>68.092316</ele>
<time>2026-04-25T08:45:36.000Z</time>
</trkpt>
<trkpt lat="59.0951110" lon="30.0159410">
<ele>67.574158</ele>
<time>2026-04-25T08:46:04.002Z</time>
</trkpt>
<trkpt lat="59.0952290" lon="30.0160340">
<ele>64.312798</ele>
<time>2026-04-25T08:46:36.998Z</time>
</trkpt>
<trkpt lat="59.0953280" lon="30.0159860">
<ele>65.105286</ele>
<time>2026-04-25T08:46:58.996Z</time>
</trkpt>
<trkpt lat="59.0953260" lon="30.0163380">
<ele>67.360802</ele>
<time>2026-04-25T08:48:07.001Z</time>
</trkpt>
<trkpt lat="59.0952560" lon="30.0164250">
<ele>65.471039</ele>
<time>2026-04-25T08:48:32.999Z</time>
</trkpt>
<trkpt lat="59.0951940" lon="30.0167100">
<ele>64.404243</ele>
<time>2026-04-25T08:49:10.004Z</time>
</trkpt>
<trkpt lat="59.0952450" lon="30.0168110">
<ele>64.373756</ele>
<time>2026-04-25T08:49:36.002Z</time>
</trkpt>
<trkpt lat="59.0954000" lon="30.0168290">
<ele>66.873116</ele>
<time>2026-04-25T08:50:15.996Z</time>
</trkpt>
<trkpt lat="59.0953720" lon="30.0171850">
<ele>66.080643</ele>
<time>2026-04-25T08:50:53.002Z</time>
</trkpt>
<trkpt lat="59.0952690" lon="30.0174860">
<ele>67.086479</ele>
<time>2026-04-25T08:51:28.002Z</time>
</trkpt>
<trkpt lat="59.0952850" lon="30.0176610">
<ele>66.415916</ele>
<time>2026-04-25T08:51:50.000Z</time>
</trkpt>
<trkpt lat="59.0954210" lon="30.0179090">
<ele>64.983360</ele>
<time>2026-04-25T08:52:38.004Z</time>
</trkpt>
<trkpt lat="59.0955290" lon="30.0180050">
<ele>63.185040</ele>
<time>2026-04-25T08:52:57.996Z</time>
</trkpt>
<trkpt lat="59.0955810" lon="30.0181690">
<ele>61.996319</ele>
<time>2026-04-25T08:53:13.998Z</time>
</trkpt>
<trkpt lat="59.0955410" lon="30.0182880">
<ele>61.478161</ele>
<time>2026-04-25T08:53:43.996Z</time>
</trkpt>
<trkpt lat="59.0954290" lon="30.0182920">
<ele>61.020958</ele>
<time>2026-04-25T08:54:40.000Z</time>
</trkpt>
<trkpt lat="59.0954650" lon="30.0182540">
<ele>60.594242</ele>
<time>2026-04-25T08:55:11.001Z</time>
</trkpt>
<trkpt lat="59.0954000" lon="30.0183630">
<ele>60.076080</ele>
<time>2026-04-25T08:55:40.999Z</time>
</trkpt>
<trkpt lat="59.0955890" lon="30.0186280">
<ele>60.228481</ele>
<time>2026-04-25T08:57:12.004Z</time>
</trkpt>
<trkpt lat="59.0957600" lon="30.0189860">
<ele>59.344559</ele>
<time>2026-04-25T08:57:57.001Z</time>
</trkpt>
<trkpt lat="59.0956900" lon="30.0192810">
<ele>59.314083</ele>
<time>2026-04-25T08:58:37.004Z</time>
</trkpt>
<trkpt lat="59.0956030" lon="30.0193590">
<ele>59.679840</ele>
<time>2026-04-25T08:58:52.997Z</time>
</trkpt>
<trkpt lat="59.0957420" lon="30.0195040">
<ele>58.491119</ele>
<time>2026-04-25T08:59:42.003Z</time>
</trkpt>
<trkpt lat="59.0957730" lon="30.0198000">
<ele>58.064400</ele>
<time>2026-04-25T09:00:25.004Z</time>
</trkpt>
<trkpt lat="59.0957210" lon="30.0199570">
<ele>57.790081</ele>
<time>2026-04-25T09:00:48.997Z</time>
</trkpt>
<trkpt lat="59.0957990" lon="30.0200840">
<ele>58.216801</ele>
<time>2026-04-25T09:01:08.999Z</time>
</trkpt>
<trkpt lat="59.0956630" lon="30.0203860">
<ele>60.015118</ele>
<time>2026-04-25T09:01:52.000Z</time>
</trkpt>
<trkpt lat="59.0955740" lon="30.0202600">
<ele>63.428883</ele>
<time>2026-04-25T09:02:40.004Z</time>
</trkpt>
<trkpt lat="59.0956170" lon="30.0206410">
<ele>69.220085</ele>
<time>2026-04-25T09:04:55.004Z</time>
</trkpt>
<trkpt lat="59.0956250" lon="30.0205780">
<ele>70.195442</ele>
<time>2026-04-25T09:05:49.004Z</time>
</trkpt>
<trkpt lat="59.0955560" lon="30.0207390">
<ele>70.896484</ele>
<time>2026-04-25T09:07:17.003Z</time>
</trkpt>
<trkpt lat="59.0955220" lon="30.0206330">
<ele>69.463921</ele>
<time>2026-04-25T09:07:45.998Z</time>
</trkpt>
<trkpt lat="59.0955680" lon="30.0202910">
<ele>71.140320</ele>
<time>2026-04-25T09:09:06.998Z</time>
</trkpt>
<trkpt lat="59.0956010" lon="30.0202440">
<ele>67.299843</ele>
<time>2026-04-25T09:10:00.998Z</time>
</trkpt>
<trkpt lat="59.0956010" lon="30.0200900">
<ele>65.288162</ele>
<time>2026-04-25T09:10:53.996Z</time>
</trkpt>
<trkpt lat="59.0955640" lon="30.0200460">
<ele>66.202560</ele>
<time>2026-04-25T09:11:55.003Z</time>
</trkpt>
<trkpt lat="59.0956240" lon="30.0201050">
<ele>66.995041</ele>
<time>2026-04-25T09:12:56.002Z</time>
</trkpt>
<trkpt lat="59.0956410" lon="30.0201360">
<ele>71.506081</ele>
<time>2026-04-25T09:13:21.999Z</time>
</trkpt>
<trkpt lat="59.0955490" lon="30.0202150">
<ele>70.469757</ele>
<time>2026-04-25T09:13:36.998Z</time>
</trkpt>
<trkpt lat="59.0953600" lon="30.0201870">
<ele>70.164963</ele>
<time>2026-04-25T09:14:45.997Z</time>
</trkpt>
<trkpt lat="59.0953360" lon="30.0200260">
<ele>69.524879</ele>
<time>2026-04-25T09:15:08.004Z</time>
</trkpt>
<trkpt lat="59.0953860" lon="30.0196690">
<ele>69.311516</ele>
<time>2026-04-25T09:16:06.997Z</time>
</trkpt>
<trkpt lat="59.0953280" lon="30.0194160">
<ele>69.433441</ele>
<time>2026-04-25T09:16:56.997Z</time>
</trkpt>
<trkpt lat="59.0953840" lon="30.0191500">
<ele>71.079361</ele>
<time>2026-04-25T09:17:41.001Z</time>
</trkpt>
<trkpt lat="59.0953680" lon="30.0185730">
<ele>73.182480</ele>
<time>2026-04-25T09:19:03.996Z</time>
</trkpt>
<trkpt lat="59.0952920" lon="30.0183000">
<ele>72.786240</ele>
<time>2026-04-25T09:19:30.996Z</time>
</trkpt>
<trkpt lat="59.0951770" lon="30.0180530">
<ele>69.159119</ele>
<time>2026-04-25T09:20:08.002Z</time>
</trkpt>
<trkpt lat="59.0950810" lon="30.0176500">
<ele>74.950317</ele>
<time>2026-04-25T09:20:59.997Z</time>
</trkpt>
<trkpt lat="59.0950400" lon="30.0176450">
<ele>80.375763</ele>
<time>2026-04-25T09:21:26.997Z</time>
</trkpt>
<trkpt lat="59.0950890" lon="30.0176400">
<ele>84.612480</ele>
<time>2026-04-25T09:22:28.998Z</time>
</trkpt>
<trkpt lat="59.0950850" lon="30.0176840">
<ele>87.111839</ele>
<time>2026-04-25T09:22:58.002Z</time>
</trkpt>
<trkpt lat="59.0951210" lon="30.0177010">
<ele>85.740234</ele>
<time>2026-04-25T09:23:25.996Z</time>
</trkpt>
<trkpt lat="59.0951630" lon="30.0176670">
<ele>85.252563</ele>
<time>2026-04-25T09:23:56.996Z</time>
</trkpt>
<trkpt lat="59.0951210" lon="30.0177140">
<ele>86.807037</ele>
<time>2026-04-25T09:24:24.998Z</time>
</trkpt>
<trkpt lat="59.0950400" lon="30.0174970">
<ele>86.624161</ele>
<time>2026-04-25T09:25:18.998Z</time>
</trkpt>
<trkpt lat="59.0950400" lon="30.0172720">
<ele>84.734398</ele>
<time>2026-04-25T09:25:44.003Z</time>
</trkpt>
<trkpt lat="59.0951030" lon="30.0166900">
<ele>81.655922</ele>
<time>2026-04-25T09:26:50.997Z</time>
</trkpt>
<trkpt lat="59.0949760" lon="30.0165660">
<ele>79.065117</ele>
<time>2026-04-25T09:27:41.999Z</time>
</trkpt>
<trkpt lat="59.0948500" lon="30.0165880">
<ele>77.906883</ele>
<time>2026-04-25T09:28:11.004Z</time>
</trkpt>
<trkpt lat="59.0947540" lon="30.0164250">
<ele>77.175362</ele>
<time>2026-04-25T09:28:34.003Z</time>
</trkpt>
<trkpt lat="59.0948090" lon="30.0159790">
<ele>76.382881</ele>
<time>2026-04-25T09:29:39.002Z</time>
</trkpt>
<trkpt lat="59.0947490" lon="30.0158050">
<ele>75.925682</ele>
<time>2026-04-25T09:30:00.999Z</time>
</trkpt>
<trkpt lat="59.0947730" lon="30.0159460">
<ele>78.242165</ele>
<time>2026-04-25T09:30:48.001Z</time>
</trkpt>
<trkpt lat="59.0948320" lon="30.0158290">
<ele>80.436722</ele>
<time>2026-04-25T09:31:16.997Z</time>
</trkpt>
<trkpt lat="59.0948320" lon="30.0160250">
<ele>83.728561</ele>
<time>2026-04-25T09:32:14.997Z</time>
</trkpt>
<trkpt lat="59.0947310" lon="30.0160150">
<ele>86.837517</ele>
<time>2026-04-25T09:33:19.996Z</time>
</trkpt>
<trkpt lat="59.0946670" lon="30.0161150">
<ele>85.161118</ele>
<time>2026-04-25T09:33:39.004Z</time>
</trkpt>
<trkpt lat="59.0945380" lon="30.0159950">
<ele>82.082634</ele>
<time>2026-04-25T09:34:06.997Z</time>
</trkpt>
<trkpt lat="59.0944370" lon="30.0160190">
<ele>80.924400</ele>
<time>2026-04-25T09:34:36.002Z</time>
</trkpt>
<trkpt lat="59.0943710" lon="30.0162660">
<ele>80.223366</ele>
<time>2026-04-25T09:35:30.002Z</time>
</trkpt>
<trkpt lat="59.0945050" lon="30.0166130">
<ele>79.888084</ele>
<time>2026-04-25T09:36:39.001Z</time>
</trkpt>
<trkpt lat="59.0944550" lon="30.0166420">
<ele>79.552803</ele>
<time>2026-04-25T09:37:03.003Z</time>
</trkpt>
<trkpt lat="59.0945770" lon="30.0174290">
<ele>76.809601</ele>
<time>2026-04-25T09:38:36.004Z</time>
</trkpt>
<trkpt lat="59.0947550" lon="30.0177090">
<ele>77.541115</ele>
<time>2026-04-25T09:39:18.996Z</time>
</trkpt>
<trkpt lat="59.0948340" lon="30.0179200">
<ele>80.345284</ele>
<time>2026-04-25T09:39:54.999Z</time>
</trkpt>
<trkpt lat="59.0947850" lon="30.0179460">
<ele>79.583282</ele>
<time>2026-04-25T09:40:24.997Z</time>
</trkpt>
<trkpt lat="59.0948280" lon="30.0179220">
<ele>81.442566</ele>
<time>2026-04-25T09:40:51.997Z</time>
</trkpt>
<trkpt lat="59.0948240" lon="30.0177780">
<ele>85.709763</ele>
<time>2026-04-25T09:41:49.004Z</time>
</trkpt>
<trkpt lat="59.0947560" lon="30.0181420">
<ele>84.063835</ele>
<time>2026-04-25T09:43:14.998Z</time>
</trkpt>
<trkpt lat="59.0948020" lon="30.0180850">
<ele>83.301834</ele>
<time>2026-04-25T09:43:44.003Z</time>
</trkpt>
<trkpt lat="59.0948090" lon="30.0182690">
<ele>82.052162</ele>
<time>2026-04-25T09:44:08.998Z</time>
</trkpt>
<trkpt lat="59.0948670" lon="30.0183400">
<ele>81.259682</ele>
<time>2026-04-25T09:44:22.001Z</time>
</trkpt>
<trkpt lat="59.0949580" lon="30.0188360">
<ele>79.004166</ele>
<time>2026-04-25T09:45:13.003Z</time>
</trkpt>
<trkpt lat="59.0949560" lon="30.0191850">
<ele>79.796638</ele>
<time>2026-04-25T09:45:55.996Z</time>
</trkpt>
<trkpt lat="59.0949920" lon="30.0192840">
<ele>80.223366</ele>
<time>2026-04-25T09:46:22.996Z</time>
</trkpt>
<trkpt lat="59.0949450" lon="30.0196020">
<ele>80.467201</ele>
<time>2026-04-25T09:47:01.997Z</time>
</trkpt>
<trkpt lat="59.0949470" lon="30.0198080">
<ele>79.827118</ele>
<time>2026-04-25T09:47:24.003Z</time>
</trkpt>
<trkpt lat="59.0950090" lon="30.0199450">
<ele>79.796638</ele>
<time>2026-04-25T09:47:47.003Z</time>
</trkpt>
<trkpt lat="59.0950130" lon="30.0201330">
<ele>78.211685</ele>
<time>2026-04-25T09:48:07.004Z</time>
</trkpt>
<trkpt lat="59.0949620" lon="30.0205430">
<ele>74.249283</ele>
<time>2026-04-25T09:49:04.002Z</time>
</trkpt>
<trkpt lat="59.0948580" lon="30.0206430">
<ele>74.767441</ele>
<time>2026-04-25T09:49:27.002Z</time>
</trkpt>
<trkpt lat="59.0948640" lon="30.0205780">
<ele>74.950317</ele>
<time>2026-04-25T09:49:47.997Z</time>
</trkpt>
<trkpt lat="59.0947290" lon="30.0207460">
<ele>74.096878</ele>
<time>2026-04-25T09:50:52.002Z</time>
</trkpt>
<trkpt lat="59.0947700" lon="30.0207660">
<ele>75.742798</ele>
<time>2026-04-25T09:51:23.996Z</time>
</trkpt>
<trkpt lat="59.0946950" lon="30.0207330">
<ele>77.419197</ele>
<time>2026-04-25T09:52:21.996Z</time>
</trkpt>
<trkpt lat="59.0947610" lon="30.0203940">
<ele>72.511917</ele>
<time>2026-04-25T09:54:25.998Z</time>
</trkpt>
<trkpt lat="59.0947470" lon="30.0204870">
<ele>74.889359</ele>
<time>2026-04-25T09:55:26.996Z</time>
</trkpt>
<trkpt lat="59.0946640" lon="30.0204800">
<ele>76.169518</ele>
<time>2026-04-25T09:56:20.996Z</time>
</trkpt>
<trkpt lat="59.0946920" lon="30.0205380">
<ele>75.956161</ele>
<time>2026-04-25T09:56:51.996Z</time>
</trkpt>
<trkpt lat="59.0946940" lon="30.0204770">
<ele>75.011284</ele>
<time>2026-04-25T09:57:53.004Z</time>
</trkpt>
<trkpt lat="59.0947080" lon="30.0205070">
<ele>74.645515</ele>
<time>2026-04-25T09:58:26.000Z</time>
</trkpt>
<trkpt lat="59.0947020" lon="30.0204300">
<ele>73.334885</ele>
<time>2026-04-25T09:58:54.002Z</time>
</trkpt>
<trkpt lat="59.0946700" lon="30.0204930">
<ele>75.255119</ele>
<time>2026-04-25T09:59:24.000Z</time>
</trkpt>
<trkpt lat="59.0946990" lon="30.0204520">
<ele>75.072243</ele>
<time>2026-04-25T09:59:52.002Z</time>
</trkpt>
<trkpt lat="59.0946470" lon="30.0203660">
<ele>73.822556</ele>
<time>2026-04-25T10:00:57.001Z</time>
</trkpt>
<trkpt lat="59.0947160" lon="30.0203970">
<ele>74.218803</ele>
<time>2026-04-25T10:02:04.004Z</time>
</trkpt>
<trkpt lat="59.0946660" lon="30.0204010">
<ele>73.914001</ele>
<time>2026-04-25T10:02:31.004Z</time>
</trkpt>
<trkpt lat="59.0946760" lon="30.0203210">
<ele>72.847198</ele>
<time>2026-04-25T10:03:00.000Z</time>
</trkpt>
<trkpt lat="59.0947060" lon="30.0205450">
<ele>76.931519</ele>
<time>2026-04-25T10:05:04.001Z</time>
</trkpt>
<trkpt lat="59.0946760" lon="30.0204940">
<ele>79.034637</ele>
<time>2026-04-25T10:05:35.002Z</time>
</trkpt>
<trkpt lat="59.0947200" lon="30.0204480">
<ele>81.107285</ele>
<time>2026-04-25T10:09:00.996Z</time>
</trkpt>
<trkpt lat="59.0946640" lon="30.0203880">
<ele>76.078079</ele>
<time>2026-04-25T10:09:47.998Z</time>
</trkpt>
<trkpt lat="59.0946460" lon="30.0202810">
<ele>77.205841</ele>
<time>2026-04-25T10:10:13.002Z</time>
</trkpt>
<trkpt lat="59.0945870" lon="30.0201960">
<ele>76.870560</ele>
<time>2026-04-25T10:10:33.997Z</time>
</trkpt>
<trkpt lat="59.0945020" lon="30.0197910">
<ele>76.840080</ele>
<time>2026-04-25T10:11:19.003Z</time>
</trkpt>
<trkpt lat="59.0945770" lon="30.0193240">
<ele>76.321915</ele>
<time>2026-04-25T10:11:58.004Z</time>
</trkpt>
<trkpt lat="59.0945370" lon="30.0191200">
<ele>76.078079</ele>
<time>2026-04-25T10:12:21.997Z</time>
</trkpt>
<trkpt lat="59.0944390" lon="30.0187850">
<ele>77.967842</ele>
<time>2026-04-25T10:13:03.996Z</time>
</trkpt>
<trkpt lat="59.0943740" lon="30.0187450">
<ele>79.888084</ele>
<time>2026-04-25T10:13:29.001Z</time>
</trkpt>
<trkpt lat="59.0943310" lon="30.0186370">
<ele>80.314796</ele>
<time>2026-04-25T10:13:56.001Z</time>
</trkpt>
<trkpt lat="59.0943230" lon="30.0181960">
<ele>79.187035</ele>
<time>2026-04-25T10:15:06.002Z</time>
</trkpt>
<trkpt lat="59.0942800" lon="30.0180460">
<ele>80.436722</ele>
<time>2026-04-25T10:15:30.997Z</time>
</trkpt>
<trkpt lat="59.0941870" lon="30.0179170">
<ele>81.046318</ele>
<time>2026-04-25T10:15:54.999Z</time>
</trkpt>
<trkpt lat="59.0941540" lon="30.0176680">
<ele>81.442566</ele>
<time>2026-04-25T10:16:20.004Z</time>
</trkpt>
<trkpt lat="59.0942680" lon="30.0172800">
<ele>81.991203</ele>
<time>2026-04-25T10:16:58.996Z</time>
</trkpt>
<trkpt lat="59.0940840" lon="30.0171040">
<ele>83.027519</ele>
<time>2026-04-25T10:17:41.004Z</time>
</trkpt>
<trkpt lat="59.0940650" lon="30.0168040">
<ele>83.728561</ele>
<time>2026-04-25T10:18:26.001Z</time>
</trkpt>
<trkpt lat="59.0941170" lon="30.0167780">
<ele>83.698082</ele>
<time>2026-04-25T10:18:43.004Z</time>
</trkpt>
<trkpt lat="59.0941190" lon="30.0166010">
<ele>83.698082</ele>
<time>2026-04-25T10:19:02.004Z</time>
</trkpt>
<trkpt lat="59.0940610" lon="30.0162500">
<ele>83.515198</ele>
<time>2026-04-25T10:19:43.000Z</time>
</trkpt>
<trkpt lat="59.0940190" lon="30.0161730">
<ele>81.686401</ele>
<time>2026-04-25T10:20:04.004Z</time>
</trkpt>
<trkpt lat="59.0939900" lon="30.0162590">
<ele>79.613762</ele>
<time>2026-04-25T10:20:19.997Z</time>
</trkpt>
<trkpt lat="59.0939550" lon="30.0162630">
<ele>77.144882</ele>
<time>2026-04-25T10:20:51.999Z</time>
</trkpt>
<trkpt lat="59.0940520" lon="30.0163580">
<ele>71.597519</ele>
<time>2026-04-25T10:23:13.998Z</time>
</trkpt>
<trkpt lat="59.0937840" lon="30.0165610">
<ele>73.304398</ele>
<time>2026-04-25T10:24:45.996Z</time>
</trkpt>
<trkpt lat="59.0937500" lon="30.0166140">
<ele>74.828400</ele>
<time>2026-04-25T10:25:09.998Z</time>
</trkpt>
<trkpt lat="59.0937380" lon="30.0169340">
<ele>73.914001</ele>
<time>2026-04-25T10:26:02.003Z</time>
</trkpt>
<trkpt lat="59.0939090" lon="30.0174480">
<ele>73.182480</ele>
<time>2026-04-25T10:27:18.000Z</time>
</trkpt>
<trkpt lat="59.0939590" lon="30.0177230">
<ele>71.627998</ele>
<time>2026-04-25T10:27:45.000Z</time>
</trkpt>
<trkpt lat="59.0939740" lon="30.0180100">
<ele>71.353683</ele>
<time>2026-04-25T10:28:03.999Z</time>
</trkpt>
<trkpt lat="59.0941390" lon="30.0189340">
<ele>72.207115</ele>
<time>2026-04-25T10:29:43.999Z</time>
</trkpt>
<trkpt lat="59.0941180" lon="30.0194330">
<ele>72.176643</ele>
<time>2026-04-25T10:30:25.004Z</time>
</trkpt>
<trkpt lat="59.0940560" lon="30.0196020">
<ele>72.146156</ele>
<time>2026-04-25T10:30:44.997Z</time>
</trkpt>
<trkpt lat="59.0941270" lon="30.0200370">
<ele>67.635117</ele>
<time>2026-04-25T10:31:29.001Z</time>
</trkpt>
<trkpt lat="59.0942780" lon="30.0202890">
<ele>65.318642</ele>
<time>2026-04-25T10:32:13.998Z</time>
</trkpt>
<trkpt lat="59.0944170" lon="30.0203260">
<ele>66.202560</ele>
<time>2026-04-25T10:33:03.004Z</time>
</trkpt>
<trkpt lat="59.0945010" lon="30.0205700">
<ele>67.025520</ele>
<time>2026-04-25T10:33:49.997Z</time>
</trkpt>
<trkpt lat="59.0945120" lon="30.0207380">
<ele>67.056000</ele>
<time>2026-04-25T10:34:12.996Z</time>
</trkpt>
<trkpt lat="59.0943990" lon="30.0207740">
<ele>67.574158</ele>
<time>2026-04-25T10:34:47.997Z</time>
</trkpt>
<trkpt lat="59.0943220" lon="30.0209100">
<ele>69.921120</ele>
<time>2026-04-25T10:35:18.004Z</time>
</trkpt>
<trkpt lat="59.0943620" lon="30.0209130">
<ele>69.402962</ele>
<time>2026-04-25T10:36:22.000Z</time>
</trkpt>
<trkpt lat="59.0943990" lon="30.0210250">
<ele>72.603355</ele>
<time>2026-04-25T10:37:25.997Z</time>
</trkpt>
<trkpt lat="59.0943660" lon="30.0210760">
<ele>70.774559</ele>
<time>2026-04-25T10:38:00.004Z</time>
</trkpt>
<trkpt lat="59.0943310" lon="30.0209660">
<ele>69.616318</ele>
<time>2026-04-25T10:39:01.002Z</time>
</trkpt>
<trkpt lat="59.0942250" lon="30.0210090">
<ele>69.768715</ele>
<time>2026-04-25T10:39:52.998Z</time>
</trkpt>
<trkpt lat="59.0943770" lon="30.0211970">
<ele>67.757042</ele>
<time>2026-04-25T10:40:35.999Z</time>
</trkpt>
<trkpt lat="59.0944290" lon="30.0214230">
<ele>68.153282</ele>
<time>2026-04-25T10:41:20.003Z</time>
</trkpt>
<trkpt lat="59.0944960" lon="30.0215500">
<ele>68.214241</ele>
<time>2026-04-25T10:41:46.000Z</time>
</trkpt>
<trkpt lat="59.0945130" lon="30.0216470">
<ele>68.183762</ele>
<time>2026-04-25T10:41:59.997Z</time>
</trkpt>
<trkpt lat="59.0944610" lon="30.0218300">
<ele>69.768715</ele>
<time>2026-04-25T10:42:30.004Z</time>
</trkpt>
<trkpt lat="59.0944740" lon="30.0218840">
<ele>70.164963</ele>
<time>2026-04-25T10:42:53.997Z</time>
</trkpt>
<trkpt lat="59.0945980" lon="30.0218250">
<ele>72.542397</ele>
<time>2026-04-25T10:44:45.004Z</time>
</trkpt>
<trkpt lat="59.0945870" lon="30.0218670">
<ele>71.506081</ele>
<time>2026-04-25T10:45:12.997Z</time>
</trkpt>
<trkpt lat="59.0945960" lon="30.0217950">
<ele>72.146156</ele>
<time>2026-04-25T10:45:39.004Z</time>
</trkpt>
<trkpt lat="59.0945280" lon="30.0218100">
<ele>70.865997</ele>
<time>2026-04-25T10:46:02.997Z</time>
</trkpt>
<trkpt lat="59.0945320" lon="30.0218670">
<ele>70.439285</ele>
<time>2026-04-25T10:46:41.998Z</time>
</trkpt>
<trkpt lat="59.0944700" lon="30.0218210">
<ele>69.189598</ele>
<time>2026-04-25T10:47:04.004Z</time>
</trkpt>
<trkpt lat="59.0943890" lon="30.0218570">
<ele>69.829681</ele>
<time>2026-04-25T10:47:51.999Z</time>
</trkpt>
<trkpt lat="59.0943820" lon="30.0219100">
<ele>68.732399</ele>
<time>2026-04-25T10:48:17.004Z</time>
</trkpt>
<trkpt lat="59.0943250" lon="30.0219030">
<ele>68.305679</ele>
<time>2026-04-25T10:48:40.003Z</time>
</trkpt>
<trkpt lat="59.0942720" lon="30.0218060">
<ele>69.281044</ele>
<time>2026-04-25T10:49:31.999Z</time>
</trkpt>
<trkpt lat="59.0942550" lon="30.0218860">
<ele>70.561203</ele>
<time>2026-04-25T10:49:54.998Z</time>
</trkpt>
<trkpt lat="59.0942150" lon="30.0218890">
<ele>72.511917</ele>
<time>2026-04-25T10:50:20.996Z</time>
</trkpt>
<trkpt lat="59.0941980" lon="30.0217250">
<ele>72.908157</ele>
<time>2026-04-25T10:51:03.997Z</time>
</trkpt>
<trkpt lat="59.0939920" lon="30.0215060">
<ele>73.456802</ele>
<time>2026-04-25T10:52:15.001Z</time>
</trkpt>
<trkpt lat="59.0940100" lon="30.0212480">
<ele>71.841362</ele>
<time>2026-04-25T10:52:58.002Z</time>
</trkpt>
<trkpt lat="59.0939380" lon="30.0209690">
<ele>70.256401</ele>
<time>2026-04-25T10:53:56.996Z</time>
</trkpt>
<trkpt lat="59.0939450" lon="30.0207040">
<ele>70.043037</ele>
<time>2026-04-25T10:54:22.000Z</time>
</trkpt>
<trkpt lat="59.0937630" lon="30.0201720">
<ele>66.537842</ele>
<time>2026-04-25T10:55:16.000Z</time>
</trkpt>
<trkpt lat="59.0937610" lon="30.0199940">
<ele>66.446404</ele>
<time>2026-04-25T10:55:37.004Z</time>
</trkpt>
<trkpt lat="59.0937030" lon="30.0198000">
<ele>67.330315</ele>
<time>2026-04-25T10:56:12.998Z</time>
</trkpt>
<trkpt lat="59.0937810" lon="30.0195620">
<ele>71.597519</ele>
<time>2026-04-25T10:57:32.003Z</time>
</trkpt>
<trkpt lat="59.0937510" lon="30.0195050">
<ele>72.085197</ele>
<time>2026-04-25T10:57:59.003Z</time>
</trkpt>
<trkpt lat="59.0937890" lon="30.0189980">
<ele>70.561203</ele>
<time>2026-04-25T10:58:53.003Z</time>
</trkpt>
<trkpt lat="59.0937330" lon="30.0189680">
<ele>72.207115</ele>
<time>2026-04-25T10:59:19.000Z</time>
</trkpt>
<trkpt lat="59.0936810" lon="30.0188090">
<ele>72.542397</ele>
<time>2026-04-25T10:59:40.004Z</time>
</trkpt>
<trkpt lat="59.0935810" lon="30.0186840">
<ele>71.932800</ele>
<time>2026-04-25T11:00:03.004Z</time>
</trkpt>
<trkpt lat="59.0934950" lon="30.0184880">
<ele>71.475601</ele>
<time>2026-04-25T11:00:22.997Z</time>
</trkpt>
<trkpt lat="59.0934640" lon="30.0180400">
<ele>71.993759</ele>
<time>2026-04-25T11:01:19.001Z</time>
</trkpt>
<trkpt lat="59.0934890" lon="30.0178000">
<ele>70.378319</ele>
<time>2026-04-25T11:01:40.999Z</time>
</trkpt>
<trkpt lat="59.0934040" lon="30.0177170">
<ele>69.799202</ele>
<time>2026-04-25T11:02:02.996Z</time>
</trkpt>
<trkpt lat="59.0933390" lon="30.0174440">
<ele>68.000885</ele>
<time>2026-04-25T11:02:32.001Z</time>
</trkpt>
<trkpt lat="59.0933410" lon="30.0172040">
<ele>68.305679</ele>
<time>2026-04-25T11:02:51.000Z</time>
</trkpt>
<trkpt lat="59.0933850" lon="30.0171260">
<ele>66.964561</ele>
<time>2026-04-25T11:03:04.997Z</time>
</trkpt>
<trkpt lat="59.0934010" lon="30.0169640">
<ele>65.775841</ele>
<time>2026-04-25T11:03:16.004Z</time>
</trkpt>
<trkpt lat="59.0933810" lon="30.0167190">
<ele>66.354958</ele>
<time>2026-04-25T11:03:36.999Z</time>
</trkpt>
<trkpt lat="59.0933290" lon="30.0165790">
<ele>65.897758</ele>
<time>2026-04-25T11:03:57.001Z</time>
</trkpt>
<trkpt lat="59.0932690" lon="30.0165020">
<ele>66.019684</ele>
<time>2026-04-25T11:04:24.001Z</time>
</trkpt>
<trkpt lat="59.0932380" lon="30.0166330">
<ele>69.159119</ele>
<time>2026-04-25T11:05:11.996Z</time>
</trkpt>
<trkpt lat="59.0931990" lon="30.0166520">
<ele>68.945763</ele>
<time>2026-04-25T11:05:34.996Z</time>
</trkpt>
<trkpt lat="59.0932640" lon="30.0167440">
<ele>68.214241</ele>
<time>2026-04-25T11:07:03.003Z</time>
</trkpt>
<trkpt lat="59.0931070" lon="30.0170460">
<ele>67.970398</ele>
<time>2026-04-25T11:08:48.998Z</time>
</trkpt>
<trkpt lat="59.0930050" lon="30.0170620">
<ele>68.671440</ele>
<time>2026-04-25T11:09:10.002Z</time>
</trkpt>
<trkpt lat="59.0929890" lon="30.0172030">
<ele>68.244720</ele>
<time>2026-04-25T11:09:36.000Z</time>
</trkpt>
<trkpt lat="59.0930120" lon="30.0173700">
<ele>66.476883</ele>
<time>2026-04-25T11:09:57.997Z</time>
</trkpt>
<trkpt lat="59.0930990" lon="30.0175890">
<ele>64.861443</ele>
<time>2026-04-25T11:10:40.999Z</time>
</trkpt>
<trkpt lat="59.0930970" lon="30.0180300">
<ele>65.379601</ele>
<time>2026-04-25T11:11:22.998Z</time>
</trkpt>
<trkpt lat="59.0931360" lon="30.0182360">
<ele>65.989197</ele>
<time>2026-04-25T11:11:45.004Z</time>
</trkpt>
<trkpt lat="59.0931760" lon="30.0190520">
<ele>59.436001</ele>
<time>2026-04-25T11:12:47.998Z</time>
</trkpt>
<trkpt lat="59.0931400" lon="30.0193760">
<ele>58.521599</ele>
<time>2026-04-25T11:13:12.000Z</time>
</trkpt>
<trkpt lat="59.0931810" lon="30.0196340">
<ele>56.936642</ele>
<time>2026-04-25T11:13:53.999Z</time>
</trkpt>
<trkpt lat="59.0933110" lon="30.0199030">
<ele>58.795918</ele>
<time>2026-04-25T11:14:20.999Z</time>
</trkpt>
<trkpt lat="59.0934880" lon="30.0204540">
<ele>57.729118</ele>
<time>2026-04-25T11:15:06.998Z</time>
</trkpt>
<trkpt lat="59.0935950" lon="30.0205600">
<ele>54.010559</ele>
<time>2026-04-25T11:15:21.997Z</time>
</trkpt>
<trkpt lat="59.0936470" lon="30.0207480">
<ele>57.241440</ele>
<time>2026-04-25T11:15:50.000Z</time>
</trkpt>
<trkpt lat="59.0936090" lon="30.0209250">
<ele>59.771282</ele>
<time>2026-04-25T11:16:15.004Z</time>
</trkpt>
<trkpt lat="59.0937000" lon="30.0207540">
<ele>63.245998</ele>
<time>2026-04-25T11:17:13.004Z</time>
</trkpt>
<trkpt lat="59.0937130" lon="30.0207740">
<ele>63.306957</ele>
<time>2026-04-25T11:17:43.996Z</time>
</trkpt>
<trkpt lat="59.0936630" lon="30.0208190">
<ele>64.160400</ele>
<time>2026-04-25T11:18:13.000Z</time>
</trkpt>
<trkpt lat="59.0936850" lon="30.0208730">
<ele>64.556641</ele>
<time>2026-04-25T11:18:45.003Z</time>
</trkpt>
<trkpt lat="59.0937010" lon="30.0207810">
<ele>65.501518</ele>
<time>2026-04-25T11:19:19.001Z</time>
</trkpt>
<trkpt lat="59.0937230" lon="30.0208280">
<ele>65.013840</ele>
<time>2026-04-25T11:19:46.001Z</time>
</trkpt>
<trkpt lat="59.0936930" lon="30.0207360">
<ele>64.099442</ele>
<time>2026-04-25T11:20:24.000Z</time>
</trkpt>
<trkpt lat="59.0936760" lon="30.0207930">
<ele>65.592957</ele>
<time>2026-04-25T11:21:00.996Z</time>
</trkpt>
<trkpt lat="59.0936740" lon="30.0206930">
<ele>64.465202</ele>
<time>2026-04-25T11:21:32.999Z</time>
</trkpt>
<trkpt lat="59.0936240" lon="30.0206990">
<ele>63.855598</ele>
<time>2026-04-25T11:21:58.003Z</time>
</trkpt>
<trkpt lat="59.0936800" lon="30.0208410">
<ele>66.354958</ele>
<time>2026-04-25T11:23:57.002Z</time>
</trkpt>
<trkpt lat="59.0937320" lon="30.0206940">
<ele>66.354958</ele>
<time>2026-04-25T11:24:40.003Z</time>
</trkpt>
<trkpt lat="59.0936750" lon="30.0212540">
<ele>73.152000</ele>
<time>2026-04-25T11:26:25.999Z</time>
</trkpt>
<trkpt lat="59.0937340" lon="30.0212590">
<ele>73.365356</ele>
<time>2026-04-25T11:26:50.001Z</time>
</trkpt>
<trkpt lat="59.0936200" lon="30.0212860">
<ele>72.115685</ele>
<time>2026-04-25T11:27:13.000Z</time>
</trkpt>
<trkpt lat="59.0935500" lon="30.0213680">
<ele>71.871841</ele>
<time>2026-04-25T11:27:37.996Z</time>
</trkpt>
<trkpt lat="59.0935430" lon="30.0212750">
<ele>70.500244</ele>
<time>2026-04-25T11:27:57.004Z</time>
</trkpt>
<trkpt lat="59.0934560" lon="30.0213160">
<ele>69.677284</ele>
<time>2026-04-25T11:28:17.999Z</time>
</trkpt>
<trkpt lat="59.0934270" lon="30.0214290">
<ele>69.951599</ele>
<time>2026-04-25T11:28:43.997Z</time>
</trkpt>
<trkpt lat="59.0936170" lon="30.0215810">
<ele>70.561203</ele>
<time>2026-04-25T11:29:56.996Z</time>
</trkpt>
<trkpt lat="59.0936270" lon="30.0218750">
<ele>71.627998</ele>
<time>2026-04-25T11:30:50.996Z</time>
</trkpt>
<trkpt lat="59.0934510" lon="30.0220870">
<ele>68.336159</ele>
<time>2026-04-25T11:32:07.996Z</time>
</trkpt>
<trkpt lat="59.0935590" lon="30.0218760">
<ele>66.233040</ele>
<time>2026-04-25T11:32:37.000Z</time>
</trkpt>
<trkpt lat="59.0935350" lon="30.0218020">
<ele>63.916557</ele>
<time>2026-04-25T11:33:08.001Z</time>
</trkpt>
<trkpt lat="59.0934620" lon="30.0218370">
<ele>64.678558</ele>
<time>2026-04-25T11:33:52.998Z</time>
</trkpt>
<trkpt lat="59.0933200" lon="30.0220680">
<ele>67.116959</ele>
<time>2026-04-25T11:34:57.003Z</time>
</trkpt>
<trkpt lat="59.0932940" lon="30.0220020">
<ele>67.421761</ele>
<time>2026-04-25T11:35:16.002Z</time>
</trkpt>
<trkpt lat="59.0933440" lon="30.0219810">
<ele>66.233040</ele>
<time>2026-04-25T11:35:32.004Z</time>
</trkpt>
<trkpt lat="59.0933310" lon="30.0220220">
<ele>65.440559</ele>
<time>2026-04-25T11:35:58.001Z</time>
</trkpt>
<trkpt lat="59.0932590" lon="30.0219930">
<ele>66.233040</ele>
<time>2026-04-25T11:36:21.001Z</time>
</trkpt>
<trkpt lat="59.0932130" lon="30.0220550">
<ele>66.690239</ele>
<time>2026-04-25T11:36:46.999Z</time>
</trkpt>
<trkpt lat="59.0931490" lon="30.0219590">
<ele>65.440559</ele>
<time>2026-04-25T11:37:11.001Z</time>
</trkpt>
<trkpt lat="59.0931580" lon="30.0218630">
<ele>66.995041</ele>
<time>2026-04-25T11:37:35.003Z</time>
</trkpt>
<trkpt lat="59.0931210" lon="30.0219750">
<ele>66.050156</ele>
<time>2026-04-25T11:38:14.997Z</time>
</trkpt>
<trkpt lat="59.0930900" lon="30.0218920">
<ele>64.221359</ele>
<time>2026-04-25T11:38:40.001Z</time>
</trkpt>
<trkpt lat="59.0932020" lon="30.0215230">
<ele>59.375042</ele>
<time>2026-04-25T11:39:27.996Z</time>
</trkpt>
<trkpt lat="59.0931510" lon="30.0213550">
<ele>59.923683</ele>
<time>2026-04-25T11:39:58.003Z</time>
</trkpt>
<trkpt lat="59.0930780" lon="30.0213060">
<ele>60.624718</ele>
<time>2026-04-25T11:40:18.998Z</time>
</trkpt>
<trkpt lat="59.0930340" lon="30.0214360">
<ele>62.087761</ele>
<time>2026-04-25T11:40:48.996Z</time>
</trkpt>
<trkpt lat="59.0929180" lon="30.0215720">
<ele>64.160400</ele>
<time>2026-04-25T11:41:15.003Z</time>
</trkpt>
<trkpt lat="59.0929550" lon="30.0216600">
<ele>67.056000</ele>
<time>2026-04-25T11:41:41.001Z</time>
</trkpt>
<trkpt lat="59.0930600" lon="30.0215390">
<ele>69.189598</ele>
<time>2026-04-25T11:42:08.001Z</time>
</trkpt>
<trkpt lat="59.0931790" lon="30.0213610">
<ele>69.250557</ele>
<time>2026-04-25T11:42:33.998Z</time>
</trkpt>
<trkpt lat="59.0932470" lon="30.0211380">
<ele>67.604637</ele>
<time>2026-04-25T11:42:54.000Z</time>
</trkpt>
<trkpt lat="59.0932800" lon="30.0202160">
<ele>54.772560</ele>
<time>2026-04-25T11:44:06.999Z</time>
</trkpt>
<trkpt lat="59.0933560" lon="30.0200610">
<ele>53.614319</ele>
<time>2026-04-25T11:44:24.996Z</time>
</trkpt>
<trkpt lat="59.0931920" lon="30.0200660">
<ele>52.181759</ele>
<time>2026-04-25T11:44:48.998Z</time>
</trkpt>
<trkpt lat="59.0930530" lon="30.0198950">
<ele>53.736240</ele>
<time>2026-04-25T11:45:21.001Z</time>
</trkpt>
<trkpt lat="59.0929540" lon="30.0195500">
<ele>54.498241</ele>
<time>2026-04-25T11:46:12.003Z</time>
</trkpt>
<trkpt lat="59.0929430" lon="30.0192270">
<ele>57.515759</ele>
<time>2026-04-25T11:46:42.001Z</time>
</trkpt>
<trkpt lat="59.0928510" lon="30.0189460">
<ele>62.697357</ele>
<time>2026-04-25T11:49:09.002Z</time>
</trkpt>
<trkpt lat="59.0929870" lon="30.0185520">
<ele>63.733681</ele>
<time>2026-04-25T11:50:20.999Z</time>
</trkpt>
<trkpt lat="59.0929940" lon="30.0182850">
<ele>63.733681</ele>
<time>2026-04-25T11:50:46.997Z</time>
</trkpt>
<trkpt lat="59.0928510" lon="30.0183140">
<ele>64.465202</ele>
<time>2026-04-25T11:51:27.000Z</time>
</trkpt>
<trkpt lat="59.0927570" lon="30.0182460">
<ele>64.495682</ele>
<time>2026-04-25T11:51:51.002Z</time>
</trkpt>
<trkpt lat="59.0927220" lon="30.0178260">
<ele>66.446404</ele>
<time>2026-04-25T11:52:44.000Z</time>
</trkpt>
<trkpt lat="59.0927620" lon="30.0176060">
<ele>65.958717</ele>
<time>2026-04-25T11:53:15.000Z</time>
</trkpt>
<trkpt lat="59.0927310" lon="30.0174280">
<ele>66.354958</ele>
<time>2026-04-25T11:53:40.004Z</time>
</trkpt>
<trkpt lat="59.0926320" lon="30.0174440">
<ele>65.074799</ele>
<time>2026-04-25T11:54:07.004Z</time>
</trkpt>
<trkpt lat="59.0925630" lon="30.0175800">
<ele>67.696083</ele>
<time>2026-04-25T11:55:43.003Z</time>
</trkpt>
<trkpt lat="59.0925640" lon="30.0175110">
<ele>67.513199</ele>
<time>2026-04-25T11:56:06.996Z</time>
</trkpt>
<trkpt lat="59.0927020" lon="30.0174780">
<ele>66.354958</ele>
<time>2026-04-25T11:56:45.004Z</time>
</trkpt>
<trkpt lat="59.0927630" lon="30.0173300">
<ele>65.318642</ele>
<time>2026-04-25T11:57:08.004Z</time>
</trkpt>
<trkpt lat="59.0927830" lon="30.0171120">
<ele>63.672718</ele>
<time>2026-04-25T11:57:30.001Z</time>
</trkpt>
<trkpt lat="59.0926350" lon="30.0167840">
<ele>67.452240</ele>
<time>2026-04-25T11:58:39.000Z</time>
</trkpt>
<trkpt lat="59.0926720" lon="30.0168770">
<ele>71.749916</ele>
<time>2026-04-25T11:59:07.002Z</time>
</trkpt>
<trkpt lat="59.0924410" lon="30.0170050">
<ele>71.109840</ele>
<time>2026-04-25T12:00:02.998Z</time>
</trkpt>
<trkpt lat="59.0922270" lon="30.0175010">
<ele>70.987915</ele>
<time>2026-04-25T12:01:22.002Z</time>
</trkpt>
<trkpt lat="59.0922840" lon="30.0174990">
<ele>74.919838</ele>
<time>2026-04-25T12:02:48.998Z</time>
</trkpt>
<trkpt lat="59.0923250" lon="30.0177600">
<ele>73.456802</ele>
<time>2026-04-25T12:03:30.004Z</time>
</trkpt>
<trkpt lat="59.0923380" lon="30.0185020">
<ele>68.823837</ele>
<time>2026-04-25T12:04:35.003Z</time>
</trkpt>
<trkpt lat="59.0922990" lon="30.0185920">
<ele>67.360802</ele>
<time>2026-04-25T12:04:57.000Z</time>
</trkpt>
<trkpt lat="59.0923890" lon="30.0185540">
<ele>67.421761</ele>
<time>2026-04-25T12:05:18.997Z</time>
</trkpt>
<trkpt lat="59.0924850" lon="30.0186020">
<ele>66.598801</ele>
<time>2026-04-25T12:05:40.001Z</time>
</trkpt>
<trkpt lat="59.0925280" lon="30.0187520">
<ele>66.050156</ele>
<time>2026-04-25T12:06:01.999Z</time>
</trkpt>
<trkpt lat="59.0925330" lon="30.0192400">
<ele>65.227203</ele>
<time>2026-04-25T12:06:50.003Z</time>
</trkpt>
<trkpt lat="59.0925880" lon="30.0196120">
<ele>62.544960</ele>
<time>2026-04-25T12:07:20.001Z</time>
</trkpt>
<trkpt lat="59.0927460" lon="30.0202790">
<ele>59.771282</ele>
<time>2026-04-25T12:08:27.004Z</time>
</trkpt>
<trkpt lat="59.0926800" lon="30.0206340">
<ele>60.563759</ele>
<time>2026-04-25T12:08:54.004Z</time>
</trkpt>
<trkpt lat="59.0927080" lon="30.0207520">
<ele>61.782959</ele>
<time>2026-04-25T12:09:09.996Z</time>
</trkpt>
<trkpt lat="59.0926040" lon="30.0210740">
<ele>62.758320</ele>
<time>2026-04-25T12:09:39.001Z</time>
</trkpt>
<trkpt lat="59.0927040" lon="30.0214180">
<ele>59.618881</ele>
<time>2026-04-25T12:10:08.999Z</time>
</trkpt>
<trkpt lat="59.0925780" lon="30.0215970">
<ele>59.679840</ele>
<time>2026-04-25T12:10:31.999Z</time>
</trkpt>
<trkpt lat="59.0924460" lon="30.0215990">
<ele>61.234318</ele>
<time>2026-04-25T12:11:01.003Z</time>
</trkpt>
<trkpt lat="59.0925110" lon="30.0212180">
<ele>60.624718</ele>
<time>2026-04-25T12:11:47.003Z</time>
</trkpt>
<trkpt lat="59.0925290" lon="30.0209360">
<ele>57.729118</ele>
<time>2026-04-25T12:12:10.996Z</time>
</trkpt>
<trkpt lat="59.0925100" lon="30.0206360">
<ele>53.492401</ele>
<time>2026-04-25T12:12:30.997Z</time>
</trkpt>
<trkpt lat="59.0924640" lon="30.0204040">
<ele>51.328320</ele>
<time>2026-04-25T12:12:52.001Z</time>
</trkpt>
<trkpt lat="59.0924040" lon="30.0201830">
<ele>49.347118</ele>
<time>2026-04-25T12:13:16.997Z</time>
</trkpt>
<trkpt lat="59.0922560" lon="30.0200640">
<ele>49.225201</ele>
<time>2026-04-25T12:13:36.998Z</time>
</trkpt>
<trkpt lat="59.0921680" lon="30.0198360">
<ele>47.304958</ele>
<time>2026-04-25T12:14:02.003Z</time>
</trkpt>
<trkpt lat="59.0921440" lon="30.0194720">
<ele>51.633118</ele>
<time>2026-04-25T12:14:42.999Z</time>
</trkpt>
<trkpt lat="59.0919590" lon="30.0193420">
<ele>60.380882</ele>
<time>2026-04-25T12:15:42.002Z</time>
</trkpt>
<trkpt lat="59.0919950" lon="30.0193040">
<ele>64.160400</ele>
<time>2026-04-25T12:16:10.004Z</time>
</trkpt>
<trkpt lat="59.0920560" lon="30.0193570">
<ele>69.860161</ele>
<time>2026-04-25T12:16:37.998Z</time>
</trkpt>
<trkpt lat="59.0921240" lon="30.0191790">
<ele>70.622162</ele>
<time>2026-04-25T12:16:59.002Z</time>
</trkpt>
<trkpt lat="59.0920780" lon="30.0190410">
<ele>71.627998</ele>
<time>2026-04-25T12:17:20.999Z</time>
</trkpt>
<trkpt lat="59.0920110" lon="30.0189590">
<ele>71.567039</ele>
<time>2026-04-25T12:17:49.001Z</time>
</trkpt>
<trkpt lat="59.0920300" lon="30.0186570">
<ele>69.860161</ele>
<time>2026-04-25T12:18:23.000Z</time>
</trkpt>
<trkpt lat="59.0919350" lon="30.0185440">
<ele>71.506081</ele>
<time>2026-04-25T12:18:52.004Z</time>
</trkpt>
<trkpt lat="59.0919570" lon="30.0184770">
<ele>72.999603</ele>
<time>2026-04-25T12:19:19.004Z</time>
</trkpt>
<trkpt lat="59.0919000" lon="30.0180270">
<ele>70.805038</ele>
<time>2026-04-25T12:20:24.996Z</time>
</trkpt>
<trkpt lat="59.0919680" lon="30.0175980">
<ele>69.098160</ele>
<time>2026-04-25T12:21:10.002Z</time>
</trkpt>
<trkpt lat="59.0918410" lon="30.0174140">
<ele>67.574158</ele>
<time>2026-04-25T12:21:30.997Z</time>
</trkpt>
<trkpt lat="59.0917230" lon="30.0175310">
<ele>67.543678</ele>
<time>2026-04-25T12:21:52.001Z</time>
</trkpt>
<trkpt lat="59.0917230" lon="30.0176450">
<ele>68.823837</ele>
<time>2026-04-25T12:22:19.001Z</time>
</trkpt>
<trkpt lat="59.0914460" lon="30.0178930">
<ele>72.572884</ele>
<time>2026-04-25T12:23:37.003Z</time>
</trkpt>
<trkpt lat="59.0914550" lon="30.0180790">
<ele>73.334885</ele>
<time>2026-04-25T12:23:59.001Z</time>
</trkpt>
<trkpt lat="59.0914860" lon="30.0179530">
<ele>71.871841</ele>
<time>2026-04-25T12:24:09.999Z</time>
</trkpt>
<trkpt lat="59.0915470" lon="30.0179360">
<ele>72.542397</ele>
<time>2026-04-25T12:24:32.999Z</time>
</trkpt>
<trkpt lat="59.0915340" lon="30.0180710">
<ele>72.908157</ele>
<time>2026-04-25T12:24:46.996Z</time>
</trkpt>
<trkpt lat="59.0916050" lon="30.0186580">
<ele>72.694801</ele>
<time>2026-04-25T12:25:48.003Z</time>
</trkpt>
<trkpt lat="59.0915790" lon="30.0189300">
<ele>72.877686</ele>
<time>2026-04-25T12:26:12.998Z</time>
</trkpt>
<trkpt lat="59.0916100" lon="30.0193470">
<ele>71.963280</ele>
<time>2026-04-25T12:26:56.000Z</time>
</trkpt>
<trkpt lat="59.0916990" lon="30.0195370">
<ele>71.292717</ele>
<time>2026-04-25T12:27:17.004Z</time>
</trkpt>
<trkpt lat="59.0917840" lon="30.0198760">
<ele>66.934082</ele>
<time>2026-04-25T12:27:41.999Z</time>
</trkpt>
<trkpt lat="59.0919470" lon="30.0201990">
<ele>64.617599</ele>
<time>2026-04-25T12:28:39.999Z</time>
</trkpt>
<trkpt lat="59.0919050" lon="30.0202570">
<ele>68.183762</ele>
<time>2026-04-25T12:29:09.997Z</time>
</trkpt>
<trkpt lat="59.0919180" lon="30.0203080">
<ele>68.793358</ele>
<time>2026-04-25T12:29:38.000Z</time>
</trkpt>
<trkpt lat="59.0919850" lon="30.0201130">
<ele>68.397118</ele>
<time>2026-04-25T12:30:05.000Z</time>
</trkpt>
<trkpt lat="59.0919230" lon="30.0202550">
<ele>66.141602</ele>
<time>2026-04-25T12:31:03.000Z</time>
</trkpt>
<trkpt lat="59.0921540" lon="30.0207710">
<ele>65.684402</ele>
<time>2026-04-25T12:32:07.999Z</time>
</trkpt>
<trkpt lat="59.0920150" lon="30.0211500">
<ele>64.861443</ele>
<time>2026-04-25T12:32:45.004Z</time>
</trkpt>
<trkpt lat="59.0919950" lon="30.0213060">
<ele>66.812157</ele>
<time>2026-04-25T12:33:18.000Z</time>
</trkpt>
<trkpt lat="59.0919370" lon="30.0213500">
<ele>68.366638</ele>
<time>2026-04-25T12:33:45.000Z</time>
</trkpt>
<trkpt lat="59.0919050" lon="30.0213060">
<ele>67.574158</ele>
<time>2026-04-25T12:34:05.002Z</time>
</trkpt>
<trkpt lat="59.0918920" lon="30.0214220">
<ele>69.646797</ele>
<time>2026-04-25T12:34:25.997Z</time>
</trkpt>
<trkpt lat="59.0919440" lon="30.0212400">
<ele>67.482719</ele>
<time>2026-04-25T12:34:48.996Z</time>
</trkpt>
<trkpt lat="59.0919770" lon="30.0212190">
<ele>66.659760</ele>
<time>2026-04-25T12:34:59.002Z</time>
</trkpt>
<trkpt lat="59.0920740" lon="30.0213180">
<ele>65.013840</ele>
<time>2026-04-25T12:35:18.001Z</time>
</trkpt>
<trkpt lat="59.0921010" lon="30.0214710">
<ele>61.904881</ele>
<time>2026-04-25T12:35:45.001Z</time>
</trkpt>
<trkpt lat="59.0922820" lon="30.0211700">
<ele>58.674000</ele>
<time>2026-04-25T12:36:25.998Z</time>
</trkpt>
<trkpt lat="59.0924430" lon="30.0213610">
<ele>56.174641</ele>
<time>2026-04-25T12:36:52.998Z</time>
</trkpt>
<trkpt lat="59.0922780" lon="30.0217510">
<ele>59.283600</ele>
<time>2026-04-25T12:38:01.003Z</time>
</trkpt>
<trkpt lat="59.0922570" lon="30.0217120">
<ele>60.411358</ele>
<time>2026-04-25T12:38:31.001Z</time>
</trkpt>
<trkpt lat="59.0923100" lon="30.0214470">
<ele>59.283600</ele>
<time>2026-04-25T12:38:51.996Z</time>
</trkpt>
<trkpt lat="59.0922280" lon="30.0212940">
<ele>59.131199</ele>
<time>2026-04-25T12:39:15.998Z</time>
</trkpt>
<trkpt lat="59.0922460" lon="30.0211230">
<ele>59.832241</ele>
<time>2026-04-25T12:39:56.002Z</time>
</trkpt>
<trkpt lat="59.0921580" lon="30.0210500">
<ele>58.552082</ele>
<time>2026-04-25T12:40:16.997Z</time>
</trkpt>
<trkpt lat="59.0920920" lon="30.0211810">
<ele>56.875683</ele>
<time>2026-04-25T12:40:34.000Z</time>
</trkpt>
<trkpt lat="59.0920110" lon="30.0212150">
<ele>56.997601</ele>
<time>2026-04-25T12:40:58.002Z</time>
</trkpt>
<trkpt lat="59.0917600" lon="30.0209830">
<ele>60.228481</ele>
<time>2026-04-25T12:42:04.997Z</time>
</trkpt>
<trkpt lat="59.0917210" lon="30.0208130">
<ele>59.192158</ele>
<time>2026-04-25T12:42:31.997Z</time>
</trkpt>
<trkpt lat="59.0917080" lon="30.0205660">
<ele>56.906158</ele>
<time>2026-04-25T12:43:16.000Z</time>
</trkpt>
<trkpt lat="59.0915400" lon="30.0204560">
<ele>57.485283</ele>
<time>2026-04-25T12:43:52.997Z</time>
</trkpt>
<trkpt lat="59.0915030" lon="30.0204420">
<ele>55.686958</ele>
<time>2026-04-25T12:44:11.996Z</time>
</trkpt>
<trkpt lat="59.0914980" lon="30.0205050">
<ele>56.997601</ele>
<time>2026-04-25T12:44:38.003Z</time>
</trkpt>
<trkpt lat="59.0914920" lon="30.0199700">
<ele>56.327042</ele>
<time>2026-04-25T12:45:29.998Z</time>
</trkpt>
<trkpt lat="59.0914040" lon="30.0197900">
<ele>55.839359</ele>
<time>2026-04-25T12:45:51.002Z</time>
</trkpt>
<trkpt lat="59.0913820" lon="30.0196410">
<ele>55.808884</ele>
<time>2026-04-25T12:46:11.997Z</time>
</trkpt>
<trkpt lat="59.0914180" lon="30.0195990">
<ele>56.631840</ele>
<time>2026-04-25T12:46:31.999Z</time>
</trkpt>
<trkpt lat="59.0915220" lon="30.0196950">
<ele>59.801758</ele>
<time>2026-04-25T12:47:05.997Z</time>
</trkpt>
<trkpt lat="59.0914510" lon="30.0197700">
<ele>69.067680</ele>
<time>2026-04-25T12:49:01.998Z</time>
</trkpt>
<trkpt lat="59.0914100" lon="30.0196720">
<ele>70.561203</ele>
<time>2026-04-25T12:49:28.004Z</time>
</trkpt>
<trkpt lat="59.0913300" lon="30.0196590">
<ele>69.585838</ele>
<time>2026-04-25T12:49:55.998Z</time>
</trkpt>
<trkpt lat="59.0913220" lon="30.0194530">
<ele>69.707756</ele>
<time>2026-04-25T12:50:24.000Z</time>
</trkpt>
<trkpt lat="59.0913880" lon="30.0192110">
<ele>66.842644</ele>
<time>2026-04-25T12:50:45.004Z</time>
</trkpt>
<trkpt lat="59.0912820" lon="30.0188350">
<ele>64.769997</ele>
<time>2026-04-25T12:51:23.003Z</time>
</trkpt>
<trkpt lat="59.0912000" lon="30.0188430">
<ele>64.068962</ele>
<time>2026-04-25T12:51:47.998Z</time>
</trkpt>
<trkpt lat="59.0911190" lon="30.0185270">
<ele>63.825119</ele>
<time>2026-04-25T12:52:29.004Z</time>
</trkpt>
<trkpt lat="59.0911320" lon="30.0183510">
<ele>63.581284</ele>
<time>2026-04-25T12:52:51.001Z</time>
</trkpt>
<trkpt lat="59.0912020" lon="30.0182510">
<ele>63.398399</ele>
<time>2026-04-25T12:53:14.001Z</time>
</trkpt>
<trkpt lat="59.0911790" lon="30.0182440">
<ele>63.002159</ele>
<time>2026-04-25T12:53:34.996Z</time>
</trkpt>
<trkpt lat="59.0912000" lon="30.0180300">
<ele>61.569599</ele>
<time>2026-04-25T12:54:13.997Z</time>
</trkpt>
<trkpt lat="59.0913200" lon="30.0176610">
<ele>59.192158</ele>
<time>2026-04-25T12:54:37.999Z</time>
</trkpt>
<trkpt lat="59.0912500" lon="30.0169810">
<ele>57.515759</ele>
<time>2026-04-25T12:55:44.000Z</time>
</trkpt>
<trkpt lat="59.0912030" lon="30.0171350">
<ele>59.283600</ele>
<time>2026-04-25T12:57:05.000Z</time>
</trkpt>
<trkpt lat="59.0912930" lon="30.0170980">
<ele>58.643517</ele>
<time>2026-04-25T12:57:29.002Z</time>
</trkpt>
<trkpt lat="59.0914660" lon="30.0172270">
<ele>57.515759</ele>
<time>2026-04-25T12:57:54.999Z</time>
</trkpt>
<trkpt lat="59.0915380" lon="30.0172260">
<ele>56.845200</ele>
<time>2026-04-25T12:58:08.003Z</time>
</trkpt>
<trkpt lat="59.0916510" lon="30.0171200">
<ele>55.625999</ele>
<time>2026-04-25T12:58:30.000Z</time>
</trkpt>
<trkpt lat="59.0917340" lon="30.0171160">
<ele>55.168800</ele>
<time>2026-04-25T12:58:43.997Z</time>
</trkpt>
<trkpt lat="59.0921390" lon="30.0168980">
<ele>62.209682</ele>
<time>2026-04-25T13:00:27.003Z</time>
</trkpt>
<trkpt lat="59.0921250" lon="30.0167250">
<ele>62.392559</ele>
<time>2026-04-25T13:01:16.000Z</time>
</trkpt>
<trkpt lat="59.0922090" lon="30.0166960">
<ele>62.270641</ele>
<time>2026-04-25T13:01:36.002Z</time>
</trkpt>
<trkpt lat="59.0922400" lon="30.0164580">
<ele>60.746639</ele>
<time>2026-04-25T13:02:16.999Z</time>
</trkpt>
<trkpt lat="59.0923110" lon="30.0164080">
<ele>60.228481</ele>
<time>2026-04-25T13:02:41.001Z</time>
</trkpt>
<trkpt lat="59.0924770" lon="30.0163370">
<ele>59.100719</ele>
<time>2026-04-25T13:03:13.003Z</time>
</trkpt>
<trkpt lat="59.0926050" lon="30.0163820">
<ele>58.978802</ele>
<time>2026-04-25T13:03:29.998Z</time>
</trkpt>
<trkpt lat="59.0926670" lon="30.0165860">
<ele>58.460640</ele>
<time>2026-04-25T13:04:14.002Z</time>
</trkpt>
<trkpt lat="59.0926820" lon="30.0164030">
<ele>56.875683</ele>
<time>2026-04-25T13:04:53.003Z</time>
</trkpt>
<trkpt lat="59.0929230" lon="30.0160720">
<ele>55.991760</ele>
<time>2026-04-25T13:05:46.000Z</time>
</trkpt>
<trkpt lat="59.0931010" lon="30.0159170">
<ele>55.869843</ele>
<time>2026-04-25T13:06:06.002Z</time>
</trkpt>
<trkpt lat="59.0932360" lon="30.0159350">
<ele>55.656483</ele>
<time>2026-04-25T13:06:26.004Z</time>
</trkpt>
<trkpt lat="59.0932850" lon="30.0161110">
<ele>55.930801</ele>
<time>2026-04-25T13:06:48.001Z</time>
</trkpt>
<trkpt lat="59.0931790" lon="30.0158890">
<ele>63.642242</ele>
<time>2026-04-25T13:08:29.003Z</time>
</trkpt>
<trkpt lat="59.0932850" lon="30.0157320">
<ele>63.276482</ele>
<time>2026-04-25T13:09:12.997Z</time>
</trkpt>
<trkpt lat="59.0934840" lon="30.0158120">
<ele>59.466480</ele>
<time>2026-04-25T13:09:47.998Z</time>
</trkpt>
<trkpt lat="59.0935880" lon="30.0159570">
<ele>59.161682</ele>
<time>2026-04-25T13:10:10.004Z</time>
</trkpt>
<trkpt lat="59.0938360" lon="30.0160280">
<ele>60.594242</ele>
<time>2026-04-25T13:10:33.997Z</time>
</trkpt>
<trkpt lat="59.0940040" lon="30.0158980">
<ele>62.057281</ele>
<time>2026-04-25T13:10:56.004Z</time>
</trkpt>
<trkpt lat="59.0942080" lon="30.0156410">
<ele>62.666882</ele>
<time>2026-04-25T13:11:31.004Z</time>
</trkpt>
<trkpt lat="59.0942640" lon="30.0152710">
<ele>63.063118</ele>
<time>2026-04-25T13:12:09.003Z</time>
</trkpt>
<trkpt lat="59.0943430" lon="30.0153090">
<ele>62.240158</ele>
<time>2026-04-25T13:12:32.996Z</time>
</trkpt>
<trkpt lat="59.0944410" lon="30.0152230">
<ele>62.148720</ele>
<time>2026-04-25T13:12:52.998Z</time>
</trkpt>
<trkpt lat="59.0945140" lon="30.0149820">
<ele>60.350399</ele>
<time>2026-04-25T13:13:12.999Z</time>
</trkpt>
<trkpt lat="59.0945710" lon="30.0149400">
<ele>58.552082</ele>
<time>2026-04-25T13:13:34.997Z</time>
</trkpt>
<trkpt lat="59.0946850" lon="30.0150040">
<ele>58.369202</ele>
<time>2026-04-25T13:14:21.998Z</time>
</trkpt>
<trkpt lat="59.0946960" lon="30.0149020">
<ele>61.782959</ele>
<time>2026-04-25T13:15:46.999Z</time>
</trkpt>
<trkpt lat="59.0950450" lon="30.0146870">
<ele>55.138317</ele>
<time>2026-04-25T13:17:09.001Z</time>
</trkpt>
<trkpt lat="59.0954100" lon="30.0146410">
<ele>48.310799</ele>
<time>2026-04-25T13:18:04.997Z</time>
</trkpt>
<trkpt lat="59.0958480" lon="30.0143330">
<ele>50.901600</ele>
<time>2026-04-25T13:19:06.997Z</time>
</trkpt>
<trkpt lat="59.0959220" lon="30.0140810">
<ele>56.845200</ele>
<time>2026-04-25T13:19:48.996Z</time>
</trkpt>
<trkpt lat="59.0960510" lon="30.0140980">
<ele>57.546242</ele>
<time>2026-04-25T13:20:38.996Z</time>
</trkpt>
<trkpt lat="59.0960300" lon="30.0139360">
<ele>57.820560</ele>
<time>2026-04-25T13:20:58.004Z</time>
</trkpt>
<trkpt lat="59.0960950" lon="30.0137360">
<ele>58.033916</ele>
<time>2026-04-25T13:21:16.001Z</time>
</trkpt>
<trkpt lat="59.0961390" lon="30.0134080">
<ele>55.168800</ele>
<time>2026-04-25T13:21:32.003Z</time>
</trkpt>
</trkseg>
</trk>
<trk>
 <name>20260425_Lisa89</name>
 <desc>20260425_Lisa89</desc>
<trkseg>
<trkpt lat="59.0995970" lon="30.0282180">
<ele>58.887360</ele>
<time>2026-04-25T08:00:07.004Z</time>
</trkpt>
<trkpt lat="59.0996360" lon="30.0285580">
<ele>59.527439</ele>
<time>2026-04-25T08:00:14.996Z</time>
</trkpt>
<trkpt lat="59.0996080" lon="30.0286660">
<ele>60.198002</ele>
<time>2026-04-25T08:00:18.003Z</time>
</trkpt>
<trkpt lat="59.0990530" lon="30.0292930">
<ele>63.733681</ele>
<time>2026-04-25T08:01:43.997Z</time>
</trkpt>
<trkpt lat="59.0987850" lon="30.0297520">
<ele>63.428883</ele>
<time>2026-04-25T08:02:24.000Z</time>
</trkpt>
<trkpt lat="59.0983920" lon="30.0302020">
<ele>65.836800</ele>
<time>2026-04-25T08:03:00.996Z</time>
</trkpt>
<trkpt lat="59.0982290" lon="30.0303110">
<ele>64.983360</ele>
<time>2026-04-25T08:03:16.004Z</time>
</trkpt>
<trkpt lat="59.0980820" lon="30.0304000">
<ele>62.057281</ele>
<time>2026-04-25T08:03:31.003Z</time>
</trkpt>
<trkpt lat="59.0976540" lon="30.0305080">
<ele>56.631840</ele>
<time>2026-04-25T08:04:10.998Z</time>
</trkpt>
<trkpt lat="59.0973190" lon="30.0309090">
<ele>58.734959</ele>
<time>2026-04-25T08:04:44.996Z</time>
</trkpt>
<trkpt lat="59.0971840" lon="30.0309970">
<ele>60.533283</ele>
<time>2026-04-25T08:04:56.997Z</time>
</trkpt>
<trkpt lat="59.0970310" lon="30.0312580">
<ele>58.826401</ele>
<time>2026-04-25T08:05:15.003Z</time>
</trkpt>
<trkpt lat="59.0968870" lon="30.0317050">
<ele>55.016399</ele>
<time>2026-04-25T08:05:38.003Z</time>
</trkpt>
<trkpt lat="59.0966440" lon="30.0319840">
<ele>54.254398</ele>
<time>2026-04-25T08:05:58.998Z</time>
</trkpt>
<trkpt lat="59.0962320" lon="30.0322990">
<ele>57.089043</ele>
<time>2026-04-25T08:06:37.999Z</time>
</trkpt>
<trkpt lat="59.0955290" lon="30.0325200">
<ele>58.582558</ele>
<time>2026-04-25T08:07:42.004Z</time>
</trkpt>
<trkpt lat="59.0953590" lon="30.0324700">
<ele>57.241440</ele>
<time>2026-04-25T08:08:02.999Z</time>
</trkpt>
<trkpt lat="59.0951380" lon="30.0325760">
<ele>56.113682</ele>
<time>2026-04-25T08:08:24.003Z</time>
</trkpt>
<trkpt lat="59.0948900" lon="30.0326070">
<ele>57.028080</ele>
<time>2026-04-25T08:08:44.998Z</time>
</trkpt>
<trkpt lat="59.0947120" lon="30.0324420">
<ele>55.961281</ele>
<time>2026-04-25T08:09:03.997Z</time>
</trkpt>
<trkpt lat="59.0945140" lon="30.0323560">
<ele>54.498241</ele>
<time>2026-04-25T08:09:25.001Z</time>
</trkpt>
<trkpt lat="59.0943090" lon="30.0324340">
<ele>61.813442</ele>
<time>2026-04-25T08:10:11.001Z</time>
</trkpt>
<trkpt lat="59.0943710" lon="30.0321880">
<ele>76.901039</ele>
<time>2026-04-25T08:11:10.003Z</time>
</trkpt>
<trkpt lat="59.0942990" lon="30.0322140">
<ele>80.589119</ele>
<time>2026-04-25T08:11:44.002Z</time>
</trkpt>
<trkpt lat="59.0943540" lon="30.0321900">
<ele>84.886803</ele>
<time>2026-04-25T08:13:59.002Z</time>
</trkpt>
<trkpt lat="59.0943800" lon="30.0314520">
<ele>81.076797</ele>
<time>2026-04-25T08:15:29.998Z</time>
</trkpt>
<trkpt lat="59.0943780" lon="30.0312360">
<ele>80.650085</ele>
<time>2026-04-25T08:15:48.004Z</time>
</trkpt>
<trkpt lat="59.0942850" lon="30.0310980">
<ele>79.705200</ele>
<time>2026-04-25T08:16:11.004Z</time>
</trkpt>
<trkpt lat="59.0942730" lon="30.0309370">
<ele>78.516479</ele>
<time>2026-04-25T08:16:31.999Z</time>
</trkpt>
<trkpt lat="59.0943010" lon="30.0309120">
<ele>81.351120</ele>
<time>2026-04-25T08:17:44.998Z</time>
</trkpt>
<trkpt lat="59.0941350" lon="30.0305860">
<ele>77.266800</ele>
<time>2026-04-25T08:18:59.000Z</time>
</trkpt>
<trkpt lat="59.0940420" lon="30.0306850">
<ele>75.956161</ele>
<time>2026-04-25T08:19:16.003Z</time>
</trkpt>
<trkpt lat="59.0938430" lon="30.0307560">
<ele>72.877686</ele>
<time>2026-04-25T08:19:55.004Z</time>
</trkpt>
<trkpt lat="59.0937230" lon="30.0308530">
<ele>73.700638</ele>
<time>2026-04-25T08:20:17.002Z</time>
</trkpt>
<trkpt lat="59.0936910" lon="30.0309450">
<ele>76.657204</ele>
<time>2026-04-25T08:21:09.999Z</time>
</trkpt>
<trkpt lat="59.0937300" lon="30.0310110">
<ele>74.371201</ele>
<time>2026-04-25T08:22:10.998Z</time>
</trkpt>
<trkpt lat="59.0936860" lon="30.0310240">
<ele>76.139038</ele>
<time>2026-04-25T08:23:07.996Z</time>
</trkpt>
<trkpt lat="59.0937070" lon="30.0309550">
<ele>74.950317</ele>
<time>2026-04-25T08:23:37.000Z</time>
</trkpt>
<trkpt lat="59.0937300" lon="30.0309880">
<ele>76.169518</ele>
<time>2026-04-25T08:24:05.003Z</time>
</trkpt>
<trkpt lat="59.0938510" lon="30.0314920">
<ele>72.329041</ele>
<time>2026-04-25T08:24:48.004Z</time>
</trkpt>
<trkpt lat="59.0938680" lon="30.0317300">
<ele>70.408798</ele>
<time>2026-04-25T08:25:07.997Z</time>
</trkpt>
<trkpt lat="59.0939960" lon="30.0321280">
<ele>65.105286</ele>
<time>2026-04-25T08:25:37.001Z</time>
</trkpt>
<trkpt lat="59.0940380" lon="30.0323290">
<ele>69.402962</ele>
<time>2026-04-25T08:26:01.997Z</time>
</trkpt>
<trkpt lat="59.0940510" lon="30.0327070">
<ele>68.458084</ele>
<time>2026-04-25T08:26:20.996Z</time>
</trkpt>
<trkpt lat="59.0940880" lon="30.0328270">
<ele>67.269356</ele>
<time>2026-04-25T08:26:36.997Z</time>
</trkpt>
<trkpt lat="59.0940430" lon="30.0328930">
<ele>70.225922</ele>
<time>2026-04-25T08:27:26.997Z</time>
</trkpt>
<trkpt lat="59.0940490" lon="30.0328190">
<ele>68.732399</ele>
<time>2026-04-25T08:27:56.002Z</time>
</trkpt>
<trkpt lat="59.0941120" lon="30.0328500">
<ele>65.806320</ele>
<time>2026-04-25T08:28:24.997Z</time>
</trkpt>
<trkpt lat="59.0941100" lon="30.0329560">
<ele>66.141602</ele>
<time>2026-04-25T08:28:43.003Z</time>
</trkpt>
<trkpt lat="59.0942520" lon="30.0336200">
<ele>62.666882</ele>
<time>2026-04-25T08:29:40.001Z</time>
</trkpt>
<trkpt lat="59.0942760" lon="30.0339190">
<ele>61.539120</ele>
<time>2026-04-25T08:29:56.996Z</time>
</trkpt>
<trkpt lat="59.0943540" lon="30.0340660">
<ele>62.118240</ele>
<time>2026-04-25T08:30:16.004Z</time>
</trkpt>
<trkpt lat="59.0944070" lon="30.0343320">
<ele>59.710320</ele>
<time>2026-04-25T08:30:35.004Z</time>
</trkpt>
<trkpt lat="59.0944270" lon="30.0346490">
<ele>65.806320</ele>
<time>2026-04-25T08:31:13.002Z</time>
</trkpt>
<trkpt lat="59.0944660" lon="30.0346600">
<ele>65.013840</ele>
<time>2026-04-25T08:31:30.999Z</time>
</trkpt>
<trkpt lat="59.0944970" lon="30.0344730">
<ele>63.520317</ele>
<time>2026-04-25T08:31:48.996Z</time>
</trkpt>
<trkpt lat="59.0945630" lon="30.0345860">
<ele>70.195442</ele>
<time>2026-04-25T08:32:15.996Z</time>
</trkpt>
<trkpt lat="59.0945300" lon="30.0346040">
<ele>70.378319</ele>
<time>2026-04-25T08:32:46.003Z</time>
</trkpt>
<trkpt lat="59.0944780" lon="30.0344800">
<ele>71.445122</ele>
<time>2026-04-25T08:33:13.003Z</time>
</trkpt>
<trkpt lat="59.0945220" lon="30.0346360">
<ele>70.469757</ele>
<time>2026-04-25T08:34:14.002Z</time>
</trkpt>
<trkpt lat="59.0946220" lon="30.0346450">
<ele>74.340721</ele>
<time>2026-04-25T08:35:13.004Z</time>
</trkpt>
<trkpt lat="59.0943790" lon="30.0346370">
<ele>73.517761</ele>
<time>2026-04-25T08:36:14.003Z</time>
</trkpt>
<trkpt lat="59.0944580" lon="30.0345790">
<ele>76.657204</ele>
<time>2026-04-25T08:37:47.004Z</time>
</trkpt>
<trkpt lat="59.0944110" lon="30.0347480">
<ele>79.461365</ele>
<time>2026-04-25T08:38:14.004Z</time>
</trkpt>
<trkpt lat="59.0945690" lon="30.0352600">
<ele>74.401680</ele>
<time>2026-04-25T08:39:05.999Z</time>
</trkpt>
<trkpt lat="59.0945370" lon="30.0355380">
<ele>71.292717</ele>
<time>2026-04-25T08:39:58.997Z</time>
</trkpt>
<trkpt lat="59.0945230" lon="30.0354680">
<ele>70.805038</ele>
<time>2026-04-25T08:40:33.997Z</time>
</trkpt>
<trkpt lat="59.0945610" lon="30.0355500">
<ele>72.908157</ele>
<time>2026-04-25T08:40:56.004Z</time>
</trkpt>
<trkpt lat="59.0945310" lon="30.0356320">
<ele>73.731117</ele>
<time>2026-04-25T08:41:06.000Z</time>
</trkpt>
<trkpt lat="59.0944790" lon="30.0354870">
<ele>78.150719</ele>
<time>2026-04-25T08:41:31.004Z</time>
</trkpt>
<trkpt lat="59.0943260" lon="30.0354720">
<ele>78.425034</ele>
<time>2026-04-25T08:42:01.996Z</time>
</trkpt>
<trkpt lat="59.0942600" lon="30.0352780">
<ele>77.784958</ele>
<time>2026-04-25T08:42:41.999Z</time>
</trkpt>
<trkpt lat="59.0940770" lon="30.0354790">
<ele>76.474319</ele>
<time>2026-04-25T08:43:12.999Z</time>
</trkpt>
<trkpt lat="59.0940480" lon="30.0354640">
<ele>76.992485</ele>
<time>2026-04-25T08:43:22.996Z</time>
</trkpt>
<trkpt lat="59.0940460" lon="30.0357080">
<ele>77.297279</ele>
<time>2026-04-25T08:43:57.003Z</time>
</trkpt>
<trkpt lat="59.0940670" lon="30.0351550">
<ele>76.017120</ele>
<time>2026-04-25T08:45:41.003Z</time>
</trkpt>
<trkpt lat="59.0939210" lon="30.0345430">
<ele>70.957443</ele>
<time>2026-04-25T08:46:42.001Z</time>
</trkpt>
<trkpt lat="59.0938310" lon="30.0342850">
<ele>69.768715</ele>
<time>2026-04-25T08:47:55.000Z</time>
</trkpt>
<trkpt lat="59.0938200" lon="30.0345490">
<ele>73.426315</ele>
<time>2026-04-25T08:48:54.003Z</time>
</trkpt>
<trkpt lat="59.0938540" lon="30.0345920">
<ele>74.767441</ele>
<time>2026-04-25T08:49:14.998Z</time>
</trkpt>
<trkpt lat="59.0939120" lon="30.0341900">
<ele>73.121521</ele>
<time>2026-04-25T08:49:36.002Z</time>
</trkpt>
<trkpt lat="59.0938250" lon="30.0337180">
<ele>73.243439</ele>
<time>2026-04-25T08:50:14.001Z</time>
</trkpt>
<trkpt lat="59.0938110" lon="30.0334810">
<ele>72.176643</ele>
<time>2026-04-25T08:50:35.998Z</time>
</trkpt>
<trkpt lat="59.0937470" lon="30.0332790">
<ele>71.841362</ele>
<time>2026-04-25T08:50:54.004Z</time>
</trkpt>
<trkpt lat="59.0937020" lon="30.0328820">
<ele>71.719444</ele>
<time>2026-04-25T08:51:31.000Z</time>
</trkpt>
<trkpt lat="59.0936110" lon="30.0325570">
<ele>70.896484</ele>
<time>2026-04-25T08:51:52.004Z</time>
</trkpt>
<trkpt lat="59.0936400" lon="30.0324260">
<ele>72.999603</ele>
<time>2026-04-25T08:52:08.999Z</time>
</trkpt>
<trkpt lat="59.0936450" lon="30.0321450">
<ele>73.639679</ele>
<time>2026-04-25T08:52:25.000Z</time>
</trkpt>
<trkpt lat="59.0934830" lon="30.0316350">
<ele>72.481438</ele>
<time>2026-04-25T08:54:29.002Z</time>
</trkpt>
<trkpt lat="59.0935270" lon="30.0316900">
<ele>71.902321</ele>
<time>2026-04-25T08:54:54.999Z</time>
</trkpt>
<trkpt lat="59.0934370" lon="30.0316300">
<ele>69.250557</ele>
<time>2026-04-25T08:55:24.997Z</time>
</trkpt>
<trkpt lat="59.0934330" lon="30.0310420">
<ele>70.073517</ele>
<time>2026-04-25T08:56:18.997Z</time>
</trkpt>
<trkpt lat="59.0933890" lon="30.0309250">
<ele>71.475601</ele>
<time>2026-04-25T08:56:37.003Z</time>
</trkpt>
<trkpt lat="59.0930090" lon="30.0313360">
<ele>73.792084</ele>
<time>2026-04-25T08:57:32.999Z</time>
</trkpt>
<trkpt lat="59.0929280" lon="30.0315150">
<ele>75.986641</ele>
<time>2026-04-25T08:58:17.003Z</time>
</trkpt>
<trkpt lat="59.0931020" lon="30.0319140">
<ele>76.047600</ele>
<time>2026-04-25T08:59:11.996Z</time>
</trkpt>
<trkpt lat="59.0930920" lon="30.0320510">
<ele>76.504799</ele>
<time>2026-04-25T08:59:27.004Z</time>
</trkpt>
<trkpt lat="59.0931310" lon="30.0322950">
<ele>75.255119</ele>
<time>2026-04-25T09:00:01.996Z</time>
</trkpt>
<trkpt lat="59.0929940" lon="30.0322520">
<ele>75.956161</ele>
<time>2026-04-25T09:00:56.998Z</time>
</trkpt>
<trkpt lat="59.0929800" lon="30.0323430">
<ele>77.083916</ele>
<time>2026-04-25T09:01:19.004Z</time>
</trkpt>
<trkpt lat="59.0930940" lon="30.0323420">
<ele>77.083916</ele>
<time>2026-04-25T09:01:46.998Z</time>
</trkpt>
<trkpt lat="59.0930650" lon="30.0319520">
<ele>77.815437</ele>
<time>2026-04-25T09:02:29.999Z</time>
</trkpt>
<trkpt lat="59.0930100" lon="30.0318340">
<ele>78.089767</ele>
<time>2026-04-25T09:02:55.997Z</time>
</trkpt>
<trkpt lat="59.0930280" lon="30.0317360">
<ele>78.638397</ele>
<time>2026-04-25T09:03:18.003Z</time>
</trkpt>
<trkpt lat="59.0930830" lon="30.0321830">
<ele>78.882233</ele>
<time>2026-04-25T09:03:37.996Z</time>
</trkpt>
<trkpt lat="59.0931230" lon="30.0327960">
<ele>75.438004</ele>
<time>2026-04-25T09:04:16.003Z</time>
</trkpt>
<trkpt lat="59.0931390" lon="30.0327830">
<ele>77.723999</ele>
<time>2026-04-25T09:04:36.998Z</time>
</trkpt>
<trkpt lat="59.0931120" lon="30.0326190">
<ele>77.815437</ele>
<time>2026-04-25T09:04:59.998Z</time>
</trkpt>
<trkpt lat="59.0930790" lon="30.0325970">
<ele>78.760315</ele>
<time>2026-04-25T09:05:25.002Z</time>
</trkpt>
<trkpt lat="59.0930860" lon="30.0324830">
<ele>77.693520</ele>
<time>2026-04-25T09:06:16.004Z</time>
</trkpt>
<trkpt lat="59.0931400" lon="30.0325830">
<ele>76.535278</ele>
<time>2026-04-25T09:07:02.004Z</time>
</trkpt>
<trkpt lat="59.0932250" lon="30.0326230">
<ele>76.108559</ele>
<time>2026-04-25T09:07:32.002Z</time>
</trkpt>
<trkpt lat="59.0932550" lon="30.0325450">
<ele>76.748642</ele>
<time>2026-04-25T09:07:56.997Z</time>
</trkpt>
<trkpt lat="59.0931390" lon="30.0327010">
<ele>76.687683</ele>
<time>2026-04-25T09:08:39.998Z</time>
</trkpt>
<trkpt lat="59.0931620" lon="30.0329110">
<ele>77.175362</ele>
<time>2026-04-25T09:09:01.996Z</time>
</trkpt>
<trkpt lat="59.0932780" lon="30.0331660">
<ele>77.266800</ele>
<time>2026-04-25T09:09:23.000Z</time>
</trkpt>
<trkpt lat="59.0933430" lon="30.0334310">
<ele>76.565758</ele>
<time>2026-04-25T09:09:41.999Z</time>
</trkpt>
<trkpt lat="59.0934140" lon="30.0335190">
<ele>78.303116</ele>
<time>2026-04-25T09:10:04.999Z</time>
</trkpt>
<trkpt lat="59.0933600" lon="30.0342990">
<ele>83.972397</ele>
<time>2026-04-25T09:12:00.999Z</time>
</trkpt>
<trkpt lat="59.0934890" lon="30.0346300">
<ele>81.777840</ele>
<time>2026-04-25T09:12:37.002Z</time>
</trkpt>
<trkpt lat="59.0934780" lon="30.0347380">
<ele>81.473038</ele>
<time>2026-04-25T09:12:54.999Z</time>
</trkpt>
<trkpt lat="59.0934410" lon="30.0348240">
<ele>78.729836</ele>
<time>2026-04-25T09:13:12.003Z</time>
</trkpt>
<trkpt lat="59.0934120" lon="30.0347980">
<ele>77.297279</ele>
<time>2026-04-25T09:13:39.003Z</time>
</trkpt>
<trkpt lat="59.0934580" lon="30.0347890">
<ele>74.797920</ele>
<time>2026-04-25T09:15:23.996Z</time>
</trkpt>
<trkpt lat="59.0934740" lon="30.0349230">
<ele>75.102715</ele>
<time>2026-04-25T09:15:47.998Z</time>
</trkpt>
<trkpt lat="59.0934370" lon="30.0350080">
<ele>72.786240</ele>
<time>2026-04-25T09:16:21.003Z</time>
</trkpt>
<trkpt lat="59.0934380" lon="30.0351730">
<ele>71.475601</ele>
<time>2026-04-25T09:16:36.002Z</time>
</trkpt>
<trkpt lat="59.0934730" lon="30.0352990">
<ele>69.738243</ele>
<time>2026-04-25T09:16:49.999Z</time>
</trkpt>
<trkpt lat="59.0934520" lon="30.0353860">
<ele>68.366638</ele>
<time>2026-04-25T09:17:00.004Z</time>
</trkpt>
<trkpt lat="59.0935210" lon="30.0356130">
<ele>66.903603</ele>
<time>2026-04-25T09:17:30.002Z</time>
</trkpt>
<trkpt lat="59.0935230" lon="30.0359760">
<ele>62.605919</ele>
<time>2026-04-25T09:18:50.000Z</time>
</trkpt>
<trkpt lat="59.0934760" lon="30.0359640">
<ele>61.630558</ele>
<time>2026-04-25T09:19:15.997Z</time>
</trkpt>
<trkpt lat="59.0934280" lon="30.0358280">
<ele>62.331600</ele>
<time>2026-04-25T09:19:45.002Z</time>
</trkpt>
<trkpt lat="59.0931670" lon="30.0355060">
<ele>67.818001</ele>
<time>2026-04-25T09:24:23.003Z</time>
</trkpt>
<trkpt lat="59.0931990" lon="30.0354280">
<ele>71.445122</ele>
<time>2026-04-25T09:24:32.999Z</time>
</trkpt>
<trkpt lat="59.0932090" lon="30.0346610">
<ele>71.201279</ele>
<time>2026-04-25T09:25:47.001Z</time>
</trkpt>
<trkpt lat="59.0930140" lon="30.0339500">
<ele>71.323196</ele>
<time>2026-04-25T09:27:01.002Z</time>
</trkpt>
<trkpt lat="59.0930340" lon="30.0338920">
<ele>73.974960</ele>
<time>2026-04-25T09:27:28.996Z</time>
</trkpt>
<trkpt lat="59.0930140" lon="30.0339830">
<ele>77.571602</ele>
<time>2026-04-25T09:27:55.002Z</time>
</trkpt>
<trkpt lat="59.0929440" lon="30.0338800">
<ele>79.156563</ele>
<time>2026-04-25T09:28:44.000Z</time>
</trkpt>
<trkpt lat="59.0929320" lon="30.0339530">
<ele>77.784958</ele>
<time>2026-04-25T09:29:09.997Z</time>
</trkpt>
<trkpt lat="59.0929430" lon="30.0340210">
<ele>76.413361</ele>
<time>2026-04-25T09:29:33.999Z</time>
</trkpt>
<trkpt lat="59.0930430" lon="30.0334220">
<ele>73.944481</ele>
<time>2026-04-25T09:30:15.998Z</time>
</trkpt>
<trkpt lat="59.0928020" lon="30.0329260">
<ele>72.938644</ele>
<time>2026-04-25T09:30:54.999Z</time>
</trkpt>
<trkpt lat="59.0925840" lon="30.0328820">
<ele>69.921120</ele>
<time>2026-04-25T09:31:47.004Z</time>
</trkpt>
<trkpt lat="59.0925000" lon="30.0330000">
<ele>69.951599</ele>
<time>2026-04-25T09:32:02.003Z</time>
</trkpt>
<trkpt lat="59.0923180" lon="30.0330540">
<ele>67.848480</ele>
<time>2026-04-25T09:32:24.000Z</time>
</trkpt>
<trkpt lat="59.0921610" lon="30.0332730">
<ele>62.179199</ele>
<time>2026-04-25T09:32:45.997Z</time>
</trkpt>
<trkpt lat="59.0918890" lon="30.0339940">
<ele>65.013840</ele>
<time>2026-04-25T09:33:41.000Z</time>
</trkpt>
<trkpt lat="59.0916530" lon="30.0344210">
<ele>63.581284</ele>
<time>2026-04-25T09:34:12.000Z</time>
</trkpt>
<trkpt lat="59.0916370" lon="30.0346500">
<ele>63.794640</ele>
<time>2026-04-25T09:34:43.000Z</time>
</trkpt>
<trkpt lat="59.0916080" lon="30.0346670">
<ele>65.562485</ele>
<time>2026-04-25T09:36:48.004Z</time>
</trkpt>
<trkpt lat="59.0916960" lon="30.0345540">
<ele>67.147438</ele>
<time>2026-04-25T09:39:13.000Z</time>
</trkpt>
<trkpt lat="59.0916480" lon="30.0345710">
<ele>66.690239</ele>
<time>2026-04-25T09:40:16.003Z</time>
</trkpt>
<trkpt lat="59.0916700" lon="30.0346100">
<ele>67.696083</ele>
<time>2026-04-25T09:40:43.997Z</time>
</trkpt>
<trkpt lat="59.0917550" lon="30.0345980">
<ele>68.397118</ele>
<time>2026-04-25T09:42:14.000Z</time>
</trkpt>
<trkpt lat="59.0916930" lon="30.0345790">
<ele>68.336159</ele>
<time>2026-04-25T09:42:45.000Z</time>
</trkpt>
<trkpt lat="59.0916970" lon="30.0346360">
<ele>71.871841</ele>
<time>2026-04-25T09:44:20.999Z</time>
</trkpt>
<trkpt lat="59.0917380" lon="30.0346280">
<ele>71.414642</ele>
<time>2026-04-25T09:44:50.997Z</time>
</trkpt>
<trkpt lat="59.0917400" lon="30.0345700">
<ele>73.365356</ele>
<time>2026-04-25T09:45:24.002Z</time>
</trkpt>
<trkpt lat="59.0916410" lon="30.0345320">
<ele>72.877686</ele>
<time>2026-04-25T09:45:52.004Z</time>
</trkpt>
<trkpt lat="59.0913040" lon="30.0351350">
<ele>66.019684</ele>
<time>2026-04-25T09:46:57.996Z</time>
</trkpt>
<trkpt lat="59.0909910" lon="30.0354070">
<ele>64.404243</ele>
<time>2026-04-25T09:47:32.997Z</time>
</trkpt>
<trkpt lat="59.0907920" lon="30.0358210">
<ele>65.745361</ele>
<time>2026-04-25T09:48:19.999Z</time>
</trkpt>
<trkpt lat="59.0904970" lon="30.0361090">
<ele>63.611759</ele>
<time>2026-04-25T09:49:15.001Z</time>
</trkpt>
<trkpt lat="59.0903010" lon="30.0364430">
<ele>58.460640</ele>
<time>2026-04-25T09:49:46.001Z</time>
</trkpt>
<trkpt lat="59.0902030" lon="30.0368600">
<ele>63.642242</ele>
<time>2026-04-25T09:50:15.999Z</time>
</trkpt>
<trkpt lat="59.0901990" lon="30.0383590">
<ele>59.862717</ele>
<time>2026-04-25T09:51:27.996Z</time>
</trkpt>
<trkpt lat="59.0902380" lon="30.0387730">
<ele>64.739517</ele>
<time>2026-04-25T09:52:03.999Z</time>
</trkpt>
<trkpt lat="59.0902700" lon="30.0387290">
<ele>69.707756</ele>
<time>2026-04-25T09:52:29.004Z</time>
</trkpt>
<trkpt lat="59.0902560" lon="30.0386890">
<ele>71.963280</ele>
<time>2026-04-25T09:52:55.001Z</time>
</trkpt>
<trkpt lat="59.0901780" lon="30.0386910">
<ele>81.107285</ele>
<time>2026-04-25T09:55:11.004Z</time>
</trkpt>
<trkpt lat="59.0903520" lon="30.0392520">
<ele>78.242165</ele>
<time>2026-04-25T09:55:50.998Z</time>
</trkpt>
<trkpt lat="59.0903940" lon="30.0392380">
<ele>79.400398</ele>
<time>2026-04-25T09:56:20.003Z</time>
</trkpt>
<trkpt lat="59.0903430" lon="30.0391320">
<ele>86.685120</ele>
<time>2026-04-25T09:58:01.998Z</time>
</trkpt>
<trkpt lat="59.0903430" lon="30.0391740">
<ele>89.093033</ele>
<time>2026-04-25T09:58:55.998Z</time>
</trkpt>
<trkpt lat="59.0903140" lon="30.0391510">
<ele>89.519760</ele>
<time>2026-04-25T09:59:22.004Z</time>
</trkpt>
<trkpt lat="59.0905450" lon="30.0390040">
<ele>86.106003</ele>
<time>2026-04-25T09:59:57.998Z</time>
</trkpt>
<trkpt lat="59.0906920" lon="30.0388430">
<ele>82.143600</ele>
<time>2026-04-25T10:00:16.004Z</time>
</trkpt>
<trkpt lat="59.0908080" lon="30.0386270">
<ele>78.851761</ele>
<time>2026-04-25T10:00:35.997Z</time>
</trkpt>
<trkpt lat="59.0907850" lon="30.0387230">
<ele>78.333603</ele>
<time>2026-04-25T10:00:54.996Z</time>
</trkpt>
<trkpt lat="59.0908190" lon="30.0388430">
<ele>77.327759</ele>
<time>2026-04-25T10:01:12.000Z</time>
</trkpt>
<trkpt lat="59.0909640" lon="30.0389040">
<ele>78.211685</ele>
<time>2026-04-25T10:01:40.002Z</time>
</trkpt>
<trkpt lat="59.0910670" lon="30.0387650">
<ele>79.278481</ele>
<time>2026-04-25T10:02:19.997Z</time>
</trkpt>
<trkpt lat="59.0911400" lon="30.0388970">
<ele>78.425034</ele>
<time>2026-04-25T10:02:38.003Z</time>
</trkpt>
<trkpt lat="59.0911590" lon="30.0388650">
<ele>77.297279</ele>
<time>2026-04-25T10:02:54.997Z</time>
</trkpt>
<trkpt lat="59.0910730" lon="30.0386210">
<ele>76.565758</ele>
<time>2026-04-25T10:03:35.001Z</time>
</trkpt>
<trkpt lat="59.0910750" lon="30.0383900">
<ele>76.596237</ele>
<time>2026-04-25T10:04:11.997Z</time>
</trkpt>
<trkpt lat="59.0912160" lon="30.0383370">
<ele>75.498962</ele>
<time>2026-04-25T10:04:48.000Z</time>
</trkpt>
<trkpt lat="59.0913180" lon="30.0383840">
<ele>76.657204</ele>
<time>2026-04-25T10:05:28.003Z</time>
</trkpt>
<trkpt lat="59.0912940" lon="30.0383570">
<ele>78.760315</ele>
<time>2026-04-25T10:05:50.001Z</time>
</trkpt>
<trkpt lat="59.0913170" lon="30.0383380">
<ele>79.857597</ele>
<time>2026-04-25T10:06:10.996Z</time>
</trkpt>
<trkpt lat="59.0912640" lon="30.0383470">
<ele>82.478882</ele>
<time>2026-04-25T10:07:15.001Z</time>
</trkpt>
<trkpt lat="59.0918080" lon="30.0381590">
<ele>78.729836</ele>
<time>2026-04-25T10:09:08.997Z</time>
</trkpt>
<trkpt lat="59.0919730" lon="30.0379080">
<ele>78.028801</ele>
<time>2026-04-25T10:09:43.004Z</time>
</trkpt>
<trkpt lat="59.0920940" lon="30.0379230">
<ele>76.230484</ele>
<time>2026-04-25T10:09:59.999Z</time>
</trkpt>
<trkpt lat="59.0923950" lon="30.0376700">
<ele>72.847198</ele>
<time>2026-04-25T10:11:23.004Z</time>
</trkpt>
<trkpt lat="59.0923970" lon="30.0375830">
<ele>73.304398</ele>
<time>2026-04-25T10:11:38.003Z</time>
</trkpt>
<trkpt lat="59.0925440" lon="30.0374260">
<ele>73.091042</ele>
<time>2026-04-25T10:14:20.996Z</time>
</trkpt>
<trkpt lat="59.0925910" lon="30.0372990">
<ele>73.273918</ele>
<time>2026-04-25T10:14:51.996Z</time>
</trkpt>
<trkpt lat="59.0929100" lon="30.0373260">
<ele>68.976242</ele>
<time>2026-04-25T10:16:19.001Z</time>
</trkpt>
<trkpt lat="59.0930630" lon="30.0371920">
<ele>69.768715</ele>
<time>2026-04-25T10:17:02.996Z</time>
</trkpt>
<trkpt lat="59.0930760" lon="30.0372610">
<ele>68.122803</ele>
<time>2026-04-25T10:17:14.997Z</time>
</trkpt>
<trkpt lat="59.0930840" lon="30.0371990">
<ele>69.128639</ele>
<time>2026-04-25T10:17:41.004Z</time>
</trkpt>
<trkpt lat="59.0931690" lon="30.0371150">
<ele>69.585838</ele>
<time>2026-04-25T10:18:36.999Z</time>
</trkpt>
<trkpt lat="59.0932520" lon="30.0372110">
<ele>69.281044</ele>
<time>2026-04-25T10:19:13.002Z</time>
</trkpt>
<trkpt lat="59.0934400" lon="30.0372030">
<ele>70.500244</ele>
<time>2026-04-25T10:20:03.002Z</time>
</trkpt>
<trkpt lat="59.0935120" lon="30.0371270">
<ele>71.201279</ele>
<time>2026-04-25T10:20:23.004Z</time>
</trkpt>
<trkpt lat="59.0935210" lon="30.0369480">
<ele>71.536560</ele>
<time>2026-04-25T10:20:42.003Z</time>
</trkpt>
<trkpt lat="59.0935700" lon="30.0368250">
<ele>71.567039</ele>
<time>2026-04-25T10:20:57.002Z</time>
</trkpt>
<trkpt lat="59.0936950" lon="30.0367990">
<ele>69.982079</ele>
<time>2026-04-25T10:21:28.996Z</time>
</trkpt>
<trkpt lat="59.0938540" lon="30.0365980">
<ele>70.225922</ele>
<time>2026-04-25T10:23:28.997Z</time>
</trkpt>
<trkpt lat="59.0938620" lon="30.0366430">
<ele>69.799202</ele>
<time>2026-04-25T10:23:58.001Z</time>
</trkpt>
<trkpt lat="59.0938190" lon="30.0366020">
<ele>79.248001</ele>
<time>2026-04-25T10:24:40.000Z</time>
</trkpt>
<trkpt lat="59.0938480" lon="30.0365860">
<ele>74.767441</ele>
<time>2026-04-25T10:25:01.998Z</time>
</trkpt>
<trkpt lat="59.0938210" lon="30.0366160">
<ele>73.974960</ele>
<time>2026-04-25T10:25:44.999Z</time>
</trkpt>
<trkpt lat="59.0938480" lon="30.0365910">
<ele>71.658485</ele>
<time>2026-04-25T10:26:05.001Z</time>
</trkpt>
<trkpt lat="59.0938220" lon="30.0365360">
<ele>77.571602</ele>
<time>2026-04-25T10:26:10.003Z</time>
</trkpt>
<trkpt lat="59.0938650" lon="30.0365850">
<ele>77.175362</ele>
<time>2026-04-25T10:27:55.999Z</time>
</trkpt>
<trkpt lat="59.0938470" lon="30.0366360">
<ele>77.967842</ele>
<time>2026-04-25T10:28:01.001Z</time>
</trkpt>
<trkpt lat="59.0938720" lon="30.0366600">
<ele>77.358238</ele>
<time>2026-04-25T10:28:10.004Z</time>
</trkpt>
<trkpt lat="59.0938570" lon="30.0365740">
<ele>80.619598</ele>
<time>2026-04-25T10:28:32.002Z</time>
</trkpt>
<trkpt lat="59.0939020" lon="30.0365890">
<ele>76.169518</ele>
<time>2026-04-25T10:28:56.997Z</time>
</trkpt>
<trkpt lat="59.0940320" lon="30.0364770">
<ele>73.761597</ele>
<time>2026-04-25T10:29:31.004Z</time>
</trkpt>
<trkpt lat="59.0943470" lon="30.0363790">
<ele>69.829681</ele>
<time>2026-04-25T10:30:36.996Z</time>
</trkpt>
<trkpt lat="59.0945640" lon="30.0360560">
<ele>66.476883</ele>
<time>2026-04-25T10:31:18.002Z</time>
</trkpt>
<trkpt lat="59.0946730" lon="30.0361600">
<ele>65.257683</ele>
<time>2026-04-25T10:31:38.997Z</time>
</trkpt>
<trkpt lat="59.0947630" lon="30.0361490">
<ele>65.714882</ele>
<time>2026-04-25T10:31:56.001Z</time>
</trkpt>
<trkpt lat="59.0949550" lon="30.0360550">
<ele>63.764160</ele>
<time>2026-04-25T10:32:20.003Z</time>
</trkpt>
<trkpt lat="59.0951720" lon="30.0358420">
<ele>64.434715</ele>
<time>2026-04-25T10:32:51.996Z</time>
</trkpt>
<trkpt lat="59.0953560" lon="30.0358830">
<ele>68.915283</ele>
<time>2026-04-25T10:33:57.004Z</time>
</trkpt>
<trkpt lat="59.0953040" lon="30.0359860">
<ele>76.260956</ele>
<time>2026-04-25T10:35:13.001Z</time>
</trkpt>
<trkpt lat="59.0953570" lon="30.0360550">
<ele>79.613762</ele>
<time>2026-04-25T10:36:00.996Z</time>
</trkpt>
<trkpt lat="59.0953600" lon="30.0361970">
<ele>78.028801</ele>
<time>2026-04-25T10:36:23.996Z</time>
</trkpt>
<trkpt lat="59.0954170" lon="30.0364930">
<ele>79.400398</ele>
<time>2026-04-25T10:37:06.997Z</time>
</trkpt>
<trkpt lat="59.0954040" lon="30.0364510">
<ele>80.345284</ele>
<time>2026-04-25T10:37:33.997Z</time>
</trkpt>
<trkpt lat="59.0953660" lon="30.0366700">
<ele>80.924400</ele>
<time>2026-04-25T10:37:52.997Z</time>
</trkpt>
<trkpt lat="59.0950410" lon="30.0366340">
<ele>79.644234</ele>
<time>2026-04-25T10:40:07.003Z</time>
</trkpt>
<trkpt lat="59.0947850" lon="30.0369270">
<ele>78.303116</ele>
<time>2026-04-25T10:41:11.000Z</time>
</trkpt>
<trkpt lat="59.0946580" lon="30.0369420">
<ele>78.333603</ele>
<time>2026-04-25T10:41:29.999Z</time>
</trkpt>
<trkpt lat="59.0945680" lon="30.0370880">
<ele>77.022957</ele>
<time>2026-04-25T10:41:51.996Z</time>
</trkpt>
<trkpt lat="59.0943330" lon="30.0372490">
<ele>71.963280</ele>
<time>2026-04-25T10:44:45.004Z</time>
</trkpt>
<trkpt lat="59.0940930" lon="30.0373310">
<ele>71.780403</ele>
<time>2026-04-25T10:45:42.002Z</time>
</trkpt>
<trkpt lat="59.0938530" lon="30.0375710">
<ele>72.603355</ele>
<time>2026-04-25T10:47:04.004Z</time>
</trkpt>
<trkpt lat="59.0938410" lon="30.0376430">
<ele>73.091042</ele>
<time>2026-04-25T10:47:23.004Z</time>
</trkpt>
<trkpt lat="59.0937840" lon="30.0376120">
<ele>73.578720</ele>
<time>2026-04-25T10:47:42.003Z</time>
</trkpt>
<trkpt lat="59.0934990" lon="30.0377560">
<ele>72.420479</ele>
<time>2026-04-25T10:49:41.002Z</time>
</trkpt>
<trkpt lat="59.0934150" lon="30.0377350">
<ele>72.908157</ele>
<time>2026-04-25T10:50:09.004Z</time>
</trkpt>
<trkpt lat="59.0934120" lon="30.0377870">
<ele>73.761597</ele>
<time>2026-04-25T10:50:54.001Z</time>
</trkpt>
<trkpt lat="59.0934420" lon="30.0377570">
<ele>73.273918</ele>
<time>2026-04-25T10:51:18.003Z</time>
</trkpt>
<trkpt lat="59.0933810" lon="30.0378280">
<ele>79.126083</ele>
<time>2026-04-25T10:52:16.997Z</time>
</trkpt>
<trkpt lat="59.0933460" lon="30.0377760">
<ele>78.851761</ele>
<time>2026-04-25T10:52:35.003Z</time>
</trkpt>
<trkpt lat="59.0932790" lon="30.0378860">
<ele>74.615044</ele>
<time>2026-04-25T10:53:10.003Z</time>
</trkpt>
<trkpt lat="59.0933620" lon="30.0385960">
<ele>69.585838</ele>
<time>2026-04-25T10:54:50.003Z</time>
</trkpt>
<trkpt lat="59.0932540" lon="30.0385940">
<ele>69.037201</ele>
<time>2026-04-25T10:55:18.998Z</time>
</trkpt>
<trkpt lat="59.0931200" lon="30.0383320">
<ele>67.116959</ele>
<time>2026-04-25T10:55:52.003Z</time>
</trkpt>
<trkpt lat="59.0930580" lon="30.0382970">
<ele>67.787521</ele>
<time>2026-04-25T10:56:11.003Z</time>
</trkpt>
<trkpt lat="59.0928180" lon="30.0383640">
<ele>68.336159</ele>
<time>2026-04-25T10:56:58.004Z</time>
</trkpt>
<trkpt lat="59.0927780" lon="30.0384420">
<ele>68.458084</ele>
<time>2026-04-25T10:57:13.997Z</time>
</trkpt>
<trkpt lat="59.0926970" lon="30.0384860">
<ele>68.793358</ele>
<time>2026-04-25T10:57:28.996Z</time>
</trkpt>
<trkpt lat="59.0925400" lon="30.0384890">
<ele>68.153282</ele>
<time>2026-04-25T10:58:03.003Z</time>
</trkpt>
<trkpt lat="59.0923500" lon="30.0385900">
<ele>72.176643</ele>
<time>2026-04-25T11:00:10.996Z</time>
</trkpt>
<trkpt lat="59.0923370" lon="30.0386680">
<ele>74.676003</ele>
<time>2026-04-25T11:00:41.003Z</time>
</trkpt>
<trkpt lat="59.0921190" lon="30.0388160">
<ele>75.194160</ele>
<time>2026-04-25T11:02:01.000Z</time>
</trkpt>
<trkpt lat="59.0920590" lon="30.0389040">
<ele>74.157845</ele>
<time>2026-04-25T11:02:20.000Z</time>
</trkpt>
<trkpt lat="59.0916660" lon="30.0389580">
<ele>70.103996</ele>
<time>2026-04-25T11:03:42.002Z</time>
</trkpt>
<trkpt lat="59.0915630" lon="30.0390400">
<ele>69.646797</ele>
<time>2026-04-25T11:03:58.997Z</time>
</trkpt>
<trkpt lat="59.0914610" lon="30.0392240">
<ele>68.153282</ele>
<time>2026-04-25T11:04:17.003Z</time>
</trkpt>
<trkpt lat="59.0911590" lon="30.0394980">
<ele>63.306957</ele>
<time>2026-04-25T11:05:38.003Z</time>
</trkpt>
<trkpt lat="59.0908190" lon="30.0397120">
<ele>66.324478</ele>
<time>2026-04-25T11:07:53.003Z</time>
</trkpt>
<trkpt lat="59.0906880" lon="30.0398860">
<ele>66.751198</ele>
<time>2026-04-25T11:08:12.002Z</time>
</trkpt>
<trkpt lat="59.0907210" lon="30.0403260">
<ele>64.587120</ele>
<time>2026-04-25T11:08:47.996Z</time>
</trkpt>
<trkpt lat="59.0908940" lon="30.0407740">
<ele>56.997601</ele>
<time>2026-04-25T11:09:25.001Z</time>
</trkpt>
<trkpt lat="59.0908730" lon="30.0408370">
<ele>56.906158</ele>
<time>2026-04-25T11:09:53.004Z</time>
</trkpt>
<trkpt lat="59.0909120" lon="30.0407950">
<ele>58.094883</ele>
<time>2026-04-25T11:10:21.999Z</time>
</trkpt>
<trkpt lat="59.0909180" lon="30.0408680">
<ele>57.332882</ele>
<time>2026-04-25T11:10:51.004Z</time>
</trkpt>
<trkpt lat="59.0909750" lon="30.0408310">
<ele>62.331600</ele>
<time>2026-04-25T11:11:14.004Z</time>
</trkpt>
<trkpt lat="59.0908950" lon="30.0407480">
<ele>63.093601</ele>
<time>2026-04-25T11:14:41.001Z</time>
</trkpt>
<trkpt lat="59.0909640" lon="30.0407550">
<ele>60.167519</ele>
<time>2026-04-25T11:16:14.002Z</time>
</trkpt>
<trkpt lat="59.0909550" lon="30.0406640">
<ele>63.489841</ele>
<time>2026-04-25T11:17:17.998Z</time>
</trkpt>
<trkpt lat="59.0910140" lon="30.0407140">
<ele>68.275200</ele>
<time>2026-04-25T11:19:05.998Z</time>
</trkpt>
<trkpt lat="59.0911590" lon="30.0403790">
<ele>67.635117</ele>
<time>2026-04-25T11:19:59.998Z</time>
</trkpt>
<trkpt lat="59.0914940" lon="30.0401590">
<ele>64.739517</ele>
<time>2026-04-25T11:20:56.996Z</time>
</trkpt>
<trkpt lat="59.0916050" lon="30.0400040">
<ele>62.331600</ele>
<time>2026-04-25T11:21:15.002Z</time>
</trkpt>
<trkpt lat="59.0917190" lon="30.0399140">
<ele>61.081917</ele>
<time>2026-04-25T11:21:32.999Z</time>
</trkpt>
<trkpt lat="59.0918390" lon="30.0399110">
<ele>63.855598</ele>
<time>2026-04-25T11:22:18.998Z</time>
</trkpt>
<trkpt lat="59.0918770" lon="30.0398690">
<ele>66.690239</ele>
<time>2026-04-25T11:22:44.996Z</time>
</trkpt>
<trkpt lat="59.0918710" lon="30.0399190">
<ele>69.402962</ele>
<time>2026-04-25T11:23:14.001Z</time>
</trkpt>
<trkpt lat="59.0919270" lon="30.0397650">
<ele>69.585838</ele>
<time>2026-04-25T11:23:33.000Z</time>
</trkpt>
<trkpt lat="59.0922820" lon="30.0395050">
<ele>62.666882</ele>
<time>2026-04-25T11:24:31.000Z</time>
</trkpt>
<trkpt lat="59.0924150" lon="30.0394780">
<ele>60.411358</ele>
<time>2026-04-25T11:24:48.997Z</time>
</trkpt>
<trkpt lat="59.0925250" lon="30.0392950">
<ele>60.685680</ele>
<time>2026-04-25T11:25:07.997Z</time>
</trkpt>
<trkpt lat="59.0926770" lon="30.0391920">
<ele>61.142883</ele>
<time>2026-04-25T11:25:27.998Z</time>
</trkpt>
<trkpt lat="59.0928120" lon="30.0391290">
<ele>59.496960</ele>
<time>2026-04-25T11:25:44.000Z</time>
</trkpt>
<trkpt lat="59.0929680" lon="30.0392430">
<ele>61.386719</ele>
<time>2026-04-25T11:26:13.004Z</time>
</trkpt>
<trkpt lat="59.0931810" lon="30.0388010">
<ele>61.051441</ele>
<time>2026-04-25T11:27:21.001Z</time>
</trkpt>
<trkpt lat="59.0933540" lon="30.0388200">
<ele>64.160400</ele>
<time>2026-04-25T11:28:16.003Z</time>
</trkpt>
<trkpt lat="59.0934700" lon="30.0386980">
<ele>65.897758</ele>
<time>2026-04-25T11:29:10.003Z</time>
</trkpt>
<trkpt lat="59.0935130" lon="30.0387020">
<ele>63.916557</ele>
<time>2026-04-25T11:29:25.002Z</time>
</trkpt>
<trkpt lat="59.0935780" lon="30.0385540">
<ele>66.842644</ele>
<time>2026-04-25T11:29:45.004Z</time>
</trkpt>
<trkpt lat="59.0936520" lon="30.0385560">
<ele>66.781685</ele>
<time>2026-04-25T11:30:01.999Z</time>
</trkpt>
<trkpt lat="59.0936920" lon="30.0384540">
<ele>66.934082</ele>
<time>2026-04-25T11:30:19.996Z</time>
</trkpt>
<trkpt lat="59.0938400" lon="30.0383820">
<ele>69.463921</ele>
<time>2026-04-25T11:31:13.002Z</time>
</trkpt>
<trkpt lat="59.0939190" lon="30.0384680">
<ele>71.353683</ele>
<time>2026-04-25T11:31:53.999Z</time>
</trkpt>
<trkpt lat="59.0939290" lon="30.0384330">
<ele>74.432159</ele>
<time>2026-04-25T11:32:54.004Z</time>
</trkpt>
<trkpt lat="59.0939270" lon="30.0384780">
<ele>74.401680</ele>
<time>2026-04-25T11:33:17.997Z</time>
</trkpt>
<trkpt lat="59.0939560" lon="30.0384340">
<ele>72.816719</ele>
<time>2026-04-25T11:34:15.004Z</time>
</trkpt>
<trkpt lat="59.0939210" lon="30.0383530">
<ele>71.262238</ele>
<time>2026-04-25T11:35:20.996Z</time>
</trkpt>
<trkpt lat="59.0938670" lon="30.0384350">
<ele>71.627998</ele>
<time>2026-04-25T11:36:18.996Z</time>
</trkpt>
<trkpt lat="59.0940010" lon="30.0383690">
<ele>77.053444</ele>
<time>2026-04-25T11:38:36.001Z</time>
</trkpt>
<trkpt lat="59.0939740" lon="30.0383180">
<ele>76.078079</ele>
<time>2026-04-25T11:38:55.000Z</time>
</trkpt>
<trkpt lat="59.0941710" lon="30.0381010">
<ele>73.822556</ele>
<time>2026-04-25T11:40:06.997Z</time>
</trkpt>
<trkpt lat="59.0942810" lon="30.0381160">
<ele>73.456802</ele>
<time>2026-04-25T11:40:39.000Z</time>
</trkpt>
<trkpt lat="59.0944210" lon="30.0379550">
<ele>72.268082</ele>
<time>2026-04-25T11:41:14.001Z</time>
</trkpt>
<trkpt lat="59.0947430" lon="30.0379320">
<ele>71.262238</ele>
<time>2026-04-25T11:42:21.997Z</time>
</trkpt>
<trkpt lat="59.0948560" lon="30.0377010">
<ele>70.926956</ele>
<time>2026-04-25T11:42:56.998Z</time>
</trkpt>
<trkpt lat="59.0949580" lon="30.0375880">
<ele>69.738243</ele>
<time>2026-04-25T11:43:30.996Z</time>
</trkpt>
<trkpt lat="59.0950310" lon="30.0375320">
<ele>69.829681</ele>
<time>2026-04-25T11:43:49.002Z</time>
</trkpt>
<trkpt lat="59.0952240" lon="30.0375170">
<ele>69.616318</ele>
<time>2026-04-25T11:45:07.004Z</time>
</trkpt>
<trkpt lat="59.0953620" lon="30.0373420">
<ele>70.805038</ele>
<time>2026-04-25T11:46:31.996Z</time>
</trkpt>
<trkpt lat="59.0953520" lon="30.0374310">
<ele>70.561203</ele>
<time>2026-04-25T11:46:58.002Z</time>
</trkpt>
<trkpt lat="59.0954190" lon="30.0374450">
<ele>75.407516</ele>
<time>2026-04-25T11:48:12.004Z</time>
</trkpt>
<trkpt lat="59.0954460" lon="30.0373400">
<ele>73.212959</ele>
<time>2026-04-25T11:48:38.002Z</time>
</trkpt>
<trkpt lat="59.0953810" lon="30.0375090">
<ele>73.914001</ele>
<time>2026-04-25T11:49:12.000Z</time>
</trkpt>
<trkpt lat="59.0953770" lon="30.0378470">
<ele>75.742798</ele>
<time>2026-04-25T11:49:57.999Z</time>
</trkpt>
<trkpt lat="59.0953980" lon="30.0379770">
<ele>75.681839</ele>
<time>2026-04-25T11:50:12.998Z</time>
</trkpt>
<trkpt lat="59.0954550" lon="30.0380240">
<ele>75.072243</ele>
<time>2026-04-25T11:50:31.004Z</time>
</trkpt>
<trkpt lat="59.0954800" lon="30.0382290">
<ele>74.279762</ele>
<time>2026-04-25T11:51:06.998Z</time>
</trkpt>
<trkpt lat="59.0954410" lon="30.0381770">
<ele>74.523598</ele>
<time>2026-04-25T11:51:48.997Z</time>
</trkpt>
<trkpt lat="59.0954440" lon="30.0382240">
<ele>73.792084</ele>
<time>2026-04-25T11:52:15.004Z</time>
</trkpt>
<trkpt lat="59.0953330" lon="30.0383510">
<ele>72.298561</ele>
<time>2026-04-25T11:52:53.003Z</time>
</trkpt>
<trkpt lat="59.0951320" lon="30.0384270">
<ele>70.652641</ele>
<time>2026-04-25T11:53:38.000Z</time>
</trkpt>
<trkpt lat="59.0951200" lon="30.0384950">
<ele>69.707756</ele>
<time>2026-04-25T11:53:55.003Z</time>
</trkpt>
<trkpt lat="59.0950210" lon="30.0385300">
<ele>70.103996</ele>
<time>2026-04-25T11:54:15.998Z</time>
</trkpt>
<trkpt lat="59.0949900" lon="30.0385970">
<ele>69.281044</ele>
<time>2026-04-25T11:54:34.004Z</time>
</trkpt>
<trkpt lat="59.0947080" lon="30.0386140">
<ele>68.214241</ele>
<time>2026-04-25T11:55:39.996Z</time>
</trkpt>
<trkpt lat="59.0946130" lon="30.0387450">
<ele>68.092316</ele>
<time>2026-04-25T11:55:58.002Z</time>
</trkpt>
<trkpt lat="59.0946050" lon="30.0388120">
<ele>70.561203</ele>
<time>2026-04-25T11:57:12.997Z</time>
</trkpt>
<trkpt lat="59.0944950" lon="30.0387200">
<ele>68.366638</ele>
<time>2026-04-25T11:58:29.997Z</time>
</trkpt>
<trkpt lat="59.0943800" lon="30.0387650">
<ele>66.964561</ele>
<time>2026-04-25T11:58:49.999Z</time>
</trkpt>
<trkpt lat="59.0943240" lon="30.0388810">
<ele>66.111115</ele>
<time>2026-04-25T11:59:07.996Z</time>
</trkpt>
<trkpt lat="59.0942120" lon="30.0389100">
<ele>66.202560</ele>
<time>2026-04-25T11:59:29.000Z</time>
</trkpt>
<trkpt lat="59.0941260" lon="30.0390550">
<ele>65.501518</ele>
<time>2026-04-25T11:59:47.999Z</time>
</trkpt>
<trkpt lat="59.0940500" lon="30.0390640">
<ele>65.074799</ele>
<time>2026-04-25T12:00:05.003Z</time>
</trkpt>
<trkpt lat="59.0938760" lon="30.0392970">
<ele>64.830956</ele>
<time>2026-04-25T12:00:52.004Z</time>
</trkpt>
<trkpt lat="59.0938420" lon="30.0392330">
<ele>64.495682</ele>
<time>2026-04-25T12:01:10.001Z</time>
</trkpt>
<trkpt lat="59.0938190" lon="30.0392990">
<ele>64.556641</ele>
<time>2026-04-25T12:01:27.998Z</time>
</trkpt>
<trkpt lat="59.0935900" lon="30.0393140">
<ele>64.922401</ele>
<time>2026-04-25T12:02:25.999Z</time>
</trkpt>
<trkpt lat="59.0935430" lon="30.0394490">
<ele>63.459358</ele>
<time>2026-04-25T12:02:59.004Z</time>
</trkpt>
<trkpt lat="59.0934710" lon="30.0395000">
<ele>62.910717</ele>
<time>2026-04-25T12:03:14.996Z</time>
</trkpt>
<trkpt lat="59.0934050" lon="30.0394630">
<ele>62.636398</ele>
<time>2026-04-25T12:03:32.000Z</time>
</trkpt>
<trkpt lat="59.0932960" lon="30.0396500">
<ele>61.691517</ele>
<time>2026-04-25T12:04:04.996Z</time>
</trkpt>
<trkpt lat="59.0932120" lon="30.0396570">
<ele>61.051441</ele>
<time>2026-04-25T12:04:23.002Z</time>
</trkpt>
<trkpt lat="59.0928700" lon="30.0399110">
<ele>60.777119</ele>
<time>2026-04-25T12:05:37.003Z</time>
</trkpt>
<trkpt lat="59.0928490" lon="30.0398570">
<ele>66.111115</ele>
<time>2026-04-25T12:06:30.001Z</time>
</trkpt>
<trkpt lat="59.0927710" lon="30.0398560">
<ele>69.829681</ele>
<time>2026-04-25T12:07:13.996Z</time>
</trkpt>
<trkpt lat="59.0927560" lon="30.0400140">
<ele>69.585838</ele>
<time>2026-04-25T12:07:40.996Z</time>
</trkpt>
<trkpt lat="59.0923810" lon="30.0403620">
<ele>67.665604</ele>
<time>2026-04-25T12:08:57.002Z</time>
</trkpt>
<trkpt lat="59.0921280" lon="30.0404730">
<ele>67.635117</ele>
<time>2026-04-25T12:09:39.001Z</time>
</trkpt>
<trkpt lat="59.0918910" lon="30.0404810">
<ele>66.446404</ele>
<time>2026-04-25T12:10:15.004Z</time>
</trkpt>
<trkpt lat="59.0916730" lon="30.0406480">
<ele>64.160400</ele>
<time>2026-04-25T12:10:44.000Z</time>
</trkpt>
<trkpt lat="59.0914820" lon="30.0409290">
<ele>62.392559</ele>
<time>2026-04-25T12:11:13.998Z</time>
</trkpt>
<trkpt lat="59.0911810" lon="30.0410140">
<ele>58.460640</ele>
<time>2026-04-25T12:11:47.003Z</time>
</trkpt>
<trkpt lat="59.0911070" lon="30.0411910">
<ele>57.607201</ele>
<time>2026-04-25T12:12:05.000Z</time>
</trkpt>
<trkpt lat="59.0912380" lon="30.0416890">
<ele>58.003441</ele>
<time>2026-04-25T12:12:44.001Z</time>
</trkpt>
<trkpt lat="59.0912110" lon="30.0417940">
<ele>63.977520</ele>
<time>2026-04-25T12:14:05.001Z</time>
</trkpt>
<trkpt lat="59.0912220" lon="30.0417630">
<ele>64.282318</ele>
<time>2026-04-25T12:14:30.998Z</time>
</trkpt>
<trkpt lat="59.0911890" lon="30.0417400">
<ele>53.340000</ele>
<time>2026-04-25T12:18:01.996Z</time>
</trkpt>
<trkpt lat="59.0912560" lon="30.0417750">
<ele>64.129921</ele>
<time>2026-04-25T12:19:10.001Z</time>
</trkpt>
<trkpt lat="59.0912730" lon="30.0417230">
<ele>66.324478</ele>
<time>2026-04-25T12:20:20.996Z</time>
</trkpt>
<trkpt lat="59.0912450" lon="30.0417550">
<ele>65.440559</ele>
<time>2026-04-25T12:22:16.003Z</time>
</trkpt>
<trkpt lat="59.0911820" lon="30.0416750">
<ele>68.122803</ele>
<time>2026-04-25T12:24:31.003Z</time>
</trkpt>
<trkpt lat="59.0912000" lon="30.0417190">
<ele>68.244720</ele>
<time>2026-04-25T12:26:20.999Z</time>
</trkpt>
<trkpt lat="59.0912160" lon="30.0416580">
<ele>68.762878</ele>
<time>2026-04-25T12:27:01.996Z</time>
</trkpt>
<trkpt lat="59.0912620" lon="30.0416870">
<ele>67.513199</ele>
<time>2026-04-25T12:27:32.996Z</time>
</trkpt>
<trkpt lat="59.0922650" lon="30.0411200">
<ele>65.592957</ele>
<time>2026-04-25T12:30:50.999Z</time>
</trkpt>
<trkpt lat="59.0926990" lon="30.0409530">
<ele>64.769997</ele>
<time>2026-04-25T12:31:42.001Z</time>
</trkpt>
<trkpt lat="59.0927850" lon="30.0408670">
<ele>64.312798</ele>
<time>2026-04-25T12:31:58.002Z</time>
</trkpt>
<trkpt lat="59.0927390" lon="30.0405920">
<ele>62.666882</ele>
<time>2026-04-25T12:32:37.003Z</time>
</trkpt>
<trkpt lat="59.0928280" lon="30.0406460">
<ele>63.794640</ele>
<time>2026-04-25T12:32:51.000Z</time>
</trkpt>
<trkpt lat="59.0929700" lon="30.0408430">
<ele>61.508640</ele>
<time>2026-04-25T12:33:18.000Z</time>
</trkpt>
<trkpt lat="59.0930960" lon="30.0407940">
<ele>60.716160</ele>
<time>2026-04-25T12:33:31.997Z</time>
</trkpt>
<trkpt lat="59.0931930" lon="30.0406930">
<ele>61.051441</ele>
<time>2026-04-25T12:33:50.996Z</time>
</trkpt>
<trkpt lat="59.0935250" lon="30.0405570">
<ele>60.959999</ele>
<time>2026-04-25T12:34:40.996Z</time>
</trkpt>
<trkpt lat="59.0939460" lon="30.0402640">
<ele>58.277760</ele>
<time>2026-04-25T12:37:26.996Z</time>
</trkpt>
<trkpt lat="59.0942660" lon="30.0401950">
<ele>60.594242</ele>
<time>2026-04-25T12:39:13.000Z</time>
</trkpt>
<trkpt lat="59.0956570" lon="30.0395450">
<ele>53.583839</ele>
<time>2026-04-25T12:42:23.996Z</time>
</trkpt>
<trkpt lat="59.0957460" lon="30.0394710">
<ele>52.303680</ele>
<time>2026-04-25T12:42:36.999Z</time>
</trkpt>
<trkpt lat="59.0957780" lon="30.0393360">
<ele>60.777119</ele>
<time>2026-04-25T12:43:32.002Z</time>
</trkpt>
<trkpt lat="59.0958520" lon="30.0397880">
<ele>67.025520</ele>
<time>2026-04-25T12:45:06.998Z</time>
</trkpt>
<trkpt lat="59.0957940" lon="30.0402220">
<ele>66.233040</ele>
<time>2026-04-25T12:45:41.999Z</time>
</trkpt>
<trkpt lat="59.0957540" lon="30.0403020">
<ele>61.996319</ele>
<time>2026-04-25T12:46:04.999Z</time>
</trkpt>
<trkpt lat="59.0956500" lon="30.0403260">
<ele>58.552082</ele>
<time>2026-04-25T12:46:26.003Z</time>
</trkpt>
<trkpt lat="59.0955910" lon="30.0404060">
<ele>56.540401</ele>
<time>2026-04-25T12:46:42.004Z</time>
</trkpt>
<trkpt lat="59.0954960" lon="30.0404100">
<ele>56.327042</ele>
<time>2026-04-25T12:46:57.996Z</time>
</trkpt>
<trkpt lat="59.0954060" lon="30.0405230">
<ele>54.162960</ele>
<time>2026-04-25T12:47:13.004Z</time>
</trkpt>
<trkpt lat="59.0953010" lon="30.0405480">
<ele>52.852318</ele>
<time>2026-04-25T12:47:28.997Z</time>
</trkpt>
<trkpt lat="59.0950700" lon="30.0407260">
<ele>53.980083</ele>
<time>2026-04-25T12:48:13.000Z</time>
</trkpt>
<trkpt lat="59.0949590" lon="30.0405670">
<ele>53.675282</ele>
<time>2026-04-25T12:49:13.999Z</time>
</trkpt>
<trkpt lat="59.0946030" lon="30.0407180">
<ele>53.096161</ele>
<time>2026-04-25T12:50:07.999Z</time>
</trkpt>
<trkpt lat="59.0942650" lon="30.0409190">
<ele>55.077358</ele>
<time>2026-04-25T12:50:51.000Z</time>
</trkpt>
<trkpt lat="59.0942450" lon="30.0409910">
<ele>56.845200</ele>
<time>2026-04-25T12:51:08.004Z</time>
</trkpt>
<trkpt lat="59.0941590" lon="30.0409650">
<ele>58.277760</ele>
<time>2026-04-25T12:51:22.000Z</time>
</trkpt>
<trkpt lat="59.0940020" lon="30.0410940">
<ele>56.113682</ele>
<time>2026-04-25T12:51:47.998Z</time>
</trkpt>
<trkpt lat="59.0934700" lon="30.0412820">
<ele>60.106560</ele>
<time>2026-04-25T12:54:40.997Z</time>
</trkpt>
<trkpt lat="59.0932780" lon="30.0414270">
<ele>58.460640</ele>
<time>2026-04-25T12:55:07.997Z</time>
</trkpt>
<trkpt lat="59.0931700" lon="30.0414390">
<ele>57.942482</ele>
<time>2026-04-25T12:55:22.002Z</time>
</trkpt>
<trkpt lat="59.0929370" lon="30.0415650">
<ele>58.338718</ele>
<time>2026-04-25T12:56:00.001Z</time>
</trkpt>
<trkpt lat="59.0928590" lon="30.0417210">
<ele>58.369202</ele>
<time>2026-04-25T12:56:29.999Z</time>
</trkpt>
<trkpt lat="59.0925780" lon="30.0419250">
<ele>59.740799</ele>
<time>2026-04-25T12:57:38.998Z</time>
</trkpt>
<trkpt lat="59.0920660" lon="30.0420390">
<ele>57.759602</ele>
<time>2026-04-25T12:58:48.999Z</time>
</trkpt>
<trkpt lat="59.0918620" lon="30.0422940">
<ele>59.923683</ele>
<time>2026-04-25T12:59:20.000Z</time>
</trkpt>
<trkpt lat="59.0916810" lon="30.0424090">
<ele>60.868561</ele>
<time>2026-04-25T12:59:42.999Z</time>
</trkpt>
<trkpt lat="59.0916560" lon="30.0425010">
<ele>60.959999</ele>
<time>2026-04-25T12:59:49.998Z</time>
</trkpt>
<trkpt lat="59.0918220" lon="30.0428750">
<ele>60.899040</ele>
<time>2026-04-25T13:00:14.000Z</time>
</trkpt>
<trkpt lat="59.0919900" lon="30.0431550">
<ele>62.819283</ele>
<time>2026-04-25T13:00:46.002Z</time>
</trkpt>
<trkpt lat="59.0922050" lon="30.0427570">
<ele>67.543678</ele>
<time>2026-04-25T13:09:23.003Z</time>
</trkpt>
<trkpt lat="59.0923790" lon="30.0426310">
<ele>66.476883</ele>
<time>2026-04-25T13:09:47.998Z</time>
</trkpt>
<trkpt lat="59.0927520" lon="30.0425700">
<ele>63.611759</ele>
<time>2026-04-25T13:10:45.998Z</time>
</trkpt>
<trkpt lat="59.0928000" lon="30.0424380">
<ele>59.527439</ele>
<time>2026-04-25T13:10:59.002Z</time>
</trkpt>
<trkpt lat="59.0929990" lon="30.0423040">
<ele>55.930801</ele>
<time>2026-04-25T13:11:27.004Z</time>
</trkpt>
<trkpt lat="59.0936160" lon="30.0420760">
<ele>62.758320</ele>
<time>2026-04-25T13:13:39.999Z</time>
</trkpt>
<trkpt lat="59.0946820" lon="30.0414820">
<ele>59.618881</ele>
<time>2026-04-25T13:16:39.003Z</time>
</trkpt>
<trkpt lat="59.0949780" lon="30.0413600">
<ele>60.655201</ele>
<time>2026-04-25T13:17:24.000Z</time>
</trkpt>
<trkpt lat="59.0950010" lon="30.0414160">
<ele>62.026798</ele>
<time>2026-04-25T13:17:37.003Z</time>
</trkpt>
<trkpt lat="59.0950360" lon="30.0413500">
<ele>62.880241</ele>
<time>2026-04-25T13:17:52.002Z</time>
</trkpt>
<trkpt lat="59.0951190" lon="30.0413460">
<ele>62.758320</ele>
<time>2026-04-25T13:18:07.001Z</time>
</trkpt>
<trkpt lat="59.0952090" lon="30.0412530">
<ele>62.240158</ele>
<time>2026-04-25T13:18:32.999Z</time>
</trkpt>
<trkpt lat="59.0953400" lon="30.0413330">
<ele>61.965839</ele>
<time>2026-04-25T13:19:02.004Z</time>
</trkpt>
<trkpt lat="59.0954530" lon="30.0412400">
<ele>62.087761</ele>
<time>2026-04-25T13:19:20.001Z</time>
</trkpt>
<trkpt lat="59.0955580" lon="30.0410630">
<ele>60.624718</ele>
<time>2026-04-25T13:19:37.998Z</time>
</trkpt>
<trkpt lat="59.0958130" lon="30.0409030">
<ele>62.758320</ele>
<time>2026-04-25T13:20:27.997Z</time>
</trkpt>
<trkpt lat="59.0959460" lon="30.0409820">
<ele>67.604637</ele>
<time>2026-04-25T13:21:41.999Z</time>
</trkpt>
<trkpt lat="59.0959170" lon="30.0410170">
<ele>67.696083</ele>
<time>2026-04-25T13:22:11.997Z</time>
</trkpt>
<trkpt lat="59.0959520" lon="30.0410600">
<ele>69.067680</ele>
<time>2026-04-25T13:22:58.999Z</time>
</trkpt>
<trkpt lat="59.0959200" lon="30.0411360">
<ele>68.915283</ele>
<time>2026-04-25T13:23:13.004Z</time>
</trkpt>
<trkpt lat="59.0959680" lon="30.0414770">
<ele>68.214241</ele>
<time>2026-04-25T13:23:44.998Z</time>
</trkpt>
<trkpt lat="59.0959710" lon="30.0416730">
<ele>67.726563</ele>
<time>2026-04-25T13:24:00.999Z</time>
</trkpt>
<trkpt lat="59.0960230" lon="30.0419410">
<ele>66.964561</ele>
<time>2026-04-25T13:24:18.003Z</time>
</trkpt>
<trkpt lat="59.0959750" lon="30.0420300">
<ele>66.781685</ele>
<time>2026-04-25T13:24:37.002Z</time>
</trkpt>
<trkpt lat="59.0955530" lon="30.0421890">
<ele>55.869843</ele>
<time>2026-04-25T13:25:43.997Z</time>
</trkpt>
<trkpt lat="59.0954470" lon="30.0420630">
<ele>52.364639</ele>
<time>2026-04-25T13:26:02.996Z</time>
</trkpt>
<trkpt lat="59.0953130" lon="30.0420000">
<ele>49.377602</ele>
<time>2026-04-25T13:26:24.000Z</time>
</trkpt>
<trkpt lat="59.0951320" lon="30.0421810">
<ele>46.695358</ele>
<time>2026-04-25T13:26:53.998Z</time>
</trkpt>
<trkpt lat="59.0950620" lon="30.0421790">
<ele>49.347118</ele>
<time>2026-04-25T13:27:09.999Z</time>
</trkpt>
<trkpt lat="59.0950170" lon="30.0420880">
<ele>53.461918</ele>
<time>2026-04-25T13:27:27.996Z</time>
</trkpt>
<trkpt lat="59.0948970" lon="30.0420250">
<ele>55.869843</ele>
<time>2026-04-25T13:27:43.998Z</time>
</trkpt>
<trkpt lat="59.0949390" lon="30.0423350">
<ele>57.637680</ele>
<time>2026-04-25T13:28:14.998Z</time>
</trkpt>
<trkpt lat="59.0949120" lon="30.0424510">
<ele>57.119518</ele>
<time>2026-04-25T13:28:29.997Z</time>
</trkpt>
<trkpt lat="59.0945520" lon="30.0425590">
<ele>59.222641</ele>
<time>2026-04-25T13:30:50.000Z</time>
</trkpt>
<trkpt lat="59.0943490" lon="30.0427470">
<ele>59.923683</ele>
<time>2026-04-25T13:31:18.002Z</time>
</trkpt>
<trkpt lat="59.0940430" lon="30.0428770">
<ele>61.935360</ele>
<time>2026-04-25T13:32:00.001Z</time>
</trkpt>
<trkpt lat="59.0938430" lon="30.0430550">
<ele>62.270641</ele>
<time>2026-04-25T13:32:31.001Z</time>
</trkpt>
<trkpt lat="59.0934720" lon="30.0432080">
<ele>60.655201</ele>
<time>2026-04-25T13:33:33.002Z</time>
</trkpt>
<trkpt lat="59.0932420" lon="30.0433560">
<ele>62.880241</ele>
<time>2026-04-25T13:34:11.001Z</time>
</trkpt>
<trkpt lat="59.0929700" lon="30.0434150">
<ele>63.215519</ele>
<time>2026-04-25T13:36:23.996Z</time>
</trkpt>
<trkpt lat="59.0925930" lon="30.0437870">
<ele>62.544960</ele>
<time>2026-04-25T13:37:53.999Z</time>
</trkpt>
<trkpt lat="59.0924750" lon="30.0438240">
<ele>64.008003</ele>
<time>2026-04-25T13:38:08.998Z</time>
</trkpt>
<trkpt lat="59.0924860" lon="30.0443110">
<ele>65.440559</ele>
<time>2026-04-25T13:38:42.003Z</time>
</trkpt>
<trkpt lat="59.0924520" lon="30.0443730">
<ele>65.623444</ele>
<time>2026-04-25T13:38:46.997Z</time>
</trkpt>
<trkpt lat="59.0924910" lon="30.0445820">
<ele>65.379601</ele>
<time>2026-04-25T13:39:01.002Z</time>
</trkpt>
<trkpt lat="59.0928130" lon="30.0443010">
<ele>75.498962</ele>
<time>2026-04-25T13:45:23.003Z</time>
</trkpt>
<trkpt lat="59.0931850" lon="30.0441460">
<ele>70.043037</ele>
<time>2026-04-25T13:46:10.004Z</time>
</trkpt>
<trkpt lat="59.0934280" lon="30.0439390">
<ele>64.830956</ele>
<time>2026-04-25T13:46:48.003Z</time>
</trkpt>
<trkpt lat="59.0936630" lon="30.0438730">
<ele>64.465202</ele>
<time>2026-04-25T13:47:47.999Z</time>
</trkpt>
<trkpt lat="59.0937740" lon="30.0437650">
<ele>67.330315</ele>
<time>2026-04-25T13:49:03.003Z</time>
</trkpt>
<trkpt lat="59.0939810" lon="30.0436940">
<ele>64.891914</ele>
<time>2026-04-25T13:49:30.996Z</time>
</trkpt>
<trkpt lat="59.0941270" lon="30.0435470">
<ele>64.556641</ele>
<time>2026-04-25T13:49:56.001Z</time>
</trkpt>
<trkpt lat="59.0944230" lon="30.0434670">
<ele>63.306957</ele>
<time>2026-04-25T13:50:35.002Z</time>
</trkpt>
<trkpt lat="59.0947420" lon="30.0432530">
<ele>64.434715</ele>
<time>2026-04-25T13:51:30.997Z</time>
</trkpt>
<trkpt lat="59.0950560" lon="30.0431180">
<ele>67.177917</ele>
<time>2026-04-25T13:52:23.002Z</time>
</trkpt>
<trkpt lat="59.0952260" lon="30.0429620">
<ele>69.494400</ele>
<time>2026-04-25T13:52:55.998Z</time>
</trkpt>
<trkpt lat="59.0955030" lon="30.0429170">
<ele>68.305679</ele>
<time>2026-04-25T13:53:38.999Z</time>
</trkpt>
<trkpt lat="59.0958480" lon="30.0427490">
<ele>68.580002</ele>
<time>2026-04-25T13:54:20.998Z</time>
</trkpt>
<trkpt lat="59.0962740" lon="30.0424650">
<ele>73.030083</ele>
<time>2026-04-25T13:55:21.003Z</time>
</trkpt>
<trkpt lat="59.0963280" lon="30.0426180">
<ele>74.371201</ele>
<time>2026-04-25T13:55:44.996Z</time>
</trkpt>
<trkpt lat="59.0963460" lon="30.0430450">
<ele>75.925682</ele>
<time>2026-04-25T13:56:39.998Z</time>
</trkpt>
<trkpt lat="59.0964020" lon="30.0431710">
<ele>75.529442</ele>
<time>2026-04-25T13:56:57.002Z</time>
</trkpt>
<trkpt lat="59.0963390" lon="30.0432220">
<ele>78.089767</ele>
<time>2026-04-25T13:58:19.998Z</time>
</trkpt>
<trkpt lat="59.0964530" lon="30.0431500">
<ele>77.205841</ele>
<time>2026-04-25T13:59:23.001Z</time>
</trkpt>
<trkpt lat="59.0965030" lon="30.0433010">
<ele>76.961998</ele>
<time>2026-04-25T13:59:55.997Z</time>
</trkpt>
<trkpt lat="59.0964240" lon="30.0431810">
<ele>76.687683</ele>
<time>2026-04-25T14:00:13.000Z</time>
</trkpt>
<trkpt lat="59.0962510" lon="30.0431180">
<ele>77.510643</ele>
<time>2026-04-25T14:01:00.002Z</time>
</trkpt>
<trkpt lat="59.0961530" lon="30.0431700">
<ele>77.480156</ele>
<time>2026-04-25T14:01:20.997Z</time>
</trkpt>
<trkpt lat="59.0960490" lon="30.0433300">
<ele>76.199997</ele>
<time>2026-04-25T14:01:42.001Z</time>
</trkpt>
<trkpt lat="59.0952870" lon="30.0436040">
<ele>66.751198</ele>
<time>2026-04-25T14:03:39.004Z</time>
</trkpt>
<trkpt lat="59.0950980" lon="30.0438920">
<ele>68.366638</ele>
<time>2026-04-25T14:04:14.998Z</time>
</trkpt>
<trkpt lat="59.0949850" lon="30.0438550">
<ele>67.513199</ele>
<time>2026-04-25T14:04:33.004Z</time>
</trkpt>
<trkpt lat="59.0947760" lon="30.0439750">
<ele>68.519043</ele>
<time>2026-04-25T14:05:10.000Z</time>
</trkpt>
<trkpt lat="59.0946820" lon="30.0441260">
<ele>69.189598</ele>
<time>2026-04-25T14:05:30.002Z</time>
</trkpt>
<trkpt lat="59.0944340" lon="30.0441490">
<ele>67.330315</ele>
<time>2026-04-25T14:06:09.003Z</time>
</trkpt>
<trkpt lat="59.0942620" lon="30.0442630">
<ele>68.092316</ele>
<time>2026-04-25T14:06:51.002Z</time>
</trkpt>
<trkpt lat="59.0941920" lon="30.0444740">
<ele>69.890640</ele>
<time>2026-04-25T14:07:26.996Z</time>
</trkpt>
<trkpt lat="59.0941550" lon="30.0445050">
<ele>70.378319</ele>
<time>2026-04-25T14:07:42.997Z</time>
</trkpt>
<trkpt lat="59.0940680" lon="30.0444470">
<ele>74.279762</ele>
<time>2026-04-25T14:08:05.004Z</time>
</trkpt>
<trkpt lat="59.0937090" lon="30.0445460">
<ele>83.423767</ele>
<time>2026-04-25T14:10:34.000Z</time>
</trkpt>
<trkpt lat="59.0936900" lon="30.0446330">
<ele>84.978233</ele>
<time>2026-04-25T14:11:01.000Z</time>
</trkpt>
<trkpt lat="59.0936550" lon="30.0445840">
<ele>85.252563</ele>
<time>2026-04-25T14:11:17.002Z</time>
</trkpt>
<trkpt lat="59.0935840" lon="30.0446470">
<ele>84.582001</ele>
<time>2026-04-25T14:11:33.003Z</time>
</trkpt>
<trkpt lat="59.0935300" lon="30.0446170">
<ele>82.966560</ele>
<time>2026-04-25T14:11:51.000Z</time>
</trkpt>
<trkpt lat="59.0934990" lon="30.0447560">
<ele>81.960716</ele>
<time>2026-04-25T14:12:05.999Z</time>
</trkpt>
<trkpt lat="59.0934020" lon="30.0448710">
<ele>81.046318</ele>
<time>2026-04-25T14:12:23.003Z</time>
</trkpt>
<trkpt lat="59.0932500" lon="30.0449490">
<ele>78.760315</ele>
<time>2026-04-25T14:12:51.998Z</time>
</trkpt>
<trkpt lat="59.0929470" lon="30.0449170">
<ele>75.864716</ele>
<time>2026-04-25T14:13:30.999Z</time>
</trkpt>
<trkpt lat="59.0927600" lon="30.0450870">
<ele>72.054718</ele>
<time>2026-04-25T14:14:03.002Z</time>
</trkpt>
<trkpt lat="59.0927000" lon="30.0453010">
<ele>69.890640</ele>
<time>2026-04-25T14:14:22.001Z</time>
</trkpt>
<trkpt lat="59.0928200" lon="30.0458550">
<ele>72.420479</ele>
<time>2026-04-25T14:15:17.997Z</time>
</trkpt>
<trkpt lat="59.0928200" lon="30.0457610">
<ele>74.005440</ele>
<time>2026-04-25T14:16:07.003Z</time>
</trkpt>
<trkpt lat="59.0928110" lon="30.0458140">
<ele>75.438004</ele>
<time>2026-04-25T14:16:27.998Z</time>
</trkpt>
<trkpt lat="59.0928640" lon="30.0457090">
<ele>80.650085</ele>
<time>2026-04-25T14:18:03.004Z</time>
</trkpt>
<trkpt lat="59.0928580" lon="30.0457870">
<ele>81.594963</ele>
<time>2026-04-25T14:18:22.997Z</time>
</trkpt>
<trkpt lat="59.0929140" lon="30.0458160">
<ele>83.576164</ele>
<time>2026-04-25T14:19:21.999Z</time>
</trkpt>
<trkpt lat="59.0928780" lon="30.0457460">
<ele>83.728561</ele>
<time>2026-04-25T14:19:53.000Z</time>
</trkpt>
<trkpt lat="59.0928760" lon="30.0456410">
<ele>85.039200</ele>
<time>2026-04-25T14:21:00.003Z</time>
</trkpt>
<trkpt lat="59.0928390" lon="30.0456820">
<ele>83.606636</ele>
<time>2026-04-25T14:21:54.996Z</time>
</trkpt>
<trkpt lat="59.0928690" lon="30.0456930">
<ele>81.473038</ele>
<time>2026-04-25T14:22:29.004Z</time>
</trkpt>
<trkpt lat="59.0928620" lon="30.0457410">
<ele>81.838799</ele>
<time>2026-04-25T14:22:53.999Z</time>
</trkpt>
<trkpt lat="59.0931140" lon="30.0455770">
<ele>78.303116</ele>
<time>2026-04-25T14:23:30.002Z</time>
</trkpt>
<trkpt lat="59.0933570" lon="30.0455260">
<ele>76.169518</ele>
<time>2026-04-25T14:24:09.003Z</time>
</trkpt>
<trkpt lat="59.0933780" lon="30.0454310">
<ele>79.430885</ele>
<time>2026-04-25T14:25:34.003Z</time>
</trkpt>
<trkpt lat="59.0935860" lon="30.0452100">
<ele>80.192879</ele>
<time>2026-04-25T14:26:24.996Z</time>
</trkpt>
<trkpt lat="59.0938710" lon="30.0452660">
<ele>79.278481</ele>
<time>2026-04-25T14:27:17.001Z</time>
</trkpt>
<trkpt lat="59.0938620" lon="30.0451690">
<ele>79.065117</ele>
<time>2026-04-25T14:27:34.998Z</time>
</trkpt>
<trkpt lat="59.0941930" lon="30.0449780">
<ele>78.486000</ele>
<time>2026-04-25T14:28:35.003Z</time>
</trkpt>
<trkpt lat="59.0942660" lon="30.0448580">
<ele>78.760315</ele>
<time>2026-04-25T14:28:51.997Z</time>
</trkpt>
<trkpt lat="59.0944040" lon="30.0449260">
<ele>81.168236</ele>
<time>2026-04-25T14:29:32.001Z</time>
</trkpt>
<trkpt lat="59.0944330" lon="30.0450480">
<ele>82.753197</ele>
<time>2026-04-25T14:29:51.000Z</time>
</trkpt>
<trkpt lat="59.0944900" lon="30.0449570">
<ele>82.052162</ele>
<time>2026-04-25T14:30:11.002Z</time>
</trkpt>
<trkpt lat="59.0946600" lon="30.0448820">
<ele>81.198715</ele>
<time>2026-04-25T14:30:50.003Z</time>
</trkpt>
<trkpt lat="59.0947130" lon="30.0447790">
<ele>81.046318</ele>
<time>2026-04-25T14:31:10.998Z</time>
</trkpt>
<trkpt lat="59.0949380" lon="30.0447210">
<ele>79.156563</ele>
<time>2026-04-25T14:31:48.996Z</time>
</trkpt>
<trkpt lat="59.0952760" lon="30.0445250">
<ele>76.779121</ele>
<time>2026-04-25T14:32:47.999Z</time>
</trkpt>
<trkpt lat="59.0953610" lon="30.0444070">
<ele>76.291443</ele>
<time>2026-04-25T14:33:06.998Z</time>
</trkpt>
<trkpt lat="59.0953670" lon="30.0443180">
<ele>76.199997</ele>
<time>2026-04-25T14:33:25.998Z</time>
</trkpt>
<trkpt lat="59.0955370" lon="30.0442300">
<ele>83.271362</ele>
<time>2026-04-25T14:34:46.998Z</time>
</trkpt>
<trkpt lat="59.0957580" lon="30.0444130">
<ele>81.899765</ele>
<time>2026-04-25T14:35:27.001Z</time>
</trkpt>
<trkpt lat="59.0958230" lon="30.0442860">
<ele>81.686401</ele>
<time>2026-04-25T14:35:44.998Z</time>
</trkpt>
<trkpt lat="59.0960740" lon="30.0441470">
<ele>80.711037</ele>
<time>2026-04-25T14:36:25.001Z</time>
</trkpt>
<trkpt lat="59.0961940" lon="30.0439480">
<ele>79.583282</ele>
<time>2026-04-25T14:36:46.999Z</time>
</trkpt>
<trkpt lat="59.0962730" lon="30.0439360">
<ele>79.857597</ele>
<time>2026-04-25T14:37:08.003Z</time>
</trkpt>
<trkpt lat="59.0963690" lon="30.0442750">
<ele>76.108559</ele>
<time>2026-04-25T14:37:48.999Z</time>
</trkpt>
<trkpt lat="59.0964890" lon="30.0442520">
<ele>76.718163</ele>
<time>2026-04-25T14:38:06.003Z</time>
</trkpt>
<trkpt lat="59.0965180" lon="30.0443070">
<ele>78.638397</ele>
<time>2026-04-25T14:38:26.998Z</time>
</trkpt>
<trkpt lat="59.0963320" lon="30.0442930">
<ele>77.967842</ele>
<time>2026-04-25T14:39:22.000Z</time>
</trkpt>
<trkpt lat="59.0962850" lon="30.0443470">
<ele>77.998322</ele>
<time>2026-04-25T14:39:46.002Z</time>
</trkpt>
<trkpt lat="59.0963440" lon="30.0444040">
<ele>77.541115</ele>
<time>2026-04-25T14:40:06.997Z</time>
</trkpt>
<trkpt lat="59.0962700" lon="30.0444370">
<ele>78.089767</ele>
<time>2026-04-25T14:40:32.002Z</time>
</trkpt>
<trkpt lat="59.0963270" lon="30.0443910">
<ele>78.486000</ele>
<time>2026-04-25T14:40:52.997Z</time>
</trkpt>
<trkpt lat="59.0963760" lon="30.0444500">
<ele>80.314796</ele>
<time>2026-04-25T14:41:15.003Z</time>
</trkpt>
<trkpt lat="59.0963560" lon="30.0446280">
<ele>82.052162</ele>
<time>2026-04-25T14:41:54.004Z</time>
</trkpt>
<trkpt lat="59.0964450" lon="30.0448220">
<ele>81.503517</ele>
<time>2026-04-25T14:42:32.003Z</time>
</trkpt>
<trkpt lat="59.0962430" lon="30.0448020">
<ele>83.210403</ele>
<time>2026-04-25T14:43:49.996Z</time>
</trkpt>
<trkpt lat="59.0962950" lon="30.0447260">
<ele>86.685120</ele>
<time>2026-04-25T14:44:20.996Z</time>
</trkpt>
<trkpt lat="59.0960100" lon="30.0449680">
<ele>84.764885</ele>
<time>2026-04-25T14:45:42.998Z</time>
</trkpt>
<trkpt lat="59.0956840" lon="30.0450100">
<ele>85.557365</ele>
<time>2026-04-25T14:46:50.002Z</time>
</trkpt>
<trkpt lat="59.0955240" lon="30.0452270">
<ele>84.582001</ele>
<time>2026-04-25T14:47:25.996Z</time>
</trkpt>
<trkpt lat="59.0954030" lon="30.0452850">
<ele>83.454239</ele>
<time>2026-04-25T14:47:47.000Z</time>
</trkpt>
<trkpt lat="59.0953160" lon="30.0452420">
<ele>83.423767</ele>
<time>2026-04-25T14:48:07.001Z</time>
</trkpt>
<trkpt lat="59.0951460" lon="30.0453900">
<ele>81.076797</ele>
<time>2026-04-25T14:48:55.999Z</time>
</trkpt>
<trkpt lat="59.0951120" lon="30.0453770">
<ele>82.021683</ele>
<time>2026-04-25T14:49:29.997Z</time>
</trkpt>
<trkpt lat="59.0951450" lon="30.0453380">
<ele>82.661766</ele>
<time>2026-04-25T14:49:56.004Z</time>
</trkpt>
<trkpt lat="59.0950280" lon="30.0454960">
<ele>83.179916</ele>
<time>2026-04-25T14:50:45.001Z</time>
</trkpt>
<trkpt lat="59.0948770" lon="30.0453890">
<ele>81.503517</ele>
<time>2026-04-25T14:51:25.998Z</time>
</trkpt>
<trkpt lat="59.0946900" lon="30.0453480">
<ele>79.430885</ele>
<time>2026-04-25T14:52:03.996Z</time>
</trkpt>
<trkpt lat="59.0944100" lon="30.0457630">
<ele>75.712318</ele>
<time>2026-04-25T14:52:57.996Z</time>
</trkpt>
<trkpt lat="59.0940980" lon="30.0460690">
<ele>75.041756</ele>
<time>2026-04-25T14:53:58.001Z</time>
</trkpt>
<trkpt lat="59.0938240" lon="30.0462320">
<ele>77.205841</ele>
<time>2026-04-25T14:55:00.002Z</time>
</trkpt>
<trkpt lat="59.0936500" lon="30.0465660">
<ele>77.144882</ele>
<time>2026-04-25T14:55:50.002Z</time>
</trkpt>
<trkpt lat="59.0935470" lon="30.0465660">
<ele>79.004166</ele>
<time>2026-04-25T14:56:17.002Z</time>
</trkpt>
<trkpt lat="59.0935760" lon="30.0465350">
<ele>82.082634</ele>
<time>2026-04-25T14:57:07.001Z</time>
</trkpt>
<trkpt lat="59.0934370" lon="30.0465030">
<ele>81.290161</ele>
<time>2026-04-25T14:57:27.003Z</time>
</trkpt>
<trkpt lat="59.0933310" lon="30.0463930">
<ele>79.248001</ele>
<time>2026-04-25T14:57:46.996Z</time>
</trkpt>
<trkpt lat="59.0931800" lon="30.0464160">
<ele>77.053444</ele>
<time>2026-04-25T14:58:06.997Z</time>
</trkpt>
<trkpt lat="59.0930330" lon="30.0465010">
<ele>74.310242</ele>
<time>2026-04-25T14:58:28.001Z</time>
</trkpt>
<trkpt lat="59.0929690" lon="30.0466310">
<ele>72.847198</ele>
<time>2026-04-25T14:58:44.003Z</time>
</trkpt>
<trkpt lat="59.0929110" lon="30.0464580">
<ele>73.426315</ele>
<time>2026-04-25T14:59:07.002Z</time>
</trkpt>
<trkpt lat="59.0928150" lon="30.0458820">
<ele>72.085197</ele>
<time>2026-04-25T14:59:41.001Z</time>
</trkpt>
<trkpt lat="59.0928240" lon="30.0458180">
<ele>70.561203</ele>
<time>2026-04-25T15:00:00.000Z</time>
</trkpt>
<trkpt lat="59.0923980" lon="30.0442660">
<ele>65.227203</ele>
<time>2026-04-25T15:01:30.003Z</time>
</trkpt>
<trkpt lat="59.0921820" lon="30.0438550">
<ele>60.411358</ele>
<time>2026-04-25T15:02:05.004Z</time>
</trkpt>
<trkpt lat="59.0918930" lon="30.0430580">
<ele>61.782959</ele>
<time>2026-04-25T15:02:59.004Z</time>
</trkpt>
<trkpt lat="59.0915460" lon="30.0422570">
<ele>73.334885</ele>
<time>2026-04-25T15:03:48.001Z</time>
</trkpt>
<trkpt lat="59.0912560" lon="30.0417130">
<ele>77.876404</ele>
<time>2026-04-25T15:04:30.000Z</time>
</trkpt>
<trkpt lat="59.0910470" lon="30.0409830">
<ele>74.584557</ele>
<time>2026-04-25T15:05:15.999Z</time>
</trkpt>
<trkpt lat="59.0908730" lon="30.0406290">
<ele>70.561203</ele>
<time>2026-04-25T15:05:37.003Z</time>
</trkpt>
<trkpt lat="59.0906510" lon="30.0399750">
<ele>64.922401</ele>
<time>2026-04-25T15:06:16.998Z</time>
</trkpt>
<trkpt lat="59.0903310" lon="30.0394630">
<ele>62.697357</ele>
<time>2026-04-25T15:06:55.999Z</time>
</trkpt>
<trkpt lat="59.0902450" lon="30.0389890">
<ele>63.977520</ele>
<time>2026-04-25T15:07:18.998Z</time>
</trkpt>
<trkpt lat="59.0901210" lon="30.0377010">
<ele>79.644234</ele>
<time>2026-04-25T15:08:22.001Z</time>
</trkpt>
<trkpt lat="59.0901800" lon="30.0366540">
<ele>94.731834</ele>
<time>2026-04-25T15:09:12.001Z</time>
</trkpt>
<trkpt lat="59.0902690" lon="30.0364170">
<ele>96.560638</ele>
<time>2026-04-25T15:09:28.996Z</time>
</trkpt>
<trkpt lat="59.0907090" lon="30.0358250">
<ele>86.441284</ele>
<time>2026-04-25T15:10:37.001Z</time>
</trkpt>
<trkpt lat="59.0908440" lon="30.0355060">
<ele>83.057999</ele>
<time>2026-04-25T15:11:09.004Z</time>
</trkpt>
<trkpt lat="59.0912430" lon="30.0351000">
<ele>78.638397</ele>
<time>2026-04-25T15:11:59.004Z</time>
</trkpt>
<trkpt lat="59.0919400" lon="30.0336390">
<ele>82.448402</ele>
<time>2026-04-25T15:14:10.003Z</time>
</trkpt>
<trkpt lat="59.0920440" lon="30.0332900">
<ele>83.088478</ele>
<time>2026-04-25T15:14:42.999Z</time>
</trkpt>
<trkpt lat="59.0922690" lon="30.0329830">
<ele>87.538567</ele>
<time>2026-04-25T15:15:19.996Z</time>
</trkpt>
<trkpt lat="59.0923700" lon="30.0329090">
<ele>87.843361</ele>
<time>2026-04-25T15:15:31.997Z</time>
</trkpt>
<trkpt lat="59.0927240" lon="30.0328170">
<ele>88.483437</ele>
<time>2026-04-25T15:16:05.002Z</time>
</trkpt>
<trkpt lat="59.0931550" lon="30.0325840">
<ele>80.619598</ele>
<time>2026-04-25T15:16:47.001Z</time>
</trkpt>
<trkpt lat="59.0935010" lon="30.0325230">
<ele>80.253838</ele>
<time>2026-04-25T15:17:16.999Z</time>
</trkpt>
<trkpt lat="59.0936880" lon="30.0325660">
<ele>81.046318</ele>
<time>2026-04-25T15:17:33.000Z</time>
</trkpt>
<trkpt lat="59.0943430" lon="30.0322260">
<ele>87.111839</ele>
<time>2026-04-25T15:18:32.996Z</time>
</trkpt>
<trkpt lat="59.0945660" lon="30.0322510">
<ele>86.928963</ele>
<time>2026-04-25T15:18:51.002Z</time>
</trkpt>
<trkpt lat="59.0948710" lon="30.0323990">
<ele>85.252563</ele>
<time>2026-04-25T15:19:19.998Z</time>
</trkpt>
<trkpt lat="59.0952570" lon="30.0323170">
<ele>76.382881</ele>
<time>2026-04-25T15:19:54.998Z</time>
</trkpt>
<trkpt lat="59.0956650" lon="30.0323630">
<ele>77.845917</ele>
<time>2026-04-25T15:20:29.999Z</time>
</trkpt>
<trkpt lat="59.0961180" lon="30.0322120">
<ele>87.721436</ele>
<time>2026-04-25T15:21:13.000Z</time>
</trkpt>
<trkpt lat="59.0962610" lon="30.0321270">
<ele>88.422485</ele>
<time>2026-04-25T15:21:26.004Z</time>
</trkpt>
<trkpt lat="59.0966820" lon="30.0317760">
<ele>86.685120</ele>
<time>2026-04-25T15:22:07.000Z</time>
</trkpt>
<trkpt lat="59.0969300" lon="30.0310670">
<ele>89.153999</ele>
<time>2026-04-25T15:22:47.004Z</time>
</trkpt>
<trkpt lat="59.0975810" lon="30.0303630">
<ele>91.622879</ele>
<time>2026-04-25T15:23:49.998Z</time>
</trkpt>
<trkpt lat="59.0981910" lon="30.0302510">
<ele>85.344002</ele>
<time>2026-04-25T15:24:35.004Z</time>
</trkpt>
<trkpt lat="59.0984170" lon="30.0300910">
<ele>84.886803</ele>
<time>2026-04-25T15:24:54.996Z</time>
</trkpt>
<trkpt lat="59.0985410" lon="30.0299340">
<ele>83.057999</ele>
<time>2026-04-25T15:25:09.002Z</time>
</trkpt>
<trkpt lat="59.0987990" lon="30.0294210">
<ele>90.190315</ele>
<time>2026-04-25T15:25:48.996Z</time>
</trkpt>
<trkpt lat="59.0994920" lon="30.0287160">
<ele>92.110565</ele>
<time>2026-04-25T15:26:57.002Z</time>
</trkpt>
<trkpt lat="59.0995720" lon="30.0284900">
<ele>90.068398</ele>
<time>2026-04-25T15:27:12.001Z</time>
</trkpt>
<trkpt lat="59.0994330" lon="30.0280740">
<ele>96.682564</ele>
<time>2026-04-25T15:27:44.004Z</time>
</trkpt>
</trkseg>
</trk>
<trk>
 <name>20260425_Lisa90</name>
 <desc>20260425_Lisa90</desc>
<trkseg>
<trkpt lat="59.0956180" lon="30.0057180">
<ele>22.920959</ele>
<time>2026-04-24T20:31:18.998Z</time>
</trkpt>
<trkpt lat="59.0956740" lon="30.0062870">
<ele>22.707600</ele>
<time>2026-04-24T20:31:39.000Z</time>
</trkpt>
<trkpt lat="59.0957100" lon="30.0063440">
<ele>55.961281</ele>
<time>2026-04-24T22:03:02.998Z</time>
</trkpt>
<trkpt lat="59.0956080" lon="30.0057800">
<ele>53.827682</ele>
<time>2026-04-24T22:03:13.997Z</time>
</trkpt>
<trkpt lat="59.0955780" lon="30.0049590">
<ele>49.499519</ele>
<time>2026-04-25T07:48:36.003Z</time>
</trkpt>
<trkpt lat="59.0957100" lon="30.0055770">
<ele>52.669441</ele>
<time>2026-04-25T07:48:48.997Z</time>
</trkpt>
<trkpt lat="59.0957450" lon="30.0058470">
<ele>52.577999</ele>
<time>2026-04-25T07:49:02.001Z</time>
</trkpt>
<trkpt lat="59.0957440" lon="30.0060510">
<ele>63.276482</ele>
<time>2026-04-25T07:49:30.003Z</time>
</trkpt>
<trkpt lat="59.0956840" lon="30.0059540">
<ele>65.836800</ele>
<time>2026-04-25T07:50:16.002Z</time>
</trkpt>
<trkpt lat="59.0956220" lon="30.0059350">
<ele>66.415916</ele>
<time>2026-04-25T07:50:46.000Z</time>
</trkpt>
<trkpt lat="59.0956840" lon="30.0059200">
<ele>64.068962</ele>
<time>2026-04-25T07:51:14.003Z</time>
</trkpt>
<trkpt lat="59.0957450" lon="30.0059900">
<ele>65.105286</ele>
<time>2026-04-25T07:51:33.002Z</time>
</trkpt>
<trkpt lat="59.0957430" lon="30.0060840">
<ele>67.391281</ele>
<time>2026-04-25T07:52:21.999Z</time>
</trkpt>
<trkpt lat="59.0957240" lon="30.0060450">
<ele>69.220085</ele>
<time>2026-04-25T07:52:57.000Z</time>
</trkpt>
<trkpt lat="59.0961000" lon="30.0058690">
<ele>65.775841</ele>
<time>2026-04-25T07:54:59.999Z</time>
</trkpt>
<trkpt lat="59.0961220" lon="30.0057340">
<ele>65.044319</ele>
<time>2026-04-25T07:55:17.003Z</time>
</trkpt>
<trkpt lat="59.0962260" lon="30.0057470">
<ele>67.147438</ele>
<time>2026-04-25T07:55:48.996Z</time>
</trkpt>
<trkpt lat="59.0961680" lon="30.0057220">
<ele>67.208397</ele>
<time>2026-04-25T07:56:23.004Z</time>
</trkpt>
<trkpt lat="59.0961840" lon="30.0056730">
<ele>72.146156</ele>
<time>2026-04-25T07:56:56.000Z</time>
</trkpt>
<trkpt lat="59.0963080" lon="30.0055910">
<ele>71.719444</ele>
<time>2026-04-25T07:58:03.996Z</time>
</trkpt>
<trkpt lat="59.0964190" lon="30.0055860">
<ele>67.421761</ele>
<time>2026-04-25T07:58:18.002Z</time>
</trkpt>
<trkpt lat="59.0966010" lon="30.0054580">
<ele>63.459358</ele>
<time>2026-04-25T07:58:53.996Z</time>
</trkpt>
<trkpt lat="59.0966660" lon="30.0054730">
<ele>66.568321</ele>
<time>2026-04-25T07:59:15.000Z</time>
</trkpt>
<trkpt lat="59.0968800" lon="30.0053070">
<ele>72.176643</ele>
<time>2026-04-25T08:00:30.997Z</time>
</trkpt>
<trkpt lat="59.0969200" lon="30.0053310">
<ele>74.980797</ele>
<time>2026-04-25T08:01:01.004Z</time>
</trkpt>
<trkpt lat="59.0969060" lon="30.0054020">
<ele>76.078079</ele>
<time>2026-04-25T08:01:28.004Z</time>
</trkpt>
<trkpt lat="59.0970270" lon="30.0053660">
<ele>76.504799</ele>
<time>2026-04-25T08:02:07.999Z</time>
</trkpt>
<trkpt lat="59.0972010" lon="30.0051930">
<ele>74.462639</ele>
<time>2026-04-25T08:02:49.998Z</time>
</trkpt>
<trkpt lat="59.0975690" lon="30.0050200">
<ele>70.439285</ele>
<time>2026-04-25T08:03:59.999Z</time>
</trkpt>
<trkpt lat="59.0978760" lon="30.0047990">
<ele>69.250557</ele>
<time>2026-04-25T08:04:55.001Z</time>
</trkpt>
<trkpt lat="59.0978970" lon="30.0047280">
<ele>74.554085</ele>
<time>2026-04-25T08:05:50.997Z</time>
</trkpt>
<trkpt lat="59.0978780" lon="30.0047470">
<ele>74.828400</ele>
<time>2026-04-25T08:06:44.997Z</time>
</trkpt>
<trkpt lat="59.0977840" lon="30.0044980">
<ele>71.445122</ele>
<time>2026-04-25T08:07:22.002Z</time>
</trkpt>
<trkpt lat="59.0977350" lon="30.0040690">
<ele>67.939919</ele>
<time>2026-04-25T08:08:01.003Z</time>
</trkpt>
<trkpt lat="59.0977350" lon="30.0036210">
<ele>60.380882</ele>
<time>2026-04-25T08:08:39.002Z</time>
</trkpt>
<trkpt lat="59.0975720" lon="30.0030450">
<ele>60.624718</ele>
<time>2026-04-25T08:09:34.998Z</time>
</trkpt>
<trkpt lat="59.0975340" lon="30.0026640">
<ele>70.134483</ele>
<time>2026-04-25T08:11:26.998Z</time>
</trkpt>
<trkpt lat="59.0974480" lon="30.0022850">
<ele>69.159119</ele>
<time>2026-04-25T08:12:07.001Z</time>
</trkpt>
<trkpt lat="59.0974450" lon="30.0016710">
<ele>67.330315</ele>
<time>2026-04-25T08:13:06.997Z</time>
</trkpt>
<trkpt lat="59.0973190" lon="30.0012120">
<ele>71.749916</ele>
<time>2026-04-25T08:14:08.998Z</time>
</trkpt>
<trkpt lat="59.0973330" lon="30.0010290">
<ele>71.749916</ele>
<time>2026-04-25T08:14:27.997Z</time>
</trkpt>
<trkpt lat="59.0973020" lon="30.0008280">
<ele>72.450958</ele>
<time>2026-04-25T08:14:46.997Z</time>
</trkpt>
<trkpt lat="59.0972660" lon="30.0007840">
<ele>75.803757</ele>
<time>2026-04-25T08:16:07.997Z</time>
</trkpt>
<trkpt lat="59.0971800" lon="30.0004020">
<ele>71.810883</ele>
<time>2026-04-25T08:17:31.001Z</time>
</trkpt>
<trkpt lat="59.0971740" lon="30.0001540">
<ele>69.311516</ele>
<time>2026-04-25T08:17:54.001Z</time>
</trkpt>
<trkpt lat="59.0971130" lon="29.9998260">
<ele>67.238884</ele>
<time>2026-04-25T08:18:29.002Z</time>
</trkpt>
<trkpt lat="59.0971020" lon="29.9992040">
<ele>71.536560</ele>
<time>2026-04-25T08:20:02.996Z</time>
</trkpt>
<trkpt lat="59.0971230" lon="29.9989790">
<ele>68.397118</ele>
<time>2026-04-25T08:20:22.004Z</time>
</trkpt>
<trkpt lat="59.0971830" lon="29.9988210">
<ele>67.787521</ele>
<time>2026-04-25T08:21:23.003Z</time>
</trkpt>
<trkpt lat="59.0972360" lon="29.9988780">
<ele>67.482719</ele>
<time>2026-04-25T08:21:51.998Z</time>
</trkpt>
<trkpt lat="59.0971280" lon="29.9988260">
<ele>76.017120</ele>
<time>2026-04-25T08:22:53.999Z</time>
</trkpt>
<trkpt lat="59.0972350" lon="29.9989170">
<ele>75.438004</ele>
<time>2026-04-25T08:23:11.996Z</time>
</trkpt>
<trkpt lat="59.0973450" lon="29.9988790">
<ele>74.096878</ele>
<time>2026-04-25T08:23:29.000Z</time>
</trkpt>
<trkpt lat="59.0973850" lon="29.9987840">
<ele>72.816719</ele>
<time>2026-04-25T08:23:45.001Z</time>
</trkpt>
<trkpt lat="59.0977130" lon="29.9987500">
<ele>77.906883</ele>
<time>2026-04-25T08:26:46.000Z</time>
</trkpt>
<trkpt lat="59.0976890" lon="29.9988310">
<ele>77.876404</ele>
<time>2026-04-25T08:27:09.000Z</time>
</trkpt>
<trkpt lat="59.0977030" lon="29.9991360">
<ele>81.015839</ele>
<time>2026-04-25T08:28:40.999Z</time>
</trkpt>
<trkpt lat="59.0977210" lon="29.9988390">
<ele>80.772003</ele>
<time>2026-04-25T08:29:53.998Z</time>
</trkpt>
<trkpt lat="59.0977430" lon="29.9990380">
<ele>79.034637</ele>
<time>2026-04-25T08:30:12.997Z</time>
</trkpt>
<trkpt lat="59.0976600" lon="29.9994800">
<ele>77.845917</ele>
<time>2026-04-25T08:30:57.001Z</time>
</trkpt>
<trkpt lat="59.0977290" lon="29.9996570">
<ele>77.815437</ele>
<time>2026-04-25T08:31:18.998Z</time>
</trkpt>
<trkpt lat="59.0978700" lon="29.9996770">
<ele>79.583282</ele>
<time>2026-04-25T08:32:08.998Z</time>
</trkpt>
<trkpt lat="59.0978600" lon="29.9997410">
<ele>80.954880</ele>
<time>2026-04-25T08:32:34.996Z</time>
</trkpt>
<trkpt lat="59.0978950" lon="29.9997190">
<ele>84.094315</ele>
<time>2026-04-25T08:33:32.996Z</time>
</trkpt>
<trkpt lat="59.0978580" lon="29.9997390">
<ele>85.161118</ele>
<time>2026-04-25T08:34:03.003Z</time>
</trkpt>
<trkpt lat="59.0977290" lon="30.0000150">
<ele>85.191597</ele>
<time>2026-04-25T08:34:46.998Z</time>
</trkpt>
<trkpt lat="59.0977200" lon="30.0002040">
<ele>82.814163</ele>
<time>2026-04-25T08:35:06.999Z</time>
</trkpt>
<trkpt lat="59.0978020" lon="30.0003070">
<ele>78.760315</ele>
<time>2026-04-25T08:35:24.996Z</time>
</trkpt>
<trkpt lat="59.0978660" lon="30.0007170">
<ele>75.498962</ele>
<time>2026-04-25T08:36:05.000Z</time>
</trkpt>
<trkpt lat="59.0979230" lon="30.0008310">
<ele>75.255119</ele>
<time>2026-04-25T08:36:25.001Z</time>
</trkpt>
<trkpt lat="59.0979090" lon="30.0009170">
<ele>76.291443</ele>
<time>2026-04-25T08:36:44.001Z</time>
</trkpt>
<trkpt lat="59.0979720" lon="30.0013910">
<ele>74.035919</ele>
<time>2026-04-25T08:37:26.000Z</time>
</trkpt>
<trkpt lat="59.0979600" lon="30.0016450">
<ele>72.237602</ele>
<time>2026-04-25T08:37:46.001Z</time>
</trkpt>
<trkpt lat="59.0980110" lon="30.0018480">
<ele>76.626717</ele>
<time>2026-04-25T08:38:38.999Z</time>
</trkpt>
<trkpt lat="59.0979760" lon="30.0018720">
<ele>78.516479</ele>
<time>2026-04-25T08:39:08.997Z</time>
</trkpt>
<trkpt lat="59.0981210" lon="30.0020570">
<ele>76.840080</ele>
<time>2026-04-25T08:39:54.996Z</time>
</trkpt>
<trkpt lat="59.0981230" lon="30.0029690">
<ele>72.207115</ele>
<time>2026-04-25T08:40:55.001Z</time>
</trkpt>
<trkpt lat="59.0982460" lon="30.0032660">
<ele>68.549515</ele>
<time>2026-04-25T08:41:33.000Z</time>
</trkpt>
<trkpt lat="59.0982530" lon="30.0037790">
<ele>70.103996</ele>
<time>2026-04-25T08:42:17.997Z</time>
</trkpt>
<trkpt lat="59.0983980" lon="30.0043420">
<ele>70.378319</ele>
<time>2026-04-25T08:43:15.004Z</time>
</trkpt>
<trkpt lat="59.0983770" lon="30.0044560">
<ele>69.372482</ele>
<time>2026-04-25T08:43:38.997Z</time>
</trkpt>
<trkpt lat="59.0984710" lon="30.0043760">
<ele>69.098160</ele>
<time>2026-04-25T08:44:32.997Z</time>
</trkpt>
<trkpt lat="59.0985860" lon="30.0043720">
<ele>75.102715</ele>
<time>2026-04-25T08:45:37.996Z</time>
</trkpt>
<trkpt lat="59.0987960" lon="30.0041070">
<ele>72.359520</ele>
<time>2026-04-25T08:46:13.999Z</time>
</trkpt>
<trkpt lat="59.0989250" lon="30.0040290">
<ele>70.500244</ele>
<time>2026-04-25T08:46:32.998Z</time>
</trkpt>
<trkpt lat="59.0989220" lon="30.0041010">
<ele>68.275200</ele>
<time>2026-04-25T08:47:33.996Z</time>
</trkpt>
<trkpt lat="59.0988900" lon="30.0040470">
<ele>68.244720</ele>
<time>2026-04-25T08:47:59.001Z</time>
</trkpt>
<trkpt lat="59.0989150" lon="30.0040620">
<ele>71.079361</ele>
<time>2026-04-25T08:48:30.001Z</time>
</trkpt>
<trkpt lat="59.0988950" lon="30.0039060">
<ele>72.481438</ele>
<time>2026-04-25T08:48:51.998Z</time>
</trkpt>
<trkpt lat="59.0987620" lon="30.0034390">
<ele>69.921120</ele>
<time>2026-04-25T08:49:29.997Z</time>
</trkpt>
<trkpt lat="59.0987930" lon="30.0029810">
<ele>69.159119</ele>
<time>2026-04-25T08:50:11.003Z</time>
</trkpt>
<trkpt lat="59.0986600" lon="30.0025980">
<ele>67.543678</ele>
<time>2026-04-25T08:50:49.001Z</time>
</trkpt>
<trkpt lat="59.0986870" lon="30.0019770">
<ele>69.829681</ele>
<time>2026-04-25T08:51:45.999Z</time>
</trkpt>
<trkpt lat="59.0985610" lon="30.0014680">
<ele>69.250557</ele>
<time>2026-04-25T08:52:46.998Z</time>
</trkpt>
<trkpt lat="59.0984850" lon="30.0013090">
<ele>69.982079</ele>
<time>2026-04-25T08:53:09.004Z</time>
</trkpt>
<trkpt lat="59.0985140" lon="30.0012060">
<ele>71.109840</ele>
<time>2026-04-25T08:53:25.999Z</time>
</trkpt>
<trkpt lat="59.0985840" lon="30.0012800">
<ele>70.043037</ele>
<time>2026-04-25T08:53:33.999Z</time>
</trkpt>
<trkpt lat="59.0989660" lon="30.0013930">
<ele>62.270641</ele>
<time>2026-04-25T08:54:07.004Z</time>
</trkpt>
<trkpt lat="59.0990860" lon="30.0014900">
<ele>66.659760</ele>
<time>2026-04-25T08:54:57.004Z</time>
</trkpt>
<trkpt lat="59.0990540" lon="30.0015600">
<ele>66.720718</ele>
<time>2026-04-25T08:55:55.004Z</time>
</trkpt>
<trkpt lat="59.0990910" lon="30.0015940">
<ele>68.519043</ele>
<time>2026-04-25T08:56:20.000Z</time>
</trkpt>
<trkpt lat="59.0990910" lon="30.0015210">
<ele>69.585838</ele>
<time>2026-04-25T08:56:45.004Z</time>
</trkpt>
<trkpt lat="59.0989240" lon="30.0013390">
<ele>73.853043</ele>
<time>2026-04-25T08:57:27.003Z</time>
</trkpt>
<trkpt lat="59.0985360" lon="30.0011020">
<ele>75.925682</ele>
<time>2026-04-25T08:59:14.001Z</time>
</trkpt>
<trkpt lat="59.0985150" lon="30.0009130">
<ele>79.034637</ele>
<time>2026-04-25T09:00:00.000Z</time>
</trkpt>
<trkpt lat="59.0985510" lon="30.0006790">
<ele>78.211685</ele>
<time>2026-04-25T09:00:17.997Z</time>
</trkpt>
<trkpt lat="59.0985270" lon="30.0004370">
<ele>77.297279</ele>
<time>2026-04-25T09:00:36.996Z</time>
</trkpt>
<trkpt lat="59.0984610" lon="30.0002820">
<ele>76.596237</ele>
<time>2026-04-25T09:00:55.002Z</time>
</trkpt>
<trkpt lat="59.0984230" lon="29.9999820">
<ele>75.133202</ele>
<time>2026-04-25T09:01:31.999Z</time>
</trkpt>
<trkpt lat="59.0983190" lon="29.9995690">
<ele>76.230484</ele>
<time>2026-04-25T09:02:11.000Z</time>
</trkpt>
<trkpt lat="59.0982610" lon="29.9990380">
<ele>75.681839</ele>
<time>2026-04-25T09:02:51.996Z</time>
</trkpt>
<trkpt lat="59.0983200" lon="29.9989750">
<ele>74.554085</ele>
<time>2026-04-25T09:03:18.003Z</time>
</trkpt>
<trkpt lat="59.0983390" lon="29.9991180">
<ele>74.066399</ele>
<time>2026-04-25T09:04:05.998Z</time>
</trkpt>
<trkpt lat="59.0983000" lon="29.9987380">
<ele>74.919838</ele>
<time>2026-04-25T09:04:53.000Z</time>
</trkpt>
<trkpt lat="59.0983570" lon="29.9983450">
<ele>75.803757</ele>
<time>2026-04-25T09:05:30.998Z</time>
</trkpt>
<trkpt lat="59.0982960" lon="29.9981620">
<ele>76.626717</ele>
<time>2026-04-25T09:05:52.002Z</time>
</trkpt>
<trkpt lat="59.0981960" lon="29.9980710">
<ele>76.626717</ele>
<time>2026-04-25T09:06:16.998Z</time>
</trkpt>
<trkpt lat="59.0982600" lon="29.9980510">
<ele>77.419197</ele>
<time>2026-04-25T09:06:45.000Z</time>
</trkpt>
<trkpt lat="59.0982330" lon="29.9979950">
<ele>78.120239</ele>
<time>2026-04-25T09:07:12.000Z</time>
</trkpt>
<trkpt lat="59.0982790" lon="29.9980790">
<ele>86.288879</ele>
<time>2026-04-25T09:08:07.996Z</time>
</trkpt>
<trkpt lat="59.0983800" lon="29.9978940">
<ele>89.153999</ele>
<time>2026-04-25T09:08:56.000Z</time>
</trkpt>
<trkpt lat="59.0984700" lon="29.9979870">
<ele>88.544403</ele>
<time>2026-04-25T09:09:13.997Z</time>
</trkpt>
<trkpt lat="59.0985010" lon="29.9980000">
<ele>88.513916</ele>
<time>2026-04-25T09:09:36.003Z</time>
</trkpt>
<trkpt lat="59.0985140" lon="29.9978890">
<ele>89.032082</ele>
<time>2026-04-25T09:10:06.001Z</time>
</trkpt>
<trkpt lat="59.0985180" lon="29.9979480">
<ele>88.422485</ele>
<time>2026-04-25T09:10:38.004Z</time>
</trkpt>
<trkpt lat="59.0985450" lon="29.9979470">
<ele>89.794083</ele>
<time>2026-04-25T09:11:05.997Z</time>
</trkpt>
<trkpt lat="59.0984510" lon="29.9977120">
<ele>89.123520</ele>
<time>2026-04-25T09:12:29.002Z</time>
</trkpt>
<trkpt lat="59.0984270" lon="29.9977660">
<ele>90.617035</ele>
<time>2026-04-25T09:13:01.004Z</time>
</trkpt>
<trkpt lat="59.0984800" lon="29.9977320">
<ele>90.495117</ele>
<time>2026-04-25T09:13:28.998Z</time>
</trkpt>
<trkpt lat="59.0983820" lon="29.9978330">
<ele>89.916000</ele>
<time>2026-04-25T09:14:21.002Z</time>
</trkpt>
<trkpt lat="59.0984710" lon="29.9978250">
<ele>91.104721</ele>
<time>2026-04-25T09:15:45.000Z</time>
</trkpt>
<trkpt lat="59.0984870" lon="29.9979420">
<ele>91.592400</ele>
<time>2026-04-25T09:16:37.998Z</time>
</trkpt>
<trkpt lat="59.0983820" lon="29.9980630">
<ele>92.049599</ele>
<time>2026-04-25T09:17:07.002Z</time>
</trkpt>
<trkpt lat="59.0985190" lon="29.9982250">
<ele>90.678001</ele>
<time>2026-04-25T09:17:49.001Z</time>
</trkpt>
<trkpt lat="59.0987570" lon="29.9979900">
<ele>90.220802</ele>
<time>2026-04-25T09:18:36.003Z</time>
</trkpt>
<trkpt lat="59.0988640" lon="29.9979470">
<ele>89.062561</ele>
<time>2026-04-25T09:18:52.998Z</time>
</trkpt>
<trkpt lat="59.0988860" lon="29.9980910">
<ele>87.934799</ele>
<time>2026-04-25T09:19:11.997Z</time>
</trkpt>
<trkpt lat="59.0988310" lon="29.9982150">
<ele>87.264236</ele>
<time>2026-04-25T09:20:33.999Z</time>
</trkpt>
<trkpt lat="59.0989070" lon="29.9991980">
<ele>84.216240</ele>
<time>2026-04-25T09:22:07.000Z</time>
</trkpt>
<trkpt lat="59.0989290" lon="29.9992630">
<ele>84.978233</ele>
<time>2026-04-25T09:22:28.004Z</time>
</trkpt>
<trkpt lat="59.0989840" lon="29.9992290">
<ele>86.136482</ele>
<time>2026-04-25T09:22:55.998Z</time>
</trkpt>
<trkpt lat="59.0989990" lon="29.9994350">
<ele>88.483437</ele>
<time>2026-04-25T09:23:36.001Z</time>
</trkpt>
<trkpt lat="59.0990910" lon="29.9995410">
<ele>88.605362</ele>
<time>2026-04-25T09:23:56.996Z</time>
</trkpt>
<trkpt lat="59.0991440" lon="29.9997050">
<ele>87.904320</ele>
<time>2026-04-25T09:24:12.997Z</time>
</trkpt>
<trkpt lat="59.0990630" lon="29.9999120">
<ele>86.319366</ele>
<time>2026-04-25T09:24:30.001Z</time>
</trkpt>
<trkpt lat="59.0990440" lon="30.0001100">
<ele>86.441284</ele>
<time>2026-04-25T09:24:50.996Z</time>
</trkpt>
<trkpt lat="59.0990580" lon="30.0005610">
<ele>84.795364</ele>
<time>2026-04-25T09:25:25.997Z</time>
</trkpt>
<trkpt lat="59.0991660" lon="30.0006590">
<ele>84.490562</ele>
<time>2026-04-25T09:26:08.998Z</time>
</trkpt>
<trkpt lat="59.0991690" lon="30.0007560">
<ele>84.399117</ele>
<time>2026-04-25T09:27:00.000Z</time>
</trkpt>
<trkpt lat="59.0991310" lon="30.0007770">
<ele>84.521034</ele>
<time>2026-04-25T09:27:21.004Z</time>
</trkpt>
<trkpt lat="59.0993960" lon="30.0005530">
<ele>85.100166</ele>
<time>2026-04-25T09:28:18.002Z</time>
</trkpt>
<trkpt lat="59.0997500" lon="30.0009590">
<ele>85.618317</ele>
<time>2026-04-25T09:29:32.997Z</time>
</trkpt>
<trkpt lat="59.0993280" lon="30.0007330">
<ele>80.832962</ele>
<time>2026-04-25T09:30:26.004Z</time>
</trkpt>
<trkpt lat="59.0991700" lon="30.0006990">
<ele>81.290161</ele>
<time>2026-04-25T09:30:46.999Z</time>
</trkpt>
<trkpt lat="59.0991570" lon="30.0009840">
<ele>80.772003</ele>
<time>2026-04-25T09:31:07.000Z</time>
</trkpt>
<trkpt lat="59.0993450" lon="30.0015590">
<ele>82.722717</ele>
<time>2026-04-25T09:32:38.999Z</time>
</trkpt>
<trkpt lat="59.0993920" lon="30.0014990">
<ele>81.594963</ele>
<time>2026-04-25T09:34:10.998Z</time>
</trkpt>
<trkpt lat="59.0993480" lon="30.0016860">
<ele>82.295998</ele>
<time>2026-04-25T09:34:33.004Z</time>
</trkpt>
<trkpt lat="59.0993530" lon="30.0020240">
<ele>81.229202</ele>
<time>2026-04-25T09:34:53.999Z</time>
</trkpt>
<trkpt lat="59.0993990" lon="30.0023100">
<ele>77.845917</ele>
<time>2026-04-25T09:35:15.996Z</time>
</trkpt>
<trkpt lat="59.0994680" lon="30.0024070">
<ele>77.205841</ele>
<time>2026-04-25T09:35:33.000Z</time>
</trkpt>
<trkpt lat="59.0994510" lon="30.0024480">
<ele>78.607918</ele>
<time>2026-04-25T09:36:01.996Z</time>
</trkpt>
<trkpt lat="59.0995180" lon="30.0026080">
<ele>79.705200</ele>
<time>2026-04-25T09:36:21.004Z</time>
</trkpt>
<trkpt lat="59.0994850" lon="30.0027910">
<ele>79.827118</ele>
<time>2026-04-25T09:36:39.001Z</time>
</trkpt>
<trkpt lat="59.0993510" lon="30.0027570">
<ele>79.552803</ele>
<time>2026-04-25T09:37:03.996Z</time>
</trkpt>
<trkpt lat="59.0994340" lon="30.0028650">
<ele>79.065117</ele>
<time>2026-04-25T09:37:19.004Z</time>
</trkpt>
<trkpt lat="59.0994870" lon="30.0028660">
<ele>78.973679</ele>
<time>2026-04-25T09:37:26.003Z</time>
</trkpt>
<trkpt lat="59.0995220" lon="30.0030650">
<ele>77.632561</ele>
<time>2026-04-25T09:37:45.002Z</time>
</trkpt>
<trkpt lat="59.0994870" lon="30.0032630">
<ele>76.535278</ele>
<time>2026-04-25T09:38:04.001Z</time>
</trkpt>
<trkpt lat="59.0996670" lon="30.0034240">
<ele>77.083916</ele>
<time>2026-04-25T09:38:39.002Z</time>
</trkpt>
<trkpt lat="59.0997010" lon="30.0036140">
<ele>78.729836</ele>
<time>2026-04-25T09:38:59.004Z</time>
</trkpt>
<trkpt lat="59.0997580" lon="30.0037520">
<ele>79.796638</ele>
<time>2026-04-25T09:39:59.000Z</time>
</trkpt>
<trkpt lat="59.0997230" lon="30.0036910">
<ele>81.503517</ele>
<time>2026-04-25T09:40:24.997Z</time>
</trkpt>
<trkpt lat="59.0998100" lon="30.0035550">
<ele>81.625435</ele>
<time>2026-04-25T09:41:06.996Z</time>
</trkpt>
<trkpt lat="59.0998950" lon="30.0035370">
<ele>81.747360</ele>
<time>2026-04-25T09:41:26.998Z</time>
</trkpt>
<trkpt lat="59.1001500" lon="30.0032660">
<ele>83.088478</ele>
<time>2026-04-25T09:42:35.004Z</time>
</trkpt>
<trkpt lat="59.1004380" lon="30.0031890">
<ele>81.686401</ele>
<time>2026-04-25T09:43:29.004Z</time>
</trkpt>
<trkpt lat="59.1006790" lon="30.0030630">
<ele>80.406235</ele>
<time>2026-04-25T09:44:06.000Z</time>
</trkpt>
<trkpt lat="59.1007600" lon="30.0030970">
<ele>80.954880</ele>
<time>2026-04-25T09:44:23.004Z</time>
</trkpt>
<trkpt lat="59.1007260" lon="30.0031410">
<ele>80.406235</ele>
<time>2026-04-25T09:44:54.004Z</time>
</trkpt>
<trkpt lat="59.1008270" lon="30.0030500">
<ele>81.533997</ele>
<time>2026-04-25T09:45:50.000Z</time>
</trkpt>
<trkpt lat="59.1010980" lon="30.0031430">
<ele>86.288879</ele>
<time>2026-04-25T09:46:53.996Z</time>
</trkpt>
<trkpt lat="59.1012260" lon="30.0029620">
<ele>85.831680</ele>
<time>2026-04-25T09:47:16.002Z</time>
</trkpt>
<trkpt lat="59.1013130" lon="30.0029260">
<ele>87.386162</ele>
<time>2026-04-25T09:47:39.002Z</time>
</trkpt>
<trkpt lat="59.1013370" lon="30.0029700">
<ele>88.513916</ele>
<time>2026-04-25T09:48:06.002Z</time>
</trkpt>
<trkpt lat="59.1012510" lon="30.0030440">
<ele>89.275917</ele>
<time>2026-04-25T09:49:05.998Z</time>
</trkpt>
<trkpt lat="59.1012770" lon="30.0029940">
<ele>89.458801</ele>
<time>2026-04-25T09:49:30.000Z</time>
</trkpt>
<trkpt lat="59.1012800" lon="30.0030710">
<ele>88.026237</ele>
<time>2026-04-25T09:49:58.996Z</time>
</trkpt>
<trkpt lat="59.1013450" lon="30.0029610">
<ele>84.825836</ele>
<time>2026-04-25T09:52:35.000Z</time>
</trkpt>
<trkpt lat="59.1013630" lon="30.0030030">
<ele>86.502235</ele>
<time>2026-04-25T09:53:04.998Z</time>
</trkpt>
<trkpt lat="59.1013280" lon="30.0030050">
<ele>87.172798</ele>
<time>2026-04-25T09:53:34.996Z</time>
</trkpt>
<trkpt lat="59.1012650" lon="30.0032550">
<ele>87.172798</ele>
<time>2026-04-25T09:54:48.004Z</time>
</trkpt>
<trkpt lat="59.1010100" lon="30.0038080">
<ele>80.010002</ele>
<time>2026-04-25T09:55:46.998Z</time>
</trkpt>
<trkpt lat="59.1009930" lon="30.0036720">
<ele>78.912720</ele>
<time>2026-04-25T09:56:16.002Z</time>
</trkpt>
<trkpt lat="59.1009340" lon="30.0036500">
<ele>79.522316</ele>
<time>2026-04-25T09:56:29.999Z</time>
</trkpt>
<trkpt lat="59.1006740" lon="30.0038290">
<ele>80.467201</ele>
<time>2026-04-25T09:57:22.997Z</time>
</trkpt>
<trkpt lat="59.1006830" lon="30.0037520">
<ele>79.400398</ele>
<time>2026-04-25T09:57:50.999Z</time>
</trkpt>
<trkpt lat="59.1007790" lon="30.0037370">
<ele>77.876404</ele>
<time>2026-04-25T09:58:47.997Z</time>
</trkpt>
<trkpt lat="59.1007550" lon="30.0037430">
<ele>75.590401</ele>
<time>2026-04-25T09:59:17.002Z</time>
</trkpt>
<trkpt lat="59.1007230" lon="30.0034940">
<ele>75.803757</ele>
<time>2026-04-25T10:01:08.000Z</time>
</trkpt>
<trkpt lat="59.1006170" lon="30.0034210">
<ele>72.024239</ele>
<time>2026-04-25T10:03:09.996Z</time>
</trkpt>
<trkpt lat="59.1007770" lon="30.0033380">
<ele>74.218803</ele>
<time>2026-04-25T10:04:30.003Z</time>
</trkpt>
<trkpt lat="59.1008610" lon="30.0033730">
<ele>75.377045</ele>
<time>2026-04-25T10:04:57.996Z</time>
</trkpt>
<trkpt lat="59.1011170" lon="30.0032220">
<ele>73.548241</ele>
<time>2026-04-25T10:05:44.998Z</time>
</trkpt>
<trkpt lat="59.1013140" lon="30.0029840">
<ele>72.877686</ele>
<time>2026-04-25T10:06:25.001Z</time>
</trkpt>
<trkpt lat="59.1013260" lon="30.0029290">
<ele>74.188316</ele>
<time>2026-04-25T10:06:52.001Z</time>
</trkpt>
<trkpt lat="59.1012490" lon="30.0029110">
<ele>75.559921</ele>
<time>2026-04-25T10:07:23.002Z</time>
</trkpt>
<trkpt lat="59.1012500" lon="30.0028310">
<ele>77.327759</ele>
<time>2026-04-25T10:07:55.004Z</time>
</trkpt>
<trkpt lat="59.1014760" lon="30.0028460">
<ele>80.040482</ele>
<time>2026-04-25T10:10:10.004Z</time>
</trkpt>
<trkpt lat="59.1016110" lon="30.0027310">
<ele>80.345284</ele>
<time>2026-04-25T10:10:49.999Z</time>
</trkpt>
<trkpt lat="59.1015850" lon="30.0026930">
<ele>81.960716</ele>
<time>2026-04-25T10:11:12.998Z</time>
</trkpt>
<trkpt lat="59.1022090" lon="30.0026400">
<ele>70.164963</ele>
<time>2026-04-25T10:12:33.998Z</time>
</trkpt>
<trkpt lat="59.1023690" lon="30.0024870">
<ele>74.035919</ele>
<time>2026-04-25T10:13:22.002Z</time>
</trkpt>
<trkpt lat="59.1023400" lon="30.0024620">
<ele>76.260956</ele>
<time>2026-04-25T10:13:49.002Z</time>
</trkpt>
<trkpt lat="59.1023710" lon="30.0024270">
<ele>77.358238</ele>
<time>2026-04-25T10:14:17.998Z</time>
</trkpt>
<trkpt lat="59.1023060" lon="30.0020060">
<ele>77.205841</ele>
<time>2026-04-25T10:15:18.996Z</time>
</trkpt>
<trkpt lat="59.1022260" lon="30.0017740">
<ele>78.303116</ele>
<time>2026-04-25T10:16:01.004Z</time>
</trkpt>
<trkpt lat="59.1019540" lon="30.0016550">
<ele>84.338165</ele>
<time>2026-04-25T10:18:04.003Z</time>
</trkpt>
<trkpt lat="59.1018560" lon="30.0017390">
<ele>85.283035</ele>
<time>2026-04-25T10:18:41.000Z</time>
</trkpt>
<trkpt lat="59.1014200" lon="30.0018770">
<ele>81.991203</ele>
<time>2026-04-25T10:19:53.999Z</time>
</trkpt>
<trkpt lat="59.1013890" lon="30.0018800">
<ele>81.625435</ele>
<time>2026-04-25T10:20:10.000Z</time>
</trkpt>
<trkpt lat="59.1013780" lon="30.0017510">
<ele>84.002884</ele>
<time>2026-04-25T10:21:00.000Z</time>
</trkpt>
<trkpt lat="59.1012130" lon="30.0020550">
<ele>85.100166</ele>
<time>2026-04-25T10:22:03.003Z</time>
</trkpt>
<trkpt lat="59.1009630" lon="30.0022440">
<ele>82.478882</ele>
<time>2026-04-25T10:22:41.002Z</time>
</trkpt>
<trkpt lat="59.1008470" lon="30.0022140">
<ele>82.661766</ele>
<time>2026-04-25T10:23:00.001Z</time>
</trkpt>
<trkpt lat="59.1007750" lon="30.0022600">
<ele>83.393280</ele>
<time>2026-04-25T10:23:40.004Z</time>
</trkpt>
<trkpt lat="59.1005060" lon="30.0020890">
<ele>79.491837</ele>
<time>2026-04-25T10:25:28.998Z</time>
</trkpt>
<trkpt lat="59.1005400" lon="30.0020570">
<ele>78.729836</ele>
<time>2026-04-25T10:25:51.997Z</time>
</trkpt>
<trkpt lat="59.1001870" lon="30.0023800">
<ele>80.893921</ele>
<time>2026-04-25T10:27:12.997Z</time>
</trkpt>
<trkpt lat="59.0999500" lon="30.0025040">
<ele>81.076797</ele>
<time>2026-04-25T10:28:08.000Z</time>
</trkpt>
<trkpt lat="59.0998170" lon="30.0025180">
<ele>76.017120</ele>
<time>2026-04-25T10:29:15.003Z</time>
</trkpt>
<trkpt lat="59.0999060" lon="30.0023320">
<ele>79.126083</ele>
<time>2026-04-25T10:30:10.999Z</time>
</trkpt>
<trkpt lat="59.0998680" lon="30.0021660">
<ele>81.716881</ele>
<time>2026-04-25T10:30:32.996Z</time>
</trkpt>
<trkpt lat="59.0998930" lon="30.0021190">
<ele>81.351120</ele>
<time>2026-04-25T10:30:36.996Z</time>
</trkpt>
<trkpt lat="59.0998810" lon="30.0019950">
<ele>81.442566</ele>
<time>2026-04-25T10:30:47.002Z</time>
</trkpt>
<trkpt lat="59.0998150" lon="30.0018810">
<ele>80.436722</ele>
<time>2026-04-25T10:31:22.996Z</time>
</trkpt>
<trkpt lat="59.0997750" lon="30.0018880">
<ele>80.772003</ele>
<time>2026-04-25T10:31:53.003Z</time>
</trkpt>
<trkpt lat="59.0998390" lon="30.0018160">
<ele>77.967842</ele>
<time>2026-04-25T10:32:51.996Z</time>
</trkpt>
<trkpt lat="59.0997830" lon="30.0016590">
<ele>80.345284</ele>
<time>2026-04-25T10:33:10.002Z</time>
</trkpt>
<trkpt lat="59.0998350" lon="30.0016310">
<ele>85.374481</ele>
<time>2026-04-25T10:34:32.998Z</time>
</trkpt>
<trkpt lat="59.0998030" lon="30.0016390">
<ele>86.441284</ele>
<time>2026-04-25T10:35:03.998Z</time>
</trkpt>
<trkpt lat="59.0998290" lon="30.0016020">
<ele>88.483437</ele>
<time>2026-04-25T10:35:33.003Z</time>
</trkpt>
<trkpt lat="59.0998070" lon="30.0015580">
<ele>87.843361</ele>
<time>2026-04-25T10:36:35.004Z</time>
</trkpt>
<trkpt lat="59.0998550" lon="30.0016190">
<ele>87.050880</ele>
<time>2026-04-25T10:37:02.004Z</time>
</trkpt>
<trkpt lat="59.0998650" lon="30.0015810">
<ele>87.599518</ele>
<time>2026-04-25T10:37:33.004Z</time>
</trkpt>
<trkpt lat="59.0998700" lon="30.0016310">
<ele>86.746078</ele>
<time>2026-04-25T10:37:59.002Z</time>
</trkpt>
<trkpt lat="59.0997920" lon="30.0016810">
<ele>86.898483</ele>
<time>2026-04-25T10:38:27.997Z</time>
</trkpt>
<trkpt lat="59.0997950" lon="30.0015830">
<ele>86.807037</ele>
<time>2026-04-25T10:39:27.000Z</time>
</trkpt>
<trkpt lat="59.0998720" lon="30.0016130">
<ele>86.075516</ele>
<time>2026-04-25T10:39:55.996Z</time>
</trkpt>
<trkpt lat="59.0998800" lon="30.0015250">
<ele>87.142319</ele>
<time>2026-04-25T10:40:22.002Z</time>
</trkpt>
<trkpt lat="59.1001040" lon="30.0015230">
<ele>80.863434</ele>
<time>2026-04-25T10:41:17.998Z</time>
</trkpt>
<trkpt lat="59.1004310" lon="30.0013330">
<ele>71.506081</ele>
<time>2026-04-25T10:42:07.998Z</time>
</trkpt>
<trkpt lat="59.1007440" lon="30.0012560">
<ele>61.722000</ele>
<time>2026-04-25T10:42:49.997Z</time>
</trkpt>
<trkpt lat="59.1009230" lon="30.0012800">
<ele>69.890640</ele>
<time>2026-04-25T10:43:24.997Z</time>
</trkpt>
<trkpt lat="59.1009660" lon="30.0012350">
<ele>76.017120</ele>
<time>2026-04-25T10:44:10.997Z</time>
</trkpt>
<trkpt lat="59.1010530" lon="30.0009650">
<ele>72.268082</ele>
<time>2026-04-25T10:44:55.000Z</time>
</trkpt>
<trkpt lat="59.1011770" lon="30.0009330">
<ele>69.037201</ele>
<time>2026-04-25T10:45:15.002Z</time>
</trkpt>
<trkpt lat="59.1012560" lon="30.0010460">
<ele>66.476883</ele>
<time>2026-04-25T10:45:26.001Z</time>
</trkpt>
<trkpt lat="59.1013730" lon="30.0009840">
<ele>69.189598</ele>
<time>2026-04-25T10:45:42.002Z</time>
</trkpt>
<trkpt lat="59.1014620" lon="30.0008360">
<ele>68.976242</ele>
<time>2026-04-25T10:45:58.003Z</time>
</trkpt>
<trkpt lat="59.1019280" lon="30.0006750">
<ele>76.078079</ele>
<time>2026-04-25T10:47:08.998Z</time>
</trkpt>
<trkpt lat="59.1018660" lon="30.0006400">
<ele>75.285599</ele>
<time>2026-04-25T10:47:37.000Z</time>
</trkpt>
<trkpt lat="59.1019100" lon="30.0005830">
<ele>74.127357</ele>
<time>2026-04-25T10:48:36.003Z</time>
</trkpt>
<trkpt lat="59.1020810" lon="30.0008240">
<ele>76.687683</ele>
<time>2026-04-25T10:49:23.998Z</time>
</trkpt>
<trkpt lat="59.1021390" lon="30.0006980">
<ele>76.901039</ele>
<time>2026-04-25T10:49:39.999Z</time>
</trkpt>
<trkpt lat="59.1021720" lon="30.0004230">
<ele>73.365356</ele>
<time>2026-04-25T10:50:01.003Z</time>
</trkpt>
<trkpt lat="59.1022860" lon="30.0003050">
<ele>70.713600</ele>
<time>2026-04-25T10:50:36.997Z</time>
</trkpt>
<trkpt lat="59.1022010" lon="29.9998470">
<ele>72.115685</ele>
<time>2026-04-25T10:52:39.003Z</time>
</trkpt>
<trkpt lat="59.1020950" lon="29.9996590">
<ele>71.993759</ele>
<time>2026-04-25T10:53:10.997Z</time>
</trkpt>
<trkpt lat="59.1020950" lon="29.9995570">
<ele>72.633842</ele>
<time>2026-04-25T10:53:30.998Z</time>
</trkpt>
<trkpt lat="59.1022140" lon="29.9995260">
<ele>69.098160</ele>
<time>2026-04-25T10:54:08.004Z</time>
</trkpt>
<trkpt lat="59.1020040" lon="29.9995040">
<ele>71.475601</ele>
<time>2026-04-25T10:54:54.996Z</time>
</trkpt>
<trkpt lat="59.1019210" lon="29.9993390">
<ele>71.048882</ele>
<time>2026-04-25T10:55:24.001Z</time>
</trkpt>
<trkpt lat="59.1018560" lon="29.9993550">
<ele>70.957443</ele>
<time>2026-04-25T10:55:33.997Z</time>
</trkpt>
<trkpt lat="59.1018110" lon="29.9997520">
<ele>69.738243</ele>
<time>2026-04-25T10:56:11.003Z</time>
</trkpt>
<trkpt lat="59.1017360" lon="29.9998120">
<ele>69.707756</ele>
<time>2026-04-25T10:56:27.004Z</time>
</trkpt>
<trkpt lat="59.1014550" lon="29.9998500">
<ele>68.366638</ele>
<time>2026-04-25T10:57:14.999Z</time>
</trkpt>
<trkpt lat="59.1013510" lon="29.9997350">
<ele>66.050156</ele>
<time>2026-04-25T10:58:57.996Z</time>
</trkpt>
<trkpt lat="59.1012880" lon="29.9997640">
<ele>72.511917</ele>
<time>2026-04-25T10:59:13.004Z</time>
</trkpt>
<trkpt lat="59.1012850" lon="29.9998670">
<ele>70.469757</ele>
<time>2026-04-25T10:59:24.996Z</time>
</trkpt>
<trkpt lat="59.1011930" lon="29.9998260">
<ele>69.463921</ele>
<time>2026-04-25T10:59:54.001Z</time>
</trkpt>
<trkpt lat="59.1011360" lon="29.9998670">
<ele>71.719444</ele>
<time>2026-04-25T11:00:07.998Z</time>
</trkpt>
<trkpt lat="59.1010610" lon="30.0000600">
<ele>70.805038</ele>
<time>2026-04-25T11:00:26.004Z</time>
</trkpt>
<trkpt lat="59.1009480" lon="30.0002080">
<ele>68.519043</ele>
<time>2026-04-25T11:00:45.003Z</time>
</trkpt>
<trkpt lat="59.1008430" lon="30.0001770">
<ele>67.818001</ele>
<time>2026-04-25T11:01:04.002Z</time>
</trkpt>
<trkpt lat="59.1007190" lon="30.0002250">
<ele>68.122803</ele>
<time>2026-04-25T11:01:24.997Z</time>
</trkpt>
<trkpt lat="59.1006080" lon="30.0003580">
<ele>70.195442</ele>
<time>2026-04-25T11:02:02.996Z</time>
</trkpt>
<trkpt lat="59.1006120" lon="30.0002130">
<ele>71.506081</ele>
<time>2026-04-25T11:02:33.996Z</time>
</trkpt>
<trkpt lat="59.1002870" lon="30.0004190">
<ele>72.877686</ele>
<time>2026-04-25T11:03:27.996Z</time>
</trkpt>
<trkpt lat="59.1001490" lon="30.0004000">
<ele>69.768715</ele>
<time>2026-04-25T11:03:46.996Z</time>
</trkpt>
<trkpt lat="59.0999300" lon="30.0004760">
<ele>65.257683</ele>
<time>2026-04-25T11:04:35.000Z</time>
</trkpt>
<trkpt lat="59.0999270" lon="30.0004260">
<ele>68.183762</ele>
<time>2026-04-25T11:05:02.000Z</time>
</trkpt>
<trkpt lat="59.0998810" lon="30.0003870">
<ele>74.035919</ele>
<time>2026-04-25T11:05:58.998Z</time>
</trkpt>
<trkpt lat="59.0999650" lon="30.0000210">
<ele>72.024239</ele>
<time>2026-04-25T11:06:36.003Z</time>
</trkpt>
<trkpt lat="59.0998560" lon="29.9998870">
<ele>69.342003</ele>
<time>2026-04-25T11:07:12.999Z</time>
</trkpt>
<trkpt lat="59.0997540" lon="29.9994830">
<ele>65.928238</ele>
<time>2026-04-25T11:08:16.996Z</time>
</trkpt>
<trkpt lat="59.0998780" lon="29.9994310">
<ele>66.507362</ele>
<time>2026-04-25T11:10:00.002Z</time>
</trkpt>
<trkpt lat="59.0999580" lon="29.9995260">
<ele>65.775841</ele>
<time>2026-04-25T11:10:19.001Z</time>
</trkpt>
<trkpt lat="59.1001220" lon="29.9992790">
<ele>62.849758</ele>
<time>2026-04-25T11:10:55.004Z</time>
</trkpt>
<trkpt lat="59.1001840" lon="29.9994050">
<ele>62.179199</ele>
<time>2026-04-25T11:11:09.001Z</time>
</trkpt>
<trkpt lat="59.1002610" lon="29.9994510">
<ele>60.533283</ele>
<time>2026-04-25T11:11:24.000Z</time>
</trkpt>
<trkpt lat="59.1004430" lon="29.9992680">
<ele>59.496960</ele>
<time>2026-04-25T11:12:01.999Z</time>
</trkpt>
<trkpt lat="59.1006370" lon="29.9993040">
<ele>57.241440</ele>
<time>2026-04-25T11:12:42.002Z</time>
</trkpt>
<trkpt lat="59.1008950" lon="29.9991890">
<ele>62.301117</ele>
<time>2026-04-25T11:13:39.000Z</time>
</trkpt>
<trkpt lat="59.1011260" lon="29.9992480">
<ele>69.220085</ele>
<time>2026-04-25T11:14:54.997Z</time>
</trkpt>
<trkpt lat="59.1010980" lon="29.9992090">
<ele>67.452240</ele>
<time>2026-04-25T11:15:21.997Z</time>
</trkpt>
<trkpt lat="59.1011350" lon="29.9992810">
<ele>67.726563</ele>
<time>2026-04-25T11:15:55.002Z</time>
</trkpt>
<trkpt lat="59.1012110" lon="29.9991510">
<ele>69.098160</ele>
<time>2026-04-25T11:16:15.004Z</time>
</trkpt>
<trkpt lat="59.1012700" lon="29.9989360">
<ele>68.275200</ele>
<time>2026-04-25T11:16:34.003Z</time>
</trkpt>
<trkpt lat="59.1014780" lon="29.9989400">
<ele>61.386719</ele>
<time>2026-04-25T11:17:09.997Z</time>
</trkpt>
<trkpt lat="59.1018340" lon="29.9987560">
<ele>60.624718</ele>
<time>2026-04-25T11:18:13.000Z</time>
</trkpt>
<trkpt lat="59.1020830" lon="29.9987110">
<ele>59.100719</ele>
<time>2026-04-25T11:18:52.001Z</time>
</trkpt>
<trkpt lat="59.1022750" lon="29.9984810">
<ele>62.392559</ele>
<time>2026-04-25T11:19:46.001Z</time>
</trkpt>
<trkpt lat="59.1022910" lon="29.9985180">
<ele>62.910717</ele>
<time>2026-04-25T11:20:17.002Z</time>
</trkpt>
<trkpt lat="59.1022370" lon="29.9983680">
<ele>63.428883</ele>
<time>2026-04-25T11:20:49.004Z</time>
</trkpt>
<trkpt lat="59.1022140" lon="29.9982130">
<ele>64.312798</ele>
<time>2026-04-25T11:21:05.999Z</time>
</trkpt>
<trkpt lat="59.1022320" lon="29.9980310">
<ele>62.575439</ele>
<time>2026-04-25T11:21:23.003Z</time>
</trkpt>
<trkpt lat="59.1021720" lon="29.9978930">
<ele>60.380882</ele>
<time>2026-04-25T11:21:39.004Z</time>
</trkpt>
<trkpt lat="59.1021930" lon="29.9979140">
<ele>57.729118</ele>
<time>2026-04-25T11:22:06.004Z</time>
</trkpt>
<trkpt lat="59.1020050" lon="29.9979800">
<ele>61.020958</ele>
<time>2026-04-25T11:22:40.996Z</time>
</trkpt>
<trkpt lat="59.1018680" lon="29.9981410">
<ele>58.430161</ele>
<time>2026-04-25T11:23:11.003Z</time>
</trkpt>
<trkpt lat="59.1016210" lon="29.9981820">
<ele>59.496960</ele>
<time>2026-04-25T11:24:17.004Z</time>
</trkpt>
<trkpt lat="59.1015150" lon="29.9981310">
<ele>58.033916</ele>
<time>2026-04-25T11:24:37.999Z</time>
</trkpt>
<trkpt lat="59.1011030" lon="29.9982150">
<ele>57.881519</ele>
<time>2026-04-25T11:25:34.003Z</time>
</trkpt>
<trkpt lat="59.1009660" lon="29.9983050">
<ele>61.782959</ele>
<time>2026-04-25T11:26:17.998Z</time>
</trkpt>
<trkpt lat="59.1009630" lon="29.9982110">
<ele>66.629280</ele>
<time>2026-04-25T11:26:46.000Z</time>
</trkpt>
<trkpt lat="59.1010330" lon="29.9978020">
<ele>71.810883</ele>
<time>2026-04-25T11:28:01.998Z</time>
</trkpt>
<trkpt lat="59.1009960" lon="29.9976130">
<ele>71.445122</ele>
<time>2026-04-25T11:28:55.004Z</time>
</trkpt>
<trkpt lat="59.1006120" lon="29.9971640">
<ele>63.672718</ele>
<time>2026-04-25T11:30:19.996Z</time>
</trkpt>
<trkpt lat="59.1006060" lon="29.9970830">
<ele>65.379601</ele>
<time>2026-04-25T11:30:50.003Z</time>
</trkpt>
<trkpt lat="59.1005880" lon="29.9971060">
<ele>65.989197</ele>
<time>2026-04-25T11:31:13.996Z</time>
</trkpt>
<trkpt lat="59.1006680" lon="29.9970890">
<ele>68.701920</ele>
<time>2026-04-25T11:31:40.002Z</time>
</trkpt>
<trkpt lat="59.1006420" lon="29.9970390">
<ele>67.086479</ele>
<time>2026-04-25T11:32:15.003Z</time>
</trkpt>
<trkpt lat="59.1006500" lon="29.9969340">
<ele>67.056000</ele>
<time>2026-04-25T11:32:45.001Z</time>
</trkpt>
<trkpt lat="59.1007840" lon="29.9969470">
<ele>65.684402</ele>
<time>2026-04-25T11:33:02.998Z</time>
</trkpt>
<trkpt lat="59.1008250" lon="29.9967730">
<ele>64.587120</ele>
<time>2026-04-25T11:33:24.002Z</time>
</trkpt>
<trkpt lat="59.1007590" lon="29.9961730">
<ele>65.471039</ele>
<time>2026-04-25T11:34:30.003Z</time>
</trkpt>
<trkpt lat="59.1007750" lon="29.9959440">
<ele>64.830956</ele>
<time>2026-04-25T11:34:50.998Z</time>
</trkpt>
<trkpt lat="59.1007360" lon="29.9957110">
<ele>63.642242</ele>
<time>2026-04-25T11:35:17.998Z</time>
</trkpt>
<trkpt lat="59.1007710" lon="29.9954020">
<ele>62.026798</ele>
<time>2026-04-25T11:35:40.998Z</time>
</trkpt>
<trkpt lat="59.1006750" lon="29.9949200">
<ele>62.301117</ele>
<time>2026-04-25T11:36:23.999Z</time>
</trkpt>
<trkpt lat="59.1006360" lon="29.9942600">
<ele>60.563759</ele>
<time>2026-04-25T11:37:07.000Z</time>
</trkpt>
<trkpt lat="59.1007550" lon="29.9939480">
<ele>56.327042</ele>
<time>2026-04-25T11:37:26.000Z</time>
</trkpt>
<trkpt lat="59.1008370" lon="29.9939060">
<ele>56.022240</ele>
<time>2026-04-25T11:37:47.997Z</time>
</trkpt>
<trkpt lat="59.1006200" lon="29.9940510">
<ele>54.772560</ele>
<time>2026-04-25T11:38:25.002Z</time>
</trkpt>
<trkpt lat="59.1005540" lon="29.9937840">
<ele>54.742081</ele>
<time>2026-04-25T11:38:53.998Z</time>
</trkpt>
<trkpt lat="59.1005060" lon="29.9933640">
<ele>54.254398</ele>
<time>2026-04-25T11:39:23.996Z</time>
</trkpt>
<trkpt lat="59.1004140" lon="29.9931700">
<ele>55.199284</ele>
<time>2026-04-25T11:39:36.999Z</time>
</trkpt>
<trkpt lat="59.1003230" lon="29.9927100">
<ele>58.521599</ele>
<time>2026-04-25T11:40:16.000Z</time>
</trkpt>
<trkpt lat="59.1002500" lon="29.9921060">
<ele>59.466480</ele>
<time>2026-04-25T11:40:52.997Z</time>
</trkpt>
<trkpt lat="59.1002280" lon="29.9915650">
<ele>59.588402</ele>
<time>2026-04-25T11:41:31.998Z</time>
</trkpt>
<trkpt lat="59.1001790" lon="29.9913860">
<ele>60.106560</ele>
<time>2026-04-25T11:41:50.997Z</time>
</trkpt>
<trkpt lat="59.1001990" lon="29.9913700">
<ele>59.649361</ele>
<time>2026-04-25T11:42:18.999Z</time>
</trkpt>
<trkpt lat="59.1001620" lon="29.9909910">
<ele>59.070240</ele>
<time>2026-04-25T11:43:10.001Z</time>
</trkpt>
<trkpt lat="59.1000440" lon="29.9908040">
<ele>57.485283</ele>
<time>2026-04-25T11:43:45.002Z</time>
</trkpt>
<trkpt lat="59.1000170" lon="29.9902950">
<ele>54.345840</ele>
<time>2026-04-25T11:44:36.997Z</time>
</trkpt>
<trkpt lat="59.0999320" lon="29.9901350">
<ele>53.218082</ele>
<time>2026-04-25T11:44:58.001Z</time>
</trkpt>
<trkpt lat="59.0999900" lon="29.9889150">
<ele>48.859440</ele>
<time>2026-04-25T11:46:30.000Z</time>
</trkpt>
<trkpt lat="59.0999050" lon="29.9883200">
<ele>45.232319</ele>
<time>2026-04-25T11:47:01.000Z</time>
</trkpt>
<trkpt lat="59.0998810" lon="29.9879160">
<ele>42.123360</ele>
<time>2026-04-25T11:47:22.004Z</time>
</trkpt>
<trkpt lat="59.0997600" lon="29.9870560">
<ele>41.026081</ele>
<time>2026-04-25T11:48:15.002Z</time>
</trkpt>
<trkpt lat="59.0996360" lon="29.9864340">
<ele>45.201839</ele>
<time>2026-04-25T11:48:39.004Z</time>
</trkpt>
<trkpt lat="59.0993970" lon="29.9844840">
<ele>44.775120</ele>
<time>2026-04-25T11:50:31.004Z</time>
</trkpt>
<trkpt lat="59.0992640" lon="29.9838960">
<ele>45.445683</ele>
<time>2026-04-25T11:51:06.998Z</time>
</trkpt>
<trkpt lat="59.0991090" lon="29.9824750">
<ele>46.451519</ele>
<time>2026-04-25T11:52:37.001Z</time>
</trkpt>
</trkseg>
</trk>
<trk>
 <name>20260425_Lisa91</name>
 <desc>20260425_Lisa91</desc>
<trkseg>
<trkpt lat="59.1002680" lon="30.0328690">
<ele>61.142883</ele>
<time>2026-04-25T08:27:34.998Z</time>
</trkpt>
<trkpt lat="59.1002540" lon="30.0329530">
<ele>63.794640</ele>
<time>2026-04-25T08:28:12.996Z</time>
</trkpt>
<trkpt lat="59.1003050" lon="30.0330100">
<ele>64.617599</ele>
<time>2026-04-25T08:28:27.002Z</time>
</trkpt>
<trkpt lat="59.1002920" lon="30.0331080">
<ele>66.172081</ele>
<time>2026-04-25T08:28:54.002Z</time>
</trkpt>
<trkpt lat="59.1003840" lon="30.0335010">
<ele>66.720718</ele>
<time>2026-04-25T08:29:45.004Z</time>
</trkpt>
<trkpt lat="59.1003810" lon="30.0336390">
<ele>68.031357</ele>
<time>2026-04-25T08:30:08.997Z</time>
</trkpt>
<trkpt lat="59.1003330" lon="30.0334400">
<ele>68.397118</ele>
<time>2026-04-25T08:31:10.998Z</time>
</trkpt>
<trkpt lat="59.1003660" lon="30.0334710">
<ele>71.536560</ele>
<time>2026-04-25T08:32:41.001Z</time>
</trkpt>
<trkpt lat="59.1004380" lon="30.0337820">
<ele>72.725281</ele>
<time>2026-04-25T08:33:59.996Z</time>
</trkpt>
<trkpt lat="59.1005620" lon="30.0345030">
<ele>72.359520</ele>
<time>2026-04-25T08:35:15.000Z</time>
</trkpt>
<trkpt lat="59.1005740" lon="30.0347360">
<ele>71.780403</ele>
<time>2026-04-25T08:35:36.997Z</time>
</trkpt>
<trkpt lat="59.1006460" lon="30.0349810">
<ele>71.079361</ele>
<time>2026-04-25T08:36:11.998Z</time>
</trkpt>
<trkpt lat="59.1006380" lon="30.0348410">
<ele>70.012558</ele>
<time>2026-04-25T08:37:16.997Z</time>
</trkpt>
<trkpt lat="59.1006900" lon="30.0350740">
<ele>70.134483</ele>
<time>2026-04-25T08:37:39.003Z</time>
</trkpt>
<trkpt lat="59.1006930" lon="30.0353080">
<ele>70.713600</ele>
<time>2026-04-25T08:38:01.000Z</time>
</trkpt>
<trkpt lat="59.1007960" lon="30.0356730">
<ele>72.085197</ele>
<time>2026-04-25T08:39:07.001Z</time>
</trkpt>
<trkpt lat="59.1009520" lon="30.0368690">
<ele>71.719444</ele>
<time>2026-04-25T08:41:42.003Z</time>
</trkpt>
<trkpt lat="59.1009040" lon="30.0368630">
<ele>72.725281</ele>
<time>2026-04-25T08:42:12.001Z</time>
</trkpt>
<trkpt lat="59.1009370" lon="30.0368140">
<ele>74.371201</ele>
<time>2026-04-25T08:43:04.999Z</time>
</trkpt>
<trkpt lat="59.1008290" lon="30.0367140">
<ele>74.340721</ele>
<time>2026-04-25T08:43:22.002Z</time>
</trkpt>
<trkpt lat="59.1008140" lon="30.0368080">
<ele>73.670158</ele>
<time>2026-04-25T08:43:41.002Z</time>
</trkpt>
<trkpt lat="59.1007150" lon="30.0367550">
<ele>72.786240</ele>
<time>2026-04-25T08:44:33.999Z</time>
</trkpt>
<trkpt lat="59.1007990" lon="30.0365060">
<ele>70.378319</ele>
<time>2026-04-25T08:45:14.003Z</time>
</trkpt>
<trkpt lat="59.1006960" lon="30.0360860">
<ele>68.488556</ele>
<time>2026-04-25T08:46:12.003Z</time>
</trkpt>
<trkpt lat="59.1006940" lon="30.0358170">
<ele>69.006721</ele>
<time>2026-04-25T08:46:54.002Z</time>
</trkpt>
<trkpt lat="59.1005660" lon="30.0351680">
<ele>66.233040</ele>
<time>2026-04-25T08:48:09.999Z</time>
</trkpt>
<trkpt lat="59.1005570" lon="30.0350030">
<ele>70.500244</ele>
<time>2026-04-25T08:49:53.999Z</time>
</trkpt>
<trkpt lat="59.1005840" lon="30.0350640">
<ele>71.353683</ele>
<time>2026-04-25T08:50:49.001Z</time>
</trkpt>
<trkpt lat="59.1005520" lon="30.0350820">
<ele>70.347839</ele>
<time>2026-04-25T08:51:09.996Z</time>
</trkpt>
<trkpt lat="59.1005490" lon="30.0348130">
<ele>71.262238</ele>
<time>2026-04-25T08:51:50.000Z</time>
</trkpt>
<trkpt lat="59.1005100" lon="30.0346500">
<ele>70.957443</ele>
<time>2026-04-25T08:52:11.004Z</time>
</trkpt>
<trkpt lat="59.1002670" lon="30.0341170">
<ele>70.256401</ele>
<time>2026-04-25T08:53:29.999Z</time>
</trkpt>
<trkpt lat="59.1002210" lon="30.0337900">
<ele>70.622162</ele>
<time>2026-04-25T08:54:30.004Z</time>
</trkpt>
<trkpt lat="59.1001160" lon="30.0336850">
<ele>70.865997</ele>
<time>2026-04-25T08:55:04.996Z</time>
</trkpt>
<trkpt lat="59.1000470" lon="30.0334930">
<ele>70.530716</ele>
<time>2026-04-25T08:55:38.001Z</time>
</trkpt>
<trkpt lat="59.0999730" lon="30.0334470">
<ele>70.805038</ele>
<time>2026-04-25T08:56:05.001Z</time>
</trkpt>
<trkpt lat="59.0999430" lon="30.0333410">
<ele>70.195442</ele>
<time>2026-04-25T08:56:25.002Z</time>
</trkpt>
<trkpt lat="59.0999920" lon="30.0331970">
<ele>70.012558</ele>
<time>2026-04-25T08:57:05.999Z</time>
</trkpt>
<trkpt lat="59.0999690" lon="30.0332080">
<ele>69.159119</ele>
<time>2026-04-25T08:57:34.001Z</time>
</trkpt>
<trkpt lat="59.0999920" lon="30.0331660">
<ele>69.037201</ele>
<time>2026-04-25T08:58:02.004Z</time>
</trkpt>
<trkpt lat="59.0999080" lon="30.0330410">
<ele>68.397118</ele>
<time>2026-04-25T08:58:21.003Z</time>
</trkpt>
<trkpt lat="59.0999360" lon="30.0329430">
<ele>71.018402</ele>
<time>2026-04-25T08:58:48.003Z</time>
</trkpt>
<trkpt lat="59.0999350" lon="30.0329990">
<ele>71.109840</ele>
<time>2026-04-25T08:59:11.003Z</time>
</trkpt>
<trkpt lat="59.1000060" lon="30.0330870">
<ele>70.683121</ele>
<time>2026-04-25T08:59:39.998Z</time>
</trkpt>
<trkpt lat="59.1000110" lon="30.0330490">
<ele>70.561203</ele>
<time>2026-04-25T09:00:10.999Z</time>
</trkpt>
<trkpt lat="59.0999110" lon="30.0332030">
<ele>70.865997</ele>
<time>2026-04-25T09:01:03.996Z</time>
</trkpt>
<trkpt lat="59.0999310" lon="30.0332240">
<ele>73.395844</ele>
<time>2026-04-25T09:02:08.002Z</time>
</trkpt>
<trkpt lat="59.1000310" lon="30.0330920">
<ele>75.559921</ele>
<time>2026-04-25T09:03:40.000Z</time>
</trkpt>
<trkpt lat="59.0999420" lon="30.0331610">
<ele>70.347839</ele>
<time>2026-04-25T09:04:34.000Z</time>
</trkpt>
<trkpt lat="59.0999470" lon="30.0330700">
<ele>69.281044</ele>
<time>2026-04-25T09:04:46.001Z</time>
</trkpt>
<trkpt lat="59.0998630" lon="30.0332320">
<ele>68.640961</ele>
<time>2026-04-25T09:05:51.000Z</time>
</trkpt>
<trkpt lat="59.0999330" lon="30.0332260">
<ele>71.231758</ele>
<time>2026-04-25T09:06:16.004Z</time>
</trkpt>
<trkpt lat="59.0998890" lon="30.0331460">
<ele>72.755760</ele>
<time>2026-04-25T09:07:29.004Z</time>
</trkpt>
<trkpt lat="59.0998950" lon="30.0333560">
<ele>70.347839</ele>
<time>2026-04-25T09:08:23.997Z</time>
</trkpt>
<trkpt lat="59.0999500" lon="30.0336140">
<ele>71.140320</ele>
<time>2026-04-25T09:09:10.999Z</time>
</trkpt>
<trkpt lat="59.1001060" lon="30.0337390">
<ele>73.121521</ele>
<time>2026-04-25T09:10:18.002Z</time>
</trkpt>
<trkpt lat="59.1001670" lon="30.0339370">
<ele>73.761597</ele>
<time>2026-04-25T09:10:48.000Z</time>
</trkpt>
<trkpt lat="59.1002390" lon="30.0338800">
<ele>74.797920</ele>
<time>2026-04-25T09:11:15.000Z</time>
</trkpt>
<trkpt lat="59.1002620" lon="30.0339840">
<ele>75.163681</ele>
<time>2026-04-25T09:12:15.998Z</time>
</trkpt>
<trkpt lat="59.1003130" lon="30.0338990">
<ele>76.565758</ele>
<time>2026-04-25T09:12:57.004Z</time>
</trkpt>
<trkpt lat="59.1003010" lon="30.0341950">
<ele>75.346558</ele>
<time>2026-04-25T09:14:02.996Z</time>
</trkpt>
<trkpt lat="59.1003970" lon="30.0346870">
<ele>76.535278</ele>
<time>2026-04-25T09:15:22.000Z</time>
</trkpt>
<trkpt lat="59.1003990" lon="30.0349670">
<ele>77.480156</ele>
<time>2026-04-25T09:16:14.998Z</time>
</trkpt>
<trkpt lat="59.1004790" lon="30.0350500">
<ele>77.663040</ele>
<time>2026-04-25T09:16:51.001Z</time>
</trkpt>
<trkpt lat="59.1004650" lon="30.0353840">
<ele>76.352402</ele>
<time>2026-04-25T09:17:53.002Z</time>
</trkpt>
<trkpt lat="59.1005190" lon="30.0355020">
<ele>75.133202</ele>
<time>2026-04-25T09:18:17.997Z</time>
</trkpt>
<trkpt lat="59.1005750" lon="30.0358170">
<ele>76.565758</ele>
<time>2026-04-25T09:19:34.997Z</time>
</trkpt>
<trkpt lat="59.1005810" lon="30.0361750">
<ele>76.565758</ele>
<time>2026-04-25T09:20:48.998Z</time>
</trkpt>
<trkpt lat="59.1006720" lon="30.0362260">
<ele>74.218803</ele>
<time>2026-04-25T09:21:34.004Z</time>
</trkpt>
<trkpt lat="59.1006710" lon="30.0363300">
<ele>74.462639</ele>
<time>2026-04-25T09:21:56.002Z</time>
</trkpt>
<trkpt lat="59.1007740" lon="30.0366710">
<ele>74.310242</ele>
<time>2026-04-25T09:22:39.996Z</time>
</trkpt>
<trkpt lat="59.1007930" lon="30.0368830">
<ele>73.822556</ele>
<time>2026-04-25T09:23:01.000Z</time>
</trkpt>
<trkpt lat="59.1007390" lon="30.0368800">
<ele>73.761597</ele>
<time>2026-04-25T09:23:22.998Z</time>
</trkpt>
<trkpt lat="59.1007170" lon="30.0369450">
<ele>72.664322</ele>
<time>2026-04-25T09:23:48.002Z</time>
</trkpt>
<trkpt lat="59.1006840" lon="30.0369460">
<ele>74.279762</ele>
<time>2026-04-25T09:24:18.000Z</time>
</trkpt>
<trkpt lat="59.1007530" lon="30.0367570">
<ele>75.255119</ele>
<time>2026-04-25T09:25:44.996Z</time>
</trkpt>
<trkpt lat="59.1007450" lon="30.0369050">
<ele>74.889359</ele>
<time>2026-04-25T09:26:39.998Z</time>
</trkpt>
<trkpt lat="59.1007980" lon="30.0368750">
<ele>73.548241</ele>
<time>2026-04-25T09:27:13.003Z</time>
</trkpt>
<trkpt lat="59.1006570" lon="30.0367390">
<ele>73.670158</ele>
<time>2026-04-25T09:28:57.003Z</time>
</trkpt>
<trkpt lat="59.1006150" lon="30.0364860">
<ele>72.999603</ele>
<time>2026-04-25T09:29:40.998Z</time>
</trkpt>
<trkpt lat="59.1005380" lon="30.0363040">
<ele>72.603355</ele>
<time>2026-04-25T09:30:10.002Z</time>
</trkpt>
<trkpt lat="59.1004210" lon="30.0358180">
<ele>71.445122</ele>
<time>2026-04-25T09:31:12.003Z</time>
</trkpt>
<trkpt lat="59.1002500" lon="30.0356300">
<ele>69.006721</ele>
<time>2026-04-25T09:32:51.000Z</time>
</trkpt>
<trkpt lat="59.1002660" lon="30.0355230">
<ele>68.031357</ele>
<time>2026-04-25T09:33:16.998Z</time>
</trkpt>
<trkpt lat="59.1001880" lon="30.0355150">
<ele>67.177917</ele>
<time>2026-04-25T09:33:39.004Z</time>
</trkpt>
<trkpt lat="59.1001920" lon="30.0355840">
<ele>67.269356</ele>
<time>2026-04-25T09:34:03.999Z</time>
</trkpt>
<trkpt lat="59.1001490" lon="30.0355310">
<ele>68.122803</ele>
<time>2026-04-25T09:34:26.999Z</time>
</trkpt>
<trkpt lat="59.1001500" lon="30.0353150">
<ele>73.212959</ele>
<time>2026-04-25T09:35:11.996Z</time>
</trkpt>
<trkpt lat="59.0999690" lon="30.0351600">
<ele>75.224640</ele>
<time>2026-04-25T09:35:53.002Z</time>
</trkpt>
<trkpt lat="59.1000130" lon="30.0350000">
<ele>75.407516</ele>
<time>2026-04-25T09:36:13.003Z</time>
</trkpt>
<trkpt lat="59.1001410" lon="30.0347970">
<ele>75.316078</ele>
<time>2026-04-25T09:36:59.003Z</time>
</trkpt>
<trkpt lat="59.1001460" lon="30.0347220">
<ele>76.139038</ele>
<time>2026-04-25T09:37:25.000Z</time>
</trkpt>
<trkpt lat="59.0999610" lon="30.0345460">
<ele>77.266800</ele>
<time>2026-04-25T09:38:12.002Z</time>
</trkpt>
<trkpt lat="59.0999600" lon="30.0343940">
<ele>76.291443</ele>
<time>2026-04-25T09:38:33.999Z</time>
</trkpt>
<trkpt lat="59.0999940" lon="30.0342850">
<ele>77.114403</ele>
<time>2026-04-25T09:38:54.001Z</time>
</trkpt>
<trkpt lat="59.0998520" lon="30.0342840">
<ele>77.297279</ele>
<time>2026-04-25T09:39:29.002Z</time>
</trkpt>
<trkpt lat="59.0998620" lon="30.0338300">
<ele>76.626717</ele>
<time>2026-04-25T09:40:31.996Z</time>
</trkpt>
<trkpt lat="59.0998970" lon="30.0337860">
<ele>76.443840</ele>
<time>2026-04-25T09:41:14.997Z</time>
</trkpt>
<trkpt lat="59.0997910" lon="30.0336070">
<ele>76.687683</ele>
<time>2026-04-25T09:41:48.002Z</time>
</trkpt>
<trkpt lat="59.0998440" lon="30.0331580">
<ele>79.522316</ele>
<time>2026-04-25T09:42:49.000Z</time>
</trkpt>
<trkpt lat="59.0998300" lon="30.0330830">
<ele>79.583282</ele>
<time>2026-04-25T09:43:06.997Z</time>
</trkpt>
<trkpt lat="59.0998190" lon="30.0331770">
<ele>79.949036</ele>
<time>2026-04-25T09:44:03.002Z</time>
</trkpt>
<trkpt lat="59.0997810" lon="30.0330360">
<ele>79.674721</ele>
<time>2026-04-25T09:45:05.003Z</time>
</trkpt>
<trkpt lat="59.0998460" lon="30.0329460">
<ele>80.070961</ele>
<time>2026-04-25T09:46:38.004Z</time>
</trkpt>
<trkpt lat="59.0998060" lon="30.0329620">
<ele>79.766167</ele>
<time>2026-04-25T09:47:08.002Z</time>
</trkpt>
<trkpt lat="59.0998510" lon="30.0330290">
<ele>78.486000</ele>
<time>2026-04-25T09:47:39.002Z</time>
</trkpt>
<trkpt lat="59.0998190" lon="30.0330190">
<ele>78.699364</ele>
<time>2026-04-25T09:48:06.002Z</time>
</trkpt>
<trkpt lat="59.0997850" lon="30.0332770">
<ele>79.034637</ele>
<time>2026-04-25T09:49:03.000Z</time>
</trkpt>
<trkpt lat="59.0998080" lon="30.0332050">
<ele>80.985367</ele>
<time>2026-04-25T09:50:56.003Z</time>
</trkpt>
<trkpt lat="59.0998410" lon="30.0332990">
<ele>79.827118</ele>
<time>2026-04-25T09:51:23.003Z</time>
</trkpt>
<trkpt lat="59.0998240" lon="30.0336740">
<ele>80.558640</ele>
<time>2026-04-25T09:52:41.998Z</time>
</trkpt>
<trkpt lat="59.0997350" lon="30.0338420">
<ele>80.436722</ele>
<time>2026-04-25T09:53:16.999Z</time>
</trkpt>
<trkpt lat="59.0997320" lon="30.0339830">
<ele>80.070961</ele>
<time>2026-04-25T09:53:43.999Z</time>
</trkpt>
<trkpt lat="59.0996680" lon="30.0343290">
<ele>79.308960</ele>
<time>2026-04-25T09:54:28.996Z</time>
</trkpt>
<trkpt lat="59.0996810" lon="30.0344930">
<ele>79.522316</ele>
<time>2026-04-25T09:54:52.998Z</time>
</trkpt>
<trkpt lat="59.0995170" lon="30.0349590">
<ele>76.809601</ele>
<time>2026-04-25T09:56:20.003Z</time>
</trkpt>
<trkpt lat="59.0995370" lon="30.0350370">
<ele>76.474319</ele>
<time>2026-04-25T09:56:43.996Z</time>
</trkpt>
<trkpt lat="59.0994760" lon="30.0351730">
<ele>76.961998</ele>
<time>2026-04-25T09:57:02.002Z</time>
</trkpt>
<trkpt lat="59.0995560" lon="30.0354560">
<ele>76.809601</ele>
<time>2026-04-25T09:58:05.998Z</time>
</trkpt>
<trkpt lat="59.0995460" lon="30.0358240">
<ele>76.291443</ele>
<time>2026-04-25T09:58:51.997Z</time>
</trkpt>
<trkpt lat="59.0995780" lon="30.0359460">
<ele>76.504799</ele>
<time>2026-04-25T09:59:11.999Z</time>
</trkpt>
<trkpt lat="59.0996830" lon="30.0357980">
<ele>76.169518</ele>
<time>2026-04-25T09:59:48.002Z</time>
</trkpt>
<trkpt lat="59.0995370" lon="30.0358740">
<ele>75.742798</ele>
<time>2026-04-25T10:00:32.999Z</time>
</trkpt>
<trkpt lat="59.0996070" lon="30.0361280">
<ele>74.279762</ele>
<time>2026-04-25T10:01:20.001Z</time>
</trkpt>
<trkpt lat="59.0996940" lon="30.0362280">
<ele>74.401680</ele>
<time>2026-04-25T10:01:37.998Z</time>
</trkpt>
<trkpt lat="59.0997430" lon="30.0362040">
<ele>77.388718</ele>
<time>2026-04-25T10:01:57.999Z</time>
</trkpt>
<trkpt lat="59.0998030" lon="30.0360140">
<ele>77.541115</ele>
<time>2026-04-25T10:02:34.996Z</time>
</trkpt>
<trkpt lat="59.0997480" lon="30.0362140">
<ele>77.449684</ele>
<time>2026-04-25T10:02:54.997Z</time>
</trkpt>
<trkpt lat="59.0997170" lon="30.0364910">
<ele>77.266800</ele>
<time>2026-04-25T10:03:32.996Z</time>
</trkpt>
<trkpt lat="59.0998120" lon="30.0364540">
<ele>76.718163</ele>
<time>2026-04-25T10:03:51.002Z</time>
</trkpt>
<trkpt lat="59.0998240" lon="30.0362850">
<ele>76.565758</ele>
<time>2026-04-25T10:04:10.001Z</time>
</trkpt>
<trkpt lat="59.0997470" lon="30.0364610">
<ele>76.352402</ele>
<time>2026-04-25T10:04:30.996Z</time>
</trkpt>
<trkpt lat="59.0996910" lon="30.0365000">
<ele>77.205841</ele>
<time>2026-04-25T10:04:53.003Z</time>
</trkpt>
<trkpt lat="59.0996200" lon="30.0367610">
<ele>76.626717</ele>
<time>2026-04-25T10:05:40.998Z</time>
</trkpt>
<trkpt lat="59.0994510" lon="30.0371460">
<ele>76.931519</ele>
<time>2026-04-25T10:06:34.998Z</time>
</trkpt>
<trkpt lat="59.0995450" lon="30.0373300">
<ele>77.937363</ele>
<time>2026-04-25T10:07:16.003Z</time>
</trkpt>
<trkpt lat="59.0996040" lon="30.0375290">
<ele>80.619598</ele>
<time>2026-04-25T10:08:02.003Z</time>
</trkpt>
<trkpt lat="59.0995740" lon="30.0373740">
<ele>81.869286</ele>
<time>2026-04-25T10:08:26.998Z</time>
</trkpt>
<trkpt lat="59.0996220" lon="30.0373920">
<ele>83.332321</ele>
<time>2026-04-25T10:08:53.998Z</time>
</trkpt>
<trkpt lat="59.0997220" lon="30.0373120">
<ele>82.692238</ele>
<time>2026-04-25T10:09:19.002Z</time>
</trkpt>
<trkpt lat="59.0998250" lon="30.0373250">
<ele>82.143600</ele>
<time>2026-04-25T10:09:38.002Z</time>
</trkpt>
<trkpt lat="59.0999330" lon="30.0374380">
<ele>80.589119</ele>
<time>2026-04-25T10:10:33.997Z</time>
</trkpt>
<trkpt lat="59.0999260" lon="30.0373050">
<ele>80.314796</ele>
<time>2026-04-25T10:10:52.003Z</time>
</trkpt>
<trkpt lat="59.0999710" lon="30.0371880">
<ele>84.307678</ele>
<time>2026-04-25T10:12:05.003Z</time>
</trkpt>
<trkpt lat="59.0999990" lon="30.0373050">
<ele>83.179916</ele>
<time>2026-04-25T10:12:58.000Z</time>
</trkpt>
<trkpt lat="59.0999460" lon="30.0371530">
<ele>85.069679</ele>
<time>2026-04-25T10:15:19.999Z</time>
</trkpt>
<trkpt lat="59.0999960" lon="30.0371790">
<ele>84.521034</ele>
<time>2026-04-25T10:16:00.002Z</time>
</trkpt>
<trkpt lat="59.0998940" lon="30.0371070">
<ele>83.301834</ele>
<time>2026-04-25T10:16:58.996Z</time>
</trkpt>
<trkpt lat="59.0999110" lon="30.0370800">
<ele>83.027519</ele>
<time>2026-04-25T10:17:33.003Z</time>
</trkpt>
<trkpt lat="59.0999090" lon="30.0371780">
<ele>82.661766</ele>
<time>2026-04-25T10:19:10.998Z</time>
</trkpt>
<trkpt lat="59.0999440" lon="30.0371520">
<ele>87.416634</ele>
<time>2026-04-25T10:19:47.001Z</time>
</trkpt>
<trkpt lat="59.0999980" lon="30.0372670">
<ele>91.653366</ele>
<time>2026-04-25T10:20:18.001Z</time>
</trkpt>
<trkpt lat="59.0999310" lon="30.0372100">
<ele>88.849197</ele>
<time>2026-04-25T10:20:56.000Z</time>
</trkpt>
<trkpt lat="59.1001330" lon="30.0370660">
<ele>87.995766</ele>
<time>2026-04-25T10:22:56.001Z</time>
</trkpt>
<trkpt lat="59.1001550" lon="30.0369980">
<ele>87.325203</ele>
<time>2026-04-25T10:23:20.003Z</time>
</trkpt>
<trkpt lat="59.1000780" lon="30.0362170">
<ele>85.344002</ele>
<time>2026-04-25T10:25:30.000Z</time>
</trkpt>
<trkpt lat="59.1001060" lon="30.0361350">
<ele>84.033363</ele>
<time>2026-04-25T10:25:53.000Z</time>
</trkpt>
<trkpt lat="59.1000390" lon="30.0359340">
<ele>84.947762</ele>
<time>2026-04-25T10:26:49.004Z</time>
</trkpt>
<trkpt lat="59.1001050" lon="30.0359070">
<ele>85.770721</ele>
<time>2026-04-25T10:27:32.999Z</time>
</trkpt>
<trkpt lat="59.1002160" lon="30.0360360">
<ele>84.063835</ele>
<time>2026-04-25T10:28:09.002Z</time>
</trkpt>
<trkpt lat="59.1003470" lon="30.0358270">
<ele>79.857597</ele>
<time>2026-04-25T10:28:41.998Z</time>
</trkpt>
<trkpt lat="59.1003080" lon="30.0357080">
<ele>78.638397</ele>
<time>2026-04-25T10:28:56.997Z</time>
</trkpt>
<trkpt lat="59.1001540" lon="30.0359190">
<ele>78.973679</ele>
<time>2026-04-25T10:30:12.001Z</time>
</trkpt>
<trkpt lat="59.1000780" lon="30.0359190">
<ele>78.851761</ele>
<time>2026-04-25T10:30:29.998Z</time>
</trkpt>
<trkpt lat="59.1000480" lon="30.0357410">
<ele>82.295998</ele>
<time>2026-04-25T10:30:55.996Z</time>
</trkpt>
<trkpt lat="59.1000810" lon="30.0355920">
<ele>87.081367</ele>
<time>2026-04-25T10:31:11.004Z</time>
</trkpt>
<trkpt lat="59.1000860" lon="30.0353890">
<ele>88.971115</ele>
<time>2026-04-25T10:31:42.997Z</time>
</trkpt>
<trkpt lat="59.1001110" lon="30.0353650">
<ele>88.026237</ele>
<time>2026-04-25T10:32:11.000Z</time>
</trkpt>
<trkpt lat="59.0999850" lon="30.0352860">
<ele>85.923119</ele>
<time>2026-04-25T10:32:44.998Z</time>
</trkpt>
<trkpt lat="59.0999570" lon="30.0351340">
<ele>84.216240</ele>
<time>2026-04-25T10:33:02.002Z</time>
</trkpt>
<trkpt lat="59.0999790" lon="30.0347910">
<ele>80.406235</ele>
<time>2026-04-25T10:33:38.998Z</time>
</trkpt>
<trkpt lat="59.0999400" lon="30.0346360">
<ele>78.973679</ele>
<time>2026-04-25T10:33:57.004Z</time>
</trkpt>
<trkpt lat="59.0999490" lon="30.0344830">
<ele>78.546967</ele>
<time>2026-04-25T10:34:17.999Z</time>
</trkpt>
<trkpt lat="59.0998980" lon="30.0345360">
<ele>78.455521</ele>
<time>2026-04-25T10:34:42.001Z</time>
</trkpt>
<trkpt lat="59.0997930" lon="30.0348160">
<ele>76.809601</ele>
<time>2026-04-25T10:35:13.001Z</time>
</trkpt>
<trkpt lat="59.0997180" lon="30.0348830">
<ele>76.535278</ele>
<time>2026-04-25T10:35:30.998Z</time>
</trkpt>
<trkpt lat="59.0995880" lon="30.0346600">
<ele>80.131920</ele>
<time>2026-04-25T10:36:39.997Z</time>
</trkpt>
<trkpt lat="59.0995530" lon="30.0342450">
<ele>78.425034</ele>
<time>2026-04-25T10:37:33.997Z</time>
</trkpt>
<trkpt lat="59.0996620" lon="30.0338820">
<ele>72.969116</ele>
<time>2026-04-25T10:38:42.996Z</time>
</trkpt>
<trkpt lat="59.0997140" lon="30.0339170">
<ele>74.340721</ele>
<time>2026-04-25T10:39:50.000Z</time>
</trkpt>
<trkpt lat="59.0996270" lon="30.0336690">
<ele>72.999603</ele>
<time>2026-04-25T10:40:26.996Z</time>
</trkpt>
<trkpt lat="59.0996240" lon="30.0335240">
<ele>73.822556</ele>
<time>2026-04-25T10:40:46.998Z</time>
</trkpt>
<trkpt lat="59.0995480" lon="30.0333110">
<ele>73.639679</ele>
<time>2026-04-25T10:41:20.996Z</time>
</trkpt>
<trkpt lat="59.0995570" lon="30.0331810">
<ele>73.822556</ele>
<time>2026-04-25T10:41:38.000Z</time>
</trkpt>
<trkpt lat="59.0995250" lon="30.0331720">
<ele>72.969116</ele>
<time>2026-04-25T10:42:15.998Z</time>
</trkpt>
<trkpt lat="59.0995150" lon="30.0332760">
<ele>72.085197</ele>
<time>2026-04-25T10:42:34.998Z</time>
</trkpt>
<trkpt lat="59.0994450" lon="30.0333510">
<ele>71.567039</ele>
<time>2026-04-25T10:43:04.996Z</time>
</trkpt>
<trkpt lat="59.0994960" lon="30.0336510">
<ele>71.993759</ele>
<time>2026-04-25T10:44:25.002Z</time>
</trkpt>
<trkpt lat="59.0995520" lon="30.0343040">
<ele>67.848480</ele>
<time>2026-04-25T10:45:41.000Z</time>
</trkpt>
<trkpt lat="59.0995370" lon="30.0347680">
<ele>67.330315</ele>
<time>2026-04-25T10:46:21.996Z</time>
</trkpt>
<trkpt lat="59.0994970" lon="30.0348890">
<ele>68.884804</ele>
<time>2026-04-25T10:46:44.003Z</time>
</trkpt>
<trkpt lat="59.0995100" lon="30.0350320">
<ele>69.342003</ele>
<time>2026-04-25T10:47:04.998Z</time>
</trkpt>
<trkpt lat="59.0994950" lon="30.0350030">
<ele>68.610481</ele>
<time>2026-04-25T10:47:24.999Z</time>
</trkpt>
<trkpt lat="59.0995980" lon="30.0351600">
<ele>69.982079</ele>
<time>2026-04-25T10:48:09.996Z</time>
</trkpt>
<trkpt lat="59.0996270" lon="30.0358010">
<ele>67.482719</ele>
<time>2026-04-25T10:49:10.001Z</time>
</trkpt>
<trkpt lat="59.0997340" lon="30.0360700">
<ele>65.013840</ele>
<time>2026-04-25T10:49:46.998Z</time>
</trkpt>
<trkpt lat="59.0997200" lon="30.0362490">
<ele>63.947041</ele>
<time>2026-04-25T10:50:08.002Z</time>
</trkpt>
<trkpt lat="59.0997990" lon="30.0366510">
<ele>62.514481</ele>
<time>2026-04-25T10:50:50.001Z</time>
</trkpt>
<trkpt lat="59.0997860" lon="30.0369270">
<ele>65.989197</ele>
<time>2026-04-25T10:51:34.004Z</time>
</trkpt>
<trkpt lat="59.0998280" lon="30.0373270">
<ele>61.935360</ele>
<time>2026-04-25T10:52:16.003Z</time>
</trkpt>
<trkpt lat="59.0997930" lon="30.0373830">
<ele>63.703201</ele>
<time>2026-04-25T10:52:31.002Z</time>
</trkpt>
<trkpt lat="59.0997720" lon="30.0373310">
<ele>68.366638</ele>
<time>2026-04-25T10:53:05.001Z</time>
</trkpt>
<trkpt lat="59.0998030" lon="30.0372680">
<ele>67.360802</ele>
<time>2026-04-25T10:54:12.004Z</time>
</trkpt>
<trkpt lat="59.0997820" lon="30.0372960">
<ele>67.482719</ele>
<time>2026-04-25T10:54:32.999Z</time>
</trkpt>
<trkpt lat="59.0998130" lon="30.0373300">
<ele>67.025520</ele>
<time>2026-04-25T10:55:35.000Z</time>
</trkpt>
<trkpt lat="59.0997690" lon="30.0372990">
<ele>66.415916</ele>
<time>2026-04-25T10:56:29.000Z</time>
</trkpt>
<trkpt lat="59.0997570" lon="30.0371610">
<ele>66.751198</ele>
<time>2026-04-25T10:58:21.000Z</time>
</trkpt>
<trkpt lat="59.0997350" lon="30.0372140">
<ele>65.135757</ele>
<time>2026-04-25T10:58:45.002Z</time>
</trkpt>
<trkpt lat="59.0997860" lon="30.0373690">
<ele>64.373756</ele>
<time>2026-04-25T10:59:43.002Z</time>
</trkpt>
<trkpt lat="59.0997290" lon="30.0372590">
<ele>65.531998</ele>
<time>2026-04-25T11:01:13.999Z</time>
</trkpt>
<trkpt lat="59.0997610" lon="30.0372780">
<ele>67.330315</ele>
<time>2026-04-25T11:01:46.001Z</time>
</trkpt>
<trkpt lat="59.0997240" lon="30.0373270">
<ele>70.012558</ele>
<time>2026-04-25T11:02:18.997Z</time>
</trkpt>
<trkpt lat="59.0998500" lon="30.0373070">
<ele>72.999603</ele>
<time>2026-04-25T11:03:09.999Z</time>
</trkpt>
<trkpt lat="59.0998180" lon="30.0372520">
<ele>71.048882</ele>
<time>2026-04-25T11:03:35.997Z</time>
</trkpt>
<trkpt lat="59.0998370" lon="30.0370810">
<ele>72.085197</ele>
<time>2026-04-25T11:04:05.002Z</time>
</trkpt>
<trkpt lat="59.0998320" lon="30.0374280">
<ele>70.713600</ele>
<time>2026-04-25T11:05:29.000Z</time>
</trkpt>
<trkpt lat="59.0998140" lon="30.0372980">
<ele>70.225922</ele>
<time>2026-04-25T11:05:58.004Z</time>
</trkpt>
<trkpt lat="59.0997510" lon="30.0372920">
<ele>71.353683</ele>
<time>2026-04-25T11:06:17.997Z</time>
</trkpt>
<trkpt lat="59.0997390" lon="30.0372460">
<ele>70.591682</ele>
<time>2026-04-25T11:06:50.000Z</time>
</trkpt>
<trkpt lat="59.0997580" lon="30.0372400">
<ele>71.140320</ele>
<time>2026-04-25T11:06:56.998Z</time>
</trkpt>
<trkpt lat="59.0996720" lon="30.0370090">
<ele>70.378319</ele>
<time>2026-04-25T11:07:21.000Z</time>
</trkpt>
<trkpt lat="59.0995370" lon="30.0363470">
<ele>67.604637</ele>
<time>2026-04-25T11:09:00.999Z</time>
</trkpt>
<trkpt lat="59.0995480" lon="30.0361900">
<ele>67.787521</ele>
<time>2026-04-25T11:09:22.003Z</time>
</trkpt>
<trkpt lat="59.0994720" lon="30.0362350">
<ele>68.061844</ele>
<time>2026-04-25T11:09:40.000Z</time>
</trkpt>
<trkpt lat="59.0993820" lon="30.0361930">
<ele>67.665604</ele>
<time>2026-04-25T11:09:56.002Z</time>
</trkpt>
<trkpt lat="59.0994980" lon="30.0361230">
<ele>65.044319</ele>
<time>2026-04-25T11:10:32.998Z</time>
</trkpt>
<trkpt lat="59.0995170" lon="30.0351950">
<ele>65.471039</ele>
<time>2026-04-25T11:11:57.998Z</time>
</trkpt>
<trkpt lat="59.0993920" lon="30.0347780">
<ele>65.471039</ele>
<time>2026-04-25T11:12:58.003Z</time>
</trkpt>
<trkpt lat="59.0992810" lon="30.0342140">
<ele>63.733681</ele>
<time>2026-04-25T11:14:12.998Z</time>
</trkpt>
<trkpt lat="59.0994080" lon="30.0342300">
<ele>65.562485</ele>
<time>2026-04-25T11:15:06.998Z</time>
</trkpt>
<trkpt lat="59.0992790" lon="30.0343130">
<ele>66.659760</ele>
<time>2026-04-25T11:15:37.999Z</time>
</trkpt>
<trkpt lat="59.0992490" lon="30.0342300">
<ele>66.415916</ele>
<time>2026-04-25T11:15:56.998Z</time>
</trkpt>
<trkpt lat="59.0992320" lon="30.0342560">
<ele>66.659760</ele>
<time>2026-04-25T11:16:12.999Z</time>
</trkpt>
<trkpt lat="59.0992180" lon="30.0339050">
<ele>66.812157</ele>
<time>2026-04-25T11:17:11.000Z</time>
</trkpt>
<trkpt lat="59.0991810" lon="30.0338300">
<ele>66.293999</ele>
<time>2026-04-25T11:17:36.004Z</time>
</trkpt>
<trkpt lat="59.0991600" lon="30.0335710">
<ele>64.465202</ele>
<time>2026-04-25T11:18:13.000Z</time>
</trkpt>
<trkpt lat="59.0990700" lon="30.0332540">
<ele>65.135757</ele>
<time>2026-04-25T11:19:24.997Z</time>
</trkpt>
<trkpt lat="59.0990700" lon="30.0334170">
<ele>68.305679</ele>
<time>2026-04-25T11:19:53.000Z</time>
</trkpt>
<trkpt lat="59.0989080" lon="30.0334910">
<ele>67.147438</ele>
<time>2026-04-25T11:20:37.003Z</time>
</trkpt>
<trkpt lat="59.0990770" lon="30.0334320">
<ele>66.324478</ele>
<time>2026-04-25T11:21:16.998Z</time>
</trkpt>
<trkpt lat="59.0991420" lon="30.0335570">
<ele>66.873116</ele>
<time>2026-04-25T11:22:17.003Z</time>
</trkpt>
<trkpt lat="59.0990520" lon="30.0335280">
<ele>66.629280</ele>
<time>2026-04-25T11:23:02.000Z</time>
</trkpt>
<trkpt lat="59.0990990" lon="30.0337620">
<ele>68.000885</ele>
<time>2026-04-25T11:24:13.003Z</time>
</trkpt>
<trkpt lat="59.0991370" lon="30.0345960">
<ele>65.531998</ele>
<time>2026-04-25T11:25:46.004Z</time>
</trkpt>
<trkpt lat="59.0991030" lon="30.0347380">
<ele>65.836800</ele>
<time>2026-04-25T11:26:06.999Z</time>
</trkpt>
<trkpt lat="59.0990600" lon="30.0347320">
<ele>65.227203</ele>
<time>2026-04-25T11:26:33.999Z</time>
</trkpt>
<trkpt lat="59.0991190" lon="30.0348820">
<ele>62.484001</ele>
<time>2026-04-25T11:27:18.996Z</time>
</trkpt>
<trkpt lat="59.0991610" lon="30.0351980">
<ele>65.867279</ele>
<time>2026-04-25T11:28:16.997Z</time>
</trkpt>
<trkpt lat="59.0992540" lon="30.0351550">
<ele>68.000885</ele>
<time>2026-04-25T11:28:36.998Z</time>
</trkpt>
<trkpt lat="59.0992990" lon="30.0353350">
<ele>68.458084</ele>
<time>2026-04-25T11:28:55.004Z</time>
</trkpt>
<trkpt lat="59.0993030" lon="30.0357750">
<ele>71.201279</ele>
<time>2026-04-25T11:30:05.999Z</time>
</trkpt>
<trkpt lat="59.0993560" lon="30.0358020">
<ele>71.170799</ele>
<time>2026-04-25T11:30:23.996Z</time>
</trkpt>
<trkpt lat="59.0993580" lon="30.0359310">
<ele>70.469757</ele>
<time>2026-04-25T11:30:38.002Z</time>
</trkpt>
<trkpt lat="59.0993130" lon="30.0359490">
<ele>71.018402</ele>
<time>2026-04-25T11:30:57.001Z</time>
</trkpt>
<trkpt lat="59.0993910" lon="30.0359870">
<ele>69.982079</ele>
<time>2026-04-25T11:31:13.002Z</time>
</trkpt>
<trkpt lat="59.0994270" lon="30.0363680">
<ele>73.456802</ele>
<time>2026-04-25T11:32:19.997Z</time>
</trkpt>
<trkpt lat="59.0994970" lon="30.0364310">
<ele>73.243439</ele>
<time>2026-04-25T11:32:38.996Z</time>
</trkpt>
<trkpt lat="59.0994450" lon="30.0365190">
<ele>73.152000</ele>
<time>2026-04-25T11:33:10.999Z</time>
</trkpt>
<trkpt lat="59.0994910" lon="30.0366800">
<ele>73.060562</ele>
<time>2026-04-25T11:33:31.000Z</time>
</trkpt>
<trkpt lat="59.0995340" lon="30.0366680">
<ele>72.999603</ele>
<time>2026-04-25T11:33:48.004Z</time>
</trkpt>
<trkpt lat="59.0994710" lon="30.0367130">
<ele>72.542397</ele>
<time>2026-04-25T11:34:06.001Z</time>
</trkpt>
<trkpt lat="59.0995850" lon="30.0374630">
<ele>71.627998</ele>
<time>2026-04-25T11:35:23.001Z</time>
</trkpt>
<trkpt lat="59.0994880" lon="30.0375020">
<ele>70.683121</ele>
<time>2026-04-25T11:35:42.000Z</time>
</trkpt>
<trkpt lat="59.0995020" lon="30.0374740">
<ele>69.281044</ele>
<time>2026-04-25T11:36:00.999Z</time>
</trkpt>
<trkpt lat="59.0994660" lon="30.0375480">
<ele>68.214241</ele>
<time>2026-04-25T11:36:15.998Z</time>
</trkpt>
<trkpt lat="59.0994840" lon="30.0375610">
<ele>65.775841</ele>
<time>2026-04-25T11:36:32.000Z</time>
</trkpt>
<trkpt lat="59.0994890" lon="30.0375230">
<ele>65.257683</ele>
<time>2026-04-25T11:36:49.997Z</time>
</trkpt>
<trkpt lat="59.0994240" lon="30.0375400">
<ele>64.891914</ele>
<time>2026-04-25T11:37:20.997Z</time>
</trkpt>
<trkpt lat="59.0994550" lon="30.0373850">
<ele>67.208397</ele>
<time>2026-04-25T11:38:45.997Z</time>
</trkpt>
<trkpt lat="59.0993650" lon="30.0375270">
<ele>65.897758</ele>
<time>2026-04-25T11:40:22.999Z</time>
</trkpt>
<trkpt lat="59.0994140" lon="30.0374930">
<ele>63.215519</ele>
<time>2026-04-25T11:41:15.003Z</time>
</trkpt>
<trkpt lat="59.0993870" lon="30.0374590">
<ele>64.343285</ele>
<time>2026-04-25T11:41:43.999Z</time>
</trkpt>
<trkpt lat="59.0994770" lon="30.0374330">
<ele>68.671440</ele>
<time>2026-04-25T11:43:15.004Z</time>
</trkpt>
<trkpt lat="59.0994060" lon="30.0375290">
<ele>70.134483</ele>
<time>2026-04-25T11:43:42.004Z</time>
</trkpt>
<trkpt lat="59.0994360" lon="30.0374070">
<ele>69.738243</ele>
<time>2026-04-25T11:44:01.003Z</time>
</trkpt>
<trkpt lat="59.0993240" lon="30.0367440">
<ele>69.342003</ele>
<time>2026-04-25T11:45:17.001Z</time>
</trkpt>
<trkpt lat="59.0991930" lon="30.0366140">
<ele>69.616318</ele>
<time>2026-04-25T11:46:12.003Z</time>
</trkpt>
<trkpt lat="59.0991510" lon="30.0366930">
<ele>71.231758</ele>
<time>2026-04-25T11:46:31.996Z</time>
</trkpt>
<trkpt lat="59.0991560" lon="30.0364100">
<ele>72.877686</ele>
<time>2026-04-25T11:47:14.004Z</time>
</trkpt>
<trkpt lat="59.0992240" lon="30.0363170">
<ele>73.822556</ele>
<time>2026-04-25T11:47:33.003Z</time>
</trkpt>
<trkpt lat="59.0992160" lon="30.0360810">
<ele>74.889359</ele>
<time>2026-04-25T11:48:15.002Z</time>
</trkpt>
<trkpt lat="59.0991980" lon="30.0359510">
<ele>74.645515</ele>
<time>2026-04-25T11:48:32.999Z</time>
</trkpt>
<trkpt lat="59.0991550" lon="30.0359390">
<ele>75.773285</ele>
<time>2026-04-25T11:49:28.001Z</time>
</trkpt>
<trkpt lat="59.0991210" lon="30.0357290">
<ele>75.377045</ele>
<time>2026-04-25T11:49:57.999Z</time>
</trkpt>
<trkpt lat="59.0990820" lon="30.0357260">
<ele>75.681839</ele>
<time>2026-04-25T11:50:18.001Z</time>
</trkpt>
<trkpt lat="59.0991380" lon="30.0359940">
<ele>74.645515</ele>
<time>2026-04-25T11:50:35.998Z</time>
</trkpt>
<trkpt lat="59.0991090" lon="30.0356910">
<ele>72.999603</ele>
<time>2026-04-25T11:51:13.003Z</time>
</trkpt>
<trkpt lat="59.0991720" lon="30.0356250">
<ele>72.633842</ele>
<time>2026-04-25T11:51:33.998Z</time>
</trkpt>
<trkpt lat="59.0991910" lon="30.0354730">
<ele>74.462639</ele>
<time>2026-04-25T11:52:03.003Z</time>
</trkpt>
<trkpt lat="59.0991840" lon="30.0353640">
<ele>75.498962</ele>
<time>2026-04-25T11:52:22.002Z</time>
</trkpt>
<trkpt lat="59.0991060" lon="30.0352530">
<ele>75.834244</ele>
<time>2026-04-25T11:52:45.002Z</time>
</trkpt>
<trkpt lat="59.0990620" lon="30.0350080">
<ele>72.847198</ele>
<time>2026-04-25T11:53:40.998Z</time>
</trkpt>
<trkpt lat="59.0990600" lon="30.0344980">
<ele>71.627998</ele>
<time>2026-04-25T11:54:59.000Z</time>
</trkpt>
<trkpt lat="59.0989830" lon="30.0342240">
<ele>70.805038</ele>
<time>2026-04-25T11:55:44.999Z</time>
</trkpt>
<trkpt lat="59.0989380" lon="30.0342760">
<ele>71.079361</ele>
<time>2026-04-25T11:56:02.003Z</time>
</trkpt>
<trkpt lat="59.0989070" lon="30.0342110">
<ele>70.408798</ele>
<time>2026-04-25T11:56:20.000Z</time>
</trkpt>
<trkpt lat="59.0989770" lon="30.0337690">
<ele>70.164963</ele>
<time>2026-04-25T11:57:28.999Z</time>
</trkpt>
<trkpt lat="59.0989270" lon="30.0334330">
<ele>68.762878</ele>
<time>2026-04-25T11:59:07.002Z</time>
</trkpt>
<trkpt lat="59.0988430" lon="30.0333770">
<ele>66.202560</ele>
<time>2026-04-25T11:59:33.000Z</time>
</trkpt>
<trkpt lat="59.0987590" lon="30.0335810">
<ele>66.415916</ele>
<time>2026-04-25T12:00:44.997Z</time>
</trkpt>
<trkpt lat="59.0986470" lon="30.0335240">
<ele>66.873116</ele>
<time>2026-04-25T12:01:25.000Z</time>
</trkpt>
<trkpt lat="59.0986530" lon="30.0334450">
<ele>66.080643</ele>
<time>2026-04-25T12:02:08.002Z</time>
</trkpt>
<trkpt lat="59.0987800" lon="30.0334090">
<ele>63.032642</ele>
<time>2026-04-25T12:03:33.002Z</time>
</trkpt>
<trkpt lat="59.0987950" lon="30.0334430">
<ele>62.880241</ele>
<time>2026-04-25T12:04:07.000Z</time>
</trkpt>
<trkpt lat="59.0987120" lon="30.0333560">
<ele>61.447681</ele>
<time>2026-04-25T12:05:09.001Z</time>
</trkpt>
<trkpt lat="59.0987680" lon="30.0333820">
<ele>61.874401</ele>
<time>2026-04-25T12:05:45.997Z</time>
</trkpt>
<trkpt lat="59.0987330" lon="30.0334670">
<ele>62.209682</ele>
<time>2026-04-25T12:06:16.004Z</time>
</trkpt>
<trkpt lat="59.0986910" lon="30.0334480">
<ele>61.447681</ele>
<time>2026-04-25T12:06:54.996Z</time>
</trkpt>
<trkpt lat="59.0986450" lon="30.0333180">
<ele>62.331600</ele>
<time>2026-04-25T12:07:24.001Z</time>
</trkpt>
<trkpt lat="59.0987580" lon="30.0334960">
<ele>63.642242</ele>
<time>2026-04-25T12:07:51.001Z</time>
</trkpt>
<trkpt lat="59.0988300" lon="30.0333930">
<ele>65.044319</ele>
<time>2026-04-25T12:09:10.999Z</time>
</trkpt>
<trkpt lat="59.0988210" lon="30.0336010">
<ele>66.354958</ele>
<time>2026-04-25T12:09:40.003Z</time>
</trkpt>
<trkpt lat="59.0987030" lon="30.0337740">
<ele>65.044319</ele>
<time>2026-04-25T12:11:29.999Z</time>
</trkpt>
<trkpt lat="59.0987640" lon="30.0337750">
<ele>65.958717</ele>
<time>2026-04-25T12:11:51.003Z</time>
</trkpt>
<trkpt lat="59.0988340" lon="30.0339610">
<ele>67.574158</ele>
<time>2026-04-25T12:12:13.000Z</time>
</trkpt>
<trkpt lat="59.0989320" lon="30.0345310">
<ele>73.670158</ele>
<time>2026-04-25T12:13:31.996Z</time>
</trkpt>
<trkpt lat="59.0988990" lon="30.0346220">
<ele>73.761597</ele>
<time>2026-04-25T12:13:51.004Z</time>
</trkpt>
<trkpt lat="59.0990580" lon="30.0347530">
<ele>73.792084</ele>
<time>2026-04-25T12:14:24.000Z</time>
</trkpt>
<trkpt lat="59.0990260" lon="30.0347750">
<ele>73.365356</ele>
<time>2026-04-25T12:14:38.999Z</time>
</trkpt>
<trkpt lat="59.0989150" lon="30.0346060">
<ele>70.896484</ele>
<time>2026-04-25T12:14:56.003Z</time>
</trkpt>
<trkpt lat="59.0989220" lon="30.0348590">
<ele>71.932800</ele>
<time>2026-04-25T12:15:34.001Z</time>
</trkpt>
<trkpt lat="59.0989600" lon="30.0349880">
<ele>70.957443</ele>
<time>2026-04-25T12:15:55.999Z</time>
</trkpt>
<trkpt lat="59.0989250" lon="30.0357710">
<ele>74.797920</ele>
<time>2026-04-25T12:17:57.002Z</time>
</trkpt>
<trkpt lat="59.0989490" lon="30.0359970">
<ele>75.651360</ele>
<time>2026-04-25T12:18:20.002Z</time>
</trkpt>
<trkpt lat="59.0990200" lon="30.0362420">
<ele>76.047600</ele>
<time>2026-04-25T12:18:44.997Z</time>
</trkpt>
<trkpt lat="59.0989580" lon="30.0364490">
<ele>74.706482</ele>
<time>2026-04-25T12:19:11.997Z</time>
</trkpt>
<trkpt lat="59.0990440" lon="30.0365120">
<ele>74.249283</ele>
<time>2026-04-25T12:19:30.996Z</time>
</trkpt>
<trkpt lat="59.0990600" lon="30.0366410">
<ele>72.329041</ele>
<time>2026-04-25T12:19:53.003Z</time>
</trkpt>
<trkpt lat="59.0991120" lon="30.0366970">
<ele>71.688957</ele>
<time>2026-04-25T12:20:09.997Z</time>
</trkpt>
<trkpt lat="59.0990590" lon="30.0368890">
<ele>72.146156</ele>
<time>2026-04-25T12:20:33.999Z</time>
</trkpt>
<trkpt lat="59.0991830" lon="30.0375420">
<ele>72.633842</ele>
<time>2026-04-25T12:21:59.000Z</time>
</trkpt>
<trkpt lat="59.0992000" lon="30.0375090">
<ele>72.329041</ele>
<time>2026-04-25T12:22:20.004Z</time>
</trkpt>
<trkpt lat="59.0990710" lon="30.0374490">
<ele>71.079361</ele>
<time>2026-04-25T12:22:51.004Z</time>
</trkpt>
<trkpt lat="59.0990800" lon="30.0373840">
<ele>70.286880</ele>
<time>2026-04-25T12:23:22.998Z</time>
</trkpt>
<trkpt lat="59.0991130" lon="30.0374270">
<ele>69.555359</ele>
<time>2026-04-25T12:24:16.998Z</time>
</trkpt>
<trkpt lat="59.0990980" lon="30.0374920">
<ele>72.877686</ele>
<time>2026-04-25T12:24:54.003Z</time>
</trkpt>
<trkpt lat="59.0992470" lon="30.0375940">
<ele>74.980797</ele>
<time>2026-04-25T12:25:51.001Z</time>
</trkpt>
<trkpt lat="59.0991680" lon="30.0377590">
<ele>77.632561</ele>
<time>2026-04-25T12:27:14.999Z</time>
</trkpt>
<trkpt lat="59.0990450" lon="30.0376350">
<ele>76.352402</ele>
<time>2026-04-25T12:28:25.000Z</time>
</trkpt>
<trkpt lat="59.0990610" lon="30.0377980">
<ele>79.248001</ele>
<time>2026-04-25T12:29:06.999Z</time>
</trkpt>
<trkpt lat="59.0992330" lon="30.0375620">
<ele>80.772003</ele>
<time>2026-04-25T12:29:48.998Z</time>
</trkpt>
<trkpt lat="59.0992580" lon="30.0377070">
<ele>80.985367</ele>
<time>2026-04-25T12:30:10.996Z</time>
</trkpt>
<trkpt lat="59.0990500" lon="30.0376100">
<ele>80.436722</ele>
<time>2026-04-25T12:32:05.001Z</time>
</trkpt>
<trkpt lat="59.0990990" lon="30.0377510">
<ele>79.705200</ele>
<time>2026-04-25T12:32:33.003Z</time>
</trkpt>
<trkpt lat="59.0991060" lon="30.0376410">
<ele>78.577438</ele>
<time>2026-04-25T12:33:20.998Z</time>
</trkpt>
<trkpt lat="59.0990580" lon="30.0374770">
<ele>76.169518</ele>
<time>2026-04-25T12:33:51.998Z</time>
</trkpt>
<trkpt lat="59.0989880" lon="30.0370000">
<ele>73.212959</ele>
<time>2026-04-25T12:34:48.003Z</time>
</trkpt>
<trkpt lat="59.0991320" lon="30.0366330">
<ele>69.982079</ele>
<time>2026-04-25T12:35:50.997Z</time>
</trkpt>
<trkpt lat="59.0990650" lon="30.0368060">
<ele>68.671440</ele>
<time>2026-04-25T12:36:04.000Z</time>
</trkpt>
<trkpt lat="59.0989720" lon="30.0368290">
<ele>67.909439</ele>
<time>2026-04-25T12:36:23.000Z</time>
</trkpt>
<trkpt lat="59.0989190" lon="30.0366440">
<ele>66.842644</ele>
<time>2026-04-25T12:36:44.004Z</time>
</trkpt>
<trkpt lat="59.0989490" lon="30.0364650">
<ele>65.775841</ele>
<time>2026-04-25T12:37:02.001Z</time>
</trkpt>
<trkpt lat="59.0988850" lon="30.0363830">
<ele>65.745361</ele>
<time>2026-04-25T12:37:21.000Z</time>
</trkpt>
<trkpt lat="59.0988660" lon="30.0362010">
<ele>67.604637</ele>
<time>2026-04-25T12:37:39.999Z</time>
</trkpt>
<trkpt lat="59.0989080" lon="30.0360680">
<ele>66.781685</ele>
<time>2026-04-25T12:37:58.999Z</time>
</trkpt>
<trkpt lat="59.0988030" lon="30.0353710">
<ele>67.421761</ele>
<time>2026-04-25T12:38:59.997Z</time>
</trkpt>
<trkpt lat="59.0987450" lon="30.0351900">
<ele>67.056000</ele>
<time>2026-04-25T12:39:17.001Z</time>
</trkpt>
<trkpt lat="59.0987780" lon="30.0350570">
<ele>68.031357</ele>
<time>2026-04-25T12:39:40.000Z</time>
</trkpt>
<trkpt lat="59.0989140" lon="30.0350900">
<ele>66.751198</ele>
<time>2026-04-25T12:40:12.996Z</time>
</trkpt>
<trkpt lat="59.0987720" lon="30.0350110">
<ele>64.861443</ele>
<time>2026-04-25T12:40:31.002Z</time>
</trkpt>
<trkpt lat="59.0987280" lon="30.0347740">
<ele>63.855598</ele>
<time>2026-04-25T12:40:51.997Z</time>
</trkpt>
<trkpt lat="59.0986360" lon="30.0345760">
<ele>63.764160</ele>
<time>2026-04-25T12:41:10.003Z</time>
</trkpt>
<trkpt lat="59.0986160" lon="30.0340870">
<ele>63.337440</ele>
<time>2026-04-25T12:41:52.996Z</time>
</trkpt>
<trkpt lat="59.0985380" lon="30.0339600">
<ele>64.800484</ele>
<time>2026-04-25T12:42:08.997Z</time>
</trkpt>
<trkpt lat="59.0984720" lon="30.0336530">
<ele>65.714882</ele>
<time>2026-04-25T12:42:49.000Z</time>
</trkpt>
<trkpt lat="59.0984270" lon="30.0336370">
<ele>68.305679</ele>
<time>2026-04-25T12:43:06.004Z</time>
</trkpt>
<trkpt lat="59.0984270" lon="30.0338190">
<ele>68.153282</ele>
<time>2026-04-25T12:43:25.003Z</time>
</trkpt>
<trkpt lat="59.0983630" lon="30.0340520">
<ele>69.921120</ele>
<time>2026-04-25T12:44:15.003Z</time>
</trkpt>
<trkpt lat="59.0984520" lon="30.0339060">
<ele>67.635117</ele>
<time>2026-04-25T12:45:25.998Z</time>
</trkpt>
<trkpt lat="59.0983650" lon="30.0338590">
<ele>69.159119</ele>
<time>2026-04-25T12:46:19.004Z</time>
</trkpt>
<trkpt lat="59.0983380" lon="30.0340050">
<ele>69.402962</ele>
<time>2026-04-25T12:46:44.000Z</time>
</trkpt>
<trkpt lat="59.0983890" lon="30.0340550">
<ele>71.536560</ele>
<time>2026-04-25T12:47:11.000Z</time>
</trkpt>
<trkpt lat="59.0983380" lon="30.0338960">
<ele>71.109840</ele>
<time>2026-04-25T12:48:05.000Z</time>
</trkpt>
<trkpt lat="59.0983870" lon="30.0338670">
<ele>69.768715</ele>
<time>2026-04-25T12:48:38.998Z</time>
</trkpt>
<trkpt lat="59.0983490" lon="30.0337170">
<ele>66.263519</ele>
<time>2026-04-25T12:49:55.004Z</time>
</trkpt>
<trkpt lat="59.0983970" lon="30.0339490">
<ele>66.080643</ele>
<time>2026-04-25T12:50:20.000Z</time>
</trkpt>
<trkpt lat="59.0983910" lon="30.0342810">
<ele>68.701920</ele>
<time>2026-04-25T12:50:45.997Z</time>
</trkpt>
<trkpt lat="59.0983600" lon="30.0345240">
<ele>69.555359</ele>
<time>2026-04-25T12:51:04.997Z</time>
</trkpt>
<trkpt lat="59.0982390" lon="30.0349840">
<ele>69.707756</ele>
<time>2026-04-25T12:51:46.996Z</time>
</trkpt>
<trkpt lat="59.0984740" lon="30.0354000">
<ele>68.458084</ele>
<time>2026-04-25T12:52:52.003Z</time>
</trkpt>
<trkpt lat="59.0984290" lon="30.0355090">
<ele>66.385445</ele>
<time>2026-04-25T12:53:15.996Z</time>
</trkpt>
<trkpt lat="59.0984260" lon="30.0356660">
<ele>66.964561</ele>
<time>2026-04-25T12:53:35.998Z</time>
</trkpt>
<trkpt lat="59.0982070" lon="30.0359250">
<ele>67.177917</ele>
<time>2026-04-25T12:54:32.996Z</time>
</trkpt>
<trkpt lat="59.0982230" lon="30.0359960">
<ele>68.580002</ele>
<time>2026-04-25T12:54:54.000Z</time>
</trkpt>
<trkpt lat="59.0981820" lon="30.0362580">
<ele>69.799202</ele>
<time>2026-04-25T12:55:38.997Z</time>
</trkpt>
<trkpt lat="59.0981370" lon="30.0360410">
<ele>67.878960</ele>
<time>2026-04-25T12:56:28.997Z</time>
</trkpt>
<trkpt lat="59.0981710" lon="30.0361290">
<ele>67.635117</ele>
<time>2026-04-25T12:56:59.004Z</time>
</trkpt>
<trkpt lat="59.0982020" lon="30.0360860">
<ele>67.482719</ele>
<time>2026-04-25T12:57:18.996Z</time>
</trkpt>
<trkpt lat="59.0982650" lon="30.0361700">
<ele>67.635117</ele>
<time>2026-04-25T12:58:01.004Z</time>
</trkpt>
<trkpt lat="59.0983740" lon="30.0362000">
<ele>66.507362</ele>
<time>2026-04-25T12:58:23.002Z</time>
</trkpt>
<trkpt lat="59.0984520" lon="30.0361400">
<ele>65.897758</ele>
<time>2026-04-25T12:58:39.996Z</time>
</trkpt>
<trkpt lat="59.0986200" lon="30.0361110">
<ele>65.288162</ele>
<time>2026-04-25T12:59:01.000Z</time>
</trkpt>
<trkpt lat="59.0986860" lon="30.0361540">
<ele>65.623444</ele>
<time>2026-04-25T12:59:28.000Z</time>
</trkpt>
<trkpt lat="59.0986320" lon="30.0362560">
<ele>65.745361</ele>
<time>2026-04-25T12:59:53.998Z</time>
</trkpt>
<trkpt lat="59.0986100" lon="30.0364680">
<ele>64.556641</ele>
<time>2026-04-25T13:00:19.002Z</time>
</trkpt>
<trkpt lat="59.0986970" lon="30.0368000">
<ele>65.044319</ele>
<time>2026-04-25T13:00:57.001Z</time>
</trkpt>
<trkpt lat="59.0986710" lon="30.0372290">
<ele>63.916557</ele>
<time>2026-04-25T13:01:35.000Z</time>
</trkpt>
<trkpt lat="59.0987370" lon="30.0375860">
<ele>61.965839</ele>
<time>2026-04-25T13:02:11.003Z</time>
</trkpt>
<trkpt lat="59.0988300" lon="30.0377880">
<ele>63.245998</ele>
<time>2026-04-25T13:02:49.001Z</time>
</trkpt>
<trkpt lat="59.0988800" lon="30.0377280">
<ele>63.550800</ele>
<time>2026-04-25T13:03:08.001Z</time>
</trkpt>
<trkpt lat="59.0988870" lon="30.0376590">
<ele>65.471039</ele>
<time>2026-04-25T13:03:36.003Z</time>
</trkpt>
<trkpt lat="59.0989270" lon="30.0376460">
<ele>64.952881</ele>
<time>2026-04-25T13:04:06.001Z</time>
</trkpt>
<trkpt lat="59.0989340" lon="30.0376900">
<ele>65.410080</ele>
<time>2026-04-25T13:04:34.997Z</time>
</trkpt>
<trkpt lat="59.0988820" lon="30.0375250">
<ele>66.537842</ele>
<time>2026-04-25T13:05:39.002Z</time>
</trkpt>
<trkpt lat="59.0988610" lon="30.0372390">
<ele>65.958717</ele>
<time>2026-04-25T13:06:11.998Z</time>
</trkpt>
<trkpt lat="59.0988960" lon="30.0362180">
<ele>66.385445</ele>
<time>2026-04-25T13:07:57.000Z</time>
</trkpt>
<trkpt lat="59.0986860" lon="30.0355700">
<ele>72.664322</ele>
<time>2026-04-25T13:09:08.997Z</time>
</trkpt>
<trkpt lat="59.0986670" lon="30.0354110">
<ele>74.401680</ele>
<time>2026-04-25T13:09:27.003Z</time>
</trkpt>
<trkpt lat="59.0986260" lon="30.0354050">
<ele>75.559921</ele>
<time>2026-04-25T13:09:46.002Z</time>
</trkpt>
<trkpt lat="59.0984880" lon="30.0356920">
<ele>72.633842</ele>
<time>2026-04-25T13:10:20.001Z</time>
</trkpt>
<trkpt lat="59.0986310" lon="30.0353750">
<ele>70.256401</ele>
<time>2026-04-25T13:10:59.002Z</time>
</trkpt>
<trkpt lat="59.0986670" lon="30.0350880">
<ele>75.742798</ele>
<time>2026-04-25T13:11:38.996Z</time>
</trkpt>
<trkpt lat="59.0985760" lon="30.0346280">
<ele>76.169518</ele>
<time>2026-04-25T13:12:20.002Z</time>
</trkpt>
<trkpt lat="59.0983360" lon="30.0340080">
<ele>76.504799</ele>
<time>2026-04-25T13:13:34.003Z</time>
</trkpt>
<trkpt lat="59.0983150" lon="30.0338140">
<ele>76.169518</ele>
<time>2026-04-25T13:13:50.998Z</time>
</trkpt>
<trkpt lat="59.0982330" lon="30.0336970">
<ele>75.468483</ele>
<time>2026-04-25T13:14:16.996Z</time>
</trkpt>
<trkpt lat="59.0983140" lon="30.0338130">
<ele>76.382881</ele>
<time>2026-04-25T13:14:35.002Z</time>
</trkpt>
<trkpt lat="59.0983700" lon="30.0337950">
<ele>75.834244</ele>
<time>2026-04-25T13:15:03.004Z</time>
</trkpt>
<trkpt lat="59.0983520" lon="30.0338560">
<ele>74.188316</ele>
<time>2026-04-25T13:15:33.002Z</time>
</trkpt>
</trkseg>
</trk>
<trk>
 <name>20260425_Lisa92</name>
 <desc>20260425_Lisa92</desc>
<trkseg>
<trkpt lat="59.1002310" lon="30.0317780">
<ele>76.961998</ele>
<time>2026-04-25T10:05:02.999Z</time>
</trkpt>
<trkpt lat="59.1005140" lon="30.0335940">
<ele>77.419197</ele>
<time>2026-04-25T10:06:41.003Z</time>
</trkpt>
<trkpt lat="59.1007090" lon="30.0343430">
<ele>77.236320</ele>
<time>2026-04-25T10:07:24.004Z</time>
</trkpt>
<trkpt lat="59.1007500" lon="30.0350150">
<ele>79.461365</ele>
<time>2026-04-25T10:08:10.003Z</time>
</trkpt>
<trkpt lat="59.1009460" lon="30.0356050">
<ele>79.034637</ele>
<time>2026-04-25T10:09:08.004Z</time>
</trkpt>
<trkpt lat="59.1011100" lon="30.0364120">
<ele>78.760315</ele>
<time>2026-04-25T10:09:43.998Z</time>
</trkpt>
<trkpt lat="59.1010140" lon="30.0369520">
<ele>76.565758</ele>
<time>2026-04-25T10:10:17.003Z</time>
</trkpt>
<trkpt lat="59.1009130" lon="30.0369360">
<ele>76.017120</ele>
<time>2026-04-25T10:10:37.004Z</time>
</trkpt>
<trkpt lat="59.1008600" lon="30.0371160">
<ele>76.291443</ele>
<time>2026-04-25T10:11:23.004Z</time>
</trkpt>
<trkpt lat="59.1009050" lon="30.0369500">
<ele>75.377045</ele>
<time>2026-04-25T10:11:56.000Z</time>
</trkpt>
<trkpt lat="59.1009450" lon="30.0369210">
<ele>73.152000</ele>
<time>2026-04-25T10:13:04.999Z</time>
</trkpt>
<trkpt lat="59.1009210" lon="30.0370110">
<ele>70.652641</ele>
<time>2026-04-25T10:14:51.003Z</time>
</trkpt>
<trkpt lat="59.1008670" lon="30.0370060">
<ele>71.902321</ele>
<time>2026-04-25T10:16:20.004Z</time>
</trkpt>
<trkpt lat="59.1008800" lon="30.0369740">
<ele>72.389999</ele>
<time>2026-04-25T10:17:29.003Z</time>
</trkpt>
<trkpt lat="59.1008260" lon="30.0370690">
<ele>72.847198</ele>
<time>2026-04-25T10:17:48.002Z</time>
</trkpt>
<trkpt lat="59.1008440" lon="30.0370980">
<ele>73.091042</ele>
<time>2026-04-25T10:18:18.000Z</time>
</trkpt>
<trkpt lat="59.1009880" lon="30.0368480">
<ele>69.829681</ele>
<time>2026-04-25T10:20:00.004Z</time>
</trkpt>
<trkpt lat="59.1009320" lon="30.0368680">
<ele>68.580002</ele>
<time>2026-04-25T10:20:42.003Z</time>
</trkpt>
<trkpt lat="59.1009570" lon="30.0369020">
<ele>68.427597</ele>
<time>2026-04-25T10:22:11.004Z</time>
</trkpt>
<trkpt lat="59.1009080" lon="30.0370390">
<ele>70.317360</ele>
<time>2026-04-25T10:23:52.999Z</time>
</trkpt>
<trkpt lat="59.1009450" lon="30.0371160">
<ele>72.999603</ele>
<time>2026-04-25T10:24:42.998Z</time>
</trkpt>
<trkpt lat="59.1008910" lon="30.0369990">
<ele>72.755760</ele>
<time>2026-04-25T10:25:09.998Z</time>
</trkpt>
<trkpt lat="59.1009910" lon="30.0369740">
<ele>73.487282</ele>
<time>2026-04-25T10:29:31.998Z</time>
</trkpt>
<trkpt lat="59.1009800" lon="30.0370290">
<ele>74.615044</ele>
<time>2026-04-25T10:30:48.997Z</time>
</trkpt>
<trkpt lat="59.1010040" lon="30.0369560">
<ele>78.425034</ele>
<time>2026-04-25T10:32:12.002Z</time>
</trkpt>
<trkpt lat="59.1013260" lon="30.0374110">
<ele>74.919838</ele>
<time>2026-04-25T10:34:00.002Z</time>
</trkpt>
<trkpt lat="59.1014350" lon="30.0374620">
<ele>75.163681</ele>
<time>2026-04-25T10:34:15.001Z</time>
</trkpt>
<trkpt lat="59.1015110" lon="30.0375620">
<ele>75.041756</ele>
<time>2026-04-25T10:34:47.997Z</time>
</trkpt>
<trkpt lat="59.1015040" lon="30.0376120">
<ele>75.986641</ele>
<time>2026-04-25T10:35:28.000Z</time>
</trkpt>
<trkpt lat="59.1015510" lon="30.0375740">
<ele>76.139038</ele>
<time>2026-04-25T10:36:18.000Z</time>
</trkpt>
<trkpt lat="59.1016600" lon="30.0376400">
<ele>74.767441</ele>
<time>2026-04-25T10:36:55.999Z</time>
</trkpt>
<trkpt lat="59.1019130" lon="30.0379280">
<ele>75.498962</ele>
<time>2026-04-25T10:37:51.001Z</time>
</trkpt>
<trkpt lat="59.1019810" lon="30.0385400">
<ele>75.194160</ele>
<time>2026-04-25T10:38:46.997Z</time>
</trkpt>
<trkpt lat="59.1020280" lon="30.0386740">
<ele>73.883514</ele>
<time>2026-04-25T10:39:44.004Z</time>
</trkpt>
<trkpt lat="59.1020820" lon="30.0386520">
<ele>73.974960</ele>
<time>2026-04-25T10:40:38.997Z</time>
</trkpt>
<trkpt lat="59.1020570" lon="30.0385920">
<ele>72.176643</ele>
<time>2026-04-25T10:41:13.998Z</time>
</trkpt>
<trkpt lat="59.1019370" lon="30.0386030">
<ele>69.189598</ele>
<time>2026-04-25T10:41:47.996Z</time>
</trkpt>
<trkpt lat="59.1016040" lon="30.0382480">
<ele>67.208397</ele>
<time>2026-04-25T10:42:53.997Z</time>
</trkpt>
<trkpt lat="59.1013690" lon="30.0382600">
<ele>66.842644</ele>
<time>2026-04-25T10:43:21.999Z</time>
</trkpt>
<trkpt lat="59.1013400" lon="30.0379970">
<ele>65.897758</ele>
<time>2026-04-25T10:44:03.998Z</time>
</trkpt>
<trkpt lat="59.1013570" lon="30.0377180">
<ele>65.775841</ele>
<time>2026-04-25T10:44:22.004Z</time>
</trkpt>
<trkpt lat="59.1012120" lon="30.0375870">
<ele>66.690239</ele>
<time>2026-04-25T10:44:45.004Z</time>
</trkpt>
<trkpt lat="59.1011790" lon="30.0375070">
<ele>69.555359</ele>
<time>2026-04-25T10:45:04.997Z</time>
</trkpt>
<trkpt lat="59.1011960" lon="30.0372570">
<ele>65.196716</ele>
<time>2026-04-25T10:45:42.002Z</time>
</trkpt>
<trkpt lat="59.1011460" lon="30.0371470">
<ele>63.245998</ele>
<time>2026-04-25T10:46:03.999Z</time>
</trkpt>
<trkpt lat="59.1010770" lon="30.0370300">
<ele>64.709038</ele>
<time>2026-04-25T10:46:21.003Z</time>
</trkpt>
<trkpt lat="59.1009490" lon="30.0369150">
<ele>64.190880</ele>
<time>2026-04-25T10:46:49.999Z</time>
</trkpt>
<trkpt lat="59.1009870" lon="30.0369410">
<ele>65.288162</ele>
<time>2026-04-25T10:47:42.996Z</time>
</trkpt>
<trkpt lat="59.1009890" lon="30.0370060">
<ele>64.221359</ele>
<time>2026-04-25T10:48:18.999Z</time>
</trkpt>
<trkpt lat="59.1008720" lon="30.0368490">
<ele>64.190880</ele>
<time>2026-04-25T10:49:15.004Z</time>
</trkpt>
<trkpt lat="59.1007750" lon="30.0369420">
<ele>65.714882</ele>
<time>2026-04-25T10:50:11.000Z</time>
</trkpt>
<trkpt lat="59.1007310" lon="30.0368810">
<ele>69.829681</ele>
<time>2026-04-25T10:50:54.001Z</time>
</trkpt>
<trkpt lat="59.1006540" lon="30.0369240">
<ele>69.860161</ele>
<time>2026-04-25T10:51:21.001Z</time>
</trkpt>
<trkpt lat="59.1005540" lon="30.0368500">
<ele>69.768715</ele>
<time>2026-04-25T10:53:45.004Z</time>
</trkpt>
<trkpt lat="59.1005650" lon="30.0369540">
<ele>63.459358</ele>
<time>2026-04-25T10:54:54.996Z</time>
</trkpt>
<trkpt lat="59.1005460" lon="30.0368690">
<ele>65.562485</ele>
<time>2026-04-25T10:55:32.002Z</time>
</trkpt>
<trkpt lat="59.1003450" lon="30.0370270">
<ele>67.513199</ele>
<time>2026-04-25T10:56:33.000Z</time>
</trkpt>
<trkpt lat="59.1000700" lon="30.0370710">
<ele>68.884804</ele>
<time>2026-04-25T10:57:25.004Z</time>
</trkpt>
<trkpt lat="59.0997430" lon="30.0372490">
<ele>70.774559</ele>
<time>2026-04-25T10:58:46.004Z</time>
</trkpt>
<trkpt lat="59.0997760" lon="30.0372960">
<ele>73.243439</ele>
<time>2026-04-25T11:03:39.004Z</time>
</trkpt>
<trkpt lat="59.0997880" lon="30.0372280">
<ele>71.810883</ele>
<time>2026-04-25T11:04:56.997Z</time>
</trkpt>
<trkpt lat="59.0997400" lon="30.0372780">
<ele>71.536560</ele>
<time>2026-04-25T11:05:15.003Z</time>
</trkpt>
<trkpt lat="59.0995890" lon="30.0372900">
<ele>70.622162</ele>
<time>2026-04-25T11:05:33.000Z</time>
</trkpt>
<trkpt lat="59.0993580" lon="30.0375260">
<ele>71.445122</ele>
<time>2026-04-25T11:06:20.002Z</time>
</trkpt>
<trkpt lat="59.0991780" lon="30.0375480">
<ele>71.109840</ele>
<time>2026-04-25T11:06:50.000Z</time>
</trkpt>
<trkpt lat="59.0990790" lon="30.0374920">
<ele>73.212959</ele>
<time>2026-04-25T11:07:03.003Z</time>
</trkpt>
<trkpt lat="59.0989280" lon="30.0375370">
<ele>71.688957</ele>
<time>2026-04-25T11:07:25.000Z</time>
</trkpt>
<trkpt lat="59.0986570" lon="30.0377770">
<ele>70.195442</ele>
<time>2026-04-25T11:08:09.004Z</time>
</trkpt>
<trkpt lat="59.0985270" lon="30.0377680">
<ele>69.860161</ele>
<time>2026-04-25T11:08:29.999Z</time>
</trkpt>
<trkpt lat="59.0984180" lon="30.0378460">
<ele>69.342003</ele>
<time>2026-04-25T11:08:43.996Z</time>
</trkpt>
<trkpt lat="59.0983910" lon="30.0379820">
<ele>69.433441</ele>
<time>2026-04-25T11:08:55.997Z</time>
</trkpt>
<trkpt lat="59.0981160" lon="30.0381410">
<ele>68.397118</ele>
<time>2026-04-25T11:09:37.002Z</time>
</trkpt>
<trkpt lat="59.0979320" lon="30.0381880">
<ele>69.250557</ele>
<time>2026-04-25T11:10:20.004Z</time>
</trkpt>
<trkpt lat="59.0976600" lon="30.0381690">
<ele>75.498962</ele>
<time>2026-04-25T11:12:43.004Z</time>
</trkpt>
<trkpt lat="59.0975780" lon="30.0381900">
<ele>75.041756</ele>
<time>2026-04-25T11:12:58.997Z</time>
</trkpt>
<trkpt lat="59.0974950" lon="30.0383140">
<ele>74.676003</ele>
<time>2026-04-25T11:13:13.996Z</time>
</trkpt>
<trkpt lat="59.0974230" lon="30.0382630">
<ele>74.493118</ele>
<time>2026-04-25T11:13:29.004Z</time>
</trkpt>
<trkpt lat="59.0971910" lon="30.0385580">
<ele>73.944481</ele>
<time>2026-04-25T11:14:20.999Z</time>
</trkpt>
<trkpt lat="59.0969170" lon="30.0385910">
<ele>74.980797</ele>
<time>2026-04-25T11:14:50.004Z</time>
</trkpt>
<trkpt lat="59.0968540" lon="30.0386920">
<ele>74.797920</ele>
<time>2026-04-25T11:15:01.996Z</time>
</trkpt>
<trkpt lat="59.0965260" lon="30.0387570">
<ele>67.269356</ele>
<time>2026-04-25T11:15:59.003Z</time>
</trkpt>
<trkpt lat="59.0963710" lon="30.0389210">
<ele>69.982079</ele>
<time>2026-04-25T11:16:27.998Z</time>
</trkpt>
<trkpt lat="59.0962760" lon="30.0389600">
<ele>70.500244</ele>
<time>2026-04-25T11:16:41.002Z</time>
</trkpt>
<trkpt lat="59.0960560" lon="30.0389310">
<ele>70.378319</ele>
<time>2026-04-25T11:17:50.001Z</time>
</trkpt>
<trkpt lat="59.0959430" lon="30.0391250">
<ele>71.567039</ele>
<time>2026-04-25T11:18:33.002Z</time>
</trkpt>
<trkpt lat="59.0957360" lon="30.0392690">
<ele>71.414642</ele>
<time>2026-04-25T11:19:23.002Z</time>
</trkpt>
<trkpt lat="59.0957420" lon="30.0391100">
<ele>68.732399</ele>
<time>2026-04-25T11:19:53.000Z</time>
</trkpt>
<trkpt lat="59.0956710" lon="30.0388140">
<ele>70.012558</ele>
<time>2026-04-25T11:20:24.000Z</time>
</trkpt>
<trkpt lat="59.0958020" lon="30.0385370">
<ele>67.482719</ele>
<time>2026-04-25T11:20:52.996Z</time>
</trkpt>
<trkpt lat="59.0959050" lon="30.0383860">
<ele>69.311516</ele>
<time>2026-04-25T11:21:22.000Z</time>
</trkpt>
<trkpt lat="59.0959410" lon="30.0383900">
<ele>72.085197</ele>
<time>2026-04-25T11:22:06.997Z</time>
</trkpt>
<trkpt lat="59.0957600" lon="30.0382300">
<ele>71.749916</ele>
<time>2026-04-25T11:23:47.999Z</time>
</trkpt>
<trkpt lat="59.0957710" lon="30.0381420">
<ele>72.694801</ele>
<time>2026-04-25T11:24:24.002Z</time>
</trkpt>
<trkpt lat="59.0957410" lon="30.0380110">
<ele>72.603355</ele>
<time>2026-04-25T11:24:44.997Z</time>
</trkpt>
<trkpt lat="59.0958060" lon="30.0373920">
<ele>74.858879</ele>
<time>2026-04-25T11:27:41.996Z</time>
</trkpt>
<trkpt lat="59.0958260" lon="30.0373580">
<ele>73.487282</ele>
<time>2026-04-25T11:28:24.004Z</time>
</trkpt>
<trkpt lat="59.0958210" lon="30.0374320">
<ele>71.688957</ele>
<time>2026-04-25T11:29:40.001Z</time>
</trkpt>
<trkpt lat="59.0958730" lon="30.0372180">
<ele>71.749916</ele>
<time>2026-04-25T11:30:24.998Z</time>
</trkpt>
<trkpt lat="59.0959330" lon="30.0372070">
<ele>71.658485</ele>
<time>2026-04-25T11:30:39.004Z</time>
</trkpt>
<trkpt lat="59.0959740" lon="30.0371380">
<ele>69.768715</ele>
<time>2026-04-25T11:31:05.002Z</time>
</trkpt>
<trkpt lat="59.0958200" lon="30.0371010">
<ele>72.603355</ele>
<time>2026-04-25T11:31:47.001Z</time>
</trkpt>
<trkpt lat="59.0956840" lon="30.0369420">
<ele>73.212959</ele>
<time>2026-04-25T11:32:11.996Z</time>
</trkpt>
<trkpt lat="59.0956420" lon="30.0364090">
<ele>70.256401</ele>
<time>2026-04-25T11:33:47.002Z</time>
</trkpt>
<trkpt lat="59.0956780" lon="30.0361840">
<ele>70.073517</ele>
<time>2026-04-25T11:34:30.003Z</time>
</trkpt>
<trkpt lat="59.0956550" lon="30.0358870">
<ele>69.616318</ele>
<time>2026-04-25T11:35:02.999Z</time>
</trkpt>
<trkpt lat="59.0955440" lon="30.0354060">
<ele>74.096878</ele>
<time>2026-04-25T11:35:55.003Z</time>
</trkpt>
<trkpt lat="59.0955850" lon="30.0351130">
<ele>72.298561</ele>
<time>2026-04-25T11:36:41.003Z</time>
</trkpt>
<trkpt lat="59.0955580" lon="30.0351330">
<ele>71.231758</ele>
<time>2026-04-25T11:36:59.000Z</time>
</trkpt>
<trkpt lat="59.0955700" lon="30.0353410">
<ele>73.121521</ele>
<time>2026-04-25T11:39:24.998Z</time>
</trkpt>
<trkpt lat="59.0957660" lon="30.0360740">
<ele>75.803757</ele>
<time>2026-04-25T11:41:04.004Z</time>
</trkpt>
<trkpt lat="59.0958340" lon="30.0365240">
<ele>75.498962</ele>
<time>2026-04-25T11:41:35.998Z</time>
</trkpt>
<trkpt lat="59.0958280" lon="30.0368980">
<ele>76.535278</ele>
<time>2026-04-25T11:42:28.002Z</time>
</trkpt>
<trkpt lat="59.0957830" lon="30.0370450">
<ele>76.230484</ele>
<time>2026-04-25T11:42:41.999Z</time>
</trkpt>
<trkpt lat="59.0957980" lon="30.0373750">
<ele>75.377045</ele>
<time>2026-04-25T11:43:38.997Z</time>
</trkpt>
<trkpt lat="59.0957380" lon="30.0375540">
<ele>74.676003</ele>
<time>2026-04-25T11:44:20.996Z</time>
</trkpt>
<trkpt lat="59.0958040" lon="30.0377520">
<ele>74.035919</ele>
<time>2026-04-25T11:45:09.000Z</time>
</trkpt>
<trkpt lat="59.0958470" lon="30.0378140">
<ele>76.047600</ele>
<time>2026-04-25T11:45:30.004Z</time>
</trkpt>
<trkpt lat="59.0959010" lon="30.0377930">
<ele>75.834244</ele>
<time>2026-04-25T11:45:52.001Z</time>
</trkpt>
<trkpt lat="59.0958750" lon="30.0378510">
<ele>75.102715</ele>
<time>2026-04-25T11:46:50.002Z</time>
</trkpt>
<trkpt lat="59.0958530" lon="30.0377900">
<ele>75.468483</ele>
<time>2026-04-25T11:48:08.997Z</time>
</trkpt>
<trkpt lat="59.0958790" lon="30.0378170">
<ele>73.182480</ele>
<time>2026-04-25T11:50:08.998Z</time>
</trkpt>
<trkpt lat="59.0958510" lon="30.0378280">
<ele>72.542397</ele>
<time>2026-04-25T11:51:37.999Z</time>
</trkpt>
<trkpt lat="59.0958740" lon="30.0378220">
<ele>72.725281</ele>
<time>2026-04-25T11:53:20.996Z</time>
</trkpt>
<trkpt lat="59.0958590" lon="30.0377840">
<ele>71.841362</ele>
<time>2026-04-25T11:54:15.998Z</time>
</trkpt>
<trkpt lat="59.0959220" lon="30.0379000">
<ele>70.683121</ele>
<time>2026-04-25T11:55:01.004Z</time>
</trkpt>
<trkpt lat="59.0959210" lon="30.0381680">
<ele>67.970398</ele>
<time>2026-04-25T11:55:36.998Z</time>
</trkpt>
<trkpt lat="59.0959950" lon="30.0383280">
<ele>69.585838</ele>
<time>2026-04-25T11:56:20.000Z</time>
</trkpt>
<trkpt lat="59.0960270" lon="30.0386200">
<ele>69.006721</ele>
<time>2026-04-25T11:56:52.996Z</time>
</trkpt>
<trkpt lat="59.0961020" lon="30.0388030">
<ele>68.519043</ele>
<time>2026-04-25T11:57:30.001Z</time>
</trkpt>
<trkpt lat="59.0960950" lon="30.0389290">
<ele>68.305679</ele>
<time>2026-04-25T11:58:48.003Z</time>
</trkpt>
<trkpt lat="59.0961080" lon="30.0389010">
<ele>68.945763</ele>
<time>2026-04-25T11:59:23.997Z</time>
</trkpt>
<trkpt lat="59.0962250" lon="30.0389970">
<ele>69.067680</ele>
<time>2026-04-25T11:59:42.996Z</time>
</trkpt>
<trkpt lat="59.0962660" lon="30.0389600">
<ele>69.860161</ele>
<time>2026-04-25T12:00:10.999Z</time>
</trkpt>
<trkpt lat="59.0962580" lon="30.0389250">
<ele>69.829681</ele>
<time>2026-04-25T12:01:11.004Z</time>
</trkpt>
<trkpt lat="59.0962970" lon="30.0388970">
<ele>69.281044</ele>
<time>2026-04-25T12:02:13.998Z</time>
</trkpt>
<trkpt lat="59.0962530" lon="30.0389230">
<ele>69.616318</ele>
<time>2026-04-25T12:02:42.000Z</time>
</trkpt>
<trkpt lat="59.0961710" lon="30.0387660">
<ele>69.159119</ele>
<time>2026-04-25T12:03:14.003Z</time>
</trkpt>
<trkpt lat="59.0960790" lon="30.0382870">
<ele>68.915283</ele>
<time>2026-04-25T12:04:51.997Z</time>
</trkpt>
<trkpt lat="59.0958910" lon="30.0378500">
<ele>68.793358</ele>
<time>2026-04-25T12:06:28.999Z</time>
</trkpt>
<trkpt lat="59.0959140" lon="30.0376580">
<ele>67.909439</ele>
<time>2026-04-25T12:07:03.999Z</time>
</trkpt>
<trkpt lat="59.0959660" lon="30.0375650">
<ele>67.818001</ele>
<time>2026-04-25T12:07:44.996Z</time>
</trkpt>
<trkpt lat="59.0960230" lon="30.0366290">
<ele>72.572884</ele>
<time>2026-04-25T12:10:30.003Z</time>
</trkpt>
<trkpt lat="59.0959930" lon="30.0366660">
<ele>74.797920</ele>
<time>2026-04-25T12:10:57.003Z</time>
</trkpt>
<trkpt lat="59.0959220" lon="30.0362010">
<ele>74.584557</ele>
<time>2026-04-25T12:13:16.997Z</time>
</trkpt>
<trkpt lat="59.0958850" lon="30.0360510">
<ele>77.205841</ele>
<time>2026-04-25T12:13:26.000Z</time>
</trkpt>
<trkpt lat="59.0958120" lon="30.0359320">
<ele>74.462639</ele>
<time>2026-04-25T12:13:40.999Z</time>
</trkpt>
<trkpt lat="59.0957560" lon="30.0356670">
<ele>74.279762</ele>
<time>2026-04-25T12:14:09.001Z</time>
</trkpt>
<trkpt lat="59.0957440" lon="30.0353750">
<ele>78.760315</ele>
<time>2026-04-25T12:14:30.998Z</time>
</trkpt>
<trkpt lat="59.0957810" lon="30.0350720">
<ele>82.753197</ele>
<time>2026-04-25T12:15:00.996Z</time>
</trkpt>
<trkpt lat="59.0958720" lon="30.0351180">
<ele>76.565758</ele>
<time>2026-04-25T12:15:39.997Z</time>
</trkpt>
<trkpt lat="59.0960410" lon="30.0363820">
<ele>79.187035</ele>
<time>2026-04-25T12:18:02.998Z</time>
</trkpt>
<trkpt lat="59.0959520" lon="30.0368830">
<ele>80.101433</ele>
<time>2026-04-25T12:19:07.003Z</time>
</trkpt>
<trkpt lat="59.0959930" lon="30.0370260">
<ele>79.979515</ele>
<time>2026-04-25T12:19:37.001Z</time>
</trkpt>
<trkpt lat="59.0961150" lon="30.0372560">
<ele>80.162399</ele>
<time>2026-04-25T12:19:56.001Z</time>
</trkpt>
<trkpt lat="59.0961680" lon="30.0374420">
<ele>79.979515</ele>
<time>2026-04-25T12:20:15.000Z</time>
</trkpt>
<trkpt lat="59.0962290" lon="30.0378920">
<ele>79.065117</ele>
<time>2026-04-25T12:21:13.000Z</time>
</trkpt>
<trkpt lat="59.0963090" lon="30.0380490">
<ele>77.815437</ele>
<time>2026-04-25T12:21:49.997Z</time>
</trkpt>
<trkpt lat="59.0964380" lon="30.0385880">
<ele>81.229202</ele>
<time>2026-04-25T12:23:22.004Z</time>
</trkpt>
<trkpt lat="59.0963200" lon="30.0387190">
<ele>78.760315</ele>
<time>2026-04-25T12:25:03.999Z</time>
</trkpt>
<trkpt lat="59.0963230" lon="30.0389770">
<ele>79.796638</ele>
<time>2026-04-25T12:26:07.996Z</time>
</trkpt>
<trkpt lat="59.0963720" lon="30.0390140">
<ele>82.661766</ele>
<time>2026-04-25T12:27:51.002Z</time>
</trkpt>
<trkpt lat="59.0964790" lon="30.0389470">
<ele>82.478882</ele>
<time>2026-04-25T12:28:03.996Z</time>
</trkpt>
<trkpt lat="59.0960410" lon="30.0390390">
<ele>81.899765</ele>
<time>2026-04-25T12:29:47.996Z</time>
</trkpt>
<trkpt lat="59.0962080" lon="30.0390440">
<ele>79.522316</ele>
<time>2026-04-25T12:30:13.000Z</time>
</trkpt>
<trkpt lat="59.0961860" lon="30.0391090">
<ele>78.943199</ele>
<time>2026-04-25T12:30:22.003Z</time>
</trkpt>
<trkpt lat="59.0962900" lon="30.0389440">
<ele>82.661766</ele>
<time>2026-04-25T12:31:24.997Z</time>
</trkpt>
<trkpt lat="59.0963300" lon="30.0390380">
<ele>82.600800</ele>
<time>2026-04-25T12:31:42.001Z</time>
</trkpt>
<trkpt lat="59.0963840" lon="30.0389790">
<ele>84.155281</ele>
<time>2026-04-25T12:32:06.003Z</time>
</trkpt>
<trkpt lat="59.0963640" lon="30.0389180">
<ele>82.692238</ele>
<time>2026-04-25T12:32:34.999Z</time>
</trkpt>
<trkpt lat="59.0963760" lon="30.0390310">
<ele>70.103996</ele>
<time>2026-04-25T12:33:35.997Z</time>
</trkpt>
<trkpt lat="59.0963020" lon="30.0389820">
<ele>72.085197</ele>
<time>2026-04-25T12:34:39.000Z</time>
</trkpt>
<trkpt lat="59.0963460" lon="30.0390660">
<ele>74.249283</ele>
<time>2026-04-25T12:35:15.996Z</time>
</trkpt>
<trkpt lat="59.0963090" lon="30.0387980">
<ele>78.211685</ele>
<time>2026-04-25T12:35:46.003Z</time>
</trkpt>
<trkpt lat="59.0961460" lon="30.0383110">
<ele>75.712318</ele>
<time>2026-04-25T12:36:44.997Z</time>
</trkpt>
<trkpt lat="59.0961650" lon="30.0381620">
<ele>74.493118</ele>
<time>2026-04-25T12:37:22.002Z</time>
</trkpt>
<trkpt lat="59.0961240" lon="30.0381280">
<ele>72.389999</ele>
<time>2026-04-25T12:37:42.004Z</time>
</trkpt>
<trkpt lat="59.0961900" lon="30.0380820">
<ele>71.932800</ele>
<time>2026-04-25T12:38:04.001Z</time>
</trkpt>
<trkpt lat="59.0961300" lon="30.0378230">
<ele>71.688957</ele>
<time>2026-04-25T12:40:12.003Z</time>
</trkpt>
<trkpt lat="59.0961570" lon="30.0377760">
<ele>70.164963</ele>
<time>2026-04-25T12:40:40.999Z</time>
</trkpt>
<trkpt lat="59.0961420" lon="30.0379350">
<ele>69.433441</ele>
<time>2026-04-25T12:40:58.002Z</time>
</trkpt>
<trkpt lat="59.0960720" lon="30.0379880">
<ele>72.176643</ele>
<time>2026-04-25T12:41:26.998Z</time>
</trkpt>
<trkpt lat="59.0960980" lon="30.0381720">
<ele>69.921120</ele>
<time>2026-04-25T12:42:07.001Z</time>
</trkpt>
<trkpt lat="59.0960340" lon="30.0383030">
<ele>68.915283</ele>
<time>2026-04-25T12:42:19.002Z</time>
</trkpt>
<trkpt lat="59.0960790" lon="30.0384860">
<ele>70.652641</ele>
<time>2026-04-25T12:43:10.004Z</time>
</trkpt>
<trkpt lat="59.0961820" lon="30.0386410">
<ele>70.713600</ele>
<time>2026-04-25T12:43:35.000Z</time>
</trkpt>
<trkpt lat="59.0965140" lon="30.0388060">
<ele>69.951599</ele>
<time>2026-04-25T12:44:42.003Z</time>
</trkpt>
<trkpt lat="59.0965680" lon="30.0388080">
<ele>69.616318</ele>
<time>2026-04-25T12:44:54.004Z</time>
</trkpt>
<trkpt lat="59.0966800" lon="30.0386460">
<ele>72.420479</ele>
<time>2026-04-25T12:45:35.001Z</time>
</trkpt>
<trkpt lat="59.0966590" lon="30.0387850">
<ele>71.414642</ele>
<time>2026-04-25T12:46:21.000Z</time>
</trkpt>
<trkpt lat="59.0965350" lon="30.0387660">
<ele>73.091042</ele>
<time>2026-04-25T12:47:59.997Z</time>
</trkpt>
<trkpt lat="59.0964650" lon="30.0386740">
<ele>75.620880</ele>
<time>2026-04-25T12:48:52.001Z</time>
</trkpt>
<trkpt lat="59.0964820" lon="30.0384560">
<ele>75.194160</ele>
<time>2026-04-25T12:49:17.999Z</time>
</trkpt>
<trkpt lat="59.0964000" lon="30.0381130">
<ele>75.133202</ele>
<time>2026-04-25T12:50:14.004Z</time>
</trkpt>
<trkpt lat="59.0964370" lon="30.0379340">
<ele>74.310242</ele>
<time>2026-04-25T12:51:28.999Z</time>
</trkpt>
<trkpt lat="59.0964400" lon="30.0373990">
<ele>72.694801</ele>
<time>2026-04-25T12:54:10.999Z</time>
</trkpt>
<trkpt lat="59.0963860" lon="30.0372420">
<ele>70.987915</ele>
<time>2026-04-25T12:54:27.000Z</time>
</trkpt>
<trkpt lat="59.0962680" lon="30.0365830">
<ele>72.511917</ele>
<time>2026-04-25T12:55:35.999Z</time>
</trkpt>
<trkpt lat="59.0961980" lon="30.0364780">
<ele>72.329041</ele>
<time>2026-04-25T12:55:49.002Z</time>
</trkpt>
<trkpt lat="59.0961050" lon="30.0361550">
<ele>74.889359</ele>
<time>2026-04-25T12:56:16.002Z</time>
</trkpt>
<trkpt lat="59.0959730" lon="30.0352030">
<ele>74.980797</ele>
<time>2026-04-25T12:57:30.997Z</time>
</trkpt>
<trkpt lat="59.0959740" lon="30.0349820">
<ele>78.211685</ele>
<time>2026-04-25T12:57:49.003Z</time>
</trkpt>
<trkpt lat="59.0960030" lon="30.0349130">
<ele>78.729836</ele>
<time>2026-04-25T12:58:08.996Z</time>
</trkpt>
<trkpt lat="59.0960110" lon="30.0349820">
<ele>77.632561</ele>
<time>2026-04-25T12:58:51.004Z</time>
</trkpt>
<trkpt lat="59.0961540" lon="30.0350480">
<ele>78.272636</ele>
<time>2026-04-25T12:59:22.998Z</time>
</trkpt>
<trkpt lat="59.0961710" lon="30.0352080">
<ele>79.705200</ele>
<time>2026-04-25T13:00:00.996Z</time>
</trkpt>
<trkpt lat="59.0961470" lon="30.0354830">
<ele>79.430885</ele>
<time>2026-04-25T13:00:16.998Z</time>
</trkpt>
<trkpt lat="59.0961700" lon="30.0357400">
<ele>79.705200</ele>
<time>2026-04-25T13:00:34.001Z</time>
</trkpt>
<trkpt lat="59.0962380" lon="30.0358820">
<ele>79.308960</ele>
<time>2026-04-25T13:00:50.003Z</time>
</trkpt>
<trkpt lat="59.0962930" lon="30.0365680">
<ele>77.114403</ele>
<time>2026-04-25T13:02:00.004Z</time>
</trkpt>
<trkpt lat="59.0963510" lon="30.0368730">
<ele>77.144882</ele>
<time>2026-04-25T13:02:15.996Z</time>
</trkpt>
<trkpt lat="59.0963440" lon="30.0370200">
<ele>75.956161</ele>
<time>2026-04-25T13:02:31.998Z</time>
</trkpt>
<trkpt lat="59.0963050" lon="30.0371050">
<ele>74.523598</ele>
<time>2026-04-25T13:03:51.002Z</time>
</trkpt>
<trkpt lat="59.0963440" lon="30.0372750">
<ele>74.554085</ele>
<time>2026-04-25T13:04:04.999Z</time>
</trkpt>
<trkpt lat="59.0964990" lon="30.0376090">
<ele>72.999603</ele>
<time>2026-04-25T13:04:57.996Z</time>
</trkpt>
<trkpt lat="59.0966710" lon="30.0386150">
<ele>70.134483</ele>
<time>2026-04-25T13:06:53.997Z</time>
</trkpt>
<trkpt lat="59.0967420" lon="30.0388130">
<ele>69.524879</ele>
<time>2026-04-25T13:07:12.996Z</time>
</trkpt>
<trkpt lat="59.0967930" lon="30.0388050">
<ele>73.243439</ele>
<time>2026-04-25T13:07:58.002Z</time>
</trkpt>
<trkpt lat="59.0968190" lon="30.0384460">
<ele>74.127357</ele>
<time>2026-04-25T13:08:45.004Z</time>
</trkpt>
<trkpt lat="59.0967930" lon="30.0378200">
<ele>75.194160</ele>
<time>2026-04-25T13:09:53.001Z</time>
</trkpt>
<trkpt lat="59.0968460" lon="30.0372030">
<ele>75.133202</ele>
<time>2026-04-25T13:10:49.999Z</time>
</trkpt>
<trkpt lat="59.0966880" lon="30.0367120">
<ele>78.028801</ele>
<time>2026-04-25T13:12:00.000Z</time>
</trkpt>
<trkpt lat="59.0962740" lon="30.0359560">
<ele>77.541115</ele>
<time>2026-04-25T13:13:30.996Z</time>
</trkpt>
<trkpt lat="59.0962120" lon="30.0357430">
<ele>77.388718</ele>
<time>2026-04-25T13:13:49.002Z</time>
</trkpt>
<trkpt lat="59.0962610" lon="30.0353970">
<ele>79.430885</ele>
<time>2026-04-25T13:14:16.002Z</time>
</trkpt>
<trkpt lat="59.0962340" lon="30.0349920">
<ele>78.607918</ele>
<time>2026-04-25T13:14:56.999Z</time>
</trkpt>
<trkpt lat="59.0962960" lon="30.0348450">
<ele>74.950317</ele>
<time>2026-04-25T13:15:14.003Z</time>
</trkpt>
<trkpt lat="59.0964580" lon="30.0348930">
<ele>77.510643</ele>
<time>2026-04-25T13:15:45.996Z</time>
</trkpt>
<trkpt lat="59.0964900" lon="30.0356330">
<ele>82.113121</ele>
<time>2026-04-25T13:16:43.003Z</time>
</trkpt>
<trkpt lat="59.0966390" lon="30.0360820">
<ele>77.754478</ele>
<time>2026-04-25T13:17:37.997Z</time>
</trkpt>
<trkpt lat="59.0966010" lon="30.0364600">
<ele>74.645515</ele>
<time>2026-04-25T13:18:11.002Z</time>
</trkpt>
<trkpt lat="59.0966360" lon="30.0366250">
<ele>73.334885</ele>
<time>2026-04-25T13:18:26.001Z</time>
</trkpt>
<trkpt lat="59.0966080" lon="30.0368830">
<ele>75.559921</ele>
<time>2026-04-25T13:18:51.998Z</time>
</trkpt>
<trkpt lat="59.0966300" lon="30.0368640">
<ele>76.504799</ele>
<time>2026-04-25T13:19:26.999Z</time>
</trkpt>
<trkpt lat="59.0966000" lon="30.0368750">
<ele>73.243439</ele>
<time>2026-04-25T13:20:18.001Z</time>
</trkpt>
<trkpt lat="59.0966130" lon="30.0369640">
<ele>73.212959</ele>
<time>2026-04-25T13:21:01.002Z</time>
</trkpt>
<trkpt lat="59.0966320" lon="30.0368590">
<ele>73.639679</ele>
<time>2026-04-25T13:21:39.001Z</time>
</trkpt>
<trkpt lat="59.0966020" lon="30.0367940">
<ele>73.822556</ele>
<time>2026-04-25T13:22:26.003Z</time>
</trkpt>
<trkpt lat="59.0965800" lon="30.0369030">
<ele>78.425034</ele>
<time>2026-04-25T13:24:10.002Z</time>
</trkpt>
<trkpt lat="59.0966680" lon="30.0370060">
<ele>79.613762</ele>
<time>2026-04-25T13:24:57.997Z</time>
</trkpt>
<trkpt lat="59.0966010" lon="30.0369100">
<ele>83.728561</ele>
<time>2026-04-25T13:25:47.997Z</time>
</trkpt>
<trkpt lat="59.0965650" lon="30.0369410">
<ele>86.898483</ele>
<time>2026-04-25T13:26:14.997Z</time>
</trkpt>
<trkpt lat="59.0965450" lon="30.0368320">
<ele>82.295998</ele>
<time>2026-04-25T13:27:07.001Z</time>
</trkpt>
<trkpt lat="59.0965960" lon="30.0368320">
<ele>74.980797</ele>
<time>2026-04-25T13:28:36.002Z</time>
</trkpt>
<trkpt lat="59.0966010" lon="30.0367790">
<ele>78.729836</ele>
<time>2026-04-25T13:29:27.997Z</time>
</trkpt>
<trkpt lat="59.0965730" lon="30.0367930">
<ele>83.118965</ele>
<time>2026-04-25T13:30:35.001Z</time>
</trkpt>
<trkpt lat="59.0966070" lon="30.0368300">
<ele>81.777840</ele>
<time>2026-04-25T13:31:23.998Z</time>
</trkpt>
<trkpt lat="59.0966010" lon="30.0367540">
<ele>80.223366</ele>
<time>2026-04-25T13:31:48.000Z</time>
</trkpt>
<trkpt lat="59.0965640" lon="30.0367750">
<ele>78.333603</ele>
<time>2026-04-25T13:32:36.997Z</time>
</trkpt>
<trkpt lat="59.0966470" lon="30.0367230">
<ele>78.242165</ele>
<time>2026-04-25T13:33:14.996Z</time>
</trkpt>
<trkpt lat="59.0965840" lon="30.0367590">
<ele>78.973679</ele>
<time>2026-04-25T13:33:41.003Z</time>
</trkpt>
<trkpt lat="59.0965970" lon="30.0367230">
<ele>77.510643</ele>
<time>2026-04-25T13:34:05.998Z</time>
</trkpt>
<trkpt lat="59.0966160" lon="30.0368410">
<ele>73.761597</ele>
<time>2026-04-25T13:35:17.002Z</time>
</trkpt>
<trkpt lat="59.0965330" lon="30.0369050">
<ele>73.212959</ele>
<time>2026-04-25T13:35:57.998Z</time>
</trkpt>
<trkpt lat="59.0965150" lon="30.0368220">
<ele>74.615044</ele>
<time>2026-04-25T13:36:23.996Z</time>
</trkpt>
<trkpt lat="59.0965330" lon="30.0367880">
<ele>83.423767</ele>
<time>2026-04-25T13:37:35.000Z</time>
</trkpt>
<trkpt lat="59.0965840" lon="30.0368470">
<ele>82.600800</ele>
<time>2026-04-25T13:38:42.003Z</time>
</trkpt>
<trkpt lat="59.0966160" lon="30.0367540">
<ele>83.423767</ele>
<time>2026-04-25T13:40:30.996Z</time>
</trkpt>
<trkpt lat="59.0965870" lon="30.0368300">
<ele>87.355682</ele>
<time>2026-04-25T13:41:16.996Z</time>
</trkpt>
<trkpt lat="59.0966150" lon="30.0368860">
<ele>87.233765</ele>
<time>2026-04-25T13:43:21.999Z</time>
</trkpt>
<trkpt lat="59.0965850" lon="30.0368300">
<ele>87.629997</ele>
<time>2026-04-25T13:43:43.003Z</time>
</trkpt>
<trkpt lat="59.0966540" lon="30.0368300">
<ele>87.812881</ele>
<time>2026-04-25T13:43:55.998Z</time>
</trkpt>
<trkpt lat="59.0965950" lon="30.0369630">
<ele>86.989922</ele>
<time>2026-04-25T13:44:29.996Z</time>
</trkpt>
<trkpt lat="59.0965660" lon="30.0369420">
<ele>86.410797</ele>
<time>2026-04-25T13:44:45.004Z</time>
</trkpt>
<trkpt lat="59.0966040" lon="30.0368890">
<ele>81.442566</ele>
<time>2026-04-25T13:45:16.998Z</time>
</trkpt>
<trkpt lat="59.0966090" lon="30.0370820">
<ele>79.949036</ele>
<time>2026-04-25T13:45:34.001Z</time>
</trkpt>
<trkpt lat="59.0966620" lon="30.0372110">
<ele>79.705200</ele>
<time>2026-04-25T13:45:50.003Z</time>
</trkpt>
<trkpt lat="59.0966810" lon="30.0374690">
<ele>81.381599</ele>
<time>2026-04-25T13:46:03.999Z</time>
</trkpt>
<trkpt lat="59.0968220" lon="30.0379300">
<ele>69.768715</ele>
<time>2026-04-25T13:46:44.996Z</time>
</trkpt>
<trkpt lat="59.0968080" lon="30.0381010">
<ele>71.353683</ele>
<time>2026-04-25T13:46:56.997Z</time>
</trkpt>
<trkpt lat="59.0968710" lon="30.0385910">
<ele>72.969116</ele>
<time>2026-04-25T13:47:38.003Z</time>
</trkpt>
<trkpt lat="59.0970170" lon="30.0386960">
<ele>75.742798</ele>
<time>2026-04-25T13:48:00.000Z</time>
</trkpt>
<trkpt lat="59.0970940" lon="30.0386180">
<ele>78.150719</ele>
<time>2026-04-25T13:48:13.003Z</time>
</trkpt>
<trkpt lat="59.0971870" lon="30.0385980">
<ele>74.554085</ele>
<time>2026-04-25T13:48:45.999Z</time>
</trkpt>
<trkpt lat="59.0970950" lon="30.0379180">
<ele>72.450958</ele>
<time>2026-04-25T13:49:38.997Z</time>
</trkpt>
<trkpt lat="59.0969010" lon="30.0376840">
<ele>71.597519</ele>
<time>2026-04-25T13:50:24.996Z</time>
</trkpt>
<trkpt lat="59.0968360" lon="30.0375370">
<ele>71.140320</ele>
<time>2026-04-25T13:50:39.002Z</time>
</trkpt>
<trkpt lat="59.0967690" lon="30.0372170">
<ele>72.664322</ele>
<time>2026-04-25T13:51:10.002Z</time>
</trkpt>
<trkpt lat="59.0967640" lon="30.0370500">
<ele>72.877686</ele>
<time>2026-04-25T13:51:22.003Z</time>
</trkpt>
<trkpt lat="59.0967970" lon="30.0368660">
<ele>72.816719</ele>
<time>2026-04-25T13:51:37.002Z</time>
</trkpt>
<trkpt lat="59.0967820" lon="30.0363760">
<ele>74.188316</ele>
<time>2026-04-25T13:52:31.002Z</time>
</trkpt>
<trkpt lat="59.0966440" lon="30.0358650">
<ele>71.140320</ele>
<time>2026-04-25T13:53:14.997Z</time>
</trkpt>
<trkpt lat="59.0965730" lon="30.0357730">
<ele>67.391281</ele>
<time>2026-04-25T13:53:28.000Z</time>
</trkpt>
<trkpt lat="59.0965350" lon="30.0355660">
<ele>67.543678</ele>
<time>2026-04-25T13:53:41.997Z</time>
</trkpt>
<trkpt lat="59.0965250" lon="30.0352640">
<ele>66.050156</ele>
<time>2026-04-25T13:54:15.002Z</time>
</trkpt>
<trkpt lat="59.0964730" lon="30.0350110">
<ele>69.646797</ele>
<time>2026-04-25T13:54:28.999Z</time>
</trkpt>
<trkpt lat="59.0965160" lon="30.0348300">
<ele>72.908157</ele>
<time>2026-04-25T13:54:43.004Z</time>
</trkpt>
<trkpt lat="59.0965980" lon="30.0347950">
<ele>74.127357</ele>
<time>2026-04-25T13:55:01.001Z</time>
</trkpt>
<trkpt lat="59.0966670" lon="30.0345110">
<ele>74.797920</ele>
<time>2026-04-25T13:56:22.001Z</time>
</trkpt>
<trkpt lat="59.0966470" lon="30.0346560">
<ele>73.974960</ele>
<time>2026-04-25T13:57:28.002Z</time>
</trkpt>
<trkpt lat="59.0966730" lon="30.0353610">
<ele>73.091042</ele>
<time>2026-04-25T13:58:18.002Z</time>
</trkpt>
<trkpt lat="59.0967390" lon="30.0358120">
<ele>79.491837</ele>
<time>2026-04-25T13:59:01.997Z</time>
</trkpt>
<trkpt lat="59.0968020" lon="30.0358690">
<ele>79.217522</ele>
<time>2026-04-25T13:59:15.000Z</time>
</trkpt>
<trkpt lat="59.0969060" lon="30.0364330">
<ele>76.901039</ele>
<time>2026-04-25T13:59:56.999Z</time>
</trkpt>
<trkpt lat="59.0969410" lon="30.0373090">
<ele>79.369919</ele>
<time>2026-04-25T14:00:50.999Z</time>
</trkpt>
<trkpt lat="59.0970610" lon="30.0375760">
<ele>76.992485</ele>
<time>2026-04-25T14:01:17.999Z</time>
</trkpt>
<trkpt lat="59.0971040" lon="30.0377680">
<ele>80.192879</ele>
<time>2026-04-25T14:01:28.998Z</time>
</trkpt>
<trkpt lat="59.0971310" lon="30.0382900">
<ele>76.626717</ele>
<time>2026-04-25T14:02:09.001Z</time>
</trkpt>
<trkpt lat="59.0972060" lon="30.0385420">
<ele>76.657204</ele>
<time>2026-04-25T14:02:47.000Z</time>
</trkpt>
<trkpt lat="59.0972090" lon="30.0384860">
<ele>74.919838</ele>
<time>2026-04-25T14:03:28.999Z</time>
</trkpt>
<trkpt lat="59.0972760" lon="30.0385060">
<ele>75.438004</ele>
<time>2026-04-25T14:04:02.004Z</time>
</trkpt>
<trkpt lat="59.0973760" lon="30.0384300">
<ele>74.858879</ele>
<time>2026-04-25T14:04:20.001Z</time>
</trkpt>
<trkpt lat="59.0973350" lon="30.0382000">
<ele>74.096878</ele>
<time>2026-04-25T14:04:35.000Z</time>
</trkpt>
<trkpt lat="59.0973520" lon="30.0381410">
<ele>73.182480</ele>
<time>2026-04-25T14:04:45.998Z</time>
</trkpt>
<trkpt lat="59.0972950" lon="30.0379180">
<ele>70.134483</ele>
<time>2026-04-25T14:04:59.002Z</time>
</trkpt>
<trkpt lat="59.0972090" lon="30.0373310">
<ele>69.921120</ele>
<time>2026-04-25T14:05:50.004Z</time>
</trkpt>
<trkpt lat="59.0970200" lon="30.0368020">
<ele>67.421761</ele>
<time>2026-04-25T14:06:48.004Z</time>
</trkpt>
<trkpt lat="59.0969880" lon="30.0367910">
<ele>68.640961</ele>
<time>2026-04-25T14:07:15.997Z</time>
</trkpt>
<trkpt lat="59.0970040" lon="30.0368010">
<ele>70.195442</ele>
<time>2026-04-25T14:07:56.001Z</time>
</trkpt>
<trkpt lat="59.0969830" lon="30.0367570">
<ele>68.000885</ele>
<time>2026-04-25T14:08:24.003Z</time>
</trkpt>
<trkpt lat="59.0969550" lon="30.0362870">
<ele>69.494400</ele>
<time>2026-04-25T14:08:58.001Z</time>
</trkpt>
<trkpt lat="59.0969910" lon="30.0360760">
<ele>68.519043</ele>
<time>2026-04-25T14:09:15.998Z</time>
</trkpt>
<trkpt lat="59.0968950" lon="30.0357790">
<ele>66.385445</ele>
<time>2026-04-25T14:09:49.997Z</time>
</trkpt>
<trkpt lat="59.0968450" lon="30.0354590">
<ele>66.629280</ele>
<time>2026-04-25T14:10:28.004Z</time>
</trkpt>
<trkpt lat="59.0967920" lon="30.0353490">
<ele>67.025520</ele>
<time>2026-04-25T14:10:40.999Z</time>
</trkpt>
<trkpt lat="59.0967270" lon="30.0348400">
<ele>67.726563</ele>
<time>2026-04-25T14:11:24.000Z</time>
</trkpt>
<trkpt lat="59.0967320" lon="30.0346630">
<ele>68.397118</ele>
<time>2026-04-25T14:11:41.004Z</time>
</trkpt>
<trkpt lat="59.0968200" lon="30.0346000">
<ele>67.452240</ele>
<time>2026-04-25T14:11:56.996Z</time>
</trkpt>
<trkpt lat="59.0968920" lon="30.0346740">
<ele>72.755760</ele>
<time>2026-04-25T14:13:29.004Z</time>
</trkpt>
<trkpt lat="59.0968620" lon="30.0348210">
<ele>70.408798</ele>
<time>2026-04-25T14:13:40.002Z</time>
</trkpt>
<trkpt lat="59.0970490" lon="30.0353900">
<ele>63.794640</ele>
<time>2026-04-25T14:14:41.001Z</time>
</trkpt>
<trkpt lat="59.0971730" lon="30.0360150">
<ele>65.684402</ele>
<time>2026-04-25T14:15:51.002Z</time>
</trkpt>
<trkpt lat="59.0971220" lon="30.0367950">
<ele>64.129921</ele>
<time>2026-04-25T14:16:54.998Z</time>
</trkpt>
<trkpt lat="59.0972230" lon="30.0368990">
<ele>66.080643</ele>
<time>2026-04-25T14:17:09.004Z</time>
</trkpt>
<trkpt lat="59.0972010" lon="30.0369340">
<ele>65.897758</ele>
<time>2026-04-25T14:17:32.997Z</time>
</trkpt>
<trkpt lat="59.0972140" lon="30.0370180">
<ele>66.720718</ele>
<time>2026-04-25T14:17:59.997Z</time>
</trkpt>
<trkpt lat="59.0972440" lon="30.0369130">
<ele>66.598801</ele>
<time>2026-04-25T14:18:22.997Z</time>
</trkpt>
<trkpt lat="59.0972590" lon="30.0372090">
<ele>66.751198</ele>
<time>2026-04-25T14:20:06.003Z</time>
</trkpt>
<trkpt lat="59.0973230" lon="30.0373520">
<ele>66.354958</ele>
<time>2026-04-25T14:21:08.997Z</time>
</trkpt>
<trkpt lat="59.0974010" lon="30.0381480">
<ele>69.616318</ele>
<time>2026-04-25T14:22:37.004Z</time>
</trkpt>
<trkpt lat="59.0974360" lon="30.0382990">
<ele>68.915283</ele>
<time>2026-04-25T14:22:48.003Z</time>
</trkpt>
<trkpt lat="59.0975270" lon="30.0384110">
<ele>67.878960</ele>
<time>2026-04-25T14:23:03.002Z</time>
</trkpt>
<trkpt lat="59.0975960" lon="30.0382850">
<ele>67.025520</ele>
<time>2026-04-25T14:23:16.999Z</time>
</trkpt>
<trkpt lat="59.0976300" lon="30.0381080">
<ele>67.787521</ele>
<time>2026-04-25T14:23:57.002Z</time>
</trkpt>
<trkpt lat="59.0976120" lon="30.0378590">
<ele>64.739517</ele>
<time>2026-04-25T14:24:39.001Z</time>
</trkpt>
<trkpt lat="59.0974410" lon="30.0372870">
<ele>62.666882</ele>
<time>2026-04-25T14:25:37.001Z</time>
</trkpt>
<trkpt lat="59.0974380" lon="30.0371350">
<ele>61.722000</ele>
<time>2026-04-25T14:25:50.998Z</time>
</trkpt>
<trkpt lat="59.0973720" lon="30.0369300">
<ele>63.855598</ele>
<time>2026-04-25T14:26:09.997Z</time>
</trkpt>
<trkpt lat="59.0972820" lon="30.0363450">
<ele>63.733681</ele>
<time>2026-04-25T14:26:55.997Z</time>
</trkpt>
<trkpt lat="59.0972430" lon="30.0362150">
<ele>64.068962</ele>
<time>2026-04-25T14:27:44.001Z</time>
</trkpt>
<trkpt lat="59.0972360" lon="30.0363070">
<ele>65.714882</ele>
<time>2026-04-25T14:28:51.997Z</time>
</trkpt>
<trkpt lat="59.0972470" lon="30.0362490">
<ele>65.714882</ele>
<time>2026-04-25T14:29:34.999Z</time>
</trkpt>
<trkpt lat="59.0971990" lon="30.0362400">
<ele>65.531998</ele>
<time>2026-04-25T14:29:57.998Z</time>
</trkpt>
<trkpt lat="59.0971890" lon="30.0363410">
<ele>69.555359</ele>
<time>2026-04-25T14:30:55.999Z</time>
</trkpt>
<trkpt lat="59.0972130" lon="30.0362370">
<ele>68.366638</ele>
<time>2026-04-25T14:31:21.003Z</time>
</trkpt>
<trkpt lat="59.0971880" lon="30.0362570">
<ele>63.611759</ele>
<time>2026-04-25T14:34:23.998Z</time>
</trkpt>
<trkpt lat="59.0972280" lon="30.0363120">
<ele>64.312798</ele>
<time>2026-04-25T14:35:06.999Z</time>
</trkpt>
<trkpt lat="59.0972530" lon="30.0362340">
<ele>65.684402</ele>
<time>2026-04-25T14:35:43.996Z</time>
</trkpt>
<trkpt lat="59.0971880" lon="30.0363410">
<ele>66.415916</ele>
<time>2026-04-25T14:36:13.000Z</time>
</trkpt>
<trkpt lat="59.0971660" lon="30.0362790">
<ele>67.452240</ele>
<time>2026-04-25T14:37:21.999Z</time>
</trkpt>
<trkpt lat="59.0972690" lon="30.0361990">
<ele>67.818001</ele>
<time>2026-04-25T14:38:18.997Z</time>
</trkpt>
<trkpt lat="59.0972640" lon="30.0358980">
<ele>66.354958</ele>
<time>2026-04-25T14:38:48.002Z</time>
</trkpt>
<trkpt lat="59.0972470" lon="30.0357170">
<ele>64.221359</ele>
<time>2026-04-25T14:39:04.003Z</time>
</trkpt>
<trkpt lat="59.0971860" lon="30.0355420">
<ele>61.112400</ele>
<time>2026-04-25T14:39:18.000Z</time>
</trkpt>
<trkpt lat="59.0972240" lon="30.0353560">
<ele>60.777119</ele>
<time>2026-04-25T14:39:31.003Z</time>
</trkpt>
<trkpt lat="59.0970250" lon="30.0347920">
<ele>62.331600</ele>
<time>2026-04-25T14:40:45.998Z</time>
</trkpt>
<trkpt lat="59.0970240" lon="30.0346000">
<ele>63.276482</ele>
<time>2026-04-25T14:40:59.002Z</time>
</trkpt>
<trkpt lat="59.0970490" lon="30.0345220">
<ele>62.453518</ele>
<time>2026-04-25T14:41:15.996Z</time>
</trkpt>
<trkpt lat="59.0970170" lon="30.0345690">
<ele>57.881519</ele>
<time>2026-04-25T14:42:56.998Z</time>
</trkpt>
<trkpt lat="59.0971890" lon="30.0345730">
<ele>61.325760</ele>
<time>2026-04-25T14:43:26.003Z</time>
</trkpt>
<trkpt lat="59.0973210" lon="30.0348530">
<ele>62.057281</ele>
<time>2026-04-25T14:43:53.003Z</time>
</trkpt>
<trkpt lat="59.0973360" lon="30.0351910">
<ele>64.343285</ele>
<time>2026-04-25T14:44:19.000Z</time>
</trkpt>
<trkpt lat="59.0974290" lon="30.0358220">
<ele>68.061844</ele>
<time>2026-04-25T14:45:05.000Z</time>
</trkpt>
<trkpt lat="59.0974560" lon="30.0365930">
<ele>72.115685</ele>
<time>2026-04-25T14:46:00.002Z</time>
</trkpt>
<trkpt lat="59.0976760" lon="30.0374920">
<ele>73.853043</ele>
<time>2026-04-25T14:47:33.003Z</time>
</trkpt>
<trkpt lat="59.0976630" lon="30.0380540">
<ele>71.445122</ele>
<time>2026-04-25T14:48:26.001Z</time>
</trkpt>
<trkpt lat="59.0976990" lon="30.0381880">
<ele>69.799202</ele>
<time>2026-04-25T14:48:43.004Z</time>
</trkpt>
<trkpt lat="59.0977920" lon="30.0382740">
<ele>70.225922</ele>
<time>2026-04-25T14:48:58.997Z</time>
</trkpt>
<trkpt lat="59.0978480" lon="30.0382660">
<ele>70.896484</ele>
<time>2026-04-25T14:49:13.996Z</time>
</trkpt>
<trkpt lat="59.0978290" lon="30.0383640">
<ele>73.548241</ele>
<time>2026-04-25T14:49:55.001Z</time>
</trkpt>
<trkpt lat="59.0978550" lon="30.0382400">
<ele>74.858879</ele>
<time>2026-04-25T14:50:18.001Z</time>
</trkpt>
<trkpt lat="59.0978850" lon="30.0382490">
<ele>74.676003</ele>
<time>2026-04-25T14:50:47.999Z</time>
</trkpt>
<trkpt lat="59.0978500" lon="30.0377370">
<ele>67.147438</ele>
<time>2026-04-25T14:52:14.002Z</time>
</trkpt>
<trkpt lat="59.0978680" lon="30.0375930">
<ele>64.922401</ele>
<time>2026-04-25T14:52:42.004Z</time>
</trkpt>
<trkpt lat="59.0976640" lon="30.0366180">
<ele>62.880241</ele>
<time>2026-04-25T14:54:02.002Z</time>
</trkpt>
<trkpt lat="59.0976350" lon="30.0363490">
<ele>63.764160</ele>
<time>2026-04-25T14:54:41.003Z</time>
</trkpt>
<trkpt lat="59.0976640" lon="30.0358890">
<ele>66.720718</ele>
<time>2026-04-25T14:55:17.999Z</time>
</trkpt>
<trkpt lat="59.0975800" lon="30.0357870">
<ele>68.153282</ele>
<time>2026-04-25T14:55:35.996Z</time>
</trkpt>
<trkpt lat="59.0974600" lon="30.0353270">
<ele>68.519043</ele>
<time>2026-04-25T14:56:09.001Z</time>
</trkpt>
<trkpt lat="59.0974950" lon="30.0344790">
<ele>72.389999</ele>
<time>2026-04-25T14:57:12.997Z</time>
</trkpt>
<trkpt lat="59.0975600" lon="30.0345550">
<ele>72.481438</ele>
<time>2026-04-25T14:59:45.001Z</time>
</trkpt>
<trkpt lat="59.0976050" lon="30.0348150">
<ele>72.024239</ele>
<time>2026-04-25T15:00:04.000Z</time>
</trkpt>
<trkpt lat="59.0975620" lon="30.0349770">
<ele>72.847198</ele>
<time>2026-04-25T15:00:35.001Z</time>
</trkpt>
<trkpt lat="59.0975790" lon="30.0352070">
<ele>76.687683</ele>
<time>2026-04-25T15:01:25.000Z</time>
</trkpt>
<trkpt lat="59.0976530" lon="30.0353680">
<ele>76.443840</ele>
<time>2026-04-25T15:01:38.004Z</time>
</trkpt>
<trkpt lat="59.0976860" lon="30.0355490">
<ele>75.072243</ele>
<time>2026-04-25T15:01:50.998Z</time>
</trkpt>
<trkpt lat="59.0977450" lon="30.0359700">
<ele>75.620880</ele>
<time>2026-04-25T15:02:29.999Z</time>
</trkpt>
<trkpt lat="59.0977390" lon="30.0361490">
<ele>77.297279</ele>
<time>2026-04-25T15:02:40.004Z</time>
</trkpt>
<trkpt lat="59.0977560" lon="30.0362320">
<ele>77.723999</ele>
<time>2026-04-25T15:02:44.998Z</time>
</trkpt>
<trkpt lat="59.0978270" lon="30.0363320">
<ele>74.645515</ele>
<time>2026-04-25T15:02:59.004Z</time>
</trkpt>
<trkpt lat="59.0978560" lon="30.0367030">
<ele>74.889359</ele>
<time>2026-04-25T15:03:22.997Z</time>
</trkpt>
<trkpt lat="59.0978240" lon="30.0372150">
<ele>74.584557</ele>
<time>2026-04-25T15:04:05.998Z</time>
</trkpt>
<trkpt lat="59.0979240" lon="30.0377370">
<ele>76.017120</ele>
<time>2026-04-25T15:04:48.999Z</time>
</trkpt>
<trkpt lat="59.0980200" lon="30.0377190">
<ele>72.725281</ele>
<time>2026-04-25T15:05:28.000Z</time>
</trkpt>
<trkpt lat="59.0981070" lon="30.0377990">
<ele>73.517761</ele>
<time>2026-04-25T15:05:49.998Z</time>
</trkpt>
<trkpt lat="59.0981640" lon="30.0378670">
<ele>73.914001</ele>
<time>2026-04-25T15:06:00.003Z</time>
</trkpt>
<trkpt lat="59.0982090" lon="30.0380350">
<ele>73.883514</ele>
<time>2026-04-25T15:06:14.000Z</time>
</trkpt>
<trkpt lat="59.0982640" lon="30.0380850">
<ele>74.218803</ele>
<time>2026-04-25T15:06:27.003Z</time>
</trkpt>
<trkpt lat="59.0982250" lon="30.0378610">
<ele>69.677284</ele>
<time>2026-04-25T15:07:02.997Z</time>
</trkpt>
<trkpt lat="59.0981040" lon="30.0375540">
<ele>66.233040</ele>
<time>2026-04-25T15:07:43.000Z</time>
</trkpt>
<trkpt lat="59.0980890" lon="30.0372920">
<ele>65.013840</ele>
<time>2026-04-25T15:08:10.000Z</time>
</trkpt>
<trkpt lat="59.0979370" lon="30.0366540">
<ele>72.664322</ele>
<time>2026-04-25T15:09:00.000Z</time>
</trkpt>
<trkpt lat="59.0979680" lon="30.0365490">
<ele>69.585838</ele>
<time>2026-04-25T15:09:14.999Z</time>
</trkpt>
<trkpt lat="59.0979530" lon="30.0363380">
<ele>67.726563</ele>
<time>2026-04-25T15:09:31.000Z</time>
</trkpt>
<trkpt lat="59.0978360" lon="30.0357480">
<ele>66.964561</ele>
<time>2026-04-25T15:10:12.999Z</time>
</trkpt>
<trkpt lat="59.0978490" lon="30.0354900">
<ele>68.793358</ele>
<time>2026-04-25T15:10:42.997Z</time>
</trkpt>
<trkpt lat="59.0977930" lon="30.0350120">
<ele>66.812157</ele>
<time>2026-04-25T15:12:38.998Z</time>
</trkpt>
<trkpt lat="59.0977720" lon="30.0348650">
<ele>67.238884</ele>
<time>2026-04-25T15:12:49.997Z</time>
</trkpt>
<trkpt lat="59.0976850" lon="30.0347090">
<ele>68.366638</ele>
<time>2026-04-25T15:13:04.002Z</time>
</trkpt>
<trkpt lat="59.0976670" lon="30.0345410">
<ele>69.829681</ele>
<time>2026-04-25T15:13:16.003Z</time>
</trkpt>
<trkpt lat="59.0977210" lon="30.0344140">
<ele>69.982079</ele>
<time>2026-04-25T15:13:28.998Z</time>
</trkpt>
<trkpt lat="59.0976740" lon="30.0340550">
<ele>69.555359</ele>
<time>2026-04-25T15:13:57.000Z</time>
</trkpt>
<trkpt lat="59.0978050" lon="30.0344250">
<ele>69.128639</ele>
<time>2026-04-25T15:14:45.997Z</time>
</trkpt>
<trkpt lat="59.0978710" lon="30.0344710">
<ele>72.085197</ele>
<time>2026-04-25T15:15:04.003Z</time>
</trkpt>
<trkpt lat="59.0979030" lon="30.0345780">
<ele>75.011284</ele>
<time>2026-04-25T15:15:16.004Z</time>
</trkpt>
<trkpt lat="59.0979210" lon="30.0353970">
<ele>76.809601</ele>
<time>2026-04-25T15:16:35.000Z</time>
</trkpt>
<trkpt lat="59.0980180" lon="30.0359410">
<ele>75.956161</ele>
<time>2026-04-25T15:17:19.003Z</time>
</trkpt>
<trkpt lat="59.0981140" lon="30.0361950">
<ele>74.279762</ele>
<time>2026-04-25T15:17:46.003Z</time>
</trkpt>
<trkpt lat="59.0980950" lon="30.0361640">
<ele>73.152000</ele>
<time>2026-04-25T15:18:21.997Z</time>
</trkpt>
<trkpt lat="59.0980880" lon="30.0363890">
<ele>73.548241</ele>
<time>2026-04-25T15:19:44.000Z</time>
</trkpt>
<trkpt lat="59.0981290" lon="30.0364760">
<ele>74.096878</ele>
<time>2026-04-25T15:19:57.996Z</time>
</trkpt>
<trkpt lat="59.0981460" lon="30.0367470">
<ele>70.500244</ele>
<time>2026-04-25T15:20:59.997Z</time>
</trkpt>
<trkpt lat="59.0982550" lon="30.0370110">
<ele>72.420479</ele>
<time>2026-04-25T15:21:37.996Z</time>
</trkpt>
<trkpt lat="59.0983270" lon="30.0375060">
<ele>71.963280</ele>
<time>2026-04-25T15:22:30.000Z</time>
</trkpt>
<trkpt lat="59.0983670" lon="30.0375500">
<ele>70.865997</ele>
<time>2026-04-25T15:22:50.002Z</time>
</trkpt>
<trkpt lat="59.0984390" lon="30.0378400">
<ele>71.597519</ele>
<time>2026-04-25T15:23:17.002Z</time>
</trkpt>
<trkpt lat="59.0984810" lon="30.0378800">
<ele>70.286880</ele>
<time>2026-04-25T15:23:29.003Z</time>
</trkpt>
<trkpt lat="59.0985350" lon="30.0377220">
<ele>68.793358</ele>
<time>2026-04-25T15:23:40.001Z</time>
</trkpt>
<trkpt lat="59.0985060" lon="30.0373370">
<ele>67.482719</ele>
<time>2026-04-25T15:24:11.002Z</time>
</trkpt>
<trkpt lat="59.0983730" lon="30.0369170">
<ele>65.592957</ele>
<time>2026-04-25T15:24:50.996Z</time>
</trkpt>
<trkpt lat="59.0983650" lon="30.0367230">
<ele>62.118240</ele>
<time>2026-04-25T15:25:18.998Z</time>
</trkpt>
<trkpt lat="59.0983210" lon="30.0366510">
<ele>62.057281</ele>
<time>2026-04-25T15:25:36.002Z</time>
</trkpt>
<trkpt lat="59.0983410" lon="30.0365170">
<ele>60.655201</ele>
<time>2026-04-25T15:26:11.996Z</time>
</trkpt>
<trkpt lat="59.0981840" lon="30.0360820">
<ele>62.941200</ele>
<time>2026-04-25T15:27:06.998Z</time>
</trkpt>
<trkpt lat="59.0981450" lon="30.0358360">
<ele>65.592957</ele>
<time>2026-04-25T15:27:44.004Z</time>
</trkpt>
<trkpt lat="59.0980930" lon="30.0357780">
<ele>66.111115</ele>
<time>2026-04-25T15:28:21.000Z</time>
</trkpt>
<trkpt lat="59.0981010" lon="30.0353940">
<ele>66.233040</ele>
<time>2026-04-25T15:29:32.004Z</time>
</trkpt>
<trkpt lat="59.0980390" lon="30.0352430">
<ele>62.453518</ele>
<time>2026-04-25T15:29:43.996Z</time>
</trkpt>
<trkpt lat="59.0979720" lon="30.0348190">
<ele>65.013840</ele>
<time>2026-04-25T15:30:11.998Z</time>
</trkpt>
<trkpt lat="59.0979910" lon="30.0344550">
<ele>65.379601</ele>
<time>2026-04-25T15:30:37.002Z</time>
</trkpt>
<trkpt lat="59.0979700" lon="30.0342810">
<ele>62.148720</ele>
<time>2026-04-25T15:30:46.999Z</time>
</trkpt>
<trkpt lat="59.0980060" lon="30.0339400">
<ele>67.360802</ele>
<time>2026-04-25T15:31:27.002Z</time>
</trkpt>
<trkpt lat="59.0980830" lon="30.0339800">
<ele>66.751198</ele>
<time>2026-04-25T15:32:07.999Z</time>
</trkpt>
<trkpt lat="59.0981220" lon="30.0338100">
<ele>77.480156</ele>
<time>2026-04-25T15:35:26.002Z</time>
</trkpt>
<trkpt lat="59.0981450" lon="30.0339430">
<ele>76.626717</ele>
<time>2026-04-25T15:40:05.998Z</time>
</trkpt>
<trkpt lat="59.0980780" lon="30.0340940">
<ele>76.078079</ele>
<time>2026-04-25T15:41:28.000Z</time>
</trkpt>
<trkpt lat="59.0981350" lon="30.0340070">
<ele>77.998322</ele>
<time>2026-04-25T15:41:49.004Z</time>
</trkpt>
<trkpt lat="59.0982150" lon="30.0342440">
<ele>77.815437</ele>
<time>2026-04-25T15:42:50.003Z</time>
</trkpt>
<trkpt lat="59.0981720" lon="30.0351120">
<ele>76.047600</ele>
<time>2026-04-25T15:43:49.999Z</time>
</trkpt>
<trkpt lat="59.0982540" lon="30.0356540">
<ele>76.901039</ele>
<time>2026-04-25T15:44:22.001Z</time>
</trkpt>
<trkpt lat="59.0983600" lon="30.0359400">
<ele>80.040482</ele>
<time>2026-04-25T15:44:58.998Z</time>
</trkpt>
<trkpt lat="59.0984190" lon="30.0364340">
<ele>78.028801</ele>
<time>2026-04-25T15:45:32.003Z</time>
</trkpt>
<trkpt lat="59.0985800" lon="30.0367120">
<ele>78.028801</ele>
<time>2026-04-25T15:47:52.999Z</time>
</trkpt>
<trkpt lat="59.0986150" lon="30.0368630">
<ele>77.236320</ele>
<time>2026-04-25T15:48:07.998Z</time>
</trkpt>
<trkpt lat="59.0985960" lon="30.0370620">
<ele>77.449684</ele>
<time>2026-04-25T15:48:21.001Z</time>
</trkpt>
<trkpt lat="59.0986660" lon="30.0375040">
<ele>74.249283</ele>
<time>2026-04-25T15:48:53.004Z</time>
</trkpt>
<trkpt lat="59.0987960" lon="30.0377660">
<ele>75.407516</ele>
<time>2026-04-25T15:49:19.001Z</time>
</trkpt>
<trkpt lat="59.0988110" lon="30.0376310">
<ele>73.487282</ele>
<time>2026-04-25T15:49:43.003Z</time>
</trkpt>
<trkpt lat="59.0987670" lon="30.0373350">
<ele>74.340721</ele>
<time>2026-04-25T15:49:59.998Z</time>
</trkpt>
<trkpt lat="59.0986970" lon="30.0372400">
<ele>74.035919</ele>
<time>2026-04-25T15:50:13.001Z</time>
</trkpt>
<trkpt lat="59.0987180" lon="30.0370690">
<ele>75.255119</ele>
<time>2026-04-25T15:50:26.998Z</time>
</trkpt>
<trkpt lat="59.0986760" lon="30.0368440">
<ele>75.620880</ele>
<time>2026-04-25T15:50:59.001Z</time>
</trkpt>
<trkpt lat="59.0985630" lon="30.0363880">
<ele>76.535278</ele>
<time>2026-04-25T15:51:45.000Z</time>
</trkpt>
<trkpt lat="59.0984850" lon="30.0359020">
<ele>79.126083</ele>
<time>2026-04-25T15:52:18.998Z</time>
</trkpt>
<trkpt lat="59.0983250" lon="30.0355050">
<ele>80.253838</ele>
<time>2026-04-25T15:53:04.998Z</time>
</trkpt>
<trkpt lat="59.0983500" lon="30.0351640">
<ele>80.253838</ele>
<time>2026-04-25T15:54:09.996Z</time>
</trkpt>
<trkpt lat="59.0983730" lon="30.0352170">
<ele>81.930237</ele>
<time>2026-04-25T15:54:50.000Z</time>
</trkpt>
<trkpt lat="59.0984050" lon="30.0345850">
<ele>81.259682</ele>
<time>2026-04-25T15:55:54.998Z</time>
</trkpt>
<trkpt lat="59.0984040" lon="30.0343120">
<ele>81.960716</ele>
<time>2026-04-25T15:56:47.003Z</time>
</trkpt>
<trkpt lat="59.0983620" lon="30.0342090">
<ele>82.875114</ele>
<time>2026-04-25T15:57:15.998Z</time>
</trkpt>
<trkpt lat="59.0983630" lon="30.0340520">
<ele>83.484718</ele>
<time>2026-04-25T15:57:40.000Z</time>
</trkpt>
<trkpt lat="59.0984300" lon="30.0339370">
<ele>82.235039</ele>
<time>2026-04-25T15:57:52.001Z</time>
</trkpt>
<trkpt lat="59.0985410" lon="30.0338720">
<ele>81.442566</ele>
<time>2026-04-25T15:58:12.003Z</time>
</trkpt>
<trkpt lat="59.0986380" lon="30.0336880">
<ele>81.381599</ele>
<time>2026-04-25T15:58:26.000Z</time>
</trkpt>
<trkpt lat="59.0987210" lon="30.0336780">
<ele>80.589119</ele>
<time>2026-04-25T15:58:46.001Z</time>
</trkpt>
<trkpt lat="59.0987630" lon="30.0337520">
<ele>79.491837</ele>
<time>2026-04-25T15:58:54.002Z</time>
</trkpt>
<trkpt lat="59.0991710" lon="30.0337260">
<ele>81.777840</ele>
<time>2026-04-25T15:59:45.004Z</time>
</trkpt>
<trkpt lat="59.0992370" lon="30.0336320">
<ele>82.021683</ele>
<time>2026-04-25T15:59:59.001Z</time>
</trkpt>
<trkpt lat="59.0993580" lon="30.0335580">
<ele>81.930237</ele>
<time>2026-04-25T16:00:14.000Z</time>
</trkpt>
<trkpt lat="59.0994440" lon="30.0335660">
<ele>81.198715</ele>
<time>2026-04-25T16:00:27.003Z</time>
</trkpt>
<trkpt lat="59.0999020" lon="30.0332730">
<ele>84.094315</ele>
<time>2026-04-25T16:03:31.000Z</time>
</trkpt>
<trkpt lat="59.0999690" lon="30.0331550">
<ele>83.576164</ele>
<time>2026-04-25T16:03:52.004Z</time>
</trkpt>
<trkpt lat="59.1000490" lon="30.0332670">
<ele>81.168236</ele>
<time>2026-04-25T16:04:08.999Z</time>
</trkpt>
<trkpt lat="59.1001390" lon="30.0330780">
<ele>77.906883</ele>
<time>2026-04-25T16:04:27.998Z</time>
</trkpt>
<trkpt lat="59.1002310" lon="30.0330960">
<ele>78.089767</ele>
<time>2026-04-25T16:04:41.002Z</time>
</trkpt>
<trkpt lat="59.1003690" lon="30.0329950">
<ele>76.230484</ele>
<time>2026-04-25T16:05:23.001Z</time>
</trkpt>
<trkpt lat="59.1002870" lon="30.0322660">
<ele>74.218803</ele>
<time>2026-04-25T16:07:44.999Z</time>
</trkpt>
<trkpt lat="59.1001690" lon="30.0315620">
<ele>74.432159</ele>
<time>2026-04-25T16:08:21.002Z</time>
</trkpt>
</trkseg>
</trk>
<trk>
 <name>20260425_Lisa93</name>
 <desc>20260425_Lisa93</desc>
<trkseg>
<trkpt lat="59.1011920" lon="30.0369740">
<ele>247.985275</ele>
<time>2026-04-25T12:29:00.001Z</time>
</trkpt>
<trkpt lat="59.1012090" lon="30.0369900">
<ele>247.619522</ele>
<time>2026-04-25T12:29:31.001Z</time>
</trkpt>
<trkpt lat="59.1012240" lon="30.0369210">
<ele>247.314728</ele>
<time>2026-04-25T12:30:18.996Z</time>
</trkpt>
<trkpt lat="59.1011450" lon="30.0369610">
<ele>248.290070</ele>
<time>2026-04-25T12:30:48.001Z</time>
</trkpt>
<trkpt lat="59.1011120" lon="30.0370650">
<ele>246.705124</ele>
<time>2026-04-25T12:31:12.996Z</time>
</trkpt>
<trkpt lat="59.1011710" lon="30.0369970">
<ele>247.101364</ele>
<time>2026-04-25T12:32:30.998Z</time>
</trkpt>
<trkpt lat="59.1011330" lon="30.0370730">
<ele>248.503433</ele>
<time>2026-04-25T12:33:42.002Z</time>
</trkpt>
<trkpt lat="59.1010920" lon="30.0368990">
<ele>248.594879</ele>
<time>2026-04-25T12:34:51.001Z</time>
</trkpt>
<trkpt lat="59.1009800" lon="30.0369410">
<ele>248.838730</ele>
<time>2026-04-25T12:35:35.998Z</time>
</trkpt>
<trkpt lat="59.1008720" lon="30.0370460">
<ele>248.838730</ele>
<time>2026-04-25T12:35:58.004Z</time>
</trkpt>
<trkpt lat="59.1007640" lon="30.0370470">
<ele>248.472961</ele>
<time>2026-04-25T12:36:16.001Z</time>
</trkpt>
<trkpt lat="59.1006260" lon="30.0371880">
<ele>248.320557</ele>
<time>2026-04-25T12:36:31.000Z</time>
</trkpt>
<trkpt lat="59.0998690" lon="30.0375370">
<ele>248.503433</ele>
<time>2026-04-25T12:38:05.004Z</time>
</trkpt>
<trkpt lat="59.0997850" lon="30.0376620">
<ele>248.899673</ele>
<time>2026-04-25T12:38:24.003Z</time>
</trkpt>
<trkpt lat="59.0996750" lon="30.0377220">
<ele>249.204468</ele>
<time>2026-04-25T12:38:43.996Z</time>
</trkpt>
<trkpt lat="59.0993690" lon="30.0376780">
<ele>249.143524</ele>
<time>2026-04-25T12:39:18.996Z</time>
</trkpt>
<trkpt lat="59.0989630" lon="30.0378130">
<ele>249.570236</ele>
<time>2026-04-25T12:40:12.003Z</time>
</trkpt>
<trkpt lat="59.0984250" lon="30.0381620">
<ele>249.204468</ele>
<time>2026-04-25T12:41:10.003Z</time>
</trkpt>
<trkpt lat="59.0979580" lon="30.0383250">
<ele>249.661667</ele>
<time>2026-04-25T12:42:04.003Z</time>
</trkpt>
<trkpt lat="59.0978350" lon="30.0384330">
<ele>249.814072</ele>
<time>2026-04-25T12:42:22.000Z</time>
</trkpt>
<trkpt lat="59.0975390" lon="30.0385420">
<ele>249.143524</ele>
<time>2026-04-25T12:42:58.003Z</time>
</trkpt>
<trkpt lat="59.0969660" lon="30.0388620">
<ele>249.600723</ele>
<time>2026-04-25T12:44:15.996Z</time>
</trkpt>
<trkpt lat="59.0967320" lon="30.0390520">
<ele>249.783600</ele>
<time>2026-04-25T12:44:51.999Z</time>
</trkpt>
<trkpt lat="59.0966290" lon="30.0390240">
<ele>249.509277</ele>
<time>2026-04-25T12:45:10.999Z</time>
</trkpt>
<trkpt lat="59.0964790" lon="30.0390810">
<ele>249.509277</ele>
<time>2026-04-25T12:45:31.000Z</time>
</trkpt>
<trkpt lat="59.0962970" lon="30.0392620">
<ele>249.936005</ele>
<time>2026-04-25T12:45:54.000Z</time>
</trkpt>
<trkpt lat="59.0958790" lon="30.0393640">
<ele>249.692169</ele>
<time>2026-04-25T12:46:50.998Z</time>
</trkpt>
<trkpt lat="59.0955270" lon="30.0395220">
<ele>250.210327</ele>
<time>2026-04-25T12:47:29.999Z</time>
</trkpt>
<trkpt lat="59.0952420" lon="30.0397300">
<ele>250.118866</ele>
<time>2026-04-25T12:48:07.998Z</time>
</trkpt>
<trkpt lat="59.0939730" lon="30.0402620">
<ele>250.484634</ele>
<time>2026-04-25T12:50:51.000Z</time>
</trkpt>
<trkpt lat="59.0931130" lon="30.0407190">
<ele>250.789429</ele>
<time>2026-04-25T12:52:36.002Z</time>
</trkpt>
<trkpt lat="59.0930450" lon="30.0408110">
<ele>250.454163</ele>
<time>2026-04-25T12:52:49.999Z</time>
</trkpt>
<trkpt lat="59.0929280" lon="30.0408160">
<ele>250.758957</ele>
<time>2026-04-25T12:53:04.998Z</time>
</trkpt>
<trkpt lat="59.0928250" lon="30.0409580">
<ele>250.667526</ele>
<time>2026-04-25T12:53:31.998Z</time>
</trkpt>
<trkpt lat="59.0928670" lon="30.0408810">
<ele>250.423676</ele>
<time>2026-04-25T12:57:30.004Z</time>
</trkpt>
<trkpt lat="59.0928450" lon="30.0409210">
<ele>250.545593</ele>
<time>2026-04-25T12:58:19.001Z</time>
</trkpt>
<trkpt lat="59.0928670" lon="30.0408960">
<ele>251.460007</ele>
<time>2026-04-25T12:59:45.004Z</time>
</trkpt>
<trkpt lat="59.0928100" lon="30.0408640">
<ele>250.728470</ele>
<time>2026-04-25T13:00:58.003Z</time>
</trkpt>
<trkpt lat="59.0928490" lon="30.0409620">
<ele>251.124725</ele>
<time>2026-04-25T13:01:57.999Z</time>
</trkpt>
<trkpt lat="59.0928440" lon="30.0409050">
<ele>252.069595</ele>
<time>2026-04-25T13:02:23.997Z</time>
</trkpt>
<trkpt lat="59.0927460" lon="30.0408640">
<ele>251.612396</ele>
<time>2026-04-25T13:03:18.999Z</time>
</trkpt>
<trkpt lat="59.0927210" lon="30.0409140">
<ele>252.313431</ele>
<time>2026-04-25T13:03:32.003Z</time>
</trkpt>
<trkpt lat="59.0924710" lon="30.0409620">
<ele>252.343933</ele>
<time>2026-04-25T13:04:23.998Z</time>
</trkpt>
<trkpt lat="59.0924670" lon="30.0409090">
<ele>252.343933</ele>
<time>2026-04-25T13:04:53.003Z</time>
</trkpt>
<trkpt lat="59.0922710" lon="30.0409990">
<ele>253.014465</ele>
<time>2026-04-25T13:05:42.000Z</time>
</trkpt>
<trkpt lat="59.0920820" lon="30.0410970">
<ele>254.172729</ele>
<time>2026-04-25T13:06:03.004Z</time>
</trkpt>
<trkpt lat="59.0919150" lon="30.0412620">
<ele>254.111771</ele>
<time>2026-04-25T13:06:25.001Z</time>
</trkpt>
<trkpt lat="59.0916470" lon="30.0414170">
<ele>253.989838</ele>
<time>2026-04-25T13:07:04.002Z</time>
</trkpt>
<trkpt lat="59.0915080" lon="30.0414440">
<ele>255.879593</ele>
<time>2026-04-25T13:07:19.001Z</time>
</trkpt>
<trkpt lat="59.0912670" lon="30.0416140">
<ele>255.544327</ele>
<time>2026-04-25T13:07:57.000Z</time>
</trkpt>
<trkpt lat="59.0913720" lon="30.0419170">
<ele>255.696732</ele>
<time>2026-04-25T13:09:27.996Z</time>
</trkpt>
<trkpt lat="59.0912170" lon="30.0419340">
<ele>256.001526</ele>
<time>2026-04-25T13:12:04.000Z</time>
</trkpt>
<trkpt lat="59.0907050" lon="30.0425540">
<ele>255.422394</ele>
<time>2026-04-25T13:14:36.004Z</time>
</trkpt>
<trkpt lat="59.0904380" lon="30.0425980">
<ele>255.422394</ele>
<time>2026-04-25T13:15:41.003Z</time>
</trkpt>
<trkpt lat="59.0902730" lon="30.0427070">
<ele>255.513840</ele>
<time>2026-04-25T13:16:35.003Z</time>
</trkpt>
<trkpt lat="59.0900750" lon="30.0426230">
<ele>254.904236</ele>
<time>2026-04-25T13:17:32.001Z</time>
</trkpt>
<trkpt lat="59.0900640" lon="30.0429540">
<ele>254.873764</ele>
<time>2026-04-25T13:18:30.001Z</time>
</trkpt>
<trkpt lat="59.0900280" lon="30.0429420">
<ele>255.452866</ele>
<time>2026-04-25T13:20:42.996Z</time>
</trkpt>
<trkpt lat="59.0900370" lon="30.0428760">
<ele>254.568970</ele>
<time>2026-04-25T13:22:45.002Z</time>
</trkpt>
<trkpt lat="59.0897390" lon="30.0428080">
<ele>254.965195</ele>
<time>2026-04-25T13:24:14.003Z</time>
</trkpt>
<trkpt lat="59.0896120" lon="30.0428610">
<ele>255.087128</ele>
<time>2026-04-25T13:24:34.004Z</time>
</trkpt>
<trkpt lat="59.0892310" lon="30.0431950">
<ele>255.148071</ele>
<time>2026-04-25T13:25:34.000Z</time>
</trkpt>
<trkpt lat="59.0889650" lon="30.0432070">
<ele>255.666229</ele>
<time>2026-04-25T13:26:49.004Z</time>
</trkpt>
<trkpt lat="59.0888120" lon="30.0431420">
<ele>255.513840</ele>
<time>2026-04-25T13:27:35.004Z</time>
</trkpt>
<trkpt lat="59.0887140" lon="30.0432180">
<ele>256.001526</ele>
<time>2026-04-25T13:27:54.003Z</time>
</trkpt>
<trkpt lat="59.0886170" lon="30.0431980">
<ele>256.397766</ele>
<time>2026-04-25T13:28:26.999Z</time>
</trkpt>
<trkpt lat="59.0886100" lon="30.0431420">
<ele>256.489197</ele>
<time>2026-04-25T13:28:59.002Z</time>
</trkpt>
<trkpt lat="59.0885850" lon="30.0432530">
<ele>255.788162</ele>
<time>2026-04-25T13:29:56.000Z</time>
</trkpt>
<trkpt lat="59.0886110" lon="30.0432870">
<ele>256.550171</ele>
<time>2026-04-25T13:30:18.999Z</time>
</trkpt>
<trkpt lat="59.0884270" lon="30.0433780">
<ele>255.879593</ele>
<time>2026-04-25T13:31:02.001Z</time>
</trkpt>
<trkpt lat="59.0883790" lon="30.0435800">
<ele>256.214874</ele>
<time>2026-04-25T13:31:30.003Z</time>
</trkpt>
<trkpt lat="59.0882990" lon="30.0436210">
<ele>256.001526</ele>
<time>2026-04-25T13:32:16.002Z</time>
</trkpt>
<trkpt lat="59.0882940" lon="30.0436870">
<ele>256.001526</ele>
<time>2026-04-25T13:32:40.004Z</time>
</trkpt>
<trkpt lat="59.0881180" lon="30.0436420">
<ele>256.946411</ele>
<time>2026-04-25T13:33:49.003Z</time>
</trkpt>
<trkpt lat="59.0879740" lon="30.0437850">
<ele>256.915924</ele>
<time>2026-04-25T13:35:10.003Z</time>
</trkpt>
<trkpt lat="59.0878300" lon="30.0437660">
<ele>257.677917</ele>
<time>2026-04-25T13:35:53.998Z</time>
</trkpt>
<trkpt lat="59.0877660" lon="30.0438230">
<ele>257.495026</ele>
<time>2026-04-25T13:36:41.000Z</time>
</trkpt>
<trkpt lat="59.0876830" lon="30.0437300">
<ele>257.891266</ele>
<time>2026-04-25T13:37:29.004Z</time>
</trkpt>
<trkpt lat="59.0876540" lon="30.0437860">
<ele>258.257050</ele>
<time>2026-04-25T13:38:03.002Z</time>
</trkpt>
<trkpt lat="59.0877260" lon="30.0437030">
<ele>258.013214</ele>
<time>2026-04-25T13:38:29.000Z</time>
</trkpt>
<trkpt lat="59.0877400" lon="30.0435980">
<ele>257.921753</ele>
<time>2026-04-25T13:38:58.998Z</time>
</trkpt>
<trkpt lat="59.0876590" lon="30.0435890">
<ele>259.049530</ele>
<time>2026-04-25T13:39:21.997Z</time>
</trkpt>
<trkpt lat="59.0875470" lon="30.0437820">
<ele>258.805664</ele>
<time>2026-04-25T13:41:05.004Z</time>
</trkpt>
<trkpt lat="59.0875310" lon="30.0437110">
<ele>258.683777</ele>
<time>2026-04-25T13:41:40.998Z</time>
</trkpt>
<trkpt lat="59.0875360" lon="30.0438000">
<ele>258.836151</ele>
<time>2026-04-25T13:43:13.999Z</time>
</trkpt>
<trkpt lat="59.0875250" lon="30.0437260">
<ele>258.470398</ele>
<time>2026-04-25T13:44:18.004Z</time>
</trkpt>
<trkpt lat="59.0875480" lon="30.0440830">
<ele>258.287537</ele>
<time>2026-04-25T13:45:24.998Z</time>
</trkpt>
<trkpt lat="59.0875210" lon="30.0440810">
<ele>258.897125</ele>
<time>2026-04-25T13:45:47.998Z</time>
</trkpt>
<trkpt lat="59.0876040" lon="30.0441080">
<ele>259.384796</ele>
<time>2026-04-25T13:46:06.997Z</time>
</trkpt>
<trkpt lat="59.0877200" lon="30.0445410">
<ele>258.836151</ele>
<time>2026-04-25T13:47:27.997Z</time>
</trkpt>
<trkpt lat="59.0880150" lon="30.0447750">
<ele>259.902954</ele>
<time>2026-04-25T13:48:51.002Z</time>
</trkpt>
<trkpt lat="59.0880300" lon="30.0449030">
<ele>259.445770</ele>
<time>2026-04-25T13:49:45.002Z</time>
</trkpt>
<trkpt lat="59.0880910" lon="30.0448280">
<ele>259.994385</ele>
<time>2026-04-25T13:50:06.999Z</time>
</trkpt>
<trkpt lat="59.0882250" lon="30.0448130">
<ele>259.842010</ele>
<time>2026-04-25T13:50:20.003Z</time>
</trkpt>
<trkpt lat="59.0883270" lon="30.0447490">
<ele>260.329681</ele>
<time>2026-04-25T13:50:39.002Z</time>
</trkpt>
<trkpt lat="59.0886660" lon="30.0442240">
<ele>259.842010</ele>
<time>2026-04-25T13:52:04.002Z</time>
</trkpt>
<trkpt lat="59.0886610" lon="30.0440870">
<ele>259.537201</ele>
<time>2026-04-25T13:52:31.002Z</time>
</trkpt>
<trkpt lat="59.0887330" lon="30.0438300">
<ele>258.592316</ele>
<time>2026-04-25T13:53:44.002Z</time>
</trkpt>
<trkpt lat="59.0887150" lon="30.0437800">
<ele>259.171448</ele>
<time>2026-04-25T13:54:15.002Z</time>
</trkpt>
<trkpt lat="59.0887180" lon="30.0438460">
<ele>259.781036</ele>
<time>2026-04-25T13:54:45.000Z</time>
</trkpt>
<trkpt lat="59.0886930" lon="30.0438600">
<ele>259.659119</ele>
<time>2026-04-25T13:55:14.998Z</time>
</trkpt>
<trkpt lat="59.0887230" lon="30.0438150">
<ele>259.384796</ele>
<time>2026-04-25T13:55:45.998Z</time>
</trkpt>
<trkpt lat="59.0888700" lon="30.0440110">
<ele>259.537201</ele>
<time>2026-04-25T13:57:02.998Z</time>
</trkpt>
<trkpt lat="59.0891680" lon="30.0438050">
<ele>259.262878</ele>
<time>2026-04-25T13:58:22.996Z</time>
</trkpt>
<trkpt lat="59.0893480" lon="30.0437720">
<ele>259.659119</ele>
<time>2026-04-25T13:59:01.003Z</time>
</trkpt>
<trkpt lat="59.0896170" lon="30.0434880">
<ele>259.781036</ele>
<time>2026-04-25T13:59:40.004Z</time>
</trkpt>
<trkpt lat="59.0898210" lon="30.0435450">
<ele>260.238251</ele>
<time>2026-04-25T14:00:57.997Z</time>
</trkpt>
<trkpt lat="59.0899390" lon="30.0433990">
<ele>260.116333</ele>
<time>2026-04-25T14:01:38.001Z</time>
</trkpt>
<trkpt lat="59.0900220" lon="30.0433530">
<ele>259.445770</ele>
<time>2026-04-25T14:01:58.002Z</time>
</trkpt>
<trkpt lat="59.0901050" lon="30.0434140">
<ele>259.567657</ele>
<time>2026-04-25T14:04:47.001Z</time>
</trkpt>
<trkpt lat="59.0901690" lon="30.0433230">
<ele>259.720062</ele>
<time>2026-04-25T14:05:04.998Z</time>
</trkpt>
<trkpt lat="59.0905140" lon="30.0431170">
<ele>260.573517</ele>
<time>2026-04-25T14:06:35.001Z</time>
</trkpt>
<trkpt lat="59.0908880" lon="30.0430290">
<ele>260.482086</ele>
<time>2026-04-25T14:07:57.996Z</time>
</trkpt>
<trkpt lat="59.0910870" lon="30.0428650">
<ele>261.152649</ele>
<time>2026-04-25T14:08:27.001Z</time>
</trkpt>
<trkpt lat="59.0914970" lon="30.0426440">
<ele>261.609833</ele>
<time>2026-04-25T14:10:31.996Z</time>
</trkpt>
<trkpt lat="59.0914820" lon="30.0425720">
<ele>261.853668</ele>
<time>2026-04-25T14:10:55.998Z</time>
</trkpt>
<trkpt lat="59.0914940" lon="30.0427030">
<ele>261.305023</ele>
<time>2026-04-25T14:12:19.996Z</time>
</trkpt>
<trkpt lat="59.0914600" lon="30.0426520">
<ele>261.152649</ele>
<time>2026-04-25T14:12:54.996Z</time>
</trkpt>
<trkpt lat="59.0914610" lon="30.0425320">
<ele>261.213593</ele>
<time>2026-04-25T14:15:09.003Z</time>
</trkpt>
<trkpt lat="59.0914390" lon="30.0426240">
<ele>262.402313</ele>
<time>2026-04-25T14:25:04.999Z</time>
</trkpt>
<trkpt lat="59.0914030" lon="30.0425810">
<ele>262.829041</ele>
<time>2026-04-25T14:27:33.002Z</time>
</trkpt>
<trkpt lat="59.0914200" lon="30.0426310">
<ele>264.596863</ele>
<time>2026-04-25T14:29:02.996Z</time>
</trkpt>
<trkpt lat="59.0914820" lon="30.0425590">
<ele>263.499603</ele>
<time>2026-04-25T14:32:33.000Z</time>
</trkpt>
<trkpt lat="59.0914820" lon="30.0426400">
<ele>264.596863</ele>
<time>2026-04-25T14:35:56.999Z</time>
</trkpt>
<trkpt lat="59.0915600" lon="30.0428120">
<ele>264.383514</ele>
<time>2026-04-25T14:37:27.002Z</time>
</trkpt>
<trkpt lat="59.0915920" lon="30.0427990">
<ele>264.078735</ele>
<time>2026-04-25T14:37:55.004Z</time>
</trkpt>
<trkpt lat="59.0917270" lon="30.0429270">
<ele>264.078735</ele>
<time>2026-04-25T14:38:21.002Z</time>
</trkpt>
<trkpt lat="59.0918920" lon="30.0429090">
<ele>263.072876</ele>
<time>2026-04-25T14:38:38.999Z</time>
</trkpt>
<trkpt lat="59.0919270" lon="30.0430180">
<ele>264.139679</ele>
<time>2026-04-25T14:38:53.998Z</time>
</trkpt>
<trkpt lat="59.0917610" lon="30.0429960">
<ele>264.170166</ele>
<time>2026-04-25T14:40:26.999Z</time>
</trkpt>
<trkpt lat="59.0916850" lon="30.0431050">
<ele>264.444458</ele>
<time>2026-04-25T14:40:40.002Z</time>
</trkpt>
<trkpt lat="59.0916600" lon="30.0432590">
<ele>264.383514</ele>
<time>2026-04-25T14:41:00.004Z</time>
</trkpt>
<trkpt lat="59.0915680" lon="30.0433750">
<ele>264.718811</ele>
<time>2026-04-25T14:41:31.004Z</time>
</trkpt>
<trkpt lat="59.0914680" lon="30.0434180">
<ele>264.444458</ele>
<time>2026-04-25T14:41:50.997Z</time>
</trkpt>
<trkpt lat="59.0911130" lon="30.0433600">
<ele>264.139679</ele>
<time>2026-04-25T14:42:51.002Z</time>
</trkpt>
<trkpt lat="59.0909730" lon="30.0435070">
<ele>264.474976</ele>
<time>2026-04-25T14:43:14.002Z</time>
</trkpt>
<trkpt lat="59.0908080" lon="30.0435520">
<ele>264.810242</ele>
<time>2026-04-25T14:43:53.996Z</time>
</trkpt>
<trkpt lat="59.0907670" lon="30.0434820">
<ele>264.962646</ele>
<time>2026-04-25T14:44:15.000Z</time>
</trkpt>
<trkpt lat="59.0906200" lon="30.0434900">
<ele>265.054077</ele>
<time>2026-04-25T14:45:57.997Z</time>
</trkpt>
<trkpt lat="59.0906040" lon="30.0433920">
<ele>264.505432</ele>
<time>2026-04-25T14:46:27.002Z</time>
</trkpt>
<trkpt lat="59.0906740" lon="30.0435050">
<ele>265.023590</ele>
<time>2026-04-25T14:47:21.002Z</time>
</trkpt>
<trkpt lat="59.0907170" lon="30.0434840">
<ele>264.749268</ele>
<time>2026-04-25T14:47:40.001Z</time>
</trkpt>
<trkpt lat="59.0906440" lon="30.0434170">
<ele>264.810242</ele>
<time>2026-04-25T14:48:07.001Z</time>
</trkpt>
<trkpt lat="59.0905930" lon="30.0435560">
<ele>264.505432</ele>
<time>2026-04-25T14:48:39.997Z</time>
</trkpt>
<trkpt lat="59.0905490" lon="30.0435330">
<ele>265.206482</ele>
<time>2026-04-25T14:49:43.000Z</time>
</trkpt>
<trkpt lat="59.0905760" lon="30.0435070">
<ele>265.175995</ele>
<time>2026-04-25T14:50:11.003Z</time>
</trkpt>
<trkpt lat="59.0905570" lon="30.0436010">
<ele>264.993134</ele>
<time>2026-04-25T14:51:17.004Z</time>
</trkpt>
<trkpt lat="59.0904320" lon="30.0435690">
<ele>264.353027</ele>
<time>2026-04-25T14:51:41.999Z</time>
</trkpt>
<trkpt lat="59.0901720" lon="30.0438480">
<ele>264.322571</ele>
<time>2026-04-25T14:52:35.999Z</time>
</trkpt>
<trkpt lat="59.0892170" lon="30.0444700">
<ele>264.840729</ele>
<time>2026-04-25T14:54:41.996Z</time>
</trkpt>
<trkpt lat="59.0891100" lon="30.0443080">
<ele>265.328400</ele>
<time>2026-04-25T14:55:03.000Z</time>
</trkpt>
<trkpt lat="59.0891120" lon="30.0441150">
<ele>265.115051</ele>
<time>2026-04-25T14:57:12.997Z</time>
</trkpt>
<trkpt lat="59.0889220" lon="30.0444160">
<ele>264.627350</ele>
<time>2026-04-25T14:58:21.003Z</time>
</trkpt>
<trkpt lat="59.0885750" lon="30.0444650">
<ele>265.267426</ele>
<time>2026-04-25T15:00:00.000Z</time>
</trkpt>
<trkpt lat="59.0884410" lon="30.0445460">
<ele>266.303772</ele>
<time>2026-04-25T15:00:29.998Z</time>
</trkpt>
<trkpt lat="59.0883390" lon="30.0447330">
<ele>265.755127</ele>
<time>2026-04-25T15:00:52.004Z</time>
</trkpt>
<trkpt lat="59.0882090" lon="30.0448480">
<ele>266.456177</ele>
<time>2026-04-25T15:01:08.999Z</time>
</trkpt>
<trkpt lat="59.0880470" lon="30.0448950">
<ele>265.998962</ele>
<time>2026-04-25T15:01:26.996Z</time>
</trkpt>
<trkpt lat="59.0878440" lon="30.0448180">
<ele>266.760956</ele>
<time>2026-04-25T15:02:51.996Z</time>
</trkpt>
<trkpt lat="59.0878660" lon="30.0449070">
<ele>266.364716</ele>
<time>2026-04-25T15:03:34.004Z</time>
</trkpt>
<trkpt lat="59.0876860" lon="30.0450170">
<ele>266.547607</ele>
<time>2026-04-25T15:04:08.003Z</time>
</trkpt>
<trkpt lat="59.0875600" lon="30.0451680">
<ele>266.517120</ele>
<time>2026-04-25T15:04:40.999Z</time>
</trkpt>
<trkpt lat="59.0874290" lon="30.0452110">
<ele>267.187683</ele>
<time>2026-04-25T15:04:59.998Z</time>
</trkpt>
<trkpt lat="59.0872300" lon="30.0454800">
<ele>267.888733</ele>
<time>2026-04-25T15:05:56.996Z</time>
</trkpt>
<trkpt lat="59.0868450" lon="30.0454290">
<ele>267.401031</ele>
<time>2026-04-25T15:07:05.002Z</time>
</trkpt>
<trkpt lat="59.0867780" lon="30.0453620">
<ele>267.218170</ele>
<time>2026-04-25T15:07:24.001Z</time>
</trkpt>
<trkpt lat="59.0867880" lon="30.0453070">
<ele>267.401031</ele>
<time>2026-04-25T15:08:23.997Z</time>
</trkpt>
<trkpt lat="59.0867560" lon="30.0453130">
<ele>267.492462</ele>
<time>2026-04-25T15:08:53.002Z</time>
</trkpt>
<trkpt lat="59.0867540" lon="30.0454420">
<ele>267.157196</ele>
<time>2026-04-25T15:09:20.002Z</time>
</trkpt>
<trkpt lat="59.0868250" lon="30.0456810">
<ele>267.004791</ele>
<time>2026-04-25T15:09:37.999Z</time>
</trkpt>
<trkpt lat="59.0868950" lon="30.0457870">
<ele>267.675354</ele>
<time>2026-04-25T15:09:51.002Z</time>
</trkpt>
<trkpt lat="59.0870450" lon="30.0458830">
<ele>267.705841</ele>
<time>2026-04-25T15:10:25.000Z</time>
</trkpt>
<trkpt lat="59.0870760" lon="30.0459740">
<ele>267.980164</ele>
<time>2026-04-25T15:10:38.997Z</time>
</trkpt>
<trkpt lat="59.0870450" lon="30.0459970">
<ele>267.522949</ele>
<time>2026-04-25T15:10:49.996Z</time>
</trkpt>
<trkpt lat="59.0873880" lon="30.0459500">
<ele>268.711670</ele>
<time>2026-04-25T15:11:32.997Z</time>
</trkpt>
<trkpt lat="59.0875560" lon="30.0458940">
<ele>268.254486</ele>
<time>2026-04-25T15:12:02.002Z</time>
</trkpt>
<trkpt lat="59.0876570" lon="30.0457520">
<ele>268.467834</ele>
<time>2026-04-25T15:12:18.996Z</time>
</trkpt>
<trkpt lat="59.0878660" lon="30.0456540">
<ele>268.467834</ele>
<time>2026-04-25T15:12:40.000Z</time>
</trkpt>
<trkpt lat="59.0877980" lon="30.0456770">
<ele>269.199371</ele>
<time>2026-04-25T15:13:01.998Z</time>
</trkpt>
<trkpt lat="59.0878320" lon="30.0455890">
<ele>268.864075</ele>
<time>2026-04-25T15:13:28.998Z</time>
</trkpt>
<trkpt lat="59.0879840" lon="30.0455700">
<ele>269.107941</ele>
<time>2026-04-25T15:14:18.004Z</time>
</trkpt>
<trkpt lat="59.0881700" lon="30.0453340">
<ele>269.199371</ele>
<time>2026-04-25T15:14:55.000Z</time>
</trkpt>
<trkpt lat="59.0885110" lon="30.0453930">
<ele>266.760956</ele>
<time>2026-04-25T15:17:20.999Z</time>
</trkpt>
<trkpt lat="59.0884500" lon="30.0454070">
<ele>267.705841</ele>
<time>2026-04-25T15:17:29.000Z</time>
</trkpt>
<trkpt lat="59.0886250" lon="30.0452820">
<ele>266.821930</ele>
<time>2026-04-25T15:18:27.000Z</time>
</trkpt>
<trkpt lat="59.0887550" lon="30.0450450">
<ele>266.882874</ele>
<time>2026-04-25T15:18:47.002Z</time>
</trkpt>
<trkpt lat="59.0889330" lon="30.0448540">
<ele>266.212341</ele>
<time>2026-04-25T15:19:21.000Z</time>
</trkpt>
<trkpt lat="59.0891640" lon="30.0448220">
<ele>266.608551</ele>
<time>2026-04-25T15:19:57.996Z</time>
</trkpt>
<trkpt lat="59.0895430" lon="30.0445010">
<ele>267.065765</ele>
<time>2026-04-25T15:20:51.996Z</time>
</trkpt>
<trkpt lat="59.0895970" lon="30.0446200">
<ele>266.913361</ele>
<time>2026-04-25T15:21:10.996Z</time>
</trkpt>
<trkpt lat="59.0896190" lon="30.0447970">
<ele>266.913361</ele>
<time>2026-04-25T15:21:32.000Z</time>
</trkpt>
<trkpt lat="59.0900490" lon="30.0446150">
<ele>266.120880</ele>
<time>2026-04-25T15:22:36.998Z</time>
</trkpt>
<trkpt lat="59.0901850" lon="30.0445100">
<ele>267.492462</ele>
<time>2026-04-25T15:22:58.996Z</time>
</trkpt>
<trkpt lat="59.0906930" lon="30.0444090">
<ele>267.766815</ele>
<time>2026-04-25T15:26:43.999Z</time>
</trkpt>
<trkpt lat="59.0907530" lon="30.0442720">
<ele>267.919189</ele>
<time>2026-04-25T15:27:01.996Z</time>
</trkpt>
<trkpt lat="59.0909770" lon="30.0440190">
<ele>267.797272</ele>
<time>2026-04-25T15:27:52.998Z</time>
</trkpt>
<trkpt lat="59.0912950" lon="30.0440870">
<ele>268.376404</ele>
<time>2026-04-25T15:29:02.999Z</time>
</trkpt>
<trkpt lat="59.0915560" lon="30.0438720">
<ele>269.260315</ele>
<time>2026-04-25T15:30:05.000Z</time>
</trkpt>
<trkpt lat="59.0916060" lon="30.0439350">
<ele>268.833588</ele>
<time>2026-04-25T15:31:04.996Z</time>
</trkpt>
<trkpt lat="59.0915920" lon="30.0439120">
<ele>268.559265</ele>
<time>2026-04-25T15:31:32.998Z</time>
</trkpt>
<trkpt lat="59.0917230" lon="30.0438170">
<ele>268.650726</ele>
<time>2026-04-25T15:32:45.004Z</time>
</trkpt>
<trkpt lat="59.0917890" lon="30.0439090">
<ele>268.589752</ele>
<time>2026-04-25T15:33:03.001Z</time>
</trkpt>
<trkpt lat="59.0918600" lon="30.0439000">
<ele>268.833588</ele>
<time>2026-04-25T15:33:19.996Z</time>
</trkpt>
<trkpt lat="59.0919590" lon="30.0438150">
<ele>268.254486</ele>
<time>2026-04-25T15:33:36.999Z</time>
</trkpt>
<trkpt lat="59.0920490" lon="30.0436660">
<ele>268.772644</ele>
<time>2026-04-25T15:33:57.001Z</time>
</trkpt>
<trkpt lat="59.0920830" lon="30.0435190">
<ele>269.077423</ele>
<time>2026-04-25T15:34:12.000Z</time>
</trkpt>
<trkpt lat="59.0920640" lon="30.0435570">
<ele>268.437378</ele>
<time>2026-04-25T15:34:32.002Z</time>
</trkpt>
<trkpt lat="59.0920620" lon="30.0435140">
<ele>268.345917</ele>
<time>2026-04-25T15:35:00.997Z</time>
</trkpt>
<trkpt lat="59.0921020" lon="30.0435260">
<ele>268.620239</ele>
<time>2026-04-25T15:36:10.999Z</time>
</trkpt>
<trkpt lat="59.0920540" lon="30.0434670">
<ele>268.833588</ele>
<time>2026-04-25T15:36:40.997Z</time>
</trkpt>
<trkpt lat="59.0921080" lon="30.0435030">
<ele>269.382233</ele>
<time>2026-04-25T15:37:45.002Z</time>
</trkpt>
<trkpt lat="59.0920490" lon="30.0435170">
<ele>268.467834</ele>
<time>2026-04-25T15:38:16.996Z</time>
</trkpt>
<trkpt lat="59.0920630" lon="30.0435810">
<ele>269.534637</ele>
<time>2026-04-25T15:38:47.996Z</time>
</trkpt>
<trkpt lat="59.0921020" lon="30.0435340">
<ele>270.235687</ele>
<time>2026-04-25T15:40:35.996Z</time>
</trkpt>
<trkpt lat="59.0920710" lon="30.0435130">
<ele>270.205200</ele>
<time>2026-04-25T15:41:03.998Z</time>
</trkpt>
<trkpt lat="59.0921260" lon="30.0435210">
<ele>270.235687</ele>
<time>2026-04-25T15:42:20.998Z</time>
</trkpt>
<trkpt lat="59.0923150" lon="30.0441750">
<ele>270.814789</ele>
<time>2026-04-25T15:43:59.002Z</time>
</trkpt>
<trkpt lat="59.0922030" lon="30.0441070">
<ele>270.845276</ele>
<time>2026-04-25T15:44:38.996Z</time>
</trkpt>
<trkpt lat="59.0920360" lon="30.0442100">
<ele>270.936737</ele>
<time>2026-04-25T15:45:35.001Z</time>
</trkpt>
<trkpt lat="59.0919610" lon="30.0443260">
<ele>270.845276</ele>
<time>2026-04-25T15:45:48.997Z</time>
</trkpt>
<trkpt lat="59.0917150" lon="30.0444190">
<ele>271.180573</ele>
<time>2026-04-25T15:46:48.000Z</time>
</trkpt>
<trkpt lat="59.0915410" lon="30.0445630">
<ele>271.089142</ele>
<time>2026-04-25T15:47:09.004Z</time>
</trkpt>
<trkpt lat="59.0914010" lon="30.0447760">
<ele>270.692871</ele>
<time>2026-04-25T15:47:44.998Z</time>
</trkpt>
<trkpt lat="59.0913250" lon="30.0447580">
<ele>270.814789</ele>
<time>2026-04-25T15:48:03.004Z</time>
</trkpt>
<trkpt lat="59.0912870" lon="30.0446920">
<ele>271.211029</ele>
<time>2026-04-25T15:48:25.001Z</time>
</trkpt>
<trkpt lat="59.0911140" lon="30.0448940">
<ele>271.089142</ele>
<time>2026-04-25T15:49:03.000Z</time>
</trkpt>
<trkpt lat="59.0909460" lon="30.0449360">
<ele>270.936737</ele>
<time>2026-04-25T15:49:48.999Z</time>
</trkpt>
<trkpt lat="59.0908800" lon="30.0448920">
<ele>271.363434</ele>
<time>2026-04-25T15:51:57.001Z</time>
</trkpt>
<trkpt lat="59.0906370" lon="30.0450870">
<ele>270.967194</ele>
<time>2026-04-25T15:52:51.001Z</time>
</trkpt>
<trkpt lat="59.0906110" lon="30.0451410">
<ele>271.332977</ele>
<time>2026-04-25T15:53:15.996Z</time>
</trkpt>
<trkpt lat="59.0905910" lon="30.0455510">
<ele>271.332977</ele>
<time>2026-04-25T15:53:50.004Z</time>
</trkpt>
<trkpt lat="59.0906380" lon="30.0457250">
<ele>271.759674</ele>
<time>2026-04-25T15:54:05.003Z</time>
</trkpt>
<trkpt lat="59.0907700" lon="30.0456120">
<ele>271.211029</ele>
<time>2026-04-25T15:54:55.996Z</time>
</trkpt>
<trkpt lat="59.0909620" lon="30.0456330">
<ele>272.277832</ele>
<time>2026-04-25T15:55:30.003Z</time>
</trkpt>
<trkpt lat="59.0910330" lon="30.0455400">
<ele>272.338806</ele>
<time>2026-04-25T15:55:50.998Z</time>
</trkpt>
<trkpt lat="59.0910380" lon="30.0454660">
<ele>271.729187</ele>
<time>2026-04-25T15:56:09.997Z</time>
</trkpt>
<trkpt lat="59.0910670" lon="30.0455710">
<ele>271.363434</ele>
<time>2026-04-25T15:56:31.001Z</time>
</trkpt>
<trkpt lat="59.0911760" lon="30.0454130">
<ele>271.637756</ele>
<time>2026-04-25T15:57:06.002Z</time>
</trkpt>
<trkpt lat="59.0913990" lon="30.0453980">
<ele>272.216858</ele>
<time>2026-04-25T15:57:53.997Z</time>
</trkpt>
<trkpt lat="59.0914810" lon="30.0452840">
<ele>271.759674</ele>
<time>2026-04-25T15:58:11.001Z</time>
</trkpt>
<trkpt lat="59.0916580" lon="30.0453050">
<ele>271.302460</ele>
<time>2026-04-25T15:58:43.003Z</time>
</trkpt>
<trkpt lat="59.0917450" lon="30.0452430">
<ele>271.912079</ele>
<time>2026-04-25T15:58:58.996Z</time>
</trkpt>
<trkpt lat="59.0919910" lon="30.0453420">
<ele>272.308319</ele>
<time>2026-04-25T15:59:29.996Z</time>
</trkpt>
<trkpt lat="59.0920660" lon="30.0450880">
<ele>271.851135</ele>
<time>2026-04-25T16:00:14.000Z</time>
</trkpt>
<trkpt lat="59.0920810" lon="30.0450570">
<ele>271.759674</ele>
<time>2026-04-25T16:00:42.002Z</time>
</trkpt>
<trkpt lat="59.0921220" lon="30.0451150">
<ele>272.155914</ele>
<time>2026-04-25T16:01:13.002Z</time>
</trkpt>
<trkpt lat="59.0920260" lon="30.0450890">
<ele>272.430237</ele>
<time>2026-04-25T16:02:23.004Z</time>
</trkpt>
<trkpt lat="59.0922620" lon="30.0448970">
<ele>272.552155</ele>
<time>2026-04-25T16:03:00.000Z</time>
</trkpt>
<trkpt lat="59.0925690" lon="30.0449500">
<ele>272.308319</ele>
<time>2026-04-25T16:07:57.000Z</time>
</trkpt>
<trkpt lat="59.0925360" lon="30.0449930">
<ele>273.192230</ele>
<time>2026-04-25T16:09:08.004Z</time>
</trkpt>
<trkpt lat="59.0926300" lon="30.0453030">
<ele>272.826477</ele>
<time>2026-04-25T16:10:26.999Z</time>
</trkpt>
<trkpt lat="59.0925960" lon="30.0453570">
<ele>273.222717</ele>
<time>2026-04-25T16:11:02.000Z</time>
</trkpt>
<trkpt lat="59.0926190" lon="30.0453290">
<ele>273.375122</ele>
<time>2026-04-25T16:11:29.000Z</time>
</trkpt>
<trkpt lat="59.0922570" lon="30.0452780">
<ele>273.801849</ele>
<time>2026-04-25T16:12:48.997Z</time>
</trkpt>
<trkpt lat="59.0921320" lon="30.0453460">
<ele>273.618958</ele>
<time>2026-04-25T16:13:10.001Z</time>
</trkpt>
<trkpt lat="59.0919870" lon="30.0455260">
<ele>273.710388</ele>
<time>2026-04-25T16:13:30.996Z</time>
</trkpt>
<trkpt lat="59.0918220" lon="30.0458860">
<ele>274.350464</ele>
<time>2026-04-25T16:14:15.000Z</time>
</trkpt>
<trkpt lat="59.0915250" lon="30.0460640">
<ele>274.320007</ele>
<time>2026-04-25T16:14:56.999Z</time>
</trkpt>
<trkpt lat="59.0914140" lon="30.0462630">
<ele>274.380951</ele>
<time>2026-04-25T16:15:15.998Z</time>
</trkpt>
<trkpt lat="59.0913100" lon="30.0463370">
<ele>274.655273</ele>
<time>2026-04-25T16:15:36.000Z</time>
</trkpt>
<trkpt lat="59.0911910" lon="30.0463230">
<ele>274.015198</ele>
<time>2026-04-25T16:15:57.004Z</time>
</trkpt>
<trkpt lat="59.0911470" lon="30.0461250">
<ele>274.899139</ele>
<time>2026-04-25T16:16:20.997Z</time>
</trkpt>
<trkpt lat="59.0910620" lon="30.0460370">
<ele>274.106628</ele>
<time>2026-04-25T16:17:05.001Z</time>
</trkpt>
<trkpt lat="59.0910480" lon="30.0461200">
<ele>274.137115</ele>
<time>2026-04-25T16:18:58.997Z</time>
</trkpt>
<trkpt lat="59.0907760" lon="30.0461610">
<ele>274.441925</ele>
<time>2026-04-25T16:19:41.998Z</time>
</trkpt>
<trkpt lat="59.0908360" lon="30.0467170">
<ele>274.472412</ele>
<time>2026-04-25T16:20:35.998Z</time>
</trkpt>
<trkpt lat="59.0910170" lon="30.0468660">
<ele>275.234406</ele>
<time>2026-04-25T16:21:40.003Z</time>
</trkpt>
<trkpt lat="59.0911900" lon="30.0465850">
<ele>275.173431</ele>
<time>2026-04-25T16:22:21.000Z</time>
</trkpt>
<trkpt lat="59.0915480" lon="30.0465100">
<ele>275.112488</ele>
<time>2026-04-25T16:23:43.002Z</time>
</trkpt>
<trkpt lat="59.0916920" lon="30.0464160">
<ele>275.874481</ele>
<time>2026-04-25T16:24:05.000Z</time>
</trkpt>
<trkpt lat="59.0920070" lon="30.0460410">
<ele>275.295349</ele>
<time>2026-04-25T16:24:50.999Z</time>
</trkpt>
<trkpt lat="59.0921470" lon="30.0460750">
<ele>275.813538</ele>
<time>2026-04-25T16:25:11.001Z</time>
</trkpt>
<trkpt lat="59.0922670" lon="30.0462370">
<ele>275.264862</ele>
<time>2026-04-25T16:25:30.000Z</time>
</trkpt>
<trkpt lat="59.0923190" lon="30.0462280">
<ele>275.508728</ele>
<time>2026-04-25T16:25:57.000Z</time>
</trkpt>
<trkpt lat="59.0923340" lon="30.0461640">
<ele>275.630646</ele>
<time>2026-04-25T16:26:26.998Z</time>
</trkpt>
<trkpt lat="59.0924040" lon="30.0461570">
<ele>275.356323</ele>
<time>2026-04-25T16:27:27.996Z</time>
</trkpt>
<trkpt lat="59.0923390" lon="30.0461480">
<ele>275.264862</ele>
<time>2026-04-25T16:27:57.001Z</time>
</trkpt>
<trkpt lat="59.0927520" lon="30.0459320">
<ele>275.356323</ele>
<time>2026-04-25T16:29:31.998Z</time>
</trkpt>
<trkpt lat="59.0928170" lon="30.0459960">
<ele>275.630646</ele>
<time>2026-04-25T16:29:50.997Z</time>
</trkpt>
<trkpt lat="59.0929380" lon="30.0464160">
<ele>275.386810</ele>
<time>2026-04-25T16:30:33.998Z</time>
</trkpt>
<trkpt lat="59.0928410" lon="30.0466500">
<ele>274.929596</ele>
<time>2026-04-25T16:31:04.999Z</time>
</trkpt>
<trkpt lat="59.0928880" lon="30.0467180">
<ele>275.112488</ele>
<time>2026-04-25T16:31:35.999Z</time>
</trkpt>
<trkpt lat="59.0929680" lon="30.0466200">
<ele>274.533356</ele>
<time>2026-04-25T16:32:40.004Z</time>
</trkpt>
<trkpt lat="59.0929660" lon="30.0465590">
<ele>274.289520</ele>
<time>2026-04-25T16:33:14.996Z</time>
</trkpt>
<trkpt lat="59.0929920" lon="30.0465700">
<ele>274.320007</ele>
<time>2026-04-25T16:36:00.996Z</time>
</trkpt>
<trkpt lat="59.0929650" lon="30.0465050">
<ele>275.478241</ele>
<time>2026-04-25T16:36:32.999Z</time>
</trkpt>
<trkpt lat="59.0929420" lon="30.0465590">
<ele>274.655273</ele>
<time>2026-04-25T16:38:22.001Z</time>
</trkpt>
<trkpt lat="59.0929630" lon="30.0465860">
<ele>274.320007</ele>
<time>2026-04-25T16:39:14.999Z</time>
</trkpt>
<trkpt lat="59.0929810" lon="30.0463960">
<ele>274.685760</ele>
<time>2026-04-25T16:40:26.996Z</time>
</trkpt>
<trkpt lat="59.0929400" lon="30.0464540">
<ele>275.813538</ele>
<time>2026-04-25T16:42:49.003Z</time>
</trkpt>
<trkpt lat="59.0929170" lon="30.0467290">
<ele>275.691589</ele>
<time>2026-04-25T16:44:56.003Z</time>
</trkpt>
<trkpt lat="59.0928330" lon="30.0467690">
<ele>275.722076</ele>
<time>2026-04-25T16:46:16.000Z</time>
</trkpt>
<trkpt lat="59.0928890" lon="30.0467360">
<ele>275.752563</ele>
<time>2026-04-25T16:47:23.004Z</time>
</trkpt>
<trkpt lat="59.0928850" lon="30.0468340">
<ele>275.752563</ele>
<time>2026-04-25T16:47:54.997Z</time>
</trkpt>
<trkpt lat="59.0928720" lon="30.0467120">
<ele>277.002228</ele>
<time>2026-04-25T16:49:11.004Z</time>
</trkpt>
<trkpt lat="59.0928460" lon="30.0467820">
<ele>277.459442</ele>
<time>2026-04-25T16:49:31.999Z</time>
</trkpt>
<trkpt lat="59.0927570" lon="30.0468370">
<ele>277.185120</ele>
<time>2026-04-25T16:49:48.000Z</time>
</trkpt>
<trkpt lat="59.0924950" lon="30.0467200">
<ele>277.246063</ele>
<time>2026-04-25T16:50:25.999Z</time>
</trkpt>
<trkpt lat="59.0923860" lon="30.0467930">
<ele>277.368011</ele>
<time>2026-04-25T16:50:42.000Z</time>
</trkpt>
<trkpt lat="59.0919810" lon="30.0475570">
<ele>277.307037</ele>
<time>2026-04-25T16:51:57.997Z</time>
</trkpt>
<trkpt lat="59.0915860" lon="30.0473340">
<ele>277.764221</ele>
<time>2026-04-25T16:53:13.001Z</time>
</trkpt>
<trkpt lat="59.0914730" lon="30.0472240">
<ele>277.703278</ele>
<time>2026-04-25T16:54:08.997Z</time>
</trkpt>
<trkpt lat="59.0913720" lon="30.0474370">
<ele>278.617676</ele>
<time>2026-04-25T16:56:19.997Z</time>
</trkpt>
<trkpt lat="59.0912950" lon="30.0474850">
<ele>278.465271</ele>
<time>2026-04-25T16:56:39.998Z</time>
</trkpt>
<trkpt lat="59.0912780" lon="30.0476650">
<ele>278.069031</ele>
<time>2026-04-25T16:56:57.002Z</time>
</trkpt>
<trkpt lat="59.0912140" lon="30.0477050">
<ele>278.099518</ele>
<time>2026-04-25T16:57:18.999Z</time>
</trkpt>
<trkpt lat="59.0912730" lon="30.0484130">
<ele>278.587189</ele>
<time>2026-04-25T16:58:57.996Z</time>
</trkpt>
<trkpt lat="59.0912290" lon="30.0485020">
<ele>278.709137</ele>
<time>2026-04-25T16:59:25.999Z</time>
</trkpt>
<trkpt lat="59.0913140" lon="30.0484380">
<ele>278.495758</ele>
<time>2026-04-25T16:59:44.998Z</time>
</trkpt>
<trkpt lat="59.0914610" lon="30.0485670">
<ele>279.318726</ele>
<time>2026-04-25T17:00:19.999Z</time>
</trkpt>
<trkpt lat="59.0915340" lon="30.0485270">
<ele>278.770081</ele>
<time>2026-04-25T17:00:41.996Z</time>
</trkpt>
<trkpt lat="59.0916410" lon="30.0484410">
<ele>279.349213</ele>
<time>2026-04-25T17:01:01.004Z</time>
</trkpt>
<trkpt lat="59.0919110" lon="30.0480290">
<ele>279.684479</ele>
<time>2026-04-25T17:02:06.003Z</time>
</trkpt>
<trkpt lat="59.0920750" lon="30.0479310">
<ele>279.928314</ele>
<time>2026-04-25T17:02:45.004Z</time>
</trkpt>
<trkpt lat="59.0921460" lon="30.0477390">
<ele>279.806396</ele>
<time>2026-04-25T17:03:01.999Z</time>
</trkpt>
<trkpt lat="59.0922750" lon="30.0476250">
<ele>279.928314</ele>
<time>2026-04-25T17:03:19.002Z</time>
</trkpt>
<trkpt lat="59.0924510" lon="30.0476340">
<ele>279.593048</ele>
<time>2026-04-25T17:03:43.998Z</time>
</trkpt>
<trkpt lat="59.0924840" lon="30.0477010">
<ele>280.080719</ele>
<time>2026-04-25T17:04:29.004Z</time>
</trkpt>
<trkpt lat="59.0928320" lon="30.0472630">
<ele>279.806396</ele>
<time>2026-04-25T17:06:43.001Z</time>
</trkpt>
<trkpt lat="59.0929370" lon="30.0472220">
<ele>280.263611</ele>
<time>2026-04-25T17:07:04.999Z</time>
</trkpt>
<trkpt lat="59.0930300" lon="30.0472760">
<ele>279.562561</ele>
<time>2026-04-25T17:07:26.003Z</time>
</trkpt>
<trkpt lat="59.0931630" lon="30.0476370">
<ele>280.568390</ele>
<time>2026-04-25T17:09:10.996Z</time>
</trkpt>
<trkpt lat="59.0929240" lon="30.0477420">
<ele>280.415985</ele>
<time>2026-04-25T17:10:39.996Z</time>
</trkpt>
<trkpt lat="59.0927700" lon="30.0478880">
<ele>280.385529</ele>
<time>2026-04-25T17:11:17.002Z</time>
</trkpt>
<trkpt lat="59.0925010" lon="30.0479800">
<ele>280.995117</ele>
<time>2026-04-25T17:12:12.997Z</time>
</trkpt>
<trkpt lat="59.0924560" lon="30.0480440">
<ele>280.568390</ele>
<time>2026-04-25T17:12:31.997Z</time>
</trkpt>
<trkpt lat="59.0924160" lon="30.0482520">
<ele>281.025604</ele>
<time>2026-04-25T17:12:50.996Z</time>
</trkpt>
<trkpt lat="59.0923010" lon="30.0483540">
<ele>281.238953</ele>
<time>2026-04-25T17:13:28.001Z</time>
</trkpt>
<trkpt lat="59.0922510" lon="30.0484980">
<ele>280.903687</ele>
<time>2026-04-25T17:13:45.998Z</time>
</trkpt>
<trkpt lat="59.0922540" lon="30.0486310">
<ele>280.873199</ele>
<time>2026-04-25T17:14:04.998Z</time>
</trkpt>
<trkpt lat="59.0920700" lon="30.0487920">
<ele>281.238953</ele>
<time>2026-04-25T17:14:46.003Z</time>
</trkpt>
<trkpt lat="59.0919860" lon="30.0488360">
<ele>280.812225</ele>
<time>2026-04-25T17:15:05.996Z</time>
</trkpt>
<trkpt lat="59.0919730" lon="30.0487880">
<ele>280.476959</ele>
<time>2026-04-25T17:15:21.004Z</time>
</trkpt>
<trkpt lat="59.0918870" lon="30.0488660">
<ele>280.659851</ele>
<time>2026-04-25T17:15:51.002Z</time>
</trkpt>
<trkpt lat="59.0919100" lon="30.0488490">
<ele>280.476959</ele>
<time>2026-04-25T17:16:19.998Z</time>
</trkpt>
<trkpt lat="59.0917360" lon="30.0490240">
<ele>280.781769</ele>
<time>2026-04-25T17:17:55.997Z</time>
</trkpt>
<trkpt lat="59.0915620" lon="30.0493050">
<ele>280.111206</ele>
<time>2026-04-25T17:18:37.996Z</time>
</trkpt>
<trkpt lat="59.0914990" lon="30.0493360">
<ele>280.172150</ele>
<time>2026-04-25T17:20:17.002Z</time>
</trkpt>
<trkpt lat="59.0914600" lon="30.0492710">
<ele>280.598877</ele>
<time>2026-04-25T17:22:36.002Z</time>
</trkpt>
<trkpt lat="59.0914630" lon="30.0493500">
<ele>280.568390</ele>
<time>2026-04-25T17:23:07.996Z</time>
</trkpt>
<trkpt lat="59.0914420" lon="30.0493210">
<ele>280.507446</ele>
<time>2026-04-25T17:24:35.001Z</time>
</trkpt>
<trkpt lat="59.0914970" lon="30.0493300">
<ele>281.025604</ele>
<time>2026-04-25T17:25:03.996Z</time>
</trkpt>
<trkpt lat="59.0914960" lon="30.0494050">
<ele>280.598877</ele>
<time>2026-04-25T17:25:33.001Z</time>
</trkpt>
<trkpt lat="59.0914990" lon="30.0493330">
<ele>280.629364</ele>
<time>2026-04-25T17:26:05.004Z</time>
</trkpt>
<trkpt lat="59.0915260" lon="30.0492660">
<ele>280.141663</ele>
<time>2026-04-25T17:26:29.999Z</time>
</trkpt>
<trkpt lat="59.0915540" lon="30.0492880">
<ele>280.964630</ele>
<time>2026-04-25T17:26:55.003Z</time>
</trkpt>
<trkpt lat="59.0915390" lon="30.0495750">
<ele>280.415985</ele>
<time>2026-04-25T17:28:31.002Z</time>
</trkpt>
<trkpt lat="59.0915670" lon="30.0496780">
<ele>280.781769</ele>
<time>2026-04-25T17:28:48.999Z</time>
</trkpt>
<trkpt lat="59.0916920" lon="30.0498220">
<ele>281.178009</ele>
<time>2026-04-25T17:29:33.003Z</time>
</trkpt>
<trkpt lat="59.0918600" lon="30.0498770">
<ele>281.086578</ele>
<time>2026-04-25T17:30:34.001Z</time>
</trkpt>
<trkpt lat="59.0920280" lon="30.0497140">
<ele>281.299927</ele>
<time>2026-04-25T17:31:37.004Z</time>
</trkpt>
<trkpt lat="59.0921180" lon="30.0495300">
<ele>280.995117</ele>
<time>2026-04-25T17:31:56.004Z</time>
</trkpt>
<trkpt lat="59.0923040" lon="30.0493900">
<ele>281.909515</ele>
<time>2026-04-25T17:32:54.997Z</time>
</trkpt>
<trkpt lat="59.0924430" lon="30.0494300">
<ele>282.305756</ele>
<time>2026-04-25T17:33:17.997Z</time>
</trkpt>
<trkpt lat="59.0926020" lon="30.0493900">
<ele>281.879028</ele>
<time>2026-04-25T17:33:55.002Z</time>
</trkpt>
<trkpt lat="59.0927130" lon="30.0492100">
<ele>282.000977</ele>
<time>2026-04-25T17:35:02.999Z</time>
</trkpt>
<trkpt lat="59.0926530" lon="30.0492270">
<ele>282.092407</ele>
<time>2026-04-25T17:35:31.001Z</time>
</trkpt>
<trkpt lat="59.0927180" lon="30.0492590">
<ele>282.244812</ele>
<time>2026-04-25T17:35:59.004Z</time>
</trkpt>
<trkpt lat="59.0927810" lon="30.0491840">
<ele>281.635193</ele>
<time>2026-04-25T17:36:09.000Z</time>
</trkpt>
<trkpt lat="59.0928760" lon="30.0491500">
<ele>282.000977</ele>
<time>2026-04-25T17:36:30.004Z</time>
</trkpt>
<trkpt lat="59.0930370" lon="30.0488840">
<ele>282.305756</ele>
<time>2026-04-25T17:37:39.003Z</time>
</trkpt>
<trkpt lat="59.0930640" lon="30.0489230">
<ele>282.122864</ele>
<time>2026-04-25T17:38:03.998Z</time>
</trkpt>
<trkpt lat="59.0931890" lon="30.0489290">
<ele>282.458160</ele>
<time>2026-04-25T17:40:47.001Z</time>
</trkpt>
<trkpt lat="59.0936310" lon="30.0487530">
<ele>282.823914</ele>
<time>2026-04-25T17:42:05.003Z</time>
</trkpt>
<trkpt lat="59.0936950" lon="30.0486680">
<ele>282.976318</ele>
<time>2026-04-25T17:42:54.000Z</time>
</trkpt>
<trkpt lat="59.0936670" lon="30.0486560">
<ele>283.342072</ele>
<time>2026-04-25T17:43:27.998Z</time>
</trkpt>
</trkseg>
</trk>
<trk>
 <name>20260425_Lisa94</name>
 <desc>20260425_Lisa94</desc>
<trkseg>
<trkpt lat="59.0994790" lon="30.0275610">
<ele>62.148720</ele>
<time>2026-04-25T13:32:36.004Z</time>
</trkpt>
<trkpt lat="59.0995470" lon="30.0275250">
<ele>61.661041</ele>
<time>2026-04-25T13:33:33.002Z</time>
</trkpt>
<trkpt lat="59.0995410" lon="30.0277320">
<ele>60.411358</ele>
<time>2026-04-25T13:33:53.004Z</time>
</trkpt>
<trkpt lat="59.0994470" lon="30.0278570">
<ele>60.380882</ele>
<time>2026-04-25T13:34:15.001Z</time>
</trkpt>
<trkpt lat="59.0993710" lon="30.0278580">
<ele>60.289440</ele>
<time>2026-04-25T13:34:30.000Z</time>
</trkpt>
<trkpt lat="59.0994040" lon="30.0277050">
<ele>59.679840</ele>
<time>2026-04-25T13:35:02.996Z</time>
</trkpt>
<trkpt lat="59.0993790" lon="30.0276920">
<ele>59.527439</ele>
<time>2026-04-25T13:35:25.002Z</time>
</trkpt>
<trkpt lat="59.0994080" lon="30.0276850">
<ele>62.301117</ele>
<time>2026-04-25T13:35:56.996Z</time>
</trkpt>
<trkpt lat="59.0993640" lon="30.0276600">
<ele>63.185040</ele>
<time>2026-04-25T13:36:16.004Z</time>
</trkpt>
<trkpt lat="59.0992860" lon="30.0278720">
<ele>63.672718</ele>
<time>2026-04-25T13:37:01.001Z</time>
</trkpt>
<trkpt lat="59.0993120" lon="30.0281570">
<ele>66.324478</ele>
<time>2026-04-25T13:38:08.998Z</time>
</trkpt>
<trkpt lat="59.0994230" lon="30.0284580">
<ele>66.842644</ele>
<time>2026-04-25T13:38:42.996Z</time>
</trkpt>
<trkpt lat="59.0994520" lon="30.0287470">
<ele>67.726563</ele>
<time>2026-04-25T13:39:24.002Z</time>
</trkpt>
<trkpt lat="59.0993590" lon="30.0287940">
<ele>68.640961</ele>
<time>2026-04-25T13:39:37.999Z</time>
</trkpt>
<trkpt lat="59.0993280" lon="30.0286450">
<ele>68.732399</ele>
<time>2026-04-25T13:40:14.002Z</time>
</trkpt>
<trkpt lat="59.0993460" lon="30.0285810">
<ele>68.701920</ele>
<time>2026-04-25T13:40:26.996Z</time>
</trkpt>
<trkpt lat="59.0991550" lon="30.0277190">
<ele>67.513199</ele>
<time>2026-04-25T13:41:50.001Z</time>
</trkpt>
<trkpt lat="59.0990160" lon="30.0278230">
<ele>67.177917</ele>
<time>2026-04-25T13:42:38.998Z</time>
</trkpt>
<trkpt lat="59.0990200" lon="30.0279270">
<ele>66.842644</ele>
<time>2026-04-25T13:43:04.002Z</time>
</trkpt>
<trkpt lat="59.0990500" lon="30.0279570">
<ele>66.019684</ele>
<time>2026-04-25T13:43:32.998Z</time>
</trkpt>
<trkpt lat="59.0990940" lon="30.0284650">
<ele>66.172081</ele>
<time>2026-04-25T13:44:36.001Z</time>
</trkpt>
<trkpt lat="59.0991920" lon="30.0289500">
<ele>68.701920</ele>
<time>2026-04-25T13:45:38.002Z</time>
</trkpt>
<trkpt lat="59.0991220" lon="30.0291140">
<ele>70.652641</ele>
<time>2026-04-25T13:46:28.001Z</time>
</trkpt>
<trkpt lat="59.0990340" lon="30.0288960">
<ele>70.561203</ele>
<time>2026-04-25T13:47:06.000Z</time>
</trkpt>
<trkpt lat="59.0988630" lon="30.0282200">
<ele>71.231758</ele>
<time>2026-04-25T13:48:09.996Z</time>
</trkpt>
<trkpt lat="59.0988060" lon="30.0279750">
<ele>70.134483</ele>
<time>2026-04-25T13:48:39.001Z</time>
</trkpt>
<trkpt lat="59.0988260" lon="30.0279620">
<ele>68.397118</ele>
<time>2026-04-25T13:49:03.996Z</time>
</trkpt>
<trkpt lat="59.0987390" lon="30.0280500">
<ele>66.324478</ele>
<time>2026-04-25T13:49:22.996Z</time>
</trkpt>
<trkpt lat="59.0986760" lon="30.0278710">
<ele>66.995041</ele>
<time>2026-04-25T13:50:16.002Z</time>
</trkpt>
<trkpt lat="59.0986790" lon="30.0280570">
<ele>67.635117</ele>
<time>2026-04-25T13:50:40.004Z</time>
</trkpt>
<trkpt lat="59.0987340" lon="30.0281870">
<ele>67.238884</ele>
<time>2026-04-25T13:51:03.997Z</time>
</trkpt>
<trkpt lat="59.0987830" lon="30.0286150">
<ele>67.726563</ele>
<time>2026-04-25T13:51:45.003Z</time>
</trkpt>
<trkpt lat="59.0988920" lon="30.0289550">
<ele>69.372482</ele>
<time>2026-04-25T13:52:35.003Z</time>
</trkpt>
<trkpt lat="59.0989320" lon="30.0292620">
<ele>70.195442</ele>
<time>2026-04-25T13:52:58.996Z</time>
</trkpt>
<trkpt lat="59.0988680" lon="30.0295220">
<ele>69.890640</ele>
<time>2026-04-25T13:53:18.997Z</time>
</trkpt>
<trkpt lat="59.0989480" lon="30.0294010">
<ele>67.452240</ele>
<time>2026-04-25T13:53:37.997Z</time>
</trkpt>
<trkpt lat="59.0988530" lon="30.0294300">
<ele>64.526161</ele>
<time>2026-04-25T13:53:59.001Z</time>
</trkpt>
<trkpt lat="59.0987570" lon="30.0291240">
<ele>63.154560</ele>
<time>2026-04-25T13:54:31.997Z</time>
</trkpt>
<trkpt lat="59.0987260" lon="30.0288460">
<ele>63.642242</ele>
<time>2026-04-25T13:54:54.003Z</time>
</trkpt>
<trkpt lat="59.0986180" lon="30.0285080">
<ele>66.598801</ele>
<time>2026-04-25T13:55:37.004Z</time>
</trkpt>
<trkpt lat="59.0985350" lon="30.0280600">
<ele>68.122803</ele>
<time>2026-04-25T13:56:41.001Z</time>
</trkpt>
<trkpt lat="59.0985210" lon="30.0280150">
<ele>68.153282</ele>
<time>2026-04-25T13:56:47.999Z</time>
</trkpt>
<trkpt lat="59.0984680" lon="30.0280580">
<ele>68.976242</ele>
<time>2026-04-25T13:57:39.001Z</time>
</trkpt>
<trkpt lat="59.0984320" lon="30.0281670">
<ele>68.793358</ele>
<time>2026-04-25T13:57:58.000Z</time>
</trkpt>
<trkpt lat="59.0984420" lon="30.0284730">
<ele>69.402962</ele>
<time>2026-04-25T13:58:35.999Z</time>
</trkpt>
<trkpt lat="59.0984760" lon="30.0287810">
<ele>69.128639</ele>
<time>2026-04-25T13:58:57.996Z</time>
</trkpt>
<trkpt lat="59.0985550" lon="30.0289980">
<ele>69.402962</ele>
<time>2026-04-25T13:59:21.998Z</time>
</trkpt>
<trkpt lat="59.0985810" lon="30.0293170">
<ele>68.701920</ele>
<time>2026-04-25T14:00:14.003Z</time>
</trkpt>
<trkpt lat="59.0987140" lon="30.0296810">
<ele>65.653915</ele>
<time>2026-04-25T14:00:53.004Z</time>
</trkpt>
<trkpt lat="59.0986670" lon="30.0297980">
<ele>67.391281</ele>
<time>2026-04-25T14:01:31.996Z</time>
</trkpt>
<trkpt lat="59.0986440" lon="30.0296650">
<ele>67.909439</ele>
<time>2026-04-25T14:01:47.997Z</time>
</trkpt>
<trkpt lat="59.0983840" lon="30.0292890">
<ele>70.713600</ele>
<time>2026-04-25T14:03:05.999Z</time>
</trkpt>
<trkpt lat="59.0983060" lon="30.0285200">
<ele>70.744080</ele>
<time>2026-04-25T14:04:09.002Z</time>
</trkpt>
<trkpt lat="59.0983070" lon="30.0280930">
<ele>71.262238</ele>
<time>2026-04-25T14:05:00.997Z</time>
</trkpt>
<trkpt lat="59.0982410" lon="30.0282060">
<ele>69.829681</ele>
<time>2026-04-25T14:05:18.001Z</time>
</trkpt>
<trkpt lat="59.0981520" lon="30.0281880">
<ele>69.342003</ele>
<time>2026-04-25T14:05:50.997Z</time>
</trkpt>
<trkpt lat="59.0982330" lon="30.0294270">
<ele>72.999603</ele>
<time>2026-04-25T14:08:04.001Z</time>
</trkpt>
<trkpt lat="59.0983540" lon="30.0297030">
<ele>72.786240</ele>
<time>2026-04-25T14:08:40.004Z</time>
</trkpt>
<trkpt lat="59.0984840" lon="30.0298290">
<ele>72.938644</ele>
<time>2026-04-25T14:09:18.003Z</time>
</trkpt>
<trkpt lat="59.0985430" lon="30.0300090">
<ele>73.700638</ele>
<time>2026-04-25T14:09:38.998Z</time>
</trkpt>
<trkpt lat="59.0985620" lon="30.0299600">
<ele>75.346558</ele>
<time>2026-04-25T14:10:15.001Z</time>
</trkpt>
<trkpt lat="59.0984110" lon="30.0301270">
<ele>71.902321</ele>
<time>2026-04-25T14:11:34.999Z</time>
</trkpt>
<trkpt lat="59.0981210" lon="30.0294380">
<ele>72.572884</ele>
<time>2026-04-25T14:13:06.997Z</time>
</trkpt>
<trkpt lat="59.0980320" lon="30.0291510">
<ele>72.908157</ele>
<time>2026-04-25T14:13:28.001Z</time>
</trkpt>
<trkpt lat="59.0980030" lon="30.0290280">
<ele>74.554085</ele>
<time>2026-04-25T14:13:47.001Z</time>
</trkpt>
<trkpt lat="59.0980270" lon="30.0288950">
<ele>77.022957</ele>
<time>2026-04-25T14:14:33.000Z</time>
</trkpt>
<trkpt lat="59.0980100" lon="30.0287390">
<ele>76.840080</ele>
<time>2026-04-25T14:14:57.002Z</time>
</trkpt>
<trkpt lat="59.0979220" lon="30.0283560">
<ele>76.413361</ele>
<time>2026-04-25T14:15:51.002Z</time>
</trkpt>
<trkpt lat="59.0979830" lon="30.0283670">
<ele>76.809601</ele>
<time>2026-04-25T14:16:07.003Z</time>
</trkpt>
<trkpt lat="59.0979100" lon="30.0284500">
<ele>76.596237</ele>
<time>2026-04-25T14:16:26.996Z</time>
</trkpt>
<trkpt lat="59.0978360" lon="30.0284250">
<ele>76.169518</ele>
<time>2026-04-25T14:16:48.000Z</time>
</trkpt>
<trkpt lat="59.0978150" lon="30.0284690">
<ele>76.047600</ele>
<time>2026-04-25T14:17:15.000Z</time>
</trkpt>
<trkpt lat="59.0979010" lon="30.0288260">
<ele>76.443840</ele>
<time>2026-04-25T14:18:00.999Z</time>
</trkpt>
<trkpt lat="59.0978470" lon="30.0288740">
<ele>77.022957</ele>
<time>2026-04-25T14:18:22.003Z</time>
</trkpt>
<trkpt lat="59.0979040" lon="30.0291240">
<ele>75.285599</ele>
<time>2026-04-25T14:19:04.002Z</time>
</trkpt>
<trkpt lat="59.0978950" lon="30.0294210">
<ele>78.120239</ele>
<time>2026-04-25T14:20:10.003Z</time>
</trkpt>
<trkpt lat="59.0980730" lon="30.0298870">
<ele>76.291443</ele>
<time>2026-04-25T14:21:35.004Z</time>
</trkpt>
<trkpt lat="59.0981610" lon="30.0300290">
<ele>75.224640</ele>
<time>2026-04-25T14:21:49.000Z</time>
</trkpt>
<trkpt lat="59.0981660" lon="30.0301930">
<ele>74.919838</ele>
<time>2026-04-25T14:22:06.004Z</time>
</trkpt>
<trkpt lat="59.0982140" lon="30.0302510">
<ele>76.413361</ele>
<time>2026-04-25T14:22:28.001Z</time>
</trkpt>
<trkpt lat="59.0982060" lon="30.0303350">
<ele>77.144882</ele>
<time>2026-04-25T14:22:53.999Z</time>
</trkpt>
<trkpt lat="59.0981290" lon="30.0303670">
<ele>78.425034</ele>
<time>2026-04-25T14:23:23.997Z</time>
</trkpt>
<trkpt lat="59.0981780" lon="30.0302300">
<ele>80.253838</ele>
<time>2026-04-25T14:24:08.001Z</time>
</trkpt>
<trkpt lat="59.0981540" lon="30.0302870">
<ele>78.577438</ele>
<time>2026-04-25T14:24:32.996Z</time>
</trkpt>
<trkpt lat="59.0981790" lon="30.0302680">
<ele>79.156563</ele>
<time>2026-04-25T14:24:54.000Z</time>
</trkpt>
<trkpt lat="59.0981870" lon="30.0303470">
<ele>79.156563</ele>
<time>2026-04-25T14:25:46.998Z</time>
</trkpt>
<trkpt lat="59.0981540" lon="30.0302820">
<ele>79.674721</ele>
<time>2026-04-25T14:26:09.004Z</time>
</trkpt>
<trkpt lat="59.0982290" lon="30.0302650">
<ele>80.832962</ele>
<time>2026-04-25T14:26:32.997Z</time>
</trkpt>
<trkpt lat="59.0981870" lon="30.0302180">
<ele>79.613762</ele>
<time>2026-04-25T14:26:56.999Z</time>
</trkpt>
<trkpt lat="59.0982100" lon="30.0301760">
<ele>79.644234</ele>
<time>2026-04-25T14:27:23.999Z</time>
</trkpt>
<trkpt lat="59.0981860" lon="30.0301120">
<ele>80.070961</ele>
<time>2026-04-25T14:28:19.001Z</time>
</trkpt>
<trkpt lat="59.0981700" lon="30.0300790">
<ele>80.650085</ele>
<time>2026-04-25T14:28:47.004Z</time>
</trkpt>
<trkpt lat="59.0981850" lon="30.0302290">
<ele>80.253838</ele>
<time>2026-04-25T14:29:37.997Z</time>
</trkpt>
<trkpt lat="59.0981700" lon="30.0301790">
<ele>80.040482</ele>
<time>2026-04-25T14:30:00.003Z</time>
</trkpt>
<trkpt lat="59.0980810" lon="30.0302660">
<ele>80.467201</ele>
<time>2026-04-25T14:30:45.000Z</time>
</trkpt>
<trkpt lat="59.0980130" lon="30.0299920">
<ele>80.711037</ele>
<time>2026-04-25T14:31:29.004Z</time>
</trkpt>
<trkpt lat="59.0978520" lon="30.0298110">
<ele>79.857597</ele>
<time>2026-04-25T14:32:11.003Z</time>
</trkpt>
<trkpt lat="59.0977880" lon="30.0295910">
<ele>78.851761</ele>
<time>2026-04-25T14:32:27.997Z</time>
</trkpt>
<trkpt lat="59.0976460" lon="30.0293000">
<ele>78.943199</ele>
<time>2026-04-25T14:33:09.003Z</time>
</trkpt>
<trkpt lat="59.0975660" lon="30.0292300">
<ele>78.882233</ele>
<time>2026-04-25T14:33:31.000Z</time>
</trkpt>
<trkpt lat="59.0975730" lon="30.0290840">
<ele>78.059280</ele>
<time>2026-04-25T14:33:56.998Z</time>
</trkpt>
<trkpt lat="59.0975160" lon="30.0289430">
<ele>77.602081</ele>
<time>2026-04-25T14:34:19.004Z</time>
</trkpt>
<trkpt lat="59.0975120" lon="30.0286690">
<ele>79.857597</ele>
<time>2026-04-25T14:35:09.004Z</time>
</trkpt>
<trkpt lat="59.0974160" lon="30.0285380">
<ele>78.882233</ele>
<time>2026-04-25T14:35:48.998Z</time>
</trkpt>
<trkpt lat="59.0975510" lon="30.0285550">
<ele>77.845917</ele>
<time>2026-04-25T14:36:05.000Z</time>
</trkpt>
<trkpt lat="59.0976520" lon="30.0286560">
<ele>79.126083</ele>
<time>2026-04-25T14:36:25.001Z</time>
</trkpt>
<trkpt lat="59.0978570" lon="30.0294230">
<ele>78.638397</ele>
<time>2026-04-25T14:37:31.002Z</time>
</trkpt>
<trkpt lat="59.0976600" lon="30.0291760">
<ele>74.615044</ele>
<time>2026-04-25T14:37:58.996Z</time>
</trkpt>
<trkpt lat="59.0975140" lon="30.0288140">
<ele>70.957443</ele>
<time>2026-04-25T14:38:29.003Z</time>
</trkpt>
<trkpt lat="59.0973420" lon="30.0286330">
<ele>70.195442</ele>
<time>2026-04-25T14:38:56.996Z</time>
</trkpt>
<trkpt lat="59.0972300" lon="30.0285730">
<ele>71.749916</ele>
<time>2026-04-25T14:39:23.003Z</time>
</trkpt>
<trkpt lat="59.0972570" lon="30.0287760">
<ele>73.121521</ele>
<time>2026-04-25T14:39:46.996Z</time>
</trkpt>
<trkpt lat="59.0974010" lon="30.0292680">
<ele>73.304398</ele>
<time>2026-04-25T14:40:48.996Z</time>
</trkpt>
<trkpt lat="59.0975440" lon="30.0294800">
<ele>73.853043</ele>
<time>2026-04-25T14:41:27.997Z</time>
</trkpt>
<trkpt lat="59.0975970" lon="30.0296310">
<ele>72.450958</ele>
<time>2026-04-25T14:41:47.999Z</time>
</trkpt>
<trkpt lat="59.0976520" lon="30.0299800">
<ele>71.688957</ele>
<time>2026-04-25T14:42:18.999Z</time>
</trkpt>
<trkpt lat="59.0977680" lon="30.0303190">
<ele>74.096878</ele>
<time>2026-04-25T14:43:00.998Z</time>
</trkpt>
<trkpt lat="59.0978010" lon="30.0301890">
<ele>77.845917</ele>
<time>2026-04-25T14:43:23.998Z</time>
</trkpt>
<trkpt lat="59.0977210" lon="30.0302050">
<ele>78.272636</ele>
<time>2026-04-25T14:43:49.002Z</time>
</trkpt>
<trkpt lat="59.0975820" lon="30.0301360">
<ele>78.943199</ele>
<time>2026-04-25T14:44:27.001Z</time>
</trkpt>
<trkpt lat="59.0974210" lon="30.0299390">
<ele>78.973679</ele>
<time>2026-04-25T14:44:56.999Z</time>
</trkpt>
<trkpt lat="59.0973160" lon="30.0294960">
<ele>78.333603</ele>
<time>2026-04-25T14:45:41.996Z</time>
</trkpt>
<trkpt lat="59.0971410" lon="30.0291150">
<ele>78.486000</ele>
<time>2026-04-25T14:46:47.997Z</time>
</trkpt>
<trkpt lat="59.0969770" lon="30.0286280">
<ele>82.814163</ele>
<time>2026-04-25T14:48:07.001Z</time>
</trkpt>
<trkpt lat="59.0969710" lon="30.0287280">
<ele>82.478882</ele>
<time>2026-04-25T14:48:16.004Z</time>
</trkpt>
<trkpt lat="59.0969050" lon="30.0287950">
<ele>82.174080</ele>
<time>2026-04-25T14:48:47.998Z</time>
</trkpt>
<trkpt lat="59.0969020" lon="30.0290350">
<ele>81.899765</ele>
<time>2026-04-25T14:49:22.999Z</time>
</trkpt>
<trkpt lat="59.0970970" lon="30.0294460">
<ele>79.979515</ele>
<time>2026-04-25T14:50:04.004Z</time>
</trkpt>
<trkpt lat="59.0970660" lon="30.0297130">
<ele>79.583282</ele>
<time>2026-04-25T14:50:46.003Z</time>
</trkpt>
<trkpt lat="59.0972290" lon="30.0299630">
<ele>78.973679</ele>
<time>2026-04-25T14:51:17.997Z</time>
</trkpt>
<trkpt lat="59.0973070" lon="30.0301270">
<ele>77.632561</ele>
<time>2026-04-25T14:51:33.998Z</time>
</trkpt>
<trkpt lat="59.0973470" lon="30.0303320">
<ele>76.108559</ele>
<time>2026-04-25T14:51:52.004Z</time>
</trkpt>
<trkpt lat="59.0974810" lon="30.0305690">
<ele>75.956161</ele>
<time>2026-04-25T14:52:08.999Z</time>
</trkpt>
<trkpt lat="59.0974720" lon="30.0305020">
<ele>75.986641</ele>
<time>2026-04-25T14:52:30.003Z</time>
</trkpt>
<trkpt lat="59.0973810" lon="30.0306270">
<ele>77.449684</ele>
<time>2026-04-25T14:52:49.996Z</time>
</trkpt>
<trkpt lat="59.0972200" lon="30.0304820">
<ele>77.967842</ele>
<time>2026-04-25T14:53:31.001Z</time>
</trkpt>
<trkpt lat="59.0970540" lon="30.0301030">
<ele>77.358238</ele>
<time>2026-04-25T14:54:10.996Z</time>
</trkpt>
<trkpt lat="59.0969550" lon="30.0296810">
<ele>79.827118</ele>
<time>2026-04-25T14:55:08.996Z</time>
</trkpt>
<trkpt lat="59.0969070" lon="30.0296210">
<ele>80.223366</ele>
<time>2026-04-25T14:55:30.000Z</time>
</trkpt>
<trkpt lat="59.0969640" lon="30.0296650">
<ele>80.162399</ele>
<time>2026-04-25T14:55:51.004Z</time>
</trkpt>
<trkpt lat="59.0968030" lon="30.0293980">
<ele>81.869286</ele>
<time>2026-04-25T14:56:41.997Z</time>
</trkpt>
<trkpt lat="59.0967870" lon="30.0291590">
<ele>81.442566</ele>
<time>2026-04-25T14:57:23.003Z</time>
</trkpt>
<trkpt lat="59.0967040" lon="30.0289540">
<ele>81.838799</ele>
<time>2026-04-25T14:58:10.004Z</time>
</trkpt>
<trkpt lat="59.0967900" lon="30.0290080">
<ele>80.314796</ele>
<time>2026-04-25T14:58:29.997Z</time>
</trkpt>
<trkpt lat="59.0966310" lon="30.0288840">
<ele>78.425034</ele>
<time>2026-04-25T14:59:08.998Z</time>
</trkpt>
<trkpt lat="59.0965470" lon="30.0289090">
<ele>78.333603</ele>
<time>2026-04-25T14:59:23.997Z</time>
</trkpt>
<trkpt lat="59.0965160" lon="30.0290380">
<ele>77.845917</ele>
<time>2026-04-25T14:59:49.001Z</time>
</trkpt>
<trkpt lat="59.0965230" lon="30.0292140">
<ele>77.906883</ele>
<time>2026-04-25T15:00:02.998Z</time>
</trkpt>
<trkpt lat="59.0967970" lon="30.0297780">
<ele>77.815437</ele>
<time>2026-04-25T15:01:34.003Z</time>
</trkpt>
<trkpt lat="59.0967390" lon="30.0299140">
<ele>77.784958</ele>
<time>2026-04-25T15:01:49.996Z</time>
</trkpt>
<trkpt lat="59.0968610" lon="30.0300250">
<ele>77.114403</ele>
<time>2026-04-25T15:02:33.999Z</time>
</trkpt>
<trkpt lat="59.0969460" lon="30.0304250">
<ele>78.882233</ele>
<time>2026-04-25T15:04:08.003Z</time>
</trkpt>
<trkpt lat="59.0971940" lon="30.0309090">
<ele>76.840080</ele>
<time>2026-04-25T15:05:18.004Z</time>
</trkpt>
<trkpt lat="59.0970440" lon="30.0310410">
<ele>77.723999</ele>
<time>2026-04-25T15:05:51.000Z</time>
</trkpt>
<trkpt lat="59.0968490" lon="30.0306830">
<ele>76.352402</ele>
<time>2026-04-25T15:07:08.000Z</time>
</trkpt>
<trkpt lat="59.0967850" lon="30.0303660">
<ele>75.224640</ele>
<time>2026-04-25T15:07:33.004Z</time>
</trkpt>
<trkpt lat="59.0966220" lon="30.0299460">
<ele>75.468483</ele>
<time>2026-04-25T15:08:23.997Z</time>
</trkpt>
<trkpt lat="59.0966140" lon="30.0297430">
<ele>76.504799</ele>
<time>2026-04-25T15:09:05.003Z</time>
</trkpt>
<trkpt lat="59.0963890" lon="30.0292140">
<ele>76.260956</ele>
<time>2026-04-25T15:10:07.003Z</time>
</trkpt>
<trkpt lat="59.0963350" lon="30.0289910">
<ele>76.748642</ele>
<time>2026-04-25T15:10:26.003Z</time>
</trkpt>
<trkpt lat="59.0963340" lon="30.0290410">
<ele>77.602081</ele>
<time>2026-04-25T15:10:49.996Z</time>
</trkpt>
<trkpt lat="59.0962420" lon="30.0291160">
<ele>78.150719</ele>
<time>2026-04-25T15:11:12.002Z</time>
</trkpt>
<trkpt lat="59.0961760" lon="30.0291080">
<ele>77.815437</ele>
<time>2026-04-25T15:11:40.998Z</time>
</trkpt>
<trkpt lat="59.0962970" lon="30.0294310">
<ele>77.205841</ele>
<time>2026-04-25T15:12:18.003Z</time>
</trkpt>
<trkpt lat="59.0962290" lon="30.0294640">
<ele>76.687683</ele>
<time>2026-04-25T15:12:30.004Z</time>
</trkpt>
<trkpt lat="59.0962390" lon="30.0295900">
<ele>75.681839</ele>
<time>2026-04-25T15:12:48.001Z</time>
</trkpt>
<trkpt lat="59.0963250" lon="30.0296320">
<ele>74.919838</ele>
<time>2026-04-25T15:13:08.003Z</time>
</trkpt>
<trkpt lat="59.0963330" lon="30.0298190">
<ele>75.316078</ele>
<time>2026-04-25T15:13:34.000Z</time>
</trkpt>
<trkpt lat="59.0964830" lon="30.0301920">
<ele>75.255119</ele>
<time>2026-04-25T15:14:14.997Z</time>
</trkpt>
<trkpt lat="59.0967140" lon="30.0306050">
<ele>75.864716</ele>
<time>2026-04-25T15:15:03.001Z</time>
</trkpt>
<trkpt lat="59.0967870" lon="30.0310820">
<ele>77.022957</ele>
<time>2026-04-25T15:15:57.001Z</time>
</trkpt>
<trkpt lat="59.0968500" lon="30.0312760">
<ele>75.712318</ele>
<time>2026-04-25T15:16:14.998Z</time>
</trkpt>
<trkpt lat="59.0969780" lon="30.0314890">
<ele>74.310242</ele>
<time>2026-04-25T15:16:45.998Z</time>
</trkpt>
<trkpt lat="59.0968520" lon="30.0315430">
<ele>74.401680</ele>
<time>2026-04-25T15:17:07.996Z</time>
</trkpt>
<trkpt lat="59.0967690" lon="30.0315110">
<ele>73.792084</ele>
<time>2026-04-25T15:17:29.000Z</time>
</trkpt>
<trkpt lat="59.0967320" lon="30.0314700">
<ele>73.304398</ele>
<time>2026-04-25T15:17:51.999Z</time>
</trkpt>
<trkpt lat="59.0967400" lon="30.0314140">
<ele>74.797920</ele>
<time>2026-04-25T15:18:14.999Z</time>
</trkpt>
<trkpt lat="59.0966730" lon="30.0314660">
<ele>75.712318</ele>
<time>2026-04-25T15:18:43.001Z</time>
</trkpt>
<trkpt lat="59.0965450" lon="30.0309920">
<ele>75.133202</ele>
<time>2026-04-25T15:19:35.999Z</time>
</trkpt>
<trkpt lat="59.0964500" lon="30.0307700">
<ele>74.828400</ele>
<time>2026-04-25T15:19:57.003Z</time>
</trkpt>
<trkpt lat="59.0964120" lon="30.0304390">
<ele>74.005440</ele>
<time>2026-04-25T15:20:32.004Z</time>
</trkpt>
<trkpt lat="59.0961990" lon="30.0300850">
<ele>73.974960</ele>
<time>2026-04-25T15:21:19.999Z</time>
</trkpt>
<trkpt lat="59.0962050" lon="30.0300020">
<ele>73.974960</ele>
<time>2026-04-25T15:21:29.002Z</time>
</trkpt>
<trkpt lat="59.0961040" lon="30.0296560">
<ele>74.676003</ele>
<time>2026-04-25T15:22:04.996Z</time>
</trkpt>
<trkpt lat="59.0960320" lon="30.0295520">
<ele>74.340721</ele>
<time>2026-04-25T15:22:28.998Z</time>
</trkpt>
<trkpt lat="59.0959920" lon="30.0292360">
<ele>73.639679</ele>
<time>2026-04-25T15:23:10.997Z</time>
</trkpt>
<trkpt lat="59.0959470" lon="30.0291460">
<ele>74.066399</ele>
<time>2026-04-25T15:23:37.003Z</time>
</trkpt>
<trkpt lat="59.0959450" lon="30.0291980">
<ele>74.950317</ele>
<time>2026-04-25T15:24:12.997Z</time>
</trkpt>
<trkpt lat="59.0958500" lon="30.0293260">
<ele>75.895203</ele>
<time>2026-04-25T15:24:38.002Z</time>
</trkpt>
<trkpt lat="59.0958370" lon="30.0293940">
<ele>76.199997</ele>
<time>2026-04-25T15:25:06.004Z</time>
</trkpt>
<trkpt lat="59.0961710" lon="30.0303140">
<ele>71.445122</ele>
<time>2026-04-25T15:27:17.997Z</time>
</trkpt>
<trkpt lat="59.0961140" lon="30.0304120">
<ele>70.378319</ele>
<time>2026-04-25T15:27:40.997Z</time>
</trkpt>
<trkpt lat="59.0961910" lon="30.0309250">
<ele>71.170799</ele>
<time>2026-04-25T15:28:46.004Z</time>
</trkpt>
<trkpt lat="59.0963930" lon="30.0312500">
<ele>71.140320</ele>
<time>2026-04-25T15:29:16.002Z</time>
</trkpt>
<trkpt lat="59.0966160" lon="30.0318960">
<ele>69.220085</ele>
<time>2026-04-25T15:30:14.003Z</time>
</trkpt>
<trkpt lat="59.0965910" lon="30.0318300">
<ele>67.330315</ele>
<time>2026-04-25T15:30:34.998Z</time>
</trkpt>
<trkpt lat="59.0966180" lon="30.0318510">
<ele>65.684402</ele>
<time>2026-04-25T15:31:03.000Z</time>
</trkpt>
<trkpt lat="59.0966050" lon="30.0318170">
<ele>64.251839</ele>
<time>2026-04-25T15:31:28.998Z</time>
</trkpt>
<trkpt lat="59.0965950" lon="30.0318630">
<ele>62.636398</ele>
<time>2026-04-25T15:31:54.002Z</time>
</trkpt>
<trkpt lat="59.0966150" lon="30.0319240">
<ele>60.685680</ele>
<time>2026-04-25T15:32:18.997Z</time>
</trkpt>
<trkpt lat="59.0966910" lon="30.0318550">
<ele>64.648079</ele>
<time>2026-04-25T15:33:18.000Z</time>
</trkpt>
<trkpt lat="59.0966380" lon="30.0318720">
<ele>65.806320</ele>
<time>2026-04-25T15:35:00.004Z</time>
</trkpt>
<trkpt lat="59.0966750" lon="30.0319030">
<ele>64.983360</ele>
<time>2026-04-25T15:35:31.004Z</time>
</trkpt>
<trkpt lat="59.0966140" lon="30.0318640">
<ele>57.424316</ele>
<time>2026-04-25T15:38:19.000Z</time>
</trkpt>
<trkpt lat="59.0966600" lon="30.0318670">
<ele>56.509918</ele>
<time>2026-04-25T15:39:03.004Z</time>
</trkpt>
<trkpt lat="59.0964740" lon="30.0320140">
<ele>57.150002</ele>
<time>2026-04-25T15:42:50.996Z</time>
</trkpt>
<trkpt lat="59.0963320" lon="30.0316380">
<ele>57.576717</ele>
<time>2026-04-25T15:44:00.004Z</time>
</trkpt>
<trkpt lat="59.0961160" lon="30.0312210">
<ele>58.826401</ele>
<time>2026-04-25T15:45:05.003Z</time>
</trkpt>
<trkpt lat="59.0959760" lon="30.0307610">
<ele>58.552082</ele>
<time>2026-04-25T15:45:52.998Z</time>
</trkpt>
<trkpt lat="59.0959790" lon="30.0306200">
<ele>59.070240</ele>
<time>2026-04-25T15:46:10.001Z</time>
</trkpt>
<trkpt lat="59.0958900" lon="30.0304920">
<ele>58.643517</ele>
<time>2026-04-25T15:46:29.001Z</time>
</trkpt>
<trkpt lat="59.0958590" lon="30.0302000">
<ele>58.795918</ele>
<time>2026-04-25T15:47:11.000Z</time>
</trkpt>
<trkpt lat="59.0957480" lon="30.0300610">
<ele>57.942482</ele>
<time>2026-04-25T15:47:48.998Z</time>
</trkpt>
<trkpt lat="59.0956770" lon="30.0297500">
<ele>58.430161</ele>
<time>2026-04-25T15:48:26.004Z</time>
</trkpt>
<trkpt lat="59.0956710" lon="30.0294310">
<ele>58.338718</ele>
<time>2026-04-25T15:49:04.002Z</time>
</trkpt>
<trkpt lat="59.0954540" lon="30.0294360">
<ele>57.637680</ele>
<time>2026-04-25T15:49:43.997Z</time>
</trkpt>
<trkpt lat="59.0954310" lon="30.0294700">
<ele>58.094883</ele>
<time>2026-04-25T15:50:02.996Z</time>
</trkpt>
<trkpt lat="59.0954830" lon="30.0295470">
<ele>58.247280</ele>
<time>2026-04-25T15:50:11.999Z</time>
</trkpt>
<trkpt lat="59.0956500" lon="30.0303100">
<ele>58.125359</ele>
<time>2026-04-25T15:51:24.998Z</time>
</trkpt>
<trkpt lat="59.0958450" lon="30.0306420">
<ele>57.668159</ele>
<time>2026-04-25T15:52:33.997Z</time>
</trkpt>
<trkpt lat="59.0958530" lon="30.0307720">
<ele>57.485283</ele>
<time>2026-04-25T15:52:53.999Z</time>
</trkpt>
<trkpt lat="59.0960150" lon="30.0313100">
<ele>59.618881</ele>
<time>2026-04-25T15:54:06.998Z</time>
</trkpt>
<trkpt lat="59.0960270" lon="30.0315200">
<ele>59.801758</ele>
<time>2026-04-25T15:54:28.002Z</time>
</trkpt>
<trkpt lat="59.0960950" lon="30.0317040">
<ele>59.222641</ele>
<time>2026-04-25T15:54:47.002Z</time>
</trkpt>
<trkpt lat="59.0961630" lon="30.0317490">
<ele>59.862717</ele>
<time>2026-04-25T15:55:03.003Z</time>
</trkpt>
<trkpt lat="59.0962490" lon="30.0320000">
<ele>60.959999</ele>
<time>2026-04-25T15:55:31.999Z</time>
</trkpt>
<trkpt lat="59.0962510" lon="30.0322100">
<ele>62.392559</ele>
<time>2026-04-25T15:55:54.998Z</time>
</trkpt>
<trkpt lat="59.0962500" lon="30.0321590">
<ele>61.996319</ele>
<time>2026-04-25T15:56:15.000Z</time>
</trkpt>
<trkpt lat="59.0961250" lon="30.0322430">
<ele>61.600082</ele>
<time>2026-04-25T15:56:36.004Z</time>
</trkpt>
<trkpt lat="59.0960700" lon="30.0322230">
<ele>62.331600</ele>
<time>2026-04-25T15:56:59.997Z</time>
</trkpt>
<trkpt lat="59.0960160" lon="30.0320070">
<ele>60.594242</ele>
<time>2026-04-25T15:58:19.001Z</time>
</trkpt>
<trkpt lat="59.0960430" lon="30.0318920">
<ele>60.868561</ele>
<time>2026-04-25T15:58:43.997Z</time>
</trkpt>
<trkpt lat="59.0958440" lon="30.0315090">
<ele>61.752483</ele>
<time>2026-04-25T15:59:49.998Z</time>
</trkpt>
<trkpt lat="59.0957100" lon="30.0309260">
<ele>62.697357</ele>
<time>2026-04-25T16:00:43.998Z</time>
</trkpt>
<trkpt lat="59.0954150" lon="30.0302200">
<ele>64.312798</ele>
<time>2026-04-25T16:02:11.996Z</time>
</trkpt>
<trkpt lat="59.0954040" lon="30.0296710">
<ele>64.282318</ele>
<time>2026-04-25T16:03:04.000Z</time>
</trkpt>
<trkpt lat="59.0953020" lon="30.0294630">
<ele>64.282318</ele>
<time>2026-04-25T16:03:28.996Z</time>
</trkpt>
<trkpt lat="59.0951710" lon="30.0295120">
<ele>63.703201</ele>
<time>2026-04-25T16:03:51.002Z</time>
</trkpt>
<trkpt lat="59.0952040" lon="30.0301280">
<ele>63.093601</ele>
<time>2026-04-25T16:04:54.998Z</time>
</trkpt>
<trkpt lat="59.0952410" lon="30.0302990">
<ele>63.185040</ele>
<time>2026-04-25T16:05:11.000Z</time>
</trkpt>
<trkpt lat="59.0953090" lon="30.0304540">
<ele>62.819283</ele>
<time>2026-04-25T16:05:32.004Z</time>
</trkpt>
<trkpt lat="59.0953250" lon="30.0305940">
<ele>63.002159</ele>
<time>2026-04-25T16:05:51.003Z</time>
</trkpt>
<trkpt lat="59.0955120" lon="30.0309490">
<ele>65.501518</ele>
<time>2026-04-25T16:06:53.004Z</time>
</trkpt>
<trkpt lat="59.0959240" lon="30.0322810">
<ele>61.569599</ele>
<time>2026-04-25T16:09:28.999Z</time>
</trkpt>
<trkpt lat="59.0960140" lon="30.0322720">
<ele>58.613041</ele>
<time>2026-04-25T16:09:43.998Z</time>
</trkpt>
<trkpt lat="59.0957770" lon="30.0323820">
<ele>54.010559</ele>
<time>2026-04-25T16:10:37.004Z</time>
</trkpt>
<trkpt lat="59.0957140" lon="30.0322800">
<ele>54.345840</ele>
<time>2026-04-25T16:10:56.997Z</time>
</trkpt>
<trkpt lat="59.0956590" lon="30.0320320">
<ele>54.955441</ele>
<time>2026-04-25T16:11:37.000Z</time>
</trkpt>
<trkpt lat="59.0954650" lon="30.0315880">
<ele>59.039761</ele>
<time>2026-04-25T16:12:52.004Z</time>
</trkpt>
<trkpt lat="59.0954560" lon="30.0314080">
<ele>59.649361</ele>
<time>2026-04-25T16:13:11.997Z</time>
</trkpt>
<trkpt lat="59.0954030" lon="30.0312280">
<ele>60.624718</ele>
<time>2026-04-25T16:13:33.001Z</time>
</trkpt>
<trkpt lat="59.0952610" lon="30.0308350">
<ele>63.337440</ele>
<time>2026-04-25T16:14:38.000Z</time>
</trkpt>
<trkpt lat="59.0951770" lon="30.0307140">
<ele>64.800484</ele>
<time>2026-04-25T16:15:07.998Z</time>
</trkpt>
<trkpt lat="59.0950640" lon="30.0302630">
<ele>66.446404</ele>
<time>2026-04-25T16:16:07.000Z</time>
</trkpt>
<trkpt lat="59.0950950" lon="30.0299200">
<ele>64.465202</ele>
<time>2026-04-25T16:16:46.001Z</time>
</trkpt>
<trkpt lat="59.0950410" lon="30.0297470">
<ele>65.958717</ele>
<time>2026-04-25T16:17:21.002Z</time>
</trkpt>
<trkpt lat="59.0949650" lon="30.0298110">
<ele>66.354958</ele>
<time>2026-04-25T16:17:44.002Z</time>
</trkpt>
<trkpt lat="59.0948460" lon="30.0297750">
<ele>67.391281</ele>
<time>2026-04-25T16:18:08.997Z</time>
</trkpt>
<trkpt lat="59.0948010" lon="30.0298290">
<ele>67.665604</ele>
<time>2026-04-25T16:18:31.003Z</time>
</trkpt>
<trkpt lat="59.0948220" lon="30.0300040">
<ele>66.781685</ele>
<time>2026-04-25T16:18:51.998Z</time>
</trkpt>
<trkpt lat="59.0950350" lon="30.0309420">
<ele>60.350399</ele>
<time>2026-04-25T16:20:18.001Z</time>
</trkpt>
<trkpt lat="59.0952400" lon="30.0315210">
<ele>61.691517</ele>
<time>2026-04-25T16:21:24.002Z</time>
</trkpt>
<trkpt lat="59.0953980" lon="30.0318130">
<ele>60.380882</ele>
<time>2026-04-25T16:22:03.996Z</time>
</trkpt>
<trkpt lat="59.0955940" lon="30.0324560">
<ele>66.720718</ele>
<time>2026-04-25T16:23:36.997Z</time>
</trkpt>
<trkpt lat="59.0954090" lon="30.0323880">
<ele>66.781685</ele>
<time>2026-04-25T16:24:45.996Z</time>
</trkpt>
<trkpt lat="59.0953440" lon="30.0321730">
<ele>67.360802</ele>
<time>2026-04-25T16:25:31.002Z</time>
</trkpt>
<trkpt lat="59.0950130" lon="30.0315320">
<ele>63.672718</ele>
<time>2026-04-25T16:26:52.002Z</time>
</trkpt>
<trkpt lat="59.0948760" lon="30.0308430">
<ele>62.758320</ele>
<time>2026-04-25T16:27:58.997Z</time>
</trkpt>
<trkpt lat="59.0948330" lon="30.0308150">
<ele>63.215519</ele>
<time>2026-04-25T16:28:06.004Z</time>
</trkpt>
<trkpt lat="59.0946150" lon="30.0302270">
<ele>65.958717</ele>
<time>2026-04-25T16:29:31.998Z</time>
</trkpt>
<trkpt lat="59.0945520" lon="30.0298910">
<ele>65.410080</ele>
<time>2026-04-25T16:30:13.003Z</time>
</trkpt>
<trkpt lat="59.0943650" lon="30.0300070">
<ele>66.903603</ele>
<time>2026-04-25T16:31:26.003Z</time>
</trkpt>
<trkpt lat="59.0943620" lon="30.0301550">
<ele>66.964561</ele>
<time>2026-04-25T16:31:49.002Z</time>
</trkpt>
<trkpt lat="59.0945630" lon="30.0305410">
<ele>63.703201</ele>
<time>2026-04-25T16:32:29.999Z</time>
</trkpt>
<trkpt lat="59.0946120" lon="30.0307810">
<ele>63.245998</ele>
<time>2026-04-25T16:32:52.999Z</time>
</trkpt>
<trkpt lat="59.0947920" lon="30.0310060">
<ele>66.385445</ele>
<time>2026-04-25T16:33:37.996Z</time>
</trkpt>
<trkpt lat="59.0947800" lon="30.0311720">
<ele>69.860161</ele>
<time>2026-04-25T16:34:20.997Z</time>
</trkpt>
<trkpt lat="59.0948120" lon="30.0311850">
<ele>70.652641</ele>
<time>2026-04-25T16:34:27.002Z</time>
</trkpt>
<trkpt lat="59.0948290" lon="30.0313530">
<ele>72.481438</ele>
<time>2026-04-25T16:34:47.997Z</time>
</trkpt>
<trkpt lat="59.0948070" lon="30.0315340">
<ele>73.091042</ele>
<time>2026-04-25T16:35:07.999Z</time>
</trkpt>
<trkpt lat="59.0951580" lon="30.0324950">
<ele>72.085197</ele>
<time>2026-04-25T16:37:30.999Z</time>
</trkpt>
<trkpt lat="59.0951800" lon="30.0324000">
<ele>71.749916</ele>
<time>2026-04-25T16:37:56.004Z</time>
</trkpt>
<trkpt lat="59.0951280" lon="30.0323810">
<ele>70.439285</ele>
<time>2026-04-25T16:38:45.001Z</time>
</trkpt>
<trkpt lat="59.0951670" lon="30.0324260">
<ele>70.103996</ele>
<time>2026-04-25T16:39:06.998Z</time>
</trkpt>
<trkpt lat="59.0951830" lon="30.0323990">
<ele>69.738243</ele>
<time>2026-04-25T16:39:36.003Z</time>
</trkpt>
<trkpt lat="59.0951430" lon="30.0323250">
<ele>68.732399</ele>
<time>2026-04-25T16:40:38.997Z</time>
</trkpt>
<trkpt lat="59.0951890" lon="30.0324780">
<ele>66.385445</ele>
<time>2026-04-25T16:42:15.998Z</time>
</trkpt>
<trkpt lat="59.0951660" lon="30.0324120">
<ele>67.665604</ele>
<time>2026-04-25T16:42:44.001Z</time>
</trkpt>
<trkpt lat="59.0951700" lon="30.0324880">
<ele>66.873116</ele>
<time>2026-04-25T16:43:08.996Z</time>
</trkpt>
<trkpt lat="59.0952340" lon="30.0325200">
<ele>66.720718</ele>
<time>2026-04-25T16:43:35.003Z</time>
</trkpt>
<trkpt lat="59.0952240" lon="30.0323920">
<ele>69.067680</ele>
<time>2026-04-25T16:44:29.996Z</time>
</trkpt>
<trkpt lat="59.0951730" lon="30.0323900">
<ele>68.793358</ele>
<time>2026-04-25T16:44:57.998Z</time>
</trkpt>
<trkpt lat="59.0952290" lon="30.0325080">
<ele>68.275200</ele>
<time>2026-04-25T16:45:51.998Z</time>
</trkpt>
<trkpt lat="59.0951910" lon="30.0325230">
<ele>66.629280</ele>
<time>2026-04-25T16:46:25.003Z</time>
</trkpt>
<trkpt lat="59.0952190" lon="30.0325010">
<ele>68.488556</ele>
<time>2026-04-25T16:46:56.004Z</time>
</trkpt>
<trkpt lat="59.0952080" lon="30.0324630">
<ele>68.244720</ele>
<time>2026-04-25T16:47:23.004Z</time>
</trkpt>
<trkpt lat="59.0950650" lon="30.0325400">
<ele>73.273918</ele>
<time>2026-04-25T16:50:25.999Z</time>
</trkpt>
<trkpt lat="59.0950270" lon="30.0326240">
<ele>73.243439</ele>
<time>2026-04-25T16:50:44.998Z</time>
</trkpt>
<trkpt lat="59.0947530" lon="30.0318650">
<ele>70.683121</ele>
<time>2026-04-25T16:53:03.998Z</time>
</trkpt>
<trkpt lat="59.0945580" lon="30.0310130">
<ele>64.526161</ele>
<time>2026-04-25T16:54:23.003Z</time>
</trkpt>
<trkpt lat="59.0944700" lon="30.0307810">
<ele>63.337440</ele>
<time>2026-04-25T16:54:43.998Z</time>
</trkpt>
<trkpt lat="59.0942710" lon="30.0304680">
<ele>60.228481</ele>
<time>2026-04-25T16:55:25.997Z</time>
</trkpt>
<trkpt lat="59.0942000" lon="30.0301630">
<ele>59.954159</ele>
<time>2026-04-25T16:56:07.002Z</time>
</trkpt>
<trkpt lat="59.0941890" lon="30.0302170">
<ele>60.502800</ele>
<time>2026-04-25T16:56:24.999Z</time>
</trkpt>
<trkpt lat="59.0940730" lon="30.0301730">
<ele>62.026798</ele>
<time>2026-04-25T16:57:09.003Z</time>
</trkpt>
<trkpt lat="59.0941120" lon="30.0302830">
<ele>61.478161</ele>
<time>2026-04-25T16:57:25.998Z</time>
</trkpt>
<trkpt lat="59.0941220" lon="30.0305520">
<ele>60.685680</ele>
<time>2026-04-25T16:57:44.004Z</time>
</trkpt>
<trkpt lat="59.0942500" lon="30.0309810">
<ele>59.923683</ele>
<time>2026-04-25T16:58:35.999Z</time>
</trkpt>
<trkpt lat="59.0943780" lon="30.0311640">
<ele>60.594242</ele>
<time>2026-04-25T16:58:58.999Z</time>
</trkpt>
<trkpt lat="59.0944720" lon="30.0313840">
<ele>61.508640</ele>
<time>2026-04-25T16:59:24.003Z</time>
</trkpt>
<trkpt lat="59.0944660" lon="30.0316140">
<ele>61.051441</ele>
<time>2026-04-25T16:59:40.004Z</time>
</trkpt>
<trkpt lat="59.0946990" lon="30.0324840">
<ele>58.734959</ele>
<time>2026-04-25T17:01:08.996Z</time>
</trkpt>
<trkpt lat="59.0945590" lon="30.0323300">
<ele>62.026798</ele>
<time>2026-04-25T17:02:13.001Z</time>
</trkpt>
<trkpt lat="59.0944860" lon="30.0323670">
<ele>60.533283</ele>
<time>2026-04-25T17:02:33.996Z</time>
</trkpt>
<trkpt lat="59.0943830" lon="30.0322180">
<ele>62.484001</ele>
<time>2026-04-25T17:03:16.004Z</time>
</trkpt>
<trkpt lat="59.0942400" lon="30.0314590">
<ele>59.192158</ele>
<time>2026-04-25T17:04:24.001Z</time>
</trkpt>
<trkpt lat="59.0941470" lon="30.0312680">
<ele>60.258961</ele>
<time>2026-04-25T17:04:45.998Z</time>
</trkpt>
<trkpt lat="59.0941440" lon="30.0311600">
<ele>60.533283</ele>
<time>2026-04-25T17:05:03.002Z</time>
</trkpt>
<trkpt lat="59.0940490" lon="30.0309480">
<ele>59.344559</ele>
<time>2026-04-25T17:05:23.004Z</time>
</trkpt>
<trkpt lat="59.0938360" lon="30.0305870">
<ele>55.046883</ele>
<time>2026-04-25T17:06:09.003Z</time>
</trkpt>
<trkpt lat="59.0937840" lon="30.0303220">
<ele>58.399681</ele>
<time>2026-04-25T17:06:51.002Z</time>
</trkpt>
<trkpt lat="59.0938160" lon="30.0304160">
<ele>62.727840</ele>
<time>2026-04-25T17:07:21.000Z</time>
</trkpt>
<trkpt lat="59.0936610" lon="30.0304410">
<ele>61.569599</ele>
<time>2026-04-25T17:08:01.997Z</time>
</trkpt>
<trkpt lat="59.0936890" lon="30.0306550">
<ele>59.161682</ele>
<time>2026-04-25T17:08:24.003Z</time>
</trkpt>
<trkpt lat="59.0937450" lon="30.0308800">
<ele>58.765442</ele>
<time>2026-04-25T17:08:51.996Z</time>
</trkpt>
<trkpt lat="59.0940010" lon="30.0313180">
<ele>58.064400</ele>
<time>2026-04-25T17:09:42.998Z</time>
</trkpt>
<trkpt lat="59.0940620" lon="30.0315890">
<ele>59.557919</ele>
<time>2026-04-25T17:10:16.997Z</time>
</trkpt>
<trkpt lat="59.0942100" lon="30.0318890">
<ele>59.466480</ele>
<time>2026-04-25T17:10:47.004Z</time>
</trkpt>
<trkpt lat="59.0942740" lon="30.0321430">
<ele>58.094883</ele>
<time>2026-04-25T17:11:06.996Z</time>
</trkpt>
<trkpt lat="59.0942530" lon="30.0323730">
<ele>59.710320</ele>
<time>2026-04-25T17:11:29.996Z</time>
</trkpt>
<trkpt lat="59.0941400" lon="30.0324440">
<ele>58.734959</ele>
<time>2026-04-25T17:11:49.998Z</time>
</trkpt>
<trkpt lat="59.0940300" lon="30.0321000">
<ele>58.430161</ele>
<time>2026-04-25T17:12:35.004Z</time>
</trkpt>
<trkpt lat="59.0939330" lon="30.0319410">
<ele>57.911999</ele>
<time>2026-04-25T17:12:58.997Z</time>
</trkpt>
<trkpt lat="59.0938250" lon="30.0314600">
<ele>61.600082</ele>
<time>2026-04-25T17:13:41.998Z</time>
</trkpt>
<trkpt lat="59.0936470" lon="30.0311010">
<ele>60.838081</ele>
<time>2026-04-25T17:14:27.997Z</time>
</trkpt>
<trkpt lat="59.0934450" lon="30.0305480">
<ele>62.148720</ele>
<time>2026-04-25T17:15:33.998Z</time>
</trkpt>
<trkpt lat="59.0932990" lon="30.0305390">
<ele>60.899040</ele>
<time>2026-04-25T17:16:23.998Z</time>
</trkpt>
<trkpt lat="59.0933410" lon="30.0309010">
<ele>59.984642</ele>
<time>2026-04-25T17:16:56.001Z</time>
</trkpt>
<trkpt lat="59.0937460" lon="30.0317180">
<ele>61.142883</ele>
<time>2026-04-25T17:18:25.001Z</time>
</trkpt>
<trkpt lat="59.0938370" lon="30.0320680">
<ele>61.782959</ele>
<time>2026-04-25T17:19:01.004Z</time>
</trkpt>
<trkpt lat="59.0938450" lon="30.0322720">
<ele>62.270641</ele>
<time>2026-04-25T17:19:20.004Z</time>
</trkpt>
<trkpt lat="59.0939450" lon="30.0325260">
<ele>61.295280</ele>
<time>2026-04-25T17:19:44.999Z</time>
</trkpt>
<trkpt lat="59.0938490" lon="30.0325290">
<ele>67.056000</ele>
<time>2026-04-25T17:20:38.999Z</time>
</trkpt>
<trkpt lat="59.0938340" lon="30.0324820">
<ele>66.812157</ele>
<time>2026-04-25T17:21:07.001Z</time>
</trkpt>
<trkpt lat="59.0939940" lon="30.0325810">
<ele>24.871679</ele>
<time>2026-04-25T17:23:22.001Z</time>
</trkpt>
<trkpt lat="59.0938290" lon="30.0325440">
<ele>68.366638</ele>
<time>2026-04-25T17:23:51.999Z</time>
</trkpt>
<trkpt lat="59.0938900" lon="30.0326360">
<ele>66.446404</ele>
<time>2026-04-25T17:24:47.002Z</time>
</trkpt>
<trkpt lat="59.0938600" lon="30.0325920">
<ele>68.275200</ele>
<time>2026-04-25T17:25:15.997Z</time>
</trkpt>
<trkpt lat="59.0939230" lon="30.0326020">
<ele>67.665604</ele>
<time>2026-04-25T17:25:42.004Z</time>
</trkpt>
<trkpt lat="59.0940410" lon="30.0324600">
<ele>65.318642</ele>
<time>2026-04-25T17:26:01.003Z</time>
</trkpt>
<trkpt lat="59.0941590" lon="30.0325300">
<ele>64.648079</ele>
<time>2026-04-25T17:26:20.996Z</time>
</trkpt>
<trkpt lat="59.0942060" lon="30.0326530">
<ele>67.482719</ele>
<time>2026-04-25T17:26:48.998Z</time>
</trkpt>
<trkpt lat="59.0940580" lon="30.0325610">
<ele>66.903603</ele>
<time>2026-04-25T17:27:13.000Z</time>
</trkpt>
<trkpt lat="59.0936940" lon="30.0326480">
<ele>69.189598</ele>
<time>2026-04-25T17:29:07.999Z</time>
</trkpt>
<trkpt lat="59.0934410" lon="30.0316720">
<ele>73.182480</ele>
<time>2026-04-25T17:31:06.004Z</time>
</trkpt>
<trkpt lat="59.0933340" lon="30.0313930">
<ele>72.877686</ele>
<time>2026-04-25T17:31:44.003Z</time>
</trkpt>
<trkpt lat="59.0932370" lon="30.0313060">
<ele>72.847198</ele>
<time>2026-04-25T17:32:03.002Z</time>
</trkpt>
<trkpt lat="59.0930390" lon="30.0306140">
<ele>73.761597</ele>
<time>2026-04-25T17:33:18.999Z</time>
</trkpt>
<trkpt lat="59.0930080" lon="30.0306980">
<ele>73.395844</ele>
<time>2026-04-25T17:33:40.997Z</time>
</trkpt>
<trkpt lat="59.0929190" lon="30.0306900">
<ele>72.572884</ele>
<time>2026-04-25T17:33:58.000Z</time>
</trkpt>
<trkpt lat="59.0929850" lon="30.0313050">
<ele>70.073517</ele>
<time>2026-04-25T17:34:58.999Z</time>
</trkpt>
<trkpt lat="59.0934220" lon="30.0322940">
<ele>73.609200</ele>
<time>2026-04-25T17:37:04.996Z</time>
</trkpt>
<trkpt lat="59.0934900" lon="30.0326260">
<ele>74.462639</ele>
<time>2026-04-25T17:37:46.001Z</time>
</trkpt>
<trkpt lat="59.0933270" lon="30.0326650">
<ele>75.895203</ele>
<time>2026-04-25T17:38:24.000Z</time>
</trkpt>
<trkpt lat="59.0931770" lon="30.0324130">
<ele>73.548241</ele>
<time>2026-04-25T17:39:12.004Z</time>
</trkpt>
<trkpt lat="59.0931700" lon="30.0320870">
<ele>73.212959</ele>
<time>2026-04-25T17:39:50.003Z</time>
</trkpt>
<trkpt lat="59.0930910" lon="30.0317910">
<ele>74.279762</ele>
<time>2026-04-25T17:40:33.004Z</time>
</trkpt>
<trkpt lat="59.0930570" lon="30.0317050">
<ele>76.504799</ele>
<time>2026-04-25T17:40:59.002Z</time>
</trkpt>
<trkpt lat="59.0929790" lon="30.0316820">
<ele>76.139038</ele>
<time>2026-04-25T17:41:23.004Z</time>
</trkpt>
<trkpt lat="59.0928130" lon="30.0314930">
<ele>74.828400</ele>
<time>2026-04-25T17:41:57.002Z</time>
</trkpt>
<trkpt lat="59.0927700" lon="30.0313480">
<ele>74.279762</ele>
<time>2026-04-25T17:42:17.004Z</time>
</trkpt>
<trkpt lat="59.0927090" lon="30.0307900">
<ele>74.371201</ele>
<time>2026-04-25T17:43:11.997Z</time>
</trkpt>
<trkpt lat="59.0927360" lon="30.0308460">
<ele>73.517761</ele>
<time>2026-04-25T17:43:46.004Z</time>
</trkpt>
<trkpt lat="59.0925780" lon="30.0308480">
<ele>72.420479</ele>
<time>2026-04-25T17:44:08.002Z</time>
</trkpt>
<trkpt lat="59.0925570" lon="30.0309560">
<ele>72.329041</ele>
<time>2026-04-25T17:44:29.999Z</time>
</trkpt>
<trkpt lat="59.0925790" lon="30.0311160">
<ele>72.511917</ele>
<time>2026-04-25T17:44:47.996Z</time>
</trkpt>
<trkpt lat="59.0927110" lon="30.0315560">
<ele>72.146156</ele>
<time>2026-04-25T17:45:45.996Z</time>
</trkpt>
<trkpt lat="59.0927680" lon="30.0316070">
<ele>71.993759</ele>
<time>2026-04-25T17:46:01.998Z</time>
</trkpt>
<trkpt lat="59.0928590" lon="30.0319110">
<ele>73.152000</ele>
<time>2026-04-25T17:46:43.003Z</time>
</trkpt>
<trkpt lat="59.0929270" lon="30.0319510">
<ele>74.005440</ele>
<time>2026-04-25T17:47:06.996Z</time>
</trkpt>
<trkpt lat="59.0931860" lon="30.0326620">
<ele>78.211685</ele>
<time>2026-04-25T17:48:43.004Z</time>
</trkpt>
<trkpt lat="59.0930260" lon="30.0327620">
<ele>77.175362</ele>
<time>2026-04-25T17:49:41.998Z</time>
</trkpt>
<trkpt lat="59.0929920" lon="30.0326140">
<ele>78.364082</ele>
<time>2026-04-25T17:50:04.004Z</time>
</trkpt>
<trkpt lat="59.0928650" lon="30.0324910">
<ele>78.150719</ele>
<time>2026-04-25T17:50:46.997Z</time>
</trkpt>
<trkpt lat="59.0927100" lon="30.0319100">
<ele>74.828400</ele>
<time>2026-04-25T17:51:48.004Z</time>
</trkpt>
<trkpt lat="59.0926440" lon="30.0317960">
<ele>75.803757</ele>
<time>2026-04-25T17:52:12.999Z</time>
</trkpt>
<trkpt lat="59.0925330" lon="30.0317080">
<ele>76.718163</ele>
<time>2026-04-25T17:52:38.997Z</time>
</trkpt>
<trkpt lat="59.0924710" lon="30.0315070">
<ele>75.712318</ele>
<time>2026-04-25T17:53:15.000Z</time>
</trkpt>
<trkpt lat="59.0924060" lon="30.0309360">
<ele>75.864716</ele>
<time>2026-04-25T17:54:30.004Z</time>
</trkpt>
<trkpt lat="59.0923000" lon="30.0310070">
<ele>76.779121</ele>
<time>2026-04-25T17:54:54.999Z</time>
</trkpt>
<trkpt lat="59.0922820" lon="30.0311020">
<ele>77.083916</ele>
<time>2026-04-25T17:55:17.999Z</time>
</trkpt>
<trkpt lat="59.0923260" lon="30.0312730">
<ele>76.565758</ele>
<time>2026-04-25T17:55:35.003Z</time>
</trkpt>
<trkpt lat="59.0925110" lon="30.0319130">
<ele>75.864716</ele>
<time>2026-04-25T17:57:15.002Z</time>
</trkpt>
<trkpt lat="59.0925810" lon="30.0319690">
<ele>74.980797</ele>
<time>2026-04-25T17:57:35.997Z</time>
</trkpt>
<trkpt lat="59.0926970" lon="30.0326130">
<ele>77.175362</ele>
<time>2026-04-25T17:59:16.999Z</time>
</trkpt>
<trkpt lat="59.0927770" lon="30.0327090">
<ele>76.535278</ele>
<time>2026-04-25T17:59:34.996Z</time>
</trkpt>
<trkpt lat="59.0928150" lon="30.0328840">
<ele>75.864716</ele>
<time>2026-04-25T17:59:53.002Z</time>
</trkpt>
<trkpt lat="59.0928520" lon="30.0328910">
<ele>76.078079</ele>
<time>2026-04-25T18:00:18.999Z</time>
</trkpt>
<trkpt lat="59.0927900" lon="30.0328370">
<ele>76.047600</ele>
<time>2026-04-25T18:00:41.999Z</time>
</trkpt>
<trkpt lat="59.0927430" lon="30.0330150">
<ele>74.584557</ele>
<time>2026-04-25T18:01:33.001Z</time>
</trkpt>
<trkpt lat="59.0927510" lon="30.0328240">
<ele>74.919838</ele>
<time>2026-04-25T18:03:19.999Z</time>
</trkpt>
<trkpt lat="59.0928460" lon="30.0328510">
<ele>74.157845</ele>
<time>2026-04-25T18:04:07.000Z</time>
</trkpt>
<trkpt lat="59.0928440" lon="30.0329800">
<ele>76.870560</ele>
<time>2026-04-25T18:05:14.997Z</time>
</trkpt>
<trkpt lat="59.0927770" lon="30.0329420">
<ele>74.919838</ele>
<time>2026-04-25T18:06:15.002Z</time>
</trkpt>
<trkpt lat="59.0927070" lon="30.0330080">
<ele>74.401680</ele>
<time>2026-04-25T18:06:42.002Z</time>
</trkpt>
<trkpt lat="59.0927580" lon="30.0329340">
<ele>75.986641</ele>
<time>2026-04-25T18:07:13.996Z</time>
</trkpt>
<trkpt lat="59.0928410" lon="30.0329800">
<ele>76.260956</ele>
<time>2026-04-25T18:08:58.998Z</time>
</trkpt>
<trkpt lat="59.0928600" lon="30.0328840">
<ele>75.072243</ele>
<time>2026-04-25T18:09:25.998Z</time>
</trkpt>
<trkpt lat="59.0928170" lon="30.0329810">
<ele>78.211685</ele>
<time>2026-04-25T18:10:22.002Z</time>
</trkpt>
<trkpt lat="59.0928660" lon="30.0329420">
<ele>79.705200</ele>
<time>2026-04-25T18:11:09.997Z</time>
</trkpt>
<trkpt lat="59.0928200" lon="30.0329460">
<ele>80.131920</ele>
<time>2026-04-25T18:11:33.999Z</time>
</trkpt>
<trkpt lat="59.0928520" lon="30.0327900">
<ele>81.716881</ele>
<time>2026-04-25T18:12:19.999Z</time>
</trkpt>
<trkpt lat="59.0927850" lon="30.0328920">
<ele>83.057999</ele>
<time>2026-04-25T18:12:48.001Z</time>
</trkpt>
<trkpt lat="59.0927030" lon="30.0329050">
<ele>83.210403</ele>
<time>2026-04-25T18:13:04.996Z</time>
</trkpt>
<trkpt lat="59.0925820" lon="30.0326030">
<ele>83.240883</ele>
<time>2026-04-25T18:13:58.002Z</time>
</trkpt>
<trkpt lat="59.0924250" lon="30.0320890">
<ele>83.240883</ele>
<time>2026-04-25T18:15:14.000Z</time>
</trkpt>
<trkpt lat="59.0924220" lon="30.0319200">
<ele>83.515198</ele>
<time>2026-04-25T18:15:35.997Z</time>
</trkpt>
<trkpt lat="59.0922980" lon="30.0316310">
<ele>84.124802</ele>
<time>2026-04-25T18:16:20.001Z</time>
</trkpt>
<trkpt lat="59.0921210" lon="30.0310230">
<ele>83.698082</ele>
<time>2026-04-25T18:17:50.997Z</time>
</trkpt>
<trkpt lat="59.0921130" lon="30.0311170">
<ele>85.344002</ele>
<time>2026-04-25T18:18:20.002Z</time>
</trkpt>
<trkpt lat="59.0921610" lon="30.0311890">
<ele>87.294716</ele>
<time>2026-04-25T18:18:45.999Z</time>
</trkpt>
<trkpt lat="59.0921500" lon="30.0311520">
<ele>87.934799</ele>
<time>2026-04-25T18:19:18.002Z</time>
</trkpt>
<trkpt lat="59.0921870" lon="30.0311220">
<ele>87.325203</ele>
<time>2026-04-25T18:19:44.000Z</time>
</trkpt>
<trkpt lat="59.0923770" lon="30.0317020">
<ele>86.502235</ele>
<time>2026-04-25T18:21:15.998Z</time>
</trkpt>
<trkpt lat="59.0925680" lon="30.0326320">
<ele>87.721436</ele>
<time>2026-04-25T18:23:09.001Z</time>
</trkpt>
<trkpt lat="59.0926780" lon="30.0327340">
<ele>88.391998</ele>
<time>2026-04-25T18:23:30.998Z</time>
</trkpt>
<trkpt lat="59.0927090" lon="30.0329210">
<ele>88.818718</ele>
<time>2026-04-25T18:23:49.004Z</time>
</trkpt>
<trkpt lat="59.0925950" lon="30.0330420">
<ele>88.056717</ele>
<time>2026-04-25T18:24:04.997Z</time>
</trkpt>
<trkpt lat="59.0924600" lon="30.0328570">
<ele>87.294716</ele>
<time>2026-04-25T18:24:53.001Z</time>
</trkpt>
<trkpt lat="59.0924430" lon="30.0328800">
<ele>87.233765</ele>
<time>2026-04-25T18:25:25.003Z</time>
</trkpt>
<trkpt lat="59.0925050" lon="30.0328420">
<ele>87.172798</ele>
<time>2026-04-25T18:25:59.002Z</time>
</trkpt>
<trkpt lat="59.0924770" lon="30.0325690">
<ele>86.136482</ele>
<time>2026-04-25T18:26:34.002Z</time>
</trkpt>
<trkpt lat="59.0924350" lon="30.0324510">
<ele>85.557365</ele>
<time>2026-04-25T18:26:46.997Z</time>
</trkpt>
<trkpt lat="59.0922140" lon="30.0321890">
<ele>84.124802</ele>
<time>2026-04-25T18:27:54.000Z</time>
</trkpt>
<trkpt lat="59.0921640" lon="30.0320240">
<ele>84.124802</ele>
<time>2026-04-25T18:28:15.997Z</time>
</trkpt>
<trkpt lat="59.0920450" lon="30.0318820">
<ele>83.484718</ele>
<time>2026-04-25T18:29:24.996Z</time>
</trkpt>
<trkpt lat="59.0920400" lon="30.0316580">
<ele>83.637115</ele>
<time>2026-04-25T18:31:03.000Z</time>
</trkpt>
<trkpt lat="59.0920090" lon="30.0315070">
<ele>82.966560</ele>
<time>2026-04-25T18:31:28.998Z</time>
</trkpt>
<trkpt lat="59.0919800" lon="30.0315200">
<ele>81.198715</ele>
<time>2026-04-25T18:31:59.998Z</time>
</trkpt>
<trkpt lat="59.0919240" lon="30.0311840">
<ele>80.131920</ele>
<time>2026-04-25T18:33:15.002Z</time>
</trkpt>
<trkpt lat="59.0918810" lon="30.0312960">
<ele>78.851761</ele>
<time>2026-04-25T18:33:53.001Z</time>
</trkpt>
<trkpt lat="59.0919310" lon="30.0313390">
<ele>79.979515</ele>
<time>2026-04-25T18:34:17.996Z</time>
</trkpt>
<trkpt lat="59.0919050" lon="30.0313450">
<ele>79.674721</ele>
<time>2026-04-25T18:34:48.003Z</time>
</trkpt>
<trkpt lat="59.0919380" lon="30.0314310">
<ele>78.699364</ele>
<time>2026-04-25T18:35:12.998Z</time>
</trkpt>
<trkpt lat="59.0920640" lon="30.0315680">
<ele>78.242165</ele>
<time>2026-04-25T18:36:01.002Z</time>
</trkpt>
<trkpt lat="59.0922520" lon="30.0320190">
<ele>78.303116</ele>
<time>2026-04-25T18:37:30.003Z</time>
</trkpt>
<trkpt lat="59.0922660" lon="30.0321690">
<ele>77.845917</ele>
<time>2026-04-25T18:37:50.998Z</time>
</trkpt>
<trkpt lat="59.0924000" lon="30.0325380">
<ele>77.205841</ele>
<time>2026-04-25T18:38:36.997Z</time>
</trkpt>
<trkpt lat="59.0924070" lon="30.0327240">
<ele>78.181198</ele>
<time>2026-04-25T18:39:03.004Z</time>
</trkpt>
<trkpt lat="59.0924780" lon="30.0328770">
<ele>78.181198</ele>
<time>2026-04-25T18:39:23.999Z</time>
</trkpt>
<trkpt lat="59.0924760" lon="30.0329930">
<ele>78.150719</ele>
<time>2026-04-25T18:39:45.003Z</time>
</trkpt>
<trkpt lat="59.0924010" lon="30.0329240">
<ele>77.480156</ele>
<time>2026-04-25T18:40:20.997Z</time>
</trkpt>
<trkpt lat="59.0924410" lon="30.0329580">
<ele>75.925682</ele>
<time>2026-04-25T18:40:51.004Z</time>
</trkpt>
<trkpt lat="59.0924410" lon="30.0330470">
<ele>78.394562</ele>
<time>2026-04-25T18:41:20.000Z</time>
</trkpt>
<trkpt lat="59.0924730" lon="30.0330980">
<ele>79.430885</ele>
<time>2026-04-25T18:41:45.004Z</time>
</trkpt>
<trkpt lat="59.0926680" lon="30.0330020">
<ele>79.430885</ele>
<time>2026-04-25T18:42:08.997Z</time>
</trkpt>
<trkpt lat="59.0927420" lon="30.0330340">
<ele>80.467201</ele>
<time>2026-04-25T18:42:30.001Z</time>
</trkpt>
<trkpt lat="59.0924440" lon="30.0329370">
<ele>82.387436</ele>
<time>2026-04-25T18:43:47.001Z</time>
</trkpt>
<trkpt lat="59.0924680" lon="30.0331330">
<ele>85.008720</ele>
<time>2026-04-25T18:45:12.001Z</time>
</trkpt>
<trkpt lat="59.0924250" lon="30.0331130">
<ele>85.222084</ele>
<time>2026-04-25T18:45:45.999Z</time>
</trkpt>
<trkpt lat="59.0924550" lon="30.0331500">
<ele>86.807037</ele>
<time>2026-04-25T18:46:12.999Z</time>
</trkpt>
<trkpt lat="59.0924210" lon="30.0331530">
<ele>87.477600</ele>
<time>2026-04-25T18:46:37.001Z</time>
</trkpt>
<trkpt lat="59.0924410" lon="30.0329850">
<ele>86.288879</ele>
<time>2026-04-25T18:47:12.002Z</time>
</trkpt>
<trkpt lat="59.0925760" lon="30.0328640">
<ele>86.502235</ele>
<time>2026-04-25T18:48:49.003Z</time>
</trkpt>
<trkpt lat="59.0925420" lon="30.0329420">
<ele>85.344002</ele>
<time>2026-04-25T18:49:51.997Z</time>
</trkpt>
<trkpt lat="59.0924000" lon="30.0327050">
<ele>80.954880</ele>
<time>2026-04-25T18:51:04.003Z</time>
</trkpt>
<trkpt lat="59.0923380" lon="30.0324610">
<ele>79.522316</ele>
<time>2026-04-25T18:51:50.003Z</time>
</trkpt>
<trkpt lat="59.0923420" lon="30.0321490">
<ele>77.937363</ele>
<time>2026-04-25T18:52:32.002Z</time>
</trkpt>
<trkpt lat="59.0921970" lon="30.0317820">
<ele>77.571602</ele>
<time>2026-04-25T18:53:23.997Z</time>
</trkpt>
<trkpt lat="59.0918640" lon="30.0313860">
<ele>75.651360</ele>
<time>2026-04-25T18:54:58.000Z</time>
</trkpt>
<trkpt lat="59.0917530" lon="30.0311630">
<ele>77.449684</ele>
<time>2026-04-25T18:55:49.996Z</time>
</trkpt>
<trkpt lat="59.0917090" lon="30.0312130">
<ele>77.175362</ele>
<time>2026-04-25T18:56:19.000Z</time>
</trkpt>
<trkpt lat="59.0917550" lon="30.0312570">
<ele>77.663040</ele>
<time>2026-04-25T18:57:00.999Z</time>
</trkpt>
<trkpt lat="59.0917240" lon="30.0314920">
<ele>77.419197</ele>
<time>2026-04-25T18:57:23.999Z</time>
</trkpt>
<trkpt lat="59.0917910" lon="30.0316360">
<ele>77.175362</ele>
<time>2026-04-25T18:58:08.003Z</time>
</trkpt>
<trkpt lat="59.0918030" lon="30.0318510">
<ele>78.333603</ele>
<time>2026-04-25T18:58:53.000Z</time>
</trkpt>
<trkpt lat="59.0919360" lon="30.0322490">
<ele>78.943199</ele>
<time>2026-04-25T19:00:15.002Z</time>
</trkpt>
<trkpt lat="59.0919540" lon="30.0324140">
<ele>79.339439</ele>
<time>2026-04-25T19:00:39.004Z</time>
</trkpt>
<trkpt lat="59.0919310" lon="30.0325350">
<ele>80.010002</ele>
<time>2026-04-25T19:01:06.997Z</time>
</trkpt>
<trkpt lat="59.0921550" lon="30.0332030">
<ele>81.747360</ele>
<time>2026-04-25T19:03:52.998Z</time>
</trkpt>
<trkpt lat="59.0921580" lon="30.0333340">
<ele>81.594963</ele>
<time>2026-04-25T19:04:15.997Z</time>
</trkpt>
<trkpt lat="59.0920580" lon="30.0335290">
<ele>79.187035</ele>
<time>2026-04-25T19:05:08.002Z</time>
</trkpt>
<trkpt lat="59.0920060" lon="30.0335250">
<ele>78.455521</ele>
<time>2026-04-25T19:05:32.997Z</time>
</trkpt>
<trkpt lat="59.0920410" lon="30.0334740">
<ele>77.998322</ele>
<time>2026-04-25T19:06:07.004Z</time>
</trkpt>
<trkpt lat="59.0920350" lon="30.0332910">
<ele>76.535278</ele>
<time>2026-04-25T19:06:54.999Z</time>
</trkpt>
<trkpt lat="59.0920000" lon="30.0330830">
<ele>77.632561</ele>
<time>2026-04-25T19:07:51.997Z</time>
</trkpt>
<trkpt lat="59.0918920" lon="30.0329480">
<ele>75.925682</ele>
<time>2026-04-25T19:08:28.000Z</time>
</trkpt>
<trkpt lat="59.0918640" lon="30.0324510">
<ele>72.816719</ele>
<time>2026-04-25T19:10:20.001Z</time>
</trkpt>
<trkpt lat="59.0917110" lon="30.0322820">
<ele>72.755760</ele>
<time>2026-04-25T19:11:41.001Z</time>
</trkpt>
<trkpt lat="59.0916220" lon="30.0317350">
<ele>72.511917</ele>
<time>2026-04-25T19:13:54.998Z</time>
</trkpt>
<trkpt lat="59.0915450" lon="30.0316790">
<ele>72.542397</ele>
<time>2026-04-25T19:14:20.003Z</time>
</trkpt>
<trkpt lat="59.0915140" lon="30.0315080">
<ele>72.786240</ele>
<time>2026-04-25T19:14:46.000Z</time>
</trkpt>
<trkpt lat="59.0914080" lon="30.0312990">
<ele>73.822556</ele>
<time>2026-04-25T19:15:36.000Z</time>
</trkpt>
<trkpt lat="59.0913990" lon="30.0313560">
<ele>74.919838</ele>
<time>2026-04-25T19:16:08.996Z</time>
</trkpt>
<trkpt lat="59.0914420" lon="30.0312210">
<ele>75.102715</ele>
<time>2026-04-25T19:16:35.003Z</time>
</trkpt>
<trkpt lat="59.0913800" lon="30.0313130">
<ele>75.559921</ele>
<time>2026-04-25T19:16:58.996Z</time>
</trkpt>
<trkpt lat="59.0911130" lon="30.0314790">
<ele>73.883514</ele>
<time>2026-04-25T19:18:39.004Z</time>
</trkpt>
<trkpt lat="59.0911040" lon="30.0315550">
<ele>74.066399</ele>
<time>2026-04-25T19:18:46.996Z</time>
</trkpt>
<trkpt lat="59.0911220" lon="30.0317420">
<ele>74.554085</ele>
<time>2026-04-25T19:19:06.997Z</time>
</trkpt>
<trkpt lat="59.0912390" lon="30.0320310">
<ele>75.377045</ele>
<time>2026-04-25T19:20:26.002Z</time>
</trkpt>
<trkpt lat="59.0912310" lon="30.0323090">
<ele>77.053444</ele>
<time>2026-04-25T19:21:33.998Z</time>
</trkpt>
<trkpt lat="59.0914210" lon="30.0324630">
<ele>74.980797</ele>
<time>2026-04-25T19:23:36.997Z</time>
</trkpt>
<trkpt lat="59.0912870" lon="30.0324330">
<ele>76.535278</ele>
<time>2026-04-25T19:25:39.003Z</time>
</trkpt>
<trkpt lat="59.0913840" lon="30.0323740">
<ele>79.644234</ele>
<time>2026-04-25T19:26:26.998Z</time>
</trkpt>
<trkpt lat="59.0913810" lon="30.0325690">
<ele>78.150719</ele>
<time>2026-04-25T19:27:12.004Z</time>
</trkpt>
<trkpt lat="59.0914740" lon="30.0328990">
<ele>76.443840</ele>
<time>2026-04-25T19:28:20.001Z</time>
</trkpt>
<trkpt lat="59.0915830" lon="30.0331450">
<ele>76.108559</ele>
<time>2026-04-25T19:28:59.002Z</time>
</trkpt>
<trkpt lat="59.0915360" lon="30.0333700">
<ele>77.388718</ele>
<time>2026-04-25T19:29:34.002Z</time>
</trkpt>
<trkpt lat="59.0916630" lon="30.0336960">
<ele>77.815437</ele>
<time>2026-04-25T19:30:41.999Z</time>
</trkpt>
<trkpt lat="59.0916380" lon="30.0337640">
<ele>77.449684</ele>
<time>2026-04-25T19:31:08.999Z</time>
</trkpt>
<trkpt lat="59.0917380" lon="30.0337620">
<ele>77.053444</ele>
<time>2026-04-25T19:31:38.004Z</time>
</trkpt>
<trkpt lat="59.0918660" lon="30.0339090">
<ele>76.413361</ele>
<time>2026-04-25T19:32:24.003Z</time>
</trkpt>
<trkpt lat="59.0917110" lon="30.0342650">
<ele>72.847198</ele>
<time>2026-04-25T19:33:14.003Z</time>
</trkpt>
<trkpt lat="59.0916220" lon="30.0340100">
<ele>72.237602</ele>
<time>2026-04-25T19:34:19.001Z</time>
</trkpt>
<trkpt lat="59.0916370" lon="30.0336240">
<ele>72.481438</ele>
<time>2026-04-25T19:37:16.000Z</time>
</trkpt>
<trkpt lat="59.0916020" lon="30.0335030">
<ele>72.816719</ele>
<time>2026-04-25T19:37:37.998Z</time>
</trkpt>
<trkpt lat="59.0913500" lon="30.0331440">
<ele>71.810883</ele>
<time>2026-04-25T19:38:50.997Z</time>
</trkpt>
<trkpt lat="59.0912960" lon="30.0328540">
<ele>70.713600</ele>
<time>2026-04-25T19:39:35.001Z</time>
</trkpt>
<trkpt lat="59.0911360" lon="30.0325590">
<ele>70.469757</ele>
<time>2026-04-25T19:40:18.002Z</time>
</trkpt>
<trkpt lat="59.0910620" lon="30.0319620">
<ele>70.469757</ele>
<time>2026-04-25T19:41:50.001Z</time>
</trkpt>
<trkpt lat="59.0910150" lon="30.0319060">
<ele>70.683121</ele>
<time>2026-04-25T19:42:10.996Z</time>
</trkpt>
<trkpt lat="59.0909330" lon="30.0316120">
<ele>69.707756</ele>
<time>2026-04-25T19:42:45.003Z</time>
</trkpt>
<trkpt lat="59.0909020" lon="30.0315700">
<ele>69.189598</ele>
<time>2026-04-25T19:42:59.000Z</time>
</trkpt>
<trkpt lat="59.0906950" lon="30.0316360">
<ele>69.890640</ele>
<time>2026-04-25T19:43:51.004Z</time>
</trkpt>
<trkpt lat="59.0906640" lon="30.0316910">
<ele>71.780403</ele>
<time>2026-04-25T19:44:22.004Z</time>
</trkpt>
<trkpt lat="59.0905150" lon="30.0317140">
<ele>72.176643</ele>
<time>2026-04-25T19:45:04.997Z</time>
</trkpt>
<trkpt lat="59.0905140" lon="30.0317790">
<ele>71.932800</ele>
<time>2026-04-25T19:45:30.001Z</time>
</trkpt>
<trkpt lat="59.0906280" lon="30.0320720">
<ele>71.018402</ele>
<time>2026-04-25T19:46:05.002Z</time>
</trkpt>
<trkpt lat="59.0907650" lon="30.0328530">
<ele>71.871841</ele>
<time>2026-04-25T19:47:50.004Z</time>
</trkpt>
<trkpt lat="59.0908830" lon="30.0329320">
<ele>72.329041</ele>
<time>2026-04-25T19:48:06.998Z</time>
</trkpt>
<trkpt lat="59.0909590" lon="30.0332090">
<ele>73.212959</ele>
<time>2026-04-25T19:48:43.001Z</time>
</trkpt>
<trkpt lat="59.0910790" lon="30.0333830">
<ele>72.816719</ele>
<time>2026-04-25T19:49:17.000Z</time>
</trkpt>
<trkpt lat="59.0910910" lon="30.0335690">
<ele>73.152000</ele>
<time>2026-04-25T19:49:35.999Z</time>
</trkpt>
<trkpt lat="59.0911720" lon="30.0337670">
<ele>72.664322</ele>
<time>2026-04-25T19:49:54.998Z</time>
</trkpt>
<trkpt lat="59.0912330" lon="30.0341330">
<ele>72.786240</ele>
<time>2026-04-25T19:50:28.003Z</time>
</trkpt>
<trkpt lat="59.0914760" lon="30.0345990">
<ele>70.073517</ele>
<time>2026-04-25T19:52:01.004Z</time>
</trkpt>
<trkpt lat="59.0914560" lon="30.0347160">
<ele>69.799202</ele>
<time>2026-04-25T19:52:21.999Z</time>
</trkpt>
<trkpt lat="59.0914000" lon="30.0347630">
<ele>69.372482</ele>
<time>2026-04-25T19:53:10.997Z</time>
</trkpt>
<trkpt lat="59.0914340" lon="30.0348420">
<ele>70.744080</ele>
<time>2026-04-25T19:54:42.002Z</time>
</trkpt>
<trkpt lat="59.0914340" lon="30.0346750">
<ele>72.633842</ele>
<time>2026-04-25T19:55:13.002Z</time>
</trkpt>
<trkpt lat="59.0914090" lon="30.0347660">
<ele>75.194160</ele>
<time>2026-04-25T19:55:43.000Z</time>
</trkpt>
<trkpt lat="59.0914570" lon="30.0347750">
<ele>79.278481</ele>
<time>2026-04-25T19:56:42.003Z</time>
</trkpt>
<trkpt lat="59.0914620" lon="30.0348700">
<ele>79.918564</ele>
<time>2026-04-25T19:57:20.002Z</time>
</trkpt>
<trkpt lat="59.0914570" lon="30.0347870">
<ele>78.760315</ele>
<time>2026-04-25T19:58:08.999Z</time>
</trkpt>
<trkpt lat="59.0914270" lon="30.0347840">
<ele>77.205841</ele>
<time>2026-04-25T19:58:39.999Z</time>
</trkpt>
<trkpt lat="59.0914430" lon="30.0348290">
<ele>75.925682</ele>
<time>2026-04-25T19:59:32.997Z</time>
</trkpt>
<trkpt lat="59.0913270" lon="30.0350100">
<ele>74.005440</ele>
<time>2026-04-25T20:00:07.998Z</time>
</trkpt>
<trkpt lat="59.0910330" lon="30.0340400">
<ele>72.816719</ele>
<time>2026-04-25T20:02:17.002Z</time>
</trkpt>
<trkpt lat="59.0910370" lon="30.0336610">
<ele>73.334885</ele>
<time>2026-04-25T20:02:49.004Z</time>
</trkpt>
<trkpt lat="59.0909950" lon="30.0335820">
<ele>72.969116</ele>
<time>2026-04-25T20:02:56.996Z</time>
</trkpt>
<trkpt lat="59.0908720" lon="30.0335030">
<ele>72.999603</ele>
<time>2026-04-25T20:03:23.003Z</time>
</trkpt>
<trkpt lat="59.0907460" lon="30.0332970">
<ele>72.969116</ele>
<time>2026-04-25T20:03:55.999Z</time>
</trkpt>
<trkpt lat="59.0906510" lon="30.0327070">
<ele>72.511917</ele>
<time>2026-04-25T20:05:19.003Z</time>
</trkpt>
<trkpt lat="59.0905140" lon="30.0323840">
<ele>72.511917</ele>
<time>2026-04-25T20:06:23.000Z</time>
</trkpt>
<trkpt lat="59.0904600" lon="30.0324170">
<ele>72.816719</ele>
<time>2026-04-25T20:06:33.998Z</time>
</trkpt>
<trkpt lat="59.0903810" lon="30.0320000">
<ele>74.310242</ele>
<time>2026-04-25T20:08:09.997Z</time>
</trkpt>
<trkpt lat="59.0903100" lon="30.0318620">
<ele>74.797920</ele>
<time>2026-04-25T20:09:13.000Z</time>
</trkpt>
<trkpt lat="59.0903250" lon="30.0317840">
<ele>74.188316</ele>
<time>2026-04-25T20:09:34.004Z</time>
</trkpt>
<trkpt lat="59.0899290" lon="30.0320140">
<ele>72.877686</ele>
<time>2026-04-25T20:11:18.004Z</time>
</trkpt>
<trkpt lat="59.0898790" lon="30.0321640">
<ele>72.999603</ele>
<time>2026-04-25T20:11:38.999Z</time>
</trkpt>
<trkpt lat="59.0899170" lon="30.0322700">
<ele>72.329041</ele>
<time>2026-04-25T20:11:53.998Z</time>
</trkpt>
<trkpt lat="59.0900610" lon="30.0324550">
<ele>71.292717</ele>
<time>2026-04-25T20:12:39.004Z</time>
</trkpt>
<trkpt lat="59.0901870" lon="30.0328030">
<ele>70.530716</ele>
<time>2026-04-25T20:13:40.996Z</time>
</trkpt>
<trkpt lat="59.0901740" lon="30.0331060">
<ele>71.018402</ele>
<time>2026-04-25T20:14:20.999Z</time>
</trkpt>
<trkpt lat="59.0902160" lon="30.0332230">
<ele>71.079361</ele>
<time>2026-04-25T20:14:37.000Z</time>
</trkpt>
<trkpt lat="59.0902870" lon="30.0332390">
<ele>70.835518</ele>
<time>2026-04-25T20:14:53.002Z</time>
</trkpt>
<trkpt lat="59.0904320" lon="30.0334490">
<ele>69.220085</ele>
<time>2026-04-25T20:15:41.999Z</time>
</trkpt>
<trkpt lat="59.0904400" lon="30.0335880">
<ele>68.640961</ele>
<time>2026-04-25T20:15:59.996Z</time>
</trkpt>
<trkpt lat="59.0905250" lon="30.0337430">
<ele>68.519043</ele>
<time>2026-04-25T20:16:44.000Z</time>
</trkpt>
<trkpt lat="59.0905310" lon="30.0338630">
<ele>68.701920</ele>
<time>2026-04-25T20:16:54.998Z</time>
</trkpt>
<trkpt lat="59.0905940" lon="30.0340050">
<ele>68.336159</ele>
<time>2026-04-25T20:17:17.998Z</time>
</trkpt>
<trkpt lat="59.0905760" lon="30.0341690">
<ele>68.793358</ele>
<time>2026-04-25T20:17:33.999Z</time>
</trkpt>
<trkpt lat="59.0907260" lon="30.0346320">
<ele>68.183762</ele>
<time>2026-04-25T20:18:29.002Z</time>
</trkpt>
<trkpt lat="59.0907310" lon="30.0347790">
<ele>68.031357</ele>
<time>2026-04-25T20:18:45.996Z</time>
</trkpt>
<trkpt lat="59.0909340" lon="30.0352530">
<ele>68.732399</ele>
<time>2026-04-25T20:19:46.001Z</time>
</trkpt>
<trkpt lat="59.0909240" lon="30.0354210">
<ele>69.037201</ele>
<time>2026-04-25T20:20:06.003Z</time>
</trkpt>
<trkpt lat="59.0908170" lon="30.0355460">
<ele>68.610481</ele>
<time>2026-04-25T20:20:25.002Z</time>
</trkpt>
<trkpt lat="59.0907320" lon="30.0355680">
<ele>68.519043</ele>
<time>2026-04-25T20:20:47.000Z</time>
</trkpt>
<trkpt lat="59.0906940" lon="30.0352330">
<ele>68.305679</ele>
<time>2026-04-25T20:21:27.003Z</time>
</trkpt>
<trkpt lat="59.0905210" lon="30.0348080">
<ele>68.976242</ele>
<time>2026-04-25T20:22:35.000Z</time>
</trkpt>
<trkpt lat="59.0903620" lon="30.0339030">
<ele>68.732399</ele>
<time>2026-04-25T20:24:01.996Z</time>
</trkpt>
<trkpt lat="59.0901830" lon="30.0337490">
<ele>69.372482</ele>
<time>2026-04-25T20:24:37.999Z</time>
</trkpt>
<trkpt lat="59.0899670" lon="30.0332280">
<ele>69.311516</ele>
<time>2026-04-25T20:25:49.002Z</time>
</trkpt>
<trkpt lat="59.0899620" lon="30.0330500">
<ele>69.159119</ele>
<time>2026-04-25T20:26:13.004Z</time>
</trkpt>
<trkpt lat="59.0898400" lon="30.0327540">
<ele>69.921120</ele>
<time>2026-04-25T20:26:58.001Z</time>
</trkpt>
<trkpt lat="59.0898440" lon="30.0326220">
<ele>70.408798</ele>
<time>2026-04-25T20:27:21.001Z</time>
</trkpt>
<trkpt lat="59.0899230" lon="30.0325310">
<ele>70.744080</ele>
<time>2026-04-25T20:27:44.001Z</time>
</trkpt>
<trkpt lat="59.0898760" lon="30.0324290">
<ele>70.987915</ele>
<time>2026-04-25T20:28:08.003Z</time>
</trkpt>
<trkpt lat="59.0898930" lon="30.0323440">
<ele>71.963280</ele>
<time>2026-04-25T20:28:30.000Z</time>
</trkpt>
<trkpt lat="59.0898640" lon="30.0322380">
<ele>73.334885</ele>
<time>2026-04-25T20:28:47.004Z</time>
</trkpt>
<trkpt lat="59.0897380" lon="30.0321570">
<ele>75.925682</ele>
<time>2026-04-25T20:29:47.000Z</time>
</trkpt>
<trkpt lat="59.0895490" lon="30.0321260">
<ele>75.255119</ele>
<time>2026-04-25T20:30:35.997Z</time>
</trkpt>
<trkpt lat="59.0893890" lon="30.0322010">
<ele>75.590401</ele>
<time>2026-04-25T20:31:20.001Z</time>
</trkpt>
<trkpt lat="59.0894110" lon="30.0329200">
<ele>74.584557</ele>
<time>2026-04-25T20:33:09.003Z</time>
</trkpt>
<trkpt lat="59.0894730" lon="30.0329370">
<ele>74.980797</ele>
<time>2026-04-25T20:33:25.998Z</time>
</trkpt>
<trkpt lat="59.0895210" lon="30.0333030">
<ele>73.212959</ele>
<time>2026-04-25T20:34:25.000Z</time>
</trkpt>
<trkpt lat="59.0895780" lon="30.0334670">
<ele>72.450958</ele>
<time>2026-04-25T20:34:44.000Z</time>
</trkpt>
<trkpt lat="59.0895990" lon="30.0337150">
<ele>71.902321</ele>
<time>2026-04-25T20:35:11.000Z</time>
</trkpt>
<trkpt lat="59.0897250" lon="30.0342590">
<ele>72.085197</ele>
<time>2026-04-25T20:36:13.000Z</time>
</trkpt>
<trkpt lat="59.0898580" lon="30.0342870">
<ele>72.603355</ele>
<time>2026-04-25T20:36:41.996Z</time>
</trkpt>
<trkpt lat="59.0899130" lon="30.0343820">
<ele>72.542397</ele>
<time>2026-04-25T20:37:01.004Z</time>
</trkpt>
<trkpt lat="59.0900190" lon="30.0347440">
<ele>73.731117</ele>
<time>2026-04-25T20:37:55.004Z</time>
</trkpt>
<trkpt lat="59.0902370" lon="30.0350970">
<ele>73.060562</ele>
<time>2026-04-25T20:39:12.997Z</time>
</trkpt>
<trkpt lat="59.0902980" lon="30.0357150">
<ele>74.127357</ele>
<time>2026-04-25T20:40:39.000Z</time>
</trkpt>
<trkpt lat="59.0904800" lon="30.0360090">
<ele>73.639679</ele>
<time>2026-04-25T20:41:19.997Z</time>
</trkpt>
<trkpt lat="59.0904440" lon="30.0361110">
<ele>73.609200</ele>
<time>2026-04-25T20:41:47.999Z</time>
</trkpt>
<trkpt lat="59.0903650" lon="30.0361820">
<ele>74.919838</ele>
<time>2026-04-25T20:42:27.000Z</time>
</trkpt>
<trkpt lat="59.0903370" lon="30.0363350">
<ele>74.066399</ele>
<time>2026-04-25T20:42:45.999Z</time>
</trkpt>
<trkpt lat="59.0902680" lon="30.0364720">
<ele>73.853043</ele>
<time>2026-04-25T20:43:00.998Z</time>
</trkpt>
<trkpt lat="59.0901550" lon="30.0363180">
<ele>74.615044</ele>
<time>2026-04-25T20:43:37.001Z</time>
</trkpt>
<trkpt lat="59.0901410" lon="30.0361090">
<ele>74.980797</ele>
<time>2026-04-25T20:44:01.997Z</time>
</trkpt>
<trkpt lat="59.0902030" lon="30.0353650">
<ele>77.449684</ele>
<time>2026-04-25T20:46:00.002Z</time>
</trkpt>
<trkpt lat="59.0899680" lon="30.0350420">
<ele>77.845917</ele>
<time>2026-04-25T20:47:32.001Z</time>
</trkpt>
<trkpt lat="59.0899120" lon="30.0348410">
<ele>79.217522</ele>
<time>2026-04-25T20:48:36.999Z</time>
</trkpt>
<trkpt lat="59.0899270" lon="30.0346600">
<ele>79.827118</ele>
<time>2026-04-25T20:49:52.997Z</time>
</trkpt>
<trkpt lat="59.0898460" lon="30.0345240">
<ele>80.375763</ele>
<time>2026-04-25T20:50:12.998Z</time>
</trkpt>
<trkpt lat="59.0898190" lon="30.0342980">
<ele>81.503517</ele>
<time>2026-04-25T20:50:50.997Z</time>
</trkpt>
<trkpt lat="59.0893640" lon="30.0337640">
<ele>80.589119</ele>
<time>2026-04-25T20:53:09.004Z</time>
</trkpt>
<trkpt lat="59.0893540" lon="30.0332460">
<ele>80.467201</ele>
<time>2026-04-25T20:54:45.996Z</time>
</trkpt>
<trkpt lat="59.0893350" lon="30.0330790">
<ele>80.345284</ele>
<time>2026-04-25T20:55:08.003Z</time>
</trkpt>
<trkpt lat="59.0892260" lon="30.0327540">
<ele>80.497681</ele>
<time>2026-04-25T20:55:44.999Z</time>
</trkpt>
<trkpt lat="59.0892310" lon="30.0325150">
<ele>79.522316</ele>
<time>2026-04-25T20:56:29.996Z</time>
</trkpt>
<trkpt lat="59.0891170" lon="30.0322990">
<ele>79.461365</ele>
<time>2026-04-25T20:57:05.999Z</time>
</trkpt>
<trkpt lat="59.0890450" lon="30.0323580">
<ele>80.741516</ele>
<time>2026-04-25T20:57:39.997Z</time>
</trkpt>
<trkpt lat="59.0889430" lon="30.0323690">
<ele>82.326485</ele>
<time>2026-04-25T20:58:13.002Z</time>
</trkpt>
<trkpt lat="59.0888590" lon="30.0324600">
<ele>82.631279</ele>
<time>2026-04-25T20:58:35.000Z</time>
</trkpt>
<trkpt lat="59.0888160" lon="30.0328640">
<ele>81.442566</ele>
<time>2026-04-25T20:59:23.004Z</time>
</trkpt>
<trkpt lat="59.0889360" lon="30.0331230">
<ele>80.223366</ele>
<time>2026-04-25T20:59:50.997Z</time>
</trkpt>
<trkpt lat="59.0890600" lon="30.0335710">
<ele>79.613762</ele>
<time>2026-04-25T21:00:43.001Z</time>
</trkpt>
<trkpt lat="59.0891050" lon="30.0338500">
<ele>78.821281</ele>
<time>2026-04-25T21:01:19.004Z</time>
</trkpt>
<trkpt lat="59.0893630" lon="30.0342480">
<ele>77.906883</ele>
<time>2026-04-25T21:02:40.004Z</time>
</trkpt>
<trkpt lat="59.0893990" lon="30.0344320">
<ele>78.364082</ele>
<time>2026-04-25T21:02:59.004Z</time>
</trkpt>
<trkpt lat="59.0893580" lon="30.0346220">
<ele>78.303116</ele>
<time>2026-04-25T21:03:23.999Z</time>
</trkpt>
<trkpt lat="59.0894220" lon="30.0348300">
<ele>79.583282</ele>
<time>2026-04-25T21:04:03.000Z</time>
</trkpt>
<trkpt lat="59.0894190" lon="30.0349050">
<ele>79.491837</ele>
<time>2026-04-25T21:04:26.000Z</time>
</trkpt>
<trkpt lat="59.0895000" lon="30.0351100">
<ele>80.040482</ele>
<time>2026-04-25T21:05:18.997Z</time>
</trkpt>
<trkpt lat="59.0895590" lon="30.0350770">
<ele>80.772003</ele>
<time>2026-04-25T21:05:40.001Z</time>
</trkpt>
<trkpt lat="59.0897880" lon="30.0352810">
<ele>78.516479</ele>
<time>2026-04-25T21:06:47.998Z</time>
</trkpt>
<trkpt lat="59.0897670" lon="30.0354220">
<ele>78.790802</ele>
<time>2026-04-25T21:07:08.000Z</time>
</trkpt>
<trkpt lat="59.0898230" lon="30.0356910">
<ele>80.192879</ele>
<time>2026-04-25T21:08:16.999Z</time>
</trkpt>
<trkpt lat="59.0898020" lon="30.0362190">
<ele>80.528160</ele>
<time>2026-04-25T21:09:24.002Z</time>
</trkpt>
<trkpt lat="59.0898720" lon="30.0363220">
<ele>80.741516</ele>
<time>2026-04-25T21:09:48.004Z</time>
</trkpt>
<trkpt lat="59.0899160" lon="30.0363270">
<ele>80.802483</ele>
<time>2026-04-25T21:10:03.996Z</time>
</trkpt>
<trkpt lat="59.0900640" lon="30.0367130">
<ele>81.686401</ele>
<time>2026-04-25T21:11:13.998Z</time>
</trkpt>
<trkpt lat="59.0900450" lon="30.0370680">
<ele>81.229202</ele>
<time>2026-04-25T21:12:27.999Z</time>
</trkpt>
<trkpt lat="59.0900670" lon="30.0371970">
<ele>81.046318</ele>
<time>2026-04-25T21:12:49.997Z</time>
</trkpt>
<trkpt lat="59.0900280" lon="30.0373290">
<ele>80.954880</ele>
<time>2026-04-25T21:13:08.996Z</time>
</trkpt>
<trkpt lat="59.0899710" lon="30.0373330">
<ele>80.741516</ele>
<time>2026-04-25T21:13:28.004Z</time>
</trkpt>
<trkpt lat="59.0899020" lon="30.0371910">
<ele>80.528160</ele>
<time>2026-04-25T21:13:47.997Z</time>
</trkpt>
<trkpt lat="59.0899160" lon="30.0367550">
<ele>80.192879</ele>
<time>2026-04-25T21:14:33.003Z</time>
</trkpt>
<trkpt lat="59.0898250" lon="30.0364360">
<ele>78.425034</ele>
<time>2026-04-25T21:15:04.003Z</time>
</trkpt>
<trkpt lat="59.0898570" lon="30.0363060">
<ele>78.089767</ele>
<time>2026-04-25T21:15:27.003Z</time>
</trkpt>
<trkpt lat="59.0897890" lon="30.0361850">
<ele>78.638397</ele>
<time>2026-04-25T21:15:54.003Z</time>
</trkpt>
<trkpt lat="59.0898430" lon="30.0359000">
<ele>78.607918</ele>
<time>2026-04-25T21:16:56.004Z</time>
</trkpt>
<trkpt lat="59.0897740" lon="30.0357980">
<ele>78.607918</ele>
<time>2026-04-25T21:17:15.003Z</time>
</trkpt>
<trkpt lat="59.0896580" lon="30.0358740">
<ele>78.486000</ele>
<time>2026-04-25T21:17:53.002Z</time>
</trkpt>
<trkpt lat="59.0895570" lon="30.0357530">
<ele>78.486000</ele>
<time>2026-04-25T21:18:13.997Z</time>
</trkpt>
<trkpt lat="59.0895470" lon="30.0354900">
<ele>79.126083</ele>
<time>2026-04-25T21:19:07.997Z</time>
</trkpt>
<trkpt lat="59.0895040" lon="30.0353470">
<ele>80.192879</ele>
<time>2026-04-25T21:19:54.998Z</time>
</trkpt>
<trkpt lat="59.0895190" lon="30.0352490">
<ele>80.650085</ele>
<time>2026-04-25T21:20:35.002Z</time>
</trkpt>
<trkpt lat="59.0895380" lon="30.0352600">
<ele>81.046318</ele>
<time>2026-04-25T21:21:03.997Z</time>
</trkpt>
<trkpt lat="59.0894980" lon="30.0351020">
<ele>82.417915</ele>
<time>2026-04-25T21:21:45.996Z</time>
</trkpt>
<trkpt lat="59.0894070" lon="30.0349550">
<ele>82.448402</ele>
<time>2026-04-25T21:22:38.001Z</time>
</trkpt>
<trkpt lat="59.0894300" lon="30.0348590">
<ele>82.783684</ele>
<time>2026-04-25T21:23:01.000Z</time>
</trkpt>
<trkpt lat="59.0893800" lon="30.0347740">
<ele>83.149437</ele>
<time>2026-04-25T21:23:18.997Z</time>
</trkpt>
<trkpt lat="59.0893610" lon="30.0346270">
<ele>82.753197</ele>
<time>2026-04-25T21:23:42.999Z</time>
</trkpt>
<trkpt lat="59.0892800" lon="30.0345580">
<ele>82.692238</ele>
<time>2026-04-25T21:24:01.999Z</time>
</trkpt>
<trkpt lat="59.0892190" lon="30.0344110">
<ele>83.088478</ele>
<time>2026-04-25T21:24:23.996Z</time>
</trkpt>
<trkpt lat="59.0891300" lon="30.0343130">
<ele>83.789520</ele>
<time>2026-04-25T21:24:49.000Z</time>
</trkpt>
<trkpt lat="59.0891720" lon="30.0341730">
<ele>85.161118</ele>
<time>2026-04-25T21:25:29.004Z</time>
</trkpt>
<trkpt lat="59.0889560" lon="30.0336060">
<ele>84.246719</ele>
<time>2026-04-25T21:27:06.998Z</time>
</trkpt>
<trkpt lat="59.0889550" lon="30.0335310">
<ele>84.399117</ele>
<time>2026-04-25T21:27:14.999Z</time>
</trkpt>
<trkpt lat="59.0888880" lon="30.0334310">
<ele>84.490562</ele>
<time>2026-04-25T21:27:27.000Z</time>
</trkpt>
<trkpt lat="59.0888350" lon="30.0332470">
<ele>85.801201</ele>
<time>2026-04-25T21:28:08.999Z</time>
</trkpt>
<trkpt lat="59.0888580" lon="30.0330940">
<ele>85.374481</ele>
<time>2026-04-25T21:28:30.003Z</time>
</trkpt>
<trkpt lat="59.0887380" lon="30.0328300">
<ele>84.094315</ele>
<time>2026-04-25T21:29:15.000Z</time>
</trkpt>
<trkpt lat="59.0886270" lon="30.0328350">
<ele>83.759033</ele>
<time>2026-04-25T21:29:43.996Z</time>
</trkpt>
<trkpt lat="59.0885700" lon="30.0327530">
<ele>83.759033</ele>
<time>2026-04-25T21:30:03.997Z</time>
</trkpt>
<trkpt lat="59.0884110" lon="30.0327080">
<ele>83.393280</ele>
<time>2026-04-25T21:30:45.003Z</time>
</trkpt>
<trkpt lat="59.0883120" lon="30.0326960">
<ele>83.454239</ele>
<time>2026-04-25T21:31:01.004Z</time>
</trkpt>
<trkpt lat="59.0882000" lon="30.0327660">
<ele>84.155281</ele>
<time>2026-04-25T21:31:59.998Z</time>
</trkpt>
<trkpt lat="59.0882320" lon="30.0329340">
<ele>84.063835</ele>
<time>2026-04-25T21:32:25.996Z</time>
</trkpt>
<trkpt lat="59.0880890" lon="30.0333090">
<ele>84.246719</ele>
<time>2026-04-25T21:33:11.002Z</time>
</trkpt>
<trkpt lat="59.0881210" lon="30.0335150">
<ele>83.728561</ele>
<time>2026-04-25T21:33:34.001Z</time>
</trkpt>
<trkpt lat="59.0880880" lon="30.0337670">
<ele>84.612480</ele>
<time>2026-04-25T21:34:17.996Z</time>
</trkpt>
<trkpt lat="59.0881370" lon="30.0338940">
<ele>83.637115</ele>
<time>2026-04-25T21:35:00.004Z</time>
</trkpt>
<trkpt lat="59.0882670" lon="30.0338950">
<ele>84.703918</ele>
<time>2026-04-25T21:35:30.002Z</time>
</trkpt>
<trkpt lat="59.0883730" lon="30.0337760">
<ele>84.825836</ele>
<time>2026-04-25T21:35:54.004Z</time>
</trkpt>
<trkpt lat="59.0884530" lon="30.0337830">
<ele>84.124802</ele>
<time>2026-04-25T21:36:21.997Z</time>
</trkpt>
<trkpt lat="59.0886430" lon="30.0344840">
<ele>83.301834</ele>
<time>2026-04-25T21:37:30.996Z</time>
</trkpt>
<trkpt lat="59.0885710" lon="30.0346670">
<ele>83.301834</ele>
<time>2026-04-25T21:37:58.999Z</time>
</trkpt>
<trkpt lat="59.0886180" lon="30.0348340">
<ele>82.875114</ele>
<time>2026-04-25T21:38:39.002Z</time>
</trkpt>
<trkpt lat="59.0887860" lon="30.0350600">
<ele>83.301834</ele>
<time>2026-04-25T21:39:11.998Z</time>
</trkpt>
<trkpt lat="59.0887770" lon="30.0351220">
<ele>82.783684</ele>
<time>2026-04-25T21:39:37.002Z</time>
</trkpt>
<trkpt lat="59.0889000" lon="30.0354000">
<ele>83.484718</ele>
<time>2026-04-25T21:40:23.002Z</time>
</trkpt>
<trkpt lat="59.0889390" lon="30.0356570">
<ele>83.240883</ele>
<time>2026-04-25T21:41:03.998Z</time>
</trkpt>
<trkpt lat="59.0890240" lon="30.0357740">
<ele>83.118965</ele>
<time>2026-04-25T21:41:25.996Z</time>
</trkpt>
<trkpt lat="59.0890620" lon="30.0359360">
<ele>82.539833</ele>
<time>2026-04-25T21:42:15.002Z</time>
</trkpt>
<trkpt lat="59.0891030" lon="30.0364460">
<ele>82.204567</ele>
<time>2026-04-25T21:42:59.999Z</time>
</trkpt>
<trkpt lat="59.0893360" lon="30.0369380">
<ele>81.137764</ele>
<time>2026-04-25T21:44:16.999Z</time>
</trkpt>
<trkpt lat="59.0893190" lon="30.0370890">
<ele>81.777840</ele>
<time>2026-04-25T21:44:38.996Z</time>
</trkpt>
<trkpt lat="59.0893760" lon="30.0372920">
<ele>81.473038</ele>
<time>2026-04-25T21:45:13.997Z</time>
</trkpt>
<trkpt lat="59.0894380" lon="30.0377440">
<ele>81.899765</ele>
<time>2026-04-25T21:46:07.003Z</time>
</trkpt>
<trkpt lat="59.0896000" lon="30.0381380">
<ele>79.065117</ele>
<time>2026-04-25T21:47:31.001Z</time>
</trkpt>
<trkpt lat="59.0896390" lon="30.0381220">
<ele>78.882233</ele>
<time>2026-04-25T21:47:48.998Z</time>
</trkpt>
<trkpt lat="59.0896410" lon="30.0380660">
<ele>79.613762</ele>
<time>2026-04-25T21:48:10.002Z</time>
</trkpt>
<trkpt lat="59.0897190" lon="30.0381580">
<ele>78.790802</ele>
<time>2026-04-25T21:48:32.000Z</time>
</trkpt>
<trkpt lat="59.0896900" lon="30.0382780">
<ele>77.784958</ele>
<time>2026-04-25T21:49:08.003Z</time>
</trkpt>
<trkpt lat="59.0895380" lon="30.0382410">
<ele>78.668884</ele>
<time>2026-04-25T21:49:35.996Z</time>
</trkpt>
<trkpt lat="59.0895060" lon="30.0382980">
<ele>79.217522</ele>
<time>2026-04-25T21:49:58.002Z</time>
</trkpt>
<trkpt lat="59.0896450" lon="30.0383580">
<ele>79.369919</ele>
<time>2026-04-25T21:50:22.998Z</time>
</trkpt>
<trkpt lat="59.0897570" lon="30.0383020">
<ele>80.131920</ele>
<time>2026-04-25T21:51:08.004Z</time>
</trkpt>
<trkpt lat="59.0900450" lon="30.0383440">
<ele>83.728561</ele>
<time>2026-04-25T21:52:16.000Z</time>
</trkpt>
<trkpt lat="59.0901560" lon="30.0380460">
<ele>83.484718</ele>
<time>2026-04-25T21:52:47.001Z</time>
</trkpt>
<trkpt lat="59.0902590" lon="30.0379010">
<ele>83.332321</ele>
<time>2026-04-25T21:53:04.004Z</time>
</trkpt>
<trkpt lat="59.0903240" lon="30.0371800">
<ele>81.351120</ele>
<time>2026-04-25T21:53:58.998Z</time>
</trkpt>
<trkpt lat="59.0903040" lon="30.0366470">
<ele>80.192879</ele>
<time>2026-04-25T21:54:27.000Z</time>
</trkpt>
<trkpt lat="59.0903160" lon="30.0365090">
<ele>78.851761</ele>
<time>2026-04-25T21:54:37.999Z</time>
</trkpt>
<trkpt lat="59.0903900" lon="30.0363110">
<ele>77.480156</ele>
<time>2026-04-25T21:54:59.003Z</time>
</trkpt>
<trkpt lat="59.0907010" lon="30.0357850">
<ele>75.377045</ele>
<time>2026-04-25T21:55:53.996Z</time>
</trkpt>
<trkpt lat="59.0907710" lon="30.0357380">
<ele>75.407516</ele>
<time>2026-04-25T21:56:11.000Z</time>
</trkpt>
<trkpt lat="59.0909200" lon="30.0354500">
<ele>74.554085</ele>
<time>2026-04-25T21:56:42.000Z</time>
</trkpt>
<trkpt lat="59.0912260" lon="30.0351910">
<ele>75.559921</ele>
<time>2026-04-25T21:57:25.001Z</time>
</trkpt>
<trkpt lat="59.0917830" lon="30.0344230">
<ele>75.498962</ele>
<time>2026-04-25T21:58:39.996Z</time>
</trkpt>
<trkpt lat="59.0920480" lon="30.0337720">
<ele>71.475601</ele>
<time>2026-04-25T21:59:24.000Z</time>
</trkpt>
<trkpt lat="59.0922240" lon="30.0331940">
<ele>68.183762</ele>
<time>2026-04-25T22:00:00.996Z</time>
</trkpt>
<trkpt lat="59.0923260" lon="30.0331020">
<ele>66.111115</ele>
<time>2026-04-25T22:00:11.002Z</time>
</trkpt>
<trkpt lat="59.0927800" lon="30.0329510">
<ele>64.678558</ele>
<time>2026-04-25T22:01:08.000Z</time>
</trkpt>
<trkpt lat="59.0929420" lon="30.0327660">
<ele>68.183762</ele>
<time>2026-04-25T22:01:21.996Z</time>
</trkpt>
<trkpt lat="59.0931020" lon="30.0327020">
<ele>66.568321</ele>
<time>2026-04-25T22:01:33.997Z</time>
</trkpt>
<trkpt lat="59.0931590" lon="30.0326330">
<ele>66.141602</ele>
<time>2026-04-25T22:01:47.001Z</time>
</trkpt>
<trkpt lat="59.0934040" lon="30.0325720">
<ele>67.939919</ele>
<time>2026-04-25T22:02:15.003Z</time>
</trkpt>
<trkpt lat="59.0935560" lon="30.0326350">
<ele>66.629280</ele>
<time>2026-04-25T22:02:26.002Z</time>
</trkpt>
<trkpt lat="59.0937080" lon="30.0325710">
<ele>64.891914</ele>
<time>2026-04-25T22:02:42.996Z</time>
</trkpt>
<trkpt lat="59.0938920" lon="30.0326980">
<ele>66.141602</ele>
<time>2026-04-25T22:03:05.003Z</time>
</trkpt>
<trkpt lat="59.0938470" lon="30.0326290">
<ele>69.189598</ele>
<time>2026-04-25T22:03:33.998Z</time>
</trkpt>
<trkpt lat="59.0938410" lon="30.0324950">
<ele>73.334885</ele>
<time>2026-04-25T22:03:48.004Z</time>
</trkpt>
<trkpt lat="59.0939160" lon="30.0324980">
<ele>74.736961</ele>
<time>2026-04-25T22:04:17.000Z</time>
</trkpt>
<trkpt lat="59.0939350" lon="30.0325500">
<ele>77.358238</ele>
<time>2026-04-25T22:04:35.999Z</time>
</trkpt>
<trkpt lat="59.0939930" lon="30.0324830">
<ele>81.198715</ele>
<time>2026-04-25T22:05:13.004Z</time>
</trkpt>
<trkpt lat="59.0943810" lon="30.0324060">
<ele>80.619598</ele>
<time>2026-04-25T22:05:56.999Z</time>
</trkpt>
<trkpt lat="59.0946600" lon="30.0324620">
<ele>78.455521</ele>
<time>2026-04-25T22:06:10.002Z</time>
</trkpt>
<trkpt lat="59.0949530" lon="30.0325950">
<ele>77.358238</ele>
<time>2026-04-25T22:06:27.999Z</time>
</trkpt>
<trkpt lat="59.0950060" lon="30.0325370">
<ele>76.596237</ele>
<time>2026-04-25T22:06:42.998Z</time>
</trkpt>
<trkpt lat="59.0957740" lon="30.0324920">
<ele>74.035919</ele>
<time>2026-04-25T22:07:26.000Z</time>
</trkpt>
<trkpt lat="59.0959920" lon="30.0324320">
<ele>72.146156</ele>
<time>2026-04-25T22:07:35.003Z</time>
</trkpt>
<trkpt lat="59.0966690" lon="30.0319570">
<ele>60.929520</ele>
<time>2026-04-25T22:08:10.997Z</time>
</trkpt>
<trkpt lat="59.0967540" lon="30.0315610">
<ele>57.911999</ele>
<time>2026-04-25T22:08:21.002Z</time>
</trkpt>
<trkpt lat="59.0968710" lon="30.0312980">
<ele>56.845200</ele>
<time>2026-04-25T22:08:29.996Z</time>
</trkpt>
<trkpt lat="59.0974910" lon="30.0307040">
<ele>49.987202</ele>
<time>2026-04-25T22:08:49.998Z</time>
</trkpt>
<trkpt lat="59.0978570" lon="30.0305690">
<ele>44.135040</ele>
<time>2026-04-25T22:09:04.003Z</time>
</trkpt>
<trkpt lat="59.0981910" lon="30.0303480">
<ele>38.404800</ele>
<time>2026-04-25T22:09:20.998Z</time>
</trkpt>
<trkpt lat="59.0983070" lon="30.0300990">
<ele>40.812717</ele>
<time>2026-04-25T22:09:32.999Z</time>
</trkpt>
<trkpt lat="59.0986010" lon="30.0296200">
<ele>45.902882</ele>
<time>2026-04-25T22:09:57.001Z</time>
</trkpt>
<trkpt lat="59.0993520" lon="30.0287200">
<ele>44.378883</ele>
<time>2026-04-25T22:10:39.000Z</time>
</trkpt>
<trkpt lat="59.0993460" lon="30.0284540">
<ele>45.049442</ele>
<time>2026-04-25T22:10:44.996Z</time>
</trkpt>
<trkpt lat="59.0992090" lon="30.0275650">
<ele>44.805599</ele>
<time>2026-04-25T22:11:07.996Z</time>
</trkpt>
</trkseg>
</trk>
<trk>
 <name>20260425_Lisa95</name>
 <desc>20260425_Lisa95</desc>
<trkseg>
<trkpt lat="59.1021760" lon="30.0430430">
<ele>42.306240</ele>
<time>2026-04-25T17:18:48.001Z</time>
</trkpt>
<trkpt lat="59.1022760" lon="30.0436970">
<ele>45.902882</ele>
<time>2026-04-25T17:19:21.999Z</time>
</trkpt>
<trkpt lat="59.1022770" lon="30.0439230">
<ele>46.542957</ele>
<time>2026-04-25T17:19:39.003Z</time>
</trkpt>
<trkpt lat="59.1023290" lon="30.0440540">
<ele>56.022240</ele>
<time>2026-04-25T17:20:25.996Z</time>
</trkpt>
<trkpt lat="59.1023430" lon="30.0443520">
<ele>55.595520</ele>
<time>2026-04-25T17:20:57.998Z</time>
</trkpt>
<trkpt lat="59.1023470" lon="30.0443090">
<ele>57.089043</ele>
<time>2026-04-25T17:21:26.001Z</time>
</trkpt>
<trkpt lat="59.1023100" lon="30.0443560">
<ele>57.332882</ele>
<time>2026-04-25T17:21:46.996Z</time>
</trkpt>
<trkpt lat="59.1022290" lon="30.0443230">
<ele>57.972958</ele>
<time>2026-04-25T17:22:08.000Z</time>
</trkpt>
<trkpt lat="59.1022400" lon="30.0444020">
<ele>59.375042</ele>
<time>2026-04-25T17:22:37.004Z</time>
</trkpt>
<trkpt lat="59.1022040" lon="30.0443930">
<ele>61.752483</ele>
<time>2026-04-25T17:24:25.004Z</time>
</trkpt>
<trkpt lat="59.1021130" lon="30.0447640">
<ele>62.423042</ele>
<time>2026-04-25T17:25:58.999Z</time>
</trkpt>
<trkpt lat="59.1021450" lon="30.0447090">
<ele>64.861443</ele>
<time>2026-04-25T17:26:27.001Z</time>
</trkpt>
<trkpt lat="59.1021700" lon="30.0444720">
<ele>62.971684</ele>
<time>2026-04-25T17:27:22.997Z</time>
</trkpt>
<trkpt lat="59.1021780" lon="30.0445490">
<ele>63.428883</ele>
<time>2026-04-25T17:27:53.004Z</time>
</trkpt>
<trkpt lat="59.1018300" lon="30.0449290">
<ele>64.312798</ele>
<time>2026-04-25T17:29:38.999Z</time>
</trkpt>
<trkpt lat="59.1018070" lon="30.0450510">
<ele>64.495682</ele>
<time>2026-04-25T17:29:53.998Z</time>
</trkpt>
<trkpt lat="59.1017500" lon="30.0450900">
<ele>64.038483</ele>
<time>2026-04-25T17:30:09.999Z</time>
</trkpt>
<trkpt lat="59.1017500" lon="30.0450000">
<ele>63.794640</ele>
<time>2026-04-25T17:30:31.003Z</time>
</trkpt>
<trkpt lat="59.1016570" lon="30.0449990">
<ele>60.350399</ele>
<time>2026-04-25T17:31:14.998Z</time>
</trkpt>
<trkpt lat="59.1015830" lon="30.0451230">
<ele>60.959999</ele>
<time>2026-04-25T17:31:44.996Z</time>
</trkpt>
<trkpt lat="59.1015300" lon="30.0451310">
<ele>60.959999</ele>
<time>2026-04-25T17:32:22.001Z</time>
</trkpt>
<trkpt lat="59.1014140" lon="30.0448900">
<ele>60.655201</ele>
<time>2026-04-25T17:32:58.004Z</time>
</trkpt>
<trkpt lat="59.1011840" lon="30.0450130">
<ele>61.264801</ele>
<time>2026-04-25T17:34:26.996Z</time>
</trkpt>
<trkpt lat="59.1009490" lon="30.0450400">
<ele>63.154560</ele>
<time>2026-04-25T17:35:56.999Z</time>
</trkpt>
<trkpt lat="59.1009670" lon="30.0450480">
<ele>63.825119</ele>
<time>2026-04-25T17:36:30.004Z</time>
</trkpt>
<trkpt lat="59.1009300" lon="30.0453300">
<ele>64.404243</ele>
<time>2026-04-25T17:37:42.001Z</time>
</trkpt>
<trkpt lat="59.1008960" lon="30.0453400">
<ele>64.465202</ele>
<time>2026-04-25T17:38:05.001Z</time>
</trkpt>
<trkpt lat="59.1008410" lon="30.0455530">
<ele>64.648079</ele>
<time>2026-04-25T17:38:45.004Z</time>
</trkpt>
<trkpt lat="59.1007470" lon="30.0457070">
<ele>68.000885</ele>
<time>2026-04-25T17:40:13.002Z</time>
</trkpt>
<trkpt lat="59.1006830" lon="30.0455620">
<ele>67.147438</ele>
<time>2026-04-25T17:40:48.003Z</time>
</trkpt>
<trkpt lat="59.1005960" lon="30.0454990">
<ele>67.818001</ele>
<time>2026-04-25T17:41:38.003Z</time>
</trkpt>
<trkpt lat="59.1005870" lon="30.0454020">
<ele>65.836800</ele>
<time>2026-04-25T17:42:18.999Z</time>
</trkpt>
<trkpt lat="59.1005650" lon="30.0455250">
<ele>65.135757</ele>
<time>2026-04-25T17:43:30.996Z</time>
</trkpt>
<trkpt lat="59.1006040" lon="30.0454560">
<ele>63.337440</ele>
<time>2026-04-25T17:44:28.003Z</time>
</trkpt>
<trkpt lat="59.1005660" lon="30.0454030">
<ele>61.691517</ele>
<time>2026-04-25T17:45:18.996Z</time>
</trkpt>
<trkpt lat="59.1006230" lon="30.0453660">
<ele>60.319920</ele>
<time>2026-04-25T17:45:45.996Z</time>
</trkpt>
<trkpt lat="59.1005460" lon="30.0450500">
<ele>60.167519</ele>
<time>2026-04-25T17:47:25.996Z</time>
</trkpt>
<trkpt lat="59.1005660" lon="30.0450280">
<ele>60.807598</ele>
<time>2026-04-25T17:48:03.001Z</time>
</trkpt>
<trkpt lat="59.1005520" lon="30.0451150">
<ele>62.240158</ele>
<time>2026-04-25T17:48:55.999Z</time>
</trkpt>
<trkpt lat="59.1005970" lon="30.0450670">
<ele>66.629280</ele>
<time>2026-04-25T17:50:50.997Z</time>
</trkpt>
<trkpt lat="59.1004980" lon="30.0448960">
<ele>64.800484</ele>
<time>2026-04-25T17:51:37.999Z</time>
</trkpt>
<trkpt lat="59.1004850" lon="30.0448210">
<ele>64.251839</ele>
<time>2026-04-25T17:51:59.003Z</time>
</trkpt>
<trkpt lat="59.1003320" lon="30.0447250">
<ele>61.843918</ele>
<time>2026-04-25T17:53:59.997Z</time>
</trkpt>
<trkpt lat="59.1003030" lon="30.0449320">
<ele>62.087761</ele>
<time>2026-04-25T17:54:42.998Z</time>
</trkpt>
<trkpt lat="59.1002250" lon="30.0450700">
<ele>62.453518</ele>
<time>2026-04-25T17:55:04.996Z</time>
</trkpt>
<trkpt lat="59.1001420" lon="30.0451050">
<ele>62.209682</ele>
<time>2026-04-25T17:55:31.002Z</time>
</trkpt>
<trkpt lat="59.1000820" lon="30.0453040">
<ele>63.245998</ele>
<time>2026-04-25T17:56:41.004Z</time>
</trkpt>
<trkpt lat="59.0999560" lon="30.0455000">
<ele>62.514481</ele>
<time>2026-04-25T17:58:37.998Z</time>
</trkpt>
<trkpt lat="59.0998960" lon="30.0454870">
<ele>63.002159</ele>
<time>2026-04-25T17:59:27.997Z</time>
</trkpt>
<trkpt lat="59.0998610" lon="30.0456450">
<ele>64.068962</ele>
<time>2026-04-25T18:00:25.998Z</time>
</trkpt>
<trkpt lat="59.0997930" lon="30.0457710">
<ele>63.550800</ele>
<time>2026-04-25T18:01:33.001Z</time>
</trkpt>
<trkpt lat="59.0998510" lon="30.0457730">
<ele>64.526161</ele>
<time>2026-04-25T18:04:19.001Z</time>
</trkpt>
<trkpt lat="59.0998050" lon="30.0457390">
<ele>65.074799</ele>
<time>2026-04-25T18:04:46.001Z</time>
</trkpt>
<trkpt lat="59.0997750" lon="30.0457860">
<ele>65.044319</ele>
<time>2026-04-25T18:05:10.003Z</time>
</trkpt>
<trkpt lat="59.0998190" lon="30.0457960">
<ele>68.031357</ele>
<time>2026-04-25T18:06:05.999Z</time>
</trkpt>
<trkpt lat="59.0998130" lon="30.0460200">
<ele>69.890640</ele>
<time>2026-04-25T18:07:22.999Z</time>
</trkpt>
<trkpt lat="59.0997340" lon="30.0461050">
<ele>69.220085</ele>
<time>2026-04-25T18:07:41.998Z</time>
</trkpt>
<trkpt lat="59.0996720" lon="30.0462810">
<ele>68.519043</ele>
<time>2026-04-25T18:07:56.004Z</time>
</trkpt>
<trkpt lat="59.0994790" lon="30.0466320">
<ele>67.818001</ele>
<time>2026-04-25T18:09:12.001Z</time>
</trkpt>
<trkpt lat="59.0994800" lon="30.0468170">
<ele>65.928238</ele>
<time>2026-04-25T18:09:55.002Z</time>
</trkpt>
<trkpt lat="59.0995320" lon="30.0470300">
<ele>66.476883</ele>
<time>2026-04-25T18:10:15.997Z</time>
</trkpt>
<trkpt lat="59.0994990" lon="30.0474510">
<ele>70.622162</ele>
<time>2026-04-25T18:11:44.998Z</time>
</trkpt>
<trkpt lat="59.0993870" lon="30.0480150">
<ele>78.089767</ele>
<time>2026-04-25T18:13:08.003Z</time>
</trkpt>
<trkpt lat="59.0994100" lon="30.0480020">
<ele>79.522316</ele>
<time>2026-04-25T18:13:28.004Z</time>
</trkpt>
<trkpt lat="59.0994170" lon="30.0480940">
<ele>78.455521</ele>
<time>2026-04-25T18:13:55.004Z</time>
</trkpt>
<trkpt lat="59.0993830" lon="30.0480810">
<ele>78.089767</ele>
<time>2026-04-25T18:14:18.004Z</time>
</trkpt>
<trkpt lat="59.0994480" lon="30.0482940">
<ele>79.308960</ele>
<time>2026-04-25T18:15:14.000Z</time>
</trkpt>
<trkpt lat="59.0994070" lon="30.0483790">
<ele>82.143600</ele>
<time>2026-04-25T18:16:25.003Z</time>
</trkpt>
<trkpt lat="59.0994670" lon="30.0484890">
<ele>81.107285</ele>
<time>2026-04-25T18:16:44.996Z</time>
</trkpt>
<trkpt lat="59.0994000" lon="30.0485230">
<ele>72.054718</ele>
<time>2026-04-25T18:17:34.996Z</time>
</trkpt>
<trkpt lat="59.0993570" lon="30.0486200">
<ele>71.536560</ele>
<time>2026-04-25T18:17:57.002Z</time>
</trkpt>
<trkpt lat="59.0993440" lon="30.0488640">
<ele>70.744080</ele>
<time>2026-04-25T18:18:20.002Z</time>
</trkpt>
<trkpt lat="59.0992760" lon="30.0488830">
<ele>70.774559</ele>
<time>2026-04-25T18:18:45.999Z</time>
</trkpt>
<trkpt lat="59.0992920" lon="30.0490410">
<ele>72.298561</ele>
<time>2026-04-25T18:19:30.003Z</time>
</trkpt>
<trkpt lat="59.0992420" lon="30.0491970">
<ele>73.365356</ele>
<time>2026-04-25T18:19:49.002Z</time>
</trkpt>
<trkpt lat="59.0990360" lon="30.0494590">
<ele>74.249283</ele>
<time>2026-04-25T18:21:18.996Z</time>
</trkpt>
<trkpt lat="59.0989710" lon="30.0494220">
<ele>74.218803</ele>
<time>2026-04-25T18:21:34.998Z</time>
</trkpt>
<trkpt lat="59.0988470" lon="30.0495180">
<ele>76.443840</ele>
<time>2026-04-25T18:22:17.999Z</time>
</trkpt>
<trkpt lat="59.0987610" lon="30.0496300">
<ele>76.139038</ele>
<time>2026-04-25T18:23:17.002Z</time>
</trkpt>
<trkpt lat="59.0985210" lon="30.0501210">
<ele>71.353683</ele>
<time>2026-04-25T18:25:22.999Z</time>
</trkpt>
<trkpt lat="59.0986050" lon="30.0502300">
<ele>69.799202</ele>
<time>2026-04-25T18:26:02.000Z</time>
</trkpt>
<trkpt lat="59.0985270" lon="30.0503710">
<ele>67.787521</ele>
<time>2026-04-25T18:26:38.003Z</time>
</trkpt>
<trkpt lat="59.0984750" lon="30.0503850">
<ele>67.543678</ele>
<time>2026-04-25T18:27:12.001Z</time>
</trkpt>
<trkpt lat="59.0985310" lon="30.0505250">
<ele>67.878960</ele>
<time>2026-04-25T18:27:56.998Z</time>
</trkpt>
<trkpt lat="59.0986130" lon="30.0504010">
<ele>68.549515</ele>
<time>2026-04-25T18:28:50.998Z</time>
</trkpt>
<trkpt lat="59.0985950" lon="30.0504920">
<ele>68.122803</ele>
<time>2026-04-25T18:29:36.004Z</time>
</trkpt>
<trkpt lat="59.0986550" lon="30.0504290">
<ele>68.610481</ele>
<time>2026-04-25T18:30:10.996Z</time>
</trkpt>
<trkpt lat="59.0986910" lon="30.0503590">
<ele>68.305679</ele>
<time>2026-04-25T18:30:33.002Z</time>
</trkpt>
<trkpt lat="59.0983710" lon="30.0506800">
<ele>67.818001</ele>
<time>2026-04-25T18:33:36.999Z</time>
</trkpt>
<trkpt lat="59.0983080" lon="30.0505980">
<ele>68.397118</ele>
<time>2026-04-25T18:34:16.000Z</time>
</trkpt>
<trkpt lat="59.0983700" lon="30.0506190">
<ele>68.031357</ele>
<time>2026-04-25T18:34:36.002Z</time>
</trkpt>
<trkpt lat="59.0984580" lon="30.0505120">
<ele>67.909439</ele>
<time>2026-04-25T18:35:16.999Z</time>
</trkpt>
<trkpt lat="59.0985720" lon="30.0505410">
<ele>68.762878</ele>
<time>2026-04-25T18:36:06.998Z</time>
</trkpt>
<trkpt lat="59.0984670" lon="30.0504680">
<ele>64.465202</ele>
<time>2026-04-25T18:37:57.996Z</time>
</trkpt>
<trkpt lat="59.0985310" lon="30.0504130">
<ele>63.916557</ele>
<time>2026-04-25T18:38:52.999Z</time>
</trkpt>
<trkpt lat="59.0985890" lon="30.0505090">
<ele>64.678558</ele>
<time>2026-04-25T18:39:18.996Z</time>
</trkpt>
<trkpt lat="59.0985570" lon="30.0504560">
<ele>63.794640</ele>
<time>2026-04-25T18:40:08.003Z</time>
</trkpt>
<trkpt lat="59.0985890" lon="30.0504960">
<ele>64.312798</ele>
<time>2026-04-25T18:40:32.998Z</time>
</trkpt>
<trkpt lat="59.0984810" lon="30.0504540">
<ele>64.282318</ele>
<time>2026-04-25T18:42:04.003Z</time>
</trkpt>
<trkpt lat="59.0985970" lon="30.0504280">
<ele>67.939919</ele>
<time>2026-04-25T18:42:54.003Z</time>
</trkpt>
<trkpt lat="59.0985360" lon="30.0504750">
<ele>67.757042</ele>
<time>2026-04-25T18:43:24.001Z</time>
</trkpt>
<trkpt lat="59.0985770" lon="30.0504180">
<ele>68.640961</ele>
<time>2026-04-25T18:44:15.003Z</time>
</trkpt>
<trkpt lat="59.0985400" lon="30.0504210">
<ele>66.385445</ele>
<time>2026-04-25T18:44:42.003Z</time>
</trkpt>
<trkpt lat="59.0985410" lon="30.0503770">
<ele>63.947041</ele>
<time>2026-04-25T18:45:13.003Z</time>
</trkpt>
<trkpt lat="59.0986080" lon="30.0504330">
<ele>66.476883</ele>
<time>2026-04-25T18:45:56.998Z</time>
</trkpt>
<trkpt lat="59.0985300" lon="30.0504280">
<ele>65.257683</ele>
<time>2026-04-25T18:47:01.003Z</time>
</trkpt>
<trkpt lat="59.0985290" lon="30.0505460">
<ele>66.964561</ele>
<time>2026-04-25T18:47:55.003Z</time>
</trkpt>
<trkpt lat="59.0985390" lon="30.0504770">
<ele>67.177917</ele>
<time>2026-04-25T18:49:35.003Z</time>
</trkpt>
<trkpt lat="59.0985530" lon="30.0505170">
<ele>67.543678</ele>
<time>2026-04-25T18:50:05.001Z</time>
</trkpt>
<trkpt lat="59.0985100" lon="30.0505070">
<ele>67.726563</ele>
<time>2026-04-25T18:50:36.001Z</time>
</trkpt>
<trkpt lat="59.0984070" lon="30.0502490">
<ele>64.008003</ele>
<time>2026-04-25T18:54:12.001Z</time>
</trkpt>
<trkpt lat="59.0982950" lon="30.0502500">
<ele>63.733681</ele>
<time>2026-04-25T18:54:50.000Z</time>
</trkpt>
<trkpt lat="59.0982950" lon="30.0503130">
<ele>63.550800</ele>
<time>2026-04-25T18:55:11.004Z</time>
</trkpt>
<trkpt lat="59.0981870" lon="30.0503380">
<ele>63.428883</ele>
<time>2026-04-25T18:55:52.000Z</time>
</trkpt>
<trkpt lat="59.0980940" lon="30.0502970">
<ele>63.124081</ele>
<time>2026-04-25T18:56:13.004Z</time>
</trkpt>
<trkpt lat="59.0980250" lon="30.0501350">
<ele>65.135757</ele>
<time>2026-04-25T18:57:18.996Z</time>
</trkpt>
<trkpt lat="59.0980000" lon="30.0501970">
<ele>65.806320</ele>
<time>2026-04-25T18:59:10.997Z</time>
</trkpt>
<trkpt lat="59.0978740" lon="30.0502330">
<ele>65.166245</ele>
<time>2026-04-25T18:59:56.003Z</time>
</trkpt>
<trkpt lat="59.0978020" lon="30.0501660">
<ele>64.983360</ele>
<time>2026-04-25T19:00:41.000Z</time>
</trkpt>
<trkpt lat="59.0976870" lon="30.0501400">
<ele>63.703201</ele>
<time>2026-04-25T19:01:25.003Z</time>
</trkpt>
<trkpt lat="59.0974620" lon="30.0499150">
<ele>62.453518</ele>
<time>2026-04-25T19:02:54.004Z</time>
</trkpt>
<trkpt lat="59.0973140" lon="30.0495830">
<ele>63.977520</ele>
<time>2026-04-25T19:07:47.997Z</time>
</trkpt>
<trkpt lat="59.0970040" lon="30.0492560">
<ele>64.495682</ele>
<time>2026-04-25T19:10:13.002Z</time>
</trkpt>
<trkpt lat="59.0969420" lon="30.0492340">
<ele>64.617599</ele>
<time>2026-04-25T19:10:30.999Z</time>
</trkpt>
<trkpt lat="59.0962660" lon="30.0495500">
<ele>64.830956</ele>
<time>2026-04-25T19:15:52.001Z</time>
</trkpt>
<trkpt lat="59.0963900" lon="30.0494810">
<ele>62.910717</ele>
<time>2026-04-25T19:16:09.998Z</time>
</trkpt>
<trkpt lat="59.0964380" lon="30.0493600">
<ele>61.600082</ele>
<time>2026-04-25T19:16:51.004Z</time>
</trkpt>
<trkpt lat="59.0963670" lon="30.0492430">
<ele>61.295280</ele>
<time>2026-04-25T19:17:41.004Z</time>
</trkpt>
<trkpt lat="59.0963190" lon="30.0492400">
<ele>61.508640</ele>
<time>2026-04-25T19:17:57.998Z</time>
</trkpt>
<trkpt lat="59.0962840" lon="30.0491400">
<ele>60.990482</ele>
<time>2026-04-25T19:18:15.002Z</time>
</trkpt>
<trkpt lat="59.0962700" lon="30.0489550">
<ele>61.447681</ele>
<time>2026-04-25T19:18:54.003Z</time>
</trkpt>
<trkpt lat="59.0961490" lon="30.0486890">
<ele>61.234318</ele>
<time>2026-04-25T19:20:19.003Z</time>
</trkpt>
<trkpt lat="59.0961820" lon="30.0486510">
<ele>60.807598</ele>
<time>2026-04-25T19:20:37.000Z</time>
</trkpt>
<trkpt lat="59.0961240" lon="30.0484160">
<ele>62.910717</ele>
<time>2026-04-25T19:21:56.998Z</time>
</trkpt>
<trkpt lat="59.0961440" lon="30.0483520">
<ele>63.245998</ele>
<time>2026-04-25T19:22:15.004Z</time>
</trkpt>
<trkpt lat="59.0961100" lon="30.0483310">
<ele>63.642242</ele>
<time>2026-04-25T19:22:34.003Z</time>
</trkpt>
<trkpt lat="59.0961070" lon="30.0482080">
<ele>63.764160</ele>
<time>2026-04-25T19:23:09.997Z</time>
</trkpt>
<trkpt lat="59.0959610" lon="30.0477670">
<ele>63.398399</ele>
<time>2026-04-25T19:24:41.996Z</time>
</trkpt>
<trkpt lat="59.0959460" lon="30.0476420">
<ele>63.306957</ele>
<time>2026-04-25T19:25:01.004Z</time>
</trkpt>
<trkpt lat="59.0959840" lon="30.0474530">
<ele>63.825119</ele>
<time>2026-04-25T19:25:39.996Z</time>
</trkpt>
<trkpt lat="59.0959510" lon="30.0472070">
<ele>63.306957</ele>
<time>2026-04-25T19:26:20.000Z</time>
</trkpt>
<trkpt lat="59.0959140" lon="30.0471410">
<ele>63.276482</ele>
<time>2026-04-25T19:26:41.997Z</time>
</trkpt>
<trkpt lat="59.0959340" lon="30.0471200">
<ele>63.733681</ele>
<time>2026-04-25T19:27:42.002Z</time>
</trkpt>
<trkpt lat="59.0958990" lon="30.0470760">
<ele>64.739517</ele>
<time>2026-04-25T19:29:10.000Z</time>
</trkpt>
<trkpt lat="59.0959420" lon="30.0471400">
<ele>65.257683</ele>
<time>2026-04-25T19:30:12.001Z</time>
</trkpt>
<trkpt lat="59.0958910" lon="30.0471190">
<ele>64.922401</ele>
<time>2026-04-25T19:30:43.001Z</time>
</trkpt>
<trkpt lat="59.0958540" lon="30.0471730">
<ele>64.891914</ele>
<time>2026-04-25T19:31:15.997Z</time>
</trkpt>
<trkpt lat="59.0958810" lon="30.0472260">
<ele>65.074799</ele>
<time>2026-04-25T19:31:46.998Z</time>
</trkpt>
<trkpt lat="59.0959240" lon="30.0471210">
<ele>66.964561</ele>
<time>2026-04-25T19:33:17.001Z</time>
</trkpt>
<trkpt lat="59.0958890" lon="30.0471890">
<ele>70.926956</ele>
<time>2026-04-25T19:35:18.997Z</time>
</trkpt>
<trkpt lat="59.0958490" lon="30.0471220">
<ele>69.860161</ele>
<time>2026-04-25T19:36:51.998Z</time>
</trkpt>
<trkpt lat="59.0959040" lon="30.0472090">
<ele>69.037201</ele>
<time>2026-04-25T19:38:15.996Z</time>
</trkpt>
<trkpt lat="59.0958810" lon="30.0472530">
<ele>69.799202</ele>
<time>2026-04-25T19:38:49.001Z</time>
</trkpt>
<trkpt lat="59.0959010" lon="30.0471870">
<ele>67.878960</ele>
<time>2026-04-25T19:39:50.000Z</time>
</trkpt>
<trkpt lat="59.0958140" lon="30.0470890">
<ele>66.873116</ele>
<time>2026-04-25T19:41:20.003Z</time>
</trkpt>
<trkpt lat="59.0956360" lon="30.0471270">
<ele>66.476883</ele>
<time>2026-04-25T19:42:07.998Z</time>
</trkpt>
<trkpt lat="59.0955220" lon="30.0470220">
<ele>66.080643</ele>
<time>2026-04-25T19:42:45.003Z</time>
</trkpt>
<trkpt lat="59.0954660" lon="30.0467100">
<ele>66.293999</ele>
<time>2026-04-25T19:43:34.000Z</time>
</trkpt>
<trkpt lat="59.0953410" lon="30.0465200">
<ele>66.690239</ele>
<time>2026-04-25T19:44:26.998Z</time>
</trkpt>
<trkpt lat="59.0952540" lon="30.0464910">
<ele>67.208397</ele>
<time>2026-04-25T19:44:42.999Z</time>
</trkpt>
<trkpt lat="59.0951680" lon="30.0463720">
<ele>70.987915</ele>
<time>2026-04-25T19:45:41.000Z</time>
</trkpt>
<trkpt lat="59.0951780" lon="30.0460720">
<ele>70.622162</ele>
<time>2026-04-25T19:46:25.003Z</time>
</trkpt>
<trkpt lat="59.0951390" lon="30.0459720">
<ele>70.744080</ele>
<time>2026-04-25T19:46:45.998Z</time>
</trkpt>
<trkpt lat="59.0951460" lon="30.0458400">
<ele>70.774559</ele>
<time>2026-04-25T19:47:24.999Z</time>
</trkpt>
<trkpt lat="59.0951080" lon="30.0457890">
<ele>74.736961</ele>
<time>2026-04-25T19:47:56.000Z</time>
</trkpt>
<trkpt lat="59.0951500" lon="30.0459520">
<ele>73.700638</ele>
<time>2026-04-25T19:48:47.002Z</time>
</trkpt>
<trkpt lat="59.0951130" lon="30.0460450">
<ele>74.218803</ele>
<time>2026-04-25T19:49:31.999Z</time>
</trkpt>
<trkpt lat="59.0950060" lon="30.0459140">
<ele>73.792084</ele>
<time>2026-04-25T19:50:06.999Z</time>
</trkpt>
<trkpt lat="59.0949950" lon="30.0457990">
<ele>74.950317</ele>
<time>2026-04-25T19:50:39.002Z</time>
</trkpt>
<trkpt lat="59.0949180" lon="30.0458080">
<ele>74.676003</ele>
<time>2026-04-25T19:50:56.999Z</time>
</trkpt>
<trkpt lat="59.0947440" lon="30.0460700">
<ele>70.652641</ele>
<time>2026-04-25T19:51:38.998Z</time>
</trkpt>
<trkpt lat="59.0946150" lon="30.0458650">
<ele>70.286880</ele>
<time>2026-04-25T19:53:03.998Z</time>
</trkpt>
<trkpt lat="59.0946070" lon="30.0457840">
<ele>73.853043</ele>
<time>2026-04-25T19:53:34.999Z</time>
</trkpt>
<trkpt lat="59.0946060" lon="30.0458640">
<ele>74.950317</ele>
<time>2026-04-25T19:54:03.001Z</time>
</trkpt>
<trkpt lat="59.0945630" lon="30.0458600">
<ele>75.438004</ele>
<time>2026-04-25T19:54:45.000Z</time>
</trkpt>
<trkpt lat="59.0946130" lon="30.0459450">
<ele>76.443840</ele>
<time>2026-04-25T19:55:44.003Z</time>
</trkpt>
<trkpt lat="59.0946300" lon="30.0458930">
<ele>76.718163</ele>
<time>2026-04-25T19:56:12.998Z</time>
</trkpt>
<trkpt lat="59.0945840" lon="30.0459160">
<ele>77.236320</ele>
<time>2026-04-25T19:56:42.003Z</time>
</trkpt>
<trkpt lat="59.0946170" lon="30.0459530">
<ele>77.510643</ele>
<time>2026-04-25T19:57:13.003Z</time>
</trkpt>
<trkpt lat="59.0946340" lon="30.0459280">
<ele>77.663040</ele>
<time>2026-04-25T19:57:40.003Z</time>
</trkpt>
<trkpt lat="59.0945030" lon="30.0459350">
<ele>75.773285</ele>
<time>2026-04-25T19:59:01.003Z</time>
</trkpt>
<trkpt lat="59.0944950" lon="30.0460110">
<ele>74.310242</ele>
<time>2026-04-25T19:59:33.999Z</time>
</trkpt>
<trkpt lat="59.0945900" lon="30.0459350">
<ele>75.377045</ele>
<time>2026-04-25T20:00:06.002Z</time>
</trkpt>
<trkpt lat="59.0946310" lon="30.0457990">
<ele>75.133202</ele>
<time>2026-04-25T20:01:12.003Z</time>
</trkpt>
<trkpt lat="59.0945600" lon="30.0458870">
<ele>73.334885</ele>
<time>2026-04-25T20:02:24.000Z</time>
</trkpt>
<trkpt lat="59.0946860" lon="30.0459550">
<ele>75.346558</ele>
<time>2026-04-25T20:03:58.997Z</time>
</trkpt>
<trkpt lat="59.0947610" lon="30.0463410">
<ele>72.146156</ele>
<time>2026-04-25T20:05:58.998Z</time>
</trkpt>
<trkpt lat="59.0948250" lon="30.0464250">
<ele>73.212959</ele>
<time>2026-04-25T20:06:51.002Z</time>
</trkpt>
<trkpt lat="59.0948040" lon="30.0466670">
<ele>71.018402</ele>
<time>2026-04-25T20:08:00.001Z</time>
</trkpt>
<trkpt lat="59.0948640" lon="30.0465870">
<ele>69.677284</ele>
<time>2026-04-25T20:08:58.001Z</time>
</trkpt>
<trkpt lat="59.0948450" lon="30.0467120">
<ele>69.220085</ele>
<time>2026-04-25T20:09:26.004Z</time>
</trkpt>
<trkpt lat="59.0949360" lon="30.0470020">
<ele>69.707756</ele>
<time>2026-04-25T20:10:59.998Z</time>
</trkpt>
<trkpt lat="59.0949230" lon="30.0471410">
<ele>70.012558</ele>
<time>2026-04-25T20:11:53.998Z</time>
</trkpt>
<trkpt lat="59.0950140" lon="30.0473070">
<ele>70.744080</ele>
<time>2026-04-25T20:13:01.001Z</time>
</trkpt>
<trkpt lat="59.0949580" lon="30.0474390">
<ele>68.732399</ele>
<time>2026-04-25T20:14:42.996Z</time>
</trkpt>
<trkpt lat="59.0949310" lon="30.0473870">
<ele>68.762878</ele>
<time>2026-04-25T20:15:17.004Z</time>
</trkpt>
<trkpt lat="59.0949430" lon="30.0472640">
<ele>70.134483</ele>
<time>2026-04-25T20:16:42.004Z</time>
</trkpt>
<trkpt lat="59.0949590" lon="30.0473830">
<ele>71.993759</ele>
<time>2026-04-25T20:19:28.998Z</time>
</trkpt>
<trkpt lat="59.0949400" lon="30.0472940">
<ele>73.914001</ele>
<time>2026-04-25T20:22:53.999Z</time>
</trkpt>
<trkpt lat="59.0947880" lon="30.0471740">
<ele>74.584557</ele>
<time>2026-04-25T20:24:00.000Z</time>
</trkpt>
<trkpt lat="59.0947380" lon="30.0471970">
<ele>74.371201</ele>
<time>2026-04-25T20:24:23.000Z</time>
</trkpt>
<trkpt lat="59.0947700" lon="30.0471560">
<ele>74.645515</ele>
<time>2026-04-25T20:24:55.002Z</time>
</trkpt>
<trkpt lat="59.0946890" lon="30.0469610">
<ele>74.096878</ele>
<time>2026-04-25T20:25:57.996Z</time>
</trkpt>
<trkpt lat="59.0946230" lon="30.0469120">
<ele>74.127357</ele>
<time>2026-04-25T20:26:15.000Z</time>
</trkpt>
<trkpt lat="59.0945550" lon="30.0468910">
<ele>74.340721</ele>
<time>2026-04-25T20:26:46.000Z</time>
</trkpt>
<trkpt lat="59.0942940" lon="30.0470910">
<ele>75.773285</ele>
<time>2026-04-25T20:28:15.001Z</time>
</trkpt>
<trkpt lat="59.0940610" lon="30.0469320">
<ele>76.443840</ele>
<time>2026-04-25T20:30:03.001Z</time>
</trkpt>
<trkpt lat="59.0941270" lon="30.0468240">
<ele>76.596237</ele>
<time>2026-04-25T20:30:24.998Z</time>
</trkpt>
<trkpt lat="59.0940820" lon="30.0468680">
<ele>77.632561</ele>
<time>2026-04-25T20:30:49.000Z</time>
</trkpt>
<trkpt lat="59.0939760" lon="30.0468140">
<ele>77.876404</ele>
<time>2026-04-25T20:31:18.998Z</time>
</trkpt>
<trkpt lat="59.0939460" lon="30.0469310">
<ele>77.723999</ele>
<time>2026-04-25T20:32:11.003Z</time>
</trkpt>
<trkpt lat="59.0938310" lon="30.0469330">
<ele>76.504799</ele>
<time>2026-04-25T20:32:50.004Z</time>
</trkpt>
<trkpt lat="59.0937020" lon="30.0471360">
<ele>75.559921</ele>
<time>2026-04-25T20:33:35.001Z</time>
</trkpt>
<trkpt lat="59.0937760" lon="30.0470610">
<ele>75.590401</ele>
<time>2026-04-25T20:34:18.002Z</time>
</trkpt>
<trkpt lat="59.0937220" lon="30.0470350">
<ele>78.607918</ele>
<time>2026-04-25T20:36:19.999Z</time>
</trkpt>
<trkpt lat="59.0937980" lon="30.0470000">
<ele>76.596237</ele>
<time>2026-04-25T20:37:50.002Z</time>
</trkpt>
<trkpt lat="59.0937000" lon="30.0470790">
<ele>75.498962</ele>
<time>2026-04-25T20:39:35.997Z</time>
</trkpt>
<trkpt lat="59.0937700" lon="30.0470400">
<ele>74.858879</ele>
<time>2026-04-25T20:40:08.000Z</time>
</trkpt>
<trkpt lat="59.0937460" lon="30.0470880">
<ele>75.681839</ele>
<time>2026-04-25T20:40:35.000Z</time>
</trkpt>
<trkpt lat="59.0936510" lon="30.0470050">
<ele>76.413361</ele>
<time>2026-04-25T20:41:15.003Z</time>
</trkpt>
<trkpt lat="59.0935200" lon="30.0470290">
<ele>78.059280</ele>
<time>2026-04-25T20:41:42.003Z</time>
</trkpt>
<trkpt lat="59.0935370" lon="30.0469970">
<ele>79.217522</ele>
<time>2026-04-25T20:42:13.997Z</time>
</trkpt>
<trkpt lat="59.0934710" lon="30.0471340">
<ele>80.406235</ele>
<time>2026-04-25T20:42:35.001Z</time>
</trkpt>
<trkpt lat="59.0933950" lon="30.0471250">
<ele>80.467201</ele>
<time>2026-04-25T20:42:55.002Z</time>
</trkpt>
<trkpt lat="59.0933810" lon="30.0472160">
<ele>79.766167</ele>
<time>2026-04-25T20:43:19.998Z</time>
</trkpt>
<trkpt lat="59.0932630" lon="30.0473970">
<ele>78.242165</ele>
<time>2026-04-25T20:44:16.002Z</time>
</trkpt>
<trkpt lat="59.0931950" lon="30.0476100">
<ele>79.461365</ele>
<time>2026-04-25T20:44:55.003Z</time>
</trkpt>
<trkpt lat="59.0932170" lon="30.0476330">
<ele>80.954880</ele>
<time>2026-04-25T20:45:19.999Z</time>
</trkpt>
<trkpt lat="59.0931710" lon="30.0474960">
<ele>80.101433</ele>
<time>2026-04-25T20:45:37.002Z</time>
</trkpt>
<trkpt lat="59.0932100" lon="30.0475490">
<ele>80.680565</ele>
<time>2026-04-25T20:46:01.004Z</time>
</trkpt>
<trkpt lat="59.0931960" lon="30.0475810">
<ele>80.162399</ele>
<time>2026-04-25T20:46:34.000Z</time>
</trkpt>
<trkpt lat="59.0932250" lon="30.0475860">
<ele>80.162399</ele>
<time>2026-04-25T20:47:02.003Z</time>
</trkpt>
<trkpt lat="59.0932450" lon="30.0477280">
<ele>79.156563</ele>
<time>2026-04-25T20:47:53.998Z</time>
</trkpt>
<trkpt lat="59.0932160" lon="30.0475760">
<ele>79.461365</ele>
<time>2026-04-25T20:48:16.998Z</time>
</trkpt>
<trkpt lat="59.0932370" lon="30.0476390">
<ele>81.869286</ele>
<time>2026-04-25T20:49:56.004Z</time>
</trkpt>
<trkpt lat="59.0932340" lon="30.0475360">
<ele>81.381599</ele>
<time>2026-04-25T20:50:20.999Z</time>
</trkpt>
<trkpt lat="59.0933130" lon="30.0476000">
<ele>81.594963</ele>
<time>2026-04-25T20:50:49.001Z</time>
</trkpt>
<trkpt lat="59.0933760" lon="30.0478030">
<ele>80.924400</ele>
<time>2026-04-25T20:51:14.999Z</time>
</trkpt>
<trkpt lat="59.0933590" lon="30.0477870">
<ele>81.290161</ele>
<time>2026-04-25T20:51:51.002Z</time>
</trkpt>
<trkpt lat="59.0935100" lon="30.0480050">
<ele>79.918564</ele>
<time>2026-04-25T20:52:30.996Z</time>
</trkpt>
<trkpt lat="59.0938240" lon="30.0491680">
<ele>74.615044</ele>
<time>2026-04-25T20:53:36.997Z</time>
</trkpt>
<trkpt lat="59.0939760" lon="30.0503450">
<ele>66.537842</ele>
<time>2026-04-25T20:54:37.002Z</time>
</trkpt>
<trkpt lat="59.0940290" lon="30.0504310">
<ele>67.513199</ele>
<time>2026-04-25T20:55:00.002Z</time>
</trkpt>
<trkpt lat="59.0940500" lon="30.0505770">
<ele>67.787521</ele>
<time>2026-04-25T20:55:23.002Z</time>
</trkpt>
<trkpt lat="59.0940080" lon="30.0523230">
<ele>69.402962</ele>
<time>2026-04-25T20:59:15.003Z</time>
</trkpt>
<trkpt lat="59.0941080" lon="30.0528460">
<ele>68.640961</ele>
<time>2026-04-25T20:59:58.004Z</time>
</trkpt>
<trkpt lat="59.0945000" lon="30.0537710">
<ele>69.281044</ele>
<time>2026-04-25T21:00:56.998Z</time>
</trkpt>
<trkpt lat="59.0946520" lon="30.0540400">
<ele>68.092316</ele>
<time>2026-04-25T21:01:15.997Z</time>
</trkpt>
<trkpt lat="59.0948950" lon="30.0547260">
<ele>66.385445</ele>
<time>2026-04-25T21:01:54.998Z</time>
</trkpt>
<trkpt lat="59.0954290" lon="30.0557880">
<ele>71.231758</ele>
<time>2026-04-25T21:04:35.996Z</time>
</trkpt>
<trkpt lat="59.0955860" lon="30.0560130">
<ele>70.987915</ele>
<time>2026-04-25T21:04:58.996Z</time>
</trkpt>
<trkpt lat="59.0959930" lon="30.0570740">
<ele>71.140320</ele>
<time>2026-04-25T21:06:43.004Z</time>
</trkpt>
<trkpt lat="59.0962160" lon="30.0573500">
<ele>72.847198</ele>
<time>2026-04-25T21:07:43.000Z</time>
</trkpt>
<trkpt lat="59.0961860" lon="30.0572650">
<ele>72.481438</ele>
<time>2026-04-25T21:10:15.004Z</time>
</trkpt>
<trkpt lat="59.0962570" lon="30.0574210">
<ele>72.725281</ele>
<time>2026-04-25T21:11:04.001Z</time>
</trkpt>
<trkpt lat="59.0963280" lon="30.0573380">
<ele>73.395844</ele>
<time>2026-04-25T21:11:32.997Z</time>
</trkpt>
<trkpt lat="59.0971970" lon="30.0561800">
<ele>70.073517</ele>
<time>2026-04-25T21:13:47.997Z</time>
</trkpt>
<trkpt lat="59.0972100" lon="30.0560100">
<ele>69.921120</ele>
<time>2026-04-25T21:14:09.001Z</time>
</trkpt>
<trkpt lat="59.0973930" lon="30.0557480">
<ele>68.732399</ele>
<time>2026-04-25T21:14:57.998Z</time>
</trkpt>
<trkpt lat="59.0975890" lon="30.0556400">
<ele>69.890640</ele>
<time>2026-04-25T21:15:31.003Z</time>
</trkpt>
<trkpt lat="59.0975680" lon="30.0555440">
<ele>68.671440</ele>
<time>2026-04-25T21:15:58.003Z</time>
</trkpt>
<trkpt lat="59.0976670" lon="30.0555070">
<ele>66.598801</ele>
<time>2026-04-25T21:16:22.999Z</time>
</trkpt>
<trkpt lat="59.0977730" lon="30.0551700">
<ele>67.482719</ele>
<time>2026-04-25T21:16:53.999Z</time>
</trkpt>
<trkpt lat="59.0978520" lon="30.0550630">
<ele>69.220085</ele>
<time>2026-04-25T21:17:07.002Z</time>
</trkpt>
<trkpt lat="59.0980820" lon="30.0549260">
<ele>70.043037</ele>
<time>2026-04-25T21:17:27.997Z</time>
</trkpt>
<trkpt lat="59.0982410" lon="30.0545990">
<ele>71.719444</ele>
<time>2026-04-25T21:17:57.002Z</time>
</trkpt>
<trkpt lat="59.0984210" lon="30.0544140">
<ele>70.957443</ele>
<time>2026-04-25T21:18:23.000Z</time>
</trkpt>
<trkpt lat="59.0988150" lon="30.0537780">
<ele>74.340721</ele>
<time>2026-04-25T21:19:23.998Z</time>
</trkpt>
<trkpt lat="59.0990130" lon="30.0535830">
<ele>75.316078</ele>
<time>2026-04-25T21:19:49.996Z</time>
</trkpt>
<trkpt lat="59.0993190" lon="30.0530950">
<ele>73.914001</ele>
<time>2026-04-25T21:20:42.000Z</time>
</trkpt>
<trkpt lat="59.0994820" lon="30.0529280">
<ele>74.554085</ele>
<time>2026-04-25T21:21:03.004Z</time>
</trkpt>
<trkpt lat="59.0997430" lon="30.0525480">
<ele>74.035919</ele>
<time>2026-04-25T21:21:34.998Z</time>
</trkpt>
<trkpt lat="59.0999150" lon="30.0522070">
<ele>74.889359</ele>
<time>2026-04-25T21:22:08.003Z</time>
</trkpt>
<trkpt lat="59.1001820" lon="30.0519300">
<ele>74.096878</ele>
<time>2026-04-25T21:22:44.999Z</time>
</trkpt>
<trkpt lat="59.1004370" lon="30.0514480">
<ele>70.896484</ele>
<time>2026-04-25T21:23:26.998Z</time>
</trkpt>
<trkpt lat="59.1007480" lon="30.0510800">
<ele>72.054718</ele>
<time>2026-04-25T21:24:12.004Z</time>
</trkpt>
<trkpt lat="59.1009050" lon="30.0506460">
<ele>72.786240</ele>
<time>2026-04-25T21:24:46.002Z</time>
</trkpt>
<trkpt lat="59.1014030" lon="30.0501160">
<ele>73.487282</ele>
<time>2026-04-25T21:25:52.997Z</time>
</trkpt>
<trkpt lat="59.1015270" lon="30.0498660">
<ele>74.645515</ele>
<time>2026-04-25T21:26:26.002Z</time>
</trkpt>
<trkpt lat="59.1016540" lon="30.0497880">
<ele>75.956161</ele>
<time>2026-04-25T21:26:46.997Z</time>
</trkpt>
<trkpt lat="59.1017200" lon="30.0495710">
<ele>77.022957</ele>
<time>2026-04-25T21:27:06.998Z</time>
</trkpt>
<trkpt lat="59.1019750" lon="30.0492500">
<ele>77.693520</ele>
<time>2026-04-25T21:28:04.999Z</time>
</trkpt>
<trkpt lat="59.1019280" lon="30.0493090">
<ele>81.015839</ele>
<time>2026-04-25T21:28:30.996Z</time>
</trkpt>
<trkpt lat="59.1019620" lon="30.0492630">
<ele>82.478882</ele>
<time>2026-04-25T21:28:53.996Z</time>
</trkpt>
<trkpt lat="59.1021430" lon="30.0493250">
<ele>84.338165</ele>
<time>2026-04-25T21:29:36.004Z</time>
</trkpt>
<trkpt lat="59.1022300" lon="30.0492020">
<ele>84.216240</ele>
<time>2026-04-25T21:30:03.004Z</time>
</trkpt>
<trkpt lat="59.1022760" lon="30.0489590">
<ele>83.545685</ele>
<time>2026-04-25T21:30:23.999Z</time>
</trkpt>
<trkpt lat="59.1024420" lon="30.0486640">
<ele>79.918564</ele>
<time>2026-04-25T21:30:45.996Z</time>
</trkpt>
<trkpt lat="59.1028620" lon="30.0480050">
<ele>76.139038</ele>
<time>2026-04-25T21:31:42.001Z</time>
</trkpt>
<trkpt lat="59.1029550" lon="30.0479520">
<ele>75.285599</ele>
<time>2026-04-25T21:31:54.002Z</time>
</trkpt>
<trkpt lat="59.1029960" lon="30.0478340">
<ele>73.243439</ele>
<time>2026-04-25T21:32:03.998Z</time>
</trkpt>
<trkpt lat="59.1029900" lon="30.0476580">
<ele>71.353683</ele>
<time>2026-04-25T21:32:14.004Z</time>
</trkpt>
<trkpt lat="59.1028440" lon="30.0470510">
<ele>63.002159</ele>
<time>2026-04-25T21:32:51.000Z</time>
</trkpt>
<trkpt lat="59.1028060" lon="30.0465250">
<ele>58.765442</ele>
<time>2026-04-25T21:33:28.999Z</time>
</trkpt>
<trkpt lat="59.1027520" lon="30.0463480">
<ele>58.094883</ele>
<time>2026-04-25T21:33:46.996Z</time>
</trkpt>
<trkpt lat="59.1026700" lon="30.0462520">
<ele>59.375042</ele>
<time>2026-04-25T21:34:08.000Z</time>
</trkpt>
<trkpt lat="59.1026280" lon="30.0456780">
<ele>60.106560</ele>
<time>2026-04-25T21:35:06.000Z</time>
</trkpt>
<trkpt lat="59.1023870" lon="30.0441330">
<ele>62.148720</ele>
<time>2026-04-25T21:36:48.004Z</time>
</trkpt>
<trkpt lat="59.1023250" lon="30.0439220">
<ele>62.484001</ele>
<time>2026-04-25T21:36:59.996Z</time>
</trkpt>
<trkpt lat="59.1021600" lon="30.0430610">
<ele>60.624718</ele>
<time>2026-04-25T21:37:45.002Z</time>
</trkpt>
</trkseg>
</trk>
<trk>
 <name>20260425_Lisa96</name>
 <desc>20260425_Lisa96</desc>
<trkseg>
<trkpt lat="59.0995770" lon="30.0287410">
<ele>75.559921</ele>
<time>2026-04-25T21:57:49.003Z</time>
</trkpt>
<trkpt lat="59.0992460" lon="30.0290460">
<ele>76.230484</ele>
<time>2026-04-25T21:58:12.996Z</time>
</trkpt>
<trkpt lat="59.0985370" lon="30.0300900">
<ele>74.797920</ele>
<time>2026-04-25T21:58:57.000Z</time>
</trkpt>
<trkpt lat="59.0982400" lon="30.0303360">
<ele>75.072243</ele>
<time>2026-04-25T21:59:10.997Z</time>
</trkpt>
<trkpt lat="59.0977540" lon="30.0304460">
<ele>73.792084</ele>
<time>2026-04-25T21:59:33.003Z</time>
</trkpt>
<trkpt lat="59.0971290" lon="30.0310570">
<ele>75.864716</ele>
<time>2026-04-25T21:59:52.996Z</time>
</trkpt>
<trkpt lat="59.0966120" lon="30.0319600">
<ele>76.078079</ele>
<time>2026-04-25T22:00:14.000Z</time>
</trkpt>
<trkpt lat="59.0963340" lon="30.0322360">
<ele>75.559921</ele>
<time>2026-04-25T22:00:34.001Z</time>
</trkpt>
<trkpt lat="59.0960920" lon="30.0323670">
<ele>75.285599</ele>
<time>2026-04-25T22:00:45.000Z</time>
</trkpt>
<trkpt lat="59.0955790" lon="30.0324980">
<ele>76.291443</ele>
<time>2026-04-25T22:01:09.002Z</time>
</trkpt>
<trkpt lat="59.0952800" lon="30.0324950">
<ele>75.864716</ele>
<time>2026-04-25T22:01:25.003Z</time>
</trkpt>
<trkpt lat="59.0950220" lon="30.0325920">
<ele>74.676003</ele>
<time>2026-04-25T22:01:56.004Z</time>
</trkpt>
<trkpt lat="59.0948640" lon="30.0325760">
<ele>73.273918</ele>
<time>2026-04-25T22:02:11.003Z</time>
</trkpt>
<trkpt lat="59.0946500" lon="30.0322900">
<ele>72.603355</ele>
<time>2026-04-25T22:02:34.002Z</time>
</trkpt>
<trkpt lat="59.0944140" lon="30.0323130">
<ele>71.688957</ele>
<time>2026-04-25T22:02:46.003Z</time>
</trkpt>
<trkpt lat="59.0939670" lon="30.0326070">
<ele>69.616318</ele>
<time>2026-04-25T22:03:18.999Z</time>
</trkpt>
<trkpt lat="59.0938200" lon="30.0326520">
<ele>74.919838</ele>
<time>2026-04-25T22:04:08.999Z</time>
</trkpt>
<trkpt lat="59.0938200" lon="30.0324740">
<ele>81.229202</ele>
<time>2026-04-25T22:07:05.998Z</time>
</trkpt>
<trkpt lat="59.0937970" lon="30.0326340">
<ele>83.911438</ele>
<time>2026-04-25T22:07:17.999Z</time>
</trkpt>
<trkpt lat="59.0937520" lon="30.0325750">
<ele>83.484718</ele>
<time>2026-04-25T22:07:31.996Z</time>
</trkpt>
<trkpt lat="59.0937830" lon="30.0326750">
<ele>85.191597</ele>
<time>2026-04-25T22:07:55.998Z</time>
</trkpt>
<trkpt lat="59.0937920" lon="30.0325410">
<ele>87.172798</ele>
<time>2026-04-25T22:08:37.003Z</time>
</trkpt>
<trkpt lat="59.0937610" lon="30.0326580">
<ele>86.563202</ele>
<time>2026-04-25T22:08:49.998Z</time>
</trkpt>
<trkpt lat="59.0937480" lon="30.0325420">
<ele>82.143600</ele>
<time>2026-04-25T22:09:08.997Z</time>
</trkpt>
<trkpt lat="59.0936860" lon="30.0326840">
<ele>80.101433</ele>
<time>2026-04-25T22:09:35.004Z</time>
</trkpt>
<trkpt lat="59.0934430" lon="30.0326620">
<ele>80.162399</ele>
<time>2026-04-25T22:09:59.999Z</time>
</trkpt>
<trkpt lat="59.0932250" lon="30.0327220">
<ele>79.735680</ele>
<time>2026-04-25T22:10:22.999Z</time>
</trkpt>
<trkpt lat="59.0933510" lon="30.0327160">
<ele>80.650085</ele>
<time>2026-04-25T22:11:04.004Z</time>
</trkpt>
<trkpt lat="59.0933920" lon="30.0325880">
<ele>85.161118</ele>
<time>2026-04-25T22:11:54.004Z</time>
</trkpt>
<trkpt lat="59.0933130" lon="30.0324610">
<ele>87.386162</ele>
<time>2026-04-25T22:12:52.998Z</time>
</trkpt>
<trkpt lat="59.0932990" lon="30.0325660">
<ele>84.124802</ele>
<time>2026-04-25T22:13:19.998Z</time>
</trkpt>
<trkpt lat="59.0933060" lon="30.0326290">
<ele>84.399117</ele>
<time>2026-04-25T22:13:53.003Z</time>
</trkpt>
<trkpt lat="59.0933350" lon="30.0325070">
<ele>83.972397</ele>
<time>2026-04-25T22:14:15.000Z</time>
</trkpt>
<trkpt lat="59.0933210" lon="30.0320900">
<ele>80.558640</ele>
<time>2026-04-25T22:15:09.000Z</time>
</trkpt>
<trkpt lat="59.0933420" lon="30.0320630">
<ele>81.747360</ele>
<time>2026-04-25T22:15:37.002Z</time>
</trkpt>
<trkpt lat="59.0933230" lon="30.0321090">
<ele>83.210403</ele>
<time>2026-04-25T22:16:01.998Z</time>
</trkpt>
<trkpt lat="59.0932930" lon="30.0320400">
<ele>83.240883</ele>
<time>2026-04-25T22:16:40.999Z</time>
</trkpt>
<trkpt lat="59.0933450" lon="30.0319730">
<ele>83.637115</ele>
<time>2026-04-25T22:16:55.004Z</time>
</trkpt>
<trkpt lat="59.0933460" lon="30.0318170">
<ele>82.814163</ele>
<time>2026-04-25T22:17:07.999Z</time>
</trkpt>
<trkpt lat="59.0932890" lon="30.0314830">
<ele>79.339439</ele>
<time>2026-04-25T22:18:09.999Z</time>
</trkpt>
<trkpt lat="59.0932410" lon="30.0314320">
<ele>79.004166</ele>
<time>2026-04-25T22:18:19.996Z</time>
</trkpt>
<trkpt lat="59.0931910" lon="30.0311320">
<ele>80.741516</ele>
<time>2026-04-25T22:18:59.999Z</time>
</trkpt>
<trkpt lat="59.0931230" lon="30.0309940">
<ele>78.729836</ele>
<time>2026-04-25T22:19:33.004Z</time>
</trkpt>
<trkpt lat="59.0931310" lon="30.0309480">
<ele>82.265518</ele>
<time>2026-04-25T22:19:44.003Z</time>
</trkpt>
<trkpt lat="59.0930380" lon="30.0306360">
<ele>82.966560</ele>
<time>2026-04-25T22:20:33.000Z</time>
</trkpt>
<trkpt lat="59.0930120" lon="30.0307200">
<ele>80.650085</ele>
<time>2026-04-25T22:21:06.998Z</time>
</trkpt>
<trkpt lat="59.0930350" lon="30.0307490">
<ele>81.808319</ele>
<time>2026-04-25T22:21:33.998Z</time>
</trkpt>
<trkpt lat="59.0930100" lon="30.0306730">
<ele>79.491837</ele>
<time>2026-04-25T22:21:59.996Z</time>
</trkpt>
<trkpt lat="59.0930570" lon="30.0305270">
<ele>81.686401</ele>
<time>2026-04-25T22:22:31.999Z</time>
</trkpt>
<trkpt lat="59.0930330" lon="30.0304780">
<ele>80.802483</ele>
<time>2026-04-25T22:24:18.003Z</time>
</trkpt>
<trkpt lat="59.0930490" lon="30.0305060">
<ele>79.644234</ele>
<time>2026-04-25T22:25:16.997Z</time>
</trkpt>
<trkpt lat="59.0930190" lon="30.0301210">
<ele>79.857597</ele>
<time>2026-04-25T22:25:42.001Z</time>
</trkpt>
<trkpt lat="59.0930510" lon="30.0298800">
<ele>76.870560</ele>
<time>2026-04-25T22:26:06.996Z</time>
</trkpt>
<trkpt lat="59.0929800" lon="30.0292980">
<ele>75.834244</ele>
<time>2026-04-25T22:27:08.004Z</time>
</trkpt>
<trkpt lat="59.0929900" lon="30.0292020">
<ele>75.316078</ele>
<time>2026-04-25T22:27:43.998Z</time>
</trkpt>
<trkpt lat="59.0928620" lon="30.0288390">
<ele>75.438004</ele>
<time>2026-04-25T22:28:36.002Z</time>
</trkpt>
<trkpt lat="59.0928220" lon="30.0288970">
<ele>75.742798</ele>
<time>2026-04-25T22:29:30.002Z</time>
</trkpt>
<trkpt lat="59.0928150" lon="30.0288190">
<ele>73.152000</ele>
<time>2026-04-25T22:30:25.004Z</time>
</trkpt>
<trkpt lat="59.0927800" lon="30.0288070">
<ele>73.487282</ele>
<time>2026-04-25T22:30:37.999Z</time>
</trkpt>
<trkpt lat="59.0927020" lon="30.0285650">
<ele>76.321915</ele>
<time>2026-04-25T22:31:23.998Z</time>
</trkpt>
<trkpt lat="59.0927070" lon="30.0284580">
<ele>75.255119</ele>
<time>2026-04-25T22:31:44.000Z</time>
</trkpt>
<trkpt lat="59.0927610" lon="30.0285200">
<ele>74.950317</ele>
<time>2026-04-25T22:32:17.998Z</time>
</trkpt>
<trkpt lat="59.0928250" lon="30.0284970">
<ele>73.761597</ele>
<time>2026-04-25T22:32:32.997Z</time>
</trkpt>
<trkpt lat="59.0929390" lon="30.0287370">
<ele>75.072243</ele>
<time>2026-04-25T22:33:33.002Z</time>
</trkpt>
<trkpt lat="59.0928520" lon="30.0284260">
<ele>73.395844</ele>
<time>2026-04-25T22:34:24.997Z</time>
</trkpt>
<trkpt lat="59.0928700" lon="30.0283820">
<ele>73.731117</ele>
<time>2026-04-25T22:34:40.999Z</time>
</trkpt>
<trkpt lat="59.0928130" lon="30.0282780">
<ele>73.548241</ele>
<time>2026-04-25T22:35:37.003Z</time>
</trkpt>
<trkpt lat="59.0928340" lon="30.0282000">
<ele>73.273918</ele>
<time>2026-04-25T22:35:52.002Z</time>
</trkpt>
<trkpt lat="59.0927660" lon="30.0279700">
<ele>69.463921</ele>
<time>2026-04-25T22:37:09.002Z</time>
</trkpt>
<trkpt lat="59.0927800" lon="30.0278960">
<ele>67.939919</ele>
<time>2026-04-25T22:37:21.003Z</time>
</trkpt>
<trkpt lat="59.0926990" lon="30.0277210">
<ele>70.286880</ele>
<time>2026-04-25T22:37:55.001Z</time>
</trkpt>
<trkpt lat="59.0926890" lon="30.0275300">
<ele>71.567039</ele>
<time>2026-04-25T22:38:46.003Z</time>
</trkpt>
<trkpt lat="59.0926520" lon="30.0274810">
<ele>71.231758</ele>
<time>2026-04-25T22:39:02.998Z</time>
</trkpt>
<trkpt lat="59.0927020" lon="30.0273930">
<ele>71.597519</ele>
<time>2026-04-25T22:39:37.999Z</time>
</trkpt>
<trkpt lat="59.0926720" lon="30.0273260">
<ele>73.334885</ele>
<time>2026-04-25T22:40:21.000Z</time>
</trkpt>
<trkpt lat="59.0926970" lon="30.0272250">
<ele>75.559921</ele>
<time>2026-04-25T22:40:31.999Z</time>
</trkpt>
<trkpt lat="59.0926330" lon="30.0271930">
<ele>75.102715</ele>
<time>2026-04-25T22:40:45.002Z</time>
</trkpt>
<trkpt lat="59.0926280" lon="30.0271380">
<ele>74.127357</ele>
<time>2026-04-25T22:41:04.001Z</time>
</trkpt>
<trkpt lat="59.0926320" lon="30.0270280">
<ele>73.548241</ele>
<time>2026-04-25T22:41:36.997Z</time>
</trkpt>
<trkpt lat="59.0927030" lon="30.0267740">
<ele>73.853043</ele>
<time>2026-04-25T22:42:41.996Z</time>
</trkpt>
<trkpt lat="59.0926960" lon="30.0267040">
<ele>71.231758</ele>
<time>2026-04-25T22:43:03.000Z</time>
</trkpt>
<trkpt lat="59.0926460" lon="30.0266410">
<ele>71.170799</ele>
<time>2026-04-25T22:43:17.999Z</time>
</trkpt>
<trkpt lat="59.0926240" lon="30.0266920">
<ele>71.627998</ele>
<time>2026-04-25T22:43:30.000Z</time>
</trkpt>
<trkpt lat="59.0925450" lon="30.0265990">
<ele>75.194160</ele>
<time>2026-04-25T22:45:31.997Z</time>
</trkpt>
<trkpt lat="59.0925190" lon="30.0267050">
<ele>73.334885</ele>
<time>2026-04-25T22:46:09.002Z</time>
</trkpt>
<trkpt lat="59.0924820" lon="30.0266580">
<ele>72.725281</ele>
<time>2026-04-25T22:46:22.999Z</time>
</trkpt>
<trkpt lat="59.0924590" lon="30.0267030">
<ele>72.847198</ele>
<time>2026-04-25T22:46:40.002Z</time>
</trkpt>
<trkpt lat="59.0925070" lon="30.0268510">
<ele>72.237602</ele>
<time>2026-04-25T22:47:14.001Z</time>
</trkpt>
<trkpt lat="59.0924490" lon="30.0269780">
<ele>72.572884</ele>
<time>2026-04-25T22:48:09.003Z</time>
</trkpt>
<trkpt lat="59.0924610" lon="30.0272130">
<ele>75.559921</ele>
<time>2026-04-25T22:48:59.003Z</time>
</trkpt>
<trkpt lat="59.0924650" lon="30.0271630">
<ele>75.620880</ele>
<time>2026-04-25T22:49:23.998Z</time>
</trkpt>
<trkpt lat="59.0924230" lon="30.0271920">
<ele>74.950317</ele>
<time>2026-04-25T22:49:39.999Z</time>
</trkpt>
<trkpt lat="59.0924220" lon="30.0272620">
<ele>73.914001</ele>
<time>2026-04-25T22:50:01.997Z</time>
</trkpt>
<trkpt lat="59.0923650" lon="30.0272490">
<ele>70.835518</ele>
<time>2026-04-25T22:50:16.996Z</time>
</trkpt>
<trkpt lat="59.0921800" lon="30.0270310">
<ele>71.109840</ele>
<time>2026-04-25T22:52:04.002Z</time>
</trkpt>
<trkpt lat="59.0921910" lon="30.0269200">
<ele>71.323196</ele>
<time>2026-04-25T22:52:19.001Z</time>
</trkpt>
<trkpt lat="59.0922650" lon="30.0268810">
<ele>72.786240</ele>
<time>2026-04-25T22:52:34.000Z</time>
</trkpt>
<trkpt lat="59.0922810" lon="30.0267760">
<ele>75.529442</ele>
<time>2026-04-25T22:53:10.003Z</time>
</trkpt>
<trkpt lat="59.0923900" lon="30.0269580">
<ele>78.546967</ele>
<time>2026-04-25T22:53:49.004Z</time>
</trkpt>
<trkpt lat="59.0924430" lon="30.0268850">
<ele>77.815437</ele>
<time>2026-04-25T22:54:07.001Z</time>
</trkpt>
<trkpt lat="59.0925720" lon="30.0269680">
<ele>79.156563</ele>
<time>2026-04-25T22:55:39.000Z</time>
</trkpt>
<trkpt lat="59.0924650" lon="30.0268930">
<ele>82.966560</ele>
<time>2026-04-25T22:56:31.004Z</time>
</trkpt>
<trkpt lat="59.0924960" lon="30.0269750">
<ele>82.905602</ele>
<time>2026-04-25T22:56:50.004Z</time>
</trkpt>
<trkpt lat="59.0924950" lon="30.0271590">
<ele>84.063835</ele>
<time>2026-04-25T22:57:13.003Z</time>
</trkpt>
<trkpt lat="59.0925010" lon="30.0269010">
<ele>82.021683</ele>
<time>2026-04-25T22:57:29.998Z</time>
</trkpt>
<trkpt lat="59.0925350" lon="30.0268020">
<ele>80.680565</ele>
<time>2026-04-25T22:57:43.001Z</time>
</trkpt>
<trkpt lat="59.0925120" lon="30.0267710">
<ele>79.065117</ele>
<time>2026-04-25T22:58:04.999Z</time>
</trkpt>
<trkpt lat="59.0924760" lon="30.0269150">
<ele>78.394562</ele>
<time>2026-04-25T22:58:19.998Z</time>
</trkpt>
<trkpt lat="59.0925150" lon="30.0270490">
<ele>78.486000</ele>
<time>2026-04-25T22:58:34.997Z</time>
</trkpt>
<trkpt lat="59.0925160" lon="30.0272090">
<ele>77.480156</ele>
<time>2026-04-25T22:58:58.999Z</time>
</trkpt>
<trkpt lat="59.0924130" lon="30.0274360">
<ele>76.840080</ele>
<time>2026-04-25T22:59:58.001Z</time>
</trkpt>
<trkpt lat="59.0924500" lon="30.0275170">
<ele>78.150719</ele>
<time>2026-04-25T23:00:27.999Z</time>
</trkpt>
<trkpt lat="59.0924160" lon="30.0274750">
<ele>78.211685</ele>
<time>2026-04-25T23:01:00.002Z</time>
</trkpt>
<trkpt lat="59.0923940" lon="30.0275980">
<ele>77.510643</ele>
<time>2026-04-25T23:02:09.001Z</time>
</trkpt>
<trkpt lat="59.0924860" lon="30.0277000">
<ele>77.205841</ele>
<time>2026-04-25T23:02:37.003Z</time>
</trkpt>
<trkpt lat="59.0924680" lon="30.0280810">
<ele>75.681839</ele>
<time>2026-04-25T23:03:36.999Z</time>
</trkpt>
<trkpt lat="59.0925040" lon="30.0280680">
<ele>77.784958</ele>
<time>2026-04-25T23:03:54.996Z</time>
</trkpt>
<trkpt lat="59.0925080" lon="30.0282000">
<ele>78.150719</ele>
<time>2026-04-25T23:04:10.998Z</time>
</trkpt>
<trkpt lat="59.0925640" lon="30.0282680">
<ele>78.729836</ele>
<time>2026-04-25T23:04:25.997Z</time>
</trkpt>
<trkpt lat="59.0926240" lon="30.0282070">
<ele>81.046318</ele>
<time>2026-04-25T23:04:44.996Z</time>
</trkpt>
<trkpt lat="59.0925680" lon="30.0283870">
<ele>78.943199</ele>
<time>2026-04-25T23:05:18.001Z</time>
</trkpt>
<trkpt lat="59.0926010" lon="30.0283850">
<ele>77.937363</ele>
<time>2026-04-25T23:05:39.998Z</time>
</trkpt>
<trkpt lat="59.0925930" lon="30.0284360">
<ele>76.657204</ele>
<time>2026-04-25T23:06:17.004Z</time>
</trkpt>
<trkpt lat="59.0926420" lon="30.0285280">
<ele>78.729836</ele>
<time>2026-04-25T23:06:52.004Z</time>
</trkpt>
<trkpt lat="59.0925600" lon="30.0286690">
<ele>75.803757</ele>
<time>2026-04-25T23:07:19.004Z</time>
</trkpt>
<trkpt lat="59.0926130" lon="30.0289490">
<ele>75.681839</ele>
<time>2026-04-25T23:07:49.996Z</time>
</trkpt>
<trkpt lat="59.0925820" lon="30.0287830">
<ele>76.748642</ele>
<time>2026-04-25T23:08:54.001Z</time>
</trkpt>
<trkpt lat="59.0926150" lon="30.0288700">
<ele>82.082634</ele>
<time>2026-04-25T23:10:36.998Z</time>
</trkpt>
<trkpt lat="59.0926330" lon="30.0287740">
<ele>80.680565</ele>
<time>2026-04-25T23:10:57.000Z</time>
</trkpt>
<trkpt lat="59.0925840" lon="30.0290420">
<ele>79.400398</ele>
<time>2026-04-25T23:11:29.996Z</time>
</trkpt>
<trkpt lat="59.0925970" lon="30.0291620">
<ele>78.425034</ele>
<time>2026-04-25T23:11:45.004Z</time>
</trkpt>
<trkpt lat="59.0926610" lon="30.0292670">
<ele>76.169518</ele>
<time>2026-04-25T23:12:20.998Z</time>
</trkpt>
<trkpt lat="59.0926620" lon="30.0294380">
<ele>75.163681</ele>
<time>2026-04-25T23:12:36.999Z</time>
</trkpt>
<trkpt lat="59.0927360" lon="30.0295010">
<ele>75.285599</ele>
<time>2026-04-25T23:13:06.004Z</time>
</trkpt>
<trkpt lat="59.0927520" lon="30.0297840">
<ele>75.742798</ele>
<time>2026-04-25T23:13:40.002Z</time>
</trkpt>
<trkpt lat="59.0927840" lon="30.0298300">
<ele>75.986641</ele>
<time>2026-04-25T23:13:56.004Z</time>
</trkpt>
<trkpt lat="59.0927680" lon="30.0300650">
<ele>77.602081</ele>
<time>2026-04-25T23:14:15.003Z</time>
</trkpt>
<trkpt lat="59.0927320" lon="30.0301560">
<ele>77.266800</ele>
<time>2026-04-25T23:14:26.002Z</time>
</trkpt>
<trkpt lat="59.0928400" lon="30.0305940">
<ele>76.748642</ele>
<time>2026-04-25T23:15:41.999Z</time>
</trkpt>
<trkpt lat="59.0928640" lon="30.0305850">
<ele>77.114403</ele>
<time>2026-04-25T23:16:03.003Z</time>
</trkpt>
<trkpt lat="59.0928610" lon="30.0306440">
<ele>77.784958</ele>
<time>2026-04-25T23:16:30.996Z</time>
</trkpt>
<trkpt lat="59.0929400" lon="30.0306510">
<ele>81.198715</ele>
<time>2026-04-25T23:17:31.001Z</time>
</trkpt>
<trkpt lat="59.0927670" lon="30.0305880">
<ele>81.869286</ele>
<time>2026-04-25T23:18:17.001Z</time>
</trkpt>
<trkpt lat="59.0925700" lon="30.0307230">
<ele>80.497681</ele>
<time>2026-04-25T23:18:59.000Z</time>
</trkpt>
<trkpt lat="59.0926100" lon="30.0306320">
<ele>78.882233</ele>
<time>2026-04-25T23:19:43.997Z</time>
</trkpt>
<trkpt lat="59.0925490" lon="30.0306110">
<ele>77.266800</ele>
<time>2026-04-25T23:20:37.997Z</time>
</trkpt>
<trkpt lat="59.0925730" lon="30.0304610">
<ele>74.676003</ele>
<time>2026-04-25T23:21:16.998Z</time>
</trkpt>
<trkpt lat="59.0924630" lon="30.0303800">
<ele>72.298561</ele>
<time>2026-04-25T23:22:21.003Z</time>
</trkpt>
<trkpt lat="59.0924860" lon="30.0304870">
<ele>72.298561</ele>
<time>2026-04-25T23:23:11.003Z</time>
</trkpt>
<trkpt lat="59.0925340" lon="30.0304270">
<ele>72.389999</ele>
<time>2026-04-25T23:23:43.999Z</time>
</trkpt>
<trkpt lat="59.0925090" lon="30.0304120">
<ele>74.828400</ele>
<time>2026-04-25T23:24:17.997Z</time>
</trkpt>
<trkpt lat="59.0926030" lon="30.0301270">
<ele>76.017120</ele>
<time>2026-04-25T23:24:54.000Z</time>
</trkpt>
<trkpt lat="59.0925490" lon="30.0298720">
<ele>78.516479</ele>
<time>2026-04-25T23:25:33.001Z</time>
</trkpt>
<trkpt lat="59.0925910" lon="30.0296350">
<ele>76.535278</ele>
<time>2026-04-25T23:26:02.999Z</time>
</trkpt>
<trkpt lat="59.0924950" lon="30.0295620">
<ele>76.809601</ele>
<time>2026-04-25T23:26:32.997Z</time>
</trkpt>
<trkpt lat="59.0923890" lon="30.0295770">
<ele>76.931519</ele>
<time>2026-04-25T23:27:07.998Z</time>
</trkpt>
<trkpt lat="59.0923640" lon="30.0294530">
<ele>77.327759</ele>
<time>2026-04-25T23:27:21.001Z</time>
</trkpt>
<trkpt lat="59.0923820" lon="30.0289640">
<ele>71.658485</ele>
<time>2026-04-25T23:29:18.997Z</time>
</trkpt>
<trkpt lat="59.0923340" lon="30.0288300">
<ele>71.536560</ele>
<time>2026-04-25T23:29:45.997Z</time>
</trkpt>
<trkpt lat="59.0923090" lon="30.0288500">
<ele>72.633842</ele>
<time>2026-04-25T23:30:15.002Z</time>
</trkpt>
<trkpt lat="59.0923360" lon="30.0287900">
<ele>72.176643</ele>
<time>2026-04-25T23:31:13.002Z</time>
</trkpt>
<trkpt lat="59.0923480" lon="30.0288640">
<ele>72.511917</ele>
<time>2026-04-25T23:31:43.000Z</time>
</trkpt>
<trkpt lat="59.0922890" lon="30.0288720">
<ele>74.706482</ele>
<time>2026-04-25T23:32:08.998Z</time>
</trkpt>
<trkpt lat="59.0922860" lon="30.0287880">
<ele>77.419197</ele>
<time>2026-04-25T23:32:29.000Z</time>
</trkpt>
<trkpt lat="59.0923580" lon="30.0286950">
<ele>79.217522</ele>
<time>2026-04-25T23:33:25.998Z</time>
</trkpt>
<trkpt lat="59.0923170" lon="30.0286610">
<ele>79.369919</ele>
<time>2026-04-25T23:37:51.004Z</time>
</trkpt>
<trkpt lat="59.0924020" lon="30.0286520">
<ele>77.663040</ele>
<time>2026-04-25T23:40:10.998Z</time>
</trkpt>
<trkpt lat="59.0923510" lon="30.0283960">
<ele>75.559921</ele>
<time>2026-04-25T23:40:44.003Z</time>
</trkpt>
<trkpt lat="59.0923750" lon="30.0282690">
<ele>74.950317</ele>
<time>2026-04-25T23:41:42.003Z</time>
</trkpt>
<trkpt lat="59.0923300" lon="30.0281860">
<ele>75.803757</ele>
<time>2026-04-25T23:42:36.996Z</time>
</trkpt>
<trkpt lat="59.0923230" lon="30.0279060">
<ele>75.346558</ele>
<time>2026-04-25T23:43:22.002Z</time>
</trkpt>
<trkpt lat="59.0923000" lon="30.0278980">
<ele>75.102715</ele>
<time>2026-04-25T23:43:37.001Z</time>
</trkpt>
<trkpt lat="59.0922870" lon="30.0277420">
<ele>75.011284</ele>
<time>2026-04-25T23:44:40.998Z</time>
</trkpt>
<trkpt lat="59.0922000" lon="30.0274160">
<ele>73.334885</ele>
<time>2026-04-25T23:46:34.000Z</time>
</trkpt>
<trkpt lat="59.0920850" lon="30.0272320">
<ele>74.279762</ele>
<time>2026-04-25T23:47:22.998Z</time>
</trkpt>
<trkpt lat="59.0920640" lon="30.0268980">
<ele>75.529442</ele>
<time>2026-04-25T23:48:38.002Z</time>
</trkpt>
<trkpt lat="59.0920610" lon="30.0269820">
<ele>77.144882</ele>
<time>2026-04-25T23:49:10.004Z</time>
</trkpt>
<trkpt lat="59.0920130" lon="30.0270110">
<ele>77.175362</ele>
<time>2026-04-25T23:49:52.003Z</time>
</trkpt>
<trkpt lat="59.0919880" lon="30.0271280">
<ele>79.766167</ele>
<time>2026-04-25T23:50:34.002Z</time>
</trkpt>
<trkpt lat="59.0920170" lon="30.0271150">
<ele>80.253838</ele>
<time>2026-04-25T23:51:14.999Z</time>
</trkpt>
<trkpt lat="59.0919550" lon="30.0273720">
<ele>79.644234</ele>
<time>2026-04-25T23:51:55.002Z</time>
</trkpt>
<trkpt lat="59.0920130" lon="30.0275880">
<ele>78.333603</ele>
<time>2026-04-25T23:52:38.997Z</time>
</trkpt>
<trkpt lat="59.0920840" lon="30.0281680">
<ele>76.535278</ele>
<time>2026-04-25T23:54:06.002Z</time>
</trkpt>
<trkpt lat="59.0921620" lon="30.0284520">
<ele>75.681839</ele>
<time>2026-04-25T23:54:38.998Z</time>
</trkpt>
<trkpt lat="59.0921530" lon="30.0290720">
<ele>71.445122</ele>
<time>2026-04-25T23:58:33.997Z</time>
</trkpt>
<trkpt lat="59.0921710" lon="30.0289530">
<ele>72.329041</ele>
<time>2026-04-25T23:59:00.004Z</time>
</trkpt>
<trkpt lat="59.0921970" lon="30.0290720">
<ele>72.603355</ele>
<time>2026-04-25T23:59:43.999Z</time>
</trkpt>
<trkpt lat="59.0922910" lon="30.0292310">
<ele>71.384155</ele>
<time>2026-04-26T00:00:29.998Z</time>
</trkpt>
<trkpt lat="59.0923130" lon="30.0294960">
<ele>70.805038</ele>
<time>2026-04-26T00:01:19.004Z</time>
</trkpt>
<trkpt lat="59.0922760" lon="30.0294680">
<ele>72.389999</ele>
<time>2026-04-26T00:01:38.004Z</time>
</trkpt>
<trkpt lat="59.0922810" lon="30.0297570">
<ele>70.043037</ele>
<time>2026-04-26T00:03:03.997Z</time>
</trkpt>
<trkpt lat="59.0922380" lon="30.0298500">
<ele>70.134483</ele>
<time>2026-04-26T00:03:15.998Z</time>
</trkpt>
<trkpt lat="59.0922490" lon="30.0299170">
<ele>73.700638</ele>
<time>2026-04-26T00:03:26.997Z</time>
</trkpt>
<trkpt lat="59.0922080" lon="30.0298520">
<ele>73.974960</ele>
<time>2026-04-26T00:03:59.000Z</time>
</trkpt>
<trkpt lat="59.0922230" lon="30.0299140">
<ele>73.639679</ele>
<time>2026-04-26T00:04:24.004Z</time>
</trkpt>
<trkpt lat="59.0922420" lon="30.0298490">
<ele>72.938644</ele>
<time>2026-04-26T00:04:48.999Z</time>
</trkpt>
<trkpt lat="59.0922860" lon="30.0298960">
<ele>72.450958</ele>
<time>2026-04-26T00:05:11.999Z</time>
</trkpt>
<trkpt lat="59.0922050" lon="30.0298860">
<ele>68.945763</ele>
<time>2026-04-26T00:07:05.002Z</time>
</trkpt>
<trkpt lat="59.0922410" lon="30.0299830">
<ele>68.031357</ele>
<time>2026-04-26T00:07:18.998Z</time>
</trkpt>
<trkpt lat="59.0922590" lon="30.0299730">
<ele>67.818001</ele>
<time>2026-04-26T00:07:41.998Z</time>
</trkpt>
<trkpt lat="59.0921940" lon="30.0298950">
<ele>64.922401</ele>
<time>2026-04-26T00:09:10.999Z</time>
</trkpt>
<trkpt lat="59.0921630" lon="30.0303040">
<ele>64.678558</ele>
<time>2026-04-26T00:10:10.001Z</time>
</trkpt>
<trkpt lat="59.0921950" lon="30.0303870">
<ele>64.465202</ele>
<time>2026-04-26T00:10:25.000Z</time>
</trkpt>
<trkpt lat="59.0922580" lon="30.0304050">
<ele>63.855598</ele>
<time>2026-04-26T00:10:38.997Z</time>
</trkpt>
<trkpt lat="59.0922480" lon="30.0308780">
<ele>63.916557</ele>
<time>2026-04-26T00:11:17.998Z</time>
</trkpt>
<trkpt lat="59.0922440" lon="30.0307640">
<ele>62.971684</ele>
<time>2026-04-26T00:11:29.999Z</time>
</trkpt>
<trkpt lat="59.0922730" lon="30.0307540">
<ele>62.484001</ele>
<time>2026-04-26T00:12:03.004Z</time>
</trkpt>
<trkpt lat="59.0921810" lon="30.0309420">
<ele>67.635117</ele>
<time>2026-04-26T00:13:04.002Z</time>
</trkpt>
<trkpt lat="59.0920960" lon="30.0309680">
<ele>68.976242</ele>
<time>2026-04-26T00:13:17.999Z</time>
</trkpt>
<trkpt lat="59.0920650" lon="30.0308770">
<ele>77.937363</ele>
<time>2026-04-26T00:13:47.997Z</time>
</trkpt>
<trkpt lat="59.0919820" lon="30.0308800">
<ele>78.973679</ele>
<time>2026-04-26T00:14:30.998Z</time>
</trkpt>
<trkpt lat="59.0919770" lon="30.0308320">
<ele>79.156563</ele>
<time>2026-04-26T00:14:56.996Z</time>
</trkpt>
<trkpt lat="59.0921090" lon="30.0305760">
<ele>79.400398</ele>
<time>2026-04-26T00:15:23.996Z</time>
</trkpt>
<trkpt lat="59.0920100" lon="30.0301580">
<ele>80.192879</ele>
<time>2026-04-26T00:16:17.996Z</time>
</trkpt>
<trkpt lat="59.0919900" lon="30.0302490">
<ele>76.565758</ele>
<time>2026-04-26T00:17:15.003Z</time>
</trkpt>
<trkpt lat="59.0920060" lon="30.0298310">
<ele>78.973679</ele>
<time>2026-04-26T00:17:54.997Z</time>
</trkpt>
<trkpt lat="59.0919750" lon="30.0297990">
<ele>79.339439</ele>
<time>2026-04-26T00:18:13.003Z</time>
</trkpt>
<trkpt lat="59.0919360" lon="30.0294790">
<ele>79.461365</ele>
<time>2026-04-26T00:18:40.997Z</time>
</trkpt>
<trkpt lat="59.0919050" lon="30.0294140">
<ele>78.638397</ele>
<time>2026-04-26T00:19:03.003Z</time>
</trkpt>
<trkpt lat="59.0919380" lon="30.0292810">
<ele>79.705200</ele>
<time>2026-04-26T00:19:41.002Z</time>
</trkpt>
<trkpt lat="59.0919290" lon="30.0291310">
<ele>80.131920</ele>
<time>2026-04-26T00:20:13.998Z</time>
</trkpt>
<trkpt lat="59.0919090" lon="30.0291370">
<ele>79.796638</ele>
<time>2026-04-26T00:20:32.997Z</time>
</trkpt>
<trkpt lat="59.0919380" lon="30.0291940">
<ele>80.070961</ele>
<time>2026-04-26T00:20:43.996Z</time>
</trkpt>
<trkpt lat="59.0919600" lon="30.0291390">
<ele>78.912720</ele>
<time>2026-04-26T00:20:59.997Z</time>
</trkpt>
<trkpt lat="59.0919170" lon="30.0291920">
<ele>77.510643</ele>
<time>2026-04-26T00:21:21.001Z</time>
</trkpt>
<trkpt lat="59.0919360" lon="30.0290670">
<ele>78.821281</ele>
<time>2026-04-26T00:21:37.996Z</time>
</trkpt>
<trkpt lat="59.0918510" lon="30.0287920">
<ele>70.591682</ele>
<time>2026-04-26T00:22:16.997Z</time>
</trkpt>
<trkpt lat="59.0918510" lon="30.0286530">
<ele>71.170799</ele>
<time>2026-04-26T00:22:34.000Z</time>
</trkpt>
<trkpt lat="59.0919000" lon="30.0285570">
<ele>71.902321</ele>
<time>2026-04-26T00:22:59.998Z</time>
</trkpt>
<trkpt lat="59.0918650" lon="30.0285100">
<ele>73.182480</ele>
<time>2026-04-26T00:23:10.997Z</time>
</trkpt>
<trkpt lat="59.0918690" lon="30.0283760">
<ele>72.298561</ele>
<time>2026-04-26T00:23:42.999Z</time>
</trkpt>
<trkpt lat="59.0917670" lon="30.0281860">
<ele>73.548241</ele>
<time>2026-04-26T00:24:11.002Z</time>
</trkpt>
<trkpt lat="59.0917830" lon="30.0280650">
<ele>74.127357</ele>
<time>2026-04-26T00:24:26.001Z</time>
</trkpt>
<trkpt lat="59.0916760" lon="30.0279220">
<ele>74.615044</ele>
<time>2026-04-26T00:25:56.997Z</time>
</trkpt>
<trkpt lat="59.0917140" lon="30.0279730">
<ele>73.517761</ele>
<time>2026-04-26T00:26:23.004Z</time>
</trkpt>
<trkpt lat="59.0916870" lon="30.0279380">
<ele>73.212959</ele>
<time>2026-04-26T00:26:51.999Z</time>
</trkpt>
<trkpt lat="59.0917290" lon="30.0279430">
<ele>72.999603</ele>
<time>2026-04-26T00:27:43.001Z</time>
</trkpt>
<trkpt lat="59.0917370" lon="30.0278980">
<ele>75.438004</ele>
<time>2026-04-26T00:28:10.001Z</time>
</trkpt>
<trkpt lat="59.0917580" lon="30.0280250">
<ele>77.937363</ele>
<time>2026-04-26T00:28:52.000Z</time>
</trkpt>
<trkpt lat="59.0917200" lon="30.0279670">
<ele>74.066399</ele>
<time>2026-04-26T00:29:32.997Z</time>
</trkpt>
<trkpt lat="59.0918020" lon="30.0278970">
<ele>72.268082</ele>
<time>2026-04-26T00:30:11.998Z</time>
</trkpt>
<trkpt lat="59.0918410" lon="30.0277800">
<ele>73.914001</ele>
<time>2026-04-26T00:30:30.004Z</time>
</trkpt>
<trkpt lat="59.0917980" lon="30.0276320">
<ele>70.865997</ele>
<time>2026-04-26T00:30:41.996Z</time>
</trkpt>
<trkpt lat="59.0917240" lon="30.0276220">
<ele>68.671440</ele>
<time>2026-04-26T00:31:16.997Z</time>
</trkpt>
<trkpt lat="59.0917450" lon="30.0276130">
<ele>67.482719</ele>
<time>2026-04-26T00:31:31.996Z</time>
</trkpt>
<trkpt lat="59.0916340" lon="30.0274000">
<ele>66.385445</ele>
<time>2026-04-26T00:32:20.000Z</time>
</trkpt>
<trkpt lat="59.0916490" lon="30.0272240">
<ele>67.787521</ele>
<time>2026-04-26T00:32:45.997Z</time>
</trkpt>
<trkpt lat="59.0916130" lon="30.0271280">
<ele>68.092316</ele>
<time>2026-04-26T00:33:04.003Z</time>
</trkpt>
<trkpt lat="59.0915680" lon="30.0271130">
<ele>70.591682</ele>
<time>2026-04-26T00:33:16.998Z</time>
</trkpt>
<trkpt lat="59.0916110" lon="30.0270740">
<ele>69.342003</ele>
<time>2026-04-26T00:33:28.999Z</time>
</trkpt>
<trkpt lat="59.0915660" lon="30.0271540">
<ele>68.640961</ele>
<time>2026-04-26T00:34:53.999Z</time>
</trkpt>
<trkpt lat="59.0914910" lon="30.0271190">
<ele>67.574158</ele>
<time>2026-04-26T00:35:20.999Z</time>
</trkpt>
<trkpt lat="59.0914010" lon="30.0272730">
<ele>64.343285</ele>
<time>2026-04-26T00:36:02.998Z</time>
</trkpt>
<trkpt lat="59.0914130" lon="30.0272310">
<ele>64.434715</ele>
<time>2026-04-26T00:36:28.002Z</time>
</trkpt>
<trkpt lat="59.0913950" lon="30.0272220">
<ele>63.520317</ele>
<time>2026-04-26T00:36:39.001Z</time>
</trkpt>
<trkpt lat="59.0914420" lon="30.0272290">
<ele>62.544960</ele>
<time>2026-04-26T00:36:50.000Z</time>
</trkpt>
<trkpt lat="59.0914580" lon="30.0274000">
<ele>64.617599</ele>
<time>2026-04-26T00:37:03.996Z</time>
</trkpt>
<trkpt lat="59.0914360" lon="30.0275050">
<ele>65.288162</ele>
<time>2026-04-26T00:37:15.997Z</time>
</trkpt>
<trkpt lat="59.0913410" lon="30.0276170">
<ele>65.257683</ele>
<time>2026-04-26T00:37:46.998Z</time>
</trkpt>
<trkpt lat="59.0913980" lon="30.0277080">
<ele>64.983360</ele>
<time>2026-04-26T00:38:06.999Z</time>
</trkpt>
<trkpt lat="59.0914110" lon="30.0278760">
<ele>65.349121</ele>
<time>2026-04-26T00:38:21.998Z</time>
</trkpt>
<trkpt lat="59.0914710" lon="30.0278590">
<ele>60.868561</ele>
<time>2026-04-26T00:39:22.997Z</time>
</trkpt>
<trkpt lat="59.0915030" lon="30.0279690">
<ele>62.605919</ele>
<time>2026-04-26T00:40:17.999Z</time>
</trkpt>
<trkpt lat="59.0914660" lon="30.0278600">
<ele>62.484001</ele>
<time>2026-04-26T00:40:35.996Z</time>
</trkpt>
<trkpt lat="59.0915900" lon="30.0278800">
<ele>64.404243</ele>
<time>2026-04-26T00:41:18.997Z</time>
</trkpt>
<trkpt lat="59.0917190" lon="30.0280650">
<ele>64.495682</ele>
<time>2026-04-26T00:41:45.997Z</time>
</trkpt>
<trkpt lat="59.0917390" lon="30.0279200">
<ele>65.867279</ele>
<time>2026-04-26T00:41:59.001Z</time>
</trkpt>
<trkpt lat="59.0917580" lon="30.0279300">
<ele>65.989197</ele>
<time>2026-04-26T00:42:00.996Z</time>
</trkpt>
<trkpt lat="59.0914990" lon="30.0278920">
<ele>64.008003</ele>
<time>2026-04-26T00:42:31.003Z</time>
</trkpt>
<trkpt lat="59.0915160" lon="30.0280260">
<ele>67.665604</ele>
<time>2026-04-26T00:42:43.998Z</time>
</trkpt>
<trkpt lat="59.0914680" lon="30.0280730">
<ele>68.183762</ele>
<time>2026-04-26T00:42:57.001Z</time>
</trkpt>
<trkpt lat="59.0915270" lon="30.0283280">
<ele>67.878960</ele>
<time>2026-04-26T00:43:56.997Z</time>
</trkpt>
<trkpt lat="59.0915100" lon="30.0284920">
<ele>67.848480</ele>
<time>2026-04-26T00:44:22.001Z</time>
</trkpt>
<trkpt lat="59.0915530" lon="30.0286110">
<ele>68.214241</ele>
<time>2026-04-26T00:44:38.996Z</time>
</trkpt>
<trkpt lat="59.0915300" lon="30.0287640">
<ele>68.183762</ele>
<time>2026-04-26T00:45:13.003Z</time>
</trkpt>
<trkpt lat="59.0916490" lon="30.0291380">
<ele>66.324478</ele>
<time>2026-04-26T00:46:42.004Z</time>
</trkpt>
<trkpt lat="59.0916010" lon="30.0293200">
<ele>65.623444</ele>
<time>2026-04-26T00:47:21.998Z</time>
</trkpt>
<trkpt lat="59.0916170" lon="30.0293710">
<ele>68.214241</ele>
<time>2026-04-26T00:47:51.003Z</time>
</trkpt>
<trkpt lat="59.0915650" lon="30.0293300">
<ele>73.060562</ele>
<time>2026-04-26T00:48:34.004Z</time>
</trkpt>
<trkpt lat="59.0917440" lon="30.0297460">
<ele>71.627998</ele>
<time>2026-04-26T00:50:05.001Z</time>
</trkpt>
<trkpt lat="59.0918020" lon="30.0301270">
<ele>67.025520</ele>
<time>2026-04-26T00:51:08.997Z</time>
</trkpt>
<trkpt lat="59.0917830" lon="30.0304500">
<ele>66.446404</ele>
<time>2026-04-26T00:51:54.996Z</time>
</trkpt>
<trkpt lat="59.0918650" lon="30.0308050">
<ele>64.800484</ele>
<time>2026-04-26T00:52:28.001Z</time>
</trkpt>
<trkpt lat="59.0918120" lon="30.0310910">
<ele>65.592957</ele>
<time>2026-04-26T00:52:56.997Z</time>
</trkpt>
<trkpt lat="59.0918470" lon="30.0310700">
<ele>65.531998</ele>
<time>2026-04-26T00:53:22.001Z</time>
</trkpt>
<trkpt lat="59.0918150" lon="30.0310390">
<ele>67.330315</ele>
<time>2026-04-26T00:54:44.004Z</time>
</trkpt>
<trkpt lat="59.0917710" lon="30.0311290">
<ele>66.964561</ele>
<time>2026-04-26T00:55:07.003Z</time>
</trkpt>
<trkpt lat="59.0916150" lon="30.0311430">
<ele>66.080643</ele>
<time>2026-04-26T00:55:38.997Z</time>
</trkpt>
<trkpt lat="59.0915380" lon="30.0310910">
<ele>68.884804</ele>
<time>2026-04-26T00:57:36.000Z</time>
</trkpt>
<trkpt lat="59.0915470" lon="30.0309730">
<ele>69.189598</ele>
<time>2026-04-26T00:58:04.996Z</time>
</trkpt>
<trkpt lat="59.0914440" lon="30.0305310">
<ele>68.336159</ele>
<time>2026-04-26T00:59:09.001Z</time>
</trkpt>
<trkpt lat="59.0914970" lon="30.0302160">
<ele>64.769997</ele>
<time>2026-04-26T00:59:59.001Z</time>
</trkpt>
<trkpt lat="59.0914940" lon="30.0300710">
<ele>64.373756</ele>
<time>2026-04-26T01:00:11.002Z</time>
</trkpt>
<trkpt lat="59.0914600" lon="30.0299920">
<ele>62.788799</ele>
<time>2026-04-26T01:00:31.997Z</time>
</trkpt>
<trkpt lat="59.0914530" lon="30.0296860">
<ele>63.093601</ele>
<time>2026-04-26T01:01:26.999Z</time>
</trkpt>
<trkpt lat="59.0913910" lon="30.0293870">
<ele>64.830956</ele>
<time>2026-04-26T01:02:53.002Z</time>
</trkpt>
<trkpt lat="59.0914120" lon="30.0293550">
<ele>68.153282</ele>
<time>2026-04-26T01:03:48.004Z</time>
</trkpt>
<trkpt lat="59.0913920" lon="30.0293550">
<ele>68.793358</ele>
<time>2026-04-26T01:04:08.999Z</time>
</trkpt>
<trkpt lat="59.0913820" lon="30.0291090">
<ele>67.848480</ele>
<time>2026-04-26T01:04:39.999Z</time>
</trkpt>
<trkpt lat="59.0914240" lon="30.0289800">
<ele>66.050156</ele>
<time>2026-04-26T01:05:42.000Z</time>
</trkpt>
<trkpt lat="59.0913810" lon="30.0289050">
<ele>66.050156</ele>
<time>2026-04-26T01:05:59.004Z</time>
</trkpt>
<trkpt lat="59.0913940" lon="30.0288010">
<ele>64.556641</ele>
<time>2026-04-26T01:06:18.003Z</time>
</trkpt>
<trkpt lat="59.0913290" lon="30.0287880">
<ele>64.556641</ele>
<time>2026-04-26T01:06:56.002Z</time>
</trkpt>
<trkpt lat="59.0913610" lon="30.0286980">
<ele>64.769997</ele>
<time>2026-04-26T01:07:11.001Z</time>
</trkpt>
<trkpt lat="59.0913300" lon="30.0282450">
<ele>64.038483</ele>
<time>2026-04-26T01:08:02.003Z</time>
</trkpt>
<trkpt lat="59.0912890" lon="30.0282240">
<ele>65.410080</ele>
<time>2026-04-26T01:08:10.003Z</time>
</trkpt>
<trkpt lat="59.0912380" lon="30.0280460">
<ele>64.709038</ele>
<time>2026-04-26T01:08:37.003Z</time>
</trkpt>
<trkpt lat="59.0912470" lon="30.0279770">
<ele>63.550800</ele>
<time>2026-04-26T01:08:52.996Z</time>
</trkpt>
<trkpt lat="59.0911780" lon="30.0276680">
<ele>59.649361</ele>
<time>2026-04-26T01:09:34.001Z</time>
</trkpt>
<trkpt lat="59.0911470" lon="30.0276940">
<ele>60.137039</ele>
<time>2026-04-26T01:09:42.002Z</time>
</trkpt>
<trkpt lat="59.0911290" lon="30.0272600">
<ele>58.948318</ele>
<time>2026-04-26T01:10:26.999Z</time>
</trkpt>
<trkpt lat="59.0911320" lon="30.0273090">
<ele>58.734959</ele>
<time>2026-04-26T01:10:52.997Z</time>
</trkpt>
<trkpt lat="59.0911520" lon="30.0272210">
<ele>58.186317</ele>
<time>2026-04-26T01:11:34.996Z</time>
</trkpt>
<trkpt lat="59.0911970" lon="30.0272330">
<ele>56.906158</ele>
<time>2026-04-26T01:12:36.003Z</time>
</trkpt>
<trkpt lat="59.0911520" lon="30.0273280">
<ele>48.280319</ele>
<time>2026-04-26T01:14:36.004Z</time>
</trkpt>
<trkpt lat="59.0911590" lon="30.0272270">
<ele>55.107841</ele>
<time>2026-04-26T01:16:26.000Z</time>
</trkpt>
<trkpt lat="59.0911950" lon="30.0272320">
<ele>62.087761</ele>
<time>2026-04-26T01:17:06.003Z</time>
</trkpt>
<trkpt lat="59.0911370" lon="30.0272650">
<ele>58.582558</ele>
<time>2026-04-26T01:18:15.002Z</time>
</trkpt>
<trkpt lat="59.0911670" lon="30.0272390">
<ele>60.807598</ele>
<time>2026-04-26T01:18:55.999Z</time>
</trkpt>
<trkpt lat="59.0911740" lon="30.0271360">
<ele>61.020958</ele>
<time>2026-04-26T01:19:56.997Z</time>
</trkpt>
<trkpt lat="59.0911730" lon="30.0273270">
<ele>61.356239</ele>
<time>2026-04-26T01:20:18.001Z</time>
</trkpt>
<trkpt lat="59.0912150" lon="30.0273170">
<ele>64.526161</ele>
<time>2026-04-26T01:21:12.001Z</time>
</trkpt>
<trkpt lat="59.0911530" lon="30.0271490">
<ele>61.539120</ele>
<time>2026-04-26T01:22:54.998Z</time>
</trkpt>
<trkpt lat="59.0911810" lon="30.0272560">
<ele>61.935360</ele>
<time>2026-04-26T01:23:28.003Z</time>
</trkpt>
<trkpt lat="59.0911410" lon="30.0273280">
<ele>61.142883</ele>
<time>2026-04-26T01:23:51.003Z</time>
</trkpt>
<trkpt lat="59.0910300" lon="30.0274230">
<ele>63.367920</ele>
<time>2026-04-26T01:24:09.000Z</time>
</trkpt>
<trkpt lat="59.0908790" lon="30.0274130">
<ele>64.891914</ele>
<time>2026-04-26T01:24:37.002Z</time>
</trkpt>
<trkpt lat="59.0909060" lon="30.0275540">
<ele>66.080643</ele>
<time>2026-04-26T01:25:26.000Z</time>
</trkpt>
<trkpt lat="59.0908300" lon="30.0275960">
<ele>79.827118</ele>
<time>2026-04-26T01:27:54.996Z</time>
</trkpt>
<trkpt lat="59.0908310" lon="30.0277120">
<ele>78.607918</ele>
<time>2026-04-26T01:28:52.003Z</time>
</trkpt>
<trkpt lat="59.0908500" lon="30.0281250">
<ele>77.297279</ele>
<time>2026-04-26T01:29:45.001Z</time>
</trkpt>
<trkpt lat="59.0908960" lon="30.0282400">
<ele>75.712318</ele>
<time>2026-04-26T01:30:25.004Z</time>
</trkpt>
<trkpt lat="59.0909440" lon="30.0282210">
<ele>76.504799</ele>
<time>2026-04-26T01:30:40.003Z</time>
</trkpt>
<trkpt lat="59.0909790" lon="30.0283730">
<ele>76.748642</ele>
<time>2026-04-26T01:31:22.996Z</time>
</trkpt>
<trkpt lat="59.0910720" lon="30.0284920">
<ele>74.615044</ele>
<time>2026-04-26T01:31:52.000Z</time>
</trkpt>
<trkpt lat="59.0910630" lon="30.0286760">
<ele>72.755760</ele>
<time>2026-04-26T01:32:28.003Z</time>
</trkpt>
<trkpt lat="59.0910940" lon="30.0288420">
<ele>72.847198</ele>
<time>2026-04-26T01:32:50.001Z</time>
</trkpt>
<trkpt lat="59.0910430" lon="30.0291500">
<ele>73.121521</ele>
<time>2026-04-26T01:34:01.998Z</time>
</trkpt>
<trkpt lat="59.0910900" lon="30.0291900">
<ele>73.548241</ele>
<time>2026-04-26T01:34:47.997Z</time>
</trkpt>
<trkpt lat="59.0911050" lon="30.0293730">
<ele>74.584557</ele>
<time>2026-04-26T01:35:09.001Z</time>
</trkpt>
<trkpt lat="59.0910750" lon="30.0294720">
<ele>74.950317</ele>
<time>2026-04-26T01:35:25.002Z</time>
</trkpt>
<trkpt lat="59.0910920" lon="30.0296480">
<ele>74.797920</ele>
<time>2026-04-26T01:35:41.004Z</time>
</trkpt>
<trkpt lat="59.0910570" lon="30.0298620">
<ele>72.511917</ele>
<time>2026-04-26T01:36:08.004Z</time>
</trkpt>
<trkpt lat="59.0910950" lon="30.0301480">
<ele>71.384155</ele>
<time>2026-04-26T01:36:50.003Z</time>
</trkpt>
<trkpt lat="59.0910780" lon="30.0303170">
<ele>71.902321</ele>
<time>2026-04-26T01:37:17.003Z</time>
</trkpt>
<trkpt lat="59.0910490" lon="30.0303590">
<ele>72.207115</ele>
<time>2026-04-26T01:37:30.999Z</time>
</trkpt>
<trkpt lat="59.0910740" lon="30.0304950">
<ele>72.847198</ele>
<time>2026-04-26T01:37:45.998Z</time>
</trkpt>
<trkpt lat="59.0911720" lon="30.0306650">
<ele>73.304398</ele>
<time>2026-04-26T01:38:29.000Z</time>
</trkpt>
<trkpt lat="59.0911840" lon="30.0308650">
<ele>73.487282</ele>
<time>2026-04-26T01:38:42.996Z</time>
</trkpt>
<trkpt lat="59.0912330" lon="30.0309410">
<ele>73.974960</ele>
<time>2026-04-26T01:38:53.002Z</time>
</trkpt>
<trkpt lat="59.0912280" lon="30.0311260">
<ele>77.602081</ele>
<time>2026-04-26T01:39:32.003Z</time>
</trkpt>
<trkpt lat="59.0912720" lon="30.0313420">
<ele>76.626717</ele>
<time>2026-04-26T01:40:42.004Z</time>
</trkpt>
<trkpt lat="59.0913060" lon="30.0312840">
<ele>76.840080</ele>
<time>2026-04-26T01:41:05.997Z</time>
</trkpt>
<trkpt lat="59.0911390" lon="30.0313080">
<ele>76.687683</ele>
<time>2026-04-26T01:41:43.996Z</time>
</trkpt>
<trkpt lat="59.0909470" lon="30.0314520">
<ele>76.017120</ele>
<time>2026-04-26T01:42:22.997Z</time>
</trkpt>
<trkpt lat="59.0908960" lon="30.0314020">
<ele>74.310242</ele>
<time>2026-04-26T01:42:45.003Z</time>
</trkpt>
<trkpt lat="59.0909620" lon="30.0311050">
<ele>80.223366</ele>
<time>2026-04-26T01:44:09.001Z</time>
</trkpt>
<trkpt lat="59.0909920" lon="30.0307250">
<ele>81.533997</ele>
<time>2026-04-26T01:44:53.998Z</time>
</trkpt>
<trkpt lat="59.0909010" lon="30.0306040">
<ele>81.686401</ele>
<time>2026-04-26T01:45:36.999Z</time>
</trkpt>
<trkpt lat="59.0909300" lon="30.0305030">
<ele>80.101433</ele>
<time>2026-04-26T01:45:54.003Z</time>
</trkpt>
<trkpt lat="59.0909260" lon="30.0302100">
<ele>79.796638</ele>
<time>2026-04-26T01:46:59.002Z</time>
</trkpt>
<trkpt lat="59.0908810" lon="30.0300400">
<ele>80.680565</ele>
<time>2026-04-26T01:47:42.003Z</time>
</trkpt>
<trkpt lat="59.0909280" lon="30.0299880">
<ele>77.571602</ele>
<time>2026-04-26T01:48:01.996Z</time>
</trkpt>
<trkpt lat="59.0909250" lon="30.0298810">
<ele>80.070961</ele>
<time>2026-04-26T01:48:28.002Z</time>
</trkpt>
<trkpt lat="59.0908310" lon="30.0295570">
<ele>84.582001</ele>
<time>2026-04-26T01:49:41.002Z</time>
</trkpt>
<trkpt lat="59.0908780" lon="30.0294250">
<ele>88.452965</ele>
<time>2026-04-26T01:49:56.001Z</time>
</trkpt>
<trkpt lat="59.0909370" lon="30.0294220">
<ele>84.033363</ele>
<time>2026-04-26T01:50:56.999Z</time>
</trkpt>
<trkpt lat="59.0908530" lon="30.0292910">
<ele>81.899765</ele>
<time>2026-04-26T01:52:20.004Z</time>
</trkpt>
<trkpt lat="59.0908810" lon="30.0291310">
<ele>78.729836</ele>
<time>2026-04-26T01:52:36.998Z</time>
</trkpt>
<trkpt lat="59.0908190" lon="30.0289570">
<ele>81.686401</ele>
<time>2026-04-26T01:53:10.003Z</time>
</trkpt>
<trkpt lat="59.0908110" lon="30.0287950">
<ele>83.759033</ele>
<time>2026-04-26T01:53:28.000Z</time>
</trkpt>
<trkpt lat="59.0907150" lon="30.0286180">
<ele>87.142319</ele>
<time>2026-04-26T01:54:31.997Z</time>
</trkpt>
<trkpt lat="59.0907860" lon="30.0284050">
<ele>86.685120</ele>
<time>2026-04-26T01:55:10.004Z</time>
</trkpt>
<trkpt lat="59.0907020" lon="30.0281230">
<ele>80.772003</ele>
<time>2026-04-26T01:55:59.002Z</time>
</trkpt>
<trkpt lat="59.0907260" lon="30.0279710">
<ele>81.137764</ele>
<time>2026-04-26T01:56:19.003Z</time>
</trkpt>
<trkpt lat="59.0906860" lon="30.0277340">
<ele>82.387436</ele>
<time>2026-04-26T01:57:24.002Z</time>
</trkpt>
<trkpt lat="59.0907080" lon="30.0274280">
<ele>79.339439</ele>
<time>2026-04-26T01:58:06.001Z</time>
</trkpt>
<trkpt lat="59.0906630" lon="30.0274310">
<ele>78.028801</ele>
<time>2026-04-26T01:59:04.001Z</time>
</trkpt>
<trkpt lat="59.0905950" lon="30.0275620">
<ele>76.565758</ele>
<time>2026-04-26T01:59:46.000Z</time>
</trkpt>
<trkpt lat="59.0905110" lon="30.0275460">
<ele>76.687683</ele>
<time>2026-04-26T02:00:03.004Z</time>
</trkpt>
<trkpt lat="59.0904290" lon="30.0276730">
<ele>77.388718</ele>
<time>2026-04-26T02:00:29.002Z</time>
</trkpt>
<trkpt lat="59.0903970" lon="30.0277950">
<ele>78.028801</ele>
<time>2026-04-26T02:00:45.003Z</time>
</trkpt>
<trkpt lat="59.0903310" lon="30.0277970">
<ele>77.784958</ele>
<time>2026-04-26T02:01:01.998Z</time>
</trkpt>
<trkpt lat="59.0902930" lon="30.0278650">
<ele>75.102715</ele>
<time>2026-04-26T02:01:39.003Z</time>
</trkpt>
<trkpt lat="59.0903150" lon="30.0278700">
<ele>72.725281</ele>
<time>2026-04-26T02:02:09.001Z</time>
</trkpt>
<trkpt lat="59.0903310" lon="30.0280810">
<ele>69.646797</ele>
<time>2026-04-26T02:03:15.002Z</time>
</trkpt>
<trkpt lat="59.0903740" lon="30.0281710">
<ele>69.281044</ele>
<time>2026-04-26T02:03:31.003Z</time>
</trkpt>
<trkpt lat="59.0903200" lon="30.0284370">
<ele>72.633842</ele>
<time>2026-04-26T02:04:13.996Z</time>
</trkpt>
<trkpt lat="59.0904340" lon="30.0288220">
<ele>75.133202</ele>
<time>2026-04-26T02:05:34.002Z</time>
</trkpt>
<trkpt lat="59.0904300" lon="30.0290490">
<ele>76.169518</ele>
<time>2026-04-26T02:06:12.001Z</time>
</trkpt>
<trkpt lat="59.0903890" lon="30.0290930">
<ele>77.083916</ele>
<time>2026-04-26T02:06:37.999Z</time>
</trkpt>
<trkpt lat="59.0904990" lon="30.0299140">
<ele>79.796638</ele>
<time>2026-04-26T02:09:44.001Z</time>
</trkpt>
<trkpt lat="59.0904830" lon="30.0299420">
<ele>80.040482</ele>
<time>2026-04-26T02:10:15.001Z</time>
</trkpt>
<trkpt lat="59.0905370" lon="30.0301490">
<ele>79.065117</ele>
<time>2026-04-26T02:10:31.996Z</time>
</trkpt>
<trkpt lat="59.0905580" lon="30.0303190">
<ele>78.059280</ele>
<time>2026-04-26T02:10:47.997Z</time>
</trkpt>
<trkpt lat="59.0905360" lon="30.0304280">
<ele>77.083916</ele>
<time>2026-04-26T02:11:01.000Z</time>
</trkpt>
<trkpt lat="59.0905780" lon="30.0305260">
<ele>78.333603</ele>
<time>2026-04-26T02:11:25.002Z</time>
</trkpt>
<trkpt lat="59.0905340" lon="30.0308010">
<ele>76.017120</ele>
<time>2026-04-26T02:12:04.997Z</time>
</trkpt>
<trkpt lat="59.0905430" lon="30.0309840">
<ele>76.169518</ele>
<time>2026-04-26T02:12:20.998Z</time>
</trkpt>
<trkpt lat="59.0906510" lon="30.0313560">
<ele>76.931519</ele>
<time>2026-04-26T02:13:21.003Z</time>
</trkpt>
<trkpt lat="59.0906640" lon="30.0315990">
<ele>78.546967</ele>
<time>2026-04-26T02:13:59.002Z</time>
</trkpt>
<trkpt lat="59.0906160" lon="30.0314920">
<ele>80.314796</ele>
<time>2026-04-26T02:15:17.997Z</time>
</trkpt>
<trkpt lat="59.0905650" lon="30.0314980">
<ele>81.351120</ele>
<time>2026-04-26T02:15:29.998Z</time>
</trkpt>
<trkpt lat="59.0904750" lon="30.0315020">
<ele>80.985367</ele>
<time>2026-04-26T02:15:41.999Z</time>
</trkpt>
<trkpt lat="59.0903450" lon="30.0316830">
<ele>81.290161</ele>
<time>2026-04-26T02:16:11.997Z</time>
</trkpt>
<trkpt lat="59.0903010" lon="30.0316250">
<ele>83.027519</ele>
<time>2026-04-26T02:16:35.999Z</time>
</trkpt>
<trkpt lat="59.0903450" lon="30.0315950">
<ele>82.631279</ele>
<time>2026-04-26T02:17:28.997Z</time>
</trkpt>
<trkpt lat="59.0903620" lon="30.0314150">
<ele>61.112400</ele>
<time>2026-04-26T02:19:50.002Z</time>
</trkpt>
<trkpt lat="59.0903300" lon="30.0315950">
<ele>72.786240</ele>
<time>2026-04-26T02:20:10.003Z</time>
</trkpt>
<trkpt lat="59.0904070" lon="30.0315090">
<ele>76.565758</ele>
<time>2026-04-26T02:20:25.996Z</time>
</trkpt>
<trkpt lat="59.0903490" lon="30.0315190">
<ele>75.194160</ele>
<time>2026-04-26T02:20:41.004Z</time>
</trkpt>
<trkpt lat="59.0903760" lon="30.0314560">
<ele>73.152000</ele>
<time>2026-04-26T02:20:57.998Z</time>
</trkpt>
<trkpt lat="59.0903180" lon="30.0312450">
<ele>70.500244</ele>
<time>2026-04-26T02:21:26.001Z</time>
</trkpt>
<trkpt lat="59.0903260" lon="30.0309830">
<ele>71.658485</ele>
<time>2026-04-26T02:21:46.996Z</time>
</trkpt>
<trkpt lat="59.0902360" lon="30.0306760">
<ele>76.657204</ele>
<time>2026-04-26T02:22:13.002Z</time>
</trkpt>
<trkpt lat="59.0902230" lon="30.0305250">
<ele>77.906883</ele>
<time>2026-04-26T02:22:44.003Z</time>
</trkpt>
<trkpt lat="59.0902680" lon="30.0303700">
<ele>78.120239</ele>
<time>2026-04-26T02:23:03.002Z</time>
</trkpt>
<trkpt lat="59.0902450" lon="30.0301470">
<ele>77.632561</ele>
<time>2026-04-26T02:24:05.003Z</time>
</trkpt>
<trkpt lat="59.0901300" lon="30.0297310">
<ele>77.449684</ele>
<time>2026-04-26T02:25:37.001Z</time>
</trkpt>
<trkpt lat="59.0901150" lon="30.0297610">
<ele>78.699364</ele>
<time>2026-04-26T02:26:17.998Z</time>
</trkpt>
<trkpt lat="59.0900370" lon="30.0295600">
<ele>81.381599</ele>
<time>2026-04-26T02:26:58.001Z</time>
</trkpt>
<trkpt lat="59.0900500" lon="30.0294470">
<ele>81.046318</ele>
<time>2026-04-26T02:27:34.998Z</time>
</trkpt>
<trkpt lat="59.0900180" lon="30.0293390">
<ele>80.284317</ele>
<time>2026-04-26T02:27:45.003Z</time>
</trkpt>
<trkpt lat="59.0901520" lon="30.0290330">
<ele>78.699364</ele>
<time>2026-04-26T02:28:20.997Z</time>
</trkpt>
<trkpt lat="59.0901550" lon="30.0289110">
<ele>79.217522</ele>
<time>2026-04-26T02:28:32.998Z</time>
</trkpt>
<trkpt lat="59.0900710" lon="30.0285320">
<ele>76.961998</ele>
<time>2026-04-26T02:29:25.996Z</time>
</trkpt>
<trkpt lat="59.0899510" lon="30.0283520">
<ele>79.095596</ele>
<time>2026-04-26T02:29:56.003Z</time>
</trkpt>
<trkpt lat="59.0899670" lon="30.0281980">
<ele>77.663040</ele>
<time>2026-04-26T02:30:05.999Z</time>
</trkpt>
<trkpt lat="59.0899340" lon="30.0278190">
<ele>78.242165</ele>
<time>2026-04-26T02:31:49.999Z</time>
</trkpt>
<trkpt lat="59.0898440" lon="30.0279800">
<ele>81.381599</ele>
<time>2026-04-26T02:32:49.001Z</time>
</trkpt>
<trkpt lat="59.0897210" lon="30.0280770">
<ele>82.753197</ele>
<time>2026-04-26T02:33:31.000Z</time>
</trkpt>
<trkpt lat="59.0897440" lon="30.0281800">
<ele>82.661766</ele>
<time>2026-04-26T02:33:51.002Z</time>
</trkpt>
<trkpt lat="59.0897860" lon="30.0281420">
<ele>82.814163</ele>
<time>2026-04-26T02:34:15.997Z</time>
</trkpt>
<trkpt lat="59.0897500" lon="30.0280990">
<ele>79.979515</ele>
<time>2026-04-26T02:34:44.000Z</time>
</trkpt>
<trkpt lat="59.0895600" lon="30.0282550">
<ele>81.991203</ele>
<time>2026-04-26T02:35:12.002Z</time>
</trkpt>
<trkpt lat="59.0895290" lon="30.0283590">
<ele>80.893921</ele>
<time>2026-04-26T02:35:33.999Z</time>
</trkpt>
<trkpt lat="59.0896730" lon="30.0291240">
<ele>82.265518</ele>
<time>2026-04-26T02:36:38.998Z</time>
</trkpt>
<trkpt lat="59.0896020" lon="30.0292840">
<ele>82.844635</ele>
<time>2026-04-26T02:36:53.004Z</time>
</trkpt>
<trkpt lat="59.0895960" lon="30.0294300">
<ele>82.478882</ele>
<time>2026-04-26T02:37:05.998Z</time>
</trkpt>
<trkpt lat="59.0896470" lon="30.0295350">
<ele>83.606636</ele>
<time>2026-04-26T02:37:20.997Z</time>
</trkpt>
<trkpt lat="59.0895740" lon="30.0297850">
<ele>82.174080</ele>
<time>2026-04-26T02:37:58.996Z</time>
</trkpt>
<trkpt lat="59.0896270" lon="30.0298460">
<ele>81.838799</ele>
<time>2026-04-26T02:38:13.001Z</time>
</trkpt>
<trkpt lat="59.0896640" lon="30.0300590">
<ele>82.997040</ele>
<time>2026-04-26T02:38:29.003Z</time>
</trkpt>
<trkpt lat="59.0896360" lon="30.0301400">
<ele>83.576164</ele>
<time>2026-04-26T02:38:45.004Z</time>
</trkpt>
<trkpt lat="59.0896680" lon="30.0303020">
<ele>84.246719</ele>
<time>2026-04-26T02:39:04.997Z</time>
</trkpt>
<trkpt lat="59.0897670" lon="30.0304390">
<ele>86.593681</ele>
<time>2026-04-26T02:39:46.002Z</time>
</trkpt>
<trkpt lat="59.0897530" lon="30.0303920">
<ele>85.587837</ele>
<time>2026-04-26T02:40:14.998Z</time>
</trkpt>
<trkpt lat="59.0897190" lon="30.0305660">
<ele>83.271362</ele>
<time>2026-04-26T02:40:56.004Z</time>
</trkpt>
<trkpt lat="59.0897720" lon="30.0311800">
<ele>81.747360</ele>
<time>2026-04-26T02:42:21.997Z</time>
</trkpt>
<trkpt lat="59.0898400" lon="30.0313380">
<ele>81.838799</ele>
<time>2026-04-26T02:42:40.003Z</time>
</trkpt>
<trkpt lat="59.0899040" lon="30.0319560">
<ele>79.583282</ele>
<time>2026-04-26T02:43:49.996Z</time>
</trkpt>
<trkpt lat="59.0899390" lon="30.0319440">
<ele>79.217522</ele>
<time>2026-04-26T02:44:09.004Z</time>
</trkpt>
<trkpt lat="59.0898230" lon="30.0319560">
<ele>82.570320</ele>
<time>2026-04-26T02:45:56.002Z</time>
</trkpt>
<trkpt lat="59.0898300" lon="30.0320540">
<ele>83.606636</ele>
<time>2026-04-26T02:46:13.999Z</time>
</trkpt>
<trkpt lat="59.0898620" lon="30.0320100">
<ele>84.368637</ele>
<time>2026-04-26T02:46:35.003Z</time>
</trkpt>
<trkpt lat="59.0898180" lon="30.0319740">
<ele>84.216240</ele>
<time>2026-04-26T02:47:06.003Z</time>
</trkpt>
<trkpt lat="59.0899310" lon="30.0320440">
<ele>83.850479</ele>
<time>2026-04-26T02:48:24.998Z</time>
</trkpt>
<trkpt lat="59.0898620" lon="30.0320110">
<ele>85.831680</ele>
<time>2026-04-26T02:49:12.000Z</time>
</trkpt>
<trkpt lat="59.0899100" lon="30.0320060">
<ele>88.087196</ele>
<time>2026-04-26T02:49:47.001Z</time>
</trkpt>
<trkpt lat="59.0899380" lon="30.0319420">
<ele>89.916000</ele>
<time>2026-04-26T02:50:23.004Z</time>
</trkpt>
<trkpt lat="59.0899130" lon="30.0320400">
<ele>88.391998</ele>
<time>2026-04-26T02:51:01.002Z</time>
</trkpt>
<trkpt lat="59.0899560" lon="30.0319140">
<ele>88.331039</ele>
<time>2026-04-26T02:51:44.997Z</time>
</trkpt>
<trkpt lat="59.0899470" lon="30.0318480">
<ele>86.045036</ele>
<time>2026-04-26T02:51:58.000Z</time>
</trkpt>
<trkpt lat="59.0900790" lon="30.0319890">
<ele>82.204567</ele>
<time>2026-04-26T02:52:37.001Z</time>
</trkpt>
<trkpt lat="59.0901450" lon="30.0318870">
<ele>81.259682</ele>
<time>2026-04-26T02:52:49.996Z</time>
</trkpt>
<trkpt lat="59.0901980" lon="30.0319180">
<ele>80.680565</ele>
<time>2026-04-26T02:52:54.998Z</time>
</trkpt>
<trkpt lat="59.0904030" lon="30.0316790">
<ele>74.279762</ele>
<time>2026-04-26T02:53:51.996Z</time>
</trkpt>
<trkpt lat="59.0905260" lon="30.0316790">
<ele>76.230484</ele>
<time>2026-04-26T02:54:18.996Z</time>
</trkpt>
<trkpt lat="59.0907650" lon="30.0314420">
<ele>73.152000</ele>
<time>2026-04-26T02:54:52.001Z</time>
</trkpt>
<trkpt lat="59.0908590" lon="30.0314500">
<ele>73.639679</ele>
<time>2026-04-26T02:55:04.996Z</time>
</trkpt>
<trkpt lat="59.0908810" lon="30.0315610">
<ele>73.639679</ele>
<time>2026-04-26T02:55:20.004Z</time>
</trkpt>
<trkpt lat="59.0911160" lon="30.0313690">
<ele>71.780403</ele>
<time>2026-04-26T02:55:58.996Z</time>
</trkpt>
<trkpt lat="59.0912980" lon="30.0313780">
<ele>72.847198</ele>
<time>2026-04-26T02:56:33.003Z</time>
</trkpt>
<trkpt lat="59.0916340" lon="30.0312100">
<ele>73.121521</ele>
<time>2026-04-26T02:57:16.998Z</time>
</trkpt>
<trkpt lat="59.0919040" lon="30.0309720">
<ele>73.670158</ele>
<time>2026-04-26T02:57:58.997Z</time>
</trkpt>
<trkpt lat="59.0920540" lon="30.0310150">
<ele>75.498962</ele>
<time>2026-04-26T02:58:13.996Z</time>
</trkpt>
<trkpt lat="59.0923130" lon="30.0308690">
<ele>77.693520</ele>
<time>2026-04-26T02:59:04.998Z</time>
</trkpt>
<trkpt lat="59.0924120" lon="30.0308790">
<ele>78.242165</ele>
<time>2026-04-26T02:59:18.001Z</time>
</trkpt>
<trkpt lat="59.0925020" lon="30.0307870">
<ele>78.638397</ele>
<time>2026-04-26T02:59:33.000Z</time>
</trkpt>
<trkpt lat="59.0927920" lon="30.0306240">
<ele>80.985367</ele>
<time>2026-04-26T03:00:02.998Z</time>
</trkpt>
<trkpt lat="59.0929320" lon="30.0306400">
<ele>80.985367</ele>
<time>2026-04-26T03:00:25.998Z</time>
</trkpt>
<trkpt lat="59.0930080" lon="30.0305410">
<ele>78.912720</ele>
<time>2026-04-26T03:00:40.003Z</time>
</trkpt>
<trkpt lat="59.0929920" lon="30.0306560">
<ele>83.362801</ele>
<time>2026-04-26T03:00:59.996Z</time>
</trkpt>
<trkpt lat="59.0930600" lon="30.0307910">
<ele>87.904320</ele>
<time>2026-04-26T03:01:17.000Z</time>
</trkpt>
<trkpt lat="59.0931460" lon="30.0311630">
<ele>90.159836</ele>
<time>2026-04-26T03:01:49.002Z</time>
</trkpt>
<trkpt lat="59.0931930" lon="30.0315540">
<ele>91.897202</ele>
<time>2026-04-26T03:02:16.002Z</time>
</trkpt>
<trkpt lat="59.0931840" lon="30.0317560">
<ele>92.415367</ele>
<time>2026-04-26T03:02:29.999Z</time>
</trkpt>
<trkpt lat="59.0932320" lon="30.0320560">
<ele>94.579437</ele>
<time>2026-04-26T03:03:09.000Z</time>
</trkpt>
<trkpt lat="59.0931410" lon="30.0326890">
<ele>94.061279</ele>
<time>2026-04-26T03:03:36.000Z</time>
</trkpt>
<trkpt lat="59.0935000" lon="30.0326100">
<ele>91.775284</ele>
<time>2026-04-26T03:04:07.000Z</time>
</trkpt>
<trkpt lat="59.0937890" lon="30.0326970">
<ele>87.934799</ele>
<time>2026-04-26T03:04:32.998Z</time>
</trkpt>
<trkpt lat="59.0941240" lon="30.0324710">
<ele>86.776566</ele>
<time>2026-04-26T03:05:02.996Z</time>
</trkpt>
</trkseg>
</trk>
<trk>
 <name>20260426_Lisa97</name>
 <desc>20260426_Lisa97</desc>
<trkseg>
<trkpt lat="59.0987150" lon="30.0231870">
<ele>73.974960</ele>
<time>2026-04-25T22:52:55.004Z</time>
</trkpt>
<trkpt lat="59.0987740" lon="30.0236120">
<ele>72.450958</ele>
<time>2026-04-25T22:53:10.003Z</time>
</trkpt>
<trkpt lat="59.0987860" lon="30.0236620">
<ele>72.481438</ele>
<time>2026-04-25T22:53:17.002Z</time>
</trkpt>
<trkpt lat="59.0988830" lon="30.0241220">
<ele>74.279762</ele>
<time>2026-04-25T22:53:29.996Z</time>
</trkpt>
<trkpt lat="59.0989420" lon="30.0244950">
<ele>74.645515</ele>
<time>2026-04-25T22:53:40.001Z</time>
</trkpt>
<trkpt lat="59.0990300" lon="30.0248880">
<ele>74.523598</ele>
<time>2026-04-25T22:53:52.996Z</time>
</trkpt>
<trkpt lat="59.0990860" lon="30.0252680">
<ele>74.066399</ele>
<time>2026-04-25T22:54:04.003Z</time>
</trkpt>
<trkpt lat="59.0991740" lon="30.0256920">
<ele>72.603355</ele>
<time>2026-04-25T22:54:18.000Z</time>
</trkpt>
<trkpt lat="59.0991970" lon="30.0258830">
<ele>73.334885</ele>
<time>2026-04-25T22:54:27.003Z</time>
</trkpt>
<trkpt lat="59.0992470" lon="30.0262010">
<ele>73.395844</ele>
<time>2026-04-25T22:54:39.004Z</time>
</trkpt>
<trkpt lat="59.0992970" lon="30.0265750">
<ele>73.639679</ele>
<time>2026-04-25T22:54:53.001Z</time>
</trkpt>
<trkpt lat="59.0993660" lon="30.0269890">
<ele>72.816719</ele>
<time>2026-04-25T22:55:06.004Z</time>
</trkpt>
<trkpt lat="59.0994420" lon="30.0273780">
<ele>72.420479</ele>
<time>2026-04-25T22:55:17.003Z</time>
</trkpt>
<trkpt lat="59.0995390" lon="30.0279750">
<ele>72.450958</ele>
<time>2026-04-25T22:55:32.002Z</time>
</trkpt>
<trkpt lat="59.0995870" lon="30.0281790">
<ele>71.871841</ele>
<time>2026-04-25T22:55:44.996Z</time>
</trkpt>
<trkpt lat="59.0996450" lon="30.0285710">
<ele>72.603355</ele>
<time>2026-04-25T22:55:59.002Z</time>
</trkpt>
<trkpt lat="59.0996410" lon="30.0286140">
<ele>72.481438</ele>
<time>2026-04-25T22:56:00.004Z</time>
</trkpt>
<trkpt lat="59.0995970" lon="30.0286580">
<ele>72.755760</ele>
<time>2026-04-25T22:56:10.000Z</time>
</trkpt>
<trkpt lat="59.0996110" lon="30.0287100">
<ele>73.365356</ele>
<time>2026-04-25T22:56:27.997Z</time>
</trkpt>
<trkpt lat="59.0996220" lon="30.0286440">
<ele>72.603355</ele>
<time>2026-04-25T22:56:58.004Z</time>
</trkpt>
<trkpt lat="59.0996170" lon="30.0283710">
<ele>74.340721</ele>
<time>2026-04-25T22:57:12.001Z</time>
</trkpt>
<trkpt lat="59.0995840" lon="30.0281480">
<ele>72.359520</ele>
<time>2026-04-25T22:57:24.002Z</time>
</trkpt>
<trkpt lat="59.0995670" lon="30.0281500">
<ele>74.310242</ele>
<time>2026-04-25T22:57:50.000Z</time>
</trkpt>
<trkpt lat="59.0995950" lon="30.0281260">
<ele>73.822556</ele>
<time>2026-04-25T22:58:14.002Z</time>
</trkpt>
<trkpt lat="59.0995490" lon="30.0279880">
<ele>73.091042</ele>
<time>2026-04-25T22:58:49.996Z</time>
</trkpt>
<trkpt lat="59.0995360" lon="30.0278110">
<ele>73.578720</ele>
<time>2026-04-25T22:59:04.001Z</time>
</trkpt>
<trkpt lat="59.0995100" lon="30.0277020">
<ele>73.334885</ele>
<time>2026-04-25T22:59:16.002Z</time>
</trkpt>
<trkpt lat="59.0994530" lon="30.0275060">
<ele>73.700638</ele>
<time>2026-04-25T22:59:28.003Z</time>
</trkpt>
<trkpt lat="59.0994050" lon="30.0274010">
<ele>74.706482</ele>
<time>2026-04-25T22:59:40.004Z</time>
</trkpt>
<trkpt lat="59.0993990" lon="30.0274170">
<ele>74.218803</ele>
<time>2026-04-25T23:00:05.000Z</time>
</trkpt>
<trkpt lat="59.0994140" lon="30.0274200">
<ele>74.736961</ele>
<time>2026-04-25T23:00:38.998Z</time>
</trkpt>
<trkpt lat="59.0994230" lon="30.0274170">
<ele>75.956161</ele>
<time>2026-04-25T23:01:05.998Z</time>
</trkpt>
<trkpt lat="59.0994110" lon="30.0273990">
<ele>75.742798</ele>
<time>2026-04-25T23:01:27.002Z</time>
</trkpt>
<trkpt lat="59.0994060" lon="30.0274300">
<ele>75.712318</ele>
<time>2026-04-25T23:01:55.998Z</time>
</trkpt>
<trkpt lat="59.0994070" lon="30.0274370">
<ele>74.371201</ele>
<time>2026-04-25T23:02:45.004Z</time>
</trkpt>
<trkpt lat="59.0993960" lon="30.0274330">
<ele>73.273918</ele>
<time>2026-04-25T23:03:18.000Z</time>
</trkpt>
<trkpt lat="59.0993580" lon="30.0274560">
<ele>74.706482</ele>
<time>2026-04-25T23:03:51.998Z</time>
</trkpt>
<trkpt lat="59.0993280" lon="30.0273890">
<ele>73.609200</ele>
<time>2026-04-25T23:04:14.998Z</time>
</trkpt>
<trkpt lat="59.0993150" lon="30.0274230">
<ele>74.432159</ele>
<time>2026-04-25T23:04:40.002Z</time>
</trkpt>
<trkpt lat="59.0993140" lon="30.0273990">
<ele>74.706482</ele>
<time>2026-04-25T23:05:16.999Z</time>
</trkpt>
<trkpt lat="59.0992940" lon="30.0272980">
<ele>73.792084</ele>
<time>2026-04-25T23:05:49.001Z</time>
</trkpt>
<trkpt lat="59.0992650" lon="30.0273570">
<ele>70.652641</ele>
<time>2026-04-25T23:06:21.997Z</time>
</trkpt>
<trkpt lat="59.0991980" lon="30.0274240">
<ele>72.664322</ele>
<time>2026-04-25T23:06:44.004Z</time>
</trkpt>
<trkpt lat="59.0991410" lon="30.0274250">
<ele>74.005440</ele>
<time>2026-04-25T23:07:08.999Z</time>
</trkpt>
<trkpt lat="59.0990880" lon="30.0274610">
<ele>74.676003</ele>
<time>2026-04-25T23:07:26.996Z</time>
</trkpt>
<trkpt lat="59.0990970" lon="30.0274380">
<ele>75.011284</ele>
<time>2026-04-25T23:07:48.000Z</time>
</trkpt>
<trkpt lat="59.0990830" lon="30.0275180">
<ele>74.432159</ele>
<time>2026-04-25T23:08:09.004Z</time>
</trkpt>
<trkpt lat="59.0990790" lon="30.0274990">
<ele>75.041756</ele>
<time>2026-04-25T23:08:38.000Z</time>
</trkpt>
<trkpt lat="59.0990120" lon="30.0275010">
<ele>75.559921</ele>
<time>2026-04-25T23:08:58.001Z</time>
</trkpt>
<trkpt lat="59.0990010" lon="30.0275650">
<ele>77.906883</ele>
<time>2026-04-25T23:09:23.999Z</time>
</trkpt>
<trkpt lat="59.0990010" lon="30.0275580">
<ele>77.114403</ele>
<time>2026-04-25T23:09:30.004Z</time>
</trkpt>
<trkpt lat="59.0990110" lon="30.0275210">
<ele>76.017120</ele>
<time>2026-04-25T23:09:45.003Z</time>
</trkpt>
<trkpt lat="59.0990050" lon="30.0275250">
<ele>75.742798</ele>
<time>2026-04-25T23:09:54.999Z</time>
</trkpt>
<trkpt lat="59.0989220" lon="30.0276280">
<ele>77.693520</ele>
<time>2026-04-25T23:10:23.002Z</time>
</trkpt>
<trkpt lat="59.0988680" lon="30.0276560">
<ele>77.602081</ele>
<time>2026-04-25T23:10:32.998Z</time>
</trkpt>
<trkpt lat="59.0987460" lon="30.0277240">
<ele>77.784958</ele>
<time>2026-04-25T23:10:58.002Z</time>
</trkpt>
<trkpt lat="59.0987130" lon="30.0278140">
<ele>77.266800</ele>
<time>2026-04-25T23:11:06.996Z</time>
</trkpt>
<trkpt lat="59.0986720" lon="30.0278720">
<ele>76.840080</ele>
<time>2026-04-25T23:11:32.001Z</time>
</trkpt>
<trkpt lat="59.0986430" lon="30.0277700">
<ele>78.851761</ele>
<time>2026-04-25T23:11:45.997Z</time>
</trkpt>
<trkpt lat="59.0986340" lon="30.0276700">
<ele>77.754478</ele>
<time>2026-04-25T23:12:07.001Z</time>
</trkpt>
<trkpt lat="59.0985770" lon="30.0276630">
<ele>76.718163</ele>
<time>2026-04-25T23:12:23.003Z</time>
</trkpt>
<trkpt lat="59.0985540" lon="30.0276520">
<ele>76.047600</ele>
<time>2026-04-25T23:12:35.997Z</time>
</trkpt>
<trkpt lat="59.0985340" lon="30.0276420">
<ele>76.474319</ele>
<time>2026-04-25T23:12:47.998Z</time>
</trkpt>
<trkpt lat="59.0985520" lon="30.0276510">
<ele>74.676003</ele>
<time>2026-04-25T23:13:29.004Z</time>
</trkpt>
<trkpt lat="59.0985350" lon="30.0276350">
<ele>74.218803</ele>
<time>2026-04-25T23:14:04.998Z</time>
</trkpt>
<trkpt lat="59.0985490" lon="30.0277230">
<ele>74.279762</ele>
<time>2026-04-25T23:14:45.001Z</time>
</trkpt>
<trkpt lat="59.0985550" lon="30.0277530">
<ele>76.718163</ele>
<time>2026-04-25T23:15:13.997Z</time>
</trkpt>
<trkpt lat="59.0985250" lon="30.0277780">
<ele>77.602081</ele>
<time>2026-04-25T23:15:56.998Z</time>
</trkpt>
<trkpt lat="59.0985060" lon="30.0276840">
<ele>77.632561</ele>
<time>2026-04-25T23:16:39.999Z</time>
</trkpt>
<trkpt lat="59.0984850" lon="30.0277230">
<ele>77.998322</ele>
<time>2026-04-25T23:17:01.997Z</time>
</trkpt>
<trkpt lat="59.0983740" lon="30.0278010">
<ele>75.895203</ele>
<time>2026-04-25T23:17:20.003Z</time>
</trkpt>
<trkpt lat="59.0983610" lon="30.0277460">
<ele>79.126083</ele>
<time>2026-04-25T23:17:39.002Z</time>
</trkpt>
<trkpt lat="59.0982650" lon="30.0277840">
<ele>78.364082</ele>
<time>2026-04-25T23:17:56.999Z</time>
</trkpt>
<trkpt lat="59.0982100" lon="30.0277730">
<ele>77.266800</ele>
<time>2026-04-25T23:18:14.996Z</time>
</trkpt>
<trkpt lat="59.0981920" lon="30.0278280">
<ele>77.632561</ele>
<time>2026-04-25T23:18:38.998Z</time>
</trkpt>
<trkpt lat="59.0981150" lon="30.0278960">
<ele>79.308960</ele>
<time>2026-04-25T23:18:53.997Z</time>
</trkpt>
<trkpt lat="59.0980630" lon="30.0280310">
<ele>79.248001</ele>
<time>2026-04-25T23:19:05.998Z</time>
</trkpt>
<trkpt lat="59.0980490" lon="30.0280320">
<ele>79.461365</ele>
<time>2026-04-25T23:19:27.002Z</time>
</trkpt>
<trkpt lat="59.0979840" lon="30.0281390">
<ele>79.613762</ele>
<time>2026-04-25T23:19:42.001Z</time>
</trkpt>
<trkpt lat="59.0978690" lon="30.0282220">
<ele>79.888084</ele>
<time>2026-04-25T23:20:13.001Z</time>
</trkpt>
<trkpt lat="59.0977750" lon="30.0282810">
<ele>80.772003</ele>
<time>2026-04-25T23:20:45.004Z</time>
</trkpt>
<trkpt lat="59.0977410" lon="30.0282780">
<ele>80.223366</ele>
<time>2026-04-25T23:21:11.002Z</time>
</trkpt>
<trkpt lat="59.0976530" lon="30.0282070">
<ele>79.278481</ele>
<time>2026-04-25T23:21:27.003Z</time>
</trkpt>
<trkpt lat="59.0975440" lon="30.0280830">
<ele>78.516479</ele>
<time>2026-04-25T23:21:41.000Z</time>
</trkpt>
<trkpt lat="59.0975270" lon="30.0280090">
<ele>79.095596</ele>
<time>2026-04-25T23:21:57.001Z</time>
</trkpt>
<trkpt lat="59.0975420" lon="30.0280720">
<ele>79.187035</ele>
<time>2026-04-25T23:22:18.998Z</time>
</trkpt>
<trkpt lat="59.0975120" lon="30.0281300">
<ele>79.430885</ele>
<time>2026-04-25T23:22:52.003Z</time>
</trkpt>
<trkpt lat="59.0975110" lon="30.0281360">
<ele>79.126083</ele>
<time>2026-04-25T23:23:35.998Z</time>
</trkpt>
<trkpt lat="59.0975000" lon="30.0280770">
<ele>79.644234</ele>
<time>2026-04-25T23:23:51.999Z</time>
</trkpt>
<trkpt lat="59.0974860" lon="30.0280580">
<ele>79.004166</ele>
<time>2026-04-25T23:24:29.998Z</time>
</trkpt>
<trkpt lat="59.0973650" lon="30.0281040">
<ele>78.333603</ele>
<time>2026-04-25T23:24:45.999Z</time>
</trkpt>
<trkpt lat="59.0972800" lon="30.0281080">
<ele>77.480156</ele>
<time>2026-04-25T23:25:00.998Z</time>
</trkpt>
<trkpt lat="59.0972400" lon="30.0281250">
<ele>78.028801</ele>
<time>2026-04-25T23:25:11.997Z</time>
</trkpt>
<trkpt lat="59.0971880" lon="30.0281370">
<ele>77.663040</ele>
<time>2026-04-25T23:25:38.997Z</time>
</trkpt>
<trkpt lat="59.0971260" lon="30.0282770">
<ele>78.272636</ele>
<time>2026-04-25T23:26:00.001Z</time>
</trkpt>
<trkpt lat="59.0970460" lon="30.0283510">
<ele>79.065117</ele>
<time>2026-04-25T23:26:24.996Z</time>
</trkpt>
<trkpt lat="59.0969170" lon="30.0285000">
<ele>79.552803</ele>
<time>2026-04-25T23:26:39.002Z</time>
</trkpt>
<trkpt lat="59.0968690" lon="30.0285280">
<ele>78.546967</ele>
<time>2026-04-25T23:27:02.002Z</time>
</trkpt>
<trkpt lat="59.0968050" lon="30.0285960">
<ele>78.394562</ele>
<time>2026-04-25T23:27:18.996Z</time>
</trkpt>
<trkpt lat="59.0968350" lon="30.0287590">
<ele>79.126083</ele>
<time>2026-04-25T23:27:46.999Z</time>
</trkpt>
<trkpt lat="59.0967550" lon="30.0287980">
<ele>78.364082</ele>
<time>2026-04-25T23:28:07.000Z</time>
</trkpt>
<trkpt lat="59.0966570" lon="30.0288070">
<ele>78.181198</ele>
<time>2026-04-25T23:28:35.003Z</time>
</trkpt>
<trkpt lat="59.0966280" lon="30.0289020">
<ele>77.022957</ele>
<time>2026-04-25T23:28:51.997Z</time>
</trkpt>
<trkpt lat="59.0966370" lon="30.0287480">
<ele>76.901039</ele>
<time>2026-04-25T23:29:18.004Z</time>
</trkpt>
<trkpt lat="59.0966580" lon="30.0288150">
<ele>77.571602</ele>
<time>2026-04-25T23:29:55.000Z</time>
</trkpt>
<trkpt lat="59.0966490" lon="30.0288280">
<ele>78.242165</ele>
<time>2026-04-25T23:30:19.002Z</time>
</trkpt>
<trkpt lat="59.0966430" lon="30.0289190">
<ele>78.028801</ele>
<time>2026-04-25T23:30:55.999Z</time>
</trkpt>
<trkpt lat="59.0966640" lon="30.0289860">
<ele>75.986641</ele>
<time>2026-04-25T23:31:09.002Z</time>
</trkpt>
<trkpt lat="59.0966560" lon="30.0290170">
<ele>74.980797</ele>
<time>2026-04-25T23:31:30.999Z</time>
</trkpt>
<trkpt lat="59.0966530" lon="30.0290220">
<ele>74.645515</ele>
<time>2026-04-25T23:32:00.997Z</time>
</trkpt>
<trkpt lat="59.0966800" lon="30.0289130">
<ele>74.218803</ele>
<time>2026-04-25T23:32:43.999Z</time>
</trkpt>
<trkpt lat="59.0966630" lon="30.0289070">
<ele>76.657204</ele>
<time>2026-04-25T23:33:23.000Z</time>
</trkpt>
<trkpt lat="59.0966240" lon="30.0289580">
<ele>76.139038</ele>
<time>2026-04-25T23:34:07.003Z</time>
</trkpt>
<trkpt lat="59.0966740" lon="30.0289730">
<ele>73.578720</ele>
<time>2026-04-25T23:34:49.002Z</time>
</trkpt>
<trkpt lat="59.0966510" lon="30.0289270">
<ele>70.591682</ele>
<time>2026-04-25T23:35:32.004Z</time>
</trkpt>
<trkpt lat="59.0966450" lon="30.0289310">
<ele>72.694801</ele>
<time>2026-04-25T23:35:55.997Z</time>
</trkpt>
<trkpt lat="59.0966510" lon="30.0289190">
<ele>73.060562</ele>
<time>2026-04-25T23:36:42.998Z</time>
</trkpt>
<trkpt lat="59.0966440" lon="30.0289650">
<ele>73.548241</ele>
<time>2026-04-25T23:37:17.999Z</time>
</trkpt>
<trkpt lat="59.0966420" lon="30.0289660">
<ele>74.096878</ele>
<time>2026-04-25T23:37:58.996Z</time>
</trkpt>
<trkpt lat="59.0966380" lon="30.0289560">
<ele>74.676003</ele>
<time>2026-04-25T23:39:09.999Z</time>
</trkpt>
<trkpt lat="59.0966340" lon="30.0289370">
<ele>75.559921</ele>
<time>2026-04-25T23:39:28.999Z</time>
</trkpt>
<trkpt lat="59.0966430" lon="30.0288460">
<ele>75.651360</ele>
<time>2026-04-25T23:39:57.001Z</time>
</trkpt>
<trkpt lat="59.0964160" lon="30.0289010">
<ele>75.620880</ele>
<time>2026-04-25T23:40:33.004Z</time>
</trkpt>
<trkpt lat="59.0963460" lon="30.0289670">
<ele>76.687683</ele>
<time>2026-04-25T23:40:49.999Z</time>
</trkpt>
<trkpt lat="59.0962520" lon="30.0290900">
<ele>74.797920</ele>
<time>2026-04-25T23:41:07.002Z</time>
</trkpt>
<trkpt lat="59.0962080" lon="30.0290240">
<ele>75.041756</ele>
<time>2026-04-25T23:41:24.999Z</time>
</trkpt>
<trkpt lat="59.0961220" lon="30.0291050">
<ele>74.889359</ele>
<time>2026-04-25T23:41:41.001Z</time>
</trkpt>
<trkpt lat="59.0960340" lon="30.0291050">
<ele>75.986641</ele>
<time>2026-04-25T23:41:56.000Z</time>
</trkpt>
<trkpt lat="59.0959850" lon="30.0290860">
<ele>77.205841</ele>
<time>2026-04-25T23:42:08.001Z</time>
</trkpt>
<trkpt lat="59.0959440" lon="30.0291260">
<ele>76.017120</ele>
<time>2026-04-25T23:42:36.003Z</time>
</trkpt>
<trkpt lat="59.0958370" lon="30.0292210">
<ele>76.443840</ele>
<time>2026-04-25T23:43:00.998Z</time>
</trkpt>
<trkpt lat="59.0956830" lon="30.0293050">
<ele>76.718163</ele>
<time>2026-04-25T23:43:22.002Z</time>
</trkpt>
<trkpt lat="59.0956210" lon="30.0293800">
<ele>75.041756</ele>
<time>2026-04-25T23:43:49.996Z</time>
</trkpt>
<trkpt lat="59.0956150" lon="30.0293820">
<ele>76.382881</ele>
<time>2026-04-25T23:44:24.996Z</time>
</trkpt>
<trkpt lat="59.0955960" lon="30.0293690">
<ele>76.260956</ele>
<time>2026-04-25T23:44:59.997Z</time>
</trkpt>
<trkpt lat="59.0955920" lon="30.0293520">
<ele>77.815437</ele>
<time>2026-04-25T23:45:42.998Z</time>
</trkpt>
<trkpt lat="59.0955530" lon="30.0294000">
<ele>77.358238</ele>
<time>2026-04-25T23:46:04.996Z</time>
</trkpt>
<trkpt lat="59.0954090" lon="30.0294370">
<ele>78.089767</ele>
<time>2026-04-25T23:46:43.997Z</time>
</trkpt>
<trkpt lat="59.0951650" lon="30.0296350">
<ele>78.790802</ele>
<time>2026-04-25T23:47:02.996Z</time>
</trkpt>
<trkpt lat="59.0950210" lon="30.0296320">
<ele>78.486000</ele>
<time>2026-04-25T23:47:22.998Z</time>
</trkpt>
<trkpt lat="59.0949620" lon="30.0296730">
<ele>78.668884</ele>
<time>2026-04-25T23:47:34.999Z</time>
</trkpt>
<trkpt lat="59.0948880" lon="30.0297180">
<ele>78.729836</ele>
<time>2026-04-25T23:47:52.002Z</time>
</trkpt>
<trkpt lat="59.0948060" lon="30.0297410">
<ele>80.192879</ele>
<time>2026-04-25T23:48:08.004Z</time>
</trkpt>
<trkpt lat="59.0948050" lon="30.0297730">
<ele>81.808319</ele>
<time>2026-04-25T23:48:24.998Z</time>
</trkpt>
<trkpt lat="59.0948580" lon="30.0296740">
<ele>82.448402</ele>
<time>2026-04-25T23:48:39.997Z</time>
</trkpt>
<trkpt lat="59.0947670" lon="30.0297710">
<ele>80.162399</ele>
<time>2026-04-25T23:49:02.997Z</time>
</trkpt>
<trkpt lat="59.0947030" lon="30.0297580">
<ele>80.192879</ele>
<time>2026-04-25T23:49:14.998Z</time>
</trkpt>
<trkpt lat="59.0946290" lon="30.0298420">
<ele>79.857597</ele>
<time>2026-04-25T23:49:37.998Z</time>
</trkpt>
<trkpt lat="59.0944940" lon="30.0298850">
<ele>79.217522</ele>
<time>2026-04-25T23:50:08.998Z</time>
</trkpt>
<trkpt lat="59.0944750" lon="30.0299080">
<ele>80.162399</ele>
<time>2026-04-25T23:50:31.998Z</time>
</trkpt>
<trkpt lat="59.0944640" lon="30.0298890">
<ele>80.893921</ele>
<time>2026-04-25T23:51:04.000Z</time>
</trkpt>
<trkpt lat="59.0944730" lon="30.0299340">
<ele>80.893921</ele>
<time>2026-04-25T23:51:43.001Z</time>
</trkpt>
<trkpt lat="59.0944680" lon="30.0299000">
<ele>81.747360</ele>
<time>2026-04-25T23:52:11.004Z</time>
</trkpt>
<trkpt lat="59.0944780" lon="30.0298810">
<ele>80.314796</ele>
<time>2026-04-25T23:52:54.998Z</time>
</trkpt>
<trkpt lat="59.0944640" lon="30.0298760">
<ele>88.361519</ele>
<time>2026-04-25T23:53:28.997Z</time>
</trkpt>
<trkpt lat="59.0944080" lon="30.0298770">
<ele>87.629997</ele>
<time>2026-04-25T23:53:48.998Z</time>
</trkpt>
<trkpt lat="59.0943090" lon="30.0299350">
<ele>85.862167</ele>
<time>2026-04-25T23:54:02.002Z</time>
</trkpt>
<trkpt lat="59.0942220" lon="30.0299690">
<ele>85.313515</ele>
<time>2026-04-25T23:54:22.003Z</time>
</trkpt>
<trkpt lat="59.0941590" lon="30.0300250">
<ele>84.460083</ele>
<time>2026-04-25T23:54:41.996Z</time>
</trkpt>
<trkpt lat="59.0940960" lon="30.0300880">
<ele>83.637115</ele>
<time>2026-04-25T23:54:53.997Z</time>
</trkpt>
<trkpt lat="59.0940000" lon="30.0300850">
<ele>82.082634</ele>
<time>2026-04-25T23:55:12.996Z</time>
</trkpt>
<trkpt lat="59.0938870" lon="30.0301350">
<ele>83.149437</ele>
<time>2026-04-25T23:55:35.003Z</time>
</trkpt>
<trkpt lat="59.0937630" lon="30.0301560">
<ele>82.235039</ele>
<time>2026-04-25T23:55:54.002Z</time>
</trkpt>
<trkpt lat="59.0937040" lon="30.0302100">
<ele>82.600800</ele>
<time>2026-04-25T23:56:09.001Z</time>
</trkpt>
<trkpt lat="59.0936060" lon="30.0302440">
<ele>82.052162</ele>
<time>2026-04-25T23:56:26.998Z</time>
</trkpt>
<trkpt lat="59.0935950" lon="30.0302380">
<ele>81.076797</ele>
<time>2026-04-25T23:57:05.999Z</time>
</trkpt>
<trkpt lat="59.0935860" lon="30.0302570">
<ele>80.070961</ele>
<time>2026-04-25T23:57:36.999Z</time>
</trkpt>
<trkpt lat="59.0935620" lon="30.0302590">
<ele>78.455521</ele>
<time>2026-04-25T23:58:18.998Z</time>
</trkpt>
<trkpt lat="59.0935160" lon="30.0303590">
<ele>77.815437</ele>
<time>2026-04-25T23:58:36.002Z</time>
</trkpt>
<trkpt lat="59.0934840" lon="30.0303420">
<ele>76.596237</ele>
<time>2026-04-25T23:58:48.996Z</time>
</trkpt>
<trkpt lat="59.0933680" lon="30.0304160">
<ele>76.260956</ele>
<time>2026-04-25T23:59:11.003Z</time>
</trkpt>
<trkpt lat="59.0932620" lon="30.0304400">
<ele>75.925682</ele>
<time>2026-04-25T23:59:29.000Z</time>
</trkpt>
<trkpt lat="59.0931250" lon="30.0304880">
<ele>75.925682</ele>
<time>2026-04-26T00:00:05.996Z</time>
</trkpt>
<trkpt lat="59.0930510" lon="30.0304530">
<ele>78.516479</ele>
<time>2026-04-26T00:00:28.996Z</time>
</trkpt>
<trkpt lat="59.0930350" lon="30.0304990">
<ele>77.144882</ele>
<time>2026-04-26T00:00:51.002Z</time>
</trkpt>
<trkpt lat="59.0930180" lon="30.0305740">
<ele>78.912720</ele>
<time>2026-04-26T00:01:39.999Z</time>
</trkpt>
<trkpt lat="59.0930240" lon="30.0305110">
<ele>78.516479</ele>
<time>2026-04-26T00:02:25.999Z</time>
</trkpt>
<trkpt lat="59.0929620" lon="30.0304810">
<ele>79.430885</ele>
<time>2026-04-26T00:02:50.001Z</time>
</trkpt>
<trkpt lat="59.0928950" lon="30.0306160">
<ele>79.126083</ele>
<time>2026-04-26T00:03:09.000Z</time>
</trkpt>
<trkpt lat="59.0928550" lon="30.0306880">
<ele>80.467201</ele>
<time>2026-04-26T00:03:26.997Z</time>
</trkpt>
<trkpt lat="59.0928310" lon="30.0307030">
<ele>80.070961</ele>
<time>2026-04-26T00:04:17.999Z</time>
</trkpt>
<trkpt lat="59.0928410" lon="30.0306600">
<ele>80.010002</ele>
<time>2026-04-26T00:04:43.003Z</time>
</trkpt>
<trkpt lat="59.0928380" lon="30.0306560">
<ele>79.644234</ele>
<time>2026-04-26T00:05:24.000Z</time>
</trkpt>
<trkpt lat="59.0928500" lon="30.0306310">
<ele>78.699364</ele>
<time>2026-04-26T00:06:04.003Z</time>
</trkpt>
<trkpt lat="59.0928700" lon="30.0307120">
<ele>80.650085</ele>
<time>2026-04-26T00:06:39.997Z</time>
</trkpt>
<trkpt lat="59.0928630" lon="30.0307340">
<ele>81.046318</ele>
<time>2026-04-26T00:07:21.003Z</time>
</trkpt>
<trkpt lat="59.0928340" lon="30.0307410">
<ele>80.528160</ele>
<time>2026-04-26T00:07:56.997Z</time>
</trkpt>
<trkpt lat="59.0928520" lon="30.0307110">
<ele>80.528160</ele>
<time>2026-04-26T00:08:58.998Z</time>
</trkpt>
<trkpt lat="59.0928480" lon="30.0307000">
<ele>80.954880</ele>
<time>2026-04-26T00:09:36.003Z</time>
</trkpt>
<trkpt lat="59.0929230" lon="30.0304320">
<ele>81.107285</ele>
<time>2026-04-26T00:09:59.003Z</time>
</trkpt>
<trkpt lat="59.0929600" lon="30.0302360">
<ele>81.412079</ele>
<time>2026-04-26T00:10:14.002Z</time>
</trkpt>
<trkpt lat="59.0930100" lon="30.0301370">
<ele>81.137764</ele>
<time>2026-04-26T00:10:30.003Z</time>
</trkpt>
<trkpt lat="59.0931260" lon="30.0300580">
<ele>80.863434</ele>
<time>2026-04-26T00:10:52.000Z</time>
</trkpt>
<trkpt lat="59.0932120" lon="30.0299380">
<ele>81.046318</ele>
<time>2026-04-26T00:11:13.998Z</time>
</trkpt>
<trkpt lat="59.0932410" lon="30.0299180">
<ele>81.046318</ele>
<time>2026-04-26T00:11:33.999Z</time>
</trkpt>
<trkpt lat="59.0932180" lon="30.0300270">
<ele>79.065117</ele>
<time>2026-04-26T00:12:07.004Z</time>
</trkpt>
<trkpt lat="59.0932350" lon="30.0299910">
<ele>77.297279</ele>
<time>2026-04-26T00:12:40.000Z</time>
</trkpt>
<trkpt lat="59.0932270" lon="30.0299300">
<ele>76.748642</ele>
<time>2026-04-26T00:13:04.996Z</time>
</trkpt>
<trkpt lat="59.0932420" lon="30.0299990">
<ele>76.078079</ele>
<time>2026-04-26T00:13:47.004Z</time>
</trkpt>
<trkpt lat="59.0932330" lon="30.0300840">
<ele>75.773285</ele>
<time>2026-04-26T00:14:14.004Z</time>
</trkpt>
<trkpt lat="59.0932310" lon="30.0300540">
<ele>76.931519</ele>
<time>2026-04-26T00:14:44.002Z</time>
</trkpt>
<trkpt lat="59.0932380" lon="30.0300060">
<ele>77.236320</ele>
<time>2026-04-26T00:15:12.004Z</time>
</trkpt>
<trkpt lat="59.0933090" lon="30.0299020">
<ele>77.388718</ele>
<time>2026-04-26T00:15:26.001Z</time>
</trkpt>
<trkpt lat="59.0934220" lon="30.0298380">
<ele>77.205841</ele>
<time>2026-04-26T00:15:43.998Z</time>
</trkpt>
<trkpt lat="59.0934870" lon="30.0298290">
<ele>76.870560</ele>
<time>2026-04-26T00:16:06.997Z</time>
</trkpt>
<trkpt lat="59.0935620" lon="30.0297430">
<ele>76.535278</ele>
<time>2026-04-26T00:16:21.003Z</time>
</trkpt>
<trkpt lat="59.0936650" lon="30.0296930">
<ele>76.108559</ele>
<time>2026-04-26T00:16:37.004Z</time>
</trkpt>
<trkpt lat="59.0937220" lon="30.0296670">
<ele>74.950317</ele>
<time>2026-04-26T00:16:52.997Z</time>
</trkpt>
<trkpt lat="59.0937210" lon="30.0296460">
<ele>75.620880</ele>
<time>2026-04-26T00:17:12.998Z</time>
</trkpt>
<trkpt lat="59.0938050" lon="30.0295760">
<ele>75.529442</ele>
<time>2026-04-26T00:17:27.004Z</time>
</trkpt>
<trkpt lat="59.0938910" lon="30.0296250">
<ele>75.041756</ele>
<time>2026-04-26T00:17:41.001Z</time>
</trkpt>
<trkpt lat="59.0939410" lon="30.0296520">
<ele>75.620880</ele>
<time>2026-04-26T00:17:54.004Z</time>
</trkpt>
<trkpt lat="59.0940260" lon="30.0296450">
<ele>75.346558</ele>
<time>2026-04-26T00:18:17.004Z</time>
</trkpt>
<trkpt lat="59.0941390" lon="30.0296950">
<ele>76.230484</ele>
<time>2026-04-26T00:18:31.000Z</time>
</trkpt>
<trkpt lat="59.0941380" lon="30.0297340">
<ele>76.047600</ele>
<time>2026-04-26T00:18:54.000Z</time>
</trkpt>
<trkpt lat="59.0941170" lon="30.0296910">
<ele>75.316078</ele>
<time>2026-04-26T00:19:19.004Z</time>
</trkpt>
<trkpt lat="59.0940590" lon="30.0295550">
<ele>74.615044</ele>
<time>2026-04-26T00:19:38.004Z</time>
</trkpt>
<trkpt lat="59.0940910" lon="30.0295780">
<ele>69.707756</ele>
<time>2026-04-26T00:20:08.002Z</time>
</trkpt>
<trkpt lat="59.0941500" lon="30.0297360">
<ele>70.774559</ele>
<time>2026-04-26T00:20:24.003Z</time>
</trkpt>
<trkpt lat="59.0941860" lon="30.0297500">
<ele>72.024239</ele>
<time>2026-04-26T00:20:59.997Z</time>
</trkpt>
<trkpt lat="59.0941850" lon="30.0296680">
<ele>72.725281</ele>
<time>2026-04-26T00:21:33.002Z</time>
</trkpt>
<trkpt lat="59.0941750" lon="30.0297250">
<ele>72.725281</ele>
<time>2026-04-26T00:22:00.002Z</time>
</trkpt>
<trkpt lat="59.0941330" lon="30.0296250">
<ele>72.664322</ele>
<time>2026-04-26T00:22:27.002Z</time>
</trkpt>
<trkpt lat="59.0941090" lon="30.0295930">
<ele>70.683121</ele>
<time>2026-04-26T00:23:11.999Z</time>
</trkpt>
<trkpt lat="59.0941060" lon="30.0296640">
<ele>71.048882</ele>
<time>2026-04-26T00:23:33.996Z</time>
</trkpt>
<trkpt lat="59.0941340" lon="30.0296310">
<ele>70.317360</ele>
<time>2026-04-26T00:24:00.996Z</time>
</trkpt>
<trkpt lat="59.0940990" lon="30.0296340">
<ele>67.696083</ele>
<time>2026-04-26T00:24:23.003Z</time>
</trkpt>
<trkpt lat="59.0940910" lon="30.0295990">
<ele>66.507362</ele>
<time>2026-04-26T00:25:01.001Z</time>
</trkpt>
<trkpt lat="59.0941660" lon="30.0295190">
<ele>70.835518</ele>
<time>2026-04-26T00:25:37.004Z</time>
</trkpt>
<trkpt lat="59.0941470" lon="30.0295500">
<ele>72.511917</ele>
<time>2026-04-26T00:26:38.003Z</time>
</trkpt>
<trkpt lat="59.0941640" lon="30.0295860">
<ele>71.445122</ele>
<time>2026-04-26T00:27:17.004Z</time>
</trkpt>
<trkpt lat="59.0941430" lon="30.0295420">
<ele>73.853043</ele>
<time>2026-04-26T00:27:44.004Z</time>
</trkpt>
<trkpt lat="59.0941350" lon="30.0295460">
<ele>71.353683</ele>
<time>2026-04-26T00:28:22.996Z</time>
</trkpt>
<trkpt lat="59.0941350" lon="30.0295920">
<ele>72.633842</ele>
<time>2026-04-26T00:28:49.996Z</time>
</trkpt>
<trkpt lat="59.0941240" lon="30.0296080">
<ele>70.774559</ele>
<time>2026-04-26T00:29:36.004Z</time>
</trkpt>
<trkpt lat="59.0941650" lon="30.0295370">
<ele>69.159119</ele>
<time>2026-04-26T00:30:00.999Z</time>
</trkpt>
<trkpt lat="59.0942560" lon="30.0295990">
<ele>69.768715</ele>
<time>2026-04-26T00:30:11.998Z</time>
</trkpt>
<trkpt lat="59.0943160" lon="30.0295690">
<ele>69.555359</ele>
<time>2026-04-26T00:30:26.004Z</time>
</trkpt>
<trkpt lat="59.0943690" lon="30.0295900">
<ele>70.012558</ele>
<time>2026-04-26T00:30:41.996Z</time>
</trkpt>
<trkpt lat="59.0944820" lon="30.0294590">
<ele>69.494400</ele>
<time>2026-04-26T00:30:59.000Z</time>
</trkpt>
<trkpt lat="59.0945420" lon="30.0294390">
<ele>69.890640</ele>
<time>2026-04-26T00:31:16.003Z</time>
</trkpt>
<trkpt lat="59.0946390" lon="30.0293220">
<ele>67.757042</ele>
<time>2026-04-26T00:31:32.998Z</time>
</trkpt>
<trkpt lat="59.0947720" lon="30.0292490">
<ele>66.720718</ele>
<time>2026-04-26T00:31:48.999Z</time>
</trkpt>
<trkpt lat="59.0948690" lon="30.0292110">
<ele>66.263519</ele>
<time>2026-04-26T00:32:13.001Z</time>
</trkpt>
<trkpt lat="59.0949200" lon="30.0291680">
<ele>66.476883</ele>
<time>2026-04-26T00:32:28.000Z</time>
</trkpt>
<trkpt lat="59.0949660" lon="30.0290220">
<ele>66.476883</ele>
<time>2026-04-26T00:32:45.997Z</time>
</trkpt>
<trkpt lat="59.0949810" lon="30.0290430">
<ele>67.360802</ele>
<time>2026-04-26T00:33:23.996Z</time>
</trkpt>
<trkpt lat="59.0950350" lon="30.0289780">
<ele>67.604637</ele>
<time>2026-04-26T00:33:42.002Z</time>
</trkpt>
<trkpt lat="59.0950320" lon="30.0289250">
<ele>67.970398</ele>
<time>2026-04-26T00:33:59.999Z</time>
</trkpt>
<trkpt lat="59.0951000" lon="30.0291650">
<ele>67.909439</ele>
<time>2026-04-26T00:34:18.998Z</time>
</trkpt>
<trkpt lat="59.0951770" lon="30.0292150">
<ele>67.177917</ele>
<time>2026-04-26T00:34:29.004Z</time>
</trkpt>
<trkpt lat="59.0952110" lon="30.0292190">
<ele>67.878960</ele>
<time>2026-04-26T00:34:45.998Z</time>
</trkpt>
<trkpt lat="59.0952160" lon="30.0291850">
<ele>69.768715</ele>
<time>2026-04-26T00:35:04.998Z</time>
</trkpt>
<trkpt lat="59.0951820" lon="30.0291660">
<ele>69.890640</ele>
<time>2026-04-26T00:35:30.002Z</time>
</trkpt>
<trkpt lat="59.0952210" lon="30.0292770">
<ele>68.945763</ele>
<time>2026-04-26T00:36:37.999Z</time>
</trkpt>
<trkpt lat="59.0952290" lon="30.0292830">
<ele>69.189598</ele>
<time>2026-04-26T00:37:06.001Z</time>
</trkpt>
<trkpt lat="59.0952780" lon="30.0291400">
<ele>68.488556</ele>
<time>2026-04-26T00:37:23.998Z</time>
</trkpt>
<trkpt lat="59.0952990" lon="30.0291250">
<ele>67.787521</ele>
<time>2026-04-26T00:37:45.002Z</time>
</trkpt>
<trkpt lat="59.0953130" lon="30.0289730">
<ele>66.751198</ele>
<time>2026-04-26T00:38:13.998Z</time>
</trkpt>
<trkpt lat="59.0953970" lon="30.0289440">
<ele>66.293999</ele>
<time>2026-04-26T00:38:32.997Z</time>
</trkpt>
<trkpt lat="59.0953930" lon="30.0289440">
<ele>67.269356</ele>
<time>2026-04-26T00:38:55.003Z</time>
</trkpt>
<trkpt lat="59.0954390" lon="30.0288220">
<ele>67.147438</ele>
<time>2026-04-26T00:39:15.998Z</time>
</trkpt>
<trkpt lat="59.0954480" lon="30.0288180">
<ele>66.751198</ele>
<time>2026-04-26T00:39:45.003Z</time>
</trkpt>
<trkpt lat="59.0955070" lon="30.0287160">
<ele>66.354958</ele>
<time>2026-04-26T00:40:01.998Z</time>
</trkpt>
<trkpt lat="59.0955940" lon="30.0286930">
<ele>65.257683</ele>
<time>2026-04-26T00:40:23.002Z</time>
</trkpt>
<trkpt lat="59.0956410" lon="30.0285940">
<ele>65.440559</ele>
<time>2026-04-26T00:40:39.996Z</time>
</trkpt>
<trkpt lat="59.0956800" lon="30.0285740">
<ele>65.653915</ele>
<time>2026-04-26T00:40:58.002Z</time>
</trkpt>
<trkpt lat="59.0957020" lon="30.0285230">
<ele>66.050156</ele>
<time>2026-04-26T00:41:10.003Z</time>
</trkpt>
<trkpt lat="59.0957660" lon="30.0285820">
<ele>66.293999</ele>
<time>2026-04-26T00:41:20.000Z</time>
</trkpt>
<trkpt lat="59.0958140" lon="30.0286490">
<ele>66.598801</ele>
<time>2026-04-26T00:41:41.004Z</time>
</trkpt>
<trkpt lat="59.0958750" lon="30.0286130">
<ele>67.025520</ele>
<time>2026-04-26T00:42:00.996Z</time>
</trkpt>
<trkpt lat="59.0958950" lon="30.0286410">
<ele>65.928238</ele>
<time>2026-04-26T00:42:31.997Z</time>
</trkpt>
<trkpt lat="59.0959180" lon="30.0286550">
<ele>65.349121</ele>
<time>2026-04-26T00:42:58.003Z</time>
</trkpt>
<trkpt lat="59.0959150" lon="30.0286500">
<ele>62.788799</ele>
<time>2026-04-26T00:43:44.996Z</time>
</trkpt>
<trkpt lat="59.0959050" lon="30.0286480">
<ele>64.526161</ele>
<time>2026-04-26T00:44:07.996Z</time>
</trkpt>
<trkpt lat="59.0959130" lon="30.0286480">
<ele>65.623444</ele>
<time>2026-04-26T00:44:34.996Z</time>
</trkpt>
<trkpt lat="59.0959080" lon="30.0286410">
<ele>65.897758</ele>
<time>2026-04-26T00:45:05.996Z</time>
</trkpt>
<trkpt lat="59.0958870" lon="30.0286150">
<ele>64.739517</ele>
<time>2026-04-26T00:45:50.000Z</time>
</trkpt>
<trkpt lat="59.0958590" lon="30.0285980">
<ele>65.471039</ele>
<time>2026-04-26T00:46:46.998Z</time>
</trkpt>
<trkpt lat="59.0959400" lon="30.0287090">
<ele>66.324478</ele>
<time>2026-04-26T00:47:29.999Z</time>
</trkpt>
<trkpt lat="59.0959470" lon="30.0287160">
<ele>67.421761</ele>
<time>2026-04-26T00:48:02.002Z</time>
</trkpt>
<trkpt lat="59.0959530" lon="30.0288130">
<ele>66.903603</ele>
<time>2026-04-26T00:48:27.999Z</time>
</trkpt>
<trkpt lat="59.0959910" lon="30.0287480">
<ele>66.202560</ele>
<time>2026-04-26T00:48:45.003Z</time>
</trkpt>
<trkpt lat="59.0960570" lon="30.0286870">
<ele>66.050156</ele>
<time>2026-04-26T00:49:20.004Z</time>
</trkpt>
<trkpt lat="59.0961430" lon="30.0286870">
<ele>65.806320</ele>
<time>2026-04-26T00:49:35.003Z</time>
</trkpt>
<trkpt lat="59.0961830" lon="30.0286940">
<ele>66.111115</ele>
<time>2026-04-26T00:49:50.002Z</time>
</trkpt>
<trkpt lat="59.0962120" lon="30.0286910">
<ele>64.678558</ele>
<time>2026-04-26T00:50:06.996Z</time>
</trkpt>
<trkpt lat="59.0962560" lon="30.0286830">
<ele>68.031357</ele>
<time>2026-04-26T00:50:22.004Z</time>
</trkpt>
<trkpt lat="59.0962760" lon="30.0286830">
<ele>68.519043</ele>
<time>2026-04-26T00:50:47.000Z</time>
</trkpt>
<trkpt lat="59.0966640" lon="30.0284050">
<ele>120.213120</ele>
<time>2026-04-26T00:54:55.002Z</time>
</trkpt>
<trkpt lat="59.0966450" lon="30.0284870">
<ele>145.206711</ele>
<time>2026-04-26T00:55:11.004Z</time>
</trkpt>
<trkpt lat="59.0966480" lon="30.0284870">
<ele>144.810486</ele>
<time>2026-04-26T00:55:11.997Z</time>
</trkpt>
<trkpt lat="59.0966650" lon="30.0284990">
<ele>138.043915</ele>
<time>2026-04-26T00:55:19.004Z</time>
</trkpt>
<trkpt lat="59.0966860" lon="30.0285140">
<ele>142.372086</ele>
<time>2026-04-26T00:55:31.999Z</time>
</trkpt>
<trkpt lat="59.0966540" lon="30.0285180">
<ele>131.765030</ele>
<time>2026-04-26T00:55:46.004Z</time>
</trkpt>
<trkpt lat="59.0965810" lon="30.0283260">
<ele>88.239601</ele>
<time>2026-04-26T00:56:09.997Z</time>
</trkpt>
<trkpt lat="59.0965770" lon="30.0283210">
<ele>79.766167</ele>
<time>2026-04-26T00:56:33.999Z</time>
</trkpt>
<trkpt lat="59.0965610" lon="30.0283310">
<ele>74.127357</ele>
<time>2026-04-26T00:57:02.002Z</time>
</trkpt>
<trkpt lat="59.0965660" lon="30.0283290">
<ele>76.596237</ele>
<time>2026-04-26T00:57:23.999Z</time>
</trkpt>
<trkpt lat="59.0965890" lon="30.0283530">
<ele>78.333603</ele>
<time>2026-04-26T00:57:50.999Z</time>
</trkpt>
<trkpt lat="59.0966330" lon="30.0282940">
<ele>75.895203</ele>
<time>2026-04-26T00:58:04.002Z</time>
</trkpt>
<trkpt lat="59.0966840" lon="30.0282790">
<ele>73.914001</ele>
<time>2026-04-26T00:58:17.999Z</time>
</trkpt>
<trkpt lat="59.0967020" lon="30.0282640">
<ele>69.921120</ele>
<time>2026-04-26T00:58:39.996Z</time>
</trkpt>
<trkpt lat="59.0967470" lon="30.0282500">
<ele>66.629280</ele>
<time>2026-04-26T00:58:54.002Z</time>
</trkpt>
<trkpt lat="59.0967720" lon="30.0284050">
<ele>66.476883</ele>
<time>2026-04-26T00:59:10.003Z</time>
</trkpt>
<trkpt lat="59.0967820" lon="30.0285080">
<ele>67.635117</ele>
<time>2026-04-26T00:59:24.000Z</time>
</trkpt>
<trkpt lat="59.0967690" lon="30.0283510">
<ele>68.915283</ele>
<time>2026-04-26T00:59:37.003Z</time>
</trkpt>
<trkpt lat="59.0967870" lon="30.0283530">
<ele>69.524879</ele>
<time>2026-04-26T00:59:56.003Z</time>
</trkpt>
<trkpt lat="59.0968460" lon="30.0284220">
<ele>72.146156</ele>
<time>2026-04-26T01:00:11.002Z</time>
</trkpt>
<trkpt lat="59.0969320" lon="30.0284310">
<ele>69.189598</ele>
<time>2026-04-26T01:00:23.996Z</time>
</trkpt>
<trkpt lat="59.0969260" lon="30.0283750">
<ele>65.684402</ele>
<time>2026-04-26T01:00:41.000Z</time>
</trkpt>
<trkpt lat="59.0969820" lon="30.0283320">
<ele>66.812157</ele>
<time>2026-04-26T01:01:03.999Z</time>
</trkpt>
<trkpt lat="59.0970260" lon="30.0282870">
<ele>64.800484</ele>
<time>2026-04-26T01:01:13.996Z</time>
</trkpt>
<trkpt lat="59.0970690" lon="30.0282030">
<ele>64.099442</ele>
<time>2026-04-26T01:01:25.997Z</time>
</trkpt>
<trkpt lat="59.0971450" lon="30.0281320">
<ele>68.366638</ele>
<time>2026-04-26T01:01:40.996Z</time>
</trkpt>
<trkpt lat="59.0971860" lon="30.0280890">
<ele>71.384155</ele>
<time>2026-04-26T01:02:04.004Z</time>
</trkpt>
<trkpt lat="59.0972730" lon="30.0279830">
<ele>72.542397</ele>
<time>2026-04-26T01:02:22.001Z</time>
</trkpt>
<trkpt lat="59.0973040" lon="30.0278790">
<ele>72.115685</ele>
<time>2026-04-26T01:02:42.003Z</time>
</trkpt>
<trkpt lat="59.0973390" lon="30.0278210">
<ele>71.445122</ele>
<time>2026-04-26T01:02:51.999Z</time>
</trkpt>
<trkpt lat="59.0973560" lon="30.0277400">
<ele>71.597519</ele>
<time>2026-04-26T01:03:20.002Z</time>
</trkpt>
<trkpt lat="59.0973140" lon="30.0277810">
<ele>70.347839</ele>
<time>2026-04-26T01:03:48.004Z</time>
</trkpt>
<trkpt lat="59.0973810" lon="30.0278950">
<ele>70.439285</ele>
<time>2026-04-26T01:04:03.996Z</time>
</trkpt>
<trkpt lat="59.0974050" lon="30.0278630">
<ele>67.757042</ele>
<time>2026-04-26T01:04:22.002Z</time>
</trkpt>
<trkpt lat="59.0973950" lon="30.0278310">
<ele>65.531998</ele>
<time>2026-04-26T01:04:45.002Z</time>
</trkpt>
<trkpt lat="59.0973710" lon="30.0278480">
<ele>63.825119</ele>
<time>2026-04-26T01:05:16.996Z</time>
</trkpt>
<trkpt lat="59.0973910" lon="30.0278430">
<ele>63.063118</ele>
<time>2026-04-26T01:05:51.996Z</time>
</trkpt>
<trkpt lat="59.0974020" lon="30.0278390">
<ele>65.196716</ele>
<time>2026-04-26T01:06:17.001Z</time>
</trkpt>
<trkpt lat="59.0974370" lon="30.0277830">
<ele>65.897758</ele>
<time>2026-04-26T01:06:30.997Z</time>
</trkpt>
<trkpt lat="59.0975230" lon="30.0277760">
<ele>65.471039</ele>
<time>2026-04-26T01:06:45.003Z</time>
</trkpt>
<trkpt lat="59.0975420" lon="30.0276680">
<ele>66.172081</ele>
<time>2026-04-26T01:07:03.000Z</time>
</trkpt>
<trkpt lat="59.0975830" lon="30.0276390">
<ele>66.842644</ele>
<time>2026-04-26T01:07:16.003Z</time>
</trkpt>
<trkpt lat="59.0976870" lon="30.0275660">
<ele>67.939919</ele>
<time>2026-04-26T01:07:43.003Z</time>
</trkpt>
<trkpt lat="59.0977560" lon="30.0274980">
<ele>68.884804</ele>
<time>2026-04-26T01:07:57.000Z</time>
</trkpt>
<trkpt lat="59.0978350" lon="30.0273850">
<ele>69.433441</ele>
<time>2026-04-26T01:08:22.004Z</time>
</trkpt>
<trkpt lat="59.0978920" lon="30.0274310">
<ele>69.616318</ele>
<time>2026-04-26T01:08:42.999Z</time>
</trkpt>
<trkpt lat="59.0979360" lon="30.0274730">
<ele>69.921120</ele>
<time>2026-04-26T01:08:56.996Z</time>
</trkpt>
<trkpt lat="59.0980080" lon="30.0274690">
<ele>68.183762</ele>
<time>2026-04-26T01:09:19.002Z</time>
</trkpt>
<trkpt lat="59.0980180" lon="30.0275010">
<ele>68.000885</ele>
<time>2026-04-26T01:09:20.998Z</time>
</trkpt>
<trkpt lat="59.0980910" lon="30.0275520">
<ele>68.884804</ele>
<time>2026-04-26T01:09:34.001Z</time>
</trkpt>
<trkpt lat="59.0980520" lon="30.0275210">
<ele>66.537842</ele>
<time>2026-04-26T01:09:46.002Z</time>
</trkpt>
<trkpt lat="59.0981060" lon="30.0275620">
<ele>66.263519</ele>
<time>2026-04-26T01:10:05.002Z</time>
</trkpt>
<trkpt lat="59.0980990" lon="30.0275180">
<ele>62.788799</ele>
<time>2026-04-26T01:10:24.001Z</time>
</trkpt>
<trkpt lat="59.0981720" lon="30.0275570">
<ele>62.910717</ele>
<time>2026-04-26T01:10:40.996Z</time>
</trkpt>
<trkpt lat="59.0982440" lon="30.0274600">
<ele>63.794640</ele>
<time>2026-04-26T01:10:55.001Z</time>
</trkpt>
<trkpt lat="59.0982550" lon="30.0273760">
<ele>65.684402</ele>
<time>2026-04-26T01:11:22.001Z</time>
</trkpt>
<trkpt lat="59.0982720" lon="30.0274130">
<ele>67.116959</ele>
<time>2026-04-26T01:11:45.001Z</time>
</trkpt>
<trkpt lat="59.0982760" lon="30.0274750">
<ele>69.128639</ele>
<time>2026-04-26T01:12:36.003Z</time>
</trkpt>
<trkpt lat="59.0982820" lon="30.0274370">
<ele>69.402962</ele>
<time>2026-04-26T01:13:19.004Z</time>
</trkpt>
<trkpt lat="59.0982720" lon="30.0274160">
<ele>71.688957</ele>
<time>2026-04-26T01:13:53.003Z</time>
</trkpt>
<trkpt lat="59.0983140" lon="30.0274490">
<ele>73.578720</ele>
<time>2026-04-26T01:14:09.997Z</time>
</trkpt>
<trkpt lat="59.0983930" lon="30.0273800">
<ele>73.152000</ele>
<time>2026-04-26T01:14:27.001Z</time>
</trkpt>
<trkpt lat="59.0984710" lon="30.0273580">
<ele>76.626717</ele>
<time>2026-04-26T01:14:43.996Z</time>
</trkpt>
<trkpt lat="59.0984950" lon="30.0273770">
<ele>77.053444</ele>
<time>2026-04-26T01:14:59.004Z</time>
</trkpt>
<trkpt lat="59.0985140" lon="30.0273410">
<ele>76.565758</ele>
<time>2026-04-26T01:15:18.003Z</time>
</trkpt>
<trkpt lat="59.0985370" lon="30.0273520">
<ele>73.822556</ele>
<time>2026-04-26T01:15:34.998Z</time>
</trkpt>
<trkpt lat="59.0985790" lon="30.0274230">
<ele>72.664322</ele>
<time>2026-04-26T01:15:53.997Z</time>
</trkpt>
<trkpt lat="59.0986220" lon="30.0273140">
<ele>68.793358</ele>
<time>2026-04-26T01:16:08.996Z</time>
</trkpt>
<trkpt lat="59.0986330" lon="30.0272540">
<ele>70.256401</ele>
<time>2026-04-26T01:16:34.000Z</time>
</trkpt>
<trkpt lat="59.0986700" lon="30.0272520">
<ele>70.347839</ele>
<time>2026-04-26T01:16:58.996Z</time>
</trkpt>
<trkpt lat="59.0987330" lon="30.0272190">
<ele>70.103996</ele>
<time>2026-04-26T01:17:11.999Z</time>
</trkpt>
<trkpt lat="59.0987410" lon="30.0272080">
<ele>70.164963</ele>
<time>2026-04-26T01:17:14.997Z</time>
</trkpt>
<trkpt lat="59.0987330" lon="30.0272170">
<ele>69.829681</ele>
<time>2026-04-26T01:17:29.996Z</time>
</trkpt>
<trkpt lat="59.0987760" lon="30.0272070">
<ele>75.438004</ele>
<time>2026-04-26T01:17:40.001Z</time>
</trkpt>
<trkpt lat="59.0988460" lon="30.0272670">
<ele>75.102715</ele>
<time>2026-04-26T01:17:56.003Z</time>
</trkpt>
<trkpt lat="59.0988970" lon="30.0272140">
<ele>75.163681</ele>
<time>2026-04-26T01:18:16.004Z</time>
</trkpt>
<trkpt lat="59.0989170" lon="30.0271980">
<ele>74.066399</ele>
<time>2026-04-26T01:18:39.004Z</time>
</trkpt>
<trkpt lat="59.0989690" lon="30.0271290">
<ele>74.462639</ele>
<time>2026-04-26T01:18:54.996Z</time>
</trkpt>
<trkpt lat="59.0990310" lon="30.0271450">
<ele>76.352402</ele>
<time>2026-04-26T01:19:13.996Z</time>
</trkpt>
<trkpt lat="59.0990950" lon="30.0271010">
<ele>74.950317</ele>
<time>2026-04-26T01:19:36.002Z</time>
</trkpt>
<trkpt lat="59.0991550" lon="30.0270220">
<ele>74.279762</ele>
<time>2026-04-26T01:19:55.001Z</time>
</trkpt>
<trkpt lat="59.0991260" lon="30.0270050">
<ele>71.292717</ele>
<time>2026-04-26T01:20:38.003Z</time>
</trkpt>
<trkpt lat="59.0991390" lon="30.0270620">
<ele>69.890640</ele>
<time>2026-04-26T01:21:01.002Z</time>
</trkpt>
<trkpt lat="59.0991700" lon="30.0271550">
<ele>69.738243</ele>
<time>2026-04-26T01:21:13.003Z</time>
</trkpt>
<trkpt lat="59.0991560" lon="30.0271960">
<ele>69.555359</ele>
<time>2026-04-26T01:21:28.996Z</time>
</trkpt>
<trkpt lat="59.0991730" lon="30.0271950">
<ele>69.494400</ele>
<time>2026-04-26T01:21:52.004Z</time>
</trkpt>
<trkpt lat="59.0991750" lon="30.0271810">
<ele>70.103996</ele>
<time>2026-04-26T01:22:18.002Z</time>
</trkpt>
<trkpt lat="59.0991560" lon="30.0272030">
<ele>69.220085</ele>
<time>2026-04-26T01:22:46.004Z</time>
</trkpt>
<trkpt lat="59.0990980" lon="30.0270860">
<ele>68.092316</ele>
<time>2026-04-26T01:23:06.999Z</time>
</trkpt>
<trkpt lat="59.0990240" lon="30.0270120">
<ele>68.214241</ele>
<time>2026-04-26T01:23:21.998Z</time>
</trkpt>
<trkpt lat="59.0989960" lon="30.0269700">
<ele>69.037201</ele>
<time>2026-04-26T01:23:39.002Z</time>
</trkpt>
<trkpt lat="59.0990010" lon="30.0270060">
<ele>68.488556</ele>
<time>2026-04-26T01:23:59.004Z</time>
</trkpt>
<trkpt lat="59.0991120" lon="30.0271060">
<ele>69.921120</ele>
<time>2026-04-26T01:25:00.002Z</time>
</trkpt>
<trkpt lat="59.0991180" lon="30.0270970">
<ele>70.987915</ele>
<time>2026-04-26T01:26:09.001Z</time>
</trkpt>
<trkpt lat="59.0991140" lon="30.0270880">
<ele>70.561203</ele>
<time>2026-04-26T01:27:20.998Z</time>
</trkpt>
<trkpt lat="59.0991190" lon="30.0271050">
<ele>71.262238</ele>
<time>2026-04-26T01:28:48.003Z</time>
</trkpt>
<trkpt lat="59.0991180" lon="30.0270800">
<ele>72.938644</ele>
<time>2026-04-26T01:29:50.997Z</time>
</trkpt>
<trkpt lat="59.0991310" lon="30.0270850">
<ele>73.578720</ele>
<time>2026-04-26T01:30:25.004Z</time>
</trkpt>
<trkpt lat="59.0991430" lon="30.0270830">
<ele>72.999603</ele>
<time>2026-04-26T01:31:04.999Z</time>
</trkpt>
<trkpt lat="59.0991320" lon="30.0271200">
<ele>74.249283</ele>
<time>2026-04-26T01:31:38.997Z</time>
</trkpt>
<trkpt lat="59.0991140" lon="30.0269280">
<ele>72.633842</ele>
<time>2026-04-26T01:31:54.998Z</time>
</trkpt>
<trkpt lat="59.0991000" lon="30.0268870">
<ele>72.786240</ele>
<time>2026-04-26T01:32:09.004Z</time>
</trkpt>
<trkpt lat="59.0991280" lon="30.0267630">
<ele>72.237602</ele>
<time>2026-04-26T01:32:29.999Z</time>
</trkpt>
<trkpt lat="59.0991620" lon="30.0266950">
<ele>72.054718</ele>
<time>2026-04-26T01:32:43.996Z</time>
</trkpt>
<trkpt lat="59.0991620" lon="30.0265640">
<ele>73.487282</ele>
<time>2026-04-26T01:33:00.999Z</time>
</trkpt>
<trkpt lat="59.0991400" lon="30.0264760">
<ele>74.493118</ele>
<time>2026-04-26T01:33:26.004Z</time>
</trkpt>
<trkpt lat="59.0991320" lon="30.0264540">
<ele>74.523598</ele>
<time>2026-04-26T01:34:05.998Z</time>
</trkpt>
<trkpt lat="59.0991440" lon="30.0262700">
<ele>75.377045</ele>
<time>2026-04-26T01:34:21.999Z</time>
</trkpt>
<trkpt lat="59.0991400" lon="30.0261400">
<ele>73.853043</ele>
<time>2026-04-26T01:34:36.998Z</time>
</trkpt>
<trkpt lat="59.0991000" lon="30.0260130">
<ele>73.853043</ele>
<time>2026-04-26T01:35:05.001Z</time>
</trkpt>
<trkpt lat="59.0990210" lon="30.0258430">
<ele>73.974960</ele>
<time>2026-04-26T01:35:22.998Z</time>
</trkpt>
<trkpt lat="59.0989960" lon="30.0257440">
<ele>73.974960</ele>
<time>2026-04-26T01:35:37.997Z</time>
</trkpt>
<trkpt lat="59.0989460" lon="30.0256620">
<ele>74.340721</ele>
<time>2026-04-26T01:35:55.000Z</time>
</trkpt>
<trkpt lat="59.0988920" lon="30.0256570">
<ele>74.676003</ele>
<time>2026-04-26T01:36:08.004Z</time>
</trkpt>
<trkpt lat="59.0989200" lon="30.0255970">
<ele>73.182480</ele>
<time>2026-04-26T01:36:34.001Z</time>
</trkpt>
<trkpt lat="59.0989280" lon="30.0255600">
<ele>73.456802</ele>
<time>2026-04-26T01:36:53.001Z</time>
</trkpt>
<trkpt lat="59.0989330" lon="30.0254060">
<ele>74.279762</ele>
<time>2026-04-26T01:37:10.004Z</time>
</trkpt>
<trkpt lat="59.0989400" lon="30.0253340">
<ele>71.902321</ele>
<time>2026-04-26T01:37:37.998Z</time>
</trkpt>
<trkpt lat="59.0989390" lon="30.0253880">
<ele>72.938644</ele>
<time>2026-04-26T01:38:27.004Z</time>
</trkpt>
<trkpt lat="59.0989410" lon="30.0254180">
<ele>74.371201</ele>
<time>2026-04-26T01:39:12.001Z</time>
</trkpt>
<trkpt lat="59.0989880" lon="30.0253450">
<ele>72.938644</ele>
<time>2026-04-26T01:39:36.996Z</time>
</trkpt>
<trkpt lat="59.0989560" lon="30.0252290">
<ele>74.066399</ele>
<time>2026-04-26T01:39:52.998Z</time>
</trkpt>
<trkpt lat="59.0989390" lon="30.0250680">
<ele>75.864716</ele>
<time>2026-04-26T01:40:19.004Z</time>
</trkpt>
<trkpt lat="59.0988820" lon="30.0249030">
<ele>77.388718</ele>
<time>2026-04-26T01:40:42.004Z</time>
</trkpt>
<trkpt lat="59.0988180" lon="30.0247770">
<ele>76.169518</ele>
<time>2026-04-26T01:41:02.999Z</time>
</trkpt>
<trkpt lat="59.0988000" lon="30.0246300">
<ele>74.615044</ele>
<time>2026-04-26T01:41:15.000Z</time>
</trkpt>
<trkpt lat="59.0987880" lon="30.0245640">
<ele>74.249283</ele>
<time>2026-04-26T01:41:31.001Z</time>
</trkpt>
<trkpt lat="59.0987790" lon="30.0246130">
<ele>72.207115</ele>
<time>2026-04-26T01:41:51.003Z</time>
</trkpt>
<trkpt lat="59.0987860" lon="30.0244020">
<ele>72.359520</ele>
<time>2026-04-26T01:42:11.998Z</time>
</trkpt>
<trkpt lat="59.0987740" lon="30.0242670">
<ele>71.445122</ele>
<time>2026-04-26T01:42:33.002Z</time>
</trkpt>
<trkpt lat="59.0987510" lon="30.0241360">
<ele>72.207115</ele>
<time>2026-04-26T01:43:00.002Z</time>
</trkpt>
<trkpt lat="59.0987250" lon="30.0241190">
<ele>73.914001</ele>
<time>2026-04-26T01:43:28.998Z</time>
</trkpt>
<trkpt lat="59.0987170" lon="30.0241110">
<ele>78.425034</ele>
<time>2026-04-26T01:43:55.004Z</time>
</trkpt>
<trkpt lat="59.0987250" lon="30.0241150">
<ele>77.906883</ele>
<time>2026-04-26T01:44:30.998Z</time>
</trkpt>
<trkpt lat="59.0987320" lon="30.0240390">
<ele>78.242165</ele>
<time>2026-04-26T01:44:52.002Z</time>
</trkpt>
<trkpt lat="59.0987060" lon="30.0238500">
<ele>77.967842</ele>
<time>2026-04-26T01:45:08.997Z</time>
</trkpt>
<trkpt lat="59.0986770" lon="30.0236140">
<ele>77.906883</ele>
<time>2026-04-26T01:45:28.999Z</time>
</trkpt>
<trkpt lat="59.0986420" lon="30.0235090">
<ele>77.723999</ele>
<time>2026-04-26T01:45:46.002Z</time>
</trkpt>
<trkpt lat="59.0986490" lon="30.0235340">
<ele>77.327759</ele>
<time>2026-04-26T01:46:12.000Z</time>
</trkpt>
<trkpt lat="59.0986440" lon="30.0235830">
<ele>76.139038</ele>
<time>2026-04-26T01:46:44.996Z</time>
</trkpt>
<trkpt lat="59.0985750" lon="30.0238380">
<ele>75.316078</ele>
<time>2026-04-26T01:47:11.003Z</time>
</trkpt>
<trkpt lat="59.0985390" lon="30.0236960">
<ele>72.298561</ele>
<time>2026-04-26T01:47:46.997Z</time>
</trkpt>
<trkpt lat="59.0985360" lon="30.0236020">
<ele>71.658485</ele>
<time>2026-04-26T01:48:02.998Z</time>
</trkpt>
<trkpt lat="59.0985350" lon="30.0236200">
<ele>72.755760</ele>
<time>2026-04-26T01:48:28.002Z</time>
</trkpt>
<trkpt lat="59.0985080" lon="30.0236200">
<ele>74.797920</ele>
<time>2026-04-26T01:49:10.001Z</time>
</trkpt>
<trkpt lat="59.0985030" lon="30.0236120">
<ele>76.382881</ele>
<time>2026-04-26T01:49:34.997Z</time>
</trkpt>
<trkpt lat="59.0985270" lon="30.0236660">
<ele>76.017120</ele>
<time>2026-04-26T01:50:21.998Z</time>
</trkpt>
<trkpt lat="59.0985590" lon="30.0237650">
<ele>75.316078</ele>
<time>2026-04-26T01:50:47.003Z</time>
</trkpt>
<trkpt lat="59.0985080" lon="30.0239050">
<ele>73.456802</ele>
<time>2026-04-26T01:51:03.004Z</time>
</trkpt>
<trkpt lat="59.0985270" lon="30.0239800">
<ele>74.523598</ele>
<time>2026-04-26T01:51:26.997Z</time>
</trkpt>
<trkpt lat="59.0985170" lon="30.0241180">
<ele>75.438004</ele>
<time>2026-04-26T01:51:40.000Z</time>
</trkpt>
<trkpt lat="59.0985240" lon="30.0242280">
<ele>75.681839</ele>
<time>2026-04-26T01:51:57.997Z</time>
</trkpt>
<trkpt lat="59.0985550" lon="30.0243800">
<ele>75.559921</ele>
<time>2026-04-26T01:52:31.996Z</time>
</trkpt>
<trkpt lat="59.0985700" lon="30.0245220">
<ele>76.260956</ele>
<time>2026-04-26T01:52:50.002Z</time>
</trkpt>
<trkpt lat="59.0985260" lon="30.0246070">
<ele>74.676003</ele>
<time>2026-04-26T01:53:03.998Z</time>
</trkpt>
<trkpt lat="59.0985350" lon="30.0247020">
<ele>74.218803</ele>
<time>2026-04-26T01:53:18.004Z</time>
</trkpt>
<trkpt lat="59.0985520" lon="30.0246840">
<ele>74.615044</ele>
<time>2026-04-26T01:53:38.999Z</time>
</trkpt>
<trkpt lat="59.0985680" lon="30.0246990">
<ele>75.285599</ele>
<time>2026-04-26T01:54:18.000Z</time>
</trkpt>
<trkpt lat="59.0985790" lon="30.0247580">
<ele>75.041756</ele>
<time>2026-04-26T01:54:38.002Z</time>
</trkpt>
<trkpt lat="59.0986070" lon="30.0248820">
<ele>74.950317</ele>
<time>2026-04-26T01:55:02.997Z</time>
</trkpt>
<trkpt lat="59.0986150" lon="30.0250470">
<ele>74.858879</ele>
<time>2026-04-26T01:55:20.001Z</time>
</trkpt>
<trkpt lat="59.0985850" lon="30.0250780">
<ele>73.182480</ele>
<time>2026-04-26T01:55:40.002Z</time>
</trkpt>
<trkpt lat="59.0985960" lon="30.0250690">
<ele>74.736961</ele>
<time>2026-04-26T01:56:23.004Z</time>
</trkpt>
<trkpt lat="59.0986090" lon="30.0250600">
<ele>74.096878</ele>
<time>2026-04-26T01:57:09.003Z</time>
</trkpt>
<trkpt lat="59.0985720" lon="30.0251240">
<ele>74.066399</ele>
<time>2026-04-26T01:57:58.000Z</time>
</trkpt>
<trkpt lat="59.0985470" lon="30.0253090">
<ele>72.450958</ele>
<time>2026-04-26T01:58:25.000Z</time>
</trkpt>
<trkpt lat="59.0985820" lon="30.0253770">
<ele>75.620880</ele>
<time>2026-04-26T01:58:53.996Z</time>
</trkpt>
<trkpt lat="59.0985790" lon="30.0254390">
<ele>76.565758</ele>
<time>2026-04-26T01:59:15.000Z</time>
</trkpt>
<trkpt lat="59.0985930" lon="30.0255000">
<ele>74.615044</ele>
<time>2026-04-26T01:59:43.002Z</time>
</trkpt>
<trkpt lat="59.0985880" lon="30.0255280">
<ele>75.651360</ele>
<time>2026-04-26T02:00:02.002Z</time>
</trkpt>
<trkpt lat="59.0985850" lon="30.0255240">
<ele>75.346558</ele>
<time>2026-04-26T02:00:13.000Z</time>
</trkpt>
<trkpt lat="59.0985740" lon="30.0256410">
<ele>75.895203</ele>
<time>2026-04-26T02:00:26.004Z</time>
</trkpt>
<trkpt lat="59.0985900" lon="30.0256900">
<ele>74.005440</ele>
<time>2026-04-26T02:00:53.997Z</time>
</trkpt>
<trkpt lat="59.0986110" lon="30.0257120">
<ele>73.273918</ele>
<time>2026-04-26T02:01:28.004Z</time>
</trkpt>
<trkpt lat="59.0986040" lon="30.0257660">
<ele>73.670158</ele>
<time>2026-04-26T02:01:58.996Z</time>
</trkpt>
<trkpt lat="59.0986330" lon="30.0258370">
<ele>73.670158</ele>
<time>2026-04-26T02:02:15.999Z</time>
</trkpt>
<trkpt lat="59.0986530" lon="30.0258800">
<ele>75.773285</ele>
<time>2026-04-26T02:02:56.996Z</time>
</trkpt>
<trkpt lat="59.0986940" lon="30.0259890">
<ele>75.620880</ele>
<time>2026-04-26T02:03:11.002Z</time>
</trkpt>
<trkpt lat="59.0987490" lon="30.0261140">
<ele>76.779121</ele>
<time>2026-04-26T02:03:23.996Z</time>
</trkpt>
<trkpt lat="59.0987810" lon="30.0261560">
<ele>77.053444</ele>
<time>2026-04-26T02:03:50.003Z</time>
</trkpt>
<trkpt lat="59.0987570" lon="30.0260910">
<ele>78.455521</ele>
<time>2026-04-26T02:04:13.002Z</time>
</trkpt>
<trkpt lat="59.0987730" lon="30.0261140">
<ele>77.358238</ele>
<time>2026-04-26T02:04:33.997Z</time>
</trkpt>
<trkpt lat="59.0987720" lon="30.0260320">
<ele>76.139038</ele>
<time>2026-04-26T02:05:11.996Z</time>
</trkpt>
<trkpt lat="59.0987750" lon="30.0260760">
<ele>75.224640</ele>
<time>2026-04-26T02:06:04.000Z</time>
</trkpt>
<trkpt lat="59.0988030" lon="30.0261930">
<ele>74.950317</ele>
<time>2026-04-26T02:06:31.000Z</time>
</trkpt>
<trkpt lat="59.0987950" lon="30.0263200">
<ele>74.980797</ele>
<time>2026-04-26T02:06:48.997Z</time>
</trkpt>
<trkpt lat="59.0987910" lon="30.0265170">
<ele>75.529442</ele>
<time>2026-04-26T02:07:17.000Z</time>
</trkpt>
<trkpt lat="59.0988290" lon="30.0266810">
<ele>76.535278</ele>
<time>2026-04-26T02:07:34.997Z</time>
</trkpt>
<trkpt lat="59.0988240" lon="30.0267020">
<ele>75.712318</ele>
<time>2026-04-26T02:07:53.003Z</time>
</trkpt>
<trkpt lat="59.0988160" lon="30.0267130">
<ele>75.163681</ele>
<time>2026-04-26T02:08:23.001Z</time>
</trkpt>
<trkpt lat="59.0987760" lon="30.0267030">
<ele>74.371201</ele>
<time>2026-04-26T02:08:40.004Z</time>
</trkpt>
<trkpt lat="59.0987420" lon="30.0266990">
<ele>74.950317</ele>
<time>2026-04-26T02:08:55.003Z</time>
</trkpt>
<trkpt lat="59.0987150" lon="30.0267270">
<ele>73.761597</ele>
<time>2026-04-26T02:09:18.996Z</time>
</trkpt>
<trkpt lat="59.0986600" lon="30.0268060">
<ele>73.670158</ele>
<time>2026-04-26T02:09:32.000Z</time>
</trkpt>
<trkpt lat="59.0986450" lon="30.0268140">
<ele>72.969116</ele>
<time>2026-04-26T02:10:04.002Z</time>
</trkpt>
<trkpt lat="59.0986460" lon="30.0267720">
<ele>75.316078</ele>
<time>2026-04-26T02:10:55.998Z</time>
</trkpt>
<trkpt lat="59.0986260" lon="30.0267950">
<ele>78.973679</ele>
<time>2026-04-26T02:11:55.000Z</time>
</trkpt>
<trkpt lat="59.0986310" lon="30.0268530">
<ele>79.308960</ele>
<time>2026-04-26T02:12:46.002Z</time>
</trkpt>
<trkpt lat="59.0985770" lon="30.0267060">
<ele>79.248001</ele>
<time>2026-04-26T02:13:01.001Z</time>
</trkpt>
<trkpt lat="59.0985350" lon="30.0266590">
<ele>77.784958</ele>
<time>2026-04-26T02:13:17.996Z</time>
</trkpt>
<trkpt lat="59.0985140" lon="30.0266170">
<ele>78.394562</ele>
<time>2026-04-26T02:13:35.000Z</time>
</trkpt>
<trkpt lat="59.0984740" lon="30.0265270">
<ele>76.657204</ele>
<time>2026-04-26T02:13:48.996Z</time>
</trkpt>
<trkpt lat="59.0984580" lon="30.0263550">
<ele>75.895203</ele>
<time>2026-04-26T02:14:03.002Z</time>
</trkpt>
<trkpt lat="59.0984510" lon="30.0262770">
<ele>76.626717</ele>
<time>2026-04-26T02:14:19.997Z</time>
</trkpt>
<trkpt lat="59.0984640" lon="30.0262960">
<ele>74.980797</ele>
<time>2026-04-26T02:14:49.001Z</time>
</trkpt>
<trkpt lat="59.0984710" lon="30.0262820">
<ele>75.438004</ele>
<time>2026-04-26T02:15:21.997Z</time>
</trkpt>
<trkpt lat="59.0984380" lon="30.0263170">
<ele>75.773285</ele>
<time>2026-04-26T02:16:11.004Z</time>
</trkpt>
<trkpt lat="59.0984170" lon="30.0263230">
<ele>77.327759</ele>
<time>2026-04-26T02:16:27.998Z</time>
</trkpt>
<trkpt lat="59.0984370" lon="30.0262400">
<ele>77.480156</ele>
<time>2026-04-26T02:17:05.997Z</time>
</trkpt>
<trkpt lat="59.0984570" lon="30.0261310">
<ele>79.004166</ele>
<time>2026-04-26T02:17:17.998Z</time>
</trkpt>
<trkpt lat="59.0984630" lon="30.0260430">
<ele>78.120239</ele>
<time>2026-04-26T02:17:38.000Z</time>
</trkpt>
<trkpt lat="59.0984600" lon="30.0259140">
<ele>79.369919</ele>
<time>2026-04-26T02:18:03.997Z</time>
</trkpt>
<trkpt lat="59.0984710" lon="30.0257730">
<ele>79.004166</ele>
<time>2026-04-26T02:18:30.004Z</time>
</trkpt>
<trkpt lat="59.0984380" lon="30.0257140">
<ele>79.705200</ele>
<time>2026-04-26T02:18:49.003Z</time>
</trkpt>
<trkpt lat="59.0983980" lon="30.0256370">
<ele>78.150719</ele>
<time>2026-04-26T02:19:16.003Z</time>
</trkpt>
<trkpt lat="59.0983750" lon="30.0256980">
<ele>77.144882</ele>
<time>2026-04-26T02:19:43.997Z</time>
</trkpt>
<trkpt lat="59.0983640" lon="30.0257010">
<ele>76.535278</ele>
<time>2026-04-26T02:20:06.996Z</time>
</trkpt>
<trkpt lat="59.0983630" lon="30.0257190">
<ele>77.693520</ele>
<time>2026-04-26T02:20:34.999Z</time>
</trkpt>
<trkpt lat="59.0983940" lon="30.0257940">
<ele>77.419197</ele>
<time>2026-04-26T02:20:52.002Z</time>
</trkpt>
<trkpt lat="59.0983840" lon="30.0258740">
<ele>75.803757</ele>
<time>2026-04-26T02:21:11.002Z</time>
</trkpt>
<trkpt lat="59.0984100" lon="30.0258490">
<ele>76.992485</ele>
<time>2026-04-26T02:21:42.002Z</time>
</trkpt>
<trkpt lat="59.0984580" lon="30.0258490">
<ele>75.468483</ele>
<time>2026-04-26T02:22:13.002Z</time>
</trkpt>
<trkpt lat="59.0984170" lon="30.0258040">
<ele>79.065117</ele>
<time>2026-04-26T02:23:02.000Z</time>
</trkpt>
<trkpt lat="59.0984420" lon="30.0258600">
<ele>79.522316</ele>
<time>2026-04-26T02:23:45.001Z</time>
</trkpt>
<trkpt lat="59.0984040" lon="30.0258930">
<ele>80.314796</ele>
<time>2026-04-26T02:23:58.004Z</time>
</trkpt>
<trkpt lat="59.0983670" lon="30.0259520">
<ele>78.028801</ele>
<time>2026-04-26T02:24:17.004Z</time>
</trkpt>
<trkpt lat="59.0983350" lon="30.0259810">
<ele>78.211685</ele>
<time>2026-04-26T02:24:32.003Z</time>
</trkpt>
<trkpt lat="59.0983490" lon="30.0260830">
<ele>78.150719</ele>
<time>2026-04-26T02:24:55.996Z</time>
</trkpt>
<trkpt lat="59.0983090" lon="30.0261310">
<ele>76.443840</ele>
<time>2026-04-26T02:25:11.997Z</time>
</trkpt>
<trkpt lat="59.0983520" lon="30.0262460">
<ele>77.053444</ele>
<time>2026-04-26T02:25:42.004Z</time>
</trkpt>
<trkpt lat="59.0983860" lon="30.0263220">
<ele>75.011284</ele>
<time>2026-04-26T02:26:02.999Z</time>
</trkpt>
<trkpt lat="59.0984410" lon="30.0264400">
<ele>74.554085</ele>
<time>2026-04-26T02:26:16.002Z</time>
</trkpt>
<trkpt lat="59.0984890" lon="30.0265040">
<ele>74.401680</ele>
<time>2026-04-26T02:26:32.004Z</time>
</trkpt>
<trkpt lat="59.0984960" lon="30.0266290">
<ele>74.919838</ele>
<time>2026-04-26T02:26:56.999Z</time>
</trkpt>
<trkpt lat="59.0985630" lon="30.0266960">
<ele>76.139038</ele>
<time>2026-04-26T02:27:18.996Z</time>
</trkpt>
<trkpt lat="59.0986110" lon="30.0268010">
<ele>75.377045</ele>
<time>2026-04-26T02:27:37.996Z</time>
</trkpt>
<trkpt lat="59.0986600" lon="30.0268110">
<ele>77.083916</ele>
<time>2026-04-26T02:27:46.999Z</time>
</trkpt>
<trkpt lat="59.0986900" lon="30.0269460">
<ele>77.815437</ele>
<time>2026-04-26T02:28:00.002Z</time>
</trkpt>
<trkpt lat="59.0987010" lon="30.0269650">
<ele>77.266800</ele>
<time>2026-04-26T02:28:35.003Z</time>
</trkpt>
<trkpt lat="59.0986890" lon="30.0269480">
<ele>77.022957</ele>
<time>2026-04-26T02:28:58.002Z</time>
</trkpt>
<trkpt lat="59.0987150" lon="30.0269370">
<ele>76.230484</ele>
<time>2026-04-26T02:29:42.999Z</time>
</trkpt>
<trkpt lat="59.0986860" lon="30.0269250">
<ele>74.706482</ele>
<time>2026-04-26T02:30:11.002Z</time>
</trkpt>
<trkpt lat="59.0986430" lon="30.0268700">
<ele>74.188316</ele>
<time>2026-04-26T02:30:50.003Z</time>
</trkpt>
<trkpt lat="59.0986690" lon="30.0268990">
<ele>75.316078</ele>
<time>2026-04-26T02:31:21.996Z</time>
</trkpt>
<trkpt lat="59.0986760" lon="30.0269080">
<ele>75.163681</ele>
<time>2026-04-26T02:31:52.003Z</time>
</trkpt>
<trkpt lat="59.0986210" lon="30.0268260">
<ele>76.017120</ele>
<time>2026-04-26T02:32:07.996Z</time>
</trkpt>
<trkpt lat="59.0985320" lon="30.0269440">
<ele>75.346558</ele>
<time>2026-04-26T02:32:23.997Z</time>
</trkpt>
<trkpt lat="59.0984740" lon="30.0270130">
<ele>75.316078</ele>
<time>2026-04-26T02:32:42.003Z</time>
</trkpt>
<trkpt lat="59.0984590" lon="30.0270410">
<ele>75.041756</ele>
<time>2026-04-26T02:33:09.996Z</time>
</trkpt>
<trkpt lat="59.0984170" lon="30.0270040">
<ele>74.340721</ele>
<time>2026-04-26T02:33:21.997Z</time>
</trkpt>
<trkpt lat="59.0984310" lon="30.0269050">
<ele>75.498962</ele>
<time>2026-04-26T02:33:32.003Z</time>
</trkpt>
<trkpt lat="59.0983840" lon="30.0268440">
<ele>73.822556</ele>
<time>2026-04-26T02:33:48.004Z</time>
</trkpt>
<trkpt lat="59.0983710" lon="30.0269120">
<ele>75.072243</ele>
<time>2026-04-26T02:34:12.999Z</time>
</trkpt>
<trkpt lat="59.0983680" lon="30.0268510">
<ele>75.407516</ele>
<time>2026-04-26T02:34:34.997Z</time>
</trkpt>
<trkpt lat="59.0983620" lon="30.0268210">
<ele>75.468483</ele>
<time>2026-04-26T02:34:37.001Z</time>
</trkpt>
<trkpt lat="59.0983780" lon="30.0267600">
<ele>73.974960</ele>
<time>2026-04-26T02:34:49.996Z</time>
</trkpt>
<trkpt lat="59.0983340" lon="30.0267120">
<ele>73.091042</ele>
<time>2026-04-26T02:35:21.998Z</time>
</trkpt>
<trkpt lat="59.0983350" lon="30.0267490">
<ele>73.974960</ele>
<time>2026-04-26T02:35:55.997Z</time>
</trkpt>
<trkpt lat="59.0983240" lon="30.0267460">
<ele>74.432159</ele>
<time>2026-04-26T02:36:22.003Z</time>
</trkpt>
<trkpt lat="59.0983110" lon="30.0267820">
<ele>75.590401</ele>
<time>2026-04-26T02:36:45.003Z</time>
</trkpt>
<trkpt lat="59.0982920" lon="30.0270730">
<ele>75.133202</ele>
<time>2026-04-26T02:37:07.000Z</time>
</trkpt>
<trkpt lat="59.0982900" lon="30.0272150">
<ele>75.864716</ele>
<time>2026-04-26T02:37:31.002Z</time>
</trkpt>
<trkpt lat="59.0983090" lon="30.0272760">
<ele>76.291443</ele>
<time>2026-04-26T02:37:58.996Z</time>
</trkpt>
<trkpt lat="59.0982940" lon="30.0271910">
<ele>77.967842</ele>
<time>2026-04-26T02:38:40.001Z</time>
</trkpt>
<trkpt lat="59.0982950" lon="30.0272660">
<ele>76.139038</ele>
<time>2026-04-26T02:39:39.997Z</time>
</trkpt>
<trkpt lat="59.0982730" lon="30.0271470">
<ele>76.504799</ele>
<time>2026-04-26T02:40:14.998Z</time>
</trkpt>
<trkpt lat="59.0982800" lon="30.0269200">
<ele>76.657204</ele>
<time>2026-04-26T02:40:33.004Z</time>
</trkpt>
<trkpt lat="59.0982760" lon="30.0267660">
<ele>76.626717</ele>
<time>2026-04-26T02:40:55.001Z</time>
</trkpt>
<trkpt lat="59.0982860" lon="30.0264420">
<ele>76.535278</ele>
<time>2026-04-26T02:41:15.996Z</time>
</trkpt>
<trkpt lat="59.0982480" lon="30.0262620">
<ele>76.108559</ele>
<time>2026-04-26T02:41:34.002Z</time>
</trkpt>
<trkpt lat="59.0982600" lon="30.0261710">
<ele>76.321915</ele>
<time>2026-04-26T02:42:02.998Z</time>
</trkpt>
<trkpt lat="59.0982580" lon="30.0260170">
<ele>74.767441</ele>
<time>2026-04-26T02:42:20.002Z</time>
</trkpt>
<trkpt lat="59.0982440" lon="30.0260180">
<ele>74.493118</ele>
<time>2026-04-26T02:42:51.002Z</time>
</trkpt>
<trkpt lat="59.0982540" lon="30.0260400">
<ele>73.243439</ele>
<time>2026-04-26T02:44:01.997Z</time>
</trkpt>
<trkpt lat="59.0982590" lon="30.0260770">
<ele>74.676003</ele>
<time>2026-04-26T02:44:47.003Z</time>
</trkpt>
<trkpt lat="59.0982670" lon="30.0260670">
<ele>77.022957</ele>
<time>2026-04-26T02:45:07.998Z</time>
</trkpt>
<trkpt lat="59.0982650" lon="30.0260950">
<ele>79.095596</ele>
<time>2026-04-26T02:45:52.001Z</time>
</trkpt>
<trkpt lat="59.0982790" lon="30.0261150">
<ele>80.406235</ele>
<time>2026-04-26T02:46:26.000Z</time>
</trkpt>
<trkpt lat="59.0982900" lon="30.0261230">
<ele>79.705200</ele>
<time>2026-04-26T02:47:21.002Z</time>
</trkpt>
<trkpt lat="59.0982760" lon="30.0260660">
<ele>75.803757</ele>
<time>2026-04-26T02:48:15.002Z</time>
</trkpt>
<trkpt lat="59.0982610" lon="30.0260830">
<ele>74.889359</ele>
<time>2026-04-26T02:49:03.999Z</time>
</trkpt>
<trkpt lat="59.0982780" lon="30.0260560">
<ele>75.590401</ele>
<time>2026-04-26T02:50:04.004Z</time>
</trkpt>
<trkpt lat="59.0982700" lon="30.0260790">
<ele>73.700638</ele>
<time>2026-04-26T02:51:08.001Z</time>
</trkpt>
<trkpt lat="59.0982910" lon="30.0262070">
<ele>74.706482</ele>
<time>2026-04-26T02:51:36.003Z</time>
</trkpt>
<trkpt lat="59.0982750" lon="30.0263290">
<ele>74.523598</ele>
<time>2026-04-26T02:51:58.000Z</time>
</trkpt>
<trkpt lat="59.0983260" lon="30.0266280">
<ele>76.961998</ele>
<time>2026-04-26T02:52:18.002Z</time>
</trkpt>
<trkpt lat="59.0983300" lon="30.0266340">
<ele>76.870560</ele>
<time>2026-04-26T02:52:38.004Z</time>
</trkpt>
<trkpt lat="59.0983230" lon="30.0267570">
<ele>76.961998</ele>
<time>2026-04-26T02:52:53.003Z</time>
</trkpt>
<trkpt lat="59.0982490" lon="30.0268950">
<ele>77.297279</ele>
<time>2026-04-26T02:53:09.004Z</time>
</trkpt>
<trkpt lat="59.0981820" lon="30.0270220">
<ele>77.053444</ele>
<time>2026-04-26T02:53:28.997Z</time>
</trkpt>
<trkpt lat="59.0981130" lon="30.0270930">
<ele>77.114403</ele>
<time>2026-04-26T02:53:43.002Z</time>
</trkpt>
<trkpt lat="59.0980790" lon="30.0272190">
<ele>77.205841</ele>
<time>2026-04-26T02:54:23.999Z</time>
</trkpt>
<trkpt lat="59.0980440" lon="30.0272120">
<ele>75.895203</ele>
<time>2026-04-26T02:55:07.000Z</time>
</trkpt>
<trkpt lat="59.0980380" lon="30.0273970">
<ele>76.139038</ele>
<time>2026-04-26T02:55:28.004Z</time>
</trkpt>
<trkpt lat="59.0980120" lon="30.0276800">
<ele>76.382881</ele>
<time>2026-04-26T02:55:43.997Z</time>
</trkpt>
<trkpt lat="59.0980290" lon="30.0277950">
<ele>76.748642</ele>
<time>2026-04-26T02:55:58.002Z</time>
</trkpt>
<trkpt lat="59.0980760" lon="30.0276750">
<ele>78.120239</ele>
<time>2026-04-26T02:56:22.004Z</time>
</trkpt>
<trkpt lat="59.0981160" lon="30.0276410">
<ele>76.321915</ele>
<time>2026-04-26T02:56:37.003Z</time>
</trkpt>
<trkpt lat="59.0981960" lon="30.0276300">
<ele>76.687683</ele>
<time>2026-04-26T02:56:57.998Z</time>
</trkpt>
<trkpt lat="59.0982420" lon="30.0275820">
<ele>77.266800</ele>
<time>2026-04-26T02:57:12.004Z</time>
</trkpt>
<trkpt lat="59.0983740" lon="30.0275820">
<ele>77.175362</ele>
<time>2026-04-26T02:57:30.001Z</time>
</trkpt>
<trkpt lat="59.0984250" lon="30.0276210">
<ele>77.205841</ele>
<time>2026-04-26T02:57:46.996Z</time>
</trkpt>
<trkpt lat="59.0984920" lon="30.0277090">
<ele>77.693520</ele>
<time>2026-04-26T02:58:01.001Z</time>
</trkpt>
<trkpt lat="59.0985570" lon="30.0276950">
<ele>78.028801</ele>
<time>2026-04-26T02:58:17.003Z</time>
</trkpt>
<trkpt lat="59.0985700" lon="30.0276760">
<ele>79.248001</ele>
<time>2026-04-26T02:58:33.997Z</time>
</trkpt>
<trkpt lat="59.0986210" lon="30.0277050">
<ele>79.949036</ele>
<time>2026-04-26T02:58:51.001Z</time>
</trkpt>
<trkpt lat="59.0986150" lon="30.0278150">
<ele>79.888084</ele>
<time>2026-04-26T02:59:11.996Z</time>
</trkpt>
<trkpt lat="59.0986040" lon="30.0277940">
<ele>78.333603</ele>
<time>2026-04-26T03:00:08.001Z</time>
</trkpt>
<trkpt lat="59.0986070" lon="30.0277790">
<ele>79.674721</ele>
<time>2026-04-26T03:01:03.003Z</time>
</trkpt>
<trkpt lat="59.0986400" lon="30.0278170">
<ele>77.571602</ele>
<time>2026-04-26T03:01:29.001Z</time>
</trkpt>
<trkpt lat="59.0987210" lon="30.0277910">
<ele>76.901039</ele>
<time>2026-04-26T03:01:49.996Z</time>
</trkpt>
<trkpt lat="59.0987840" lon="30.0277860">
<ele>76.779121</ele>
<time>2026-04-26T03:02:02.999Z</time>
</trkpt>
<trkpt lat="59.0988110" lon="30.0277240">
<ele>77.937363</ele>
<time>2026-04-26T03:02:25.999Z</time>
</trkpt>
<trkpt lat="59.0988640" lon="30.0277080">
<ele>78.242165</ele>
<time>2026-04-26T03:02:55.997Z</time>
</trkpt>
<trkpt lat="59.0989250" lon="30.0276680">
<ele>77.845917</ele>
<time>2026-04-26T03:03:07.004Z</time>
</trkpt>
<trkpt lat="59.0989670" lon="30.0276080">
<ele>77.449684</ele>
<time>2026-04-26T03:03:22.003Z</time>
</trkpt>
<trkpt lat="59.0990000" lon="30.0276510">
<ele>76.779121</ele>
<time>2026-04-26T03:03:49.997Z</time>
</trkpt>
<trkpt lat="59.0989700" lon="30.0277180">
<ele>78.242165</ele>
<time>2026-04-26T03:04:28.998Z</time>
</trkpt>
<trkpt lat="59.0989940" lon="30.0278080">
<ele>77.449684</ele>
<time>2026-04-26T03:04:55.004Z</time>
</trkpt>
<trkpt lat="59.0990750" lon="30.0279140">
<ele>76.992485</ele>
<time>2026-04-26T03:05:18.997Z</time>
</trkpt>
<trkpt lat="59.0991850" lon="30.0278540">
<ele>77.297279</ele>
<time>2026-04-26T03:05:34.999Z</time>
</trkpt>
<trkpt lat="59.0991700" lon="30.0279770">
<ele>77.175362</ele>
<time>2026-04-26T03:05:52.002Z</time>
</trkpt>
<trkpt lat="59.0992500" lon="30.0280240">
<ele>76.504799</ele>
<time>2026-04-26T03:06:12.004Z</time>
</trkpt>
<trkpt lat="59.0993560" lon="30.0280720">
<ele>76.017120</ele>
<time>2026-04-26T03:06:23.003Z</time>
</trkpt>
<trkpt lat="59.0994300" lon="30.0280330">
<ele>75.956161</ele>
<time>2026-04-26T03:06:39.004Z</time>
</trkpt>
<trkpt lat="59.0994830" lon="30.0281570">
<ele>75.072243</ele>
<time>2026-04-26T03:06:54.996Z</time>
</trkpt>
<trkpt lat="59.0995060" lon="30.0282530">
<ele>74.858879</ele>
<time>2026-04-26T03:07:06.997Z</time>
</trkpt>
<trkpt lat="59.0995200" lon="30.0282130">
<ele>73.914001</ele>
<time>2026-04-26T03:07:28.001Z</time>
</trkpt>
<trkpt lat="59.0995290" lon="30.0281430">
<ele>72.603355</ele>
<time>2026-04-26T03:07:41.998Z</time>
</trkpt>
<trkpt lat="59.0996050" lon="30.0282510">
<ele>72.268082</ele>
<time>2026-04-26T03:07:49.999Z</time>
</trkpt>
<trkpt lat="59.0996120" lon="30.0283810">
<ele>72.877686</ele>
<time>2026-04-26T03:08:00.004Z</time>
</trkpt>
<trkpt lat="59.0996470" lon="30.0285180">
<ele>72.389999</ele>
<time>2026-04-26T03:08:10.000Z</time>
</trkpt>
<trkpt lat="59.0996320" lon="30.0286020">
<ele>72.329041</ele>
<time>2026-04-26T03:08:23.004Z</time>
</trkpt>
<trkpt lat="59.0996100" lon="30.0286260">
<ele>73.578720</ele>
<time>2026-04-26T03:08:50.997Z</time>
</trkpt>
<trkpt lat="59.0996340" lon="30.0286500">
<ele>76.565758</ele>
<time>2026-04-26T03:09:54.000Z</time>
</trkpt>
<trkpt lat="59.0996320" lon="30.0286480">
<ele>76.596237</ele>
<time>2026-04-26T03:10:46.004Z</time>
</trkpt>
<trkpt lat="59.0996310" lon="30.0286750">
<ele>76.901039</ele>
<time>2026-04-26T03:11:16.996Z</time>
</trkpt>
<trkpt lat="59.0995860" lon="30.0286430">
<ele>78.790802</ele>
<time>2026-04-26T03:11:51.003Z</time>
</trkpt>
<trkpt lat="59.0995600" lon="30.0285720">
<ele>82.021683</ele>
<time>2026-04-26T03:12:30.997Z</time>
</trkpt>
<trkpt lat="59.0995660" lon="30.0286300">
<ele>79.248001</ele>
<time>2026-04-26T03:12:57.997Z</time>
</trkpt>
<trkpt lat="59.0996030" lon="30.0286880">
<ele>78.546967</ele>
<time>2026-04-26T03:13:47.997Z</time>
</trkpt>
<trkpt lat="59.0995930" lon="30.0286570">
<ele>81.229202</ele>
<time>2026-04-26T03:14:37.003Z</time>
</trkpt>
<trkpt lat="59.0995620" lon="30.0283630">
<ele>79.705200</ele>
<time>2026-04-26T03:14:51.000Z</time>
</trkpt>
<trkpt lat="59.0995570" lon="30.0283520">
<ele>79.217522</ele>
<time>2026-04-26T03:14:52.002Z</time>
</trkpt>
<trkpt lat="59.0995460" lon="30.0283230">
<ele>78.760315</ele>
<time>2026-04-26T03:14:53.998Z</time>
</trkpt>
<trkpt lat="59.0994900" lon="30.0281350">
<ele>77.510643</ele>
<time>2026-04-26T03:15:07.001Z</time>
</trkpt>
<trkpt lat="59.0994940" lon="30.0281070">
<ele>77.419197</ele>
<time>2026-04-26T03:15:08.004Z</time>
</trkpt>
<trkpt lat="59.0994860" lon="30.0278690">
<ele>80.070961</ele>
<time>2026-04-26T03:15:20.998Z</time>
</trkpt>
<trkpt lat="59.0994880" lon="30.0277350">
<ele>80.345284</ele>
<time>2026-04-26T03:15:32.999Z</time>
</trkpt>
<trkpt lat="59.0994390" lon="30.0274710">
<ele>79.644234</ele>
<time>2026-04-26T03:15:47.998Z</time>
</trkpt>
<trkpt lat="59.0994330" lon="30.0274340">
<ele>79.430885</ele>
<time>2026-04-26T03:15:50.003Z</time>
</trkpt>
<trkpt lat="59.0994290" lon="30.0273840">
<ele>79.491837</ele>
<time>2026-04-26T03:15:51.998Z</time>
</trkpt>
<trkpt lat="59.0993970" lon="30.0272340">
<ele>79.126083</ele>
<time>2026-04-26T03:15:59.999Z</time>
</trkpt>
<trkpt lat="59.0993450" lon="30.0269640">
<ele>79.705200</ele>
<time>2026-04-26T03:16:16.000Z</time>
</trkpt>
<trkpt lat="59.0993250" lon="30.0267420">
<ele>79.217522</ele>
<time>2026-04-26T03:16:28.001Z</time>
</trkpt>
<trkpt lat="59.0993060" lon="30.0265680">
<ele>78.242165</ele>
<time>2026-04-26T03:16:40.002Z</time>
</trkpt>
<trkpt lat="59.0992530" lon="30.0263770">
<ele>75.803757</ele>
<time>2026-04-26T03:16:52.997Z</time>
</trkpt>
<trkpt lat="59.0992170" lon="30.0262810">
<ele>75.377045</ele>
<time>2026-04-26T03:17:04.004Z</time>
</trkpt>
<trkpt lat="59.0991840" lon="30.0262050">
<ele>74.462639</ele>
<time>2026-04-26T03:17:10.000Z</time>
</trkpt>
<trkpt lat="59.0991680" lon="30.0259050">
<ele>73.152000</ele>
<time>2026-04-26T03:17:24.999Z</time>
</trkpt>
<trkpt lat="59.0991500" lon="30.0257000">
<ele>72.542397</ele>
<time>2026-04-26T03:17:35.998Z</time>
</trkpt>
<trkpt lat="59.0991020" lon="30.0254970">
<ele>72.176643</ele>
<time>2026-04-26T03:17:49.001Z</time>
</trkpt>
<trkpt lat="59.0990720" lon="30.0252570">
<ele>71.902321</ele>
<time>2026-04-26T03:18:02.998Z</time>
</trkpt>
<trkpt lat="59.0990610" lon="30.0252210">
<ele>71.749916</ele>
<time>2026-04-26T03:18:05.996Z</time>
</trkpt>
<trkpt lat="59.0990050" lon="30.0249480">
<ele>71.536560</ele>
<time>2026-04-26T03:18:20.002Z</time>
</trkpt>
<trkpt lat="59.0989960" lon="30.0247390">
<ele>71.445122</ele>
<time>2026-04-26T03:18:32.996Z</time>
</trkpt>
<trkpt lat="59.0989280" lon="30.0244990">
<ele>71.170799</ele>
<time>2026-04-26T03:18:47.002Z</time>
</trkpt>
<trkpt lat="59.0988640" lon="30.0242730">
<ele>71.140320</ele>
<time>2026-04-26T03:19:00.998Z</time>
</trkpt>
<trkpt lat="59.0988220" lon="30.0240820">
<ele>71.140320</ele>
<time>2026-04-26T03:19:12.999Z</time>
</trkpt>
<trkpt lat="59.0988110" lon="30.0239300">
<ele>71.292717</ele>
<time>2026-04-26T03:19:19.998Z</time>
</trkpt>
<trkpt lat="59.0987680" lon="30.0236370">
<ele>71.231758</ele>
<time>2026-04-26T03:19:34.997Z</time>
</trkpt>
<trkpt lat="59.0987640" lon="30.0234320">
<ele>71.353683</ele>
<time>2026-04-26T03:19:46.998Z</time>
</trkpt>
<trkpt lat="59.0987090" lon="30.0232590">
<ele>70.926956</ele>
<time>2026-04-26T03:19:58.999Z</time>
</trkpt>
</trkseg>
</trk>
</gpx>
